<?xml version="1.0" encoding="UTF-8" standalone="no" ?>
<gpx xmlns="http://www.topografix.com/GPX/1/1" xmlns:xsi="http://www.w3.org/2001/XMLSchema-instance" xsi:schemaLocation="http://www.topografix.com/GPX/1/1 http://www.topografix.com/GPX/1/1/gpx.xsd" version="1.1" creator="VisuGPX - https://www.visugpx.com">
  <metadata>
    <name>Single du Meillarot</name>
  </metadata>
  <trk>
    <name><![CDATA[Autrans-Méaudre en Vercors VTT]]></name>
    <extensions>
      <line xmlns="http://www.topografix.com/GPX/gpx_style/0/2">
        <color>0000FF</color>
        <width>4</width>
      </line>
    </extensions>
    <trkseg>
      <trkpt lat="45.12986" lon="5.5319">
        <ele>973.3</ele>
        <time>2022-08-12T07:43:56.000Z</time>
        <extensions>
          <visugpx:TrkExtension xmlns:visugpx="https://www.visugpx.com/editgpx/">
            <visugpx:node>3</visugpx:node>
            </visugpx:TrkExtension>
        </extensions>
      </trkpt>
      <trkpt lat="45.12983" lon="5.53177">
        <ele>972.8</ele>
        <time>2022-08-12T07:43:57.000Z</time>
      </trkpt>
      <trkpt lat="45.12997" lon="5.53179">
        <ele>973.3</ele>
        <time>2022-08-12T07:43:59.000Z</time>
      </trkpt>
      <trkpt lat="45.12999" lon="5.53176">
        <ele>973.3</ele>
        <time>2022-08-12T07:44:00.000Z</time>
      </trkpt>
      <trkpt lat="45.13005" lon="5.53176">
        <ele>973.4</ele>
        <time>2022-08-12T07:44:01.000Z</time>
      </trkpt>
      <trkpt lat="45.13009" lon="5.53175">
        <ele>973.4</ele>
        <time>2022-08-12T07:44:02.000Z</time>
      </trkpt>
      <trkpt lat="45.13013" lon="5.53174">
        <ele>973.4</ele>
        <time>2022-08-12T07:44:03.000Z</time>
      </trkpt>
      <trkpt lat="45.13016" lon="5.53172">
        <ele>973.3</ele>
        <time>2022-08-12T07:44:04.000Z</time>
      </trkpt>
      <trkpt lat="45.13021" lon="5.53171">
        <ele>973.3</ele>
        <time>2022-08-12T07:44:05.000Z</time>
      </trkpt>
      <trkpt lat="45.13031" lon="5.53169">
        <ele>973.2</ele>
        <time>2022-08-12T07:44:07.000Z</time>
      </trkpt>
      <trkpt lat="45.13039" lon="5.53165">
        <ele>972.8</ele>
        <time>2022-08-12T07:44:09.000Z</time>
      </trkpt>
      <trkpt lat="45.13046" lon="5.53165">
        <ele>972.8</ele>
        <time>2022-08-12T07:44:11.000Z</time>
      </trkpt>
      <trkpt lat="45.13049" lon="5.53168">
        <ele>973.1</ele>
        <time>2022-08-12T07:44:12.000Z</time>
      </trkpt>
      <trkpt lat="45.1305" lon="5.53172">
        <ele>973.4</ele>
        <time>2022-08-12T07:44:13.000Z</time>
      </trkpt>
      <trkpt lat="45.13052" lon="5.53175">
        <ele>973.6</ele>
        <time>2022-08-12T07:44:14.000Z</time>
      </trkpt>
      <trkpt lat="45.13053" lon="5.53179">
        <ele>973.9</ele>
        <time>2022-08-12T07:44:15.000Z</time>
      </trkpt>
      <trkpt lat="45.13054" lon="5.53182">
        <ele>974.1</ele>
        <time>2022-08-12T07:44:16.000Z</time>
      </trkpt>
      <trkpt lat="45.13054" lon="5.53186">
        <ele>974.4</ele>
        <time>2022-08-12T07:44:17.000Z</time>
      </trkpt>
      <trkpt lat="45.13054" lon="5.53189">
        <ele>974.6</ele>
        <time>2022-08-12T07:44:18.000Z</time>
      </trkpt>
      <trkpt lat="45.13056" lon="5.53199">
        <ele>975.1</ele>
        <time>2022-08-12T07:44:21.000Z</time>
      </trkpt>
      <trkpt lat="45.13057" lon="5.53202">
        <ele>975.2</ele>
        <time>2022-08-12T07:44:22.000Z</time>
      </trkpt>
      <trkpt lat="45.13058" lon="5.53204">
        <ele>975.3</ele>
        <time>2022-08-12T07:44:23.000Z</time>
      </trkpt>
      <trkpt lat="45.13058" lon="5.53207">
        <ele>975.4</ele>
        <time>2022-08-12T07:44:24.000Z</time>
      </trkpt>
      <trkpt lat="45.13059" lon="5.5321">
        <ele>975.4</ele>
        <time>2022-08-12T07:44:25.000Z</time>
      </trkpt>
      <trkpt lat="45.13059" lon="5.53213">
        <ele>975.5</ele>
        <time>2022-08-12T07:44:26.000Z</time>
      </trkpt>
      <trkpt lat="45.1306" lon="5.53216">
        <ele>975.6</ele>
        <time>2022-08-12T07:44:27.000Z</time>
      </trkpt>
      <trkpt lat="45.1306" lon="5.53219">
        <ele>975.7</ele>
        <time>2022-08-12T07:44:28.000Z</time>
      </trkpt>
      <trkpt lat="45.13061" lon="5.53221">
        <ele>975.8</ele>
        <time>2022-08-12T07:44:29.000Z</time>
      </trkpt>
      <trkpt lat="45.13062" lon="5.53224">
        <ele>975.9</ele>
        <time>2022-08-12T07:44:30.000Z</time>
      </trkpt>
      <trkpt lat="45.13064" lon="5.5324">
        <ele>976.4</ele>
        <time>2022-08-12T07:44:36.000Z</time>
      </trkpt>
      <trkpt lat="45.13064" lon="5.53243">
        <ele>976.4</ele>
        <time>2022-08-12T07:44:37.000Z</time>
      </trkpt>
      <trkpt lat="45.13067" lon="5.53257">
        <ele>977</ele>
        <time>2022-08-12T07:44:42.000Z</time>
      </trkpt>
      <trkpt lat="45.13068" lon="5.5326">
        <ele>977.1</ele>
        <time>2022-08-12T07:44:43.000Z</time>
      </trkpt>
      <trkpt lat="45.13069" lon="5.53265">
        <ele>977.3</ele>
        <time>2022-08-12T07:44:45.000Z</time>
      </trkpt>
      <trkpt lat="45.1307" lon="5.53268">
        <ele>977.4</ele>
        <time>2022-08-12T07:44:46.000Z</time>
      </trkpt>
      <trkpt lat="45.13071" lon="5.53273">
        <ele>977.8</ele>
        <time>2022-08-12T07:44:48.000Z</time>
      </trkpt>
      <trkpt lat="45.13072" lon="5.5328">
        <ele>978.1</ele>
        <time>2022-08-12T07:44:50.000Z</time>
      </trkpt>
      <trkpt lat="45.13073" lon="5.53283">
        <ele>978.2</ele>
        <time>2022-08-12T07:44:51.000Z</time>
      </trkpt>
      <trkpt lat="45.13074" lon="5.53291">
        <ele>978.5</ele>
        <time>2022-08-12T07:44:54.000Z</time>
      </trkpt>
      <trkpt lat="45.13075" lon="5.53294">
        <ele>978.6</ele>
        <time>2022-08-12T07:44:55.000Z</time>
      </trkpt>
      <trkpt lat="45.13075" lon="5.533">
        <ele>978.8</ele>
        <time>2022-08-12T07:44:57.000Z</time>
      </trkpt>
      <trkpt lat="45.13079" lon="5.53319">
        <ele>979.5</ele>
        <time>2022-08-12T07:45:04.000Z</time>
      </trkpt>
      <trkpt lat="45.13081" lon="5.53324">
        <ele>979.7</ele>
        <time>2022-08-12T07:45:06.000Z</time>
      </trkpt>
      <trkpt lat="45.13081" lon="5.53327">
        <ele>979.8</ele>
        <time>2022-08-12T07:45:07.000Z</time>
      </trkpt>
      <trkpt lat="45.13083" lon="5.53333">
        <ele>980</ele>
        <time>2022-08-12T07:45:09.000Z</time>
      </trkpt>
      <trkpt lat="45.13084" lon="5.53339">
        <ele>980.4</ele>
        <time>2022-08-12T07:45:11.000Z</time>
      </trkpt>
      <trkpt lat="45.13085" lon="5.53342">
        <ele>980.6</ele>
        <time>2022-08-12T07:45:12.000Z</time>
      </trkpt>
      <trkpt lat="45.13085" lon="5.53345">
        <ele>980.8</ele>
        <time>2022-08-12T07:45:13.000Z</time>
      </trkpt>
      <trkpt lat="45.13086" lon="5.53347">
        <ele>981</ele>
        <time>2022-08-12T07:45:14.000Z</time>
      </trkpt>
      <trkpt lat="45.13086" lon="5.5335">
        <ele>981.2</ele>
        <time>2022-08-12T07:45:15.000Z</time>
      </trkpt>
      <trkpt lat="45.13086" lon="5.53353">
        <ele>981.4</ele>
        <time>2022-08-12T07:45:16.000Z</time>
      </trkpt>
      <trkpt lat="45.13087" lon="5.53356">
        <ele>981.7</ele>
        <time>2022-08-12T07:45:17.000Z</time>
      </trkpt>
      <trkpt lat="45.13087" lon="5.53359">
        <ele>981.8</ele>
        <time>2022-08-12T07:45:18.000Z</time>
      </trkpt>
      <trkpt lat="45.13088" lon="5.53362">
        <ele>982.1</ele>
        <time>2022-08-12T07:45:19.000Z</time>
      </trkpt>
      <trkpt lat="45.13088" lon="5.53365">
        <ele>982.3</ele>
        <time>2022-08-12T07:45:20.000Z</time>
      </trkpt>
      <trkpt lat="45.13089" lon="5.53368">
        <ele>982.5</ele>
        <time>2022-08-12T07:45:21.000Z</time>
      </trkpt>
      <trkpt lat="45.13089" lon="5.53371">
        <ele>982.7</ele>
        <time>2022-08-12T07:45:22.000Z</time>
      </trkpt>
      <trkpt lat="45.1309" lon="5.53373">
        <ele>982.9</ele>
        <time>2022-08-12T07:45:23.000Z</time>
      </trkpt>
      <trkpt lat="45.13091" lon="5.53376">
        <ele>983.1</ele>
        <time>2022-08-12T07:45:24.000Z</time>
      </trkpt>
      <trkpt lat="45.13091" lon="5.53378">
        <ele>983.2</ele>
        <time>2022-08-12T07:45:25.000Z</time>
      </trkpt>
      <trkpt lat="45.13092" lon="5.53381">
        <ele>983.4</ele>
        <time>2022-08-12T07:45:26.000Z</time>
      </trkpt>
      <trkpt lat="45.13093" lon="5.53384">
        <ele>983.6</ele>
        <time>2022-08-12T07:45:27.000Z</time>
      </trkpt>
      <trkpt lat="45.13093" lon="5.53387">
        <ele>983.8</ele>
        <time>2022-08-12T07:45:28.000Z</time>
      </trkpt>
      <trkpt lat="45.13094" lon="5.5339">
        <ele>984</ele>
        <time>2022-08-12T07:45:29.000Z</time>
      </trkpt>
      <trkpt lat="45.13095" lon="5.53393">
        <ele>984.2</ele>
        <time>2022-08-12T07:45:30.000Z</time>
      </trkpt>
      <trkpt lat="45.13096" lon="5.53395">
        <ele>984.3</ele>
        <time>2022-08-12T07:45:31.000Z</time>
      </trkpt>
      <trkpt lat="45.13096" lon="5.53399">
        <ele>984.5</ele>
        <time>2022-08-12T07:45:32.000Z</time>
      </trkpt>
      <trkpt lat="45.13097" lon="5.53401">
        <ele>984.6</ele>
        <time>2022-08-12T07:45:33.000Z</time>
      </trkpt>
      <trkpt lat="45.13098" lon="5.53404">
        <ele>984.8</ele>
        <time>2022-08-12T07:45:34.000Z</time>
      </trkpt>
      <trkpt lat="45.13099" lon="5.53406">
        <ele>985</ele>
        <time>2022-08-12T07:45:35.000Z</time>
      </trkpt>
      <trkpt lat="45.131" lon="5.53409">
        <ele>985.2</ele>
        <time>2022-08-12T07:45:36.000Z</time>
      </trkpt>
      <trkpt lat="45.13101" lon="5.53412">
        <ele>985.3</ele>
        <time>2022-08-12T07:45:37.000Z</time>
      </trkpt>
      <trkpt lat="45.13101" lon="5.53415">
        <ele>985.5</ele>
        <time>2022-08-12T07:45:38.000Z</time>
      </trkpt>
      <trkpt lat="45.13102" lon="5.53417">
        <ele>985.7</ele>
        <time>2022-08-12T07:45:39.000Z</time>
      </trkpt>
      <trkpt lat="45.13103" lon="5.5342">
        <ele>986</ele>
        <time>2022-08-12T07:45:40.000Z</time>
      </trkpt>
      <trkpt lat="45.13104" lon="5.53423">
        <ele>986.2</ele>
        <time>2022-08-12T07:45:41.000Z</time>
      </trkpt>
      <trkpt lat="45.13105" lon="5.53425">
        <ele>986.5</ele>
        <time>2022-08-12T07:45:42.000Z</time>
      </trkpt>
      <trkpt lat="45.13105" lon="5.53428">
        <ele>986.7</ele>
        <time>2022-08-12T07:45:43.000Z</time>
      </trkpt>
      <trkpt lat="45.13106" lon="5.53431">
        <ele>986.9</ele>
        <time>2022-08-12T07:45:44.000Z</time>
      </trkpt>
      <trkpt lat="45.13107" lon="5.53433">
        <ele>987.1</ele>
        <time>2022-08-12T07:45:45.000Z</time>
      </trkpt>
      <trkpt lat="45.13107" lon="5.53436">
        <ele>987.3</ele>
        <time>2022-08-12T07:45:46.000Z</time>
      </trkpt>
      <trkpt lat="45.13108" lon="5.53438">
        <ele>987.5</ele>
        <time>2022-08-12T07:45:47.000Z</time>
      </trkpt>
      <trkpt lat="45.13109" lon="5.53441">
        <ele>987.7</ele>
        <time>2022-08-12T07:45:48.000Z</time>
      </trkpt>
      <trkpt lat="45.1311" lon="5.53444">
        <ele>987.9</ele>
        <time>2022-08-12T07:45:49.000Z</time>
      </trkpt>
      <trkpt lat="45.1311" lon="5.53446">
        <ele>988.1</ele>
        <time>2022-08-12T07:45:50.000Z</time>
      </trkpt>
      <trkpt lat="45.13111" lon="5.53449">
        <ele>988.1</ele>
        <time>2022-08-12T07:45:51.000Z</time>
      </trkpt>
      <trkpt lat="45.13112" lon="5.53451">
        <ele>988.3</ele>
        <time>2022-08-12T07:45:52.000Z</time>
      </trkpt>
      <trkpt lat="45.13112" lon="5.53454">
        <ele>988.4</ele>
        <time>2022-08-12T07:45:53.000Z</time>
      </trkpt>
      <trkpt lat="45.13113" lon="5.53457">
        <ele>988.5</ele>
        <time>2022-08-12T07:45:54.000Z</time>
      </trkpt>
      <trkpt lat="45.13114" lon="5.53459">
        <ele>988.7</ele>
        <time>2022-08-12T07:45:55.000Z</time>
      </trkpt>
      <trkpt lat="45.13115" lon="5.53461">
        <ele>988.8</ele>
        <time>2022-08-12T07:45:56.000Z</time>
      </trkpt>
      <trkpt lat="45.13115" lon="5.53463">
        <ele>988.9</ele>
        <time>2022-08-12T07:45:57.000Z</time>
      </trkpt>
      <trkpt lat="45.13116" lon="5.53465">
        <ele>989.1</ele>
        <time>2022-08-12T07:45:58.000Z</time>
      </trkpt>
      <trkpt lat="45.13117" lon="5.53468">
        <ele>989.3</ele>
        <time>2022-08-12T07:45:59.000Z</time>
      </trkpt>
      <trkpt lat="45.13118" lon="5.53471">
        <ele>989.4</ele>
        <time>2022-08-12T07:46:00.000Z</time>
      </trkpt>
      <trkpt lat="45.13118" lon="5.53473">
        <ele>989.6</ele>
        <time>2022-08-12T07:46:01.000Z</time>
      </trkpt>
      <trkpt lat="45.13119" lon="5.53476">
        <ele>989.8</ele>
        <time>2022-08-12T07:46:02.000Z</time>
      </trkpt>
      <trkpt lat="45.13119" lon="5.53479">
        <ele>990</ele>
        <time>2022-08-12T07:46:03.000Z</time>
      </trkpt>
      <trkpt lat="45.13119" lon="5.53482">
        <ele>990.3</ele>
        <time>2022-08-12T07:46:04.000Z</time>
      </trkpt>
      <trkpt lat="45.1312" lon="5.53484">
        <ele>990.5</ele>
        <time>2022-08-12T07:46:05.000Z</time>
      </trkpt>
      <trkpt lat="45.1312" lon="5.53486">
        <ele>990.7</ele>
        <time>2022-08-12T07:46:06.000Z</time>
      </trkpt>
      <trkpt lat="45.13121" lon="5.53488">
        <ele>990.9</ele>
        <time>2022-08-12T07:46:07.000Z</time>
      </trkpt>
      <trkpt lat="45.13122" lon="5.53491">
        <ele>991.1</ele>
        <time>2022-08-12T07:46:08.000Z</time>
      </trkpt>
      <trkpt lat="45.13122" lon="5.53493">
        <ele>991.3</ele>
        <time>2022-08-12T07:46:09.000Z</time>
      </trkpt>
      <trkpt lat="45.13123" lon="5.53496">
        <ele>991.5</ele>
        <time>2022-08-12T07:46:10.000Z</time>
      </trkpt>
      <trkpt lat="45.13124" lon="5.53498">
        <ele>991.8</ele>
        <time>2022-08-12T07:46:11.000Z</time>
      </trkpt>
      <trkpt lat="45.13125" lon="5.535">
        <ele>992</ele>
        <time>2022-08-12T07:46:12.000Z</time>
      </trkpt>
      <trkpt lat="45.13126" lon="5.53502">
        <ele>992.2</ele>
        <time>2022-08-12T07:46:13.000Z</time>
      </trkpt>
      <trkpt lat="45.13126" lon="5.53505">
        <ele>992.4</ele>
        <time>2022-08-12T07:46:14.000Z</time>
      </trkpt>
      <trkpt lat="45.13127" lon="5.53507">
        <ele>992.6</ele>
        <time>2022-08-12T07:46:15.000Z</time>
      </trkpt>
      <trkpt lat="45.13128" lon="5.53509">
        <ele>992.8</ele>
        <time>2022-08-12T07:46:16.000Z</time>
      </trkpt>
      <trkpt lat="45.13128" lon="5.53512">
        <ele>993.1</ele>
        <time>2022-08-12T07:46:17.000Z</time>
      </trkpt>
      <trkpt lat="45.13129" lon="5.53514">
        <ele>993.3</ele>
        <time>2022-08-12T07:46:18.000Z</time>
      </trkpt>
      <trkpt lat="45.13129" lon="5.53516">
        <ele>993.5</ele>
        <time>2022-08-12T07:46:19.000Z</time>
      </trkpt>
      <trkpt lat="45.1313" lon="5.53518">
        <ele>993.7</ele>
        <time>2022-08-12T07:46:20.000Z</time>
      </trkpt>
      <trkpt lat="45.1313" lon="5.53521">
        <ele>993.8</ele>
        <time>2022-08-12T07:46:21.000Z</time>
      </trkpt>
      <trkpt lat="45.1313" lon="5.53523">
        <ele>994</ele>
        <time>2022-08-12T07:46:22.000Z</time>
      </trkpt>
      <trkpt lat="45.1313" lon="5.53526">
        <ele>994.2</ele>
        <time>2022-08-12T07:46:23.000Z</time>
      </trkpt>
      <trkpt lat="45.13131" lon="5.53528">
        <ele>994.4</ele>
        <time>2022-08-12T07:46:24.000Z</time>
      </trkpt>
      <trkpt lat="45.13131" lon="5.53531">
        <ele>994.6</ele>
        <time>2022-08-12T07:46:25.000Z</time>
      </trkpt>
      <trkpt lat="45.13131" lon="5.53534">
        <ele>994.7</ele>
        <time>2022-08-12T07:46:26.000Z</time>
      </trkpt>
      <trkpt lat="45.13131" lon="5.53536">
        <ele>994.8</ele>
        <time>2022-08-12T07:46:27.000Z</time>
      </trkpt>
      <trkpt lat="45.13132" lon="5.53539">
        <ele>994.9</ele>
        <time>2022-08-12T07:46:28.000Z</time>
      </trkpt>
      <trkpt lat="45.13132" lon="5.53541">
        <ele>995</ele>
        <time>2022-08-12T07:46:29.000Z</time>
      </trkpt>
      <trkpt lat="45.13132" lon="5.53544">
        <ele>995.1</ele>
        <time>2022-08-12T07:46:30.000Z</time>
      </trkpt>
      <trkpt lat="45.13132" lon="5.53546">
        <ele>995.2</ele>
        <time>2022-08-12T07:46:31.000Z</time>
      </trkpt>
      <trkpt lat="45.13132" lon="5.53548">
        <ele>995.3</ele>
        <time>2022-08-12T07:46:32.000Z</time>
      </trkpt>
      <trkpt lat="45.13133" lon="5.5355">
        <ele>995.4</ele>
        <time>2022-08-12T07:46:33.000Z</time>
      </trkpt>
      <trkpt lat="45.13133" lon="5.53552">
        <ele>995.4</ele>
        <time>2022-08-12T07:46:34.000Z</time>
      </trkpt>
      <trkpt lat="45.13133" lon="5.53554">
        <ele>995.5</ele>
        <time>2022-08-12T07:46:35.000Z</time>
      </trkpt>
      <trkpt lat="45.13133" lon="5.53556">
        <ele>995.6</ele>
        <time>2022-08-12T07:46:36.000Z</time>
      </trkpt>
      <trkpt lat="45.13133" lon="5.53559">
        <ele>995.9</ele>
        <time>2022-08-12T07:46:37.000Z</time>
      </trkpt>
      <trkpt lat="45.13133" lon="5.53561">
        <ele>996</ele>
        <time>2022-08-12T07:46:38.000Z</time>
      </trkpt>
      <trkpt lat="45.13133" lon="5.53563">
        <ele>996.2</ele>
        <time>2022-08-12T07:46:39.000Z</time>
      </trkpt>
      <trkpt lat="45.13132" lon="5.53565">
        <ele>996.4</ele>
        <time>2022-08-12T07:46:40.000Z</time>
      </trkpt>
      <trkpt lat="45.13133" lon="5.53567">
        <ele>996.6</ele>
        <time>2022-08-12T07:46:41.000Z</time>
      </trkpt>
      <trkpt lat="45.13133" lon="5.5357">
        <ele>996.9</ele>
        <time>2022-08-12T07:46:42.000Z</time>
      </trkpt>
      <trkpt lat="45.13133" lon="5.53572">
        <ele>997.1</ele>
        <time>2022-08-12T07:46:43.000Z</time>
      </trkpt>
      <trkpt lat="45.13133" lon="5.53574">
        <ele>997.3</ele>
        <time>2022-08-12T07:46:44.000Z</time>
      </trkpt>
      <trkpt lat="45.13132" lon="5.53576">
        <ele>997.4</ele>
        <time>2022-08-12T07:46:45.000Z</time>
      </trkpt>
      <trkpt lat="45.13133" lon="5.53579">
        <ele>997.6</ele>
        <time>2022-08-12T07:46:46.000Z</time>
      </trkpt>
      <trkpt lat="45.13133" lon="5.53581">
        <ele>997.9</ele>
        <time>2022-08-12T07:46:47.000Z</time>
      </trkpt>
      <trkpt lat="45.13133" lon="5.53584">
        <ele>998.1</ele>
        <time>2022-08-12T07:46:48.000Z</time>
      </trkpt>
      <trkpt lat="45.13132" lon="5.53586">
        <ele>998.2</ele>
        <time>2022-08-12T07:46:49.000Z</time>
      </trkpt>
      <trkpt lat="45.13132" lon="5.53587">
        <ele>998.3</ele>
        <time>2022-08-12T07:46:50.000Z</time>
      </trkpt>
      <trkpt lat="45.13132" lon="5.53589">
        <ele>998.4</ele>
        <time>2022-08-12T07:46:51.000Z</time>
      </trkpt>
      <trkpt lat="45.13132" lon="5.53592">
        <ele>998.6</ele>
        <time>2022-08-12T07:46:52.000Z</time>
      </trkpt>
      <trkpt lat="45.13132" lon="5.53594">
        <ele>998.7</ele>
        <time>2022-08-12T07:46:53.000Z</time>
      </trkpt>
      <trkpt lat="45.13132" lon="5.53597">
        <ele>998.9</ele>
        <time>2022-08-12T07:46:54.000Z</time>
      </trkpt>
      <trkpt lat="45.13132" lon="5.53599">
        <ele>999.1</ele>
        <time>2022-08-12T07:46:55.000Z</time>
      </trkpt>
      <trkpt lat="45.13132" lon="5.53601">
        <ele>999.2</ele>
        <time>2022-08-12T07:46:56.000Z</time>
      </trkpt>
      <trkpt lat="45.13132" lon="5.53604">
        <ele>999.5</ele>
        <time>2022-08-12T07:46:57.000Z</time>
      </trkpt>
      <trkpt lat="45.13132" lon="5.53606">
        <ele>999.7</ele>
        <time>2022-08-12T07:46:58.000Z</time>
      </trkpt>
      <trkpt lat="45.13132" lon="5.53609">
        <ele>999.9</ele>
        <time>2022-08-12T07:46:59.000Z</time>
      </trkpt>
      <trkpt lat="45.13132" lon="5.53611">
        <ele>1000</ele>
        <time>2022-08-12T07:47:00.000Z</time>
      </trkpt>
      <trkpt lat="45.13132" lon="5.53613">
        <ele>1000.2</ele>
        <time>2022-08-12T07:47:01.000Z</time>
      </trkpt>
      <trkpt lat="45.13132" lon="5.53615">
        <ele>1000.3</ele>
        <time>2022-08-12T07:47:02.000Z</time>
      </trkpt>
      <trkpt lat="45.13133" lon="5.53617">
        <ele>1000.5</ele>
        <time>2022-08-12T07:47:03.000Z</time>
      </trkpt>
      <trkpt lat="45.13133" lon="5.5362">
        <ele>1000.6</ele>
        <time>2022-08-12T07:47:04.000Z</time>
      </trkpt>
      <trkpt lat="45.13133" lon="5.53622">
        <ele>1000.8</ele>
        <time>2022-08-12T07:47:05.000Z</time>
      </trkpt>
      <trkpt lat="45.13133" lon="5.53624">
        <ele>1001</ele>
        <time>2022-08-12T07:47:06.000Z</time>
      </trkpt>
      <trkpt lat="45.13133" lon="5.53627">
        <ele>1001.3</ele>
        <time>2022-08-12T07:47:07.000Z</time>
      </trkpt>
      <trkpt lat="45.13134" lon="5.5363">
        <ele>1001.5</ele>
        <time>2022-08-12T07:47:08.000Z</time>
      </trkpt>
      <trkpt lat="45.13134" lon="5.53633">
        <ele>1001.7</ele>
        <time>2022-08-12T07:47:09.000Z</time>
      </trkpt>
      <trkpt lat="45.13134" lon="5.53634">
        <ele>1001.8</ele>
        <time>2022-08-12T07:47:10.000Z</time>
      </trkpt>
      <trkpt lat="45.13134" lon="5.53637">
        <ele>1002</ele>
        <time>2022-08-12T07:47:11.000Z</time>
      </trkpt>
      <trkpt lat="45.13134" lon="5.53639">
        <ele>1002.2</ele>
        <time>2022-08-12T07:47:12.000Z</time>
      </trkpt>
      <trkpt lat="45.13135" lon="5.53641">
        <ele>1002.4</ele>
        <time>2022-08-12T07:47:13.000Z</time>
      </trkpt>
      <trkpt lat="45.13136" lon="5.53643">
        <ele>1002.6</ele>
        <time>2022-08-12T07:47:14.000Z</time>
      </trkpt>
      <trkpt lat="45.13136" lon="5.53646">
        <ele>1002.7</ele>
        <time>2022-08-12T07:47:15.000Z</time>
      </trkpt>
      <trkpt lat="45.13136" lon="5.53648">
        <ele>1002.8</ele>
        <time>2022-08-12T07:47:16.000Z</time>
      </trkpt>
      <trkpt lat="45.13137" lon="5.53651">
        <ele>1003</ele>
        <time>2022-08-12T07:47:17.000Z</time>
      </trkpt>
      <trkpt lat="45.13137" lon="5.53653">
        <ele>1003.2</ele>
        <time>2022-08-12T07:47:18.000Z</time>
      </trkpt>
      <trkpt lat="45.13138" lon="5.53655">
        <ele>1003.4</ele>
        <time>2022-08-12T07:47:19.000Z</time>
      </trkpt>
      <trkpt lat="45.13138" lon="5.53657">
        <ele>1003.5</ele>
        <time>2022-08-12T07:47:20.000Z</time>
      </trkpt>
      <trkpt lat="45.13138" lon="5.53659">
        <ele>1003.6</ele>
        <time>2022-08-12T07:47:21.000Z</time>
      </trkpt>
      <trkpt lat="45.13139" lon="5.53661">
        <ele>1003.8</ele>
        <time>2022-08-12T07:47:22.000Z</time>
      </trkpt>
      <trkpt lat="45.13139" lon="5.53663">
        <ele>1003.9</ele>
        <time>2022-08-12T07:47:23.000Z</time>
      </trkpt>
      <trkpt lat="45.1314" lon="5.53666">
        <ele>1004.2</ele>
        <time>2022-08-12T07:47:24.000Z</time>
      </trkpt>
      <trkpt lat="45.13141" lon="5.53668">
        <ele>1004.3</ele>
        <time>2022-08-12T07:47:25.000Z</time>
      </trkpt>
      <trkpt lat="45.13141" lon="5.53669">
        <ele>1004.4</ele>
        <time>2022-08-12T07:47:26.000Z</time>
      </trkpt>
      <trkpt lat="45.13141" lon="5.53672">
        <ele>1004.5</ele>
        <time>2022-08-12T07:47:27.000Z</time>
      </trkpt>
      <trkpt lat="45.13142" lon="5.53674">
        <ele>1004.6</ele>
        <time>2022-08-12T07:47:28.000Z</time>
      </trkpt>
      <trkpt lat="45.13143" lon="5.53676">
        <ele>1004.8</ele>
        <time>2022-08-12T07:47:29.000Z</time>
      </trkpt>
      <trkpt lat="45.13143" lon="5.53678">
        <ele>1004.8</ele>
        <time>2022-08-12T07:47:30.000Z</time>
      </trkpt>
      <trkpt lat="45.13144" lon="5.5368">
        <ele>1004.9</ele>
        <time>2022-08-12T07:47:31.000Z</time>
      </trkpt>
      <trkpt lat="45.13144" lon="5.53683">
        <ele>1005.1</ele>
        <time>2022-08-12T07:47:32.000Z</time>
      </trkpt>
      <trkpt lat="45.13144" lon="5.53684">
        <ele>1005.1</ele>
        <time>2022-08-12T07:47:33.000Z</time>
      </trkpt>
      <trkpt lat="45.13145" lon="5.53686">
        <ele>1005.2</ele>
        <time>2022-08-12T07:47:34.000Z</time>
      </trkpt>
      <trkpt lat="45.13146" lon="5.53689">
        <ele>1005.4</ele>
        <time>2022-08-12T07:47:35.000Z</time>
      </trkpt>
      <trkpt lat="45.13146" lon="5.53691">
        <ele>1005.5</ele>
        <time>2022-08-12T07:47:36.000Z</time>
      </trkpt>
      <trkpt lat="45.13146" lon="5.53693">
        <ele>1005.6</ele>
        <time>2022-08-12T07:47:37.000Z</time>
      </trkpt>
      <trkpt lat="45.13147" lon="5.53695">
        <ele>1005.8</ele>
        <time>2022-08-12T07:47:38.000Z</time>
      </trkpt>
      <trkpt lat="45.13147" lon="5.53697">
        <ele>1005.9</ele>
        <time>2022-08-12T07:47:39.000Z</time>
      </trkpt>
      <trkpt lat="45.13148" lon="5.53699">
        <ele>1006.1</ele>
        <time>2022-08-12T07:47:40.000Z</time>
      </trkpt>
      <trkpt lat="45.13149" lon="5.53701">
        <ele>1006.3</ele>
        <time>2022-08-12T07:47:41.000Z</time>
      </trkpt>
      <trkpt lat="45.13149" lon="5.53703">
        <ele>1006.6</ele>
        <time>2022-08-12T07:47:42.000Z</time>
      </trkpt>
      <trkpt lat="45.1315" lon="5.53705">
        <ele>1006.8</ele>
        <time>2022-08-12T07:47:43.000Z</time>
      </trkpt>
      <trkpt lat="45.1315" lon="5.53707">
        <ele>1006.9</ele>
        <time>2022-08-12T07:47:44.000Z</time>
      </trkpt>
      <trkpt lat="45.13151" lon="5.53709">
        <ele>1007.1</ele>
        <time>2022-08-12T07:47:45.000Z</time>
      </trkpt>
      <trkpt lat="45.13151" lon="5.53712">
        <ele>1007.3</ele>
        <time>2022-08-12T07:47:46.000Z</time>
      </trkpt>
      <trkpt lat="45.13152" lon="5.53714">
        <ele>1007.5</ele>
        <time>2022-08-12T07:47:47.000Z</time>
      </trkpt>
      <trkpt lat="45.13152" lon="5.53716">
        <ele>1007.7</ele>
        <time>2022-08-12T07:47:48.000Z</time>
      </trkpt>
      <trkpt lat="45.13153" lon="5.53718">
        <ele>1007.9</ele>
        <time>2022-08-12T07:47:49.000Z</time>
      </trkpt>
      <trkpt lat="45.13154" lon="5.53721">
        <ele>1008.1</ele>
        <time>2022-08-12T07:47:50.000Z</time>
      </trkpt>
      <trkpt lat="45.13154" lon="5.53723">
        <ele>1008.3</ele>
        <time>2022-08-12T07:47:51.000Z</time>
      </trkpt>
      <trkpt lat="45.13155" lon="5.53725">
        <ele>1008.5</ele>
        <time>2022-08-12T07:47:52.000Z</time>
      </trkpt>
      <trkpt lat="45.13155" lon="5.53727">
        <ele>1008.6</ele>
        <time>2022-08-12T07:47:53.000Z</time>
      </trkpt>
      <trkpt lat="45.13156" lon="5.53729">
        <ele>1008.7</ele>
        <time>2022-08-12T07:47:54.000Z</time>
      </trkpt>
      <trkpt lat="45.13157" lon="5.53731">
        <ele>1008.9</ele>
        <time>2022-08-12T07:47:55.000Z</time>
      </trkpt>
      <trkpt lat="45.13157" lon="5.53733">
        <ele>1009</ele>
        <time>2022-08-12T07:47:56.000Z</time>
      </trkpt>
      <trkpt lat="45.13158" lon="5.53736">
        <ele>1009.1</ele>
        <time>2022-08-12T07:47:57.000Z</time>
      </trkpt>
      <trkpt lat="45.13159" lon="5.53737">
        <ele>1009.3</ele>
        <time>2022-08-12T07:47:58.000Z</time>
      </trkpt>
      <trkpt lat="45.13159" lon="5.5374">
        <ele>1009.4</ele>
        <time>2022-08-12T07:47:59.000Z</time>
      </trkpt>
      <trkpt lat="45.1316" lon="5.53742">
        <ele>1009.6</ele>
        <time>2022-08-12T07:48:00.000Z</time>
      </trkpt>
      <trkpt lat="45.1316" lon="5.53744">
        <ele>1009.7</ele>
        <time>2022-08-12T07:48:01.000Z</time>
      </trkpt>
      <trkpt lat="45.13161" lon="5.53746">
        <ele>1009.7</ele>
        <time>2022-08-12T07:48:02.000Z</time>
      </trkpt>
      <trkpt lat="45.13161" lon="5.53749">
        <ele>1009.8</ele>
        <time>2022-08-12T07:48:03.000Z</time>
      </trkpt>
      <trkpt lat="45.13162" lon="5.53751">
        <ele>1009.9</ele>
        <time>2022-08-12T07:48:04.000Z</time>
      </trkpt>
      <trkpt lat="45.13162" lon="5.53753">
        <ele>1010.2</ele>
        <time>2022-08-12T07:48:05.000Z</time>
      </trkpt>
      <trkpt lat="45.13163" lon="5.53755">
        <ele>1010.4</ele>
        <time>2022-08-12T07:48:06.000Z</time>
      </trkpt>
      <trkpt lat="45.13164" lon="5.53757">
        <ele>1010.7</ele>
        <time>2022-08-12T07:48:07.000Z</time>
      </trkpt>
      <trkpt lat="45.13164" lon="5.53759">
        <ele>1010.9</ele>
        <time>2022-08-12T07:48:08.000Z</time>
      </trkpt>
      <trkpt lat="45.13165" lon="5.53761">
        <ele>1011</ele>
        <time>2022-08-12T07:48:09.000Z</time>
      </trkpt>
      <trkpt lat="45.13165" lon="5.53763">
        <ele>1011.2</ele>
        <time>2022-08-12T07:48:10.000Z</time>
      </trkpt>
      <trkpt lat="45.13166" lon="5.53765">
        <ele>1011.4</ele>
        <time>2022-08-12T07:48:11.000Z</time>
      </trkpt>
      <trkpt lat="45.13166" lon="5.53767">
        <ele>1011.5</ele>
        <time>2022-08-12T07:48:12.000Z</time>
      </trkpt>
      <trkpt lat="45.13167" lon="5.53769">
        <ele>1011.7</ele>
        <time>2022-08-12T07:48:13.000Z</time>
      </trkpt>
      <trkpt lat="45.13167" lon="5.53771">
        <ele>1011.8</ele>
        <time>2022-08-12T07:48:14.000Z</time>
      </trkpt>
      <trkpt lat="45.13167" lon="5.53773">
        <ele>1011.9</ele>
        <time>2022-08-12T07:48:15.000Z</time>
      </trkpt>
      <trkpt lat="45.13167" lon="5.53775">
        <ele>1012</ele>
        <time>2022-08-12T07:48:16.000Z</time>
      </trkpt>
      <trkpt lat="45.13167" lon="5.53778">
        <ele>1012.1</ele>
        <time>2022-08-12T07:48:17.000Z</time>
      </trkpt>
      <trkpt lat="45.13167" lon="5.5378">
        <ele>1012.1</ele>
        <time>2022-08-12T07:48:18.000Z</time>
      </trkpt>
      <trkpt lat="45.13167" lon="5.53782">
        <ele>1012.2</ele>
        <time>2022-08-12T07:48:19.000Z</time>
      </trkpt>
      <trkpt lat="45.13167" lon="5.53785">
        <ele>1012.3</ele>
        <time>2022-08-12T07:48:20.000Z</time>
      </trkpt>
      <trkpt lat="45.13167" lon="5.53786">
        <ele>1012.3</ele>
        <time>2022-08-12T07:48:21.000Z</time>
      </trkpt>
      <trkpt lat="45.13167" lon="5.53788">
        <ele>1012.4</ele>
        <time>2022-08-12T07:48:22.000Z</time>
      </trkpt>
      <trkpt lat="45.13167" lon="5.53791">
        <ele>1012.5</ele>
        <time>2022-08-12T07:48:23.000Z</time>
      </trkpt>
      <trkpt lat="45.13167" lon="5.53793">
        <ele>1012.5</ele>
        <time>2022-08-12T07:48:24.000Z</time>
      </trkpt>
      <trkpt lat="45.13166" lon="5.53796">
        <ele>1012.6</ele>
        <time>2022-08-12T07:48:25.000Z</time>
      </trkpt>
      <trkpt lat="45.13166" lon="5.53798">
        <ele>1012.7</ele>
        <time>2022-08-12T07:48:26.000Z</time>
      </trkpt>
      <trkpt lat="45.13166" lon="5.538">
        <ele>1012.7</ele>
        <time>2022-08-12T07:48:27.000Z</time>
      </trkpt>
      <trkpt lat="45.13165" lon="5.53802">
        <ele>1012.7</ele>
        <time>2022-08-12T07:48:28.000Z</time>
      </trkpt>
      <trkpt lat="45.13164" lon="5.53804">
        <ele>1012.7</ele>
        <time>2022-08-12T07:48:29.000Z</time>
      </trkpt>
      <trkpt lat="45.13164" lon="5.53807">
        <ele>1012.8</ele>
        <time>2022-08-12T07:48:30.000Z</time>
      </trkpt>
      <trkpt lat="45.13164" lon="5.53809">
        <ele>1012.9</ele>
        <time>2022-08-12T07:48:31.000Z</time>
      </trkpt>
      <trkpt lat="45.13163" lon="5.53811">
        <ele>1013</ele>
        <time>2022-08-12T07:48:32.000Z</time>
      </trkpt>
      <trkpt lat="45.13163" lon="5.53813">
        <ele>1013.1</ele>
        <time>2022-08-12T07:48:33.000Z</time>
      </trkpt>
      <trkpt lat="45.13162" lon="5.53815">
        <ele>1013.1</ele>
        <time>2022-08-12T07:48:34.000Z</time>
      </trkpt>
      <trkpt lat="45.13161" lon="5.53817">
        <ele>1013.2</ele>
        <time>2022-08-12T07:48:35.000Z</time>
      </trkpt>
      <trkpt lat="45.1316" lon="5.53819">
        <ele>1013.2</ele>
        <time>2022-08-12T07:48:36.000Z</time>
      </trkpt>
      <trkpt lat="45.13159" lon="5.53821">
        <ele>1013.3</ele>
        <time>2022-08-12T07:48:37.000Z</time>
      </trkpt>
      <trkpt lat="45.13158" lon="5.53823">
        <ele>1013.3</ele>
        <time>2022-08-12T07:48:38.000Z</time>
      </trkpt>
      <trkpt lat="45.13158" lon="5.53825">
        <ele>1013.4</ele>
        <time>2022-08-12T07:48:39.000Z</time>
      </trkpt>
      <trkpt lat="45.13157" lon="5.53827">
        <ele>1013.5</ele>
        <time>2022-08-12T07:48:40.000Z</time>
      </trkpt>
      <trkpt lat="45.13157" lon="5.5383">
        <ele>1013.6</ele>
        <time>2022-08-12T07:48:41.000Z</time>
      </trkpt>
      <trkpt lat="45.13156" lon="5.53832">
        <ele>1013.7</ele>
        <time>2022-08-12T07:48:42.000Z</time>
      </trkpt>
      <trkpt lat="45.13155" lon="5.53834">
        <ele>1013.8</ele>
        <time>2022-08-12T07:48:43.000Z</time>
      </trkpt>
      <trkpt lat="45.13155" lon="5.53837">
        <ele>1013.9</ele>
        <time>2022-08-12T07:48:44.000Z</time>
      </trkpt>
      <trkpt lat="45.13154" lon="5.53839">
        <ele>1014</ele>
        <time>2022-08-12T07:48:45.000Z</time>
      </trkpt>
      <trkpt lat="45.13153" lon="5.53841">
        <ele>1014.1</ele>
        <time>2022-08-12T07:48:46.000Z</time>
      </trkpt>
      <trkpt lat="45.13152" lon="5.53844">
        <ele>1014.1</ele>
        <time>2022-08-12T07:48:47.000Z</time>
      </trkpt>
      <trkpt lat="45.13151" lon="5.53846">
        <ele>1014.3</ele>
        <time>2022-08-12T07:48:48.000Z</time>
      </trkpt>
      <trkpt lat="45.1315" lon="5.53849">
        <ele>1014.3</ele>
        <time>2022-08-12T07:48:49.000Z</time>
      </trkpt>
      <trkpt lat="45.1315" lon="5.53851">
        <ele>1014.4</ele>
        <time>2022-08-12T07:48:50.000Z</time>
      </trkpt>
      <trkpt lat="45.13149" lon="5.53853">
        <ele>1014.6</ele>
        <time>2022-08-12T07:48:51.000Z</time>
      </trkpt>
      <trkpt lat="45.13149" lon="5.53856">
        <ele>1014.7</ele>
        <time>2022-08-12T07:48:52.000Z</time>
      </trkpt>
      <trkpt lat="45.13149" lon="5.53858">
        <ele>1014.9</ele>
        <time>2022-08-12T07:48:53.000Z</time>
      </trkpt>
      <trkpt lat="45.13144" lon="5.53871">
        <ele>1015</ele>
        <time>2022-08-12T07:48:58.000Z</time>
      </trkpt>
      <trkpt lat="45.13143" lon="5.53883">
        <ele>1015.3</ele>
        <time>2022-08-12T07:49:01.000Z</time>
      </trkpt>
      <trkpt lat="45.13143" lon="5.53893">
        <ele>1015.1</ele>
        <time>2022-08-12T07:49:03.000Z</time>
      </trkpt>
      <trkpt lat="45.13143" lon="5.53906">
        <ele>1014.3</ele>
        <time>2022-08-12T07:49:05.000Z</time>
      </trkpt>
      <trkpt lat="45.13146" lon="5.53928">
        <ele>1012.7</ele>
        <time>2022-08-12T07:49:08.000Z</time>
      </trkpt>
      <trkpt lat="45.13148" lon="5.53945">
        <ele>1011.2</ele>
        <time>2022-08-12T07:49:10.000Z</time>
      </trkpt>
      <trkpt lat="45.13149" lon="5.53954">
        <ele>1010.4</ele>
        <time>2022-08-12T07:49:11.000Z</time>
      </trkpt>
      <trkpt lat="45.13151" lon="5.53964">
        <ele>1009.5</ele>
        <time>2022-08-12T07:49:12.000Z</time>
      </trkpt>
      <trkpt lat="45.13152" lon="5.53974">
        <ele>1008.7</ele>
        <time>2022-08-12T07:49:13.000Z</time>
      </trkpt>
      <trkpt lat="45.13154" lon="5.53985">
        <ele>1008.1</ele>
        <time>2022-08-12T07:49:14.000Z</time>
      </trkpt>
      <trkpt lat="45.13157" lon="5.54007">
        <ele>1006.6</ele>
        <time>2022-08-12T07:49:16.000Z</time>
      </trkpt>
      <trkpt lat="45.13162" lon="5.54031">
        <ele>1005</ele>
        <time>2022-08-12T07:49:18.000Z</time>
      </trkpt>
      <trkpt lat="45.1317" lon="5.54054">
        <ele>1003.6</ele>
        <time>2022-08-12T07:49:20.000Z</time>
      </trkpt>
      <trkpt lat="45.13178" lon="5.54076">
        <ele>1002.5</ele>
        <time>2022-08-12T07:49:22.000Z</time>
      </trkpt>
      <trkpt lat="45.13183" lon="5.54087">
        <ele>1002</ele>
        <time>2022-08-12T07:49:23.000Z</time>
      </trkpt>
      <trkpt lat="45.13187" lon="5.54098">
        <ele>1001.8</ele>
        <time>2022-08-12T07:49:24.000Z</time>
      </trkpt>
      <trkpt lat="45.132" lon="5.54127">
        <ele>1001.9</ele>
        <time>2022-08-12T07:49:27.000Z</time>
      </trkpt>
      <trkpt lat="45.13204" lon="5.54137">
        <ele>1001.8</ele>
        <time>2022-08-12T07:49:28.000Z</time>
      </trkpt>
      <trkpt lat="45.13208" lon="5.54146">
        <ele>1001.8</ele>
        <time>2022-08-12T07:49:29.000Z</time>
      </trkpt>
      <trkpt lat="45.13212" lon="5.54155">
        <ele>1002</ele>
        <time>2022-08-12T07:49:30.000Z</time>
      </trkpt>
      <trkpt lat="45.13215" lon="5.54163">
        <ele>1002.3</ele>
        <time>2022-08-12T07:49:31.000Z</time>
      </trkpt>
      <trkpt lat="45.13218" lon="5.5417">
        <ele>1002.4</ele>
        <time>2022-08-12T07:49:32.000Z</time>
      </trkpt>
      <trkpt lat="45.13221" lon="5.54177">
        <ele>1002.5</ele>
        <time>2022-08-12T07:49:33.000Z</time>
      </trkpt>
      <trkpt lat="45.13224" lon="5.54184">
        <ele>1002.6</ele>
        <time>2022-08-12T07:49:34.000Z</time>
      </trkpt>
      <trkpt lat="45.13227" lon="5.5419">
        <ele>1002.7</ele>
        <time>2022-08-12T07:49:35.000Z</time>
      </trkpt>
      <trkpt lat="45.1323" lon="5.54196">
        <ele>1002.9</ele>
        <time>2022-08-12T07:49:36.000Z</time>
      </trkpt>
      <trkpt lat="45.13233" lon="5.54201">
        <ele>1003</ele>
        <time>2022-08-12T07:49:37.000Z</time>
      </trkpt>
      <trkpt lat="45.13236" lon="5.54207">
        <ele>1003</ele>
        <time>2022-08-12T07:49:38.000Z</time>
      </trkpt>
      <trkpt lat="45.13239" lon="5.54212">
        <ele>1003</ele>
        <time>2022-08-12T07:49:39.000Z</time>
      </trkpt>
      <trkpt lat="45.13242" lon="5.54217">
        <ele>1003</ele>
        <time>2022-08-12T07:49:40.000Z</time>
      </trkpt>
      <trkpt lat="45.13245" lon="5.54221">
        <ele>1002.9</ele>
        <time>2022-08-12T07:49:41.000Z</time>
      </trkpt>
      <trkpt lat="45.13253" lon="5.54229">
        <ele>1002.8</ele>
        <time>2022-08-12T07:49:43.000Z</time>
      </trkpt>
      <trkpt lat="45.13263" lon="5.54233">
        <ele>1002.7</ele>
        <time>2022-08-12T07:49:45.000Z</time>
      </trkpt>
      <trkpt lat="45.13268" lon="5.54234">
        <ele>1002.7</ele>
        <time>2022-08-12T07:49:46.000Z</time>
      </trkpt>
      <trkpt lat="45.13299" lon="5.54236">
        <ele>1001.4</ele>
        <time>2022-08-12T07:49:52.000Z</time>
      </trkpt>
      <trkpt lat="45.13343" lon="5.54235">
        <ele>1002.4</ele>
        <time>2022-08-12T07:50:00.000Z</time>
      </trkpt>
      <trkpt lat="45.13348" lon="5.54235">
        <ele>1002.7</ele>
        <time>2022-08-12T07:50:01.000Z</time>
      </trkpt>
      <trkpt lat="45.13353" lon="5.54235">
        <ele>1003</ele>
        <time>2022-08-12T07:50:02.000Z</time>
      </trkpt>
      <trkpt lat="45.13358" lon="5.54236">
        <ele>1003.3</ele>
        <time>2022-08-12T07:50:03.000Z</time>
      </trkpt>
      <trkpt lat="45.13362" lon="5.54237">
        <ele>1003.5</ele>
        <time>2022-08-12T07:50:04.000Z</time>
      </trkpt>
      <trkpt lat="45.13366" lon="5.54238">
        <ele>1004</ele>
        <time>2022-08-12T07:50:05.000Z</time>
      </trkpt>
      <trkpt lat="45.13371" lon="5.54239">
        <ele>1004.4</ele>
        <time>2022-08-12T07:50:06.000Z</time>
      </trkpt>
      <trkpt lat="45.13374" lon="5.5424">
        <ele>1004.7</ele>
        <time>2022-08-12T07:50:07.000Z</time>
      </trkpt>
      <trkpt lat="45.13378" lon="5.54241">
        <ele>1005</ele>
        <time>2022-08-12T07:50:08.000Z</time>
      </trkpt>
      <trkpt lat="45.13382" lon="5.54242">
        <ele>1005.3</ele>
        <time>2022-08-12T07:50:09.000Z</time>
      </trkpt>
      <trkpt lat="45.13386" lon="5.54244">
        <ele>1005.5</ele>
        <time>2022-08-12T07:50:10.000Z</time>
      </trkpt>
      <trkpt lat="45.13389" lon="5.54245">
        <ele>1005.7</ele>
        <time>2022-08-12T07:50:11.000Z</time>
      </trkpt>
      <trkpt lat="45.13393" lon="5.54246">
        <ele>1005.8</ele>
        <time>2022-08-12T07:50:12.000Z</time>
      </trkpt>
      <trkpt lat="45.13396" lon="5.54247">
        <ele>1005.9</ele>
        <time>2022-08-12T07:50:13.000Z</time>
      </trkpt>
      <trkpt lat="45.134" lon="5.54249">
        <ele>1006</ele>
        <time>2022-08-12T07:50:14.000Z</time>
      </trkpt>
      <trkpt lat="45.13403" lon="5.5425">
        <ele>1006</ele>
        <time>2022-08-12T07:50:15.000Z</time>
      </trkpt>
      <trkpt lat="45.13407" lon="5.54251">
        <ele>1006.1</ele>
        <time>2022-08-12T07:50:16.000Z</time>
      </trkpt>
      <trkpt lat="45.1341" lon="5.54253">
        <ele>1006.2</ele>
        <time>2022-08-12T07:50:17.000Z</time>
      </trkpt>
      <trkpt lat="45.13413" lon="5.54254">
        <ele>1006.3</ele>
        <time>2022-08-12T07:50:18.000Z</time>
      </trkpt>
      <trkpt lat="45.13424" lon="5.54259">
        <ele>1006.5</ele>
        <time>2022-08-12T07:50:21.000Z</time>
      </trkpt>
      <trkpt lat="45.13431" lon="5.54262">
        <ele>1006.7</ele>
        <time>2022-08-12T07:50:23.000Z</time>
      </trkpt>
      <trkpt lat="45.1345" lon="5.54276">
        <ele>1006.6</ele>
        <time>2022-08-12T07:50:29.000Z</time>
      </trkpt>
      <trkpt lat="45.13453" lon="5.54279">
        <ele>1006.5</ele>
        <time>2022-08-12T07:50:30.000Z</time>
      </trkpt>
      <trkpt lat="45.13456" lon="5.54281">
        <ele>1006.5</ele>
        <time>2022-08-12T07:50:31.000Z</time>
      </trkpt>
      <trkpt lat="45.13461" lon="5.54287">
        <ele>1006.3</ele>
        <time>2022-08-12T07:50:33.000Z</time>
      </trkpt>
      <trkpt lat="45.13464" lon="5.5429">
        <ele>1006.1</ele>
        <time>2022-08-12T07:50:34.000Z</time>
      </trkpt>
      <trkpt lat="45.13467" lon="5.54292">
        <ele>1006.1</ele>
        <time>2022-08-12T07:50:35.000Z</time>
      </trkpt>
      <trkpt lat="45.13469" lon="5.54295">
        <ele>1006</ele>
        <time>2022-08-12T07:50:36.000Z</time>
      </trkpt>
      <trkpt lat="45.13472" lon="5.54297">
        <ele>1005.9</ele>
        <time>2022-08-12T07:50:37.000Z</time>
      </trkpt>
      <trkpt lat="45.13474" lon="5.54299">
        <ele>1005.9</ele>
        <time>2022-08-12T07:50:38.000Z</time>
      </trkpt>
      <trkpt lat="45.13477" lon="5.54301">
        <ele>1005.8</ele>
        <time>2022-08-12T07:50:39.000Z</time>
      </trkpt>
      <trkpt lat="45.13479" lon="5.54303">
        <ele>1005.7</ele>
        <time>2022-08-12T07:50:40.000Z</time>
      </trkpt>
      <trkpt lat="45.13481" lon="5.54305">
        <ele>1005.7</ele>
        <time>2022-08-12T07:50:41.000Z</time>
      </trkpt>
      <trkpt lat="45.13484" lon="5.54307">
        <ele>1005.7</ele>
        <time>2022-08-12T07:50:42.000Z</time>
      </trkpt>
      <trkpt lat="45.13486" lon="5.54309">
        <ele>1005.6</ele>
        <time>2022-08-12T07:50:43.000Z</time>
      </trkpt>
      <trkpt lat="45.13488" lon="5.5431">
        <ele>1005.7</ele>
        <time>2022-08-12T07:50:44.000Z</time>
      </trkpt>
      <trkpt lat="45.13491" lon="5.5431">
        <ele>1005.8</ele>
        <time>2022-08-12T07:50:45.000Z</time>
      </trkpt>
      <trkpt lat="45.13494" lon="5.54311">
        <ele>1006</ele>
        <time>2022-08-12T07:50:46.000Z</time>
      </trkpt>
      <trkpt lat="45.13497" lon="5.54311">
        <ele>1006.1</ele>
        <time>2022-08-12T07:50:47.000Z</time>
      </trkpt>
      <trkpt lat="45.13499" lon="5.54312">
        <ele>1006.3</ele>
        <time>2022-08-12T07:50:48.000Z</time>
      </trkpt>
      <trkpt lat="45.13502" lon="5.54312">
        <ele>1006.5</ele>
        <time>2022-08-12T07:50:49.000Z</time>
      </trkpt>
      <trkpt lat="45.13505" lon="5.54311">
        <ele>1006.7</ele>
        <time>2022-08-12T07:50:50.000Z</time>
      </trkpt>
      <trkpt lat="45.13508" lon="5.54311">
        <ele>1007</ele>
        <time>2022-08-12T07:50:51.000Z</time>
      </trkpt>
      <trkpt lat="45.13511" lon="5.5431">
        <ele>1007.3</ele>
        <time>2022-08-12T07:50:52.000Z</time>
      </trkpt>
      <trkpt lat="45.13514" lon="5.5431">
        <ele>1007.6</ele>
        <time>2022-08-12T07:50:53.000Z</time>
      </trkpt>
      <trkpt lat="45.13517" lon="5.54309">
        <ele>1007.9</ele>
        <time>2022-08-12T07:50:54.000Z</time>
      </trkpt>
      <trkpt lat="45.13521" lon="5.54308">
        <ele>1008.2</ele>
        <time>2022-08-12T07:50:55.000Z</time>
      </trkpt>
      <trkpt lat="45.13524" lon="5.54307">
        <ele>1008.5</ele>
        <time>2022-08-12T07:50:56.000Z</time>
      </trkpt>
      <trkpt lat="45.13527" lon="5.54307">
        <ele>1008.8</ele>
        <time>2022-08-12T07:50:57.000Z</time>
      </trkpt>
      <trkpt lat="45.1353" lon="5.54308">
        <ele>1008.9</ele>
        <time>2022-08-12T07:50:58.000Z</time>
      </trkpt>
      <trkpt lat="45.13534" lon="5.54308">
        <ele>1008.9</ele>
        <time>2022-08-12T07:50:59.000Z</time>
      </trkpt>
      <trkpt lat="45.13537" lon="5.54309">
        <ele>1009</ele>
        <time>2022-08-12T07:51:00.000Z</time>
      </trkpt>
      <trkpt lat="45.1354" lon="5.54311">
        <ele>1009</ele>
        <time>2022-08-12T07:51:01.000Z</time>
      </trkpt>
      <trkpt lat="45.13543" lon="5.54312">
        <ele>1009</ele>
        <time>2022-08-12T07:51:02.000Z</time>
      </trkpt>
      <trkpt lat="45.13564" lon="5.54328">
        <ele>1008.9</ele>
        <time>2022-08-12T07:51:09.000Z</time>
      </trkpt>
      <trkpt lat="45.13587" lon="5.5435">
        <ele>1009.1</ele>
        <time>2022-08-12T07:51:17.000Z</time>
      </trkpt>
      <trkpt lat="45.13614" lon="5.54377">
        <ele>1010.1</ele>
        <time>2022-08-12T07:51:26.000Z</time>
      </trkpt>
      <trkpt lat="45.13619" lon="5.54382">
        <ele>1010.3</ele>
        <time>2022-08-12T07:51:28.000Z</time>
      </trkpt>
      <trkpt lat="45.13621" lon="5.54385">
        <ele>1010.4</ele>
        <time>2022-08-12T07:51:29.000Z</time>
      </trkpt>
      <trkpt lat="45.13624" lon="5.54387">
        <ele>1010.5</ele>
        <time>2022-08-12T07:51:30.000Z</time>
      </trkpt>
      <trkpt lat="45.13627" lon="5.54389">
        <ele>1010.7</ele>
        <time>2022-08-12T07:51:31.000Z</time>
      </trkpt>
      <trkpt lat="45.1363" lon="5.54392">
        <ele>1010.8</ele>
        <time>2022-08-12T07:51:32.000Z</time>
      </trkpt>
      <trkpt lat="45.13633" lon="5.54395">
        <ele>1010.9</ele>
        <time>2022-08-12T07:51:33.000Z</time>
      </trkpt>
      <trkpt lat="45.13636" lon="5.54397">
        <ele>1011.1</ele>
        <time>2022-08-12T07:51:34.000Z</time>
      </trkpt>
      <trkpt lat="45.13638" lon="5.544">
        <ele>1011.1</ele>
        <time>2022-08-12T07:51:35.000Z</time>
      </trkpt>
      <trkpt lat="45.1364" lon="5.54402">
        <ele>1011.2</ele>
        <time>2022-08-12T07:51:36.000Z</time>
      </trkpt>
      <trkpt lat="45.13645" lon="5.54407">
        <ele>1011.5</ele>
        <time>2022-08-12T07:51:38.000Z</time>
      </trkpt>
      <trkpt lat="45.13648" lon="5.54409">
        <ele>1011.6</ele>
        <time>2022-08-12T07:51:39.000Z</time>
      </trkpt>
      <trkpt lat="45.13653" lon="5.54413">
        <ele>1011.9</ele>
        <time>2022-08-12T07:51:41.000Z</time>
      </trkpt>
      <trkpt lat="45.13655" lon="5.54415">
        <ele>1012</ele>
        <time>2022-08-12T07:51:42.000Z</time>
      </trkpt>
      <trkpt lat="45.13659" lon="5.54418">
        <ele>1012.1</ele>
        <time>2022-08-12T07:51:43.000Z</time>
      </trkpt>
      <trkpt lat="45.13661" lon="5.54419">
        <ele>1012.2</ele>
        <time>2022-08-12T07:51:44.000Z</time>
      </trkpt>
      <trkpt lat="45.13664" lon="5.54422">
        <ele>1012.3</ele>
        <time>2022-08-12T07:51:45.000Z</time>
      </trkpt>
      <trkpt lat="45.13669" lon="5.54427">
        <ele>1012.3</ele>
        <time>2022-08-12T07:51:47.000Z</time>
      </trkpt>
      <trkpt lat="45.13686" lon="5.54442">
        <ele>1012.5</ele>
        <time>2022-08-12T07:51:54.000Z</time>
      </trkpt>
      <trkpt lat="45.13692" lon="5.54445">
        <ele>1012.8</ele>
        <time>2022-08-12T07:51:56.000Z</time>
      </trkpt>
      <trkpt lat="45.13695" lon="5.54447">
        <ele>1012.9</ele>
        <time>2022-08-12T07:51:57.000Z</time>
      </trkpt>
      <trkpt lat="45.13698" lon="5.54448">
        <ele>1012.9</ele>
        <time>2022-08-12T07:51:58.000Z</time>
      </trkpt>
      <trkpt lat="45.13712" lon="5.54452">
        <ele>1013.1</ele>
        <time>2022-08-12T07:52:03.000Z</time>
      </trkpt>
      <trkpt lat="45.13722" lon="5.54454">
        <ele>1013.3</ele>
        <time>2022-08-12T07:52:07.000Z</time>
      </trkpt>
      <trkpt lat="45.13737" lon="5.54456">
        <ele>1013.7</ele>
        <time>2022-08-12T07:52:12.000Z</time>
      </trkpt>
      <trkpt lat="45.13753" lon="5.54464">
        <ele>1013.8</ele>
        <time>2022-08-12T07:52:18.000Z</time>
      </trkpt>
      <trkpt lat="45.13756" lon="5.54465">
        <ele>1013.9</ele>
        <time>2022-08-12T07:52:19.000Z</time>
      </trkpt>
      <trkpt lat="45.13758" lon="5.54467">
        <ele>1013.9</ele>
        <time>2022-08-12T07:52:20.000Z</time>
      </trkpt>
      <trkpt lat="45.1376" lon="5.54469">
        <ele>1013.9</ele>
        <time>2022-08-12T07:52:21.000Z</time>
      </trkpt>
      <trkpt lat="45.13762" lon="5.54471">
        <ele>1014</ele>
        <time>2022-08-12T07:52:22.000Z</time>
      </trkpt>
      <trkpt lat="45.13764" lon="5.54473">
        <ele>1014</ele>
        <time>2022-08-12T07:52:23.000Z</time>
      </trkpt>
      <trkpt lat="45.13766" lon="5.54474">
        <ele>1014</ele>
        <time>2022-08-12T07:52:24.000Z</time>
      </trkpt>
      <trkpt lat="45.13768" lon="5.54476">
        <ele>1014.1</ele>
        <time>2022-08-12T07:52:25.000Z</time>
      </trkpt>
      <trkpt lat="45.13771" lon="5.54478">
        <ele>1014.1</ele>
        <time>2022-08-12T07:52:26.000Z</time>
      </trkpt>
      <trkpt lat="45.13773" lon="5.54479">
        <ele>1014.2</ele>
        <time>2022-08-12T07:52:27.000Z</time>
      </trkpt>
      <trkpt lat="45.13775" lon="5.54481">
        <ele>1014.3</ele>
        <time>2022-08-12T07:52:28.000Z</time>
      </trkpt>
      <trkpt lat="45.13777" lon="5.54482">
        <ele>1014.3</ele>
        <time>2022-08-12T07:52:29.000Z</time>
      </trkpt>
      <trkpt lat="45.1378" lon="5.54483">
        <ele>1014.3</ele>
        <time>2022-08-12T07:52:30.000Z</time>
      </trkpt>
      <trkpt lat="45.13782" lon="5.54484">
        <ele>1014.4</ele>
        <time>2022-08-12T07:52:31.000Z</time>
      </trkpt>
      <trkpt lat="45.13784" lon="5.54485">
        <ele>1014.4</ele>
        <time>2022-08-12T07:52:32.000Z</time>
      </trkpt>
      <trkpt lat="45.13787" lon="5.54485">
        <ele>1014.5</ele>
        <time>2022-08-12T07:52:33.000Z</time>
      </trkpt>
      <trkpt lat="45.13789" lon="5.54486">
        <ele>1014.6</ele>
        <time>2022-08-12T07:52:34.000Z</time>
      </trkpt>
      <trkpt lat="45.13792" lon="5.54487">
        <ele>1014.7</ele>
        <time>2022-08-12T07:52:35.000Z</time>
      </trkpt>
      <trkpt lat="45.13795" lon="5.54488">
        <ele>1014.8</ele>
        <time>2022-08-12T07:52:36.000Z</time>
      </trkpt>
      <trkpt lat="45.13797" lon="5.54488">
        <ele>1014.9</ele>
        <time>2022-08-12T07:52:37.000Z</time>
      </trkpt>
      <trkpt lat="45.13799" lon="5.54489">
        <ele>1015</ele>
        <time>2022-08-12T07:52:38.000Z</time>
      </trkpt>
      <trkpt lat="45.13802" lon="5.54489">
        <ele>1015.2</ele>
        <time>2022-08-12T07:52:39.000Z</time>
      </trkpt>
      <trkpt lat="45.13804" lon="5.54489">
        <ele>1015.3</ele>
        <time>2022-08-12T07:52:40.000Z</time>
      </trkpt>
      <trkpt lat="45.13806" lon="5.54489">
        <ele>1015.4</ele>
        <time>2022-08-12T07:52:41.000Z</time>
      </trkpt>
      <trkpt lat="45.13809" lon="5.54489">
        <ele>1015.6</ele>
        <time>2022-08-12T07:52:42.000Z</time>
      </trkpt>
      <trkpt lat="45.13811" lon="5.5449">
        <ele>1015.8</ele>
        <time>2022-08-12T07:52:43.000Z</time>
      </trkpt>
      <trkpt lat="45.13813" lon="5.5449">
        <ele>1015.9</ele>
        <time>2022-08-12T07:52:44.000Z</time>
      </trkpt>
      <trkpt lat="45.13815" lon="5.5449">
        <ele>1016.1</ele>
        <time>2022-08-12T07:52:45.000Z</time>
      </trkpt>
      <trkpt lat="45.13818" lon="5.5449">
        <ele>1016.2</ele>
        <time>2022-08-12T07:52:46.000Z</time>
      </trkpt>
      <trkpt lat="45.1382" lon="5.5449">
        <ele>1016.4</ele>
        <time>2022-08-12T07:52:47.000Z</time>
      </trkpt>
      <trkpt lat="45.13822" lon="5.54491">
        <ele>1016.5</ele>
        <time>2022-08-12T07:52:48.000Z</time>
      </trkpt>
      <trkpt lat="45.13825" lon="5.54491">
        <ele>1016.7</ele>
        <time>2022-08-12T07:52:49.000Z</time>
      </trkpt>
      <trkpt lat="45.13827" lon="5.54491">
        <ele>1016.9</ele>
        <time>2022-08-12T07:52:50.000Z</time>
      </trkpt>
      <trkpt lat="45.13829" lon="5.54492">
        <ele>1017</ele>
        <time>2022-08-12T07:52:51.000Z</time>
      </trkpt>
      <trkpt lat="45.13832" lon="5.54492">
        <ele>1017.2</ele>
        <time>2022-08-12T07:52:52.000Z</time>
      </trkpt>
      <trkpt lat="45.13834" lon="5.54491">
        <ele>1017.3</ele>
        <time>2022-08-12T07:52:53.000Z</time>
      </trkpt>
      <trkpt lat="45.13836" lon="5.54491">
        <ele>1017.5</ele>
        <time>2022-08-12T07:52:54.000Z</time>
      </trkpt>
      <trkpt lat="45.13838" lon="5.54491">
        <ele>1017.7</ele>
        <time>2022-08-12T07:52:55.000Z</time>
      </trkpt>
      <trkpt lat="45.13841" lon="5.5449">
        <ele>1017.9</ele>
        <time>2022-08-12T07:52:56.000Z</time>
      </trkpt>
      <trkpt lat="45.13843" lon="5.5449">
        <ele>1018.1</ele>
        <time>2022-08-12T07:52:57.000Z</time>
      </trkpt>
      <trkpt lat="45.13845" lon="5.5449">
        <ele>1018.2</ele>
        <time>2022-08-12T07:52:58.000Z</time>
      </trkpt>
      <trkpt lat="45.13847" lon="5.54491">
        <ele>1018.3</ele>
        <time>2022-08-12T07:52:59.000Z</time>
      </trkpt>
      <trkpt lat="45.13849" lon="5.54491">
        <ele>1018.5</ele>
        <time>2022-08-12T07:53:00.000Z</time>
      </trkpt>
      <trkpt lat="45.13852" lon="5.54491">
        <ele>1018.6</ele>
        <time>2022-08-12T07:53:01.000Z</time>
      </trkpt>
      <trkpt lat="45.13855" lon="5.54492">
        <ele>1018.8</ele>
        <time>2022-08-12T07:53:02.000Z</time>
      </trkpt>
      <trkpt lat="45.13857" lon="5.54492">
        <ele>1019</ele>
        <time>2022-08-12T07:53:03.000Z</time>
      </trkpt>
      <trkpt lat="45.13859" lon="5.54493">
        <ele>1019.1</ele>
        <time>2022-08-12T07:53:04.000Z</time>
      </trkpt>
      <trkpt lat="45.13861" lon="5.54493">
        <ele>1019.3</ele>
        <time>2022-08-12T07:53:05.000Z</time>
      </trkpt>
      <trkpt lat="45.13863" lon="5.54492">
        <ele>1019.4</ele>
        <time>2022-08-12T07:53:06.000Z</time>
      </trkpt>
      <trkpt lat="45.13865" lon="5.54493">
        <ele>1019.6</ele>
        <time>2022-08-12T07:53:07.000Z</time>
      </trkpt>
      <trkpt lat="45.13867" lon="5.54493">
        <ele>1019.7</ele>
        <time>2022-08-12T07:53:08.000Z</time>
      </trkpt>
      <trkpt lat="45.13869" lon="5.54493">
        <ele>1019.8</ele>
        <time>2022-08-12T07:53:09.000Z</time>
      </trkpt>
      <trkpt lat="45.13871" lon="5.54493">
        <ele>1020</ele>
        <time>2022-08-12T07:53:10.000Z</time>
      </trkpt>
      <trkpt lat="45.13874" lon="5.54493">
        <ele>1020.1</ele>
        <time>2022-08-12T07:53:11.000Z</time>
      </trkpt>
      <trkpt lat="45.13875" lon="5.54494">
        <ele>1020.3</ele>
        <time>2022-08-12T07:53:12.000Z</time>
      </trkpt>
      <trkpt lat="45.13878" lon="5.54493">
        <ele>1020.4</ele>
        <time>2022-08-12T07:53:13.000Z</time>
      </trkpt>
      <trkpt lat="45.1388" lon="5.54493">
        <ele>1020.6</ele>
        <time>2022-08-12T07:53:14.000Z</time>
      </trkpt>
      <trkpt lat="45.13882" lon="5.54493">
        <ele>1020.8</ele>
        <time>2022-08-12T07:53:15.000Z</time>
      </trkpt>
      <trkpt lat="45.13884" lon="5.54494">
        <ele>1020.9</ele>
        <time>2022-08-12T07:53:16.000Z</time>
      </trkpt>
      <trkpt lat="45.13886" lon="5.54494">
        <ele>1021</ele>
        <time>2022-08-12T07:53:17.000Z</time>
      </trkpt>
      <trkpt lat="45.13887" lon="5.54495">
        <ele>1021.1</ele>
        <time>2022-08-12T07:53:18.000Z</time>
      </trkpt>
      <trkpt lat="45.13889" lon="5.54495">
        <ele>1021.2</ele>
        <time>2022-08-12T07:53:19.000Z</time>
      </trkpt>
      <trkpt lat="45.13891" lon="5.54495">
        <ele>1021.4</ele>
        <time>2022-08-12T07:53:20.000Z</time>
      </trkpt>
      <trkpt lat="45.13893" lon="5.54495">
        <ele>1021.6</ele>
        <time>2022-08-12T07:53:21.000Z</time>
      </trkpt>
      <trkpt lat="45.13896" lon="5.54495">
        <ele>1021.9</ele>
        <time>2022-08-12T07:53:22.000Z</time>
      </trkpt>
      <trkpt lat="45.13897" lon="5.54495">
        <ele>1022</ele>
        <time>2022-08-12T07:53:23.000Z</time>
      </trkpt>
      <trkpt lat="45.139" lon="5.54495">
        <ele>1022.3</ele>
        <time>2022-08-12T07:53:24.000Z</time>
      </trkpt>
      <trkpt lat="45.13902" lon="5.54496">
        <ele>1022.5</ele>
        <time>2022-08-12T07:53:25.000Z</time>
      </trkpt>
      <trkpt lat="45.13904" lon="5.54496">
        <ele>1022.6</ele>
        <time>2022-08-12T07:53:26.000Z</time>
      </trkpt>
      <trkpt lat="45.13906" lon="5.54497">
        <ele>1022.9</ele>
        <time>2022-08-12T07:53:27.000Z</time>
      </trkpt>
      <trkpt lat="45.13908" lon="5.54497">
        <ele>1023.1</ele>
        <time>2022-08-12T07:53:28.000Z</time>
      </trkpt>
      <trkpt lat="45.1391" lon="5.54496">
        <ele>1023.3</ele>
        <time>2022-08-12T07:53:29.000Z</time>
      </trkpt>
      <trkpt lat="45.13911" lon="5.54496">
        <ele>1023.4</ele>
        <time>2022-08-12T07:53:30.000Z</time>
      </trkpt>
      <trkpt lat="45.13913" lon="5.54496">
        <ele>1023.6</ele>
        <time>2022-08-12T07:53:31.000Z</time>
      </trkpt>
      <trkpt lat="45.13915" lon="5.54496">
        <ele>1023.9</ele>
        <time>2022-08-12T07:53:32.000Z</time>
      </trkpt>
      <trkpt lat="45.13917" lon="5.54496">
        <ele>1024</ele>
        <time>2022-08-12T07:53:33.000Z</time>
      </trkpt>
      <trkpt lat="45.13919" lon="5.54496">
        <ele>1024.1</ele>
        <time>2022-08-12T07:53:34.000Z</time>
      </trkpt>
      <trkpt lat="45.13921" lon="5.54497">
        <ele>1024.2</ele>
        <time>2022-08-12T07:53:35.000Z</time>
      </trkpt>
      <trkpt lat="45.13922" lon="5.54497">
        <ele>1024.2</ele>
        <time>2022-08-12T07:53:36.000Z</time>
      </trkpt>
      <trkpt lat="45.13924" lon="5.54497">
        <ele>1024.3</ele>
        <time>2022-08-12T07:53:37.000Z</time>
      </trkpt>
      <trkpt lat="45.13926" lon="5.54497">
        <ele>1024.4</ele>
        <time>2022-08-12T07:53:38.000Z</time>
      </trkpt>
      <trkpt lat="45.13928" lon="5.54497">
        <ele>1024.4</ele>
        <time>2022-08-12T07:53:39.000Z</time>
      </trkpt>
      <trkpt lat="45.13929" lon="5.54497">
        <ele>1024.5</ele>
        <time>2022-08-12T07:53:40.000Z</time>
      </trkpt>
      <trkpt lat="45.13931" lon="5.54498">
        <ele>1024.6</ele>
        <time>2022-08-12T07:53:41.000Z</time>
      </trkpt>
      <trkpt lat="45.13933" lon="5.54498">
        <ele>1024.6</ele>
        <time>2022-08-12T07:53:42.000Z</time>
      </trkpt>
      <trkpt lat="45.13935" lon="5.545">
        <ele>1024.7</ele>
        <time>2022-08-12T07:53:43.000Z</time>
      </trkpt>
      <trkpt lat="45.13937" lon="5.54501">
        <ele>1024.7</ele>
        <time>2022-08-12T07:53:44.000Z</time>
      </trkpt>
      <trkpt lat="45.13939" lon="5.54502">
        <ele>1024.7</ele>
        <time>2022-08-12T07:53:45.000Z</time>
      </trkpt>
      <trkpt lat="45.13941" lon="5.54504">
        <ele>1024.7</ele>
        <time>2022-08-12T07:53:46.000Z</time>
      </trkpt>
      <trkpt lat="45.13942" lon="5.54506">
        <ele>1024.7</ele>
        <time>2022-08-12T07:53:47.000Z</time>
      </trkpt>
      <trkpt lat="45.13943" lon="5.54509">
        <ele>1024.6</ele>
        <time>2022-08-12T07:53:48.000Z</time>
      </trkpt>
      <trkpt lat="45.13944" lon="5.54513">
        <ele>1024.5</ele>
        <time>2022-08-12T07:53:49.000Z</time>
      </trkpt>
      <trkpt lat="45.13944" lon="5.54516">
        <ele>1024.4</ele>
        <time>2022-08-12T07:53:50.000Z</time>
      </trkpt>
      <trkpt lat="45.13944" lon="5.54518">
        <ele>1024.3</ele>
        <time>2022-08-12T07:53:51.000Z</time>
      </trkpt>
      <trkpt lat="45.13944" lon="5.54521">
        <ele>1024.2</ele>
        <time>2022-08-12T07:53:52.000Z</time>
      </trkpt>
      <trkpt lat="45.13945" lon="5.54524">
        <ele>1024.1</ele>
        <time>2022-08-12T07:53:53.000Z</time>
      </trkpt>
      <trkpt lat="45.13945" lon="5.54527">
        <ele>1024</ele>
        <time>2022-08-12T07:53:54.000Z</time>
      </trkpt>
      <trkpt lat="45.13945" lon="5.5453">
        <ele>1024.1</ele>
        <time>2022-08-12T07:53:55.000Z</time>
      </trkpt>
      <trkpt lat="45.13945" lon="5.54534">
        <ele>1024.2</ele>
        <time>2022-08-12T07:53:56.000Z</time>
      </trkpt>
      <trkpt lat="45.13946" lon="5.54536">
        <ele>1024.3</ele>
        <time>2022-08-12T07:53:57.000Z</time>
      </trkpt>
      <trkpt lat="45.13946" lon="5.54539">
        <ele>1024.4</ele>
        <time>2022-08-12T07:53:58.000Z</time>
      </trkpt>
      <trkpt lat="45.13947" lon="5.54542">
        <ele>1024.5</ele>
        <time>2022-08-12T07:53:59.000Z</time>
      </trkpt>
      <trkpt lat="45.13947" lon="5.54545">
        <ele>1024.6</ele>
        <time>2022-08-12T07:54:00.000Z</time>
      </trkpt>
      <trkpt lat="45.13948" lon="5.54548">
        <ele>1024.7</ele>
        <time>2022-08-12T07:54:01.000Z</time>
      </trkpt>
      <trkpt lat="45.13949" lon="5.54551">
        <ele>1024.8</ele>
        <time>2022-08-12T07:54:02.000Z</time>
      </trkpt>
      <trkpt lat="45.1395" lon="5.54554">
        <ele>1024.9</ele>
        <time>2022-08-12T07:54:03.000Z</time>
      </trkpt>
      <trkpt lat="45.13951" lon="5.5456">
        <ele>1025.2</ele>
        <time>2022-08-12T07:54:05.000Z</time>
      </trkpt>
      <trkpt lat="45.13951" lon="5.54566">
        <ele>1025.5</ele>
        <time>2022-08-12T07:54:07.000Z</time>
      </trkpt>
      <trkpt lat="45.13954" lon="5.5458">
        <ele>1026.2</ele>
        <time>2022-08-12T07:54:12.000Z</time>
      </trkpt>
      <trkpt lat="45.13955" lon="5.54582">
        <ele>1026.3</ele>
        <time>2022-08-12T07:54:13.000Z</time>
      </trkpt>
      <trkpt lat="45.13956" lon="5.54584">
        <ele>1026.4</ele>
        <time>2022-08-12T07:54:14.000Z</time>
      </trkpt>
      <trkpt lat="45.13958" lon="5.54586">
        <ele>1026.7</ele>
        <time>2022-08-12T07:54:15.000Z</time>
      </trkpt>
      <trkpt lat="45.13959" lon="5.54588">
        <ele>1027</ele>
        <time>2022-08-12T07:54:16.000Z</time>
      </trkpt>
      <trkpt lat="45.1396" lon="5.5459">
        <ele>1027.2</ele>
        <time>2022-08-12T07:54:17.000Z</time>
      </trkpt>
      <trkpt lat="45.13962" lon="5.54593">
        <ele>1027.6</ele>
        <time>2022-08-12T07:54:18.000Z</time>
      </trkpt>
      <trkpt lat="45.13963" lon="5.54596">
        <ele>1027.9</ele>
        <time>2022-08-12T07:54:19.000Z</time>
      </trkpt>
      <trkpt lat="45.13964" lon="5.54598">
        <ele>1028.1</ele>
        <time>2022-08-12T07:54:20.000Z</time>
      </trkpt>
      <trkpt lat="45.13964" lon="5.54601">
        <ele>1028.4</ele>
        <time>2022-08-12T07:54:21.000Z</time>
      </trkpt>
      <trkpt lat="45.13965" lon="5.54603">
        <ele>1028.7</ele>
        <time>2022-08-12T07:54:22.000Z</time>
      </trkpt>
      <trkpt lat="45.13965" lon="5.54606">
        <ele>1028.9</ele>
        <time>2022-08-12T07:54:23.000Z</time>
      </trkpt>
      <trkpt lat="45.13964" lon="5.54609">
        <ele>1029.2</ele>
        <time>2022-08-12T07:54:24.000Z</time>
      </trkpt>
      <trkpt lat="45.13964" lon="5.54611">
        <ele>1029.4</ele>
        <time>2022-08-12T07:54:25.000Z</time>
      </trkpt>
      <trkpt lat="45.13963" lon="5.54614">
        <ele>1029.8</ele>
        <time>2022-08-12T07:54:26.000Z</time>
      </trkpt>
      <trkpt lat="45.13963" lon="5.54617">
        <ele>1030.2</ele>
        <time>2022-08-12T07:54:27.000Z</time>
      </trkpt>
      <trkpt lat="45.13962" lon="5.5462">
        <ele>1030.5</ele>
        <time>2022-08-12T07:54:28.000Z</time>
      </trkpt>
      <trkpt lat="45.13961" lon="5.54622">
        <ele>1030.8</ele>
        <time>2022-08-12T07:54:29.000Z</time>
      </trkpt>
      <trkpt lat="45.1396" lon="5.54625">
        <ele>1031.1</ele>
        <time>2022-08-12T07:54:30.000Z</time>
      </trkpt>
      <trkpt lat="45.13959" lon="5.54627">
        <ele>1031.4</ele>
        <time>2022-08-12T07:54:31.000Z</time>
      </trkpt>
      <trkpt lat="45.13958" lon="5.5463">
        <ele>1031.7</ele>
        <time>2022-08-12T07:54:32.000Z</time>
      </trkpt>
      <trkpt lat="45.13957" lon="5.54632">
        <ele>1031.9</ele>
        <time>2022-08-12T07:54:33.000Z</time>
      </trkpt>
      <trkpt lat="45.13956" lon="5.54634">
        <ele>1032.2</ele>
        <time>2022-08-12T07:54:34.000Z</time>
      </trkpt>
      <trkpt lat="45.13955" lon="5.54636">
        <ele>1032.4</ele>
        <time>2022-08-12T07:54:35.000Z</time>
      </trkpt>
      <trkpt lat="45.13954" lon="5.54639">
        <ele>1032.6</ele>
        <time>2022-08-12T07:54:36.000Z</time>
      </trkpt>
      <trkpt lat="45.13953" lon="5.54641">
        <ele>1032.8</ele>
        <time>2022-08-12T07:54:37.000Z</time>
      </trkpt>
      <trkpt lat="45.13952" lon="5.54643">
        <ele>1033</ele>
        <time>2022-08-12T07:54:38.000Z</time>
      </trkpt>
      <trkpt lat="45.13951" lon="5.54645">
        <ele>1033.2</ele>
        <time>2022-08-12T07:54:39.000Z</time>
      </trkpt>
      <trkpt lat="45.1395" lon="5.54646">
        <ele>1033.4</ele>
        <time>2022-08-12T07:54:40.000Z</time>
      </trkpt>
      <trkpt lat="45.1395" lon="5.54648">
        <ele>1033.7</ele>
        <time>2022-08-12T07:54:41.000Z</time>
      </trkpt>
      <trkpt lat="45.13949" lon="5.54651">
        <ele>1033.9</ele>
        <time>2022-08-12T07:54:42.000Z</time>
      </trkpt>
      <trkpt lat="45.13949" lon="5.54652">
        <ele>1034.2</ele>
        <time>2022-08-12T07:54:43.000Z</time>
      </trkpt>
      <trkpt lat="45.13948" lon="5.54655">
        <ele>1034.5</ele>
        <time>2022-08-12T07:54:44.000Z</time>
      </trkpt>
      <trkpt lat="45.13947" lon="5.54656">
        <ele>1034.6</ele>
        <time>2022-08-12T07:54:45.000Z</time>
      </trkpt>
      <trkpt lat="45.13946" lon="5.54658">
        <ele>1034.8</ele>
        <time>2022-08-12T07:54:46.000Z</time>
      </trkpt>
      <trkpt lat="45.13945" lon="5.54659">
        <ele>1035</ele>
        <time>2022-08-12T07:54:47.000Z</time>
      </trkpt>
      <trkpt lat="45.13945" lon="5.54661">
        <ele>1035.2</ele>
        <time>2022-08-12T07:54:48.000Z</time>
      </trkpt>
      <trkpt lat="45.13944" lon="5.54663">
        <ele>1035.4</ele>
        <time>2022-08-12T07:54:49.000Z</time>
      </trkpt>
      <trkpt lat="45.13943" lon="5.54664">
        <ele>1035.6</ele>
        <time>2022-08-12T07:54:50.000Z</time>
      </trkpt>
      <trkpt lat="45.13942" lon="5.54666">
        <ele>1035.7</ele>
        <time>2022-08-12T07:54:51.000Z</time>
      </trkpt>
      <trkpt lat="45.13942" lon="5.54668">
        <ele>1035.9</ele>
        <time>2022-08-12T07:54:52.000Z</time>
      </trkpt>
      <trkpt lat="45.13941" lon="5.5467">
        <ele>1036.1</ele>
        <time>2022-08-12T07:54:53.000Z</time>
      </trkpt>
      <trkpt lat="45.1394" lon="5.54671">
        <ele>1036.2</ele>
        <time>2022-08-12T07:54:54.000Z</time>
      </trkpt>
      <trkpt lat="45.1394" lon="5.54673">
        <ele>1036.4</ele>
        <time>2022-08-12T07:54:55.000Z</time>
      </trkpt>
      <trkpt lat="45.13939" lon="5.54675">
        <ele>1036.6</ele>
        <time>2022-08-12T07:54:56.000Z</time>
      </trkpt>
      <trkpt lat="45.13938" lon="5.54677">
        <ele>1036.7</ele>
        <time>2022-08-12T07:54:57.000Z</time>
      </trkpt>
      <trkpt lat="45.13938" lon="5.54679">
        <ele>1036.9</ele>
        <time>2022-08-12T07:54:58.000Z</time>
      </trkpt>
      <trkpt lat="45.13937" lon="5.5468">
        <ele>1037</ele>
        <time>2022-08-12T07:54:59.000Z</time>
      </trkpt>
      <trkpt lat="45.13936" lon="5.54681">
        <ele>1037.1</ele>
        <time>2022-08-12T07:55:00.000Z</time>
      </trkpt>
      <trkpt lat="45.13936" lon="5.54682">
        <ele>1037.3</ele>
        <time>2022-08-12T07:55:01.000Z</time>
      </trkpt>
      <trkpt lat="45.13935" lon="5.54684">
        <ele>1037.4</ele>
        <time>2022-08-12T07:55:02.000Z</time>
      </trkpt>
      <trkpt lat="45.13935" lon="5.54686">
        <ele>1037.6</ele>
        <time>2022-08-12T07:55:03.000Z</time>
      </trkpt>
      <trkpt lat="45.13935" lon="5.54688">
        <ele>1037.9</ele>
        <time>2022-08-12T07:55:04.000Z</time>
      </trkpt>
      <trkpt lat="45.13935" lon="5.5469">
        <ele>1038.2</ele>
        <time>2022-08-12T07:55:05.000Z</time>
      </trkpt>
      <trkpt lat="45.13934" lon="5.54692">
        <ele>1038.4</ele>
        <time>2022-08-12T07:55:06.000Z</time>
      </trkpt>
      <trkpt lat="45.13933" lon="5.54694">
        <ele>1038.5</ele>
        <time>2022-08-12T07:55:07.000Z</time>
      </trkpt>
      <trkpt lat="45.13932" lon="5.54695">
        <ele>1038.7</ele>
        <time>2022-08-12T07:55:08.000Z</time>
      </trkpt>
      <trkpt lat="45.13932" lon="5.54697">
        <ele>1038.9</ele>
        <time>2022-08-12T07:55:09.000Z</time>
      </trkpt>
      <trkpt lat="45.13931" lon="5.54698">
        <ele>1039</ele>
        <time>2022-08-12T07:55:10.000Z</time>
      </trkpt>
      <trkpt lat="45.13931" lon="5.54699">
        <ele>1039.2</ele>
        <time>2022-08-12T07:55:11.000Z</time>
      </trkpt>
      <trkpt lat="45.1393" lon="5.54701">
        <ele>1039.4</ele>
        <time>2022-08-12T07:55:12.000Z</time>
      </trkpt>
      <trkpt lat="45.13929" lon="5.54702">
        <ele>1039.6</ele>
        <time>2022-08-12T07:55:13.000Z</time>
      </trkpt>
      <trkpt lat="45.13929" lon="5.54703">
        <ele>1039.7</ele>
        <time>2022-08-12T07:55:14.000Z</time>
      </trkpt>
      <trkpt lat="45.13928" lon="5.54704">
        <ele>1039.8</ele>
        <time>2022-08-12T07:55:15.000Z</time>
      </trkpt>
      <trkpt lat="45.13927" lon="5.54705">
        <ele>1039.9</ele>
        <time>2022-08-12T07:55:16.000Z</time>
      </trkpt>
      <trkpt lat="45.13926" lon="5.54707">
        <ele>1040.1</ele>
        <time>2022-08-12T07:55:17.000Z</time>
      </trkpt>
      <trkpt lat="45.13925" lon="5.54708">
        <ele>1040.2</ele>
        <time>2022-08-12T07:55:18.000Z</time>
      </trkpt>
      <trkpt lat="45.13924" lon="5.54709">
        <ele>1040.4</ele>
        <time>2022-08-12T07:55:19.000Z</time>
      </trkpt>
      <trkpt lat="45.13924" lon="5.5471">
        <ele>1040.5</ele>
        <time>2022-08-12T07:55:20.000Z</time>
      </trkpt>
      <trkpt lat="45.13923" lon="5.54711">
        <ele>1040.6</ele>
        <time>2022-08-12T07:55:21.000Z</time>
      </trkpt>
      <trkpt lat="45.13922" lon="5.54712">
        <ele>1040.7</ele>
        <time>2022-08-12T07:55:22.000Z</time>
      </trkpt>
      <trkpt lat="45.13921" lon="5.54713">
        <ele>1040.8</ele>
        <time>2022-08-12T07:55:23.000Z</time>
      </trkpt>
      <trkpt lat="45.1392" lon="5.54715">
        <ele>1041</ele>
        <time>2022-08-12T07:55:24.000Z</time>
      </trkpt>
      <trkpt lat="45.13919" lon="5.54716">
        <ele>1041.1</ele>
        <time>2022-08-12T07:55:25.000Z</time>
      </trkpt>
      <trkpt lat="45.13917" lon="5.54716">
        <ele>1041.2</ele>
        <time>2022-08-12T07:55:26.000Z</time>
      </trkpt>
      <trkpt lat="45.13916" lon="5.54717">
        <ele>1041.2</ele>
        <time>2022-08-12T07:55:27.000Z</time>
      </trkpt>
      <trkpt lat="45.13915" lon="5.54718">
        <ele>1041.3</ele>
        <time>2022-08-12T07:55:28.000Z</time>
      </trkpt>
      <trkpt lat="45.13914" lon="5.54718">
        <ele>1041.4</ele>
        <time>2022-08-12T07:55:29.000Z</time>
      </trkpt>
      <trkpt lat="45.13913" lon="5.5472">
        <ele>1041.5</ele>
        <time>2022-08-12T07:55:30.000Z</time>
      </trkpt>
      <trkpt lat="45.13912" lon="5.5472">
        <ele>1041.6</ele>
        <time>2022-08-12T07:55:31.000Z</time>
      </trkpt>
      <trkpt lat="45.13911" lon="5.54721">
        <ele>1041.6</ele>
        <time>2022-08-12T07:55:32.000Z</time>
      </trkpt>
      <trkpt lat="45.1391" lon="5.54723">
        <ele>1041.9</ele>
        <time>2022-08-12T07:55:33.000Z</time>
      </trkpt>
      <trkpt lat="45.13909" lon="5.54724">
        <ele>1042.2</ele>
        <time>2022-08-12T07:55:34.000Z</time>
      </trkpt>
      <trkpt lat="45.13908" lon="5.54725">
        <ele>1042.3</ele>
        <time>2022-08-12T07:55:35.000Z</time>
      </trkpt>
      <trkpt lat="45.13907" lon="5.54726">
        <ele>1042.5</ele>
        <time>2022-08-12T07:55:36.000Z</time>
      </trkpt>
      <trkpt lat="45.13905" lon="5.54728">
        <ele>1042.7</ele>
        <time>2022-08-12T07:55:37.000Z</time>
      </trkpt>
      <trkpt lat="45.13904" lon="5.54728">
        <ele>1042.8</ele>
        <time>2022-08-12T07:55:39.000Z</time>
      </trkpt>
      <trkpt lat="45.13903" lon="5.54729">
        <ele>1043</ele>
        <time>2022-08-12T07:55:40.000Z</time>
      </trkpt>
      <trkpt lat="45.13902" lon="5.5473">
        <ele>1043.2</ele>
        <time>2022-08-12T07:55:41.000Z</time>
      </trkpt>
      <trkpt lat="45.13901" lon="5.54731">
        <ele>1043.4</ele>
        <time>2022-08-12T07:55:42.000Z</time>
      </trkpt>
      <trkpt lat="45.139" lon="5.54733">
        <ele>1043.7</ele>
        <time>2022-08-12T07:55:43.000Z</time>
      </trkpt>
      <trkpt lat="45.13899" lon="5.54734">
        <ele>1043.9</ele>
        <time>2022-08-12T07:55:44.000Z</time>
      </trkpt>
      <trkpt lat="45.13897" lon="5.54735">
        <ele>1044.1</ele>
        <time>2022-08-12T07:55:45.000Z</time>
      </trkpt>
      <trkpt lat="45.13895" lon="5.54736">
        <ele>1044.2</ele>
        <time>2022-08-12T07:55:46.000Z</time>
      </trkpt>
      <trkpt lat="45.13894" lon="5.54737">
        <ele>1044.4</ele>
        <time>2022-08-12T07:55:47.000Z</time>
      </trkpt>
      <trkpt lat="45.13893" lon="5.54738">
        <ele>1044.6</ele>
        <time>2022-08-12T07:55:48.000Z</time>
      </trkpt>
      <trkpt lat="45.13891" lon="5.5474">
        <ele>1044.9</ele>
        <time>2022-08-12T07:55:49.000Z</time>
      </trkpt>
      <trkpt lat="45.13889" lon="5.54741">
        <ele>1045.1</ele>
        <time>2022-08-12T07:55:50.000Z</time>
      </trkpt>
      <trkpt lat="45.13888" lon="5.54742">
        <ele>1045.3</ele>
        <time>2022-08-12T07:55:51.000Z</time>
      </trkpt>
      <trkpt lat="45.13887" lon="5.54743">
        <ele>1045.5</ele>
        <time>2022-08-12T07:55:52.000Z</time>
      </trkpt>
      <trkpt lat="45.13885" lon="5.54744">
        <ele>1045.7</ele>
        <time>2022-08-12T07:55:53.000Z</time>
      </trkpt>
      <trkpt lat="45.13884" lon="5.54745">
        <ele>1045.9</ele>
        <time>2022-08-12T07:55:54.000Z</time>
      </trkpt>
      <trkpt lat="45.13882" lon="5.54745">
        <ele>1046</ele>
        <time>2022-08-12T07:55:55.000Z</time>
      </trkpt>
      <trkpt lat="45.13881" lon="5.54746">
        <ele>1046.2</ele>
        <time>2022-08-12T07:55:56.000Z</time>
      </trkpt>
      <trkpt lat="45.1388" lon="5.54747">
        <ele>1046.3</ele>
        <time>2022-08-12T07:55:57.000Z</time>
      </trkpt>
      <trkpt lat="45.13878" lon="5.54748">
        <ele>1046.5</ele>
        <time>2022-08-12T07:55:58.000Z</time>
      </trkpt>
      <trkpt lat="45.13877" lon="5.54748">
        <ele>1046.7</ele>
        <time>2022-08-12T07:55:59.000Z</time>
      </trkpt>
      <trkpt lat="45.13875" lon="5.54749">
        <ele>1046.7</ele>
        <time>2022-08-12T07:56:00.000Z</time>
      </trkpt>
      <trkpt lat="45.13874" lon="5.54749">
        <ele>1046.8</ele>
        <time>2022-08-12T07:56:01.000Z</time>
      </trkpt>
      <trkpt lat="45.13873" lon="5.54749">
        <ele>1046.9</ele>
        <time>2022-08-12T07:56:02.000Z</time>
      </trkpt>
      <trkpt lat="45.13872" lon="5.54749">
        <ele>1046.9</ele>
        <time>2022-08-12T07:56:03.000Z</time>
      </trkpt>
      <trkpt lat="45.13871" lon="5.5475">
        <ele>1046.9</ele>
        <time>2022-08-12T07:56:04.000Z</time>
      </trkpt>
      <trkpt lat="45.1387" lon="5.5475">
        <ele>1047</ele>
        <time>2022-08-12T07:56:05.000Z</time>
      </trkpt>
      <trkpt lat="45.13868" lon="5.5475">
        <ele>1047</ele>
        <time>2022-08-12T07:56:06.000Z</time>
      </trkpt>
      <trkpt lat="45.13867" lon="5.54751">
        <ele>1047.2</ele>
        <time>2022-08-12T07:56:07.000Z</time>
      </trkpt>
      <trkpt lat="45.13866" lon="5.54751">
        <ele>1047.2</ele>
        <time>2022-08-12T07:56:08.000Z</time>
      </trkpt>
      <trkpt lat="45.13865" lon="5.54751">
        <ele>1047.2</ele>
        <time>2022-08-12T07:56:09.000Z</time>
      </trkpt>
      <trkpt lat="45.13863" lon="5.54751">
        <ele>1047.3</ele>
        <time>2022-08-12T07:56:10.000Z</time>
      </trkpt>
      <trkpt lat="45.13862" lon="5.54751">
        <ele>1047.4</ele>
        <time>2022-08-12T07:56:11.000Z</time>
      </trkpt>
      <trkpt lat="45.1386" lon="5.54752">
        <ele>1047.5</ele>
        <time>2022-08-12T07:56:12.000Z</time>
      </trkpt>
      <trkpt lat="45.13859" lon="5.54752">
        <ele>1047.5</ele>
        <time>2022-08-12T07:56:13.000Z</time>
      </trkpt>
      <trkpt lat="45.13858" lon="5.54752">
        <ele>1047.6</ele>
        <time>2022-08-12T07:56:14.000Z</time>
      </trkpt>
      <trkpt lat="45.13856" lon="5.54752">
        <ele>1047.7</ele>
        <time>2022-08-12T07:56:15.000Z</time>
      </trkpt>
      <trkpt lat="45.13854" lon="5.54753">
        <ele>1047.9</ele>
        <time>2022-08-12T07:56:16.000Z</time>
      </trkpt>
      <trkpt lat="45.13853" lon="5.54753">
        <ele>1048.1</ele>
        <time>2022-08-12T07:56:17.000Z</time>
      </trkpt>
      <trkpt lat="45.13852" lon="5.54753">
        <ele>1048.1</ele>
        <time>2022-08-12T07:56:18.000Z</time>
      </trkpt>
      <trkpt lat="45.13851" lon="5.54753">
        <ele>1048.1</ele>
        <time>2022-08-12T07:56:19.000Z</time>
      </trkpt>
      <trkpt lat="45.13849" lon="5.54753">
        <ele>1048.1</ele>
        <time>2022-08-12T07:56:20.000Z</time>
      </trkpt>
      <trkpt lat="45.13848" lon="5.54753">
        <ele>1048.2</ele>
        <time>2022-08-12T07:56:21.000Z</time>
      </trkpt>
      <trkpt lat="45.13847" lon="5.54754">
        <ele>1048.3</ele>
        <time>2022-08-12T07:56:22.000Z</time>
      </trkpt>
      <trkpt lat="45.13845" lon="5.54754">
        <ele>1048.5</ele>
        <time>2022-08-12T07:56:23.000Z</time>
      </trkpt>
      <trkpt lat="45.13844" lon="5.54755">
        <ele>1048.6</ele>
        <time>2022-08-12T07:56:24.000Z</time>
      </trkpt>
      <trkpt lat="45.13843" lon="5.54755">
        <ele>1048.7</ele>
        <time>2022-08-12T07:56:25.000Z</time>
      </trkpt>
      <trkpt lat="45.13842" lon="5.54755">
        <ele>1048.8</ele>
        <time>2022-08-12T07:56:26.000Z</time>
      </trkpt>
      <trkpt lat="45.1384" lon="5.54756">
        <ele>1048.9</ele>
        <time>2022-08-12T07:56:27.000Z</time>
      </trkpt>
      <trkpt lat="45.13838" lon="5.54756">
        <ele>1049</ele>
        <time>2022-08-12T07:56:28.000Z</time>
      </trkpt>
      <trkpt lat="45.13837" lon="5.54757">
        <ele>1049.2</ele>
        <time>2022-08-12T07:56:29.000Z</time>
      </trkpt>
      <trkpt lat="45.13835" lon="5.54757">
        <ele>1049.3</ele>
        <time>2022-08-12T07:56:30.000Z</time>
      </trkpt>
      <trkpt lat="45.13835" lon="5.54758">
        <ele>1049.4</ele>
        <time>2022-08-12T07:56:31.000Z</time>
      </trkpt>
      <trkpt lat="45.13833" lon="5.54758">
        <ele>1049.5</ele>
        <time>2022-08-12T07:56:32.000Z</time>
      </trkpt>
      <trkpt lat="45.13832" lon="5.54759">
        <ele>1049.6</ele>
        <time>2022-08-12T07:56:33.000Z</time>
      </trkpt>
      <trkpt lat="45.13831" lon="5.5476">
        <ele>1049.7</ele>
        <time>2022-08-12T07:56:34.000Z</time>
      </trkpt>
      <trkpt lat="45.1383" lon="5.54761">
        <ele>1049.8</ele>
        <time>2022-08-12T07:56:35.000Z</time>
      </trkpt>
      <trkpt lat="45.13829" lon="5.54761">
        <ele>1049.9</ele>
        <time>2022-08-12T07:56:36.000Z</time>
      </trkpt>
      <trkpt lat="45.13828" lon="5.54762">
        <ele>1049.9</ele>
        <time>2022-08-12T07:56:37.000Z</time>
      </trkpt>
      <trkpt lat="45.13827" lon="5.54762">
        <ele>1049.9</ele>
        <time>2022-08-12T07:56:38.000Z</time>
      </trkpt>
      <trkpt lat="45.13826" lon="5.54761">
        <ele>1049.8</ele>
        <time>2022-08-12T07:56:39.000Z</time>
      </trkpt>
      <trkpt lat="45.13824" lon="5.54762">
        <ele>1049.8</ele>
        <time>2022-08-12T07:56:40.000Z</time>
      </trkpt>
      <trkpt lat="45.13823" lon="5.54763">
        <ele>1049.9</ele>
        <time>2022-08-12T07:56:41.000Z</time>
      </trkpt>
      <trkpt lat="45.13821" lon="5.54764">
        <ele>1050</ele>
        <time>2022-08-12T07:56:42.000Z</time>
      </trkpt>
      <trkpt lat="45.1382" lon="5.54765">
        <ele>1050.2</ele>
        <time>2022-08-12T07:56:43.000Z</time>
      </trkpt>
      <trkpt lat="45.13818" lon="5.54766">
        <ele>1050.3</ele>
        <time>2022-08-12T07:56:44.000Z</time>
      </trkpt>
      <trkpt lat="45.13817" lon="5.54766">
        <ele>1050.4</ele>
        <time>2022-08-12T07:56:45.000Z</time>
      </trkpt>
      <trkpt lat="45.13815" lon="5.54767">
        <ele>1050.4</ele>
        <time>2022-08-12T07:56:46.000Z</time>
      </trkpt>
      <trkpt lat="45.13814" lon="5.54768">
        <ele>1050.5</ele>
        <time>2022-08-12T07:56:47.000Z</time>
      </trkpt>
      <trkpt lat="45.13813" lon="5.54768">
        <ele>1050.5</ele>
        <time>2022-08-12T07:56:48.000Z</time>
      </trkpt>
      <trkpt lat="45.13812" lon="5.54768">
        <ele>1050.4</ele>
        <time>2022-08-12T07:56:49.000Z</time>
      </trkpt>
      <trkpt lat="45.13811" lon="5.54768">
        <ele>1050.4</ele>
        <time>2022-08-12T07:56:50.000Z</time>
      </trkpt>
      <trkpt lat="45.1381" lon="5.54768">
        <ele>1050.4</ele>
        <time>2022-08-12T07:56:51.000Z</time>
      </trkpt>
      <trkpt lat="45.13809" lon="5.54768">
        <ele>1050.3</ele>
        <time>2022-08-12T07:56:52.000Z</time>
      </trkpt>
      <trkpt lat="45.13808" lon="5.54768">
        <ele>1050.3</ele>
        <time>2022-08-12T07:56:53.000Z</time>
      </trkpt>
      <trkpt lat="45.13807" lon="5.54769">
        <ele>1050.4</ele>
        <time>2022-08-12T07:56:54.000Z</time>
      </trkpt>
      <trkpt lat="45.13806" lon="5.54769">
        <ele>1050.4</ele>
        <time>2022-08-12T07:56:55.000Z</time>
      </trkpt>
      <trkpt lat="45.13804" lon="5.54769">
        <ele>1050.3</ele>
        <time>2022-08-12T07:56:56.000Z</time>
      </trkpt>
      <trkpt lat="45.13803" lon="5.54769">
        <ele>1050.2</ele>
        <time>2022-08-12T07:56:57.000Z</time>
      </trkpt>
      <trkpt lat="45.13802" lon="5.54769">
        <ele>1050.2</ele>
        <time>2022-08-12T07:56:58.000Z</time>
      </trkpt>
      <trkpt lat="45.138" lon="5.5477">
        <ele>1050.2</ele>
        <time>2022-08-12T07:56:59.000Z</time>
      </trkpt>
      <trkpt lat="45.13799" lon="5.5477">
        <ele>1050.2</ele>
        <time>2022-08-12T07:57:00.000Z</time>
      </trkpt>
      <trkpt lat="45.13798" lon="5.54771">
        <ele>1050.2</ele>
        <time>2022-08-12T07:57:01.000Z</time>
      </trkpt>
      <trkpt lat="45.13796" lon="5.54771">
        <ele>1050.3</ele>
        <time>2022-08-12T07:57:02.000Z</time>
      </trkpt>
      <trkpt lat="45.13795" lon="5.54772">
        <ele>1050.4</ele>
        <time>2022-08-12T07:57:03.000Z</time>
      </trkpt>
      <trkpt lat="45.13794" lon="5.54774">
        <ele>1050.5</ele>
        <time>2022-08-12T07:57:04.000Z</time>
      </trkpt>
      <trkpt lat="45.13793" lon="5.54775">
        <ele>1050.6</ele>
        <time>2022-08-12T07:57:05.000Z</time>
      </trkpt>
      <trkpt lat="45.13793" lon="5.54776">
        <ele>1050.8</ele>
        <time>2022-08-12T07:57:06.000Z</time>
      </trkpt>
      <trkpt lat="45.13792" lon="5.54778">
        <ele>1051</ele>
        <time>2022-08-12T07:57:07.000Z</time>
      </trkpt>
      <trkpt lat="45.13791" lon="5.54779">
        <ele>1051.1</ele>
        <time>2022-08-12T07:57:08.000Z</time>
      </trkpt>
      <trkpt lat="45.1379" lon="5.5478">
        <ele>1051.3</ele>
        <time>2022-08-12T07:57:09.000Z</time>
      </trkpt>
      <trkpt lat="45.13789" lon="5.54782">
        <ele>1051.5</ele>
        <time>2022-08-12T07:57:10.000Z</time>
      </trkpt>
      <trkpt lat="45.13789" lon="5.54784">
        <ele>1051.8</ele>
        <time>2022-08-12T07:57:11.000Z</time>
      </trkpt>
      <trkpt lat="45.13788" lon="5.54786">
        <ele>1052.1</ele>
        <time>2022-08-12T07:57:12.000Z</time>
      </trkpt>
      <trkpt lat="45.13788" lon="5.54788">
        <ele>1052.3</ele>
        <time>2022-08-12T07:57:13.000Z</time>
      </trkpt>
      <trkpt lat="45.13788" lon="5.5479">
        <ele>1052.6</ele>
        <time>2022-08-12T07:57:14.000Z</time>
      </trkpt>
      <trkpt lat="45.13788" lon="5.54792">
        <ele>1052.9</ele>
        <time>2022-08-12T07:57:15.000Z</time>
      </trkpt>
      <trkpt lat="45.13787" lon="5.54794">
        <ele>1053.1</ele>
        <time>2022-08-12T07:57:16.000Z</time>
      </trkpt>
      <trkpt lat="45.13787" lon="5.54796">
        <ele>1053.5</ele>
        <time>2022-08-12T07:57:17.000Z</time>
      </trkpt>
      <trkpt lat="45.13787" lon="5.54798">
        <ele>1053.7</ele>
        <time>2022-08-12T07:57:18.000Z</time>
      </trkpt>
      <trkpt lat="45.13786" lon="5.548">
        <ele>1054</ele>
        <time>2022-08-12T07:57:19.000Z</time>
      </trkpt>
      <trkpt lat="45.13786" lon="5.54802">
        <ele>1054.3</ele>
        <time>2022-08-12T07:57:20.000Z</time>
      </trkpt>
      <trkpt lat="45.13785" lon="5.54805">
        <ele>1054.7</ele>
        <time>2022-08-12T07:57:21.000Z</time>
      </trkpt>
      <trkpt lat="45.13785" lon="5.54807">
        <ele>1055</ele>
        <time>2022-08-12T07:57:22.000Z</time>
      </trkpt>
      <trkpt lat="45.13785" lon="5.54809">
        <ele>1055.4</ele>
        <time>2022-08-12T07:57:23.000Z</time>
      </trkpt>
      <trkpt lat="45.13785" lon="5.54811">
        <ele>1055.8</ele>
        <time>2022-08-12T07:57:24.000Z</time>
      </trkpt>
      <trkpt lat="45.13785" lon="5.54812">
        <ele>1056.2</ele>
        <time>2022-08-12T07:57:25.000Z</time>
      </trkpt>
      <trkpt lat="45.13785" lon="5.54814">
        <ele>1056.5</ele>
        <time>2022-08-12T07:57:26.000Z</time>
      </trkpt>
      <trkpt lat="45.13784" lon="5.54817">
        <ele>1057</ele>
        <time>2022-08-12T07:57:27.000Z</time>
      </trkpt>
      <trkpt lat="45.13784" lon="5.54819">
        <ele>1057.5</ele>
        <time>2022-08-12T07:57:28.000Z</time>
      </trkpt>
      <trkpt lat="45.13783" lon="5.54821">
        <ele>1057.8</ele>
        <time>2022-08-12T07:57:29.000Z</time>
      </trkpt>
      <trkpt lat="45.13782" lon="5.54823">
        <ele>1058.1</ele>
        <time>2022-08-12T07:57:30.000Z</time>
      </trkpt>
      <trkpt lat="45.13781" lon="5.54824">
        <ele>1058.2</ele>
        <time>2022-08-12T07:57:31.000Z</time>
      </trkpt>
      <trkpt lat="45.13779" lon="5.54829">
        <ele>1059.1</ele>
        <time>2022-08-12T07:57:34.000Z</time>
      </trkpt>
      <trkpt lat="45.13778" lon="5.5483">
        <ele>1059.3</ele>
        <time>2022-08-12T07:57:35.000Z</time>
      </trkpt>
      <trkpt lat="45.13776" lon="5.54831">
        <ele>1059.4</ele>
        <time>2022-08-12T07:57:36.000Z</time>
      </trkpt>
      <trkpt lat="45.13775" lon="5.54832">
        <ele>1059.5</ele>
        <time>2022-08-12T07:57:37.000Z</time>
      </trkpt>
      <trkpt lat="45.13773" lon="5.54834">
        <ele>1059.6</ele>
        <time>2022-08-12T07:57:38.000Z</time>
      </trkpt>
      <trkpt lat="45.13772" lon="5.54835">
        <ele>1059.7</ele>
        <time>2022-08-12T07:57:39.000Z</time>
      </trkpt>
      <trkpt lat="45.13771" lon="5.54836">
        <ele>1059.8</ele>
        <time>2022-08-12T07:57:40.000Z</time>
      </trkpt>
      <trkpt lat="45.1377" lon="5.54836">
        <ele>1059.8</ele>
        <time>2022-08-12T07:57:41.000Z</time>
      </trkpt>
      <trkpt lat="45.13769" lon="5.54837">
        <ele>1060</ele>
        <time>2022-08-12T07:57:42.000Z</time>
      </trkpt>
      <trkpt lat="45.13768" lon="5.54838">
        <ele>1060</ele>
        <time>2022-08-12T07:57:43.000Z</time>
      </trkpt>
      <trkpt lat="45.13767" lon="5.54839">
        <ele>1060.1</ele>
        <time>2022-08-12T07:57:44.000Z</time>
      </trkpt>
      <trkpt lat="45.13766" lon="5.5484">
        <ele>1060.2</ele>
        <time>2022-08-12T07:57:45.000Z</time>
      </trkpt>
      <trkpt lat="45.13765" lon="5.54841">
        <ele>1060.5</ele>
        <time>2022-08-12T07:57:46.000Z</time>
      </trkpt>
      <trkpt lat="45.13764" lon="5.54843">
        <ele>1060.9</ele>
        <time>2022-08-12T07:57:47.000Z</time>
      </trkpt>
      <trkpt lat="45.13763" lon="5.54845">
        <ele>1061.1</ele>
        <time>2022-08-12T07:57:48.000Z</time>
      </trkpt>
      <trkpt lat="45.13762" lon="5.54846">
        <ele>1061.2</ele>
        <time>2022-08-12T07:57:49.000Z</time>
      </trkpt>
      <trkpt lat="45.13761" lon="5.54846">
        <ele>1061.3</ele>
        <time>2022-08-12T07:57:50.000Z</time>
      </trkpt>
      <trkpt lat="45.1376" lon="5.54847">
        <ele>1061.3</ele>
        <time>2022-08-12T07:57:51.000Z</time>
      </trkpt>
      <trkpt lat="45.13759" lon="5.54847">
        <ele>1061.2</ele>
        <time>2022-08-12T07:57:52.000Z</time>
      </trkpt>
      <trkpt lat="45.13758" lon="5.54848">
        <ele>1061.4</ele>
        <time>2022-08-12T07:57:53.000Z</time>
      </trkpt>
      <trkpt lat="45.13757" lon="5.5485">
        <ele>1061.7</ele>
        <time>2022-08-12T07:57:54.000Z</time>
      </trkpt>
      <trkpt lat="45.13755" lon="5.54851">
        <ele>1061.9</ele>
        <time>2022-08-12T07:57:55.000Z</time>
      </trkpt>
      <trkpt lat="45.13754" lon="5.54852">
        <ele>1062</ele>
        <time>2022-08-12T07:57:56.000Z</time>
      </trkpt>
      <trkpt lat="45.13753" lon="5.54853">
        <ele>1062.1</ele>
        <time>2022-08-12T07:57:57.000Z</time>
      </trkpt>
      <trkpt lat="45.13752" lon="5.54853">
        <ele>1062.2</ele>
        <time>2022-08-12T07:57:58.000Z</time>
      </trkpt>
      <trkpt lat="45.13751" lon="5.54854">
        <ele>1062.3</ele>
        <time>2022-08-12T07:57:59.000Z</time>
      </trkpt>
      <trkpt lat="45.13751" lon="5.54855">
        <ele>1062.4</ele>
        <time>2022-08-12T07:58:00.000Z</time>
      </trkpt>
      <trkpt lat="45.1375" lon="5.54855">
        <ele>1062.5</ele>
        <time>2022-08-12T07:58:01.000Z</time>
      </trkpt>
      <trkpt lat="45.13749" lon="5.54856">
        <ele>1062.6</ele>
        <time>2022-08-12T07:58:02.000Z</time>
      </trkpt>
      <trkpt lat="45.13748" lon="5.54855">
        <ele>1062.5</ele>
        <time>2022-08-12T07:58:03.000Z</time>
      </trkpt>
      <trkpt lat="45.13748" lon="5.54856">
        <ele>1062.6</ele>
        <time>2022-08-12T07:58:04.000Z</time>
      </trkpt>
      <trkpt lat="45.13747" lon="5.54856">
        <ele>1062.5</ele>
        <time>2022-08-12T07:58:05.000Z</time>
      </trkpt>
      <trkpt lat="45.13744" lon="5.54856">
        <ele>1062.5</ele>
        <time>2022-08-12T07:58:06.000Z</time>
      </trkpt>
      <trkpt lat="45.13742" lon="5.54856">
        <ele>1062.5</ele>
        <time>2022-08-12T07:58:07.000Z</time>
      </trkpt>
      <trkpt lat="45.13741" lon="5.54856">
        <ele>1062.5</ele>
        <time>2022-08-12T07:58:08.000Z</time>
      </trkpt>
      <trkpt lat="45.13739" lon="5.54857">
        <ele>1062.7</ele>
        <time>2022-08-12T07:58:09.000Z</time>
      </trkpt>
      <trkpt lat="45.13738" lon="5.54858">
        <ele>1062.8</ele>
        <time>2022-08-12T07:58:10.000Z</time>
      </trkpt>
      <trkpt lat="45.13737" lon="5.54858">
        <ele>1062.8</ele>
        <time>2022-08-12T07:58:11.000Z</time>
      </trkpt>
      <trkpt lat="45.13736" lon="5.54858">
        <ele>1062.7</ele>
        <time>2022-08-12T07:58:12.000Z</time>
      </trkpt>
      <trkpt lat="45.13735" lon="5.54858">
        <ele>1062.8</ele>
        <time>2022-08-12T07:58:13.000Z</time>
      </trkpt>
      <trkpt lat="45.13734" lon="5.54859">
        <ele>1063</ele>
        <time>2022-08-12T07:58:14.000Z</time>
      </trkpt>
      <trkpt lat="45.13734" lon="5.5486">
        <ele>1063.1</ele>
        <time>2022-08-12T07:58:15.000Z</time>
      </trkpt>
      <trkpt lat="45.13733" lon="5.54861">
        <ele>1063.2</ele>
        <time>2022-08-12T07:58:16.000Z</time>
      </trkpt>
      <trkpt lat="45.13732" lon="5.54862">
        <ele>1063.6</ele>
        <time>2022-08-12T07:58:17.000Z</time>
      </trkpt>
      <trkpt lat="45.13729" lon="5.54864">
        <ele>1064.1</ele>
        <time>2022-08-12T07:58:18.000Z</time>
      </trkpt>
      <trkpt lat="45.13728" lon="5.54866">
        <ele>1064.5</ele>
        <time>2022-08-12T07:58:19.000Z</time>
      </trkpt>
      <trkpt lat="45.13727" lon="5.54866">
        <ele>1064.6</ele>
        <time>2022-08-12T07:58:20.000Z</time>
      </trkpt>
      <trkpt lat="45.13725" lon="5.54866">
        <ele>1064.6</ele>
        <time>2022-08-12T07:58:21.000Z</time>
      </trkpt>
      <trkpt lat="45.13723" lon="5.54866">
        <ele>1064.4</ele>
        <time>2022-08-12T07:58:22.000Z</time>
      </trkpt>
      <trkpt lat="45.13722" lon="5.54866">
        <ele>1064.4</ele>
        <time>2022-08-12T07:58:23.000Z</time>
      </trkpt>
      <trkpt lat="45.1372" lon="5.54866">
        <ele>1064.6</ele>
        <time>2022-08-12T07:58:24.000Z</time>
      </trkpt>
      <trkpt lat="45.13719" lon="5.54866">
        <ele>1064.9</ele>
        <time>2022-08-12T07:58:25.000Z</time>
      </trkpt>
      <trkpt lat="45.13717" lon="5.54866">
        <ele>1065.4</ele>
        <time>2022-08-12T07:58:26.000Z</time>
      </trkpt>
      <trkpt lat="45.13715" lon="5.54868">
        <ele>1066.1</ele>
        <time>2022-08-12T07:58:27.000Z</time>
      </trkpt>
      <trkpt lat="45.13713" lon="5.54869">
        <ele>1067</ele>
        <time>2022-08-12T07:58:28.000Z</time>
      </trkpt>
      <trkpt lat="45.13712" lon="5.54871">
        <ele>1067.5</ele>
        <time>2022-08-12T07:58:29.000Z</time>
      </trkpt>
      <trkpt lat="45.1371" lon="5.54872">
        <ele>1068.1</ele>
        <time>2022-08-12T07:58:30.000Z</time>
      </trkpt>
      <trkpt lat="45.13709" lon="5.54872">
        <ele>1068.4</ele>
        <time>2022-08-12T07:58:31.000Z</time>
      </trkpt>
      <trkpt lat="45.13707" lon="5.54871">
        <ele>1068.5</ele>
        <time>2022-08-12T07:58:32.000Z</time>
      </trkpt>
      <trkpt lat="45.13705" lon="5.5487">
        <ele>1068.6</ele>
        <time>2022-08-12T07:58:33.000Z</time>
      </trkpt>
      <trkpt lat="45.13703" lon="5.5487">
        <ele>1068.9</ele>
        <time>2022-08-12T07:58:34.000Z</time>
      </trkpt>
      <trkpt lat="45.13701" lon="5.5487">
        <ele>1069</ele>
        <time>2022-08-12T07:58:35.000Z</time>
      </trkpt>
      <trkpt lat="45.137" lon="5.54869">
        <ele>1069.1</ele>
        <time>2022-08-12T07:58:37.000Z</time>
      </trkpt>
      <trkpt lat="45.13699" lon="5.54869">
        <ele>1069.1</ele>
        <time>2022-08-12T07:58:38.000Z</time>
      </trkpt>
      <trkpt lat="45.13698" lon="5.54868">
        <ele>1069</ele>
        <time>2022-08-12T07:58:39.000Z</time>
      </trkpt>
      <trkpt lat="45.13697" lon="5.54867">
        <ele>1069.1</ele>
        <time>2022-08-12T07:58:40.000Z</time>
      </trkpt>
      <trkpt lat="45.13696" lon="5.54867">
        <ele>1069.1</ele>
        <time>2022-08-12T07:58:41.000Z</time>
      </trkpt>
      <trkpt lat="45.13695" lon="5.54866">
        <ele>1069.1</ele>
        <time>2022-08-12T07:58:42.000Z</time>
      </trkpt>
      <trkpt lat="45.13694" lon="5.54866">
        <ele>1069.4</ele>
        <time>2022-08-12T07:58:44.000Z</time>
      </trkpt>
      <trkpt lat="45.13693" lon="5.54866">
        <ele>1069.6</ele>
        <time>2022-08-12T07:58:45.000Z</time>
      </trkpt>
      <trkpt lat="45.13692" lon="5.54866">
        <ele>1069.8</ele>
        <time>2022-08-12T07:58:46.000Z</time>
      </trkpt>
      <trkpt lat="45.1369" lon="5.54866">
        <ele>1070.1</ele>
        <time>2022-08-12T07:58:47.000Z</time>
      </trkpt>
      <trkpt lat="45.13689" lon="5.54865">
        <ele>1070.2</ele>
        <time>2022-08-12T07:58:48.000Z</time>
      </trkpt>
      <trkpt lat="45.13688" lon="5.54864">
        <ele>1070.2</ele>
        <time>2022-08-12T07:58:49.000Z</time>
      </trkpt>
      <trkpt lat="45.13687" lon="5.54863">
        <ele>1070.2</ele>
        <time>2022-08-12T07:58:50.000Z</time>
      </trkpt>
      <trkpt lat="45.13686" lon="5.54863">
        <ele>1070.3</ele>
        <time>2022-08-12T07:58:51.000Z</time>
      </trkpt>
      <trkpt lat="45.13685" lon="5.54863">
        <ele>1070.6</ele>
        <time>2022-08-12T07:58:52.000Z</time>
      </trkpt>
      <trkpt lat="45.13683" lon="5.54864">
        <ele>1071.1</ele>
        <time>2022-08-12T07:58:53.000Z</time>
      </trkpt>
      <trkpt lat="45.13681" lon="5.54864">
        <ele>1071.5</ele>
        <time>2022-08-12T07:58:54.000Z</time>
      </trkpt>
      <trkpt lat="45.1368" lon="5.54864">
        <ele>1071.8</ele>
        <time>2022-08-12T07:58:55.000Z</time>
      </trkpt>
      <trkpt lat="45.13679" lon="5.54864">
        <ele>1072</ele>
        <time>2022-08-12T07:58:56.000Z</time>
      </trkpt>
      <trkpt lat="45.13678" lon="5.54864">
        <ele>1072.2</ele>
        <time>2022-08-12T07:58:57.000Z</time>
      </trkpt>
      <trkpt lat="45.13677" lon="5.54863">
        <ele>1072.2</ele>
        <time>2022-08-12T07:58:58.000Z</time>
      </trkpt>
      <trkpt lat="45.13676" lon="5.54862">
        <ele>1072.3</ele>
        <time>2022-08-12T07:59:00.000Z</time>
      </trkpt>
      <trkpt lat="45.13675" lon="5.54861">
        <ele>1072.3</ele>
        <time>2022-08-12T07:59:01.000Z</time>
      </trkpt>
      <trkpt lat="45.13674" lon="5.5486">
        <ele>1072.3</ele>
        <time>2022-08-12T07:59:02.000Z</time>
      </trkpt>
      <trkpt lat="45.13672" lon="5.54859">
        <ele>1072.2</ele>
        <time>2022-08-12T07:59:03.000Z</time>
      </trkpt>
      <trkpt lat="45.13671" lon="5.54858">
        <ele>1072.2</ele>
        <time>2022-08-12T07:59:04.000Z</time>
      </trkpt>
      <trkpt lat="45.13671" lon="5.54857">
        <ele>1072.3</ele>
        <time>2022-08-12T07:59:05.000Z</time>
      </trkpt>
      <trkpt lat="45.1367" lon="5.54857">
        <ele>1072.5</ele>
        <time>2022-08-12T07:59:06.000Z</time>
      </trkpt>
      <trkpt lat="45.13668" lon="5.54856">
        <ele>1072.5</ele>
        <time>2022-08-12T07:59:07.000Z</time>
      </trkpt>
      <trkpt lat="45.13667" lon="5.54856">
        <ele>1072.5</ele>
        <time>2022-08-12T07:59:08.000Z</time>
      </trkpt>
      <trkpt lat="45.13666" lon="5.54855">
        <ele>1072.6</ele>
        <time>2022-08-12T07:59:09.000Z</time>
      </trkpt>
      <trkpt lat="45.13664" lon="5.54855">
        <ele>1072.7</ele>
        <time>2022-08-12T07:59:10.000Z</time>
      </trkpt>
      <trkpt lat="45.13663" lon="5.54854">
        <ele>1072.7</ele>
        <time>2022-08-12T07:59:11.000Z</time>
      </trkpt>
      <trkpt lat="45.13662" lon="5.54853">
        <ele>1072.6</ele>
        <time>2022-08-12T07:59:12.000Z</time>
      </trkpt>
      <trkpt lat="45.1366" lon="5.54851">
        <ele>1072.6</ele>
        <time>2022-08-12T07:59:13.000Z</time>
      </trkpt>
      <trkpt lat="45.13659" lon="5.54851">
        <ele>1072.8</ele>
        <time>2022-08-12T07:59:14.000Z</time>
      </trkpt>
      <trkpt lat="45.13657" lon="5.54851">
        <ele>1073</ele>
        <time>2022-08-12T07:59:15.000Z</time>
      </trkpt>
      <trkpt lat="45.13655" lon="5.5485">
        <ele>1073.2</ele>
        <time>2022-08-12T07:59:16.000Z</time>
      </trkpt>
      <trkpt lat="45.13654" lon="5.5485">
        <ele>1073.4</ele>
        <time>2022-08-12T07:59:17.000Z</time>
      </trkpt>
      <trkpt lat="45.13652" lon="5.5485">
        <ele>1073.5</ele>
        <time>2022-08-12T07:59:18.000Z</time>
      </trkpt>
      <trkpt lat="45.13651" lon="5.54849">
        <ele>1073.7</ele>
        <time>2022-08-12T07:59:19.000Z</time>
      </trkpt>
      <trkpt lat="45.13648" lon="5.5485">
        <ele>1074.2</ele>
        <time>2022-08-12T07:59:20.000Z</time>
      </trkpt>
      <trkpt lat="45.13647" lon="5.5485">
        <ele>1074.5</ele>
        <time>2022-08-12T07:59:21.000Z</time>
      </trkpt>
      <trkpt lat="45.13645" lon="5.5485">
        <ele>1074.7</ele>
        <time>2022-08-12T07:59:22.000Z</time>
      </trkpt>
      <trkpt lat="45.13644" lon="5.54849">
        <ele>1074.7</ele>
        <time>2022-08-12T07:59:23.000Z</time>
      </trkpt>
      <trkpt lat="45.13643" lon="5.54848">
        <ele>1074.5</ele>
        <time>2022-08-12T07:59:24.000Z</time>
      </trkpt>
      <trkpt lat="45.13641" lon="5.54847">
        <ele>1074.4</ele>
        <time>2022-08-12T07:59:25.000Z</time>
      </trkpt>
      <trkpt lat="45.1364" lon="5.54846">
        <ele>1074.5</ele>
        <time>2022-08-12T07:59:26.000Z</time>
      </trkpt>
      <trkpt lat="45.13638" lon="5.54846">
        <ele>1074.7</ele>
        <time>2022-08-12T07:59:27.000Z</time>
      </trkpt>
      <trkpt lat="45.13637" lon="5.54847">
        <ele>1075</ele>
        <time>2022-08-12T07:59:28.000Z</time>
      </trkpt>
      <trkpt lat="45.13635" lon="5.54846">
        <ele>1075</ele>
        <time>2022-08-12T07:59:29.000Z</time>
      </trkpt>
      <trkpt lat="45.13633" lon="5.54846">
        <ele>1075</ele>
        <time>2022-08-12T07:59:30.000Z</time>
      </trkpt>
      <trkpt lat="45.13632" lon="5.54846">
        <ele>1075</ele>
        <time>2022-08-12T07:59:31.000Z</time>
      </trkpt>
      <trkpt lat="45.13631" lon="5.54848">
        <ele>1075.9</ele>
        <time>2022-08-12T07:59:33.000Z</time>
      </trkpt>
      <trkpt lat="45.13631" lon="5.54849">
        <ele>1076</ele>
        <time>2022-08-12T07:59:34.000Z</time>
      </trkpt>
      <trkpt lat="45.1363" lon="5.54848">
        <ele>1075.9</ele>
        <time>2022-08-12T07:59:35.000Z</time>
      </trkpt>
      <trkpt lat="45.13629" lon="5.54848">
        <ele>1075.9</ele>
        <time>2022-08-12T07:59:36.000Z</time>
      </trkpt>
      <trkpt lat="45.13628" lon="5.54848">
        <ele>1075.9</ele>
        <time>2022-08-12T07:59:37.000Z</time>
      </trkpt>
      <trkpt lat="45.13627" lon="5.54848">
        <ele>1075.9</ele>
        <time>2022-08-12T07:59:38.000Z</time>
      </trkpt>
      <trkpt lat="45.13626" lon="5.54848">
        <ele>1076</ele>
        <time>2022-08-12T07:59:39.000Z</time>
      </trkpt>
      <trkpt lat="45.13625" lon="5.54848">
        <ele>1076.2</ele>
        <time>2022-08-12T07:59:40.000Z</time>
      </trkpt>
      <trkpt lat="45.13623" lon="5.54848">
        <ele>1076.4</ele>
        <time>2022-08-12T07:59:41.000Z</time>
      </trkpt>
      <trkpt lat="45.13622" lon="5.54849">
        <ele>1076.6</ele>
        <time>2022-08-12T07:59:42.000Z</time>
      </trkpt>
      <trkpt lat="45.13621" lon="5.54849">
        <ele>1076.8</ele>
        <time>2022-08-12T07:59:43.000Z</time>
      </trkpt>
      <trkpt lat="45.13619" lon="5.54849">
        <ele>1076.8</ele>
        <time>2022-08-12T07:59:44.000Z</time>
      </trkpt>
      <trkpt lat="45.13618" lon="5.54848">
        <ele>1076.8</ele>
        <time>2022-08-12T07:59:45.000Z</time>
      </trkpt>
      <trkpt lat="45.13617" lon="5.54848">
        <ele>1076.8</ele>
        <time>2022-08-12T07:59:46.000Z</time>
      </trkpt>
      <trkpt lat="45.13616" lon="5.54847">
        <ele>1076.7</ele>
        <time>2022-08-12T07:59:47.000Z</time>
      </trkpt>
      <trkpt lat="45.13615" lon="5.54847">
        <ele>1076.8</ele>
        <time>2022-08-12T07:59:48.000Z</time>
      </trkpt>
      <trkpt lat="45.13614" lon="5.54848">
        <ele>1076.9</ele>
        <time>2022-08-12T07:59:49.000Z</time>
      </trkpt>
      <trkpt lat="45.13613" lon="5.54848">
        <ele>1076.9</ele>
        <time>2022-08-12T07:59:50.000Z</time>
      </trkpt>
      <trkpt lat="45.13612" lon="5.54847">
        <ele>1077</ele>
        <time>2022-08-12T07:59:51.000Z</time>
      </trkpt>
      <trkpt lat="45.13611" lon="5.54848">
        <ele>1077.1</ele>
        <time>2022-08-12T07:59:52.000Z</time>
      </trkpt>
      <trkpt lat="45.1361" lon="5.54848">
        <ele>1077.1</ele>
        <time>2022-08-12T07:59:53.000Z</time>
      </trkpt>
      <trkpt lat="45.13608" lon="5.54848">
        <ele>1077.1</ele>
        <time>2022-08-12T07:59:54.000Z</time>
      </trkpt>
      <trkpt lat="45.13607" lon="5.54847">
        <ele>1077.1</ele>
        <time>2022-08-12T07:59:55.000Z</time>
      </trkpt>
      <trkpt lat="45.13606" lon="5.54847">
        <ele>1077.1</ele>
        <time>2022-08-12T07:59:56.000Z</time>
      </trkpt>
      <trkpt lat="45.13604" lon="5.54847">
        <ele>1077.1</ele>
        <time>2022-08-12T07:59:57.000Z</time>
      </trkpt>
      <trkpt lat="45.13602" lon="5.54847">
        <ele>1077.1</ele>
        <time>2022-08-12T07:59:58.000Z</time>
      </trkpt>
      <trkpt lat="45.13601" lon="5.54847">
        <ele>1077.1</ele>
        <time>2022-08-12T07:59:59.000Z</time>
      </trkpt>
      <trkpt lat="45.136" lon="5.54847">
        <ele>1077.2</ele>
        <time>2022-08-12T08:00:00.000Z</time>
      </trkpt>
      <trkpt lat="45.13599" lon="5.54847">
        <ele>1077.3</ele>
        <time>2022-08-12T08:00:01.000Z</time>
      </trkpt>
      <trkpt lat="45.13598" lon="5.54847">
        <ele>1077.2</ele>
        <time>2022-08-12T08:00:03.000Z</time>
      </trkpt>
      <trkpt lat="45.13596" lon="5.54847">
        <ele>1077.3</ele>
        <time>2022-08-12T08:00:04.000Z</time>
      </trkpt>
      <trkpt lat="45.13595" lon="5.54848">
        <ele>1077.6</ele>
        <time>2022-08-12T08:00:05.000Z</time>
      </trkpt>
      <trkpt lat="45.13594" lon="5.54849">
        <ele>1077.9</ele>
        <time>2022-08-12T08:00:06.000Z</time>
      </trkpt>
      <trkpt lat="45.13593" lon="5.54849">
        <ele>1078</ele>
        <time>2022-08-12T08:00:07.000Z</time>
      </trkpt>
      <trkpt lat="45.13592" lon="5.54849">
        <ele>1077.9</ele>
        <time>2022-08-12T08:00:08.000Z</time>
      </trkpt>
      <trkpt lat="45.13591" lon="5.54849">
        <ele>1077.9</ele>
        <time>2022-08-12T08:00:09.000Z</time>
      </trkpt>
      <trkpt lat="45.1359" lon="5.5485">
        <ele>1078.3</ele>
        <time>2022-08-12T08:00:12.000Z</time>
      </trkpt>
      <trkpt lat="45.13588" lon="5.5485">
        <ele>1078.3</ele>
        <time>2022-08-12T08:00:13.000Z</time>
      </trkpt>
      <trkpt lat="45.13587" lon="5.5485">
        <ele>1078.4</ele>
        <time>2022-08-12T08:00:14.000Z</time>
      </trkpt>
      <trkpt lat="45.13586" lon="5.54851">
        <ele>1078.6</ele>
        <time>2022-08-12T08:00:15.000Z</time>
      </trkpt>
      <trkpt lat="45.13585" lon="5.54851">
        <ele>1078.6</ele>
        <time>2022-08-12T08:00:16.000Z</time>
      </trkpt>
      <trkpt lat="45.13583" lon="5.5485">
        <ele>1078.4</ele>
        <time>2022-08-12T08:00:17.000Z</time>
      </trkpt>
      <trkpt lat="45.13582" lon="5.5485">
        <ele>1078.5</ele>
        <time>2022-08-12T08:00:18.000Z</time>
      </trkpt>
      <trkpt lat="45.13579" lon="5.54851">
        <ele>1078.7</ele>
        <time>2022-08-12T08:00:19.000Z</time>
      </trkpt>
      <trkpt lat="45.13578" lon="5.54852">
        <ele>1078.9</ele>
        <time>2022-08-12T08:00:20.000Z</time>
      </trkpt>
      <trkpt lat="45.13577" lon="5.54853">
        <ele>1079</ele>
        <time>2022-08-12T08:00:21.000Z</time>
      </trkpt>
      <trkpt lat="45.13575" lon="5.54854">
        <ele>1079.3</ele>
        <time>2022-08-12T08:00:23.000Z</time>
      </trkpt>
      <trkpt lat="45.13574" lon="5.54854">
        <ele>1079.4</ele>
        <time>2022-08-12T08:00:24.000Z</time>
      </trkpt>
      <trkpt lat="45.13572" lon="5.54854">
        <ele>1079.4</ele>
        <time>2022-08-12T08:00:25.000Z</time>
      </trkpt>
      <trkpt lat="45.1357" lon="5.54855">
        <ele>1079.5</ele>
        <time>2022-08-12T08:00:26.000Z</time>
      </trkpt>
      <trkpt lat="45.13569" lon="5.54855">
        <ele>1079.6</ele>
        <time>2022-08-12T08:00:27.000Z</time>
      </trkpt>
      <trkpt lat="45.13568" lon="5.54856">
        <ele>1079.9</ele>
        <time>2022-08-12T08:00:28.000Z</time>
      </trkpt>
      <trkpt lat="45.13566" lon="5.54857">
        <ele>1080</ele>
        <time>2022-08-12T08:00:29.000Z</time>
      </trkpt>
      <trkpt lat="45.13565" lon="5.54857">
        <ele>1080</ele>
        <time>2022-08-12T08:00:30.000Z</time>
      </trkpt>
      <trkpt lat="45.13564" lon="5.54858">
        <ele>1080.2</ele>
        <time>2022-08-12T08:00:31.000Z</time>
      </trkpt>
      <trkpt lat="45.13563" lon="5.54859">
        <ele>1080.5</ele>
        <time>2022-08-12T08:00:32.000Z</time>
      </trkpt>
      <trkpt lat="45.13562" lon="5.54859">
        <ele>1080.7</ele>
        <time>2022-08-12T08:00:33.000Z</time>
      </trkpt>
      <trkpt lat="45.1356" lon="5.5486">
        <ele>1080.8</ele>
        <time>2022-08-12T08:00:34.000Z</time>
      </trkpt>
      <trkpt lat="45.13558" lon="5.5486">
        <ele>1080.8</ele>
        <time>2022-08-12T08:00:35.000Z</time>
      </trkpt>
      <trkpt lat="45.13557" lon="5.54861">
        <ele>1081</ele>
        <time>2022-08-12T08:00:36.000Z</time>
      </trkpt>
      <trkpt lat="45.13555" lon="5.54861">
        <ele>1080.9</ele>
        <time>2022-08-12T08:00:37.000Z</time>
      </trkpt>
      <trkpt lat="45.13553" lon="5.54862">
        <ele>1081</ele>
        <time>2022-08-12T08:00:38.000Z</time>
      </trkpt>
      <trkpt lat="45.13551" lon="5.54862">
        <ele>1080.8</ele>
        <time>2022-08-12T08:00:39.000Z</time>
      </trkpt>
      <trkpt lat="45.13549" lon="5.54862">
        <ele>1080.9</ele>
        <time>2022-08-12T08:00:40.000Z</time>
      </trkpt>
      <trkpt lat="45.13548" lon="5.54863">
        <ele>1081</ele>
        <time>2022-08-12T08:00:41.000Z</time>
      </trkpt>
      <trkpt lat="45.13547" lon="5.54863">
        <ele>1081.1</ele>
        <time>2022-08-12T08:00:43.000Z</time>
      </trkpt>
      <trkpt lat="45.13546" lon="5.54865">
        <ele>1081.5</ele>
        <time>2022-08-12T08:00:44.000Z</time>
      </trkpt>
      <trkpt lat="45.13545" lon="5.54866">
        <ele>1081.8</ele>
        <time>2022-08-12T08:00:45.000Z</time>
      </trkpt>
      <trkpt lat="45.13544" lon="5.54867">
        <ele>1082.1</ele>
        <time>2022-08-12T08:00:46.000Z</time>
      </trkpt>
      <trkpt lat="45.13542" lon="5.54867">
        <ele>1081.9</ele>
        <time>2022-08-12T08:00:47.000Z</time>
      </trkpt>
      <trkpt lat="45.13539" lon="5.54866">
        <ele>1081.6</ele>
        <time>2022-08-12T08:00:48.000Z</time>
      </trkpt>
      <trkpt lat="45.13537" lon="5.54867">
        <ele>1081.5</ele>
        <time>2022-08-12T08:00:49.000Z</time>
      </trkpt>
      <trkpt lat="45.13535" lon="5.54866">
        <ele>1081.1</ele>
        <time>2022-08-12T08:00:50.000Z</time>
      </trkpt>
      <trkpt lat="45.13534" lon="5.54866">
        <ele>1081.1</ele>
        <time>2022-08-12T08:00:51.000Z</time>
      </trkpt>
      <trkpt lat="45.13532" lon="5.54867">
        <ele>1081.2</ele>
        <time>2022-08-12T08:00:52.000Z</time>
      </trkpt>
      <trkpt lat="45.1353" lon="5.5487">
        <ele>1082.1</ele>
        <time>2022-08-12T08:00:53.000Z</time>
      </trkpt>
      <trkpt lat="45.13528" lon="5.54873">
        <ele>1082.7</ele>
        <time>2022-08-12T08:00:54.000Z</time>
      </trkpt>
      <trkpt lat="45.13525" lon="5.54873">
        <ele>1082.6</ele>
        <time>2022-08-12T08:00:55.000Z</time>
      </trkpt>
      <trkpt lat="45.13524" lon="5.54872">
        <ele>1082.2</ele>
        <time>2022-08-12T08:00:56.000Z</time>
      </trkpt>
      <trkpt lat="45.13523" lon="5.54871">
        <ele>1081.8</ele>
        <time>2022-08-12T08:00:57.000Z</time>
      </trkpt>
      <trkpt lat="45.13522" lon="5.5487">
        <ele>1081.5</ele>
        <time>2022-08-12T08:00:58.000Z</time>
      </trkpt>
      <trkpt lat="45.13521" lon="5.54869">
        <ele>1081.1</ele>
        <time>2022-08-12T08:00:59.000Z</time>
      </trkpt>
      <trkpt lat="45.1352" lon="5.54869">
        <ele>1081</ele>
        <time>2022-08-12T08:01:00.000Z</time>
      </trkpt>
      <trkpt lat="45.1352" lon="5.5487">
        <ele>1081.3</ele>
        <time>2022-08-12T08:01:02.000Z</time>
      </trkpt>
      <trkpt lat="45.13519" lon="5.5487">
        <ele>1081.3</ele>
        <time>2022-08-12T08:01:03.000Z</time>
      </trkpt>
      <trkpt lat="45.13518" lon="5.54871">
        <ele>1081.4</ele>
        <time>2022-08-12T08:01:04.000Z</time>
      </trkpt>
      <trkpt lat="45.13516" lon="5.54872">
        <ele>1081.8</ele>
        <time>2022-08-12T08:01:05.000Z</time>
      </trkpt>
      <trkpt lat="45.13516" lon="5.54873">
        <ele>1081.8</ele>
        <time>2022-08-12T08:01:06.000Z</time>
      </trkpt>
      <trkpt lat="45.13515" lon="5.54873">
        <ele>1082.1</ele>
        <time>2022-08-12T08:01:07.000Z</time>
      </trkpt>
      <trkpt lat="45.13515" lon="5.54875">
        <ele>1082.6</ele>
        <time>2022-08-12T08:01:08.000Z</time>
      </trkpt>
      <trkpt lat="45.13514" lon="5.54877">
        <ele>1083</ele>
        <time>2022-08-12T08:01:09.000Z</time>
      </trkpt>
      <trkpt lat="45.13513" lon="5.54878">
        <ele>1083.3</ele>
        <time>2022-08-12T08:01:10.000Z</time>
      </trkpt>
      <trkpt lat="45.13512" lon="5.54879">
        <ele>1083.5</ele>
        <time>2022-08-12T08:01:11.000Z</time>
      </trkpt>
      <trkpt lat="45.13511" lon="5.54879">
        <ele>1083.6</ele>
        <time>2022-08-12T08:01:12.000Z</time>
      </trkpt>
      <trkpt lat="45.1351" lon="5.54879">
        <ele>1083.6</ele>
        <time>2022-08-12T08:01:13.000Z</time>
      </trkpt>
      <trkpt lat="45.13509" lon="5.5488">
        <ele>1083.8</ele>
        <time>2022-08-12T08:01:14.000Z</time>
      </trkpt>
      <trkpt lat="45.13508" lon="5.5488">
        <ele>1083.7</ele>
        <time>2022-08-12T08:01:15.000Z</time>
      </trkpt>
      <trkpt lat="45.13507" lon="5.5488">
        <ele>1083.8</ele>
        <time>2022-08-12T08:01:17.000Z</time>
      </trkpt>
      <trkpt lat="45.13506" lon="5.54881">
        <ele>1083.9</ele>
        <time>2022-08-12T08:01:18.000Z</time>
      </trkpt>
      <trkpt lat="45.13505" lon="5.54883">
        <ele>1084.4</ele>
        <time>2022-08-12T08:01:19.000Z</time>
      </trkpt>
      <trkpt lat="45.13504" lon="5.54886">
        <ele>1085.3</ele>
        <time>2022-08-12T08:01:20.000Z</time>
      </trkpt>
      <trkpt lat="45.13503" lon="5.5489">
        <ele>1086.4</ele>
        <time>2022-08-12T08:01:21.000Z</time>
      </trkpt>
      <trkpt lat="45.13502" lon="5.54891">
        <ele>1086.9</ele>
        <time>2022-08-12T08:01:22.000Z</time>
      </trkpt>
      <trkpt lat="45.13501" lon="5.54892">
        <ele>1087</ele>
        <time>2022-08-12T08:01:23.000Z</time>
      </trkpt>
      <trkpt lat="45.135" lon="5.54892">
        <ele>1087.2</ele>
        <time>2022-08-12T08:01:24.000Z</time>
      </trkpt>
      <trkpt lat="45.13499" lon="5.54893">
        <ele>1087.3</ele>
        <time>2022-08-12T08:01:25.000Z</time>
      </trkpt>
      <trkpt lat="45.13498" lon="5.54894">
        <ele>1087.6</ele>
        <time>2022-08-12T08:01:26.000Z</time>
      </trkpt>
      <trkpt lat="45.13497" lon="5.54895">
        <ele>1087.8</ele>
        <time>2022-08-12T08:01:27.000Z</time>
      </trkpt>
      <trkpt lat="45.13496" lon="5.54896">
        <ele>1088.2</ele>
        <time>2022-08-12T08:01:30.000Z</time>
      </trkpt>
      <trkpt lat="45.13495" lon="5.54896">
        <ele>1088.2</ele>
        <time>2022-08-12T08:01:32.000Z</time>
      </trkpt>
      <trkpt lat="45.13493" lon="5.54897">
        <ele>1088.5</ele>
        <time>2022-08-12T08:01:33.000Z</time>
      </trkpt>
      <trkpt lat="45.13492" lon="5.54898">
        <ele>1088.6</ele>
        <time>2022-08-12T08:01:34.000Z</time>
      </trkpt>
      <trkpt lat="45.13491" lon="5.54899">
        <ele>1088.7</ele>
        <time>2022-08-12T08:01:35.000Z</time>
      </trkpt>
      <trkpt lat="45.1349" lon="5.549">
        <ele>1089</ele>
        <time>2022-08-12T08:01:36.000Z</time>
      </trkpt>
      <trkpt lat="45.13489" lon="5.549">
        <ele>1089.1</ele>
        <time>2022-08-12T08:01:37.000Z</time>
      </trkpt>
      <trkpt lat="45.13487" lon="5.54901">
        <ele>1089.2</ele>
        <time>2022-08-12T08:01:39.000Z</time>
      </trkpt>
      <trkpt lat="45.13486" lon="5.54901">
        <ele>1089.3</ele>
        <time>2022-08-12T08:01:41.000Z</time>
      </trkpt>
      <trkpt lat="45.13485" lon="5.54902">
        <ele>1089.3</ele>
        <time>2022-08-12T08:01:42.000Z</time>
      </trkpt>
      <trkpt lat="45.13483" lon="5.54902">
        <ele>1089.3</ele>
        <time>2022-08-12T08:01:43.000Z</time>
      </trkpt>
      <trkpt lat="45.13481" lon="5.54903">
        <ele>1089.3</ele>
        <time>2022-08-12T08:01:44.000Z</time>
      </trkpt>
      <trkpt lat="45.1348" lon="5.54904">
        <ele>1089.5</ele>
        <time>2022-08-12T08:01:45.000Z</time>
      </trkpt>
      <trkpt lat="45.13479" lon="5.54905">
        <ele>1089.8</ele>
        <time>2022-08-12T08:01:46.000Z</time>
      </trkpt>
      <trkpt lat="45.13477" lon="5.54906">
        <ele>1090</ele>
        <time>2022-08-12T08:01:47.000Z</time>
      </trkpt>
      <trkpt lat="45.13476" lon="5.54907">
        <ele>1090.1</ele>
        <time>2022-08-12T08:01:48.000Z</time>
      </trkpt>
      <trkpt lat="45.13475" lon="5.54907">
        <ele>1090.2</ele>
        <time>2022-08-12T08:01:49.000Z</time>
      </trkpt>
      <trkpt lat="45.13474" lon="5.54908">
        <ele>1090.3</ele>
        <time>2022-08-12T08:01:50.000Z</time>
      </trkpt>
      <trkpt lat="45.13472" lon="5.54909">
        <ele>1090.5</ele>
        <time>2022-08-12T08:01:51.000Z</time>
      </trkpt>
      <trkpt lat="45.13471" lon="5.5491">
        <ele>1090.8</ele>
        <time>2022-08-12T08:01:52.000Z</time>
      </trkpt>
      <trkpt lat="45.13469" lon="5.54913">
        <ele>1091.4</ele>
        <time>2022-08-12T08:01:53.000Z</time>
      </trkpt>
      <trkpt lat="45.13467" lon="5.54916">
        <ele>1092.1</ele>
        <time>2022-08-12T08:01:54.000Z</time>
      </trkpt>
      <trkpt lat="45.13466" lon="5.54917">
        <ele>1092.5</ele>
        <time>2022-08-12T08:01:55.000Z</time>
      </trkpt>
      <trkpt lat="45.13464" lon="5.54918">
        <ele>1092.7</ele>
        <time>2022-08-12T08:01:56.000Z</time>
      </trkpt>
      <trkpt lat="45.13463" lon="5.5492">
        <ele>1093</ele>
        <time>2022-08-12T08:01:57.000Z</time>
      </trkpt>
      <trkpt lat="45.13463" lon="5.54921">
        <ele>1093.2</ele>
        <time>2022-08-12T08:01:58.000Z</time>
      </trkpt>
      <trkpt lat="45.13462" lon="5.54922">
        <ele>1093.4</ele>
        <time>2022-08-12T08:01:59.000Z</time>
      </trkpt>
      <trkpt lat="45.13461" lon="5.54924">
        <ele>1093.9</ele>
        <time>2022-08-12T08:02:02.000Z</time>
      </trkpt>
      <trkpt lat="45.1346" lon="5.54926">
        <ele>1094.3</ele>
        <time>2022-08-12T08:02:03.000Z</time>
      </trkpt>
      <trkpt lat="45.13459" lon="5.54927">
        <ele>1094.5</ele>
        <time>2022-08-12T08:02:04.000Z</time>
      </trkpt>
      <trkpt lat="45.13457" lon="5.54928">
        <ele>1094.7</ele>
        <time>2022-08-12T08:02:05.000Z</time>
      </trkpt>
      <trkpt lat="45.13455" lon="5.54929">
        <ele>1094.6</ele>
        <time>2022-08-12T08:02:06.000Z</time>
      </trkpt>
      <trkpt lat="45.13454" lon="5.5493">
        <ele>1094.8</ele>
        <time>2022-08-12T08:02:07.000Z</time>
      </trkpt>
      <trkpt lat="45.13453" lon="5.54932">
        <ele>1095.3</ele>
        <time>2022-08-12T08:02:08.000Z</time>
      </trkpt>
      <trkpt lat="45.13452" lon="5.54934">
        <ele>1095.8</ele>
        <time>2022-08-12T08:02:09.000Z</time>
      </trkpt>
      <trkpt lat="45.13452" lon="5.54935">
        <ele>1096.2</ele>
        <time>2022-08-12T08:02:10.000Z</time>
      </trkpt>
      <trkpt lat="45.13453" lon="5.54938">
        <ele>1096.9</ele>
        <time>2022-08-12T08:02:11.000Z</time>
      </trkpt>
      <trkpt lat="45.13452" lon="5.54939">
        <ele>1097.4</ele>
        <time>2022-08-12T08:02:12.000Z</time>
      </trkpt>
      <trkpt lat="45.13452" lon="5.54941">
        <ele>1097.7</ele>
        <time>2022-08-12T08:02:13.000Z</time>
      </trkpt>
      <trkpt lat="45.13451" lon="5.54942">
        <ele>1098.2</ele>
        <time>2022-08-12T08:02:14.000Z</time>
      </trkpt>
      <trkpt lat="45.1345" lon="5.54944">
        <ele>1098.6</ele>
        <time>2022-08-12T08:02:15.000Z</time>
      </trkpt>
      <trkpt lat="45.13449" lon="5.54946">
        <ele>1098.9</ele>
        <time>2022-08-12T08:02:16.000Z</time>
      </trkpt>
      <trkpt lat="45.13448" lon="5.54948">
        <ele>1099.5</ele>
        <time>2022-08-12T08:02:17.000Z</time>
      </trkpt>
      <trkpt lat="45.13448" lon="5.5495">
        <ele>1100.1</ele>
        <time>2022-08-12T08:02:18.000Z</time>
      </trkpt>
      <trkpt lat="45.13447" lon="5.54952">
        <ele>1100.8</ele>
        <time>2022-08-12T08:02:19.000Z</time>
      </trkpt>
      <trkpt lat="45.13445" lon="5.54954">
        <ele>1101.2</ele>
        <time>2022-08-12T08:02:20.000Z</time>
      </trkpt>
      <trkpt lat="45.13444" lon="5.54956">
        <ele>1101.7</ele>
        <time>2022-08-12T08:02:21.000Z</time>
      </trkpt>
      <trkpt lat="45.13443" lon="5.54957">
        <ele>1102</ele>
        <time>2022-08-12T08:02:22.000Z</time>
      </trkpt>
      <trkpt lat="45.13441" lon="5.54957">
        <ele>1102.1</ele>
        <time>2022-08-12T08:02:23.000Z</time>
      </trkpt>
      <trkpt lat="45.1344" lon="5.54958">
        <ele>1102.1</ele>
        <time>2022-08-12T08:02:24.000Z</time>
      </trkpt>
      <trkpt lat="45.13439" lon="5.54959">
        <ele>1102.4</ele>
        <time>2022-08-12T08:02:25.000Z</time>
      </trkpt>
      <trkpt lat="45.13439" lon="5.5496">
        <ele>1102.7</ele>
        <time>2022-08-12T08:02:26.000Z</time>
      </trkpt>
      <trkpt lat="45.13438" lon="5.54961">
        <ele>1103</ele>
        <time>2022-08-12T08:02:27.000Z</time>
      </trkpt>
      <trkpt lat="45.13436" lon="5.54962">
        <ele>1103.3</ele>
        <time>2022-08-12T08:02:28.000Z</time>
      </trkpt>
      <trkpt lat="45.13433" lon="5.54963">
        <ele>1103.5</ele>
        <time>2022-08-12T08:02:29.000Z</time>
      </trkpt>
      <trkpt lat="45.13433" lon="5.54964">
        <ele>1103.6</ele>
        <time>2022-08-12T08:02:30.000Z</time>
      </trkpt>
      <trkpt lat="45.13432" lon="5.54964">
        <ele>1103.4</ele>
        <time>2022-08-12T08:02:31.000Z</time>
      </trkpt>
      <trkpt lat="45.13431" lon="5.54964">
        <ele>1103.5</ele>
        <time>2022-08-12T08:02:32.000Z</time>
      </trkpt>
      <trkpt lat="45.13429" lon="5.54965">
        <ele>1103.8</ele>
        <time>2022-08-12T08:02:33.000Z</time>
      </trkpt>
      <trkpt lat="45.13428" lon="5.54966">
        <ele>1103.9</ele>
        <time>2022-08-12T08:02:34.000Z</time>
      </trkpt>
      <trkpt lat="45.13427" lon="5.54967">
        <ele>1104.1</ele>
        <time>2022-08-12T08:02:35.000Z</time>
      </trkpt>
      <trkpt lat="45.13426" lon="5.54967">
        <ele>1104.1</ele>
        <time>2022-08-12T08:02:36.000Z</time>
      </trkpt>
      <trkpt lat="45.13425" lon="5.54967">
        <ele>1104</ele>
        <time>2022-08-12T08:02:37.000Z</time>
      </trkpt>
      <trkpt lat="45.13424" lon="5.54967">
        <ele>1104.1</ele>
        <time>2022-08-12T08:02:38.000Z</time>
      </trkpt>
      <trkpt lat="45.13422" lon="5.54968">
        <ele>1104.2</ele>
        <time>2022-08-12T08:02:39.000Z</time>
      </trkpt>
      <trkpt lat="45.13421" lon="5.5497">
        <ele>1104.7</ele>
        <time>2022-08-12T08:02:40.000Z</time>
      </trkpt>
      <trkpt lat="45.13419" lon="5.54971">
        <ele>1104.9</ele>
        <time>2022-08-12T08:02:41.000Z</time>
      </trkpt>
      <trkpt lat="45.13417" lon="5.54971">
        <ele>1104.7</ele>
        <time>2022-08-12T08:02:42.000Z</time>
      </trkpt>
      <trkpt lat="45.13415" lon="5.54971">
        <ele>1104.6</ele>
        <time>2022-08-12T08:02:43.000Z</time>
      </trkpt>
      <trkpt lat="45.13415" lon="5.54972">
        <ele>1104.8</ele>
        <time>2022-08-12T08:02:44.000Z</time>
      </trkpt>
      <trkpt lat="45.13414" lon="5.54973">
        <ele>1105.1</ele>
        <time>2022-08-12T08:02:45.000Z</time>
      </trkpt>
      <trkpt lat="45.13412" lon="5.54974">
        <ele>1105.4</ele>
        <time>2022-08-12T08:02:46.000Z</time>
      </trkpt>
      <trkpt lat="45.1341" lon="5.54974">
        <ele>1105.3</ele>
        <time>2022-08-12T08:02:47.000Z</time>
      </trkpt>
      <trkpt lat="45.13409" lon="5.54974">
        <ele>1105.2</ele>
        <time>2022-08-12T08:02:48.000Z</time>
      </trkpt>
      <trkpt lat="45.13407" lon="5.54973">
        <ele>1105</ele>
        <time>2022-08-12T08:02:49.000Z</time>
      </trkpt>
      <trkpt lat="45.13406" lon="5.54973">
        <ele>1105</ele>
        <time>2022-08-12T08:02:50.000Z</time>
      </trkpt>
      <trkpt lat="45.13404" lon="5.54974">
        <ele>1105.3</ele>
        <time>2022-08-12T08:02:51.000Z</time>
      </trkpt>
      <trkpt lat="45.13403" lon="5.54974">
        <ele>1105.2</ele>
        <time>2022-08-12T08:02:52.000Z</time>
      </trkpt>
      <trkpt lat="45.13402" lon="5.54973">
        <ele>1104.9</ele>
        <time>2022-08-12T08:02:53.000Z</time>
      </trkpt>
      <trkpt lat="45.13401" lon="5.54973">
        <ele>1104.8</ele>
        <time>2022-08-12T08:02:54.000Z</time>
      </trkpt>
      <trkpt lat="45.134" lon="5.54973">
        <ele>1104.8</ele>
        <time>2022-08-12T08:02:55.000Z</time>
      </trkpt>
      <trkpt lat="45.13398" lon="5.54975">
        <ele>1105.3</ele>
        <time>2022-08-12T08:02:56.000Z</time>
      </trkpt>
      <trkpt lat="45.13397" lon="5.54977">
        <ele>1105.9</ele>
        <time>2022-08-12T08:02:57.000Z</time>
      </trkpt>
      <trkpt lat="45.13397" lon="5.54978">
        <ele>1106.5</ele>
        <time>2022-08-12T08:02:58.000Z</time>
      </trkpt>
      <trkpt lat="45.13397" lon="5.54979">
        <ele>1106.6</ele>
        <time>2022-08-12T08:02:59.000Z</time>
      </trkpt>
      <trkpt lat="45.13395" lon="5.54978">
        <ele>1106.4</ele>
        <time>2022-08-12T08:03:00.000Z</time>
      </trkpt>
      <trkpt lat="45.13395" lon="5.54981">
        <ele>1107.3</ele>
        <time>2022-08-12T08:03:01.000Z</time>
      </trkpt>
      <trkpt lat="45.13394" lon="5.54984">
        <ele>1108.4</ele>
        <time>2022-08-12T08:03:02.000Z</time>
      </trkpt>
      <trkpt lat="45.13393" lon="5.54985">
        <ele>1108.8</ele>
        <time>2022-08-12T08:03:03.000Z</time>
      </trkpt>
      <trkpt lat="45.13392" lon="5.54986">
        <ele>1109.2</ele>
        <time>2022-08-12T08:03:04.000Z</time>
      </trkpt>
      <trkpt lat="45.1339" lon="5.54987">
        <ele>1109.3</ele>
        <time>2022-08-12T08:03:05.000Z</time>
      </trkpt>
      <trkpt lat="45.13389" lon="5.54987">
        <ele>1109.3</ele>
        <time>2022-08-12T08:03:07.000Z</time>
      </trkpt>
      <trkpt lat="45.13388" lon="5.54987">
        <ele>1109.3</ele>
        <time>2022-08-12T08:03:08.000Z</time>
      </trkpt>
      <trkpt lat="45.13387" lon="5.54987">
        <ele>1109.3</ele>
        <time>2022-08-12T08:03:10.000Z</time>
      </trkpt>
      <trkpt lat="45.13386" lon="5.54987">
        <ele>1109.3</ele>
        <time>2022-08-12T08:03:11.000Z</time>
      </trkpt>
      <trkpt lat="45.13385" lon="5.54988">
        <ele>1109.5</ele>
        <time>2022-08-12T08:03:12.000Z</time>
      </trkpt>
      <trkpt lat="45.13383" lon="5.54988">
        <ele>1109.5</ele>
        <time>2022-08-12T08:03:13.000Z</time>
      </trkpt>
      <trkpt lat="45.13382" lon="5.54988">
        <ele>1109.6</ele>
        <time>2022-08-12T08:03:14.000Z</time>
      </trkpt>
      <trkpt lat="45.13382" lon="5.54989">
        <ele>1110</ele>
        <time>2022-08-12T08:03:15.000Z</time>
      </trkpt>
      <trkpt lat="45.13381" lon="5.54989">
        <ele>1109.9</ele>
        <time>2022-08-12T08:03:16.000Z</time>
      </trkpt>
      <trkpt lat="45.1338" lon="5.54989">
        <ele>1110</ele>
        <time>2022-08-12T08:03:17.000Z</time>
      </trkpt>
      <trkpt lat="45.13379" lon="5.5499">
        <ele>1110.4</ele>
        <time>2022-08-12T08:03:18.000Z</time>
      </trkpt>
      <trkpt lat="45.13378" lon="5.5499">
        <ele>1110.5</ele>
        <time>2022-08-12T08:03:19.000Z</time>
      </trkpt>
      <trkpt lat="45.13376" lon="5.54991">
        <ele>1110.6</ele>
        <time>2022-08-12T08:03:20.000Z</time>
      </trkpt>
      <trkpt lat="45.13375" lon="5.5499">
        <ele>1110.5</ele>
        <time>2022-08-12T08:03:21.000Z</time>
      </trkpt>
      <trkpt lat="45.13374" lon="5.5499">
        <ele>1110.3</ele>
        <time>2022-08-12T08:03:22.000Z</time>
      </trkpt>
      <trkpt lat="45.13373" lon="5.54989">
        <ele>1110.1</ele>
        <time>2022-08-12T08:03:23.000Z</time>
      </trkpt>
      <trkpt lat="45.13372" lon="5.54989">
        <ele>1110</ele>
        <time>2022-08-12T08:03:24.000Z</time>
      </trkpt>
      <trkpt lat="45.1337" lon="5.54989">
        <ele>1110.1</ele>
        <time>2022-08-12T08:03:25.000Z</time>
      </trkpt>
      <trkpt lat="45.13369" lon="5.5499">
        <ele>1110.3</ele>
        <time>2022-08-12T08:03:27.000Z</time>
      </trkpt>
      <trkpt lat="45.13368" lon="5.54991">
        <ele>1110.6</ele>
        <time>2022-08-12T08:03:31.000Z</time>
      </trkpt>
      <trkpt lat="45.13368" lon="5.5499">
        <ele>1110.5</ele>
        <time>2022-08-12T08:03:32.000Z</time>
      </trkpt>
      <trkpt lat="45.13368" lon="5.54991">
        <ele>1110.6</ele>
        <time>2022-08-12T08:03:33.000Z</time>
      </trkpt>
      <trkpt lat="45.13367" lon="5.54991">
        <ele>1110.6</ele>
        <time>2022-08-12T08:03:34.000Z</time>
      </trkpt>
      <trkpt lat="45.13366" lon="5.54991">
        <ele>1110.9</ele>
        <time>2022-08-12T08:03:35.000Z</time>
      </trkpt>
      <trkpt lat="45.13364" lon="5.54992">
        <ele>1111.3</ele>
        <time>2022-08-12T08:03:36.000Z</time>
      </trkpt>
      <trkpt lat="45.13362" lon="5.54993">
        <ele>1111.6</ele>
        <time>2022-08-12T08:03:37.000Z</time>
      </trkpt>
      <trkpt lat="45.1336" lon="5.54994">
        <ele>1112</ele>
        <time>2022-08-12T08:03:38.000Z</time>
      </trkpt>
      <trkpt lat="45.13358" lon="5.54995">
        <ele>1112.3</ele>
        <time>2022-08-12T08:03:39.000Z</time>
      </trkpt>
      <trkpt lat="45.13357" lon="5.54996">
        <ele>1112.6</ele>
        <time>2022-08-12T08:03:40.000Z</time>
      </trkpt>
      <trkpt lat="45.13356" lon="5.54996">
        <ele>1112.7</ele>
        <time>2022-08-12T08:03:41.000Z</time>
      </trkpt>
      <trkpt lat="45.13355" lon="5.54997">
        <ele>1112.8</ele>
        <time>2022-08-12T08:03:42.000Z</time>
      </trkpt>
      <trkpt lat="45.13354" lon="5.54997">
        <ele>1113.1</ele>
        <time>2022-08-12T08:03:43.000Z</time>
      </trkpt>
      <trkpt lat="45.13353" lon="5.54998">
        <ele>1113.2</ele>
        <time>2022-08-12T08:03:44.000Z</time>
      </trkpt>
      <trkpt lat="45.13351" lon="5.54999">
        <ele>1113.5</ele>
        <time>2022-08-12T08:03:45.000Z</time>
      </trkpt>
      <trkpt lat="45.1335" lon="5.55">
        <ele>1113.8</ele>
        <time>2022-08-12T08:03:47.000Z</time>
      </trkpt>
      <trkpt lat="45.13349" lon="5.55">
        <ele>1114.1</ele>
        <time>2022-08-12T08:03:48.000Z</time>
      </trkpt>
      <trkpt lat="45.13347" lon="5.55001">
        <ele>1114.4</ele>
        <time>2022-08-12T08:03:49.000Z</time>
      </trkpt>
      <trkpt lat="45.13345" lon="5.55002">
        <ele>1114.6</ele>
        <time>2022-08-12T08:03:50.000Z</time>
      </trkpt>
      <trkpt lat="45.13343" lon="5.55002">
        <ele>1114.6</ele>
        <time>2022-08-12T08:03:51.000Z</time>
      </trkpt>
      <trkpt lat="45.13342" lon="5.55001">
        <ele>1114.5</ele>
        <time>2022-08-12T08:03:52.000Z</time>
      </trkpt>
      <trkpt lat="45.13341" lon="5.55002">
        <ele>1114.7</ele>
        <time>2022-08-12T08:03:53.000Z</time>
      </trkpt>
      <trkpt lat="45.1334" lon="5.55003">
        <ele>1115.1</ele>
        <time>2022-08-12T08:03:54.000Z</time>
      </trkpt>
      <trkpt lat="45.13339" lon="5.55003">
        <ele>1115.2</ele>
        <time>2022-08-12T08:03:55.000Z</time>
      </trkpt>
      <trkpt lat="45.13336" lon="5.55003">
        <ele>1115.3</ele>
        <time>2022-08-12T08:03:56.000Z</time>
      </trkpt>
      <trkpt lat="45.13334" lon="5.55004">
        <ele>1115.7</ele>
        <time>2022-08-12T08:03:57.000Z</time>
      </trkpt>
      <trkpt lat="45.13333" lon="5.55005">
        <ele>1116.1</ele>
        <time>2022-08-12T08:03:58.000Z</time>
      </trkpt>
      <trkpt lat="45.13331" lon="5.55006">
        <ele>1116.5</ele>
        <time>2022-08-12T08:03:59.000Z</time>
      </trkpt>
      <trkpt lat="45.13329" lon="5.55008">
        <ele>1117.2</ele>
        <time>2022-08-12T08:04:00.000Z</time>
      </trkpt>
      <trkpt lat="45.13327" lon="5.55009">
        <ele>1117.8</ele>
        <time>2022-08-12T08:04:01.000Z</time>
      </trkpt>
      <trkpt lat="45.13326" lon="5.5501">
        <ele>1118</ele>
        <time>2022-08-12T08:04:02.000Z</time>
      </trkpt>
      <trkpt lat="45.13324" lon="5.55009">
        <ele>1117.9</ele>
        <time>2022-08-12T08:04:03.000Z</time>
      </trkpt>
      <trkpt lat="45.13323" lon="5.55009">
        <ele>1118</ele>
        <time>2022-08-12T08:04:04.000Z</time>
      </trkpt>
      <trkpt lat="45.13321" lon="5.5501">
        <ele>1118.1</ele>
        <time>2022-08-12T08:04:05.000Z</time>
      </trkpt>
      <trkpt lat="45.1332" lon="5.5501">
        <ele>1118.2</ele>
        <time>2022-08-12T08:04:06.000Z</time>
      </trkpt>
      <trkpt lat="45.13318" lon="5.5501">
        <ele>1118.4</ele>
        <time>2022-08-12T08:04:07.000Z</time>
      </trkpt>
      <trkpt lat="45.13317" lon="5.55012">
        <ele>1119.2</ele>
        <time>2022-08-12T08:04:08.000Z</time>
      </trkpt>
      <trkpt lat="45.13316" lon="5.55014">
        <ele>1119.8</ele>
        <time>2022-08-12T08:04:09.000Z</time>
      </trkpt>
      <trkpt lat="45.13314" lon="5.55015">
        <ele>1120.2</ele>
        <time>2022-08-12T08:04:10.000Z</time>
      </trkpt>
      <trkpt lat="45.13311" lon="5.55014">
        <ele>1120.1</ele>
        <time>2022-08-12T08:04:11.000Z</time>
      </trkpt>
      <trkpt lat="45.13309" lon="5.55014">
        <ele>1119.9</ele>
        <time>2022-08-12T08:04:12.000Z</time>
      </trkpt>
      <trkpt lat="45.13308" lon="5.55013">
        <ele>1119.7</ele>
        <time>2022-08-12T08:04:13.000Z</time>
      </trkpt>
      <trkpt lat="45.13307" lon="5.55014">
        <ele>1120</ele>
        <time>2022-08-12T08:04:14.000Z</time>
      </trkpt>
      <trkpt lat="45.13306" lon="5.55016">
        <ele>1120.6</ele>
        <time>2022-08-12T08:04:15.000Z</time>
      </trkpt>
      <trkpt lat="45.13304" lon="5.55017">
        <ele>1121.1</ele>
        <time>2022-08-12T08:04:16.000Z</time>
      </trkpt>
      <trkpt lat="45.13305" lon="5.55018">
        <ele>1121.4</ele>
        <time>2022-08-12T08:04:17.000Z</time>
      </trkpt>
      <trkpt lat="45.13304" lon="5.55019">
        <ele>1121.9</ele>
        <time>2022-08-12T08:04:18.000Z</time>
      </trkpt>
      <trkpt lat="45.13303" lon="5.5502">
        <ele>1122.3</ele>
        <time>2022-08-12T08:04:19.000Z</time>
      </trkpt>
      <trkpt lat="45.13302" lon="5.55019">
        <ele>1122.3</ele>
        <time>2022-08-12T08:04:20.000Z</time>
      </trkpt>
      <trkpt lat="45.13301" lon="5.55019">
        <ele>1122.4</ele>
        <time>2022-08-12T08:04:21.000Z</time>
      </trkpt>
      <trkpt lat="45.133" lon="5.55019">
        <ele>1122.6</ele>
        <time>2022-08-12T08:04:22.000Z</time>
      </trkpt>
      <trkpt lat="45.13298" lon="5.5502">
        <ele>1122.8</ele>
        <time>2022-08-12T08:04:23.000Z</time>
      </trkpt>
      <trkpt lat="45.13297" lon="5.5502">
        <ele>1123.2</ele>
        <time>2022-08-12T08:04:24.000Z</time>
      </trkpt>
      <trkpt lat="45.13295" lon="5.55021">
        <ele>1123.7</ele>
        <time>2022-08-12T08:04:25.000Z</time>
      </trkpt>
      <trkpt lat="45.13294" lon="5.55022">
        <ele>1124.1</ele>
        <time>2022-08-12T08:04:26.000Z</time>
      </trkpt>
      <trkpt lat="45.13293" lon="5.55022">
        <ele>1124.4</ele>
        <time>2022-08-12T08:04:27.000Z</time>
      </trkpt>
      <trkpt lat="45.13292" lon="5.55023">
        <ele>1124.7</ele>
        <time>2022-08-12T08:04:28.000Z</time>
      </trkpt>
      <trkpt lat="45.13291" lon="5.55023">
        <ele>1124.8</ele>
        <time>2022-08-12T08:04:29.000Z</time>
      </trkpt>
      <trkpt lat="45.1329" lon="5.55023">
        <ele>1124.9</ele>
        <time>2022-08-12T08:04:31.000Z</time>
      </trkpt>
      <trkpt lat="45.13289" lon="5.55023">
        <ele>1125.2</ele>
        <time>2022-08-12T08:04:32.000Z</time>
      </trkpt>
      <trkpt lat="45.13287" lon="5.55024">
        <ele>1125.6</ele>
        <time>2022-08-12T08:04:33.000Z</time>
      </trkpt>
      <trkpt lat="45.13286" lon="5.55024">
        <ele>1125.9</ele>
        <time>2022-08-12T08:04:34.000Z</time>
      </trkpt>
      <trkpt lat="45.13285" lon="5.55025">
        <ele>1126.1</ele>
        <time>2022-08-12T08:04:35.000Z</time>
      </trkpt>
      <trkpt lat="45.13284" lon="5.55024">
        <ele>1126.1</ele>
        <time>2022-08-12T08:04:36.000Z</time>
      </trkpt>
      <trkpt lat="45.13281" lon="5.55024">
        <ele>1126.2</ele>
        <time>2022-08-12T08:04:37.000Z</time>
      </trkpt>
      <trkpt lat="45.1328" lon="5.55025">
        <ele>1126.6</ele>
        <time>2022-08-12T08:04:38.000Z</time>
      </trkpt>
      <trkpt lat="45.13279" lon="5.55026">
        <ele>1127.1</ele>
        <time>2022-08-12T08:04:39.000Z</time>
      </trkpt>
      <trkpt lat="45.13277" lon="5.55026">
        <ele>1127.6</ele>
        <time>2022-08-12T08:04:40.000Z</time>
      </trkpt>
      <trkpt lat="45.13277" lon="5.55027">
        <ele>1127.8</ele>
        <time>2022-08-12T08:04:41.000Z</time>
      </trkpt>
      <trkpt lat="45.13277" lon="5.55028">
        <ele>1128.4</ele>
        <time>2022-08-12T08:04:42.000Z</time>
      </trkpt>
      <trkpt lat="45.13276" lon="5.5503">
        <ele>1129.1</ele>
        <time>2022-08-12T08:04:43.000Z</time>
      </trkpt>
      <trkpt lat="45.13274" lon="5.55031">
        <ele>1130</ele>
        <time>2022-08-12T08:04:45.000Z</time>
      </trkpt>
      <trkpt lat="45.13272" lon="5.55031">
        <ele>1130.7</ele>
        <time>2022-08-12T08:04:46.000Z</time>
      </trkpt>
      <trkpt lat="45.13271" lon="5.55032">
        <ele>1131.2</ele>
        <time>2022-08-12T08:04:49.000Z</time>
      </trkpt>
      <trkpt lat="45.13269" lon="5.55032">
        <ele>1131.7</ele>
        <time>2022-08-12T08:04:50.000Z</time>
      </trkpt>
      <trkpt lat="45.13268" lon="5.55033">
        <ele>1132.3</ele>
        <time>2022-08-12T08:04:51.000Z</time>
      </trkpt>
      <trkpt lat="45.13267" lon="5.55033">
        <ele>1132.8</ele>
        <time>2022-08-12T08:04:52.000Z</time>
      </trkpt>
      <trkpt lat="45.13266" lon="5.55033">
        <ele>1133.1</ele>
        <time>2022-08-12T08:04:53.000Z</time>
      </trkpt>
      <trkpt lat="45.13266" lon="5.55034">
        <ele>1133.3</ele>
        <time>2022-08-12T08:04:54.000Z</time>
      </trkpt>
      <trkpt lat="45.13265" lon="5.55034">
        <ele>1133.5</ele>
        <time>2022-08-12T08:04:55.000Z</time>
      </trkpt>
      <trkpt lat="45.13264" lon="5.55034">
        <ele>1133.8</ele>
        <time>2022-08-12T08:04:57.000Z</time>
      </trkpt>
      <trkpt lat="45.13262" lon="5.55034">
        <ele>1134.2</ele>
        <time>2022-08-12T08:04:58.000Z</time>
      </trkpt>
      <trkpt lat="45.1326" lon="5.55033">
        <ele>1134.5</ele>
        <time>2022-08-12T08:04:59.000Z</time>
      </trkpt>
      <trkpt lat="45.13258" lon="5.55033">
        <ele>1134.8</ele>
        <time>2022-08-12T08:05:00.000Z</time>
      </trkpt>
      <trkpt lat="45.13257" lon="5.55033">
        <ele>1135</ele>
        <time>2022-08-12T08:05:01.000Z</time>
      </trkpt>
      <trkpt lat="45.13255" lon="5.55032">
        <ele>1135.3</ele>
        <time>2022-08-12T08:05:02.000Z</time>
      </trkpt>
      <trkpt lat="45.13254" lon="5.55032">
        <ele>1135.6</ele>
        <time>2022-08-12T08:05:03.000Z</time>
      </trkpt>
      <trkpt lat="45.13252" lon="5.55032">
        <ele>1135.8</ele>
        <time>2022-08-12T08:05:04.000Z</time>
      </trkpt>
      <trkpt lat="45.13251" lon="5.55031">
        <ele>1136.1</ele>
        <time>2022-08-12T08:05:05.000Z</time>
      </trkpt>
      <trkpt lat="45.1325" lon="5.55031">
        <ele>1136.1</ele>
        <time>2022-08-12T08:05:06.000Z</time>
      </trkpt>
      <trkpt lat="45.13248" lon="5.5503">
        <ele>1136.5</ele>
        <time>2022-08-12T08:05:07.000Z</time>
      </trkpt>
      <trkpt lat="45.13246" lon="5.55031">
        <ele>1137.1</ele>
        <time>2022-08-12T08:05:08.000Z</time>
      </trkpt>
      <trkpt lat="45.13245" lon="5.55031">
        <ele>1137.8</ele>
        <time>2022-08-12T08:05:09.000Z</time>
      </trkpt>
      <trkpt lat="45.13244" lon="5.55031">
        <ele>1138</ele>
        <time>2022-08-12T08:05:10.000Z</time>
      </trkpt>
      <trkpt lat="45.13242" lon="5.55031">
        <ele>1138.5</ele>
        <time>2022-08-12T08:05:11.000Z</time>
      </trkpt>
      <trkpt lat="45.13241" lon="5.55032">
        <ele>1139.1</ele>
        <time>2022-08-12T08:05:12.000Z</time>
      </trkpt>
      <trkpt lat="45.13239" lon="5.55032">
        <ele>1139.8</ele>
        <time>2022-08-12T08:05:13.000Z</time>
      </trkpt>
      <trkpt lat="45.13238" lon="5.55032">
        <ele>1140.3</ele>
        <time>2022-08-12T08:05:14.000Z</time>
      </trkpt>
      <trkpt lat="45.13236" lon="5.55032">
        <ele>1140.4</ele>
        <time>2022-08-12T08:05:15.000Z</time>
      </trkpt>
      <trkpt lat="45.13235" lon="5.55031">
        <ele>1140.6</ele>
        <time>2022-08-12T08:05:16.000Z</time>
      </trkpt>
      <trkpt lat="45.13234" lon="5.55031">
        <ele>1140.9</ele>
        <time>2022-08-12T08:05:17.000Z</time>
      </trkpt>
      <trkpt lat="45.13233" lon="5.55032">
        <ele>1141.4</ele>
        <time>2022-08-12T08:05:18.000Z</time>
      </trkpt>
      <trkpt lat="45.13231" lon="5.55031">
        <ele>1141.7</ele>
        <time>2022-08-12T08:05:19.000Z</time>
      </trkpt>
      <trkpt lat="45.13227" lon="5.55031">
        <ele>1142.6</ele>
        <time>2022-08-12T08:05:20.000Z</time>
      </trkpt>
      <trkpt lat="45.13226" lon="5.5503">
        <ele>1142.7</ele>
        <time>2022-08-12T08:05:21.000Z</time>
      </trkpt>
      <trkpt lat="45.13225" lon="5.5503">
        <ele>1142.8</ele>
        <time>2022-08-12T08:05:23.000Z</time>
      </trkpt>
      <trkpt lat="45.13224" lon="5.5503">
        <ele>1143.2</ele>
        <time>2022-08-12T08:05:25.000Z</time>
      </trkpt>
      <trkpt lat="45.13222" lon="5.55029">
        <ele>1143.5</ele>
        <time>2022-08-12T08:05:26.000Z</time>
      </trkpt>
      <trkpt lat="45.13221" lon="5.55029">
        <ele>1143.8</ele>
        <time>2022-08-12T08:05:27.000Z</time>
      </trkpt>
      <trkpt lat="45.1322" lon="5.55028">
        <ele>1143.9</ele>
        <time>2022-08-12T08:05:28.000Z</time>
      </trkpt>
      <trkpt lat="45.13218" lon="5.55026">
        <ele>1143.9</ele>
        <time>2022-08-12T08:05:29.000Z</time>
      </trkpt>
      <trkpt lat="45.13217" lon="5.55026">
        <ele>1143.9</ele>
        <time>2022-08-12T08:05:30.000Z</time>
      </trkpt>
      <trkpt lat="45.13217" lon="5.55025">
        <ele>1144</ele>
        <time>2022-08-12T08:05:31.000Z</time>
      </trkpt>
      <trkpt lat="45.13215" lon="5.55024">
        <ele>1144.2</ele>
        <time>2022-08-12T08:05:33.000Z</time>
      </trkpt>
      <trkpt lat="45.13213" lon="5.55023">
        <ele>1144.4</ele>
        <time>2022-08-12T08:05:34.000Z</time>
      </trkpt>
      <trkpt lat="45.13211" lon="5.55021">
        <ele>1144.3</ele>
        <time>2022-08-12T08:05:35.000Z</time>
      </trkpt>
      <trkpt lat="45.1321" lon="5.5502">
        <ele>1144.2</ele>
        <time>2022-08-12T08:05:36.000Z</time>
      </trkpt>
      <trkpt lat="45.13209" lon="5.55018">
        <ele>1144</ele>
        <time>2022-08-12T08:05:37.000Z</time>
      </trkpt>
      <trkpt lat="45.13208" lon="5.55017">
        <ele>1143.8</ele>
        <time>2022-08-12T08:05:40.000Z</time>
      </trkpt>
      <trkpt lat="45.13207" lon="5.55016">
        <ele>1143.8</ele>
        <time>2022-08-12T08:05:41.000Z</time>
      </trkpt>
      <trkpt lat="45.13206" lon="5.55015">
        <ele>1143.9</ele>
        <time>2022-08-12T08:05:42.000Z</time>
      </trkpt>
      <trkpt lat="45.13204" lon="5.55014">
        <ele>1144</ele>
        <time>2022-08-12T08:05:43.000Z</time>
      </trkpt>
      <trkpt lat="45.13204" lon="5.55013">
        <ele>1143.7</ele>
        <time>2022-08-12T08:05:44.000Z</time>
      </trkpt>
      <trkpt lat="45.13203" lon="5.55011">
        <ele>1143.4</ele>
        <time>2022-08-12T08:05:45.000Z</time>
      </trkpt>
      <trkpt lat="45.13202" lon="5.5501">
        <ele>1143.2</ele>
        <time>2022-08-12T08:05:46.000Z</time>
      </trkpt>
      <trkpt lat="45.13201" lon="5.55009">
        <ele>1143.1</ele>
        <time>2022-08-12T08:05:47.000Z</time>
      </trkpt>
      <trkpt lat="45.13201" lon="5.55008">
        <ele>1143</ele>
        <time>2022-08-12T08:05:48.000Z</time>
      </trkpt>
      <trkpt lat="45.132" lon="5.55007">
        <ele>1142.8</ele>
        <time>2022-08-12T08:05:50.000Z</time>
      </trkpt>
      <trkpt lat="45.132" lon="5.55006">
        <ele>1142.6</ele>
        <time>2022-08-12T08:05:51.000Z</time>
      </trkpt>
      <trkpt lat="45.13198" lon="5.55004">
        <ele>1142.5</ele>
        <time>2022-08-12T08:05:52.000Z</time>
      </trkpt>
      <trkpt lat="45.13197" lon="5.55002">
        <ele>1142.1</ele>
        <time>2022-08-12T08:05:53.000Z</time>
      </trkpt>
      <trkpt lat="45.13196" lon="5.55001">
        <ele>1141.8</ele>
        <time>2022-08-12T08:05:54.000Z</time>
      </trkpt>
      <trkpt lat="45.13195" lon="5.55">
        <ele>1141.7</ele>
        <time>2022-08-12T08:05:55.000Z</time>
      </trkpt>
      <trkpt lat="45.13194" lon="5.54999">
        <ele>1141.7</ele>
        <time>2022-08-12T08:05:56.000Z</time>
      </trkpt>
      <trkpt lat="45.13193" lon="5.54999">
        <ele>1141.9</ele>
        <time>2022-08-12T08:05:57.000Z</time>
      </trkpt>
      <trkpt lat="45.13192" lon="5.54999">
        <ele>1142.3</ele>
        <time>2022-08-12T08:05:58.000Z</time>
      </trkpt>
      <trkpt lat="45.13191" lon="5.54998">
        <ele>1142.3</ele>
        <time>2022-08-12T08:05:59.000Z</time>
      </trkpt>
      <trkpt lat="45.1319" lon="5.54998">
        <ele>1142.3</ele>
        <time>2022-08-12T08:06:00.000Z</time>
      </trkpt>
      <trkpt lat="45.13189" lon="5.54997">
        <ele>1142</ele>
        <time>2022-08-12T08:06:01.000Z</time>
      </trkpt>
      <trkpt lat="45.13189" lon="5.54994">
        <ele>1141.4</ele>
        <time>2022-08-12T08:06:02.000Z</time>
      </trkpt>
      <trkpt lat="45.13188" lon="5.54993">
        <ele>1141.1</ele>
        <time>2022-08-12T08:06:03.000Z</time>
      </trkpt>
      <trkpt lat="45.13187" lon="5.54992">
        <ele>1141</ele>
        <time>2022-08-12T08:06:04.000Z</time>
      </trkpt>
      <trkpt lat="45.13186" lon="5.54991">
        <ele>1140.9</ele>
        <time>2022-08-12T08:06:05.000Z</time>
      </trkpt>
      <trkpt lat="45.13184" lon="5.5499">
        <ele>1140.8</ele>
        <time>2022-08-12T08:06:06.000Z</time>
      </trkpt>
      <trkpt lat="45.13184" lon="5.54988">
        <ele>1140.2</ele>
        <time>2022-08-12T08:06:07.000Z</time>
      </trkpt>
      <trkpt lat="45.13183" lon="5.54986">
        <ele>1139.6</ele>
        <time>2022-08-12T08:06:08.000Z</time>
      </trkpt>
      <trkpt lat="45.13181" lon="5.54985">
        <ele>1139.6</ele>
        <time>2022-08-12T08:06:09.000Z</time>
      </trkpt>
      <trkpt lat="45.13179" lon="5.54983">
        <ele>1139.5</ele>
        <time>2022-08-12T08:06:10.000Z</time>
      </trkpt>
      <trkpt lat="45.13177" lon="5.54982">
        <ele>1139.4</ele>
        <time>2022-08-12T08:06:11.000Z</time>
      </trkpt>
      <trkpt lat="45.13176" lon="5.54982">
        <ele>1139.5</ele>
        <time>2022-08-12T08:06:12.000Z</time>
      </trkpt>
      <trkpt lat="45.13175" lon="5.54983">
        <ele>1140.1</ele>
        <time>2022-08-12T08:06:13.000Z</time>
      </trkpt>
      <trkpt lat="45.13174" lon="5.54983">
        <ele>1140.7</ele>
        <time>2022-08-12T08:06:14.000Z</time>
      </trkpt>
      <trkpt lat="45.13172" lon="5.54984">
        <ele>1141.5</ele>
        <time>2022-08-12T08:06:15.000Z</time>
      </trkpt>
      <trkpt lat="45.1317" lon="5.54983">
        <ele>1141.4</ele>
        <time>2022-08-12T08:06:16.000Z</time>
      </trkpt>
      <trkpt lat="45.13168" lon="5.54982">
        <ele>1141.3</ele>
        <time>2022-08-12T08:06:17.000Z</time>
      </trkpt>
      <trkpt lat="45.13167" lon="5.54981">
        <ele>1141.5</ele>
        <time>2022-08-12T08:06:18.000Z</time>
      </trkpt>
      <trkpt lat="45.13166" lon="5.54981">
        <ele>1141.4</ele>
        <time>2022-08-12T08:06:20.000Z</time>
      </trkpt>
      <trkpt lat="45.13165" lon="5.5498">
        <ele>1141.4</ele>
        <time>2022-08-12T08:06:21.000Z</time>
      </trkpt>
      <trkpt lat="45.13163" lon="5.5498">
        <ele>1141.7</ele>
        <time>2022-08-12T08:06:22.000Z</time>
      </trkpt>
      <trkpt lat="45.13161" lon="5.5498">
        <ele>1142</ele>
        <time>2022-08-12T08:06:23.000Z</time>
      </trkpt>
      <trkpt lat="45.1316" lon="5.5498">
        <ele>1142.2</ele>
        <time>2022-08-12T08:06:24.000Z</time>
      </trkpt>
      <trkpt lat="45.13159" lon="5.54979">
        <ele>1142.2</ele>
        <time>2022-08-12T08:06:25.000Z</time>
      </trkpt>
      <trkpt lat="45.13158" lon="5.54978">
        <ele>1142.2</ele>
        <time>2022-08-12T08:06:26.000Z</time>
      </trkpt>
      <trkpt lat="45.13157" lon="5.54978">
        <ele>1142.2</ele>
        <time>2022-08-12T08:06:27.000Z</time>
      </trkpt>
      <trkpt lat="45.13156" lon="5.54978">
        <ele>1142.4</ele>
        <time>2022-08-12T08:06:28.000Z</time>
      </trkpt>
      <trkpt lat="45.13155" lon="5.54977">
        <ele>1142.3</ele>
        <time>2022-08-12T08:06:29.000Z</time>
      </trkpt>
      <trkpt lat="45.13154" lon="5.54976">
        <ele>1142.3</ele>
        <time>2022-08-12T08:06:30.000Z</time>
      </trkpt>
      <trkpt lat="45.13153" lon="5.54976">
        <ele>1142.2</ele>
        <time>2022-08-12T08:06:31.000Z</time>
      </trkpt>
      <trkpt lat="45.13152" lon="5.54975">
        <ele>1142.1</ele>
        <time>2022-08-12T08:06:32.000Z</time>
      </trkpt>
      <trkpt lat="45.13151" lon="5.54974">
        <ele>1142.1</ele>
        <time>2022-08-12T08:06:33.000Z</time>
      </trkpt>
      <trkpt lat="45.1315" lon="5.54974">
        <ele>1142.1</ele>
        <time>2022-08-12T08:06:34.000Z</time>
      </trkpt>
      <trkpt lat="45.13149" lon="5.54973">
        <ele>1142.2</ele>
        <time>2022-08-12T08:06:35.000Z</time>
      </trkpt>
      <trkpt lat="45.13148" lon="5.54973">
        <ele>1142.4</ele>
        <time>2022-08-12T08:06:36.000Z</time>
      </trkpt>
      <trkpt lat="45.13147" lon="5.54973">
        <ele>1142.8</ele>
        <time>2022-08-12T08:06:37.000Z</time>
      </trkpt>
      <trkpt lat="45.13145" lon="5.54973">
        <ele>1143</ele>
        <time>2022-08-12T08:06:38.000Z</time>
      </trkpt>
      <trkpt lat="45.13144" lon="5.54973">
        <ele>1143</ele>
        <time>2022-08-12T08:06:39.000Z</time>
      </trkpt>
      <trkpt lat="45.13143" lon="5.54972">
        <ele>1143.1</ele>
        <time>2022-08-12T08:06:40.000Z</time>
      </trkpt>
      <trkpt lat="45.13142" lon="5.54972">
        <ele>1143.1</ele>
        <time>2022-08-12T08:06:41.000Z</time>
      </trkpt>
      <trkpt lat="45.13141" lon="5.54971">
        <ele>1143</ele>
        <time>2022-08-12T08:06:42.000Z</time>
      </trkpt>
      <trkpt lat="45.1314" lon="5.54971">
        <ele>1143.2</ele>
        <time>2022-08-12T08:06:43.000Z</time>
      </trkpt>
      <trkpt lat="45.13139" lon="5.5497">
        <ele>1143</ele>
        <time>2022-08-12T08:06:44.000Z</time>
      </trkpt>
      <trkpt lat="45.13138" lon="5.54969">
        <ele>1142.8</ele>
        <time>2022-08-12T08:06:45.000Z</time>
      </trkpt>
      <trkpt lat="45.13137" lon="5.54968">
        <ele>1142.6</ele>
        <time>2022-08-12T08:06:46.000Z</time>
      </trkpt>
      <trkpt lat="45.13136" lon="5.54967">
        <ele>1142.4</ele>
        <time>2022-08-12T08:06:47.000Z</time>
      </trkpt>
      <trkpt lat="45.13134" lon="5.54966">
        <ele>1142.1</ele>
        <time>2022-08-12T08:06:48.000Z</time>
      </trkpt>
      <trkpt lat="45.13133" lon="5.54965">
        <ele>1141.8</ele>
        <time>2022-08-12T08:06:49.000Z</time>
      </trkpt>
      <trkpt lat="45.13133" lon="5.54963">
        <ele>1141.4</ele>
        <time>2022-08-12T08:06:50.000Z</time>
      </trkpt>
      <trkpt lat="45.13132" lon="5.54963">
        <ele>1141.2</ele>
        <time>2022-08-12T08:06:51.000Z</time>
      </trkpt>
      <trkpt lat="45.13132" lon="5.54962">
        <ele>1141.1</ele>
        <time>2022-08-12T08:06:53.000Z</time>
      </trkpt>
      <trkpt lat="45.13131" lon="5.54962">
        <ele>1140.9</ele>
        <time>2022-08-12T08:06:54.000Z</time>
      </trkpt>
      <trkpt lat="45.1313" lon="5.54961">
        <ele>1140.8</ele>
        <time>2022-08-12T08:06:55.000Z</time>
      </trkpt>
      <trkpt lat="45.13129" lon="5.54961">
        <ele>1140.9</ele>
        <time>2022-08-12T08:06:56.000Z</time>
      </trkpt>
      <trkpt lat="45.13128" lon="5.54961">
        <ele>1141.1</ele>
        <time>2022-08-12T08:06:57.000Z</time>
      </trkpt>
      <trkpt lat="45.13127" lon="5.54961">
        <ele>1141.2</ele>
        <time>2022-08-12T08:06:58.000Z</time>
      </trkpt>
      <trkpt lat="45.13126" lon="5.54961">
        <ele>1141.4</ele>
        <time>2022-08-12T08:06:59.000Z</time>
      </trkpt>
      <trkpt lat="45.13124" lon="5.54961">
        <ele>1141.6</ele>
        <time>2022-08-12T08:07:00.000Z</time>
      </trkpt>
      <trkpt lat="45.13123" lon="5.5496">
        <ele>1141.3</ele>
        <time>2022-08-12T08:07:01.000Z</time>
      </trkpt>
      <trkpt lat="45.13121" lon="5.54959">
        <ele>1141.4</ele>
        <time>2022-08-12T08:07:02.000Z</time>
      </trkpt>
      <trkpt lat="45.1312" lon="5.54959">
        <ele>1141.6</ele>
        <time>2022-08-12T08:07:03.000Z</time>
      </trkpt>
      <trkpt lat="45.13119" lon="5.54959">
        <ele>1141.6</ele>
        <time>2022-08-12T08:07:04.000Z</time>
      </trkpt>
      <trkpt lat="45.13118" lon="5.54958">
        <ele>1141.5</ele>
        <time>2022-08-12T08:07:05.000Z</time>
      </trkpt>
      <trkpt lat="45.13117" lon="5.54958">
        <ele>1141.5</ele>
        <time>2022-08-12T08:07:06.000Z</time>
      </trkpt>
      <trkpt lat="45.13116" lon="5.54957">
        <ele>1141.3</ele>
        <time>2022-08-12T08:07:07.000Z</time>
      </trkpt>
      <trkpt lat="45.13114" lon="5.54956">
        <ele>1141.1</ele>
        <time>2022-08-12T08:07:08.000Z</time>
      </trkpt>
      <trkpt lat="45.13113" lon="5.54955">
        <ele>1141.1</ele>
        <time>2022-08-12T08:07:09.000Z</time>
      </trkpt>
      <trkpt lat="45.13112" lon="5.54955">
        <ele>1141.2</ele>
        <time>2022-08-12T08:07:10.000Z</time>
      </trkpt>
      <trkpt lat="45.1311" lon="5.54955">
        <ele>1141.3</ele>
        <time>2022-08-12T08:07:11.000Z</time>
      </trkpt>
      <trkpt lat="45.13108" lon="5.54955">
        <ele>1141.6</ele>
        <time>2022-08-12T08:07:12.000Z</time>
      </trkpt>
      <trkpt lat="45.13107" lon="5.54955">
        <ele>1141.8</ele>
        <time>2022-08-12T08:07:13.000Z</time>
      </trkpt>
      <trkpt lat="45.13105" lon="5.54954">
        <ele>1141.8</ele>
        <time>2022-08-12T08:07:14.000Z</time>
      </trkpt>
      <trkpt lat="45.13103" lon="5.54954">
        <ele>1141.8</ele>
        <time>2022-08-12T08:07:15.000Z</time>
      </trkpt>
      <trkpt lat="45.13102" lon="5.54953">
        <ele>1141.9</ele>
        <time>2022-08-12T08:07:16.000Z</time>
      </trkpt>
      <trkpt lat="45.13101" lon="5.54953">
        <ele>1142</ele>
        <time>2022-08-12T08:07:17.000Z</time>
      </trkpt>
      <trkpt lat="45.131" lon="5.54953">
        <ele>1142</ele>
        <time>2022-08-12T08:07:18.000Z</time>
      </trkpt>
      <trkpt lat="45.13099" lon="5.54953">
        <ele>1142.3</ele>
        <time>2022-08-12T08:07:19.000Z</time>
      </trkpt>
      <trkpt lat="45.13098" lon="5.54954">
        <ele>1142.6</ele>
        <time>2022-08-12T08:07:20.000Z</time>
      </trkpt>
      <trkpt lat="45.13097" lon="5.54954">
        <ele>1142.8</ele>
        <time>2022-08-12T08:07:21.000Z</time>
      </trkpt>
      <trkpt lat="45.13095" lon="5.54954">
        <ele>1143.1</ele>
        <time>2022-08-12T08:07:22.000Z</time>
      </trkpt>
      <trkpt lat="45.13094" lon="5.54955">
        <ele>1143.5</ele>
        <time>2022-08-12T08:07:23.000Z</time>
      </trkpt>
      <trkpt lat="45.13093" lon="5.54955">
        <ele>1143.6</ele>
        <time>2022-08-12T08:07:24.000Z</time>
      </trkpt>
      <trkpt lat="45.13092" lon="5.54955">
        <ele>1143.8</ele>
        <time>2022-08-12T08:07:25.000Z</time>
      </trkpt>
      <trkpt lat="45.1309" lon="5.54955">
        <ele>1144.3</ele>
        <time>2022-08-12T08:07:26.000Z</time>
      </trkpt>
      <trkpt lat="45.13089" lon="5.54956">
        <ele>1144.6</ele>
        <time>2022-08-12T08:07:27.000Z</time>
      </trkpt>
      <trkpt lat="45.13088" lon="5.54956">
        <ele>1145.1</ele>
        <time>2022-08-12T08:07:28.000Z</time>
      </trkpt>
      <trkpt lat="45.13085" lon="5.54957">
        <ele>1145.6</ele>
        <time>2022-08-12T08:07:29.000Z</time>
      </trkpt>
      <trkpt lat="45.13084" lon="5.54957">
        <ele>1146</ele>
        <time>2022-08-12T08:07:31.000Z</time>
      </trkpt>
      <trkpt lat="45.13082" lon="5.54957">
        <ele>1146.2</ele>
        <time>2022-08-12T08:07:32.000Z</time>
      </trkpt>
      <trkpt lat="45.13081" lon="5.54958">
        <ele>1146.8</ele>
        <time>2022-08-12T08:07:33.000Z</time>
      </trkpt>
      <trkpt lat="45.13079" lon="5.54958">
        <ele>1147.3</ele>
        <time>2022-08-12T08:07:34.000Z</time>
      </trkpt>
      <trkpt lat="45.13077" lon="5.54959">
        <ele>1147.8</ele>
        <time>2022-08-12T08:07:35.000Z</time>
      </trkpt>
      <trkpt lat="45.13077" lon="5.5496">
        <ele>1148.3</ele>
        <time>2022-08-12T08:07:36.000Z</time>
      </trkpt>
      <trkpt lat="45.13076" lon="5.54961">
        <ele>1149.1</ele>
        <time>2022-08-12T08:07:37.000Z</time>
      </trkpt>
      <trkpt lat="45.13075" lon="5.54963">
        <ele>1149.9</ele>
        <time>2022-08-12T08:07:38.000Z</time>
      </trkpt>
      <trkpt lat="45.13074" lon="5.54963">
        <ele>1150</ele>
        <time>2022-08-12T08:07:39.000Z</time>
      </trkpt>
      <trkpt lat="45.13072" lon="5.54963">
        <ele>1150.5</ele>
        <time>2022-08-12T08:07:40.000Z</time>
      </trkpt>
      <trkpt lat="45.13071" lon="5.54964">
        <ele>1151</ele>
        <time>2022-08-12T08:07:41.000Z</time>
      </trkpt>
      <trkpt lat="45.13071" lon="5.54966">
        <ele>1151.7</ele>
        <time>2022-08-12T08:07:42.000Z</time>
      </trkpt>
      <trkpt lat="45.1307" lon="5.54967">
        <ele>1152.3</ele>
        <time>2022-08-12T08:07:43.000Z</time>
      </trkpt>
      <trkpt lat="45.13069" lon="5.54968">
        <ele>1152.8</ele>
        <time>2022-08-12T08:07:44.000Z</time>
      </trkpt>
      <trkpt lat="45.13068" lon="5.54969">
        <ele>1153.6</ele>
        <time>2022-08-12T08:07:45.000Z</time>
      </trkpt>
      <trkpt lat="45.13067" lon="5.5497">
        <ele>1154.2</ele>
        <time>2022-08-12T08:07:46.000Z</time>
      </trkpt>
      <trkpt lat="45.13066" lon="5.54971">
        <ele>1154.5</ele>
        <time>2022-08-12T08:07:47.000Z</time>
      </trkpt>
      <trkpt lat="45.13066" lon="5.54972">
        <ele>1154.9</ele>
        <time>2022-08-12T08:07:48.000Z</time>
      </trkpt>
      <trkpt lat="45.13066" lon="5.54973">
        <ele>1155.5</ele>
        <time>2022-08-12T08:07:49.000Z</time>
      </trkpt>
      <trkpt lat="45.13065" lon="5.54975">
        <ele>1156.3</ele>
        <time>2022-08-12T08:07:50.000Z</time>
      </trkpt>
      <trkpt lat="45.13064" lon="5.54977">
        <ele>1157</ele>
        <time>2022-08-12T08:07:51.000Z</time>
      </trkpt>
      <trkpt lat="45.13064" lon="5.54979">
        <ele>1157.7</ele>
        <time>2022-08-12T08:07:52.000Z</time>
      </trkpt>
      <trkpt lat="45.13063" lon="5.5498">
        <ele>1158.3</ele>
        <time>2022-08-12T08:07:53.000Z</time>
      </trkpt>
      <trkpt lat="45.13062" lon="5.54981">
        <ele>1158.8</ele>
        <time>2022-08-12T08:07:54.000Z</time>
      </trkpt>
      <trkpt lat="45.13062" lon="5.54982">
        <ele>1159.3</ele>
        <time>2022-08-12T08:07:55.000Z</time>
      </trkpt>
      <trkpt lat="45.13061" lon="5.54984">
        <ele>1159.8</ele>
        <time>2022-08-12T08:07:56.000Z</time>
      </trkpt>
      <trkpt lat="45.1306" lon="5.54986">
        <ele>1160.5</ele>
        <time>2022-08-12T08:07:57.000Z</time>
      </trkpt>
      <trkpt lat="45.1306" lon="5.54987">
        <ele>1160.9</ele>
        <time>2022-08-12T08:07:58.000Z</time>
      </trkpt>
      <trkpt lat="45.1306" lon="5.54988">
        <ele>1161.5</ele>
        <time>2022-08-12T08:07:59.000Z</time>
      </trkpt>
      <trkpt lat="45.1306" lon="5.5499">
        <ele>1162</ele>
        <time>2022-08-12T08:08:00.000Z</time>
      </trkpt>
      <trkpt lat="45.13059" lon="5.54991">
        <ele>1162.6</ele>
        <time>2022-08-12T08:08:01.000Z</time>
      </trkpt>
      <trkpt lat="45.13059" lon="5.54992">
        <ele>1163.1</ele>
        <time>2022-08-12T08:08:02.000Z</time>
      </trkpt>
      <trkpt lat="45.13058" lon="5.54994">
        <ele>1163.6</ele>
        <time>2022-08-12T08:08:03.000Z</time>
      </trkpt>
      <trkpt lat="45.13057" lon="5.54995">
        <ele>1164.1</ele>
        <time>2022-08-12T08:08:04.000Z</time>
      </trkpt>
      <trkpt lat="45.13055" lon="5.54996">
        <ele>1164.8</ele>
        <time>2022-08-12T08:08:05.000Z</time>
      </trkpt>
      <trkpt lat="45.13054" lon="5.54997">
        <ele>1165.3</ele>
        <time>2022-08-12T08:08:06.000Z</time>
      </trkpt>
      <trkpt lat="45.13053" lon="5.54998">
        <ele>1165.6</ele>
        <time>2022-08-12T08:08:07.000Z</time>
      </trkpt>
      <trkpt lat="45.13052" lon="5.54999">
        <ele>1166.2</ele>
        <time>2022-08-12T08:08:09.000Z</time>
      </trkpt>
      <trkpt lat="45.1305" lon="5.55">
        <ele>1166.8</ele>
        <time>2022-08-12T08:08:10.000Z</time>
      </trkpt>
      <trkpt lat="45.13049" lon="5.55">
        <ele>1167.1</ele>
        <time>2022-08-12T08:08:11.000Z</time>
      </trkpt>
      <trkpt lat="45.13048" lon="5.55001">
        <ele>1167.6</ele>
        <time>2022-08-12T08:08:12.000Z</time>
      </trkpt>
      <trkpt lat="45.13047" lon="5.55001">
        <ele>1167.9</ele>
        <time>2022-08-12T08:08:13.000Z</time>
      </trkpt>
      <trkpt lat="45.13046" lon="5.55002">
        <ele>1168.3</ele>
        <time>2022-08-12T08:08:14.000Z</time>
      </trkpt>
      <trkpt lat="45.13045" lon="5.55002">
        <ele>1168.7</ele>
        <time>2022-08-12T08:08:15.000Z</time>
      </trkpt>
      <trkpt lat="45.13044" lon="5.55002">
        <ele>1168.8</ele>
        <time>2022-08-12T08:08:16.000Z</time>
      </trkpt>
      <trkpt lat="45.13044" lon="5.55003">
        <ele>1168.9</ele>
        <time>2022-08-12T08:08:20.000Z</time>
      </trkpt>
      <trkpt lat="45.13043" lon="5.55003">
        <ele>1169.2</ele>
        <time>2022-08-12T08:08:21.000Z</time>
      </trkpt>
      <trkpt lat="45.1304" lon="5.55003">
        <ele>1169.6</ele>
        <time>2022-08-12T08:08:22.000Z</time>
      </trkpt>
      <trkpt lat="45.13038" lon="5.55003">
        <ele>1170.1</ele>
        <time>2022-08-12T08:08:23.000Z</time>
      </trkpt>
      <trkpt lat="45.13036" lon="5.55003">
        <ele>1170.5</ele>
        <time>2022-08-12T08:08:24.000Z</time>
      </trkpt>
      <trkpt lat="45.13035" lon="5.55004">
        <ele>1170.9</ele>
        <time>2022-08-12T08:08:25.000Z</time>
      </trkpt>
      <trkpt lat="45.13034" lon="5.55004">
        <ele>1171.1</ele>
        <time>2022-08-12T08:08:26.000Z</time>
      </trkpt>
      <trkpt lat="45.13032" lon="5.55004">
        <ele>1171.4</ele>
        <time>2022-08-12T08:08:27.000Z</time>
      </trkpt>
      <trkpt lat="45.13031" lon="5.55004">
        <ele>1171.6</ele>
        <time>2022-08-12T08:08:28.000Z</time>
      </trkpt>
      <trkpt lat="45.1303" lon="5.55004">
        <ele>1171.8</ele>
        <time>2022-08-12T08:08:29.000Z</time>
      </trkpt>
      <trkpt lat="45.13029" lon="5.55004">
        <ele>1172</ele>
        <time>2022-08-12T08:08:30.000Z</time>
      </trkpt>
      <trkpt lat="45.13028" lon="5.55004">
        <ele>1172.2</ele>
        <time>2022-08-12T08:08:31.000Z</time>
      </trkpt>
      <trkpt lat="45.13026" lon="5.55004">
        <ele>1172.4</ele>
        <time>2022-08-12T08:08:32.000Z</time>
      </trkpt>
      <trkpt lat="45.13025" lon="5.55004">
        <ele>1172.6</ele>
        <time>2022-08-12T08:08:33.000Z</time>
      </trkpt>
      <trkpt lat="45.13024" lon="5.55004">
        <ele>1172.7</ele>
        <time>2022-08-12T08:08:34.000Z</time>
      </trkpt>
      <trkpt lat="45.13022" lon="5.55004">
        <ele>1172.8</ele>
        <time>2022-08-12T08:08:35.000Z</time>
      </trkpt>
      <trkpt lat="45.1302" lon="5.55004">
        <ele>1173.3</ele>
        <time>2022-08-12T08:08:36.000Z</time>
      </trkpt>
      <trkpt lat="45.13019" lon="5.55005">
        <ele>1173.6</ele>
        <time>2022-08-12T08:08:37.000Z</time>
      </trkpt>
      <trkpt lat="45.13018" lon="5.55004">
        <ele>1173.7</ele>
        <time>2022-08-12T08:08:38.000Z</time>
      </trkpt>
      <trkpt lat="45.13017" lon="5.55003">
        <ele>1173.5</ele>
        <time>2022-08-12T08:08:39.000Z</time>
      </trkpt>
      <trkpt lat="45.13016" lon="5.55002">
        <ele>1173.3</ele>
        <time>2022-08-12T08:08:40.000Z</time>
      </trkpt>
      <trkpt lat="45.13015" lon="5.55001">
        <ele>1173.3</ele>
        <time>2022-08-12T08:08:41.000Z</time>
      </trkpt>
      <trkpt lat="45.13013" lon="5.55">
        <ele>1173.2</ele>
        <time>2022-08-12T08:08:42.000Z</time>
      </trkpt>
      <trkpt lat="45.13012" lon="5.55">
        <ele>1173.2</ele>
        <time>2022-08-12T08:08:43.000Z</time>
      </trkpt>
      <trkpt lat="45.1301" lon="5.55">
        <ele>1173.4</ele>
        <time>2022-08-12T08:08:44.000Z</time>
      </trkpt>
      <trkpt lat="45.13009" lon="5.55">
        <ele>1173.7</ele>
        <time>2022-08-12T08:08:45.000Z</time>
      </trkpt>
      <trkpt lat="45.13007" lon="5.55">
        <ele>1173.9</ele>
        <time>2022-08-12T08:08:46.000Z</time>
      </trkpt>
      <trkpt lat="45.13006" lon="5.55">
        <ele>1173.9</ele>
        <time>2022-08-12T08:08:47.000Z</time>
      </trkpt>
      <trkpt lat="45.13006" lon="5.54999">
        <ele>1173.8</ele>
        <time>2022-08-12T08:08:48.000Z</time>
      </trkpt>
      <trkpt lat="45.13005" lon="5.54998">
        <ele>1173.7</ele>
        <time>2022-08-12T08:08:49.000Z</time>
      </trkpt>
      <trkpt lat="45.13004" lon="5.54997">
        <ele>1173.6</ele>
        <time>2022-08-12T08:08:50.000Z</time>
      </trkpt>
      <trkpt lat="45.13003" lon="5.54996">
        <ele>1173.5</ele>
        <time>2022-08-12T08:08:52.000Z</time>
      </trkpt>
      <trkpt lat="45.13002" lon="5.54996">
        <ele>1173.6</ele>
        <time>2022-08-12T08:08:56.000Z</time>
      </trkpt>
      <trkpt lat="45.13001" lon="5.54996">
        <ele>1173.7</ele>
        <time>2022-08-12T08:08:57.000Z</time>
      </trkpt>
      <trkpt lat="45.13" lon="5.54996">
        <ele>1173.8</ele>
        <time>2022-08-12T08:08:59.000Z</time>
      </trkpt>
      <trkpt lat="45.12998" lon="5.54995">
        <ele>1174</ele>
        <time>2022-08-12T08:09:00.000Z</time>
      </trkpt>
      <trkpt lat="45.12995" lon="5.54994">
        <ele>1174.3</ele>
        <time>2022-08-12T08:09:01.000Z</time>
      </trkpt>
      <trkpt lat="45.12994" lon="5.54994">
        <ele>1174.5</ele>
        <time>2022-08-12T08:09:02.000Z</time>
      </trkpt>
      <trkpt lat="45.12993" lon="5.54992">
        <ele>1174.3</ele>
        <time>2022-08-12T08:09:03.000Z</time>
      </trkpt>
      <trkpt lat="45.12992" lon="5.54991">
        <ele>1174.2</ele>
        <time>2022-08-12T08:09:04.000Z</time>
      </trkpt>
      <trkpt lat="45.12991" lon="5.5499">
        <ele>1174.2</ele>
        <time>2022-08-12T08:09:05.000Z</time>
      </trkpt>
      <trkpt lat="45.1299" lon="5.5499">
        <ele>1174.3</ele>
        <time>2022-08-12T08:09:06.000Z</time>
      </trkpt>
      <trkpt lat="45.12989" lon="5.54989">
        <ele>1174</ele>
        <time>2022-08-12T08:09:09.000Z</time>
      </trkpt>
      <trkpt lat="45.12988" lon="5.54987">
        <ele>1173.9</ele>
        <time>2022-08-12T08:09:10.000Z</time>
      </trkpt>
      <trkpt lat="45.12985" lon="5.54987">
        <ele>1174.4</ele>
        <time>2022-08-12T08:09:11.000Z</time>
      </trkpt>
      <trkpt lat="45.12985" lon="5.54986">
        <ele>1174.4</ele>
        <time>2022-08-12T08:09:13.000Z</time>
      </trkpt>
      <trkpt lat="45.12984" lon="5.54986">
        <ele>1174.5</ele>
        <time>2022-08-12T08:09:14.000Z</time>
      </trkpt>
      <trkpt lat="45.12983" lon="5.54985">
        <ele>1174.3</ele>
        <time>2022-08-12T08:09:15.000Z</time>
      </trkpt>
      <trkpt lat="45.12981" lon="5.54983">
        <ele>1174.4</ele>
        <time>2022-08-12T08:09:16.000Z</time>
      </trkpt>
      <trkpt lat="45.1298" lon="5.54982">
        <ele>1174.3</ele>
        <time>2022-08-12T08:09:17.000Z</time>
      </trkpt>
      <trkpt lat="45.12978" lon="5.54981">
        <ele>1174.2</ele>
        <time>2022-08-12T08:09:18.000Z</time>
      </trkpt>
      <trkpt lat="45.12977" lon="5.5498">
        <ele>1174.3</ele>
        <time>2022-08-12T08:09:19.000Z</time>
      </trkpt>
      <trkpt lat="45.12976" lon="5.54979">
        <ele>1174.2</ele>
        <time>2022-08-12T08:09:20.000Z</time>
      </trkpt>
      <trkpt lat="45.12974" lon="5.54978">
        <ele>1174.3</ele>
        <time>2022-08-12T08:09:21.000Z</time>
      </trkpt>
      <trkpt lat="45.12972" lon="5.54978">
        <ele>1174.7</ele>
        <time>2022-08-12T08:09:22.000Z</time>
      </trkpt>
      <trkpt lat="45.1297" lon="5.54977">
        <ele>1174.9</ele>
        <time>2022-08-12T08:09:23.000Z</time>
      </trkpt>
      <trkpt lat="45.12968" lon="5.54976">
        <ele>1175</ele>
        <time>2022-08-12T08:09:24.000Z</time>
      </trkpt>
      <trkpt lat="45.12967" lon="5.54976">
        <ele>1175.1</ele>
        <time>2022-08-12T08:09:25.000Z</time>
      </trkpt>
      <trkpt lat="45.12966" lon="5.54976">
        <ele>1175.1</ele>
        <time>2022-08-12T08:09:26.000Z</time>
      </trkpt>
      <trkpt lat="45.12966" lon="5.54975">
        <ele>1175.1</ele>
        <time>2022-08-12T08:09:28.000Z</time>
      </trkpt>
      <trkpt lat="45.12965" lon="5.54975">
        <ele>1175.1</ele>
        <time>2022-08-12T08:09:29.000Z</time>
      </trkpt>
      <trkpt lat="45.12964" lon="5.54975">
        <ele>1175.3</ele>
        <time>2022-08-12T08:09:30.000Z</time>
      </trkpt>
      <trkpt lat="45.12963" lon="5.54974">
        <ele>1175.1</ele>
        <time>2022-08-12T08:09:31.000Z</time>
      </trkpt>
      <trkpt lat="45.12962" lon="5.54972">
        <ele>1174.9</ele>
        <time>2022-08-12T08:09:32.000Z</time>
      </trkpt>
      <trkpt lat="45.1296" lon="5.54971">
        <ele>1174.7</ele>
        <time>2022-08-12T08:09:33.000Z</time>
      </trkpt>
      <trkpt lat="45.12959" lon="5.5497">
        <ele>1174.6</ele>
        <time>2022-08-12T08:09:34.000Z</time>
      </trkpt>
      <trkpt lat="45.12958" lon="5.54968">
        <ele>1174.4</ele>
        <time>2022-08-12T08:09:35.000Z</time>
      </trkpt>
      <trkpt lat="45.12957" lon="5.54967">
        <ele>1174.2</ele>
        <time>2022-08-12T08:09:36.000Z</time>
      </trkpt>
      <trkpt lat="45.12956" lon="5.54966">
        <ele>1174.2</ele>
        <time>2022-08-12T08:09:37.000Z</time>
      </trkpt>
      <trkpt lat="45.12955" lon="5.54965">
        <ele>1174.1</ele>
        <time>2022-08-12T08:09:38.000Z</time>
      </trkpt>
      <trkpt lat="45.12954" lon="5.54965">
        <ele>1174.2</ele>
        <time>2022-08-12T08:09:39.000Z</time>
      </trkpt>
      <trkpt lat="45.12953" lon="5.54964">
        <ele>1174.2</ele>
        <time>2022-08-12T08:09:40.000Z</time>
      </trkpt>
      <trkpt lat="45.12952" lon="5.54964">
        <ele>1174.3</ele>
        <time>2022-08-12T08:09:41.000Z</time>
      </trkpt>
      <trkpt lat="45.12951" lon="5.54963">
        <ele>1174.3</ele>
        <time>2022-08-12T08:09:42.000Z</time>
      </trkpt>
      <trkpt lat="45.12949" lon="5.54962">
        <ele>1174</ele>
        <time>2022-08-12T08:09:43.000Z</time>
      </trkpt>
      <trkpt lat="45.12948" lon="5.5496">
        <ele>1173.8</ele>
        <time>2022-08-12T08:09:44.000Z</time>
      </trkpt>
      <trkpt lat="45.12946" lon="5.5496">
        <ele>1174</ele>
        <time>2022-08-12T08:09:45.000Z</time>
      </trkpt>
      <trkpt lat="45.12945" lon="5.54959">
        <ele>1174.1</ele>
        <time>2022-08-12T08:09:46.000Z</time>
      </trkpt>
      <trkpt lat="45.12944" lon="5.54958">
        <ele>1174.2</ele>
        <time>2022-08-12T08:09:52.000Z</time>
      </trkpt>
      <trkpt lat="45.12943" lon="5.54958">
        <ele>1174.2</ele>
        <time>2022-08-12T08:09:53.000Z</time>
      </trkpt>
      <trkpt lat="45.12942" lon="5.54957">
        <ele>1174.2</ele>
        <time>2022-08-12T08:09:54.000Z</time>
      </trkpt>
      <trkpt lat="45.12939" lon="5.54956">
        <ele>1174.4</ele>
        <time>2022-08-12T08:09:56.000Z</time>
      </trkpt>
      <trkpt lat="45.12937" lon="5.54955">
        <ele>1174.6</ele>
        <time>2022-08-12T08:09:57.000Z</time>
      </trkpt>
      <trkpt lat="45.12936" lon="5.54955">
        <ele>1174.7</ele>
        <time>2022-08-12T08:09:58.000Z</time>
      </trkpt>
      <trkpt lat="45.12935" lon="5.54955">
        <ele>1174.8</ele>
        <time>2022-08-12T08:09:59.000Z</time>
      </trkpt>
      <trkpt lat="45.12934" lon="5.54954">
        <ele>1174.8</ele>
        <time>2022-08-12T08:10:02.000Z</time>
      </trkpt>
      <trkpt lat="45.12933" lon="5.54954">
        <ele>1175.1</ele>
        <time>2022-08-12T08:10:03.000Z</time>
      </trkpt>
      <trkpt lat="45.12931" lon="5.54954">
        <ele>1175.4</ele>
        <time>2022-08-12T08:10:04.000Z</time>
      </trkpt>
      <trkpt lat="45.1293" lon="5.54954">
        <ele>1175.5</ele>
        <time>2022-08-12T08:10:05.000Z</time>
      </trkpt>
      <trkpt lat="45.12928" lon="5.54954">
        <ele>1175.8</ele>
        <time>2022-08-12T08:10:06.000Z</time>
      </trkpt>
      <trkpt lat="45.12927" lon="5.54953">
        <ele>1175.8</ele>
        <time>2022-08-12T08:10:07.000Z</time>
      </trkpt>
      <trkpt lat="45.12926" lon="5.54953">
        <ele>1175.9</ele>
        <time>2022-08-12T08:10:08.000Z</time>
      </trkpt>
      <trkpt lat="45.12925" lon="5.54953">
        <ele>1176</ele>
        <time>2022-08-12T08:10:09.000Z</time>
      </trkpt>
      <trkpt lat="45.12924" lon="5.54952">
        <ele>1176.1</ele>
        <time>2022-08-12T08:10:10.000Z</time>
      </trkpt>
      <trkpt lat="45.12923" lon="5.54952">
        <ele>1176.1</ele>
        <time>2022-08-12T08:10:11.000Z</time>
      </trkpt>
      <trkpt lat="45.12922" lon="5.54951">
        <ele>1176.1</ele>
        <time>2022-08-12T08:10:12.000Z</time>
      </trkpt>
      <trkpt lat="45.12921" lon="5.5495">
        <ele>1175.8</ele>
        <time>2022-08-12T08:10:13.000Z</time>
      </trkpt>
      <trkpt lat="45.1292" lon="5.54949">
        <ele>1175.7</ele>
        <time>2022-08-12T08:10:14.000Z</time>
      </trkpt>
      <trkpt lat="45.12919" lon="5.54948">
        <ele>1175.8</ele>
        <time>2022-08-12T08:10:15.000Z</time>
      </trkpt>
      <trkpt lat="45.12918" lon="5.54947">
        <ele>1175.7</ele>
        <time>2022-08-12T08:10:16.000Z</time>
      </trkpt>
      <trkpt lat="45.12916" lon="5.54947">
        <ele>1175.9</ele>
        <time>2022-08-12T08:10:17.000Z</time>
      </trkpt>
      <trkpt lat="45.12915" lon="5.54946">
        <ele>1175.8</ele>
        <time>2022-08-12T08:10:18.000Z</time>
      </trkpt>
      <trkpt lat="45.12914" lon="5.54947">
        <ele>1176.2</ele>
        <time>2022-08-12T08:10:19.000Z</time>
      </trkpt>
      <trkpt lat="45.12913" lon="5.54947">
        <ele>1176.3</ele>
        <time>2022-08-12T08:10:20.000Z</time>
      </trkpt>
      <trkpt lat="45.12912" lon="5.54946">
        <ele>1176.3</ele>
        <time>2022-08-12T08:10:22.000Z</time>
      </trkpt>
      <trkpt lat="45.1291" lon="5.54945">
        <ele>1176.2</ele>
        <time>2022-08-12T08:10:23.000Z</time>
      </trkpt>
      <trkpt lat="45.12909" lon="5.54944">
        <ele>1176.1</ele>
        <time>2022-08-12T08:10:24.000Z</time>
      </trkpt>
      <trkpt lat="45.12908" lon="5.54943">
        <ele>1176</ele>
        <time>2022-08-12T08:10:25.000Z</time>
      </trkpt>
      <trkpt lat="45.12906" lon="5.54942">
        <ele>1176.2</ele>
        <time>2022-08-12T08:10:26.000Z</time>
      </trkpt>
      <trkpt lat="45.12904" lon="5.54941">
        <ele>1176.1</ele>
        <time>2022-08-12T08:10:27.000Z</time>
      </trkpt>
      <trkpt lat="45.12903" lon="5.54941">
        <ele>1176.2</ele>
        <time>2022-08-12T08:10:29.000Z</time>
      </trkpt>
      <trkpt lat="45.12902" lon="5.5494">
        <ele>1176.2</ele>
        <time>2022-08-12T08:10:30.000Z</time>
      </trkpt>
      <trkpt lat="45.129" lon="5.5494">
        <ele>1176.5</ele>
        <time>2022-08-12T08:10:31.000Z</time>
      </trkpt>
      <trkpt lat="45.12899" lon="5.54941">
        <ele>1176.8</ele>
        <time>2022-08-12T08:10:32.000Z</time>
      </trkpt>
      <trkpt lat="45.12898" lon="5.5494">
        <ele>1176.9</ele>
        <time>2022-08-12T08:10:33.000Z</time>
      </trkpt>
      <trkpt lat="45.12896" lon="5.54939">
        <ele>1176.7</ele>
        <time>2022-08-12T08:10:34.000Z</time>
      </trkpt>
      <trkpt lat="45.12895" lon="5.54938">
        <ele>1176.5</ele>
        <time>2022-08-12T08:10:35.000Z</time>
      </trkpt>
      <trkpt lat="45.12894" lon="5.54937">
        <ele>1176.2</ele>
        <time>2022-08-12T08:10:36.000Z</time>
      </trkpt>
      <trkpt lat="45.12893" lon="5.54936">
        <ele>1176.4</ele>
        <time>2022-08-12T08:10:37.000Z</time>
      </trkpt>
      <trkpt lat="45.12892" lon="5.54936">
        <ele>1176.5</ele>
        <time>2022-08-12T08:10:38.000Z</time>
      </trkpt>
      <trkpt lat="45.12891" lon="5.54936">
        <ele>1176.7</ele>
        <time>2022-08-12T08:10:40.000Z</time>
      </trkpt>
      <trkpt lat="45.1289" lon="5.54936">
        <ele>1176.9</ele>
        <time>2022-08-12T08:10:41.000Z</time>
      </trkpt>
      <trkpt lat="45.12889" lon="5.54936">
        <ele>1177.1</ele>
        <time>2022-08-12T08:10:42.000Z</time>
      </trkpt>
      <trkpt lat="45.12887" lon="5.54937">
        <ele>1177.5</ele>
        <time>2022-08-12T08:10:43.000Z</time>
      </trkpt>
      <trkpt lat="45.12886" lon="5.54937">
        <ele>1177.8</ele>
        <time>2022-08-12T08:10:44.000Z</time>
      </trkpt>
      <trkpt lat="45.12884" lon="5.54937">
        <ele>1178</ele>
        <time>2022-08-12T08:10:45.000Z</time>
      </trkpt>
      <trkpt lat="45.12883" lon="5.54937">
        <ele>1178.1</ele>
        <time>2022-08-12T08:10:46.000Z</time>
      </trkpt>
      <trkpt lat="45.12882" lon="5.54937">
        <ele>1178.2</ele>
        <time>2022-08-12T08:10:47.000Z</time>
      </trkpt>
      <trkpt lat="45.12881" lon="5.54937">
        <ele>1178.3</ele>
        <time>2022-08-12T08:10:49.000Z</time>
      </trkpt>
      <trkpt lat="45.12881" lon="5.54936">
        <ele>1178.2</ele>
        <time>2022-08-12T08:10:50.000Z</time>
      </trkpt>
      <trkpt lat="45.12879" lon="5.54936">
        <ele>1178.2</ele>
        <time>2022-08-12T08:10:51.000Z</time>
      </trkpt>
      <trkpt lat="45.12878" lon="5.54935">
        <ele>1178.2</ele>
        <time>2022-08-12T08:10:52.000Z</time>
      </trkpt>
      <trkpt lat="45.12877" lon="5.54935">
        <ele>1178.2</ele>
        <time>2022-08-12T08:10:53.000Z</time>
      </trkpt>
      <trkpt lat="45.12876" lon="5.54935">
        <ele>1178.3</ele>
        <time>2022-08-12T08:10:54.000Z</time>
      </trkpt>
      <trkpt lat="45.12875" lon="5.54935">
        <ele>1178.4</ele>
        <time>2022-08-12T08:10:55.000Z</time>
      </trkpt>
      <trkpt lat="45.12874" lon="5.54935">
        <ele>1178.6</ele>
        <time>2022-08-12T08:10:57.000Z</time>
      </trkpt>
      <trkpt lat="45.12872" lon="5.54935">
        <ele>1178.7</ele>
        <time>2022-08-12T08:10:58.000Z</time>
      </trkpt>
      <trkpt lat="45.12871" lon="5.54934">
        <ele>1178.6</ele>
        <time>2022-08-12T08:10:59.000Z</time>
      </trkpt>
      <trkpt lat="45.1287" lon="5.54934">
        <ele>1178.5</ele>
        <time>2022-08-12T08:11:00.000Z</time>
      </trkpt>
      <trkpt lat="45.1287" lon="5.54933">
        <ele>1178.5</ele>
        <time>2022-08-12T08:11:01.000Z</time>
      </trkpt>
      <trkpt lat="45.12869" lon="5.54933">
        <ele>1178.7</ele>
        <time>2022-08-12T08:11:02.000Z</time>
      </trkpt>
      <trkpt lat="45.12867" lon="5.54933">
        <ele>1178.8</ele>
        <time>2022-08-12T08:11:03.000Z</time>
      </trkpt>
      <trkpt lat="45.12866" lon="5.54933">
        <ele>1178.8</ele>
        <time>2022-08-12T08:11:04.000Z</time>
      </trkpt>
      <trkpt lat="45.12865" lon="5.54933">
        <ele>1178.9</ele>
        <time>2022-08-12T08:11:05.000Z</time>
      </trkpt>
      <trkpt lat="45.12864" lon="5.54932">
        <ele>1178.9</ele>
        <time>2022-08-12T08:11:06.000Z</time>
      </trkpt>
      <trkpt lat="45.12863" lon="5.54933">
        <ele>1179</ele>
        <time>2022-08-12T08:11:07.000Z</time>
      </trkpt>
      <trkpt lat="45.12862" lon="5.54933">
        <ele>1179.3</ele>
        <time>2022-08-12T08:11:08.000Z</time>
      </trkpt>
      <trkpt lat="45.12861" lon="5.54933">
        <ele>1179.4</ele>
        <time>2022-08-12T08:11:09.000Z</time>
      </trkpt>
      <trkpt lat="45.12859" lon="5.54933">
        <ele>1179.5</ele>
        <time>2022-08-12T08:11:10.000Z</time>
      </trkpt>
      <trkpt lat="45.12858" lon="5.54932">
        <ele>1179.3</ele>
        <time>2022-08-12T08:11:11.000Z</time>
      </trkpt>
      <trkpt lat="45.12857" lon="5.54932">
        <ele>1179.2</ele>
        <time>2022-08-12T08:11:12.000Z</time>
      </trkpt>
      <trkpt lat="45.12856" lon="5.54932">
        <ele>1179.3</ele>
        <time>2022-08-12T08:11:13.000Z</time>
      </trkpt>
      <trkpt lat="45.12856" lon="5.54933">
        <ele>1179.5</ele>
        <time>2022-08-12T08:11:14.000Z</time>
      </trkpt>
      <trkpt lat="45.12855" lon="5.54933">
        <ele>1179.8</ele>
        <time>2022-08-12T08:11:15.000Z</time>
      </trkpt>
      <trkpt lat="45.12854" lon="5.54934">
        <ele>1179.9</ele>
        <time>2022-08-12T08:11:16.000Z</time>
      </trkpt>
      <trkpt lat="45.12853" lon="5.54934">
        <ele>1180.1</ele>
        <time>2022-08-12T08:11:17.000Z</time>
      </trkpt>
      <trkpt lat="45.12852" lon="5.54934">
        <ele>1180.3</ele>
        <time>2022-08-12T08:11:18.000Z</time>
      </trkpt>
      <trkpt lat="45.12851" lon="5.54934">
        <ele>1180.3</ele>
        <time>2022-08-12T08:11:19.000Z</time>
      </trkpt>
      <trkpt lat="45.1285" lon="5.54934">
        <ele>1180.2</ele>
        <time>2022-08-12T08:11:20.000Z</time>
      </trkpt>
      <trkpt lat="45.12849" lon="5.54934">
        <ele>1180.3</ele>
        <time>2022-08-12T08:11:21.000Z</time>
      </trkpt>
      <trkpt lat="45.12847" lon="5.54934">
        <ele>1180.5</ele>
        <time>2022-08-12T08:11:25.000Z</time>
      </trkpt>
      <trkpt lat="45.12845" lon="5.54934">
        <ele>1180.6</ele>
        <time>2022-08-12T08:11:26.000Z</time>
      </trkpt>
      <trkpt lat="45.12843" lon="5.54934">
        <ele>1180.6</ele>
        <time>2022-08-12T08:11:27.000Z</time>
      </trkpt>
      <trkpt lat="45.12841" lon="5.54935">
        <ele>1180.9</ele>
        <time>2022-08-12T08:11:29.000Z</time>
      </trkpt>
      <trkpt lat="45.1284" lon="5.54936">
        <ele>1181.2</ele>
        <time>2022-08-12T08:11:31.000Z</time>
      </trkpt>
      <trkpt lat="45.12839" lon="5.54935">
        <ele>1181.2</ele>
        <time>2022-08-12T08:11:33.000Z</time>
      </trkpt>
      <trkpt lat="45.12838" lon="5.54935">
        <ele>1181.3</ele>
        <time>2022-08-12T08:11:34.000Z</time>
      </trkpt>
      <trkpt lat="45.12838" lon="5.54936">
        <ele>1181.4</ele>
        <time>2022-08-12T08:11:35.000Z</time>
      </trkpt>
      <trkpt lat="45.12837" lon="5.54936">
        <ele>1181.5</ele>
        <time>2022-08-12T08:11:36.000Z</time>
      </trkpt>
      <trkpt lat="45.12836" lon="5.54936">
        <ele>1181.5</ele>
        <time>2022-08-12T08:11:37.000Z</time>
      </trkpt>
      <trkpt lat="45.12835" lon="5.54936">
        <ele>1181.7</ele>
        <time>2022-08-12T08:11:38.000Z</time>
      </trkpt>
      <trkpt lat="45.12833" lon="5.54937">
        <ele>1182.1</ele>
        <time>2022-08-12T08:11:39.000Z</time>
      </trkpt>
      <trkpt lat="45.12832" lon="5.54937">
        <ele>1182.2</ele>
        <time>2022-08-12T08:11:41.000Z</time>
      </trkpt>
      <trkpt lat="45.12831" lon="5.54938">
        <ele>1182.4</ele>
        <time>2022-08-12T08:11:42.000Z</time>
      </trkpt>
      <trkpt lat="45.1283" lon="5.54938">
        <ele>1182.6</ele>
        <time>2022-08-12T08:11:43.000Z</time>
      </trkpt>
      <trkpt lat="45.12829" lon="5.54939">
        <ele>1182.9</ele>
        <time>2022-08-12T08:11:44.000Z</time>
      </trkpt>
      <trkpt lat="45.12826" lon="5.5494">
        <ele>1183.5</ele>
        <time>2022-08-12T08:11:49.000Z</time>
      </trkpt>
      <trkpt lat="45.12824" lon="5.5494">
        <ele>1183.5</ele>
        <time>2022-08-12T08:11:50.000Z</time>
      </trkpt>
      <trkpt lat="45.12824" lon="5.54939">
        <ele>1183.3</ele>
        <time>2022-08-12T08:11:51.000Z</time>
      </trkpt>
      <trkpt lat="45.12823" lon="5.54939">
        <ele>1183.3</ele>
        <time>2022-08-12T08:11:53.000Z</time>
      </trkpt>
      <trkpt lat="45.12823" lon="5.5494">
        <ele>1183.5</ele>
        <time>2022-08-12T08:11:54.000Z</time>
      </trkpt>
      <trkpt lat="45.12821" lon="5.5494">
        <ele>1183.8</ele>
        <time>2022-08-12T08:11:55.000Z</time>
      </trkpt>
      <trkpt lat="45.12819" lon="5.54941">
        <ele>1184.1</ele>
        <time>2022-08-12T08:11:56.000Z</time>
      </trkpt>
      <trkpt lat="45.12818" lon="5.54941">
        <ele>1184.3</ele>
        <time>2022-08-12T08:11:57.000Z</time>
      </trkpt>
      <trkpt lat="45.12816" lon="5.54942">
        <ele>1184.5</ele>
        <time>2022-08-12T08:11:58.000Z</time>
      </trkpt>
      <trkpt lat="45.12814" lon="5.54942">
        <ele>1184.8</ele>
        <time>2022-08-12T08:11:59.000Z</time>
      </trkpt>
      <trkpt lat="45.12813" lon="5.54943">
        <ele>1185.1</ele>
        <time>2022-08-12T08:12:00.000Z</time>
      </trkpt>
      <trkpt lat="45.12811" lon="5.54943">
        <ele>1185.2</ele>
        <time>2022-08-12T08:12:01.000Z</time>
      </trkpt>
      <trkpt lat="45.1281" lon="5.54943">
        <ele>1185.4</ele>
        <time>2022-08-12T08:12:02.000Z</time>
      </trkpt>
      <trkpt lat="45.12808" lon="5.54944">
        <ele>1185.7</ele>
        <time>2022-08-12T08:12:03.000Z</time>
      </trkpt>
      <trkpt lat="45.12806" lon="5.54944">
        <ele>1185.8</ele>
        <time>2022-08-12T08:12:04.000Z</time>
      </trkpt>
      <trkpt lat="45.12805" lon="5.54944">
        <ele>1185.9</ele>
        <time>2022-08-12T08:12:06.000Z</time>
      </trkpt>
      <trkpt lat="45.12805" lon="5.54945">
        <ele>1186.2</ele>
        <time>2022-08-12T08:12:07.000Z</time>
      </trkpt>
      <trkpt lat="45.12804" lon="5.54946">
        <ele>1186.6</ele>
        <time>2022-08-12T08:12:08.000Z</time>
      </trkpt>
      <trkpt lat="45.12803" lon="5.54947">
        <ele>1187</ele>
        <time>2022-08-12T08:12:09.000Z</time>
      </trkpt>
      <trkpt lat="45.12801" lon="5.54948">
        <ele>1187.3</ele>
        <time>2022-08-12T08:12:10.000Z</time>
      </trkpt>
      <trkpt lat="45.12799" lon="5.54949">
        <ele>1187.8</ele>
        <time>2022-08-12T08:12:11.000Z</time>
      </trkpt>
      <trkpt lat="45.12797" lon="5.5495">
        <ele>1188.3</ele>
        <time>2022-08-12T08:12:12.000Z</time>
      </trkpt>
      <trkpt lat="45.12796" lon="5.54952">
        <ele>1189</ele>
        <time>2022-08-12T08:12:13.000Z</time>
      </trkpt>
      <trkpt lat="45.12796" lon="5.54953">
        <ele>1189.2</ele>
        <time>2022-08-12T08:12:14.000Z</time>
      </trkpt>
      <trkpt lat="45.12795" lon="5.54954">
        <ele>1189.6</ele>
        <time>2022-08-12T08:12:15.000Z</time>
      </trkpt>
      <trkpt lat="45.12794" lon="5.54955">
        <ele>1190</ele>
        <time>2022-08-12T08:12:16.000Z</time>
      </trkpt>
      <trkpt lat="45.12793" lon="5.54956">
        <ele>1190.4</ele>
        <time>2022-08-12T08:12:17.000Z</time>
      </trkpt>
      <trkpt lat="45.12792" lon="5.54957">
        <ele>1190.8</ele>
        <time>2022-08-12T08:12:18.000Z</time>
      </trkpt>
      <trkpt lat="45.12791" lon="5.54957">
        <ele>1191</ele>
        <time>2022-08-12T08:12:19.000Z</time>
      </trkpt>
      <trkpt lat="45.12789" lon="5.54959">
        <ele>1191.7</ele>
        <time>2022-08-12T08:12:20.000Z</time>
      </trkpt>
      <trkpt lat="45.12788" lon="5.5496">
        <ele>1192</ele>
        <time>2022-08-12T08:12:21.000Z</time>
      </trkpt>
      <trkpt lat="45.12788" lon="5.54961">
        <ele>1192.1</ele>
        <time>2022-08-12T08:12:22.000Z</time>
      </trkpt>
      <trkpt lat="45.12787" lon="5.54961">
        <ele>1192.2</ele>
        <time>2022-08-12T08:12:23.000Z</time>
      </trkpt>
      <trkpt lat="45.12785" lon="5.54963">
        <ele>1192.8</ele>
        <time>2022-08-12T08:12:24.000Z</time>
      </trkpt>
      <trkpt lat="45.12784" lon="5.54964">
        <ele>1193.4</ele>
        <time>2022-08-12T08:12:25.000Z</time>
      </trkpt>
      <trkpt lat="45.12784" lon="5.54965">
        <ele>1193.5</ele>
        <time>2022-08-12T08:12:26.000Z</time>
      </trkpt>
      <trkpt lat="45.12783" lon="5.54965">
        <ele>1193.6</ele>
        <time>2022-08-12T08:12:27.000Z</time>
      </trkpt>
      <trkpt lat="45.12783" lon="5.54966">
        <ele>1193.9</ele>
        <time>2022-08-12T08:12:28.000Z</time>
      </trkpt>
      <trkpt lat="45.12782" lon="5.54967">
        <ele>1194.4</ele>
        <time>2022-08-12T08:12:29.000Z</time>
      </trkpt>
      <trkpt lat="45.12781" lon="5.54969">
        <ele>1194.8</ele>
        <time>2022-08-12T08:12:30.000Z</time>
      </trkpt>
      <trkpt lat="45.12781" lon="5.5497">
        <ele>1195.1</ele>
        <time>2022-08-12T08:12:31.000Z</time>
      </trkpt>
      <trkpt lat="45.1278" lon="5.54971">
        <ele>1195.4</ele>
        <time>2022-08-12T08:12:32.000Z</time>
      </trkpt>
      <trkpt lat="45.12779" lon="5.54971">
        <ele>1195.6</ele>
        <time>2022-08-12T08:12:33.000Z</time>
      </trkpt>
      <trkpt lat="45.12778" lon="5.54971">
        <ele>1195.6</ele>
        <time>2022-08-12T08:12:34.000Z</time>
      </trkpt>
      <trkpt lat="45.12777" lon="5.54972">
        <ele>1196.1</ele>
        <time>2022-08-12T08:12:35.000Z</time>
      </trkpt>
      <trkpt lat="45.12775" lon="5.54974">
        <ele>1196.6</ele>
        <time>2022-08-12T08:12:36.000Z</time>
      </trkpt>
      <trkpt lat="45.12774" lon="5.54975">
        <ele>1197.1</ele>
        <time>2022-08-12T08:12:37.000Z</time>
      </trkpt>
      <trkpt lat="45.12774" lon="5.54976">
        <ele>1197.4</ele>
        <time>2022-08-12T08:12:38.000Z</time>
      </trkpt>
      <trkpt lat="45.12773" lon="5.54978">
        <ele>1197.9</ele>
        <time>2022-08-12T08:12:39.000Z</time>
      </trkpt>
      <trkpt lat="45.12773" lon="5.54979">
        <ele>1198.2</ele>
        <time>2022-08-12T08:12:40.000Z</time>
      </trkpt>
      <trkpt lat="45.12773" lon="5.5498">
        <ele>1198.7</ele>
        <time>2022-08-12T08:12:41.000Z</time>
      </trkpt>
      <trkpt lat="45.12771" lon="5.54981">
        <ele>1199.1</ele>
        <time>2022-08-12T08:12:42.000Z</time>
      </trkpt>
      <trkpt lat="45.1277" lon="5.54983">
        <ele>1199.6</ele>
        <time>2022-08-12T08:12:43.000Z</time>
      </trkpt>
      <trkpt lat="45.12768" lon="5.54984">
        <ele>1200.1</ele>
        <time>2022-08-12T08:12:44.000Z</time>
      </trkpt>
      <trkpt lat="45.12768" lon="5.54985">
        <ele>1200.4</ele>
        <time>2022-08-12T08:12:45.000Z</time>
      </trkpt>
      <trkpt lat="45.12767" lon="5.54986">
        <ele>1200.8</ele>
        <time>2022-08-12T08:12:46.000Z</time>
      </trkpt>
      <trkpt lat="45.12766" lon="5.54987">
        <ele>1201.2</ele>
        <time>2022-08-12T08:12:47.000Z</time>
      </trkpt>
      <trkpt lat="45.12765" lon="5.54988">
        <ele>1201.5</ele>
        <time>2022-08-12T08:12:48.000Z</time>
      </trkpt>
      <trkpt lat="45.12765" lon="5.54989">
        <ele>1201.9</ele>
        <time>2022-08-12T08:12:49.000Z</time>
      </trkpt>
      <trkpt lat="45.12764" lon="5.54991">
        <ele>1202.4</ele>
        <time>2022-08-12T08:12:50.000Z</time>
      </trkpt>
      <trkpt lat="45.12764" lon="5.54993">
        <ele>1203.1</ele>
        <time>2022-08-12T08:12:51.000Z</time>
      </trkpt>
      <trkpt lat="45.12763" lon="5.54995">
        <ele>1203.6</ele>
        <time>2022-08-12T08:12:52.000Z</time>
      </trkpt>
      <trkpt lat="45.12761" lon="5.54996">
        <ele>1203.9</ele>
        <time>2022-08-12T08:12:53.000Z</time>
      </trkpt>
      <trkpt lat="45.1276" lon="5.54997">
        <ele>1204.3</ele>
        <time>2022-08-12T08:12:55.000Z</time>
      </trkpt>
      <trkpt lat="45.1276" lon="5.54998">
        <ele>1204.7</ele>
        <time>2022-08-12T08:12:56.000Z</time>
      </trkpt>
      <trkpt lat="45.12759" lon="5.54998">
        <ele>1204.8</ele>
        <time>2022-08-12T08:12:57.000Z</time>
      </trkpt>
      <trkpt lat="45.12759" lon="5.54999">
        <ele>1205.1</ele>
        <time>2022-08-12T08:12:58.000Z</time>
      </trkpt>
      <trkpt lat="45.12758" lon="5.54999">
        <ele>1205.3</ele>
        <time>2022-08-12T08:12:59.000Z</time>
      </trkpt>
      <trkpt lat="45.12757" lon="5.55">
        <ele>1205.5</ele>
        <time>2022-08-12T08:13:00.000Z</time>
      </trkpt>
      <trkpt lat="45.12755" lon="5.55">
        <ele>1205.7</ele>
        <time>2022-08-12T08:13:01.000Z</time>
      </trkpt>
      <trkpt lat="45.12754" lon="5.55001">
        <ele>1206.1</ele>
        <time>2022-08-12T08:13:02.000Z</time>
      </trkpt>
      <trkpt lat="45.12754" lon="5.55002">
        <ele>1206.3</ele>
        <time>2022-08-12T08:13:03.000Z</time>
      </trkpt>
      <trkpt lat="45.12753" lon="5.55003">
        <ele>1206.5</ele>
        <time>2022-08-12T08:13:04.000Z</time>
      </trkpt>
      <trkpt lat="45.12752" lon="5.55003">
        <ele>1206.6</ele>
        <time>2022-08-12T08:13:05.000Z</time>
      </trkpt>
      <trkpt lat="45.12751" lon="5.55003">
        <ele>1206.7</ele>
        <time>2022-08-12T08:13:06.000Z</time>
      </trkpt>
      <trkpt lat="45.12749" lon="5.55004">
        <ele>1207</ele>
        <time>2022-08-12T08:13:07.000Z</time>
      </trkpt>
      <trkpt lat="45.12748" lon="5.55003">
        <ele>1207.1</ele>
        <time>2022-08-12T08:13:08.000Z</time>
      </trkpt>
      <trkpt lat="45.12748" lon="5.55002">
        <ele>1206.8</ele>
        <time>2022-08-12T08:13:09.000Z</time>
      </trkpt>
      <trkpt lat="45.12748" lon="5.55001">
        <ele>1206.4</ele>
        <time>2022-08-12T08:13:10.000Z</time>
      </trkpt>
      <trkpt lat="45.12748" lon="5.55">
        <ele>1206.3</ele>
        <time>2022-08-12T08:13:11.000Z</time>
      </trkpt>
      <trkpt lat="45.12747" lon="5.54999">
        <ele>1206</ele>
        <time>2022-08-12T08:13:13.000Z</time>
      </trkpt>
      <trkpt lat="45.12747" lon="5.54997">
        <ele>1205.8</ele>
        <time>2022-08-12T08:13:14.000Z</time>
      </trkpt>
      <trkpt lat="45.12746" lon="5.54997">
        <ele>1205.6</ele>
        <time>2022-08-12T08:13:15.000Z</time>
      </trkpt>
      <trkpt lat="45.12746" lon="5.54996">
        <ele>1205.4</ele>
        <time>2022-08-12T08:13:16.000Z</time>
      </trkpt>
      <trkpt lat="45.12746" lon="5.54995">
        <ele>1205</ele>
        <time>2022-08-12T08:13:17.000Z</time>
      </trkpt>
      <trkpt lat="45.12746" lon="5.54993">
        <ele>1204.6</ele>
        <time>2022-08-12T08:13:18.000Z</time>
      </trkpt>
      <trkpt lat="45.12745" lon="5.54991">
        <ele>1204.2</ele>
        <time>2022-08-12T08:13:19.000Z</time>
      </trkpt>
      <trkpt lat="45.12744" lon="5.54989">
        <ele>1203.9</ele>
        <time>2022-08-12T08:13:20.000Z</time>
      </trkpt>
      <trkpt lat="45.12743" lon="5.54989">
        <ele>1203.9</ele>
        <time>2022-08-12T08:13:21.000Z</time>
      </trkpt>
      <trkpt lat="45.12743" lon="5.54988">
        <ele>1203.7</ele>
        <time>2022-08-12T08:13:22.000Z</time>
      </trkpt>
      <trkpt lat="45.12743" lon="5.54986">
        <ele>1203.3</ele>
        <time>2022-08-12T08:13:23.000Z</time>
      </trkpt>
      <trkpt lat="45.12743" lon="5.54985">
        <ele>1202.8</ele>
        <time>2022-08-12T08:13:24.000Z</time>
      </trkpt>
      <trkpt lat="45.12742" lon="5.54983">
        <ele>1202.5</ele>
        <time>2022-08-12T08:13:25.000Z</time>
      </trkpt>
      <trkpt lat="45.12741" lon="5.54982">
        <ele>1202.4</ele>
        <time>2022-08-12T08:13:26.000Z</time>
      </trkpt>
      <trkpt lat="45.12741" lon="5.54981">
        <ele>1201.9</ele>
        <time>2022-08-12T08:13:27.000Z</time>
      </trkpt>
      <trkpt lat="45.12741" lon="5.54979">
        <ele>1201.5</ele>
        <time>2022-08-12T08:13:28.000Z</time>
      </trkpt>
      <trkpt lat="45.12741" lon="5.54977">
        <ele>1201.1</ele>
        <time>2022-08-12T08:13:29.000Z</time>
      </trkpt>
      <trkpt lat="45.1274" lon="5.54975">
        <ele>1200.6</ele>
        <time>2022-08-12T08:13:30.000Z</time>
      </trkpt>
      <trkpt lat="45.12739" lon="5.54974">
        <ele>1200.4</ele>
        <time>2022-08-12T08:13:31.000Z</time>
      </trkpt>
      <trkpt lat="45.12739" lon="5.54972">
        <ele>1200.1</ele>
        <time>2022-08-12T08:13:32.000Z</time>
      </trkpt>
      <trkpt lat="45.12737" lon="5.5497">
        <ele>1199.9</ele>
        <time>2022-08-12T08:13:33.000Z</time>
      </trkpt>
      <trkpt lat="45.12736" lon="5.54969">
        <ele>1199.8</ele>
        <time>2022-08-12T08:13:34.000Z</time>
      </trkpt>
      <trkpt lat="45.12735" lon="5.54968">
        <ele>1199.8</ele>
        <time>2022-08-12T08:13:35.000Z</time>
      </trkpt>
      <trkpt lat="45.12734" lon="5.54967">
        <ele>1199.6</ele>
        <time>2022-08-12T08:13:36.000Z</time>
      </trkpt>
      <trkpt lat="45.12734" lon="5.54966">
        <ele>1199.4</ele>
        <time>2022-08-12T08:13:37.000Z</time>
      </trkpt>
      <trkpt lat="45.12733" lon="5.54965">
        <ele>1199.5</ele>
        <time>2022-08-12T08:13:38.000Z</time>
      </trkpt>
      <trkpt lat="45.12732" lon="5.54965">
        <ele>1199.5</ele>
        <time>2022-08-12T08:13:39.000Z</time>
      </trkpt>
      <trkpt lat="45.12731" lon="5.54964">
        <ele>1199.6</ele>
        <time>2022-08-12T08:13:40.000Z</time>
      </trkpt>
      <trkpt lat="45.1273" lon="5.54963">
        <ele>1199.7</ele>
        <time>2022-08-12T08:13:41.000Z</time>
      </trkpt>
      <trkpt lat="45.12729" lon="5.54963">
        <ele>1199.8</ele>
        <time>2022-08-12T08:13:42.000Z</time>
      </trkpt>
      <trkpt lat="45.12728" lon="5.54962">
        <ele>1199.9</ele>
        <time>2022-08-12T08:13:43.000Z</time>
      </trkpt>
      <trkpt lat="45.12726" lon="5.54962">
        <ele>1200.1</ele>
        <time>2022-08-12T08:13:44.000Z</time>
      </trkpt>
      <trkpt lat="45.12725" lon="5.54962">
        <ele>1200.4</ele>
        <time>2022-08-12T08:13:45.000Z</time>
      </trkpt>
      <trkpt lat="45.12723" lon="5.54962">
        <ele>1200.6</ele>
        <time>2022-08-12T08:13:46.000Z</time>
      </trkpt>
      <trkpt lat="45.12722" lon="5.54963">
        <ele>1201</ele>
        <time>2022-08-12T08:13:47.000Z</time>
      </trkpt>
      <trkpt lat="45.1272" lon="5.54962">
        <ele>1201.2</ele>
        <time>2022-08-12T08:13:48.000Z</time>
      </trkpt>
      <trkpt lat="45.12719" lon="5.54962">
        <ele>1201.4</ele>
        <time>2022-08-12T08:13:49.000Z</time>
      </trkpt>
      <trkpt lat="45.12718" lon="5.54962">
        <ele>1201.7</ele>
        <time>2022-08-12T08:13:50.000Z</time>
      </trkpt>
      <trkpt lat="45.12716" lon="5.54962">
        <ele>1202.1</ele>
        <time>2022-08-12T08:13:51.000Z</time>
      </trkpt>
      <trkpt lat="45.12715" lon="5.54961">
        <ele>1202.2</ele>
        <time>2022-08-12T08:13:52.000Z</time>
      </trkpt>
      <trkpt lat="45.12714" lon="5.54961">
        <ele>1202.3</ele>
        <time>2022-08-12T08:13:53.000Z</time>
      </trkpt>
      <trkpt lat="45.12713" lon="5.54961">
        <ele>1202.6</ele>
        <time>2022-08-12T08:13:54.000Z</time>
      </trkpt>
      <trkpt lat="45.12712" lon="5.54962">
        <ele>1202.9</ele>
        <time>2022-08-12T08:13:55.000Z</time>
      </trkpt>
      <trkpt lat="45.12711" lon="5.54962">
        <ele>1203.3</ele>
        <time>2022-08-12T08:13:56.000Z</time>
      </trkpt>
      <trkpt lat="45.1271" lon="5.54963">
        <ele>1203.8</ele>
        <time>2022-08-12T08:13:57.000Z</time>
      </trkpt>
      <trkpt lat="45.12708" lon="5.54964">
        <ele>1204.4</ele>
        <time>2022-08-12T08:13:58.000Z</time>
      </trkpt>
      <trkpt lat="45.12707" lon="5.54965">
        <ele>1204.8</ele>
        <time>2022-08-12T08:13:59.000Z</time>
      </trkpt>
      <trkpt lat="45.12705" lon="5.54965">
        <ele>1205</ele>
        <time>2022-08-12T08:14:00.000Z</time>
      </trkpt>
      <trkpt lat="45.12703" lon="5.54965">
        <ele>1205.5</ele>
        <time>2022-08-12T08:14:01.000Z</time>
      </trkpt>
      <trkpt lat="45.12701" lon="5.54965">
        <ele>1206</ele>
        <time>2022-08-12T08:14:02.000Z</time>
      </trkpt>
      <trkpt lat="45.12699" lon="5.54965">
        <ele>1206.4</ele>
        <time>2022-08-12T08:14:03.000Z</time>
      </trkpt>
      <trkpt lat="45.12698" lon="5.54965">
        <ele>1206.6</ele>
        <time>2022-08-12T08:14:04.000Z</time>
      </trkpt>
      <trkpt lat="45.12697" lon="5.54964">
        <ele>1206.8</ele>
        <time>2022-08-12T08:14:06.000Z</time>
      </trkpt>
      <trkpt lat="45.12696" lon="5.54966">
        <ele>1207.3</ele>
        <time>2022-08-12T08:14:07.000Z</time>
      </trkpt>
      <trkpt lat="45.12695" lon="5.54966">
        <ele>1207.4</ele>
        <time>2022-08-12T08:14:08.000Z</time>
      </trkpt>
      <trkpt lat="45.12694" lon="5.54965">
        <ele>1207.5</ele>
        <time>2022-08-12T08:14:09.000Z</time>
      </trkpt>
      <trkpt lat="45.12693" lon="5.54965">
        <ele>1207.7</ele>
        <time>2022-08-12T08:14:10.000Z</time>
      </trkpt>
      <trkpt lat="45.12692" lon="5.54966">
        <ele>1208</ele>
        <time>2022-08-12T08:14:11.000Z</time>
      </trkpt>
      <trkpt lat="45.12691" lon="5.54966">
        <ele>1208.3</ele>
        <time>2022-08-12T08:14:12.000Z</time>
      </trkpt>
      <trkpt lat="45.1269" lon="5.54967">
        <ele>1208.4</ele>
        <time>2022-08-12T08:14:13.000Z</time>
      </trkpt>
      <trkpt lat="45.12689" lon="5.54968">
        <ele>1208.8</ele>
        <time>2022-08-12T08:14:15.000Z</time>
      </trkpt>
      <trkpt lat="45.12688" lon="5.54968">
        <ele>1209</ele>
        <time>2022-08-12T08:14:16.000Z</time>
      </trkpt>
      <trkpt lat="45.12687" lon="5.54968">
        <ele>1209.3</ele>
        <time>2022-08-12T08:14:17.000Z</time>
      </trkpt>
      <trkpt lat="45.12686" lon="5.54968">
        <ele>1209.5</ele>
        <time>2022-08-12T08:14:18.000Z</time>
      </trkpt>
      <trkpt lat="45.12685" lon="5.54969">
        <ele>1209.6</ele>
        <time>2022-08-12T08:14:19.000Z</time>
      </trkpt>
      <trkpt lat="45.12685" lon="5.54968">
        <ele>1209.6</ele>
        <time>2022-08-12T08:14:21.000Z</time>
      </trkpt>
      <trkpt lat="45.12684" lon="5.54968">
        <ele>1209.6</ele>
        <time>2022-08-12T08:14:22.000Z</time>
      </trkpt>
      <trkpt lat="45.12684" lon="5.54969">
        <ele>1209.8</ele>
        <time>2022-08-12T08:14:23.000Z</time>
      </trkpt>
      <trkpt lat="45.12683" lon="5.54969">
        <ele>1210.1</ele>
        <time>2022-08-12T08:14:24.000Z</time>
      </trkpt>
      <trkpt lat="45.12682" lon="5.54969">
        <ele>1210.2</ele>
        <time>2022-08-12T08:14:26.000Z</time>
      </trkpt>
      <trkpt lat="45.12681" lon="5.5497">
        <ele>1210.5</ele>
        <time>2022-08-12T08:14:27.000Z</time>
      </trkpt>
      <trkpt lat="45.12679" lon="5.54971">
        <ele>1210.9</ele>
        <time>2022-08-12T08:14:28.000Z</time>
      </trkpt>
      <trkpt lat="45.12677" lon="5.54971">
        <ele>1211.3</ele>
        <time>2022-08-12T08:14:29.000Z</time>
      </trkpt>
      <trkpt lat="45.12675" lon="5.54971">
        <ele>1211.6</ele>
        <time>2022-08-12T08:14:30.000Z</time>
      </trkpt>
      <trkpt lat="45.12674" lon="5.54972">
        <ele>1211.9</ele>
        <time>2022-08-12T08:14:31.000Z</time>
      </trkpt>
      <trkpt lat="45.12672" lon="5.54972">
        <ele>1212.2</ele>
        <time>2022-08-12T08:14:32.000Z</time>
      </trkpt>
      <trkpt lat="45.12671" lon="5.54972">
        <ele>1212.5</ele>
        <time>2022-08-12T08:14:33.000Z</time>
      </trkpt>
      <trkpt lat="45.1267" lon="5.54973">
        <ele>1212.6</ele>
        <time>2022-08-12T08:14:34.000Z</time>
      </trkpt>
      <trkpt lat="45.12668" lon="5.54973">
        <ele>1212.8</ele>
        <time>2022-08-12T08:14:36.000Z</time>
      </trkpt>
      <trkpt lat="45.12667" lon="5.54973">
        <ele>1213</ele>
        <time>2022-08-12T08:14:37.000Z</time>
      </trkpt>
      <trkpt lat="45.12666" lon="5.54973">
        <ele>1213.2</ele>
        <time>2022-08-12T08:14:38.000Z</time>
      </trkpt>
      <trkpt lat="45.12664" lon="5.54974">
        <ele>1213.5</ele>
        <time>2022-08-12T08:14:39.000Z</time>
      </trkpt>
      <trkpt lat="45.12663" lon="5.54975">
        <ele>1214</ele>
        <time>2022-08-12T08:14:40.000Z</time>
      </trkpt>
      <trkpt lat="45.12662" lon="5.54975">
        <ele>1214</ele>
        <time>2022-08-12T08:14:41.000Z</time>
      </trkpt>
      <trkpt lat="45.12661" lon="5.54975">
        <ele>1214.2</ele>
        <time>2022-08-12T08:14:42.000Z</time>
      </trkpt>
      <trkpt lat="45.1266" lon="5.54976">
        <ele>1214.3</ele>
        <time>2022-08-12T08:14:43.000Z</time>
      </trkpt>
      <trkpt lat="45.12657" lon="5.54976">
        <ele>1214.6</ele>
        <time>2022-08-12T08:14:44.000Z</time>
      </trkpt>
      <trkpt lat="45.12655" lon="5.54978">
        <ele>1215.2</ele>
        <time>2022-08-12T08:14:45.000Z</time>
      </trkpt>
      <trkpt lat="45.12654" lon="5.54978">
        <ele>1215.3</ele>
        <time>2022-08-12T08:14:46.000Z</time>
      </trkpt>
      <trkpt lat="45.12653" lon="5.54978">
        <ele>1215.3</ele>
        <time>2022-08-12T08:14:48.000Z</time>
      </trkpt>
      <trkpt lat="45.12652" lon="5.54978">
        <ele>1215.5</ele>
        <time>2022-08-12T08:14:49.000Z</time>
      </trkpt>
      <trkpt lat="45.12651" lon="5.54979">
        <ele>1215.7</ele>
        <time>2022-08-12T08:14:50.000Z</time>
      </trkpt>
      <trkpt lat="45.1265" lon="5.54979">
        <ele>1215.9</ele>
        <time>2022-08-12T08:14:51.000Z</time>
      </trkpt>
      <trkpt lat="45.12649" lon="5.54979">
        <ele>1216</ele>
        <time>2022-08-12T08:14:52.000Z</time>
      </trkpt>
      <trkpt lat="45.12646" lon="5.54979">
        <ele>1216.2</ele>
        <time>2022-08-12T08:14:53.000Z</time>
      </trkpt>
      <trkpt lat="45.12645" lon="5.5498">
        <ele>1216.4</ele>
        <time>2022-08-12T08:14:54.000Z</time>
      </trkpt>
      <trkpt lat="45.12644" lon="5.5498">
        <ele>1216.7</ele>
        <time>2022-08-12T08:14:55.000Z</time>
      </trkpt>
      <trkpt lat="45.12642" lon="5.54981">
        <ele>1217</ele>
        <time>2022-08-12T08:14:56.000Z</time>
      </trkpt>
      <trkpt lat="45.12641" lon="5.54982">
        <ele>1217.2</ele>
        <time>2022-08-12T08:14:57.000Z</time>
      </trkpt>
      <trkpt lat="45.1264" lon="5.54982">
        <ele>1217.3</ele>
        <time>2022-08-12T08:14:58.000Z</time>
      </trkpt>
      <trkpt lat="45.12639" lon="5.54982">
        <ele>1217.4</ele>
        <time>2022-08-12T08:14:59.000Z</time>
      </trkpt>
      <trkpt lat="45.12637" lon="5.54982">
        <ele>1217.6</ele>
        <time>2022-08-12T08:15:00.000Z</time>
      </trkpt>
      <trkpt lat="45.12635" lon="5.54983">
        <ele>1217.8</ele>
        <time>2022-08-12T08:15:01.000Z</time>
      </trkpt>
      <trkpt lat="45.12634" lon="5.54983">
        <ele>1217.9</ele>
        <time>2022-08-12T08:15:02.000Z</time>
      </trkpt>
      <trkpt lat="45.12633" lon="5.54983">
        <ele>1218</ele>
        <time>2022-08-12T08:15:03.000Z</time>
      </trkpt>
      <trkpt lat="45.12631" lon="5.54983">
        <ele>1218.1</ele>
        <time>2022-08-12T08:15:04.000Z</time>
      </trkpt>
      <trkpt lat="45.1263" lon="5.54983">
        <ele>1218.2</ele>
        <time>2022-08-12T08:15:05.000Z</time>
      </trkpt>
      <trkpt lat="45.12629" lon="5.54982">
        <ele>1218.1</ele>
        <time>2022-08-12T08:15:06.000Z</time>
      </trkpt>
      <trkpt lat="45.12628" lon="5.54982">
        <ele>1218.1</ele>
        <time>2022-08-12T08:15:07.000Z</time>
      </trkpt>
      <trkpt lat="45.12626" lon="5.54982">
        <ele>1218.3</ele>
        <time>2022-08-12T08:15:09.000Z</time>
      </trkpt>
      <trkpt lat="45.12625" lon="5.54983">
        <ele>1218.5</ele>
        <time>2022-08-12T08:15:10.000Z</time>
      </trkpt>
      <trkpt lat="45.12624" lon="5.54983">
        <ele>1218.6</ele>
        <time>2022-08-12T08:15:11.000Z</time>
      </trkpt>
      <trkpt lat="45.12623" lon="5.54984">
        <ele>1218.9</ele>
        <time>2022-08-12T08:15:12.000Z</time>
      </trkpt>
      <trkpt lat="45.12621" lon="5.54986">
        <ele>1219.3</ele>
        <time>2022-08-12T08:15:13.000Z</time>
      </trkpt>
      <trkpt lat="45.12619" lon="5.54986">
        <ele>1219.4</ele>
        <time>2022-08-12T08:15:14.000Z</time>
      </trkpt>
      <trkpt lat="45.12618" lon="5.54987">
        <ele>1219.6</ele>
        <time>2022-08-12T08:15:15.000Z</time>
      </trkpt>
      <trkpt lat="45.12617" lon="5.54987">
        <ele>1219.7</ele>
        <time>2022-08-12T08:15:17.000Z</time>
      </trkpt>
      <trkpt lat="45.12615" lon="5.54987">
        <ele>1219.8</ele>
        <time>2022-08-12T08:15:18.000Z</time>
      </trkpt>
      <trkpt lat="45.12614" lon="5.54987">
        <ele>1220</ele>
        <time>2022-08-12T08:15:19.000Z</time>
      </trkpt>
      <trkpt lat="45.12613" lon="5.54988">
        <ele>1220.1</ele>
        <time>2022-08-12T08:15:20.000Z</time>
      </trkpt>
      <trkpt lat="45.12612" lon="5.54989">
        <ele>1220.3</ele>
        <time>2022-08-12T08:15:21.000Z</time>
      </trkpt>
      <trkpt lat="45.12611" lon="5.5499">
        <ele>1220.5</ele>
        <time>2022-08-12T08:15:22.000Z</time>
      </trkpt>
      <trkpt lat="45.1261" lon="5.54991">
        <ele>1220.7</ele>
        <time>2022-08-12T08:15:23.000Z</time>
      </trkpt>
      <trkpt lat="45.12609" lon="5.54991">
        <ele>1220.8</ele>
        <time>2022-08-12T08:15:25.000Z</time>
      </trkpt>
      <trkpt lat="45.12608" lon="5.5499">
        <ele>1220.6</ele>
        <time>2022-08-12T08:15:26.000Z</time>
      </trkpt>
      <trkpt lat="45.12607" lon="5.5499">
        <ele>1220.6</ele>
        <time>2022-08-12T08:15:27.000Z</time>
      </trkpt>
      <trkpt lat="45.12605" lon="5.5499">
        <ele>1220.6</ele>
        <time>2022-08-12T08:15:28.000Z</time>
      </trkpt>
      <trkpt lat="45.12604" lon="5.5499">
        <ele>1220.7</ele>
        <time>2022-08-12T08:15:29.000Z</time>
      </trkpt>
      <trkpt lat="45.12603" lon="5.5499">
        <ele>1220.7</ele>
        <time>2022-08-12T08:15:30.000Z</time>
      </trkpt>
      <trkpt lat="45.12602" lon="5.54991">
        <ele>1220.8</ele>
        <time>2022-08-12T08:15:31.000Z</time>
      </trkpt>
      <trkpt lat="45.12601" lon="5.54991">
        <ele>1220.9</ele>
        <time>2022-08-12T08:15:32.000Z</time>
      </trkpt>
      <trkpt lat="45.126" lon="5.54992">
        <ele>1220.9</ele>
        <time>2022-08-12T08:15:33.000Z</time>
      </trkpt>
      <trkpt lat="45.12599" lon="5.54993">
        <ele>1221.1</ele>
        <time>2022-08-12T08:15:34.000Z</time>
      </trkpt>
      <trkpt lat="45.12598" lon="5.54994">
        <ele>1221.2</ele>
        <time>2022-08-12T08:15:35.000Z</time>
      </trkpt>
      <trkpt lat="45.12597" lon="5.54994">
        <ele>1221.3</ele>
        <time>2022-08-12T08:15:36.000Z</time>
      </trkpt>
      <trkpt lat="45.12596" lon="5.54995">
        <ele>1221.3</ele>
        <time>2022-08-12T08:15:37.000Z</time>
      </trkpt>
      <trkpt lat="45.12596" lon="5.54994">
        <ele>1221.3</ele>
        <time>2022-08-12T08:15:38.000Z</time>
      </trkpt>
      <trkpt lat="45.12594" lon="5.54994">
        <ele>1221.2</ele>
        <time>2022-08-12T08:15:39.000Z</time>
      </trkpt>
      <trkpt lat="45.12593" lon="5.54994">
        <ele>1221.3</ele>
        <time>2022-08-12T08:15:40.000Z</time>
      </trkpt>
      <trkpt lat="45.12591" lon="5.54994">
        <ele>1221.3</ele>
        <time>2022-08-12T08:15:41.000Z</time>
      </trkpt>
      <trkpt lat="45.1259" lon="5.54995">
        <ele>1221.5</ele>
        <time>2022-08-12T08:15:42.000Z</time>
      </trkpt>
      <trkpt lat="45.12589" lon="5.54997">
        <ele>1221.6</ele>
        <time>2022-08-12T08:15:43.000Z</time>
      </trkpt>
      <trkpt lat="45.12588" lon="5.54998">
        <ele>1221.8</ele>
        <time>2022-08-12T08:15:44.000Z</time>
      </trkpt>
      <trkpt lat="45.12587" lon="5.55">
        <ele>1222</ele>
        <time>2022-08-12T08:15:45.000Z</time>
      </trkpt>
      <trkpt lat="45.12586" lon="5.55001">
        <ele>1222.2</ele>
        <time>2022-08-12T08:15:46.000Z</time>
      </trkpt>
      <trkpt lat="45.12585" lon="5.55003">
        <ele>1222.4</ele>
        <time>2022-08-12T08:15:47.000Z</time>
      </trkpt>
      <trkpt lat="45.12584" lon="5.55005">
        <ele>1222.7</ele>
        <time>2022-08-12T08:15:48.000Z</time>
      </trkpt>
      <trkpt lat="45.12583" lon="5.55007">
        <ele>1223</ele>
        <time>2022-08-12T08:15:49.000Z</time>
      </trkpt>
      <trkpt lat="45.12582" lon="5.55009">
        <ele>1223.3</ele>
        <time>2022-08-12T08:15:50.000Z</time>
      </trkpt>
      <trkpt lat="45.12583" lon="5.5501">
        <ele>1223.5</ele>
        <time>2022-08-12T08:15:51.000Z</time>
      </trkpt>
      <trkpt lat="45.12582" lon="5.55012">
        <ele>1223.8</ele>
        <time>2022-08-12T08:15:52.000Z</time>
      </trkpt>
      <trkpt lat="45.12582" lon="5.55015">
        <ele>1224.2</ele>
        <time>2022-08-12T08:15:53.000Z</time>
      </trkpt>
      <trkpt lat="45.1258" lon="5.55016">
        <ele>1224.4</ele>
        <time>2022-08-12T08:15:54.000Z</time>
      </trkpt>
      <trkpt lat="45.12578" lon="5.55017">
        <ele>1224.5</ele>
        <time>2022-08-12T08:15:55.000Z</time>
      </trkpt>
      <trkpt lat="45.12577" lon="5.55018">
        <ele>1224.7</ele>
        <time>2022-08-12T08:15:56.000Z</time>
      </trkpt>
      <trkpt lat="45.12576" lon="5.55019">
        <ele>1224.8</ele>
        <time>2022-08-12T08:15:57.000Z</time>
      </trkpt>
      <trkpt lat="45.12575" lon="5.55019">
        <ele>1224.9</ele>
        <time>2022-08-12T08:15:58.000Z</time>
      </trkpt>
      <trkpt lat="45.12574" lon="5.5502">
        <ele>1225</ele>
        <time>2022-08-12T08:15:59.000Z</time>
      </trkpt>
      <trkpt lat="45.12573" lon="5.55023">
        <ele>1225.3</ele>
        <time>2022-08-12T08:16:00.000Z</time>
      </trkpt>
      <trkpt lat="45.12571" lon="5.55024">
        <ele>1225.5</ele>
        <time>2022-08-12T08:16:01.000Z</time>
      </trkpt>
      <trkpt lat="45.1257" lon="5.55024">
        <ele>1225.6</ele>
        <time>2022-08-12T08:16:02.000Z</time>
      </trkpt>
      <trkpt lat="45.12569" lon="5.55025">
        <ele>1225.7</ele>
        <time>2022-08-12T08:16:03.000Z</time>
      </trkpt>
      <trkpt lat="45.12567" lon="5.55026">
        <ele>1225.8</ele>
        <time>2022-08-12T08:16:04.000Z</time>
      </trkpt>
      <trkpt lat="45.12565" lon="5.55025">
        <ele>1225.7</ele>
        <time>2022-08-12T08:16:05.000Z</time>
      </trkpt>
      <trkpt lat="45.12565" lon="5.55027">
        <ele>1225.9</ele>
        <time>2022-08-12T08:16:06.000Z</time>
      </trkpt>
      <trkpt lat="45.12565" lon="5.55028">
        <ele>1226</ele>
        <time>2022-08-12T08:16:07.000Z</time>
      </trkpt>
      <trkpt lat="45.12564" lon="5.55029">
        <ele>1226.2</ele>
        <time>2022-08-12T08:16:08.000Z</time>
      </trkpt>
      <trkpt lat="45.12563" lon="5.5503">
        <ele>1226.4</ele>
        <time>2022-08-12T08:16:09.000Z</time>
      </trkpt>
      <trkpt lat="45.12562" lon="5.55032">
        <ele>1226.6</ele>
        <time>2022-08-12T08:16:10.000Z</time>
      </trkpt>
      <trkpt lat="45.12561" lon="5.55032">
        <ele>1226.7</ele>
        <time>2022-08-12T08:16:11.000Z</time>
      </trkpt>
      <trkpt lat="45.1256" lon="5.55033">
        <ele>1226.8</ele>
        <time>2022-08-12T08:16:12.000Z</time>
      </trkpt>
      <trkpt lat="45.12559" lon="5.55034">
        <ele>1226.9</ele>
        <time>2022-08-12T08:16:13.000Z</time>
      </trkpt>
      <trkpt lat="45.12558" lon="5.55035">
        <ele>1227</ele>
        <time>2022-08-12T08:16:14.000Z</time>
      </trkpt>
      <trkpt lat="45.12557" lon="5.55036">
        <ele>1227.2</ele>
        <time>2022-08-12T08:16:15.000Z</time>
      </trkpt>
      <trkpt lat="45.12557" lon="5.55037">
        <ele>1227.3</ele>
        <time>2022-08-12T08:16:16.000Z</time>
      </trkpt>
      <trkpt lat="45.12556" lon="5.55037">
        <ele>1227.4</ele>
        <time>2022-08-12T08:16:17.000Z</time>
      </trkpt>
      <trkpt lat="45.12555" lon="5.55038">
        <ele>1227.5</ele>
        <time>2022-08-12T08:16:18.000Z</time>
      </trkpt>
      <trkpt lat="45.12554" lon="5.55039">
        <ele>1227.7</ele>
        <time>2022-08-12T08:16:19.000Z</time>
      </trkpt>
      <trkpt lat="45.12553" lon="5.5504">
        <ele>1227.8</ele>
        <time>2022-08-12T08:16:20.000Z</time>
      </trkpt>
      <trkpt lat="45.12552" lon="5.55041">
        <ele>1227.9</ele>
        <time>2022-08-12T08:16:21.000Z</time>
      </trkpt>
      <trkpt lat="45.12551" lon="5.55042">
        <ele>1228</ele>
        <time>2022-08-12T08:16:22.000Z</time>
      </trkpt>
      <trkpt lat="45.1255" lon="5.55043">
        <ele>1228.2</ele>
        <time>2022-08-12T08:16:23.000Z</time>
      </trkpt>
      <trkpt lat="45.12549" lon="5.55044">
        <ele>1228.3</ele>
        <time>2022-08-12T08:16:24.000Z</time>
      </trkpt>
      <trkpt lat="45.12548" lon="5.55045">
        <ele>1228.4</ele>
        <time>2022-08-12T08:16:25.000Z</time>
      </trkpt>
      <trkpt lat="45.12547" lon="5.55045">
        <ele>1228.5</ele>
        <time>2022-08-12T08:16:26.000Z</time>
      </trkpt>
      <trkpt lat="45.12546" lon="5.55047">
        <ele>1228.6</ele>
        <time>2022-08-12T08:16:27.000Z</time>
      </trkpt>
      <trkpt lat="45.12544" lon="5.55048">
        <ele>1228.7</ele>
        <time>2022-08-12T08:16:28.000Z</time>
      </trkpt>
      <trkpt lat="45.12543" lon="5.55049">
        <ele>1228.9</ele>
        <time>2022-08-12T08:16:29.000Z</time>
      </trkpt>
      <trkpt lat="45.12543" lon="5.5505">
        <ele>1229</ele>
        <time>2022-08-12T08:16:30.000Z</time>
      </trkpt>
      <trkpt lat="45.12542" lon="5.55052">
        <ele>1229.1</ele>
        <time>2022-08-12T08:16:31.000Z</time>
      </trkpt>
      <trkpt lat="45.12541" lon="5.55053">
        <ele>1229.2</ele>
        <time>2022-08-12T08:16:32.000Z</time>
      </trkpt>
      <trkpt lat="45.1254" lon="5.55054">
        <ele>1229.2</ele>
        <time>2022-08-12T08:16:34.000Z</time>
      </trkpt>
      <trkpt lat="45.12539" lon="5.55055">
        <ele>1229.4</ele>
        <time>2022-08-12T08:16:35.000Z</time>
      </trkpt>
      <trkpt lat="45.12539" lon="5.55057">
        <ele>1229.5</ele>
        <time>2022-08-12T08:16:36.000Z</time>
      </trkpt>
      <trkpt lat="45.12538" lon="5.55059">
        <ele>1229.7</ele>
        <time>2022-08-12T08:16:37.000Z</time>
      </trkpt>
      <trkpt lat="45.12536" lon="5.5506">
        <ele>1229.8</ele>
        <time>2022-08-12T08:16:38.000Z</time>
      </trkpt>
      <trkpt lat="45.12536" lon="5.55062">
        <ele>1229.9</ele>
        <time>2022-08-12T08:16:39.000Z</time>
      </trkpt>
      <trkpt lat="45.12534" lon="5.55063">
        <ele>1230.1</ele>
        <time>2022-08-12T08:16:40.000Z</time>
      </trkpt>
      <trkpt lat="45.12533" lon="5.55064">
        <ele>1230.1</ele>
        <time>2022-08-12T08:16:41.000Z</time>
      </trkpt>
      <trkpt lat="45.12532" lon="5.55066">
        <ele>1230.2</ele>
        <time>2022-08-12T08:16:42.000Z</time>
      </trkpt>
      <trkpt lat="45.12532" lon="5.55067">
        <ele>1230.4</ele>
        <time>2022-08-12T08:16:43.000Z</time>
      </trkpt>
      <trkpt lat="45.12531" lon="5.55068">
        <ele>1230.5</ele>
        <time>2022-08-12T08:16:44.000Z</time>
      </trkpt>
      <trkpt lat="45.1253" lon="5.5507">
        <ele>1230.7</ele>
        <time>2022-08-12T08:16:45.000Z</time>
      </trkpt>
      <trkpt lat="45.12529" lon="5.55073">
        <ele>1230.9</ele>
        <time>2022-08-12T08:16:46.000Z</time>
      </trkpt>
      <trkpt lat="45.12528" lon="5.55075">
        <ele>1231.1</ele>
        <time>2022-08-12T08:16:47.000Z</time>
      </trkpt>
      <trkpt lat="45.12527" lon="5.55076">
        <ele>1231.2</ele>
        <time>2022-08-12T08:16:48.000Z</time>
      </trkpt>
      <trkpt lat="45.12526" lon="5.55078">
        <ele>1231.4</ele>
        <time>2022-08-12T08:16:49.000Z</time>
      </trkpt>
      <trkpt lat="45.12526" lon="5.5508">
        <ele>1231.6</ele>
        <time>2022-08-12T08:16:50.000Z</time>
      </trkpt>
      <trkpt lat="45.12525" lon="5.55081">
        <ele>1231.7</ele>
        <time>2022-08-12T08:16:51.000Z</time>
      </trkpt>
      <trkpt lat="45.12524" lon="5.55082">
        <ele>1231.9</ele>
        <time>2022-08-12T08:16:52.000Z</time>
      </trkpt>
      <trkpt lat="45.12524" lon="5.55083">
        <ele>1232</ele>
        <time>2022-08-12T08:16:53.000Z</time>
      </trkpt>
      <trkpt lat="45.12522" lon="5.55085">
        <ele>1232.1</ele>
        <time>2022-08-12T08:16:54.000Z</time>
      </trkpt>
      <trkpt lat="45.12522" lon="5.55086">
        <ele>1232.2</ele>
        <time>2022-08-12T08:16:55.000Z</time>
      </trkpt>
      <trkpt lat="45.12519" lon="5.55089">
        <ele>1232.3</ele>
        <time>2022-08-12T08:16:56.000Z</time>
      </trkpt>
      <trkpt lat="45.12517" lon="5.55091">
        <ele>1232.4</ele>
        <time>2022-08-12T08:16:57.000Z</time>
      </trkpt>
      <trkpt lat="45.12516" lon="5.55092">
        <ele>1232.5</ele>
        <time>2022-08-12T08:16:58.000Z</time>
      </trkpt>
      <trkpt lat="45.12516" lon="5.55094">
        <ele>1232.6</ele>
        <time>2022-08-12T08:16:59.000Z</time>
      </trkpt>
      <trkpt lat="45.12515" lon="5.55095">
        <ele>1232.6</ele>
        <time>2022-08-12T08:17:00.000Z</time>
      </trkpt>
      <trkpt lat="45.12515" lon="5.55096">
        <ele>1232.7</ele>
        <time>2022-08-12T08:17:01.000Z</time>
      </trkpt>
      <trkpt lat="45.12514" lon="5.55098">
        <ele>1232.8</ele>
        <time>2022-08-12T08:17:02.000Z</time>
      </trkpt>
      <trkpt lat="45.12514" lon="5.55099">
        <ele>1232.9</ele>
        <time>2022-08-12T08:17:03.000Z</time>
      </trkpt>
      <trkpt lat="45.12514" lon="5.551">
        <ele>1232.9</ele>
        <time>2022-08-12T08:17:04.000Z</time>
      </trkpt>
      <trkpt lat="45.12513" lon="5.55102">
        <ele>1233</ele>
        <time>2022-08-12T08:17:05.000Z</time>
      </trkpt>
      <trkpt lat="45.12513" lon="5.55104">
        <ele>1233.1</ele>
        <time>2022-08-12T08:17:06.000Z</time>
      </trkpt>
      <trkpt lat="45.12512" lon="5.55105">
        <ele>1233.1</ele>
        <time>2022-08-12T08:17:07.000Z</time>
      </trkpt>
      <trkpt lat="45.12511" lon="5.55107">
        <ele>1233.2</ele>
        <time>2022-08-12T08:17:08.000Z</time>
      </trkpt>
      <trkpt lat="45.1251" lon="5.55108">
        <ele>1233.2</ele>
        <time>2022-08-12T08:17:09.000Z</time>
      </trkpt>
      <trkpt lat="45.12509" lon="5.55108">
        <ele>1233.2</ele>
        <time>2022-08-12T08:17:10.000Z</time>
      </trkpt>
      <trkpt lat="45.12508" lon="5.55109">
        <ele>1233.2</ele>
        <time>2022-08-12T08:17:11.000Z</time>
      </trkpt>
      <trkpt lat="45.12506" lon="5.55111">
        <ele>1233.2</ele>
        <time>2022-08-12T08:17:12.000Z</time>
      </trkpt>
      <trkpt lat="45.12505" lon="5.55112">
        <ele>1233.2</ele>
        <time>2022-08-12T08:17:13.000Z</time>
      </trkpt>
      <trkpt lat="45.12505" lon="5.55113">
        <ele>1233.3</ele>
        <time>2022-08-12T08:17:14.000Z</time>
      </trkpt>
      <trkpt lat="45.12504" lon="5.55114">
        <ele>1233.3</ele>
        <time>2022-08-12T08:17:15.000Z</time>
      </trkpt>
      <trkpt lat="45.12503" lon="5.55115">
        <ele>1233.3</ele>
        <time>2022-08-12T08:17:16.000Z</time>
      </trkpt>
      <trkpt lat="45.12503" lon="5.55116">
        <ele>1233.3</ele>
        <time>2022-08-12T08:17:17.000Z</time>
      </trkpt>
      <trkpt lat="45.12502" lon="5.55118">
        <ele>1233.3</ele>
        <time>2022-08-12T08:17:18.000Z</time>
      </trkpt>
      <trkpt lat="45.12501" lon="5.55119">
        <ele>1233.3</ele>
        <time>2022-08-12T08:17:19.000Z</time>
      </trkpt>
      <trkpt lat="45.125" lon="5.55121">
        <ele>1233.3</ele>
        <time>2022-08-12T08:17:20.000Z</time>
      </trkpt>
      <trkpt lat="45.12498" lon="5.55122">
        <ele>1233.4</ele>
        <time>2022-08-12T08:17:21.000Z</time>
      </trkpt>
      <trkpt lat="45.12497" lon="5.55123">
        <ele>1233.4</ele>
        <time>2022-08-12T08:17:22.000Z</time>
      </trkpt>
      <trkpt lat="45.12496" lon="5.55124">
        <ele>1233.5</ele>
        <time>2022-08-12T08:17:23.000Z</time>
      </trkpt>
      <trkpt lat="45.12495" lon="5.55125">
        <ele>1233.5</ele>
        <time>2022-08-12T08:17:24.000Z</time>
      </trkpt>
      <trkpt lat="45.12493" lon="5.55125">
        <ele>1233.5</ele>
        <time>2022-08-12T08:17:25.000Z</time>
      </trkpt>
      <trkpt lat="45.12492" lon="5.55126">
        <ele>1233.5</ele>
        <time>2022-08-12T08:17:26.000Z</time>
      </trkpt>
      <trkpt lat="45.1249" lon="5.55127">
        <ele>1233.5</ele>
        <time>2022-08-12T08:17:27.000Z</time>
      </trkpt>
      <trkpt lat="45.12489" lon="5.55126">
        <ele>1233.5</ele>
        <time>2022-08-12T08:17:28.000Z</time>
      </trkpt>
      <trkpt lat="45.12487" lon="5.55126">
        <ele>1233.5</ele>
        <time>2022-08-12T08:17:29.000Z</time>
      </trkpt>
      <trkpt lat="45.12486" lon="5.55125">
        <ele>1233.5</ele>
        <time>2022-08-12T08:17:30.000Z</time>
      </trkpt>
      <trkpt lat="45.12484" lon="5.55124">
        <ele>1233.5</ele>
        <time>2022-08-12T08:17:31.000Z</time>
      </trkpt>
      <trkpt lat="45.1248" lon="5.55121">
        <ele>1233.6</ele>
        <time>2022-08-12T08:17:34.000Z</time>
      </trkpt>
      <trkpt lat="45.12479" lon="5.5512">
        <ele>1233.6</ele>
        <time>2022-08-12T08:17:35.000Z</time>
      </trkpt>
      <trkpt lat="45.12478" lon="5.55118">
        <ele>1233.6</ele>
        <time>2022-08-12T08:17:36.000Z</time>
      </trkpt>
      <trkpt lat="45.12478" lon="5.55116">
        <ele>1233.7</ele>
        <time>2022-08-12T08:17:37.000Z</time>
      </trkpt>
      <trkpt lat="45.12478" lon="5.55115">
        <ele>1233.7</ele>
        <time>2022-08-12T08:17:38.000Z</time>
      </trkpt>
      <trkpt lat="45.12477" lon="5.55112">
        <ele>1233.8</ele>
        <time>2022-08-12T08:17:39.000Z</time>
      </trkpt>
      <trkpt lat="45.12478" lon="5.5511">
        <ele>1233.8</ele>
        <time>2022-08-12T08:17:40.000Z</time>
      </trkpt>
      <trkpt lat="45.12478" lon="5.55107">
        <ele>1233.8</ele>
        <time>2022-08-12T08:17:41.000Z</time>
      </trkpt>
      <trkpt lat="45.12478" lon="5.55104">
        <ele>1233.7</ele>
        <time>2022-08-12T08:17:42.000Z</time>
      </trkpt>
      <trkpt lat="45.12478" lon="5.55102">
        <ele>1233.7</ele>
        <time>2022-08-12T08:17:43.000Z</time>
      </trkpt>
      <trkpt lat="45.12478" lon="5.55101">
        <ele>1233.7</ele>
        <time>2022-08-12T08:17:44.000Z</time>
      </trkpt>
      <trkpt lat="45.12477" lon="5.55099">
        <ele>1233.8</ele>
        <time>2022-08-12T08:17:45.000Z</time>
      </trkpt>
      <trkpt lat="45.12477" lon="5.55098">
        <ele>1233.8</ele>
        <time>2022-08-12T08:17:46.000Z</time>
      </trkpt>
      <trkpt lat="45.12476" lon="5.55096">
        <ele>1233.8</ele>
        <time>2022-08-12T08:17:47.000Z</time>
      </trkpt>
      <trkpt lat="45.12477" lon="5.55092">
        <ele>1233.7</ele>
        <time>2022-08-12T08:17:49.000Z</time>
      </trkpt>
      <trkpt lat="45.12477" lon="5.5509">
        <ele>1233.7</ele>
        <time>2022-08-12T08:17:50.000Z</time>
      </trkpt>
      <trkpt lat="45.12477" lon="5.55087">
        <ele>1233.7</ele>
        <time>2022-08-12T08:17:51.000Z</time>
      </trkpt>
      <trkpt lat="45.12477" lon="5.55085">
        <ele>1233.7</ele>
        <time>2022-08-12T08:17:52.000Z</time>
      </trkpt>
      <trkpt lat="45.12476" lon="5.55082">
        <ele>1233.7</ele>
        <time>2022-08-12T08:17:53.000Z</time>
      </trkpt>
      <trkpt lat="45.12476" lon="5.55081">
        <ele>1233.6</ele>
        <time>2022-08-12T08:17:54.000Z</time>
      </trkpt>
      <trkpt lat="45.12476" lon="5.55079">
        <ele>1233.6</ele>
        <time>2022-08-12T08:17:55.000Z</time>
      </trkpt>
      <trkpt lat="45.12476" lon="5.55071">
        <ele>1233.2</ele>
        <time>2022-08-12T08:17:59.000Z</time>
      </trkpt>
      <trkpt lat="45.12475" lon="5.55063">
        <ele>1233</ele>
        <time>2022-08-12T08:18:03.000Z</time>
      </trkpt>
      <trkpt lat="45.12474" lon="5.55061">
        <ele>1233</ele>
        <time>2022-08-12T08:18:04.000Z</time>
      </trkpt>
      <trkpt lat="45.12473" lon="5.5506">
        <ele>1233</ele>
        <time>2022-08-12T08:18:05.000Z</time>
      </trkpt>
      <trkpt lat="45.12472" lon="5.55059">
        <ele>1233.1</ele>
        <time>2022-08-12T08:18:06.000Z</time>
      </trkpt>
      <trkpt lat="45.12472" lon="5.55058">
        <ele>1233.2</ele>
        <time>2022-08-12T08:18:07.000Z</time>
      </trkpt>
      <trkpt lat="45.12471" lon="5.55057">
        <ele>1233.3</ele>
        <time>2022-08-12T08:18:08.000Z</time>
      </trkpt>
      <trkpt lat="45.12469" lon="5.55057">
        <ele>1233.5</ele>
        <time>2022-08-12T08:18:09.000Z</time>
      </trkpt>
      <trkpt lat="45.12466" lon="5.55055">
        <ele>1233.9</ele>
        <time>2022-08-12T08:18:11.000Z</time>
      </trkpt>
      <trkpt lat="45.12465" lon="5.55054">
        <ele>1234</ele>
        <time>2022-08-12T08:18:12.000Z</time>
      </trkpt>
      <trkpt lat="45.12464" lon="5.55053">
        <ele>1234</ele>
        <time>2022-08-12T08:18:13.000Z</time>
      </trkpt>
      <trkpt lat="45.12464" lon="5.55051">
        <ele>1234</ele>
        <time>2022-08-12T08:18:14.000Z</time>
      </trkpt>
      <trkpt lat="45.12463" lon="5.5505">
        <ele>1234</ele>
        <time>2022-08-12T08:18:15.000Z</time>
      </trkpt>
      <trkpt lat="45.12463" lon="5.55049">
        <ele>1234.1</ele>
        <time>2022-08-12T08:18:16.000Z</time>
      </trkpt>
      <trkpt lat="45.12462" lon="5.55049">
        <ele>1234.1</ele>
        <time>2022-08-12T08:18:17.000Z</time>
      </trkpt>
      <trkpt lat="45.1246" lon="5.55047">
        <ele>1234.3</ele>
        <time>2022-08-12T08:18:18.000Z</time>
      </trkpt>
      <trkpt lat="45.12459" lon="5.55046">
        <ele>1234.4</ele>
        <time>2022-08-12T08:18:19.000Z</time>
      </trkpt>
      <trkpt lat="45.12459" lon="5.55045">
        <ele>1234.4</ele>
        <time>2022-08-12T08:18:20.000Z</time>
      </trkpt>
      <trkpt lat="45.12458" lon="5.55044">
        <ele>1234.4</ele>
        <time>2022-08-12T08:18:21.000Z</time>
      </trkpt>
      <trkpt lat="45.12458" lon="5.55043">
        <ele>1234.4</ele>
        <time>2022-08-12T08:18:22.000Z</time>
      </trkpt>
      <trkpt lat="45.12457" lon="5.55043">
        <ele>1234.5</ele>
        <time>2022-08-12T08:18:23.000Z</time>
      </trkpt>
      <trkpt lat="45.12455" lon="5.55042">
        <ele>1234.7</ele>
        <time>2022-08-12T08:18:24.000Z</time>
      </trkpt>
      <trkpt lat="45.12454" lon="5.55041">
        <ele>1234.8</ele>
        <time>2022-08-12T08:18:25.000Z</time>
      </trkpt>
      <trkpt lat="45.12453" lon="5.55041">
        <ele>1234.9</ele>
        <time>2022-08-12T08:18:26.000Z</time>
      </trkpt>
      <trkpt lat="45.12451" lon="5.55041">
        <ele>1235.1</ele>
        <time>2022-08-12T08:18:28.000Z</time>
      </trkpt>
      <trkpt lat="45.1245" lon="5.55041">
        <ele>1235.2</ele>
        <time>2022-08-12T08:18:29.000Z</time>
      </trkpt>
      <trkpt lat="45.12449" lon="5.55041">
        <ele>1235.4</ele>
        <time>2022-08-12T08:18:32.000Z</time>
      </trkpt>
      <trkpt lat="45.12447" lon="5.55042">
        <ele>1235.7</ele>
        <time>2022-08-12T08:18:33.000Z</time>
      </trkpt>
      <trkpt lat="45.12446" lon="5.55042">
        <ele>1235.9</ele>
        <time>2022-08-12T08:18:34.000Z</time>
      </trkpt>
      <trkpt lat="45.12445" lon="5.55042">
        <ele>1236</ele>
        <time>2022-08-12T08:18:35.000Z</time>
      </trkpt>
      <trkpt lat="45.12444" lon="5.55043">
        <ele>1236.1</ele>
        <time>2022-08-12T08:18:36.000Z</time>
      </trkpt>
      <trkpt lat="45.12442" lon="5.55044">
        <ele>1236.4</ele>
        <time>2022-08-12T08:18:38.000Z</time>
      </trkpt>
      <trkpt lat="45.12441" lon="5.55044">
        <ele>1236.6</ele>
        <time>2022-08-12T08:18:39.000Z</time>
      </trkpt>
      <trkpt lat="45.1244" lon="5.55044">
        <ele>1236.7</ele>
        <time>2022-08-12T08:18:40.000Z</time>
      </trkpt>
      <trkpt lat="45.12439" lon="5.55044">
        <ele>1236.8</ele>
        <time>2022-08-12T08:18:41.000Z</time>
      </trkpt>
      <trkpt lat="45.12439" lon="5.55045">
        <ele>1236.9</ele>
        <time>2022-08-12T08:18:42.000Z</time>
      </trkpt>
      <trkpt lat="45.12439" lon="5.55046">
        <ele>1237</ele>
        <time>2022-08-12T08:18:43.000Z</time>
      </trkpt>
      <trkpt lat="45.12437" lon="5.55046">
        <ele>1237.2</ele>
        <time>2022-08-12T08:18:45.000Z</time>
      </trkpt>
      <trkpt lat="45.12435" lon="5.55047">
        <ele>1237.4</ele>
        <time>2022-08-12T08:18:46.000Z</time>
      </trkpt>
      <trkpt lat="45.12434" lon="5.55048">
        <ele>1237.7</ele>
        <time>2022-08-12T08:18:47.000Z</time>
      </trkpt>
      <trkpt lat="45.12433" lon="5.55049">
        <ele>1237.9</ele>
        <time>2022-08-12T08:18:48.000Z</time>
      </trkpt>
      <trkpt lat="45.12432" lon="5.5505">
        <ele>1238</ele>
        <time>2022-08-12T08:18:49.000Z</time>
      </trkpt>
      <trkpt lat="45.1243" lon="5.55051">
        <ele>1238.3</ele>
        <time>2022-08-12T08:18:51.000Z</time>
      </trkpt>
      <trkpt lat="45.12429" lon="5.55052">
        <ele>1238.5</ele>
        <time>2022-08-12T08:18:52.000Z</time>
      </trkpt>
      <trkpt lat="45.12428" lon="5.55053">
        <ele>1238.6</ele>
        <time>2022-08-12T08:18:53.000Z</time>
      </trkpt>
      <trkpt lat="45.12428" lon="5.55054">
        <ele>1238.7</ele>
        <time>2022-08-12T08:18:55.000Z</time>
      </trkpt>
      <trkpt lat="45.12427" lon="5.55054">
        <ele>1238.8</ele>
        <time>2022-08-12T08:18:56.000Z</time>
      </trkpt>
      <trkpt lat="45.12427" lon="5.55055">
        <ele>1238.9</ele>
        <time>2022-08-12T08:18:57.000Z</time>
      </trkpt>
      <trkpt lat="45.12426" lon="5.55056">
        <ele>1239</ele>
        <time>2022-08-12T08:18:58.000Z</time>
      </trkpt>
      <trkpt lat="45.12425" lon="5.55057">
        <ele>1239.1</ele>
        <time>2022-08-12T08:18:59.000Z</time>
      </trkpt>
      <trkpt lat="45.12424" lon="5.55059">
        <ele>1239.3</ele>
        <time>2022-08-12T08:19:01.000Z</time>
      </trkpt>
      <trkpt lat="45.12423" lon="5.55059">
        <ele>1239.4</ele>
        <time>2022-08-12T08:19:02.000Z</time>
      </trkpt>
      <trkpt lat="45.12422" lon="5.5506">
        <ele>1239.6</ele>
        <time>2022-08-12T08:19:03.000Z</time>
      </trkpt>
      <trkpt lat="45.12421" lon="5.5506">
        <ele>1239.7</ele>
        <time>2022-08-12T08:19:04.000Z</time>
      </trkpt>
      <trkpt lat="45.1242" lon="5.5506">
        <ele>1239.8</ele>
        <time>2022-08-12T08:19:05.000Z</time>
      </trkpt>
      <trkpt lat="45.12419" lon="5.55061">
        <ele>1239.9</ele>
        <time>2022-08-12T08:19:06.000Z</time>
      </trkpt>
      <trkpt lat="45.12418" lon="5.55062">
        <ele>1240.1</ele>
        <time>2022-08-12T08:19:07.000Z</time>
      </trkpt>
      <trkpt lat="45.12416" lon="5.55063">
        <ele>1240.3</ele>
        <time>2022-08-12T08:19:08.000Z</time>
      </trkpt>
      <trkpt lat="45.12414" lon="5.55066">
        <ele>1240.8</ele>
        <time>2022-08-12T08:19:13.000Z</time>
      </trkpt>
      <trkpt lat="45.12412" lon="5.55067">
        <ele>1241</ele>
        <time>2022-08-12T08:19:16.000Z</time>
      </trkpt>
      <trkpt lat="45.12411" lon="5.55067">
        <ele>1241.3</ele>
        <time>2022-08-12T08:19:18.000Z</time>
      </trkpt>
      <trkpt lat="45.12409" lon="5.55067">
        <ele>1241.5</ele>
        <time>2022-08-12T08:19:22.000Z</time>
      </trkpt>
      <trkpt lat="45.12409" lon="5.55068">
        <ele>1241.6</ele>
        <time>2022-08-12T08:19:23.000Z</time>
      </trkpt>
      <trkpt lat="45.12408" lon="5.55071">
        <ele>1241.9</ele>
        <time>2022-08-12T08:19:31.000Z</time>
      </trkpt>
      <trkpt lat="45.12407" lon="5.55071">
        <ele>1241.9</ele>
        <time>2022-08-12T08:19:32.000Z</time>
      </trkpt>
      <trkpt lat="45.12405" lon="5.55073">
        <ele>1242.4</ele>
        <time>2022-08-12T08:19:51.000Z</time>
      </trkpt>
      <trkpt lat="45.12402" lon="5.55076">
        <ele>1242.9</ele>
        <time>2022-08-12T08:19:54.000Z</time>
      </trkpt>
      <trkpt lat="45.12401" lon="5.55076">
        <ele>1243</ele>
        <time>2022-08-12T08:19:56.000Z</time>
      </trkpt>
      <trkpt lat="45.124" lon="5.55077">
        <ele>1243.2</ele>
        <time>2022-08-12T08:19:57.000Z</time>
      </trkpt>
      <trkpt lat="45.12399" lon="5.55078">
        <ele>1243.3</ele>
        <time>2022-08-12T08:19:58.000Z</time>
      </trkpt>
      <trkpt lat="45.12399" lon="5.5508">
        <ele>1243.4</ele>
        <time>2022-08-12T08:19:59.000Z</time>
      </trkpt>
      <trkpt lat="45.12398" lon="5.5508">
        <ele>1243.6</ele>
        <time>2022-08-12T08:20:00.000Z</time>
      </trkpt>
      <trkpt lat="45.12397" lon="5.5508">
        <ele>1243.7</ele>
        <time>2022-08-12T08:20:01.000Z</time>
      </trkpt>
      <trkpt lat="45.12396" lon="5.5508">
        <ele>1243.9</ele>
        <time>2022-08-12T08:20:02.000Z</time>
      </trkpt>
      <trkpt lat="45.12395" lon="5.55081">
        <ele>1244.1</ele>
        <time>2022-08-12T08:20:03.000Z</time>
      </trkpt>
      <trkpt lat="45.12393" lon="5.55081">
        <ele>1244.3</ele>
        <time>2022-08-12T08:20:04.000Z</time>
      </trkpt>
      <trkpt lat="45.12392" lon="5.55082">
        <ele>1244.5</ele>
        <time>2022-08-12T08:20:05.000Z</time>
      </trkpt>
      <trkpt lat="45.1239" lon="5.55082">
        <ele>1244.7</ele>
        <time>2022-08-12T08:20:06.000Z</time>
      </trkpt>
      <trkpt lat="45.1239" lon="5.55083">
        <ele>1244.9</ele>
        <time>2022-08-12T08:20:07.000Z</time>
      </trkpt>
      <trkpt lat="45.12389" lon="5.55084">
        <ele>1245</ele>
        <time>2022-08-12T08:20:08.000Z</time>
      </trkpt>
      <trkpt lat="45.12388" lon="5.55085">
        <ele>1245.1</ele>
        <time>2022-08-12T08:20:09.000Z</time>
      </trkpt>
      <trkpt lat="45.12388" lon="5.55086">
        <ele>1245.2</ele>
        <time>2022-08-12T08:20:10.000Z</time>
      </trkpt>
      <trkpt lat="45.12387" lon="5.55087">
        <ele>1245.3</ele>
        <time>2022-08-12T08:20:11.000Z</time>
      </trkpt>
      <trkpt lat="45.12386" lon="5.55089">
        <ele>1245.5</ele>
        <time>2022-08-12T08:20:12.000Z</time>
      </trkpt>
      <trkpt lat="45.12385" lon="5.5509">
        <ele>1245.6</ele>
        <time>2022-08-12T08:20:13.000Z</time>
      </trkpt>
      <trkpt lat="45.12383" lon="5.55091">
        <ele>1245.9</ele>
        <time>2022-08-12T08:20:14.000Z</time>
      </trkpt>
      <trkpt lat="45.12383" lon="5.55092">
        <ele>1246</ele>
        <time>2022-08-12T08:20:15.000Z</time>
      </trkpt>
      <trkpt lat="45.12382" lon="5.55093">
        <ele>1246.1</ele>
        <time>2022-08-12T08:20:16.000Z</time>
      </trkpt>
      <trkpt lat="45.12381" lon="5.55094">
        <ele>1246.2</ele>
        <time>2022-08-12T08:20:17.000Z</time>
      </trkpt>
      <trkpt lat="45.12381" lon="5.55096">
        <ele>1246.3</ele>
        <time>2022-08-12T08:20:18.000Z</time>
      </trkpt>
      <trkpt lat="45.12381" lon="5.55097">
        <ele>1246.3</ele>
        <time>2022-08-12T08:20:19.000Z</time>
      </trkpt>
      <trkpt lat="45.12379" lon="5.55097">
        <ele>1246.6</ele>
        <time>2022-08-12T08:20:20.000Z</time>
      </trkpt>
      <trkpt lat="45.12378" lon="5.55098">
        <ele>1246.8</ele>
        <time>2022-08-12T08:20:21.000Z</time>
      </trkpt>
      <trkpt lat="45.12377" lon="5.55098">
        <ele>1247</ele>
        <time>2022-08-12T08:20:22.000Z</time>
      </trkpt>
      <trkpt lat="45.12376" lon="5.55099">
        <ele>1247.2</ele>
        <time>2022-08-12T08:20:23.000Z</time>
      </trkpt>
      <trkpt lat="45.12375" lon="5.55101">
        <ele>1247.4</ele>
        <time>2022-08-12T08:20:24.000Z</time>
      </trkpt>
      <trkpt lat="45.12374" lon="5.55102">
        <ele>1247.6</ele>
        <time>2022-08-12T08:20:25.000Z</time>
      </trkpt>
      <trkpt lat="45.12373" lon="5.55103">
        <ele>1247.7</ele>
        <time>2022-08-12T08:20:26.000Z</time>
      </trkpt>
      <trkpt lat="45.12372" lon="5.55104">
        <ele>1247.9</ele>
        <time>2022-08-12T08:20:27.000Z</time>
      </trkpt>
      <trkpt lat="45.12371" lon="5.55104">
        <ele>1248</ele>
        <time>2022-08-12T08:20:28.000Z</time>
      </trkpt>
      <trkpt lat="45.12371" lon="5.55105">
        <ele>1248.1</ele>
        <time>2022-08-12T08:20:29.000Z</time>
      </trkpt>
      <trkpt lat="45.1237" lon="5.55106">
        <ele>1248.3</ele>
        <time>2022-08-12T08:20:30.000Z</time>
      </trkpt>
      <trkpt lat="45.12368" lon="5.55107">
        <ele>1248.6</ele>
        <time>2022-08-12T08:20:31.000Z</time>
      </trkpt>
      <trkpt lat="45.12367" lon="5.55108">
        <ele>1248.9</ele>
        <time>2022-08-12T08:20:32.000Z</time>
      </trkpt>
      <trkpt lat="45.12366" lon="5.55109">
        <ele>1249.1</ele>
        <time>2022-08-12T08:20:34.000Z</time>
      </trkpt>
      <trkpt lat="45.12365" lon="5.55109">
        <ele>1249.3</ele>
        <time>2022-08-12T08:20:35.000Z</time>
      </trkpt>
      <trkpt lat="45.12364" lon="5.55109">
        <ele>1249.5</ele>
        <time>2022-08-12T08:20:36.000Z</time>
      </trkpt>
      <trkpt lat="45.12363" lon="5.55109">
        <ele>1249.6</ele>
        <time>2022-08-12T08:20:37.000Z</time>
      </trkpt>
      <trkpt lat="45.12362" lon="5.5511">
        <ele>1249.8</ele>
        <time>2022-08-12T08:20:38.000Z</time>
      </trkpt>
      <trkpt lat="45.12361" lon="5.5511">
        <ele>1249.9</ele>
        <time>2022-08-12T08:20:39.000Z</time>
      </trkpt>
      <trkpt lat="45.1236" lon="5.55111">
        <ele>1250.2</ele>
        <time>2022-08-12T08:20:40.000Z</time>
      </trkpt>
      <trkpt lat="45.12359" lon="5.55111">
        <ele>1250.3</ele>
        <time>2022-08-12T08:20:41.000Z</time>
      </trkpt>
      <trkpt lat="45.12358" lon="5.55112">
        <ele>1250.6</ele>
        <time>2022-08-12T08:20:44.000Z</time>
      </trkpt>
      <trkpt lat="45.12357" lon="5.55112">
        <ele>1250.7</ele>
        <time>2022-08-12T08:20:45.000Z</time>
      </trkpt>
      <trkpt lat="45.12356" lon="5.55113">
        <ele>1250.8</ele>
        <time>2022-08-12T08:20:46.000Z</time>
      </trkpt>
      <trkpt lat="45.12355" lon="5.55114">
        <ele>1251.1</ele>
        <time>2022-08-12T08:20:48.000Z</time>
      </trkpt>
      <trkpt lat="45.12354" lon="5.55114">
        <ele>1251.3</ele>
        <time>2022-08-12T08:20:49.000Z</time>
      </trkpt>
      <trkpt lat="45.12353" lon="5.55114">
        <ele>1251.4</ele>
        <time>2022-08-12T08:20:50.000Z</time>
      </trkpt>
      <trkpt lat="45.12352" lon="5.55115">
        <ele>1251.6</ele>
        <time>2022-08-12T08:20:51.000Z</time>
      </trkpt>
      <trkpt lat="45.12352" lon="5.55116">
        <ele>1251.7</ele>
        <time>2022-08-12T08:20:52.000Z</time>
      </trkpt>
      <trkpt lat="45.12352" lon="5.55117">
        <ele>1251.7</ele>
        <time>2022-08-12T08:20:53.000Z</time>
      </trkpt>
      <trkpt lat="45.12351" lon="5.55117">
        <ele>1251.8</ele>
        <time>2022-08-12T08:20:54.000Z</time>
      </trkpt>
      <trkpt lat="45.1235" lon="5.55118">
        <ele>1252</ele>
        <time>2022-08-12T08:20:55.000Z</time>
      </trkpt>
      <trkpt lat="45.12349" lon="5.55119">
        <ele>1252.2</ele>
        <time>2022-08-12T08:20:56.000Z</time>
      </trkpt>
      <trkpt lat="45.12348" lon="5.55119">
        <ele>1252.3</ele>
        <time>2022-08-12T08:20:57.000Z</time>
      </trkpt>
      <trkpt lat="45.12347" lon="5.55119">
        <ele>1252.5</ele>
        <time>2022-08-12T08:20:59.000Z</time>
      </trkpt>
      <trkpt lat="45.12347" lon="5.55121">
        <ele>1252.6</ele>
        <time>2022-08-12T08:21:00.000Z</time>
      </trkpt>
      <trkpt lat="45.12347" lon="5.55122">
        <ele>1252.6</ele>
        <time>2022-08-12T08:21:01.000Z</time>
      </trkpt>
      <trkpt lat="45.12346" lon="5.55122">
        <ele>1252.8</ele>
        <time>2022-08-12T08:21:02.000Z</time>
      </trkpt>
      <trkpt lat="45.12345" lon="5.55122">
        <ele>1252.9</ele>
        <time>2022-08-12T08:21:03.000Z</time>
      </trkpt>
      <trkpt lat="45.12343" lon="5.55122">
        <ele>1253.3</ele>
        <time>2022-08-12T08:21:04.000Z</time>
      </trkpt>
      <trkpt lat="45.12341" lon="5.55123">
        <ele>1253.6</ele>
        <time>2022-08-12T08:21:05.000Z</time>
      </trkpt>
      <trkpt lat="45.1234" lon="5.55123">
        <ele>1253.7</ele>
        <time>2022-08-12T08:21:07.000Z</time>
      </trkpt>
      <trkpt lat="45.1234" lon="5.55124">
        <ele>1253.8</ele>
        <time>2022-08-12T08:21:08.000Z</time>
      </trkpt>
      <trkpt lat="45.12339" lon="5.55124">
        <ele>1254</ele>
        <time>2022-08-12T08:21:09.000Z</time>
      </trkpt>
      <trkpt lat="45.12338" lon="5.55125">
        <ele>1254.1</ele>
        <time>2022-08-12T08:21:10.000Z</time>
      </trkpt>
      <trkpt lat="45.12337" lon="5.55126">
        <ele>1254.3</ele>
        <time>2022-08-12T08:21:12.000Z</time>
      </trkpt>
      <trkpt lat="45.12336" lon="5.55126">
        <ele>1254.6</ele>
        <time>2022-08-12T08:21:13.000Z</time>
      </trkpt>
      <trkpt lat="45.12334" lon="5.55126">
        <ele>1254.9</ele>
        <time>2022-08-12T08:21:14.000Z</time>
      </trkpt>
      <trkpt lat="45.12332" lon="5.55126">
        <ele>1255.2</ele>
        <time>2022-08-12T08:21:15.000Z</time>
      </trkpt>
      <trkpt lat="45.12331" lon="5.55126">
        <ele>1255.4</ele>
        <time>2022-08-12T08:21:16.000Z</time>
      </trkpt>
      <trkpt lat="45.1233" lon="5.55126">
        <ele>1255.5</ele>
        <time>2022-08-12T08:21:17.000Z</time>
      </trkpt>
      <trkpt lat="45.12329" lon="5.55127">
        <ele>1255.6</ele>
        <time>2022-08-12T08:21:18.000Z</time>
      </trkpt>
      <trkpt lat="45.12328" lon="5.55128">
        <ele>1255.8</ele>
        <time>2022-08-12T08:21:19.000Z</time>
      </trkpt>
      <trkpt lat="45.12327" lon="5.5513">
        <ele>1256</ele>
        <time>2022-08-12T08:21:20.000Z</time>
      </trkpt>
      <trkpt lat="45.12325" lon="5.55131">
        <ele>1256.3</ele>
        <time>2022-08-12T08:21:21.000Z</time>
      </trkpt>
      <trkpt lat="45.12324" lon="5.55132">
        <ele>1256.4</ele>
        <time>2022-08-12T08:21:22.000Z</time>
      </trkpt>
      <trkpt lat="45.12323" lon="5.55132">
        <ele>1256.6</ele>
        <time>2022-08-12T08:21:23.000Z</time>
      </trkpt>
      <trkpt lat="45.12322" lon="5.55132">
        <ele>1256.7</ele>
        <time>2022-08-12T08:21:24.000Z</time>
      </trkpt>
      <trkpt lat="45.12321" lon="5.55132">
        <ele>1256.8</ele>
        <time>2022-08-12T08:21:25.000Z</time>
      </trkpt>
      <trkpt lat="45.1232" lon="5.55133">
        <ele>1257</ele>
        <time>2022-08-12T08:21:26.000Z</time>
      </trkpt>
      <trkpt lat="45.12318" lon="5.55133">
        <ele>1257.2</ele>
        <time>2022-08-12T08:21:27.000Z</time>
      </trkpt>
      <trkpt lat="45.12317" lon="5.55134">
        <ele>1257.4</ele>
        <time>2022-08-12T08:21:28.000Z</time>
      </trkpt>
      <trkpt lat="45.12316" lon="5.55134">
        <ele>1257.5</ele>
        <time>2022-08-12T08:21:29.000Z</time>
      </trkpt>
      <trkpt lat="45.12314" lon="5.55134">
        <ele>1257.8</ele>
        <time>2022-08-12T08:21:30.000Z</time>
      </trkpt>
      <trkpt lat="45.12313" lon="5.55134">
        <ele>1258</ele>
        <time>2022-08-12T08:21:31.000Z</time>
      </trkpt>
      <trkpt lat="45.12311" lon="5.55134">
        <ele>1258.2</ele>
        <time>2022-08-12T08:21:32.000Z</time>
      </trkpt>
      <trkpt lat="45.1231" lon="5.55134">
        <ele>1258.4</ele>
        <time>2022-08-12T08:21:33.000Z</time>
      </trkpt>
      <trkpt lat="45.12309" lon="5.55134">
        <ele>1258.5</ele>
        <time>2022-08-12T08:21:34.000Z</time>
      </trkpt>
      <trkpt lat="45.12308" lon="5.55134">
        <ele>1258.7</ele>
        <time>2022-08-12T08:21:36.000Z</time>
      </trkpt>
      <trkpt lat="45.12306" lon="5.55135">
        <ele>1258.9</ele>
        <time>2022-08-12T08:21:37.000Z</time>
      </trkpt>
      <trkpt lat="45.12305" lon="5.55136">
        <ele>1259</ele>
        <time>2022-08-12T08:21:38.000Z</time>
      </trkpt>
      <trkpt lat="45.12304" lon="5.55136">
        <ele>1259.3</ele>
        <time>2022-08-12T08:21:39.000Z</time>
      </trkpt>
      <trkpt lat="45.12303" lon="5.55137">
        <ele>1259.4</ele>
        <time>2022-08-12T08:21:40.000Z</time>
      </trkpt>
      <trkpt lat="45.12303" lon="5.55138">
        <ele>1259.5</ele>
        <time>2022-08-12T08:21:44.000Z</time>
      </trkpt>
      <trkpt lat="45.12302" lon="5.55138">
        <ele>1259.7</ele>
        <time>2022-08-12T08:21:47.000Z</time>
      </trkpt>
      <trkpt lat="45.12262" lon="5.55155">
        <ele>1265.3</ele>
        <time>2022-08-12T08:26:44.000Z</time>
      </trkpt>
      <trkpt lat="45.1226" lon="5.55155">
        <ele>1265.7</ele>
        <time>2022-08-12T08:26:45.000Z</time>
      </trkpt>
      <trkpt lat="45.12257" lon="5.55157">
        <ele>1266</ele>
        <time>2022-08-12T08:26:48.000Z</time>
      </trkpt>
      <trkpt lat="45.12255" lon="5.55159">
        <ele>1266</ele>
        <time>2022-08-12T08:26:49.000Z</time>
      </trkpt>
      <trkpt lat="45.12253" lon="5.55161">
        <ele>1266.2</ele>
        <time>2022-08-12T08:26:50.000Z</time>
      </trkpt>
      <trkpt lat="45.12252" lon="5.55162">
        <ele>1266.3</ele>
        <time>2022-08-12T08:26:51.000Z</time>
      </trkpt>
      <trkpt lat="45.1225" lon="5.55164">
        <ele>1266.3</ele>
        <time>2022-08-12T08:26:52.000Z</time>
      </trkpt>
      <trkpt lat="45.12249" lon="5.55165">
        <ele>1266.4</ele>
        <time>2022-08-12T08:26:53.000Z</time>
      </trkpt>
      <trkpt lat="45.12246" lon="5.55166">
        <ele>1266.8</ele>
        <time>2022-08-12T08:26:54.000Z</time>
      </trkpt>
      <trkpt lat="45.12242" lon="5.55166">
        <ele>1267.6</ele>
        <time>2022-08-12T08:26:55.000Z</time>
      </trkpt>
      <trkpt lat="45.12241" lon="5.55166">
        <ele>1267.7</ele>
        <time>2022-08-12T08:26:56.000Z</time>
      </trkpt>
      <trkpt lat="45.12239" lon="5.55167">
        <ele>1267.9</ele>
        <time>2022-08-12T08:26:58.000Z</time>
      </trkpt>
      <trkpt lat="45.12238" lon="5.55168">
        <ele>1267.9</ele>
        <time>2022-08-12T08:26:59.000Z</time>
      </trkpt>
      <trkpt lat="45.12237" lon="5.5517">
        <ele>1267.9</ele>
        <time>2022-08-12T08:27:00.000Z</time>
      </trkpt>
      <trkpt lat="45.12235" lon="5.55171">
        <ele>1268.1</ele>
        <time>2022-08-12T08:27:01.000Z</time>
      </trkpt>
      <trkpt lat="45.12233" lon="5.55171">
        <ele>1268.4</ele>
        <time>2022-08-12T08:27:02.000Z</time>
      </trkpt>
      <trkpt lat="45.12231" lon="5.55171">
        <ele>1268.8</ele>
        <time>2022-08-12T08:27:03.000Z</time>
      </trkpt>
      <trkpt lat="45.12228" lon="5.55171">
        <ele>1269.2</ele>
        <time>2022-08-12T08:27:04.000Z</time>
      </trkpt>
      <trkpt lat="45.12227" lon="5.5517">
        <ele>1269.7</ele>
        <time>2022-08-12T08:27:05.000Z</time>
      </trkpt>
      <trkpt lat="45.12225" lon="5.55169">
        <ele>1270.1</ele>
        <time>2022-08-12T08:27:06.000Z</time>
      </trkpt>
      <trkpt lat="45.12224" lon="5.55169">
        <ele>1270.3</ele>
        <time>2022-08-12T08:27:08.000Z</time>
      </trkpt>
      <trkpt lat="45.12223" lon="5.55169">
        <ele>1270.6</ele>
        <time>2022-08-12T08:27:09.000Z</time>
      </trkpt>
      <trkpt lat="45.12221" lon="5.55169">
        <ele>1270.8</ele>
        <time>2022-08-12T08:27:10.000Z</time>
      </trkpt>
      <trkpt lat="45.1222" lon="5.5517">
        <ele>1270.9</ele>
        <time>2022-08-12T08:27:12.000Z</time>
      </trkpt>
      <trkpt lat="45.12219" lon="5.55171">
        <ele>1270.9</ele>
        <time>2022-08-12T08:27:13.000Z</time>
      </trkpt>
      <trkpt lat="45.12218" lon="5.55171">
        <ele>1271</ele>
        <time>2022-08-12T08:27:14.000Z</time>
      </trkpt>
      <trkpt lat="45.12217" lon="5.55172">
        <ele>1270.9</ele>
        <time>2022-08-12T08:27:15.000Z</time>
      </trkpt>
      <trkpt lat="45.12215" lon="5.55173">
        <ele>1271.2</ele>
        <time>2022-08-12T08:27:17.000Z</time>
      </trkpt>
      <trkpt lat="45.12214" lon="5.55174">
        <ele>1271.2</ele>
        <time>2022-08-12T08:27:18.000Z</time>
      </trkpt>
      <trkpt lat="45.12213" lon="5.55175">
        <ele>1271</ele>
        <time>2022-08-12T08:27:19.000Z</time>
      </trkpt>
      <trkpt lat="45.12213" lon="5.55177">
        <ele>1270.8</ele>
        <time>2022-08-12T08:27:20.000Z</time>
      </trkpt>
      <trkpt lat="45.12212" lon="5.55182">
        <ele>1270.3</ele>
        <time>2022-08-12T08:27:22.000Z</time>
      </trkpt>
      <trkpt lat="45.12212" lon="5.55184">
        <ele>1270</ele>
        <time>2022-08-12T08:27:23.000Z</time>
      </trkpt>
      <trkpt lat="45.12213" lon="5.55185">
        <ele>1269.7</ele>
        <time>2022-08-12T08:27:24.000Z</time>
      </trkpt>
      <trkpt lat="45.12213" lon="5.55186">
        <ele>1269.5</ele>
        <time>2022-08-12T08:27:25.000Z</time>
      </trkpt>
      <trkpt lat="45.12212" lon="5.55186">
        <ele>1269.7</ele>
        <time>2022-08-12T08:27:27.000Z</time>
      </trkpt>
      <trkpt lat="45.1221" lon="5.55188">
        <ele>1269.7</ele>
        <time>2022-08-12T08:27:33.000Z</time>
      </trkpt>
      <trkpt lat="45.12209" lon="5.5519">
        <ele>1269.5</ele>
        <time>2022-08-12T08:27:34.000Z</time>
      </trkpt>
      <trkpt lat="45.12204" lon="5.55204">
        <ele>1268.3</ele>
        <time>2022-08-12T08:27:39.000Z</time>
      </trkpt>
      <trkpt lat="45.12204" lon="5.55209">
        <ele>1267.5</ele>
        <time>2022-08-12T08:27:40.000Z</time>
      </trkpt>
      <trkpt lat="45.12206" lon="5.55214">
        <ele>1266.4</ele>
        <time>2022-08-12T08:27:41.000Z</time>
      </trkpt>
      <trkpt lat="45.12209" lon="5.55219">
        <ele>1265.4</ele>
        <time>2022-08-12T08:27:42.000Z</time>
      </trkpt>
      <trkpt lat="45.1221" lon="5.55223">
        <ele>1264.6</ele>
        <time>2022-08-12T08:27:43.000Z</time>
      </trkpt>
      <trkpt lat="45.12212" lon="5.55225">
        <ele>1264</ele>
        <time>2022-08-12T08:27:44.000Z</time>
      </trkpt>
      <trkpt lat="45.12213" lon="5.55226">
        <ele>1263.6</ele>
        <time>2022-08-12T08:27:45.000Z</time>
      </trkpt>
      <trkpt lat="45.12215" lon="5.55228">
        <ele>1263</ele>
        <time>2022-08-12T08:27:46.000Z</time>
      </trkpt>
      <trkpt lat="45.12217" lon="5.55231">
        <ele>1262.2</ele>
        <time>2022-08-12T08:27:47.000Z</time>
      </trkpt>
      <trkpt lat="45.12219" lon="5.55234">
        <ele>1261.4</ele>
        <time>2022-08-12T08:27:48.000Z</time>
      </trkpt>
      <trkpt lat="45.1222" lon="5.55237">
        <ele>1260.7</ele>
        <time>2022-08-12T08:27:49.000Z</time>
      </trkpt>
      <trkpt lat="45.12221" lon="5.55239">
        <ele>1260.1</ele>
        <time>2022-08-12T08:27:50.000Z</time>
      </trkpt>
      <trkpt lat="45.12221" lon="5.55242">
        <ele>1259.7</ele>
        <time>2022-08-12T08:27:51.000Z</time>
      </trkpt>
      <trkpt lat="45.12221" lon="5.55244">
        <ele>1259.3</ele>
        <time>2022-08-12T08:27:52.000Z</time>
      </trkpt>
      <trkpt lat="45.12222" lon="5.55246">
        <ele>1258.7</ele>
        <time>2022-08-12T08:27:53.000Z</time>
      </trkpt>
      <trkpt lat="45.12224" lon="5.55248">
        <ele>1258.1</ele>
        <time>2022-08-12T08:27:54.000Z</time>
      </trkpt>
      <trkpt lat="45.12224" lon="5.5525">
        <ele>1257.7</ele>
        <time>2022-08-12T08:27:55.000Z</time>
      </trkpt>
      <trkpt lat="45.12225" lon="5.55252">
        <ele>1257.3</ele>
        <time>2022-08-12T08:27:56.000Z</time>
      </trkpt>
      <trkpt lat="45.12226" lon="5.55252">
        <ele>1257.2</ele>
        <time>2022-08-12T08:27:57.000Z</time>
      </trkpt>
      <trkpt lat="45.12227" lon="5.55252">
        <ele>1257</ele>
        <time>2022-08-12T08:28:00.000Z</time>
      </trkpt>
      <trkpt lat="45.12228" lon="5.55252">
        <ele>1257</ele>
        <time>2022-08-12T08:28:01.000Z</time>
      </trkpt>
      <trkpt lat="45.12228" lon="5.55249">
        <ele>1257.3</ele>
        <time>2022-08-12T08:28:26.000Z</time>
      </trkpt>
      <trkpt lat="45.1223" lon="5.55248">
        <ele>1257.3</ele>
        <time>2022-08-12T08:28:28.000Z</time>
      </trkpt>
      <trkpt lat="45.12233" lon="5.55249">
        <ele>1256.6</ele>
        <time>2022-08-12T08:28:30.000Z</time>
      </trkpt>
      <trkpt lat="45.12234" lon="5.5525">
        <ele>1256.2</ele>
        <time>2022-08-12T08:28:31.000Z</time>
      </trkpt>
      <trkpt lat="45.12235" lon="5.55252">
        <ele>1255.8</ele>
        <time>2022-08-12T08:28:32.000Z</time>
      </trkpt>
      <trkpt lat="45.12237" lon="5.55256">
        <ele>1255.1</ele>
        <time>2022-08-12T08:28:34.000Z</time>
      </trkpt>
      <trkpt lat="45.12237" lon="5.55257">
        <ele>1254.8</ele>
        <time>2022-08-12T08:28:35.000Z</time>
      </trkpt>
      <trkpt lat="45.12238" lon="5.55259">
        <ele>1254.4</ele>
        <time>2022-08-12T08:28:36.000Z</time>
      </trkpt>
      <trkpt lat="45.1224" lon="5.55263">
        <ele>1253.7</ele>
        <time>2022-08-12T08:28:37.000Z</time>
      </trkpt>
      <trkpt lat="45.12241" lon="5.55267">
        <ele>1252.8</ele>
        <time>2022-08-12T08:28:38.000Z</time>
      </trkpt>
      <trkpt lat="45.12242" lon="5.5527">
        <ele>1252.3</ele>
        <time>2022-08-12T08:28:39.000Z</time>
      </trkpt>
      <trkpt lat="45.12242" lon="5.55274">
        <ele>1251.8</ele>
        <time>2022-08-12T08:28:40.000Z</time>
      </trkpt>
      <trkpt lat="45.12242" lon="5.55276">
        <ele>1251.3</ele>
        <time>2022-08-12T08:28:41.000Z</time>
      </trkpt>
      <trkpt lat="45.12243" lon="5.55279">
        <ele>1251</ele>
        <time>2022-08-12T08:28:42.000Z</time>
      </trkpt>
      <trkpt lat="45.12242" lon="5.55281">
        <ele>1250.7</ele>
        <time>2022-08-12T08:28:43.000Z</time>
      </trkpt>
      <trkpt lat="45.12242" lon="5.55286">
        <ele>1250</ele>
        <time>2022-08-12T08:28:45.000Z</time>
      </trkpt>
      <trkpt lat="45.12242" lon="5.55289">
        <ele>1249.7</ele>
        <time>2022-08-12T08:28:46.000Z</time>
      </trkpt>
      <trkpt lat="45.12241" lon="5.55292">
        <ele>1249.4</ele>
        <time>2022-08-12T08:28:47.000Z</time>
      </trkpt>
      <trkpt lat="45.12239" lon="5.55298">
        <ele>1248.9</ele>
        <time>2022-08-12T08:28:49.000Z</time>
      </trkpt>
      <trkpt lat="45.12238" lon="5.55301">
        <ele>1248.7</ele>
        <time>2022-08-12T08:28:50.000Z</time>
      </trkpt>
      <trkpt lat="45.12237" lon="5.55303">
        <ele>1248.6</ele>
        <time>2022-08-12T08:28:51.000Z</time>
      </trkpt>
      <trkpt lat="45.12237" lon="5.55304">
        <ele>1248.6</ele>
        <time>2022-08-12T08:28:52.000Z</time>
      </trkpt>
      <trkpt lat="45.12238" lon="5.55306">
        <ele>1248.2</ele>
        <time>2022-08-12T08:28:55.000Z</time>
      </trkpt>
      <trkpt lat="45.12239" lon="5.55308">
        <ele>1247.7</ele>
        <time>2022-08-12T08:28:56.000Z</time>
      </trkpt>
      <trkpt lat="45.12241" lon="5.5531">
        <ele>1247.2</ele>
        <time>2022-08-12T08:28:58.000Z</time>
      </trkpt>
      <trkpt lat="45.12242" lon="5.5531">
        <ele>1247</ele>
        <time>2022-08-12T08:28:59.000Z</time>
      </trkpt>
      <trkpt lat="45.12242" lon="5.55311">
        <ele>1246.8</ele>
        <time>2022-08-12T08:29:00.000Z</time>
      </trkpt>
      <trkpt lat="45.12242" lon="5.55316">
        <ele>1246.3</ele>
        <time>2022-08-12T08:29:01.000Z</time>
      </trkpt>
      <trkpt lat="45.1224" lon="5.55323">
        <ele>1245.8</ele>
        <time>2022-08-12T08:29:04.000Z</time>
      </trkpt>
      <trkpt lat="45.1224" lon="5.55326">
        <ele>1245.6</ele>
        <time>2022-08-12T08:29:05.000Z</time>
      </trkpt>
      <trkpt lat="45.1224" lon="5.55327">
        <ele>1245.5</ele>
        <time>2022-08-12T08:29:06.000Z</time>
      </trkpt>
      <trkpt lat="45.1224" lon="5.55328">
        <ele>1245.5</ele>
        <time>2022-08-12T08:29:07.000Z</time>
      </trkpt>
      <trkpt lat="45.1224" lon="5.55329">
        <ele>1245.3</ele>
        <time>2022-08-12T08:29:13.000Z</time>
      </trkpt>
      <trkpt lat="45.12239" lon="5.55331">
        <ele>1245.2</ele>
        <time>2022-08-12T08:29:27.000Z</time>
      </trkpt>
      <trkpt lat="45.12239" lon="5.55332">
        <ele>1245.1</ele>
        <time>2022-08-12T08:29:31.000Z</time>
      </trkpt>
      <trkpt lat="45.12241" lon="5.55333">
        <ele>1244.7</ele>
        <time>2022-08-12T08:29:32.000Z</time>
      </trkpt>
      <trkpt lat="45.12241" lon="5.55334">
        <ele>1244.6</ele>
        <time>2022-08-12T08:29:34.000Z</time>
      </trkpt>
      <trkpt lat="45.12241" lon="5.55333">
        <ele>1244.6</ele>
        <time>2022-08-12T08:29:36.000Z</time>
      </trkpt>
      <trkpt lat="45.12241" lon="5.55334">
        <ele>1244.5</ele>
        <time>2022-08-12T08:29:37.000Z</time>
      </trkpt>
      <trkpt lat="45.1224" lon="5.55335">
        <ele>1244.6</ele>
        <time>2022-08-12T08:29:40.000Z</time>
      </trkpt>
      <trkpt lat="45.1224" lon="5.55336">
        <ele>1244.6</ele>
        <time>2022-08-12T08:29:43.000Z</time>
      </trkpt>
      <trkpt lat="45.12239" lon="5.55337">
        <ele>1244.6</ele>
        <time>2022-08-12T08:29:46.000Z</time>
      </trkpt>
      <trkpt lat="45.12238" lon="5.55337">
        <ele>1244.6</ele>
        <time>2022-08-12T08:29:48.000Z</time>
      </trkpt>
      <trkpt lat="45.12237" lon="5.55342">
        <ele>1244.4</ele>
        <time>2022-08-12T08:29:51.000Z</time>
      </trkpt>
      <trkpt lat="45.12236" lon="5.55344">
        <ele>1244.4</ele>
        <time>2022-08-12T08:29:52.000Z</time>
      </trkpt>
      <trkpt lat="45.12234" lon="5.55346">
        <ele>1244.4</ele>
        <time>2022-08-12T08:29:53.000Z</time>
      </trkpt>
      <trkpt lat="45.12234" lon="5.55347">
        <ele>1244.5</ele>
        <time>2022-08-12T08:29:54.000Z</time>
      </trkpt>
      <trkpt lat="45.12233" lon="5.55347">
        <ele>1244.6</ele>
        <time>2022-08-12T08:29:55.000Z</time>
      </trkpt>
      <trkpt lat="45.12232" lon="5.55347">
        <ele>1244.7</ele>
        <time>2022-08-12T08:29:56.000Z</time>
      </trkpt>
      <trkpt lat="45.12233" lon="5.55348">
        <ele>1244.5</ele>
        <time>2022-08-12T08:29:58.000Z</time>
      </trkpt>
      <trkpt lat="45.12228" lon="5.55351">
        <ele>1245</ele>
        <time>2022-08-12T08:30:08.000Z</time>
      </trkpt>
      <trkpt lat="45.12227" lon="5.55353">
        <ele>1244.9</ele>
        <time>2022-08-12T08:30:09.000Z</time>
      </trkpt>
      <trkpt lat="45.12226" lon="5.55356">
        <ele>1244.9</ele>
        <time>2022-08-12T08:30:10.000Z</time>
      </trkpt>
      <trkpt lat="45.12222" lon="5.55358">
        <ele>1245.4</ele>
        <time>2022-08-12T08:30:11.000Z</time>
      </trkpt>
      <trkpt lat="45.12219" lon="5.55359">
        <ele>1245.4</ele>
        <time>2022-08-12T08:30:12.000Z</time>
      </trkpt>
      <trkpt lat="45.12218" lon="5.5536">
        <ele>1245.4</ele>
        <time>2022-08-12T08:30:14.000Z</time>
      </trkpt>
      <trkpt lat="45.12217" lon="5.55363">
        <ele>1245.2</ele>
        <time>2022-08-12T08:30:15.000Z</time>
      </trkpt>
      <trkpt lat="45.12216" lon="5.55364">
        <ele>1245.1</ele>
        <time>2022-08-12T08:30:16.000Z</time>
      </trkpt>
      <trkpt lat="45.12214" lon="5.55366">
        <ele>1245.1</ele>
        <time>2022-08-12T08:30:17.000Z</time>
      </trkpt>
      <trkpt lat="45.12212" lon="5.55368">
        <ele>1245</ele>
        <time>2022-08-12T08:30:18.000Z</time>
      </trkpt>
      <trkpt lat="45.12209" lon="5.5537">
        <ele>1245</ele>
        <time>2022-08-12T08:30:19.000Z</time>
      </trkpt>
      <trkpt lat="45.12206" lon="5.55372">
        <ele>1245</ele>
        <time>2022-08-12T08:30:20.000Z</time>
      </trkpt>
      <trkpt lat="45.12201" lon="5.55375">
        <ele>1245</ele>
        <time>2022-08-12T08:30:22.000Z</time>
      </trkpt>
      <trkpt lat="45.12198" lon="5.5538">
        <ele>1244.7</ele>
        <time>2022-08-12T08:30:23.000Z</time>
      </trkpt>
      <trkpt lat="45.12195" lon="5.55386">
        <ele>1244.2</ele>
        <time>2022-08-12T08:30:24.000Z</time>
      </trkpt>
      <trkpt lat="45.12193" lon="5.55391">
        <ele>1243.6</ele>
        <time>2022-08-12T08:30:25.000Z</time>
      </trkpt>
      <trkpt lat="45.12191" lon="5.55395">
        <ele>1243.1</ele>
        <time>2022-08-12T08:30:26.000Z</time>
      </trkpt>
      <trkpt lat="45.12188" lon="5.55399">
        <ele>1242.5</ele>
        <time>2022-08-12T08:30:27.000Z</time>
      </trkpt>
      <trkpt lat="45.12185" lon="5.55403">
        <ele>1242</ele>
        <time>2022-08-12T08:30:28.000Z</time>
      </trkpt>
      <trkpt lat="45.12184" lon="5.55406">
        <ele>1241.5</ele>
        <time>2022-08-12T08:30:29.000Z</time>
      </trkpt>
      <trkpt lat="45.12185" lon="5.5541">
        <ele>1241</ele>
        <time>2022-08-12T08:30:30.000Z</time>
      </trkpt>
      <trkpt lat="45.12186" lon="5.55415">
        <ele>1240.3</ele>
        <time>2022-08-12T08:30:31.000Z</time>
      </trkpt>
      <trkpt lat="45.12186" lon="5.5542">
        <ele>1239.4</ele>
        <time>2022-08-12T08:30:32.000Z</time>
      </trkpt>
      <trkpt lat="45.12184" lon="5.55426">
        <ele>1238.3</ele>
        <time>2022-08-12T08:30:33.000Z</time>
      </trkpt>
      <trkpt lat="45.12181" lon="5.55431">
        <ele>1237.5</ele>
        <time>2022-08-12T08:30:34.000Z</time>
      </trkpt>
      <trkpt lat="45.12177" lon="5.55437">
        <ele>1236.4</ele>
        <time>2022-08-12T08:30:36.000Z</time>
      </trkpt>
      <trkpt lat="45.12175" lon="5.5544">
        <ele>1235.7</ele>
        <time>2022-08-12T08:30:37.000Z</time>
      </trkpt>
      <trkpt lat="45.12173" lon="5.55447">
        <ele>1234.5</ele>
        <time>2022-08-12T08:30:38.000Z</time>
      </trkpt>
      <trkpt lat="45.12175" lon="5.55451">
        <ele>1233.8</ele>
        <time>2022-08-12T08:30:39.000Z</time>
      </trkpt>
      <trkpt lat="45.12174" lon="5.55463">
        <ele>1231.6</ele>
        <time>2022-08-12T08:30:42.000Z</time>
      </trkpt>
      <trkpt lat="45.12172" lon="5.55467">
        <ele>1230.9</ele>
        <time>2022-08-12T08:30:43.000Z</time>
      </trkpt>
      <trkpt lat="45.12169" lon="5.55469">
        <ele>1230.5</ele>
        <time>2022-08-12T08:30:44.000Z</time>
      </trkpt>
      <trkpt lat="45.12167" lon="5.55473">
        <ele>1229.9</ele>
        <time>2022-08-12T08:30:45.000Z</time>
      </trkpt>
      <trkpt lat="45.12164" lon="5.55474">
        <ele>1229.6</ele>
        <time>2022-08-12T08:30:46.000Z</time>
      </trkpt>
      <trkpt lat="45.12162" lon="5.55475">
        <ele>1229.4</ele>
        <time>2022-08-12T08:30:47.000Z</time>
      </trkpt>
      <trkpt lat="45.12159" lon="5.55478">
        <ele>1228.7</ele>
        <time>2022-08-12T08:30:48.000Z</time>
      </trkpt>
      <trkpt lat="45.12155" lon="5.55487">
        <ele>1226.9</ele>
        <time>2022-08-12T08:30:50.000Z</time>
      </trkpt>
      <trkpt lat="45.12154" lon="5.55494">
        <ele>1225.6</ele>
        <time>2022-08-12T08:30:52.000Z</time>
      </trkpt>
      <trkpt lat="45.12154" lon="5.55496">
        <ele>1225.2</ele>
        <time>2022-08-12T08:30:53.000Z</time>
      </trkpt>
      <trkpt lat="45.12154" lon="5.55499">
        <ele>1224.7</ele>
        <time>2022-08-12T08:30:54.000Z</time>
      </trkpt>
      <trkpt lat="45.12154" lon="5.55503">
        <ele>1224</ele>
        <time>2022-08-12T08:30:55.000Z</time>
      </trkpt>
      <trkpt lat="45.12155" lon="5.55514">
        <ele>1221.8</ele>
        <time>2022-08-12T08:30:57.000Z</time>
      </trkpt>
      <trkpt lat="45.12154" lon="5.55518">
        <ele>1220.9</ele>
        <time>2022-08-12T08:30:58.000Z</time>
      </trkpt>
      <trkpt lat="45.12153" lon="5.55521">
        <ele>1220.3</ele>
        <time>2022-08-12T08:30:59.000Z</time>
      </trkpt>
      <trkpt lat="45.12151" lon="5.55524">
        <ele>1219.7</ele>
        <time>2022-08-12T08:31:00.000Z</time>
      </trkpt>
      <trkpt lat="45.12148" lon="5.55526">
        <ele>1219.4</ele>
        <time>2022-08-12T08:31:01.000Z</time>
      </trkpt>
      <trkpt lat="45.12145" lon="5.55528">
        <ele>1219</ele>
        <time>2022-08-12T08:31:02.000Z</time>
      </trkpt>
      <trkpt lat="45.12145" lon="5.5553">
        <ele>1218.6</ele>
        <time>2022-08-12T08:31:03.000Z</time>
      </trkpt>
      <trkpt lat="45.12145" lon="5.55533">
        <ele>1218</ele>
        <time>2022-08-12T08:31:04.000Z</time>
      </trkpt>
      <trkpt lat="45.12144" lon="5.55537">
        <ele>1217.1</ele>
        <time>2022-08-12T08:31:05.000Z</time>
      </trkpt>
      <trkpt lat="45.12141" lon="5.55539">
        <ele>1216.6</ele>
        <time>2022-08-12T08:31:06.000Z</time>
      </trkpt>
      <trkpt lat="45.12139" lon="5.55542">
        <ele>1216</ele>
        <time>2022-08-12T08:31:07.000Z</time>
      </trkpt>
      <trkpt lat="45.12139" lon="5.55545">
        <ele>1215.4</ele>
        <time>2022-08-12T08:31:08.000Z</time>
      </trkpt>
      <trkpt lat="45.12139" lon="5.55549">
        <ele>1214.5</ele>
        <time>2022-08-12T08:31:09.000Z</time>
      </trkpt>
      <trkpt lat="45.12139" lon="5.55555">
        <ele>1213.2</ele>
        <time>2022-08-12T08:31:10.000Z</time>
      </trkpt>
      <trkpt lat="45.12137" lon="5.55564">
        <ele>1211.5</ele>
        <time>2022-08-12T08:31:12.000Z</time>
      </trkpt>
      <trkpt lat="45.12135" lon="5.55568">
        <ele>1210.9</ele>
        <time>2022-08-12T08:31:13.000Z</time>
      </trkpt>
      <trkpt lat="45.12134" lon="5.55572">
        <ele>1210.3</ele>
        <time>2022-08-12T08:31:14.000Z</time>
      </trkpt>
      <trkpt lat="45.12134" lon="5.55573">
        <ele>1210.1</ele>
        <time>2022-08-12T08:31:15.000Z</time>
      </trkpt>
      <trkpt lat="45.12136" lon="5.55579">
        <ele>1208.9</ele>
        <time>2022-08-12T08:31:22.000Z</time>
      </trkpt>
      <trkpt lat="45.12135" lon="5.55582">
        <ele>1208.5</ele>
        <time>2022-08-12T08:31:23.000Z</time>
      </trkpt>
      <trkpt lat="45.12133" lon="5.55586">
        <ele>1208</ele>
        <time>2022-08-12T08:31:25.000Z</time>
      </trkpt>
      <trkpt lat="45.12132" lon="5.55589">
        <ele>1207.6</ele>
        <time>2022-08-12T08:31:26.000Z</time>
      </trkpt>
      <trkpt lat="45.1213" lon="5.55594">
        <ele>1207</ele>
        <time>2022-08-12T08:31:27.000Z</time>
      </trkpt>
      <trkpt lat="45.12129" lon="5.55599">
        <ele>1206.4</ele>
        <time>2022-08-12T08:31:28.000Z</time>
      </trkpt>
      <trkpt lat="45.12128" lon="5.55605">
        <ele>1205.7</ele>
        <time>2022-08-12T08:31:29.000Z</time>
      </trkpt>
      <trkpt lat="45.12126" lon="5.55611">
        <ele>1205</ele>
        <time>2022-08-12T08:31:30.000Z</time>
      </trkpt>
      <trkpt lat="45.12124" lon="5.55617">
        <ele>1204.1</ele>
        <time>2022-08-12T08:31:32.000Z</time>
      </trkpt>
      <trkpt lat="45.12124" lon="5.55619">
        <ele>1203.8</ele>
        <time>2022-08-12T08:31:33.000Z</time>
      </trkpt>
      <trkpt lat="45.12125" lon="5.55621">
        <ele>1203.5</ele>
        <time>2022-08-12T08:31:34.000Z</time>
      </trkpt>
      <trkpt lat="45.12126" lon="5.55621">
        <ele>1203.4</ele>
        <time>2022-08-12T08:31:35.000Z</time>
      </trkpt>
      <trkpt lat="45.1213" lon="5.55624">
        <ele>1202.6</ele>
        <time>2022-08-12T08:31:37.000Z</time>
      </trkpt>
      <trkpt lat="45.12131" lon="5.55627">
        <ele>1201.8</ele>
        <time>2022-08-12T08:31:38.000Z</time>
      </trkpt>
      <trkpt lat="45.12132" lon="5.55631">
        <ele>1201</ele>
        <time>2022-08-12T08:31:39.000Z</time>
      </trkpt>
      <trkpt lat="45.12134" lon="5.55635">
        <ele>1200.2</ele>
        <time>2022-08-12T08:31:40.000Z</time>
      </trkpt>
      <trkpt lat="45.12133" lon="5.55639">
        <ele>1199.6</ele>
        <time>2022-08-12T08:31:41.000Z</time>
      </trkpt>
      <trkpt lat="45.1213" lon="5.55644">
        <ele>1199.3</ele>
        <time>2022-08-12T08:31:43.000Z</time>
      </trkpt>
      <trkpt lat="45.12122" lon="5.55647">
        <ele>1199.9</ele>
        <time>2022-08-12T08:31:45.000Z</time>
      </trkpt>
      <trkpt lat="45.1212" lon="5.55649">
        <ele>1199.8</ele>
        <time>2022-08-12T08:31:46.000Z</time>
      </trkpt>
      <trkpt lat="45.1212" lon="5.55652">
        <ele>1199.4</ele>
        <time>2022-08-12T08:31:47.000Z</time>
      </trkpt>
      <trkpt lat="45.12123" lon="5.55656">
        <ele>1198.6</ele>
        <time>2022-08-12T08:31:48.000Z</time>
      </trkpt>
      <trkpt lat="45.12125" lon="5.55668">
        <ele>1196.9</ele>
        <time>2022-08-12T08:31:50.000Z</time>
      </trkpt>
      <trkpt lat="45.12122" lon="5.55678">
        <ele>1196.1</ele>
        <time>2022-08-12T08:31:52.000Z</time>
      </trkpt>
      <trkpt lat="45.12119" lon="5.55684">
        <ele>1195.8</ele>
        <time>2022-08-12T08:31:53.000Z</time>
      </trkpt>
      <trkpt lat="45.12118" lon="5.55687">
        <ele>1195.7</ele>
        <time>2022-08-12T08:31:54.000Z</time>
      </trkpt>
      <trkpt lat="45.12118" lon="5.5569">
        <ele>1195.4</ele>
        <time>2022-08-12T08:31:55.000Z</time>
      </trkpt>
      <trkpt lat="45.12118" lon="5.55692">
        <ele>1195.1</ele>
        <time>2022-08-12T08:31:56.000Z</time>
      </trkpt>
      <trkpt lat="45.1212" lon="5.55695">
        <ele>1194.4</ele>
        <time>2022-08-12T08:31:57.000Z</time>
      </trkpt>
      <trkpt lat="45.12121" lon="5.55699">
        <ele>1193.5</ele>
        <time>2022-08-12T08:31:58.000Z</time>
      </trkpt>
      <trkpt lat="45.12122" lon="5.55702">
        <ele>1193</ele>
        <time>2022-08-12T08:31:59.000Z</time>
      </trkpt>
      <trkpt lat="45.12121" lon="5.55704">
        <ele>1192.9</ele>
        <time>2022-08-12T08:32:27.000Z</time>
      </trkpt>
      <trkpt lat="45.12122" lon="5.55706">
        <ele>1192.5</ele>
        <time>2022-08-12T08:32:28.000Z</time>
      </trkpt>
      <trkpt lat="45.12122" lon="5.55708">
        <ele>1192.2</ele>
        <time>2022-08-12T08:32:29.000Z</time>
      </trkpt>
      <trkpt lat="45.12122" lon="5.5571">
        <ele>1191.8</ele>
        <time>2022-08-12T08:32:30.000Z</time>
      </trkpt>
      <trkpt lat="45.12122" lon="5.55714">
        <ele>1191.2</ele>
        <time>2022-08-12T08:32:32.000Z</time>
      </trkpt>
      <trkpt lat="45.12122" lon="5.55715">
        <ele>1191.1</ele>
        <time>2022-08-12T08:32:33.000Z</time>
      </trkpt>
      <trkpt lat="45.1212" lon="5.55718">
        <ele>1191</ele>
        <time>2022-08-12T08:32:34.000Z</time>
      </trkpt>
      <trkpt lat="45.12119" lon="5.5572">
        <ele>1191</ele>
        <time>2022-08-12T08:32:35.000Z</time>
      </trkpt>
      <trkpt lat="45.12119" lon="5.55722">
        <ele>1190.7</ele>
        <time>2022-08-12T08:32:36.000Z</time>
      </trkpt>
      <trkpt lat="45.12119" lon="5.55724">
        <ele>1190.4</ele>
        <time>2022-08-12T08:32:37.000Z</time>
      </trkpt>
      <trkpt lat="45.1212" lon="5.55726">
        <ele>1190.1</ele>
        <time>2022-08-12T08:32:38.000Z</time>
      </trkpt>
      <trkpt lat="45.12122" lon="5.55734">
        <ele>1188.9</ele>
        <time>2022-08-12T08:32:41.000Z</time>
      </trkpt>
      <trkpt lat="45.12122" lon="5.55737">
        <ele>1188.6</ele>
        <time>2022-08-12T08:32:42.000Z</time>
      </trkpt>
      <trkpt lat="45.12122" lon="5.55739">
        <ele>1188.4</ele>
        <time>2022-08-12T08:32:43.000Z</time>
      </trkpt>
      <trkpt lat="45.12121" lon="5.55741">
        <ele>1188.4</ele>
        <time>2022-08-12T08:32:44.000Z</time>
      </trkpt>
      <trkpt lat="45.1212" lon="5.55742">
        <ele>1188.5</ele>
        <time>2022-08-12T08:32:46.000Z</time>
      </trkpt>
      <trkpt lat="45.12119" lon="5.55743">
        <ele>1188.5</ele>
        <time>2022-08-12T08:32:47.000Z</time>
      </trkpt>
      <trkpt lat="45.12119" lon="5.55747">
        <ele>1188.3</ele>
        <time>2022-08-12T08:32:49.000Z</time>
      </trkpt>
      <trkpt lat="45.1212" lon="5.55751">
        <ele>1187.6</ele>
        <time>2022-08-12T08:32:51.000Z</time>
      </trkpt>
      <trkpt lat="45.12121" lon="5.55751">
        <ele>1187.5</ele>
        <time>2022-08-12T08:32:52.000Z</time>
      </trkpt>
      <trkpt lat="45.12119" lon="5.55753">
        <ele>1187.8</ele>
        <time>2022-08-12T08:33:04.000Z</time>
      </trkpt>
      <trkpt lat="45.1212" lon="5.55754">
        <ele>1187.6</ele>
        <time>2022-08-12T08:33:08.000Z</time>
      </trkpt>
      <trkpt lat="45.1212" lon="5.55753">
        <ele>1187.4</ele>
        <time>2022-08-12T08:33:10.000Z</time>
      </trkpt>
      <trkpt lat="45.12121" lon="5.55753">
        <ele>1187.4</ele>
        <time>2022-08-12T08:33:11.000Z</time>
      </trkpt>
      <trkpt lat="45.12122" lon="5.55753">
        <ele>1187.1</ele>
        <time>2022-08-12T08:33:12.000Z</time>
      </trkpt>
      <trkpt lat="45.12127" lon="5.55759">
        <ele>1185.3</ele>
        <time>2022-08-12T08:33:16.000Z</time>
      </trkpt>
      <trkpt lat="45.12128" lon="5.55759">
        <ele>1185.1</ele>
        <time>2022-08-12T08:33:17.000Z</time>
      </trkpt>
      <trkpt lat="45.12129" lon="5.5576">
        <ele>1184.8</ele>
        <time>2022-08-12T08:33:20.000Z</time>
      </trkpt>
      <trkpt lat="45.12132" lon="5.55759">
        <ele>1184.2</ele>
        <time>2022-08-12T08:33:24.000Z</time>
      </trkpt>
      <trkpt lat="45.12135" lon="5.55759">
        <ele>1183.4</ele>
        <time>2022-08-12T08:33:26.000Z</time>
      </trkpt>
      <trkpt lat="45.12136" lon="5.55761">
        <ele>1183</ele>
        <time>2022-08-12T08:33:27.000Z</time>
      </trkpt>
      <trkpt lat="45.12139" lon="5.55763">
        <ele>1182.1</ele>
        <time>2022-08-12T08:33:28.000Z</time>
      </trkpt>
      <trkpt lat="45.12143" lon="5.55765">
        <ele>1181.6</ele>
        <time>2022-08-12T08:33:29.000Z</time>
      </trkpt>
      <trkpt lat="45.12145" lon="5.55766">
        <ele>1181.3</ele>
        <time>2022-08-12T08:33:30.000Z</time>
      </trkpt>
      <trkpt lat="45.12148" lon="5.55767">
        <ele>1181</ele>
        <time>2022-08-12T08:33:31.000Z</time>
      </trkpt>
      <trkpt lat="45.12149" lon="5.55767">
        <ele>1180.9</ele>
        <time>2022-08-12T08:33:32.000Z</time>
      </trkpt>
      <trkpt lat="45.12151" lon="5.55768">
        <ele>1180.7</ele>
        <time>2022-08-12T08:33:51.000Z</time>
      </trkpt>
      <trkpt lat="45.1215" lon="5.55768">
        <ele>1180.8</ele>
        <time>2022-08-12T08:33:58.000Z</time>
      </trkpt>
      <trkpt lat="45.12151" lon="5.55769">
        <ele>1180.6</ele>
        <time>2022-08-12T08:34:02.000Z</time>
      </trkpt>
      <trkpt lat="45.1215" lon="5.55768">
        <ele>1180.8</ele>
        <time>2022-08-12T08:34:06.000Z</time>
      </trkpt>
      <trkpt lat="45.12149" lon="5.55768">
        <ele>1180.8</ele>
        <time>2022-08-12T08:34:08.000Z</time>
      </trkpt>
      <trkpt lat="45.1215" lon="5.55768">
        <ele>1180.7</ele>
        <time>2022-08-12T08:34:10.000Z</time>
      </trkpt>
      <trkpt lat="45.1215" lon="5.55769">
        <ele>1180.7</ele>
        <time>2022-08-12T08:34:11.000Z</time>
      </trkpt>
      <trkpt lat="45.1215" lon="5.5577">
        <ele>1180.7</ele>
        <time>2022-08-12T08:34:14.000Z</time>
      </trkpt>
      <trkpt lat="45.12149" lon="5.5577">
        <ele>1180.7</ele>
        <time>2022-08-12T08:34:15.000Z</time>
      </trkpt>
      <trkpt lat="45.1215" lon="5.55771">
        <ele>1180.6</ele>
        <time>2022-08-12T08:34:27.000Z</time>
      </trkpt>
      <trkpt lat="45.12149" lon="5.55771">
        <ele>1180.6</ele>
        <time>2022-08-12T08:34:28.000Z</time>
      </trkpt>
      <trkpt lat="45.1215" lon="5.55772">
        <ele>1180.6</ele>
        <time>2022-08-12T08:34:29.000Z</time>
      </trkpt>
      <trkpt lat="45.1215" lon="5.55774">
        <ele>1180.5</ele>
        <time>2022-08-12T08:34:30.000Z</time>
      </trkpt>
      <trkpt lat="45.12149" lon="5.55776">
        <ele>1180.4</ele>
        <time>2022-08-12T08:34:31.000Z</time>
      </trkpt>
      <trkpt lat="45.12148" lon="5.55779">
        <ele>1180.3</ele>
        <time>2022-08-12T08:34:32.000Z</time>
      </trkpt>
      <trkpt lat="45.12148" lon="5.55783">
        <ele>1180.1</ele>
        <time>2022-08-12T08:34:33.000Z</time>
      </trkpt>
      <trkpt lat="45.12146" lon="5.55788">
        <ele>1179.9</ele>
        <time>2022-08-12T08:34:34.000Z</time>
      </trkpt>
      <trkpt lat="45.12146" lon="5.55793">
        <ele>1179.7</ele>
        <time>2022-08-12T08:34:35.000Z</time>
      </trkpt>
      <trkpt lat="45.12146" lon="5.55798">
        <ele>1179.4</ele>
        <time>2022-08-12T08:34:36.000Z</time>
      </trkpt>
      <trkpt lat="45.12147" lon="5.55805">
        <ele>1179</ele>
        <time>2022-08-12T08:34:37.000Z</time>
      </trkpt>
      <trkpt lat="45.12148" lon="5.55824">
        <ele>1177.9</ele>
        <time>2022-08-12T08:34:39.000Z</time>
      </trkpt>
      <trkpt lat="45.12148" lon="5.5583">
        <ele>1177.5</ele>
        <time>2022-08-12T08:34:40.000Z</time>
      </trkpt>
      <trkpt lat="45.12148" lon="5.55837">
        <ele>1177.1</ele>
        <time>2022-08-12T08:34:41.000Z</time>
      </trkpt>
      <trkpt lat="45.1215" lon="5.55845">
        <ele>1176.7</ele>
        <time>2022-08-12T08:34:42.000Z</time>
      </trkpt>
      <trkpt lat="45.1215" lon="5.55852">
        <ele>1176.3</ele>
        <time>2022-08-12T08:34:43.000Z</time>
      </trkpt>
      <trkpt lat="45.12149" lon="5.55859">
        <ele>1175.8</ele>
        <time>2022-08-12T08:34:44.000Z</time>
      </trkpt>
      <trkpt lat="45.12147" lon="5.55865">
        <ele>1175.3</ele>
        <time>2022-08-12T08:34:45.000Z</time>
      </trkpt>
      <trkpt lat="45.12144" lon="5.55872">
        <ele>1174.7</ele>
        <time>2022-08-12T08:34:46.000Z</time>
      </trkpt>
      <trkpt lat="45.12142" lon="5.55878">
        <ele>1174.1</ele>
        <time>2022-08-12T08:34:47.000Z</time>
      </trkpt>
      <trkpt lat="45.1214" lon="5.55884">
        <ele>1173.5</ele>
        <time>2022-08-12T08:34:48.000Z</time>
      </trkpt>
      <trkpt lat="45.12138" lon="5.55889">
        <ele>1173.2</ele>
        <time>2022-08-12T08:34:49.000Z</time>
      </trkpt>
      <trkpt lat="45.12136" lon="5.55892">
        <ele>1173.4</ele>
        <time>2022-08-12T08:34:50.000Z</time>
      </trkpt>
      <trkpt lat="45.12135" lon="5.55891">
        <ele>1173.7</ele>
        <time>2022-08-12T08:35:00.000Z</time>
      </trkpt>
      <trkpt lat="45.12134" lon="5.55889">
        <ele>1174</ele>
        <time>2022-08-12T08:35:04.000Z</time>
      </trkpt>
      <trkpt lat="45.12134" lon="5.5589">
        <ele>1174</ele>
        <time>2022-08-12T08:35:07.000Z</time>
      </trkpt>
      <trkpt lat="45.12135" lon="5.55894">
        <ele>1173.7</ele>
        <time>2022-08-12T08:35:09.000Z</time>
      </trkpt>
      <trkpt lat="45.12134" lon="5.55896">
        <ele>1173.7</ele>
        <time>2022-08-12T08:35:10.000Z</time>
      </trkpt>
      <trkpt lat="45.12134" lon="5.55898">
        <ele>1173.7</ele>
        <time>2022-08-12T08:35:11.000Z</time>
      </trkpt>
      <trkpt lat="45.12134" lon="5.55901">
        <ele>1173.6</ele>
        <time>2022-08-12T08:35:12.000Z</time>
      </trkpt>
      <trkpt lat="45.12135" lon="5.55907">
        <ele>1173.1</ele>
        <time>2022-08-12T08:35:14.000Z</time>
      </trkpt>
      <trkpt lat="45.12136" lon="5.55911">
        <ele>1172.9</ele>
        <time>2022-08-12T08:35:15.000Z</time>
      </trkpt>
      <trkpt lat="45.12137" lon="5.55927">
        <ele>1171.9</ele>
        <time>2022-08-12T08:35:18.000Z</time>
      </trkpt>
      <trkpt lat="45.12141" lon="5.55939">
        <ele>1171.4</ele>
        <time>2022-08-12T08:35:20.000Z</time>
      </trkpt>
      <trkpt lat="45.12142" lon="5.55945">
        <ele>1171.4</ele>
        <time>2022-08-12T08:35:21.000Z</time>
      </trkpt>
      <trkpt lat="45.12143" lon="5.55962">
        <ele>1171.4</ele>
        <time>2022-08-12T08:35:23.000Z</time>
      </trkpt>
      <trkpt lat="45.12142" lon="5.55969">
        <ele>1171.2</ele>
        <time>2022-08-12T08:35:24.000Z</time>
      </trkpt>
      <trkpt lat="45.12139" lon="5.55977">
        <ele>1170.5</ele>
        <time>2022-08-12T08:35:25.000Z</time>
      </trkpt>
      <trkpt lat="45.12136" lon="5.55985">
        <ele>1169.9</ele>
        <time>2022-08-12T08:35:26.000Z</time>
      </trkpt>
      <trkpt lat="45.12131" lon="5.55992">
        <ele>1169.9</ele>
        <time>2022-08-12T08:35:27.000Z</time>
      </trkpt>
      <trkpt lat="45.12126" lon="5.55997">
        <ele>1169.7</ele>
        <time>2022-08-12T08:35:28.000Z</time>
      </trkpt>
      <trkpt lat="45.12123" lon="5.56004">
        <ele>1169.3</ele>
        <time>2022-08-12T08:35:29.000Z</time>
      </trkpt>
      <trkpt lat="45.12122" lon="5.56012">
        <ele>1168.6</ele>
        <time>2022-08-12T08:35:30.000Z</time>
      </trkpt>
      <trkpt lat="45.12118" lon="5.56025">
        <ele>1167.3</ele>
        <time>2022-08-12T08:35:32.000Z</time>
      </trkpt>
      <trkpt lat="45.12117" lon="5.56033">
        <ele>1166.6</ele>
        <time>2022-08-12T08:35:33.000Z</time>
      </trkpt>
      <trkpt lat="45.12116" lon="5.5606">
        <ele>1164.6</ele>
        <time>2022-08-12T08:35:36.000Z</time>
      </trkpt>
      <trkpt lat="45.12116" lon="5.56067">
        <ele>1163.8</ele>
        <time>2022-08-12T08:35:37.000Z</time>
      </trkpt>
      <trkpt lat="45.12118" lon="5.56077">
        <ele>1162.9</ele>
        <time>2022-08-12T08:35:38.000Z</time>
      </trkpt>
      <trkpt lat="45.1212" lon="5.56097">
        <ele>1161.8</ele>
        <time>2022-08-12T08:35:40.000Z</time>
      </trkpt>
      <trkpt lat="45.12119" lon="5.56105">
        <ele>1161.5</ele>
        <time>2022-08-12T08:35:41.000Z</time>
      </trkpt>
      <trkpt lat="45.12117" lon="5.56114">
        <ele>1161.1</ele>
        <time>2022-08-12T08:35:42.000Z</time>
      </trkpt>
      <trkpt lat="45.12113" lon="5.5612">
        <ele>1160.8</ele>
        <time>2022-08-12T08:35:43.000Z</time>
      </trkpt>
      <trkpt lat="45.12109" lon="5.56126">
        <ele>1160.5</ele>
        <time>2022-08-12T08:35:44.000Z</time>
      </trkpt>
      <trkpt lat="45.12107" lon="5.5613">
        <ele>1160.4</ele>
        <time>2022-08-12T08:35:45.000Z</time>
      </trkpt>
      <trkpt lat="45.12105" lon="5.56133">
        <ele>1160.2</ele>
        <time>2022-08-12T08:35:46.000Z</time>
      </trkpt>
      <trkpt lat="45.12102" lon="5.56137">
        <ele>1160.1</ele>
        <time>2022-08-12T08:35:47.000Z</time>
      </trkpt>
      <trkpt lat="45.12098" lon="5.5614">
        <ele>1160</ele>
        <time>2022-08-12T08:35:48.000Z</time>
      </trkpt>
      <trkpt lat="45.12095" lon="5.56143">
        <ele>1160</ele>
        <time>2022-08-12T08:35:49.000Z</time>
      </trkpt>
      <trkpt lat="45.12093" lon="5.56145">
        <ele>1159.9</ele>
        <time>2022-08-12T08:35:50.000Z</time>
      </trkpt>
      <trkpt lat="45.12091" lon="5.56148">
        <ele>1159.9</ele>
        <time>2022-08-12T08:35:51.000Z</time>
      </trkpt>
      <trkpt lat="45.12089" lon="5.5615">
        <ele>1159.8</ele>
        <time>2022-08-12T08:35:52.000Z</time>
      </trkpt>
      <trkpt lat="45.12086" lon="5.56152">
        <ele>1159.6</ele>
        <time>2022-08-12T08:35:53.000Z</time>
      </trkpt>
      <trkpt lat="45.1207" lon="5.56162">
        <ele>1159.3</ele>
        <time>2022-08-12T08:35:58.000Z</time>
      </trkpt>
      <trkpt lat="45.12066" lon="5.56164">
        <ele>1159.2</ele>
        <time>2022-08-12T08:35:59.000Z</time>
      </trkpt>
      <trkpt lat="45.12057" lon="5.56165">
        <ele>1159.1</ele>
        <time>2022-08-12T08:36:01.000Z</time>
      </trkpt>
      <trkpt lat="45.12052" lon="5.56167">
        <ele>1159.1</ele>
        <time>2022-08-12T08:36:02.000Z</time>
      </trkpt>
      <trkpt lat="45.12047" lon="5.56169">
        <ele>1159.1</ele>
        <time>2022-08-12T08:36:03.000Z</time>
      </trkpt>
      <trkpt lat="45.12041" lon="5.56171">
        <ele>1159.1</ele>
        <time>2022-08-12T08:36:04.000Z</time>
      </trkpt>
      <trkpt lat="45.1203" lon="5.56175">
        <ele>1159</ele>
        <time>2022-08-12T08:36:06.000Z</time>
      </trkpt>
      <trkpt lat="45.12024" lon="5.56179">
        <ele>1158.8</ele>
        <time>2022-08-12T08:36:07.000Z</time>
      </trkpt>
      <trkpt lat="45.12017" lon="5.56183">
        <ele>1158.4</ele>
        <time>2022-08-12T08:36:08.000Z</time>
      </trkpt>
      <trkpt lat="45.12011" lon="5.56186">
        <ele>1158.2</ele>
        <time>2022-08-12T08:36:09.000Z</time>
      </trkpt>
      <trkpt lat="45.11997" lon="5.56193">
        <ele>1157.1</ele>
        <time>2022-08-12T08:36:11.000Z</time>
      </trkpt>
      <trkpt lat="45.11982" lon="5.562">
        <ele>1155.7</ele>
        <time>2022-08-12T08:36:13.000Z</time>
      </trkpt>
      <trkpt lat="45.11957" lon="5.56208">
        <ele>1153.7</ele>
        <time>2022-08-12T08:36:16.000Z</time>
      </trkpt>
      <trkpt lat="45.11933" lon="5.56216">
        <ele>1150.7</ele>
        <time>2022-08-12T08:36:19.000Z</time>
      </trkpt>
      <trkpt lat="45.11926" lon="5.5622">
        <ele>1149.3</ele>
        <time>2022-08-12T08:36:20.000Z</time>
      </trkpt>
      <trkpt lat="45.11908" lon="5.56229">
        <ele>1146.5</ele>
        <time>2022-08-12T08:36:22.000Z</time>
      </trkpt>
      <trkpt lat="45.11895" lon="5.56244">
        <ele>1143.4</ele>
        <time>2022-08-12T08:36:24.000Z</time>
      </trkpt>
      <trkpt lat="45.11889" lon="5.56252">
        <ele>1142</ele>
        <time>2022-08-12T08:36:25.000Z</time>
      </trkpt>
      <trkpt lat="45.11884" lon="5.5626">
        <ele>1141.5</ele>
        <time>2022-08-12T08:36:26.000Z</time>
      </trkpt>
      <trkpt lat="45.11881" lon="5.56266">
        <ele>1140.9</ele>
        <time>2022-08-12T08:36:27.000Z</time>
      </trkpt>
      <trkpt lat="45.11877" lon="5.56275">
        <ele>1140</ele>
        <time>2022-08-12T08:36:28.000Z</time>
      </trkpt>
      <trkpt lat="45.11872" lon="5.56284">
        <ele>1139.2</ele>
        <time>2022-08-12T08:36:29.000Z</time>
      </trkpt>
      <trkpt lat="45.11868" lon="5.56293">
        <ele>1138.8</ele>
        <time>2022-08-12T08:36:30.000Z</time>
      </trkpt>
      <trkpt lat="45.11864" lon="5.563">
        <ele>1138.3</ele>
        <time>2022-08-12T08:36:31.000Z</time>
      </trkpt>
      <trkpt lat="45.1186" lon="5.56306">
        <ele>1137.9</ele>
        <time>2022-08-12T08:36:32.000Z</time>
      </trkpt>
      <trkpt lat="45.11857" lon="5.56309">
        <ele>1137.5</ele>
        <time>2022-08-12T08:36:33.000Z</time>
      </trkpt>
      <trkpt lat="45.11854" lon="5.5631">
        <ele>1137</ele>
        <time>2022-08-12T08:36:34.000Z</time>
      </trkpt>
      <trkpt lat="45.11853" lon="5.56309">
        <ele>1136.8</ele>
        <time>2022-08-12T08:36:35.000Z</time>
      </trkpt>
      <trkpt lat="45.11856" lon="5.56305">
        <ele>1137.1</ele>
        <time>2022-08-12T08:37:01.000Z</time>
      </trkpt>
      <trkpt lat="45.11859" lon="5.56301">
        <ele>1137.5</ele>
        <time>2022-08-12T08:37:03.000Z</time>
      </trkpt>
      <trkpt lat="45.11868" lon="5.56286">
        <ele>1138.5</ele>
        <time>2022-08-12T08:37:08.000Z</time>
      </trkpt>
      <trkpt lat="45.1187" lon="5.56281">
        <ele>1138.7</ele>
        <time>2022-08-12T08:37:09.000Z</time>
      </trkpt>
      <trkpt lat="45.11872" lon="5.56277">
        <ele>1139</ele>
        <time>2022-08-12T08:37:10.000Z</time>
      </trkpt>
      <trkpt lat="45.11873" lon="5.56266">
        <ele>1139.9</ele>
        <time>2022-08-12T08:37:12.000Z</time>
      </trkpt>
      <trkpt lat="45.11872" lon="5.5626">
        <ele>1140.1</ele>
        <time>2022-08-12T08:37:13.000Z</time>
      </trkpt>
      <trkpt lat="45.1187" lon="5.56255">
        <ele>1140.3</ele>
        <time>2022-08-12T08:37:14.000Z</time>
      </trkpt>
      <trkpt lat="45.11864" lon="5.56247">
        <ele>1140.8</ele>
        <time>2022-08-12T08:37:16.000Z</time>
      </trkpt>
      <trkpt lat="45.1185" lon="5.56244">
        <ele>1142.1</ele>
        <time>2022-08-12T08:37:19.000Z</time>
      </trkpt>
      <trkpt lat="45.11848" lon="5.56245">
        <ele>1142.2</ele>
        <time>2022-08-12T08:37:20.000Z</time>
      </trkpt>
      <trkpt lat="45.11845" lon="5.56246">
        <ele>1142.2</ele>
        <time>2022-08-12T08:37:21.000Z</time>
      </trkpt>
      <trkpt lat="45.11843" lon="5.56248">
        <ele>1141.8</ele>
        <time>2022-08-12T08:37:22.000Z</time>
      </trkpt>
      <trkpt lat="45.11842" lon="5.56249">
        <ele>1141.6</ele>
        <time>2022-08-12T08:37:23.000Z</time>
      </trkpt>
      <trkpt lat="45.1184" lon="5.5625">
        <ele>1141.5</ele>
        <time>2022-08-12T08:37:24.000Z</time>
      </trkpt>
      <trkpt lat="45.11838" lon="5.56251">
        <ele>1141.4</ele>
        <time>2022-08-12T08:37:25.000Z</time>
      </trkpt>
      <trkpt lat="45.11836" lon="5.56253">
        <ele>1141.1</ele>
        <time>2022-08-12T08:37:26.000Z</time>
      </trkpt>
      <trkpt lat="45.11834" lon="5.56255">
        <ele>1140.9</ele>
        <time>2022-08-12T08:37:27.000Z</time>
      </trkpt>
      <trkpt lat="45.11831" lon="5.56258">
        <ele>1140.8</ele>
        <time>2022-08-12T08:37:29.000Z</time>
      </trkpt>
      <trkpt lat="45.11827" lon="5.56262">
        <ele>1140.4</ele>
        <time>2022-08-12T08:37:31.000Z</time>
      </trkpt>
      <trkpt lat="45.11824" lon="5.56263">
        <ele>1140.5</ele>
        <time>2022-08-12T08:37:32.000Z</time>
      </trkpt>
      <trkpt lat="45.11822" lon="5.56264">
        <ele>1140.6</ele>
        <time>2022-08-12T08:37:33.000Z</time>
      </trkpt>
      <trkpt lat="45.11819" lon="5.56265">
        <ele>1140.9</ele>
        <time>2022-08-12T08:37:34.000Z</time>
      </trkpt>
      <trkpt lat="45.11817" lon="5.56267">
        <ele>1140.6</ele>
        <time>2022-08-12T08:37:35.000Z</time>
      </trkpt>
      <trkpt lat="45.11815" lon="5.56269">
        <ele>1140.4</ele>
        <time>2022-08-12T08:37:36.000Z</time>
      </trkpt>
      <trkpt lat="45.1181" lon="5.56273">
        <ele>1139.9</ele>
        <time>2022-08-12T08:37:39.000Z</time>
      </trkpt>
      <trkpt lat="45.11805" lon="5.56275">
        <ele>1139.9</ele>
        <time>2022-08-12T08:37:41.000Z</time>
      </trkpt>
      <trkpt lat="45.11799" lon="5.56277">
        <ele>1140.1</ele>
        <time>2022-08-12T08:37:44.000Z</time>
      </trkpt>
      <trkpt lat="45.11797" lon="5.56279">
        <ele>1140</ele>
        <time>2022-08-12T08:37:45.000Z</time>
      </trkpt>
      <trkpt lat="45.11796" lon="5.5628">
        <ele>1139.8</ele>
        <time>2022-08-12T08:37:46.000Z</time>
      </trkpt>
      <trkpt lat="45.11794" lon="5.56282">
        <ele>1139.6</ele>
        <time>2022-08-12T08:37:47.000Z</time>
      </trkpt>
      <trkpt lat="45.1179" lon="5.56285">
        <ele>1139.4</ele>
        <time>2022-08-12T08:37:49.000Z</time>
      </trkpt>
      <trkpt lat="45.11788" lon="5.56286">
        <ele>1139.4</ele>
        <time>2022-08-12T08:37:50.000Z</time>
      </trkpt>
      <trkpt lat="45.11786" lon="5.56287">
        <ele>1139.4</ele>
        <time>2022-08-12T08:37:51.000Z</time>
      </trkpt>
      <trkpt lat="45.11784" lon="5.56288">
        <ele>1139.4</ele>
        <time>2022-08-12T08:37:52.000Z</time>
      </trkpt>
      <trkpt lat="45.11782" lon="5.56289">
        <ele>1139.5</ele>
        <time>2022-08-12T08:37:53.000Z</time>
      </trkpt>
      <trkpt lat="45.1178" lon="5.56291">
        <ele>1139.3</ele>
        <time>2022-08-12T08:37:54.000Z</time>
      </trkpt>
      <trkpt lat="45.11778" lon="5.56293">
        <ele>1139.2</ele>
        <time>2022-08-12T08:37:55.000Z</time>
      </trkpt>
      <trkpt lat="45.11776" lon="5.56294">
        <ele>1139</ele>
        <time>2022-08-12T08:37:56.000Z</time>
      </trkpt>
      <trkpt lat="45.11775" lon="5.56296">
        <ele>1138.8</ele>
        <time>2022-08-12T08:37:57.000Z</time>
      </trkpt>
      <trkpt lat="45.11773" lon="5.56297">
        <ele>1138.8</ele>
        <time>2022-08-12T08:37:58.000Z</time>
      </trkpt>
      <trkpt lat="45.11771" lon="5.56297">
        <ele>1139.1</ele>
        <time>2022-08-12T08:37:59.000Z</time>
      </trkpt>
      <trkpt lat="45.1177" lon="5.56298">
        <ele>1139.1</ele>
        <time>2022-08-12T08:38:00.000Z</time>
      </trkpt>
      <trkpt lat="45.11768" lon="5.56299">
        <ele>1139</ele>
        <time>2022-08-12T08:38:01.000Z</time>
      </trkpt>
      <trkpt lat="45.11767" lon="5.563">
        <ele>1138.9</ele>
        <time>2022-08-12T08:38:02.000Z</time>
      </trkpt>
      <trkpt lat="45.11766" lon="5.56302">
        <ele>1138.7</ele>
        <time>2022-08-12T08:38:03.000Z</time>
      </trkpt>
      <trkpt lat="45.11763" lon="5.56304">
        <ele>1138.4</ele>
        <time>2022-08-12T08:38:04.000Z</time>
      </trkpt>
      <trkpt lat="45.11762" lon="5.56306">
        <ele>1138.2</ele>
        <time>2022-08-12T08:38:05.000Z</time>
      </trkpt>
      <trkpt lat="45.1176" lon="5.56309">
        <ele>1137.7</ele>
        <time>2022-08-12T08:38:06.000Z</time>
      </trkpt>
      <trkpt lat="45.11759" lon="5.5631">
        <ele>1137.4</ele>
        <time>2022-08-12T08:38:07.000Z</time>
      </trkpt>
      <trkpt lat="45.11757" lon="5.56312">
        <ele>1137.3</ele>
        <time>2022-08-12T08:38:08.000Z</time>
      </trkpt>
      <trkpt lat="45.11755" lon="5.56314">
        <ele>1137.1</ele>
        <time>2022-08-12T08:38:09.000Z</time>
      </trkpt>
      <trkpt lat="45.11753" lon="5.56315">
        <ele>1137</ele>
        <time>2022-08-12T08:38:10.000Z</time>
      </trkpt>
      <trkpt lat="45.11751" lon="5.56315">
        <ele>1137</ele>
        <time>2022-08-12T08:38:11.000Z</time>
      </trkpt>
      <trkpt lat="45.1175" lon="5.56316">
        <ele>1137</ele>
        <time>2022-08-12T08:38:12.000Z</time>
      </trkpt>
      <trkpt lat="45.1175" lon="5.56317">
        <ele>1136.8</ele>
        <time>2022-08-12T08:38:13.000Z</time>
      </trkpt>
      <trkpt lat="45.11748" lon="5.56318">
        <ele>1136.5</ele>
        <time>2022-08-12T08:38:14.000Z</time>
      </trkpt>
      <trkpt lat="45.11747" lon="5.5632">
        <ele>1136.1</ele>
        <time>2022-08-12T08:38:15.000Z</time>
      </trkpt>
      <trkpt lat="45.11745" lon="5.56322">
        <ele>1135.7</ele>
        <time>2022-08-12T08:38:16.000Z</time>
      </trkpt>
      <trkpt lat="45.11744" lon="5.56325">
        <ele>1135.2</ele>
        <time>2022-08-12T08:38:17.000Z</time>
      </trkpt>
      <trkpt lat="45.11743" lon="5.56327">
        <ele>1134.8</ele>
        <time>2022-08-12T08:38:18.000Z</time>
      </trkpt>
      <trkpt lat="45.11741" lon="5.56329">
        <ele>1134.4</ele>
        <time>2022-08-12T08:38:19.000Z</time>
      </trkpt>
      <trkpt lat="45.11739" lon="5.56331">
        <ele>1134.1</ele>
        <time>2022-08-12T08:38:20.000Z</time>
      </trkpt>
      <trkpt lat="45.11737" lon="5.56334">
        <ele>1133.9</ele>
        <time>2022-08-12T08:38:21.000Z</time>
      </trkpt>
      <trkpt lat="45.11733" lon="5.56336">
        <ele>1133.7</ele>
        <time>2022-08-12T08:38:22.000Z</time>
      </trkpt>
      <trkpt lat="45.11729" lon="5.56338">
        <ele>1133.6</ele>
        <time>2022-08-12T08:38:23.000Z</time>
      </trkpt>
      <trkpt lat="45.11724" lon="5.56341">
        <ele>1133.3</ele>
        <time>2022-08-12T08:38:24.000Z</time>
      </trkpt>
      <trkpt lat="45.11719" lon="5.56344">
        <ele>1133</ele>
        <time>2022-08-12T08:38:25.000Z</time>
      </trkpt>
      <trkpt lat="45.1171" lon="5.5635">
        <ele>1132.2</ele>
        <time>2022-08-12T08:38:27.000Z</time>
      </trkpt>
      <trkpt lat="45.11702" lon="5.56355">
        <ele>1131.7</ele>
        <time>2022-08-12T08:38:29.000Z</time>
      </trkpt>
      <trkpt lat="45.117" lon="5.56356">
        <ele>1131.5</ele>
        <time>2022-08-12T08:38:30.000Z</time>
      </trkpt>
      <trkpt lat="45.11698" lon="5.56358">
        <ele>1131.3</ele>
        <time>2022-08-12T08:38:31.000Z</time>
      </trkpt>
      <trkpt lat="45.11698" lon="5.56359">
        <ele>1131.2</ele>
        <time>2022-08-12T08:38:32.000Z</time>
      </trkpt>
      <trkpt lat="45.11696" lon="5.56359">
        <ele>1131.3</ele>
        <time>2022-08-12T08:38:51.000Z</time>
      </trkpt>
      <trkpt lat="45.11694" lon="5.5636">
        <ele>1131.2</ele>
        <time>2022-08-12T08:38:52.000Z</time>
      </trkpt>
      <trkpt lat="45.11691" lon="5.56362">
        <ele>1130.8</ele>
        <time>2022-08-12T08:38:53.000Z</time>
      </trkpt>
      <trkpt lat="45.11683" lon="5.56369">
        <ele>1129.2</ele>
        <time>2022-08-12T08:38:55.000Z</time>
      </trkpt>
      <trkpt lat="45.11678" lon="5.56374">
        <ele>1128.1</ele>
        <time>2022-08-12T08:38:56.000Z</time>
      </trkpt>
      <trkpt lat="45.11673" lon="5.5638">
        <ele>1127.2</ele>
        <time>2022-08-12T08:38:57.000Z</time>
      </trkpt>
      <trkpt lat="45.11662" lon="5.56391">
        <ele>1125.5</ele>
        <time>2022-08-12T08:38:59.000Z</time>
      </trkpt>
      <trkpt lat="45.11656" lon="5.56396">
        <ele>1124.4</ele>
        <time>2022-08-12T08:39:00.000Z</time>
      </trkpt>
      <trkpt lat="45.11644" lon="5.56405">
        <ele>1122.4</ele>
        <time>2022-08-12T08:39:02.000Z</time>
      </trkpt>
      <trkpt lat="45.11631" lon="5.56413">
        <ele>1120.8</ele>
        <time>2022-08-12T08:39:04.000Z</time>
      </trkpt>
      <trkpt lat="45.11623" lon="5.56417">
        <ele>1119.8</ele>
        <time>2022-08-12T08:39:05.000Z</time>
      </trkpt>
      <trkpt lat="45.11611" lon="5.56426">
        <ele>1116.9</ele>
        <time>2022-08-12T08:39:07.000Z</time>
      </trkpt>
      <trkpt lat="45.11605" lon="5.5643">
        <ele>1115.3</ele>
        <time>2022-08-12T08:39:08.000Z</time>
      </trkpt>
      <trkpt lat="45.11599" lon="5.56434">
        <ele>1113.9</ele>
        <time>2022-08-12T08:39:09.000Z</time>
      </trkpt>
      <trkpt lat="45.11594" lon="5.56438">
        <ele>1112.7</ele>
        <time>2022-08-12T08:39:10.000Z</time>
      </trkpt>
      <trkpt lat="45.1159" lon="5.56441">
        <ele>1111.8</ele>
        <time>2022-08-12T08:39:11.000Z</time>
      </trkpt>
      <trkpt lat="45.11586" lon="5.56444">
        <ele>1111.2</ele>
        <time>2022-08-12T08:39:12.000Z</time>
      </trkpt>
      <trkpt lat="45.11584" lon="5.56446">
        <ele>1110.5</ele>
        <time>2022-08-12T08:39:13.000Z</time>
      </trkpt>
      <trkpt lat="45.1158" lon="5.56449">
        <ele>1109.3</ele>
        <time>2022-08-12T08:39:14.000Z</time>
      </trkpt>
      <trkpt lat="45.11577" lon="5.56452">
        <ele>1108.4</ele>
        <time>2022-08-12T08:39:15.000Z</time>
      </trkpt>
      <trkpt lat="45.11572" lon="5.56455">
        <ele>1107.4</ele>
        <time>2022-08-12T08:39:16.000Z</time>
      </trkpt>
      <trkpt lat="45.11569" lon="5.56455">
        <ele>1107.1</ele>
        <time>2022-08-12T08:39:17.000Z</time>
      </trkpt>
      <trkpt lat="45.11567" lon="5.56456">
        <ele>1106.8</ele>
        <time>2022-08-12T08:39:18.000Z</time>
      </trkpt>
      <trkpt lat="45.11565" lon="5.56457">
        <ele>1106.4</ele>
        <time>2022-08-12T08:39:19.000Z</time>
      </trkpt>
      <trkpt lat="45.11565" lon="5.56459">
        <ele>1106</ele>
        <time>2022-08-12T08:39:20.000Z</time>
      </trkpt>
      <trkpt lat="45.11564" lon="5.5646">
        <ele>1105.7</ele>
        <time>2022-08-12T08:39:21.000Z</time>
      </trkpt>
      <trkpt lat="45.11563" lon="5.56461">
        <ele>1105.5</ele>
        <time>2022-08-12T08:39:22.000Z</time>
      </trkpt>
      <trkpt lat="45.11562" lon="5.56462">
        <ele>1105.3</ele>
        <time>2022-08-12T08:39:23.000Z</time>
      </trkpt>
      <trkpt lat="45.11561" lon="5.56463">
        <ele>1105</ele>
        <time>2022-08-12T08:39:24.000Z</time>
      </trkpt>
      <trkpt lat="45.11558" lon="5.56465">
        <ele>1104.6</ele>
        <time>2022-08-12T08:39:25.000Z</time>
      </trkpt>
      <trkpt lat="45.11556" lon="5.56466">
        <ele>1104.2</ele>
        <time>2022-08-12T08:39:26.000Z</time>
      </trkpt>
      <trkpt lat="45.11554" lon="5.56467">
        <ele>1104</ele>
        <time>2022-08-12T08:39:27.000Z</time>
      </trkpt>
      <trkpt lat="45.11548" lon="5.56467">
        <ele>1103.9</ele>
        <time>2022-08-12T08:39:29.000Z</time>
      </trkpt>
      <trkpt lat="45.11546" lon="5.56466">
        <ele>1104.1</ele>
        <time>2022-08-12T08:39:30.000Z</time>
      </trkpt>
      <trkpt lat="45.11543" lon="5.56465">
        <ele>1104.3</ele>
        <time>2022-08-12T08:39:31.000Z</time>
      </trkpt>
      <trkpt lat="45.11541" lon="5.56464">
        <ele>1104.4</ele>
        <time>2022-08-12T08:39:32.000Z</time>
      </trkpt>
      <trkpt lat="45.11538" lon="5.56463">
        <ele>1104.5</ele>
        <time>2022-08-12T08:39:33.000Z</time>
      </trkpt>
      <trkpt lat="45.11532" lon="5.5646">
        <ele>1104.9</ele>
        <time>2022-08-12T08:39:35.000Z</time>
      </trkpt>
      <trkpt lat="45.1153" lon="5.56459">
        <ele>1105</ele>
        <time>2022-08-12T08:39:36.000Z</time>
      </trkpt>
      <trkpt lat="45.11527" lon="5.56458">
        <ele>1104.9</ele>
        <time>2022-08-12T08:39:37.000Z</time>
      </trkpt>
      <trkpt lat="45.11523" lon="5.56458">
        <ele>1104.7</ele>
        <time>2022-08-12T08:39:38.000Z</time>
      </trkpt>
      <trkpt lat="45.11515" lon="5.56453">
        <ele>1104.5</ele>
        <time>2022-08-12T08:39:41.000Z</time>
      </trkpt>
      <trkpt lat="45.11512" lon="5.56451">
        <ele>1104.5</ele>
        <time>2022-08-12T08:39:42.000Z</time>
      </trkpt>
      <trkpt lat="45.1151" lon="5.56451">
        <ele>1104.3</ele>
        <time>2022-08-12T08:39:43.000Z</time>
      </trkpt>
      <trkpt lat="45.11508" lon="5.56451">
        <ele>1104.1</ele>
        <time>2022-08-12T08:39:44.000Z</time>
      </trkpt>
      <trkpt lat="45.11507" lon="5.56452">
        <ele>1103.9</ele>
        <time>2022-08-12T08:39:45.000Z</time>
      </trkpt>
      <trkpt lat="45.11505" lon="5.56452">
        <ele>1103.6</ele>
        <time>2022-08-12T08:39:46.000Z</time>
      </trkpt>
      <trkpt lat="45.11501" lon="5.56455">
        <ele>1103</ele>
        <time>2022-08-12T08:39:47.000Z</time>
      </trkpt>
      <trkpt lat="45.11497" lon="5.56459">
        <ele>1102.1</ele>
        <time>2022-08-12T08:39:48.000Z</time>
      </trkpt>
      <trkpt lat="45.11493" lon="5.56462">
        <ele>1101.3</ele>
        <time>2022-08-12T08:39:49.000Z</time>
      </trkpt>
      <trkpt lat="45.1149" lon="5.56466">
        <ele>1100.6</ele>
        <time>2022-08-12T08:39:50.000Z</time>
      </trkpt>
      <trkpt lat="45.11487" lon="5.56468">
        <ele>1100</ele>
        <time>2022-08-12T08:39:51.000Z</time>
      </trkpt>
      <trkpt lat="45.11485" lon="5.56469">
        <ele>1099.7</ele>
        <time>2022-08-12T08:39:52.000Z</time>
      </trkpt>
      <trkpt lat="45.11485" lon="5.5647">
        <ele>1099.7</ele>
        <time>2022-08-12T08:39:54.000Z</time>
      </trkpt>
      <trkpt lat="45.11485" lon="5.56471">
        <ele>1099.5</ele>
        <time>2022-08-12T08:39:56.000Z</time>
      </trkpt>
      <trkpt lat="45.11484" lon="5.56472">
        <ele>1099.3</ele>
        <time>2022-08-12T08:39:57.000Z</time>
      </trkpt>
      <trkpt lat="45.11484" lon="5.56474">
        <ele>1099.1</ele>
        <time>2022-08-12T08:39:58.000Z</time>
      </trkpt>
      <trkpt lat="45.11484" lon="5.56475">
        <ele>1098.9</ele>
        <time>2022-08-12T08:39:59.000Z</time>
      </trkpt>
      <trkpt lat="45.11485" lon="5.56478">
        <ele>1098.7</ele>
        <time>2022-08-12T08:40:00.000Z</time>
      </trkpt>
      <trkpt lat="45.11484" lon="5.5648">
        <ele>1098.4</ele>
        <time>2022-08-12T08:40:01.000Z</time>
      </trkpt>
      <trkpt lat="45.11483" lon="5.56483">
        <ele>1097.9</ele>
        <time>2022-08-12T08:40:02.000Z</time>
      </trkpt>
      <trkpt lat="45.11483" lon="5.56486">
        <ele>1097.4</ele>
        <time>2022-08-12T08:40:03.000Z</time>
      </trkpt>
      <trkpt lat="45.11482" lon="5.56489">
        <ele>1097</ele>
        <time>2022-08-12T08:40:04.000Z</time>
      </trkpt>
      <trkpt lat="45.11483" lon="5.56492">
        <ele>1096.7</ele>
        <time>2022-08-12T08:40:05.000Z</time>
      </trkpt>
      <trkpt lat="45.11483" lon="5.56495">
        <ele>1096.4</ele>
        <time>2022-08-12T08:40:06.000Z</time>
      </trkpt>
      <trkpt lat="45.11481" lon="5.56498">
        <ele>1095.9</ele>
        <time>2022-08-12T08:40:07.000Z</time>
      </trkpt>
      <trkpt lat="45.11479" lon="5.56502">
        <ele>1095.2</ele>
        <time>2022-08-12T08:40:08.000Z</time>
      </trkpt>
      <trkpt lat="45.11476" lon="5.56507">
        <ele>1094.1</ele>
        <time>2022-08-12T08:40:09.000Z</time>
      </trkpt>
      <trkpt lat="45.11472" lon="5.56515">
        <ele>1092.3</ele>
        <time>2022-08-12T08:40:10.000Z</time>
      </trkpt>
      <trkpt lat="45.1147" lon="5.5652">
        <ele>1091.2</ele>
        <time>2022-08-12T08:40:11.000Z</time>
      </trkpt>
      <trkpt lat="45.11467" lon="5.56524">
        <ele>1090.2</ele>
        <time>2022-08-12T08:40:12.000Z</time>
      </trkpt>
      <trkpt lat="45.11467" lon="5.56526">
        <ele>1089.7</ele>
        <time>2022-08-12T08:40:13.000Z</time>
      </trkpt>
      <trkpt lat="45.11466" lon="5.56527">
        <ele>1089.6</ele>
        <time>2022-08-12T08:40:14.000Z</time>
      </trkpt>
      <trkpt lat="45.11466" lon="5.56529">
        <ele>1089.1</ele>
        <time>2022-08-12T08:40:16.000Z</time>
      </trkpt>
      <trkpt lat="45.11466" lon="5.5653">
        <ele>1088.8</ele>
        <time>2022-08-12T08:40:17.000Z</time>
      </trkpt>
      <trkpt lat="45.11467" lon="5.56532">
        <ele>1088.4</ele>
        <time>2022-08-12T08:40:18.000Z</time>
      </trkpt>
      <trkpt lat="45.11468" lon="5.56533">
        <ele>1088.2</ele>
        <time>2022-08-12T08:40:19.000Z</time>
      </trkpt>
      <trkpt lat="45.11469" lon="5.56533">
        <ele>1088.2</ele>
        <time>2022-08-12T08:40:20.000Z</time>
      </trkpt>
      <trkpt lat="45.1147" lon="5.56534">
        <ele>1088.2</ele>
        <time>2022-08-12T08:40:21.000Z</time>
      </trkpt>
      <trkpt lat="45.11472" lon="5.56535">
        <ele>1088</ele>
        <time>2022-08-12T08:40:22.000Z</time>
      </trkpt>
      <trkpt lat="45.11473" lon="5.56537">
        <ele>1087.8</ele>
        <time>2022-08-12T08:40:23.000Z</time>
      </trkpt>
      <trkpt lat="45.11476" lon="5.56538">
        <ele>1087.6</ele>
        <time>2022-08-12T08:40:24.000Z</time>
      </trkpt>
      <trkpt lat="45.11478" lon="5.56539">
        <ele>1087.3</ele>
        <time>2022-08-12T08:40:25.000Z</time>
      </trkpt>
      <trkpt lat="45.11479" lon="5.56541">
        <ele>1087</ele>
        <time>2022-08-12T08:40:26.000Z</time>
      </trkpt>
      <trkpt lat="45.1148" lon="5.56541">
        <ele>1086.9</ele>
        <time>2022-08-12T08:40:27.000Z</time>
      </trkpt>
      <trkpt lat="45.1148" lon="5.56543">
        <ele>1086.4</ele>
        <time>2022-08-12T08:40:28.000Z</time>
      </trkpt>
      <trkpt lat="45.11481" lon="5.56545">
        <ele>1085.9</ele>
        <time>2022-08-12T08:40:29.000Z</time>
      </trkpt>
      <trkpt lat="45.11481" lon="5.56546">
        <ele>1085.6</ele>
        <time>2022-08-12T08:40:30.000Z</time>
      </trkpt>
      <trkpt lat="45.1148" lon="5.56547">
        <ele>1085.4</ele>
        <time>2022-08-12T08:40:31.000Z</time>
      </trkpt>
      <trkpt lat="45.11479" lon="5.56548">
        <ele>1085.2</ele>
        <time>2022-08-12T08:40:32.000Z</time>
      </trkpt>
      <trkpt lat="45.11476" lon="5.56552">
        <ele>1083.8</ele>
        <time>2022-08-12T08:40:33.000Z</time>
      </trkpt>
      <trkpt lat="45.11475" lon="5.56555">
        <ele>1083.1</ele>
        <time>2022-08-12T08:40:34.000Z</time>
      </trkpt>
      <trkpt lat="45.11472" lon="5.56557">
        <ele>1082.4</ele>
        <time>2022-08-12T08:40:35.000Z</time>
      </trkpt>
      <trkpt lat="45.11469" lon="5.56559">
        <ele>1081.7</ele>
        <time>2022-08-12T08:40:36.000Z</time>
      </trkpt>
      <trkpt lat="45.11467" lon="5.56562">
        <ele>1080.6</ele>
        <time>2022-08-12T08:40:37.000Z</time>
      </trkpt>
      <trkpt lat="45.11465" lon="5.56562">
        <ele>1080.3</ele>
        <time>2022-08-12T08:40:38.000Z</time>
      </trkpt>
      <trkpt lat="45.11463" lon="5.56564">
        <ele>1079.8</ele>
        <time>2022-08-12T08:40:39.000Z</time>
      </trkpt>
      <trkpt lat="45.11459" lon="5.56574">
        <ele>1076.8</ele>
        <time>2022-08-12T08:40:42.000Z</time>
      </trkpt>
      <trkpt lat="45.11457" lon="5.56578">
        <ele>1075.5</ele>
        <time>2022-08-12T08:40:43.000Z</time>
      </trkpt>
      <trkpt lat="45.11454" lon="5.56582">
        <ele>1074.5</ele>
        <time>2022-08-12T08:40:44.000Z</time>
      </trkpt>
      <trkpt lat="45.1145" lon="5.5659">
        <ele>1071.8</ele>
        <time>2022-08-12T08:40:45.000Z</time>
      </trkpt>
      <trkpt lat="45.11447" lon="5.56591">
        <ele>1071.4</ele>
        <time>2022-08-12T08:40:46.000Z</time>
      </trkpt>
      <trkpt lat="45.11445" lon="5.56592">
        <ele>1071</ele>
        <time>2022-08-12T08:40:47.000Z</time>
      </trkpt>
      <trkpt lat="45.11444" lon="5.56593">
        <ele>1070.7</ele>
        <time>2022-08-12T08:40:48.000Z</time>
      </trkpt>
      <trkpt lat="45.11444" lon="5.56594">
        <ele>1070.7</ele>
        <time>2022-08-12T08:40:49.000Z</time>
      </trkpt>
      <trkpt lat="45.11443" lon="5.56594">
        <ele>1070.6</ele>
        <time>2022-08-12T08:40:52.000Z</time>
      </trkpt>
      <trkpt lat="45.11442" lon="5.56594">
        <ele>1070.4</ele>
        <time>2022-08-12T08:40:53.000Z</time>
      </trkpt>
      <trkpt lat="45.11441" lon="5.56594">
        <ele>1070.4</ele>
        <time>2022-08-12T08:40:54.000Z</time>
      </trkpt>
      <trkpt lat="45.11441" lon="5.56595">
        <ele>1070.3</ele>
        <time>2022-08-12T08:40:55.000Z</time>
      </trkpt>
      <trkpt lat="45.1144" lon="5.56595">
        <ele>1070.3</ele>
        <time>2022-08-12T08:40:56.000Z</time>
      </trkpt>
      <trkpt lat="45.11439" lon="5.56595">
        <ele>1070.1</ele>
        <time>2022-08-12T08:40:57.000Z</time>
      </trkpt>
      <trkpt lat="45.11438" lon="5.56596">
        <ele>1070</ele>
        <time>2022-08-12T08:40:59.000Z</time>
      </trkpt>
      <trkpt lat="45.11437" lon="5.56597">
        <ele>1069.6</ele>
        <time>2022-08-12T08:41:01.000Z</time>
      </trkpt>
      <trkpt lat="45.11432" lon="5.56602">
        <ele>1068</ele>
        <time>2022-08-12T08:41:04.000Z</time>
      </trkpt>
      <trkpt lat="45.11428" lon="5.56605">
        <ele>1067.4</ele>
        <time>2022-08-12T08:41:06.000Z</time>
      </trkpt>
      <trkpt lat="45.11423" lon="5.56606">
        <ele>1067.1</ele>
        <time>2022-08-12T08:41:08.000Z</time>
      </trkpt>
      <trkpt lat="45.11421" lon="5.56606">
        <ele>1067.2</ele>
        <time>2022-08-12T08:41:09.000Z</time>
      </trkpt>
      <trkpt lat="45.1142" lon="5.56606">
        <ele>1067.1</ele>
        <time>2022-08-12T08:41:10.000Z</time>
      </trkpt>
      <trkpt lat="45.11419" lon="5.56606">
        <ele>1067.1</ele>
        <time>2022-08-12T08:41:11.000Z</time>
      </trkpt>
      <trkpt lat="45.11418" lon="5.56607">
        <ele>1067</ele>
        <time>2022-08-12T08:41:12.000Z</time>
      </trkpt>
      <trkpt lat="45.11417" lon="5.56607">
        <ele>1066.9</ele>
        <time>2022-08-12T08:41:13.000Z</time>
      </trkpt>
      <trkpt lat="45.11416" lon="5.56608">
        <ele>1066.7</ele>
        <time>2022-08-12T08:41:14.000Z</time>
      </trkpt>
      <trkpt lat="45.11415" lon="5.56608">
        <ele>1066.6</ele>
        <time>2022-08-12T08:41:15.000Z</time>
      </trkpt>
      <trkpt lat="45.11414" lon="5.56608">
        <ele>1066.6</ele>
        <time>2022-08-12T08:41:19.000Z</time>
      </trkpt>
      <trkpt lat="45.11415" lon="5.5661">
        <ele>1066.1</ele>
        <time>2022-08-12T08:41:21.000Z</time>
      </trkpt>
      <trkpt lat="45.11415" lon="5.56611">
        <ele>1066</ele>
        <time>2022-08-12T08:41:24.000Z</time>
      </trkpt>
      <trkpt lat="45.11416" lon="5.56613">
        <ele>1065.3</ele>
        <time>2022-08-12T08:41:26.000Z</time>
      </trkpt>
      <trkpt lat="45.11416" lon="5.56614">
        <ele>1065.2</ele>
        <time>2022-08-12T08:41:27.000Z</time>
      </trkpt>
      <trkpt lat="45.11416" lon="5.56615">
        <ele>1065</ele>
        <time>2022-08-12T08:41:31.000Z</time>
      </trkpt>
      <trkpt lat="45.11418" lon="5.56617">
        <ele>1064.2</ele>
        <time>2022-08-12T08:41:33.000Z</time>
      </trkpt>
      <trkpt lat="45.11419" lon="5.56618">
        <ele>1063.8</ele>
        <time>2022-08-12T08:41:34.000Z</time>
      </trkpt>
      <trkpt lat="45.1142" lon="5.5662">
        <ele>1063.3</ele>
        <time>2022-08-12T08:41:35.000Z</time>
      </trkpt>
      <trkpt lat="45.11421" lon="5.56621">
        <ele>1062.8</ele>
        <time>2022-08-12T08:41:36.000Z</time>
      </trkpt>
      <trkpt lat="45.11423" lon="5.56626">
        <ele>1061.3</ele>
        <time>2022-08-12T08:41:38.000Z</time>
      </trkpt>
      <trkpt lat="45.11422" lon="5.56628">
        <ele>1060.8</ele>
        <time>2022-08-12T08:41:39.000Z</time>
      </trkpt>
      <trkpt lat="45.1142" lon="5.56629">
        <ele>1060.6</ele>
        <time>2022-08-12T08:41:40.000Z</time>
      </trkpt>
      <trkpt lat="45.11418" lon="5.5663">
        <ele>1060.5</ele>
        <time>2022-08-12T08:41:42.000Z</time>
      </trkpt>
      <trkpt lat="45.11417" lon="5.5663">
        <ele>1060.5</ele>
        <time>2022-08-12T08:41:43.000Z</time>
      </trkpt>
      <trkpt lat="45.11416" lon="5.56631">
        <ele>1060.4</ele>
        <time>2022-08-12T08:41:46.000Z</time>
      </trkpt>
      <trkpt lat="45.11409" lon="5.56634">
        <ele>1059.2</ele>
        <time>2022-08-12T08:41:49.000Z</time>
      </trkpt>
      <trkpt lat="45.11406" lon="5.56636">
        <ele>1058.7</ele>
        <time>2022-08-12T08:41:50.000Z</time>
      </trkpt>
      <trkpt lat="45.11404" lon="5.56637">
        <ele>1058.6</ele>
        <time>2022-08-12T08:41:51.000Z</time>
      </trkpt>
      <trkpt lat="45.114" lon="5.56639">
        <ele>1057.9</ele>
        <time>2022-08-12T08:41:53.000Z</time>
      </trkpt>
      <trkpt lat="45.11398" lon="5.56642">
        <ele>1057.3</ele>
        <time>2022-08-12T08:41:54.000Z</time>
      </trkpt>
      <trkpt lat="45.11396" lon="5.56644">
        <ele>1056.6</ele>
        <time>2022-08-12T08:41:55.000Z</time>
      </trkpt>
      <trkpt lat="45.11396" lon="5.56646">
        <ele>1056.1</ele>
        <time>2022-08-12T08:41:56.000Z</time>
      </trkpt>
      <trkpt lat="45.11394" lon="5.56648">
        <ele>1055.5</ele>
        <time>2022-08-12T08:41:57.000Z</time>
      </trkpt>
      <trkpt lat="45.11392" lon="5.56652">
        <ele>1054.7</ele>
        <time>2022-08-12T08:41:58.000Z</time>
      </trkpt>
      <trkpt lat="45.11389" lon="5.56654">
        <ele>1054.2</ele>
        <time>2022-08-12T08:41:59.000Z</time>
      </trkpt>
      <trkpt lat="45.11386" lon="5.56655">
        <ele>1053.8</ele>
        <time>2022-08-12T08:42:00.000Z</time>
      </trkpt>
      <trkpt lat="45.11384" lon="5.56657">
        <ele>1053.1</ele>
        <time>2022-08-12T08:42:01.000Z</time>
      </trkpt>
      <trkpt lat="45.11378" lon="5.56663">
        <ele>1051.1</ele>
        <time>2022-08-12T08:42:03.000Z</time>
      </trkpt>
      <trkpt lat="45.11375" lon="5.56663">
        <ele>1050.8</ele>
        <time>2022-08-12T08:42:04.000Z</time>
      </trkpt>
      <trkpt lat="45.11369" lon="5.56663">
        <ele>1050.4</ele>
        <time>2022-08-12T08:42:05.000Z</time>
      </trkpt>
      <trkpt lat="45.11366" lon="5.56664">
        <ele>1050</ele>
        <time>2022-08-12T08:42:06.000Z</time>
      </trkpt>
      <trkpt lat="45.11362" lon="5.56664">
        <ele>1049.7</ele>
        <time>2022-08-12T08:42:07.000Z</time>
      </trkpt>
      <trkpt lat="45.1136" lon="5.56665">
        <ele>1049.3</ele>
        <time>2022-08-12T08:42:08.000Z</time>
      </trkpt>
      <trkpt lat="45.11358" lon="5.56667">
        <ele>1048.5</ele>
        <time>2022-08-12T08:42:09.000Z</time>
      </trkpt>
      <trkpt lat="45.11357" lon="5.56668">
        <ele>1047.9</ele>
        <time>2022-08-12T08:42:10.000Z</time>
      </trkpt>
      <trkpt lat="45.11356" lon="5.56669">
        <ele>1047.8</ele>
        <time>2022-08-12T08:42:11.000Z</time>
      </trkpt>
      <trkpt lat="45.11352" lon="5.56676">
        <ele>1045.3</ele>
        <time>2022-08-12T08:42:25.000Z</time>
      </trkpt>
      <trkpt lat="45.11355" lon="5.56682">
        <ele>1044.3</ele>
        <time>2022-08-12T08:42:27.000Z</time>
      </trkpt>
      <trkpt lat="45.11357" lon="5.56684">
        <ele>1044</ele>
        <time>2022-08-12T08:42:28.000Z</time>
      </trkpt>
      <trkpt lat="45.11358" lon="5.56685">
        <ele>1043.7</ele>
        <time>2022-08-12T08:42:29.000Z</time>
      </trkpt>
      <trkpt lat="45.11358" lon="5.56686">
        <ele>1043.6</ele>
        <time>2022-08-12T08:42:30.000Z</time>
      </trkpt>
      <trkpt lat="45.11357" lon="5.56687">
        <ele>1043.4</ele>
        <time>2022-08-12T08:42:54.000Z</time>
      </trkpt>
      <trkpt lat="45.11356" lon="5.56686">
        <ele>1043.3</ele>
        <time>2022-08-12T08:42:55.000Z</time>
      </trkpt>
      <trkpt lat="45.11355" lon="5.56686">
        <ele>1043.4</ele>
        <time>2022-08-12T08:42:58.000Z</time>
      </trkpt>
      <trkpt lat="45.11355" lon="5.56685">
        <ele>1043.4</ele>
        <time>2022-08-12T08:43:00.000Z</time>
      </trkpt>
      <trkpt lat="45.11353" lon="5.56685">
        <ele>1043.3</ele>
        <time>2022-08-12T08:43:04.000Z</time>
      </trkpt>
      <trkpt lat="45.11352" lon="5.56685">
        <ele>1043.1</ele>
        <time>2022-08-12T08:43:19.000Z</time>
      </trkpt>
      <trkpt lat="45.1135" lon="5.56687">
        <ele>1042.3</ele>
        <time>2022-08-12T08:43:23.000Z</time>
      </trkpt>
      <trkpt lat="45.11348" lon="5.56688">
        <ele>1041.8</ele>
        <time>2022-08-12T08:43:24.000Z</time>
      </trkpt>
      <trkpt lat="45.11347" lon="5.56689">
        <ele>1041.4</ele>
        <time>2022-08-12T08:43:26.000Z</time>
      </trkpt>
      <trkpt lat="45.11346" lon="5.56689">
        <ele>1041.3</ele>
        <time>2022-08-12T08:43:30.000Z</time>
      </trkpt>
      <trkpt lat="45.11347" lon="5.56691">
        <ele>1040.8</ele>
        <time>2022-08-12T08:43:33.000Z</time>
      </trkpt>
      <trkpt lat="45.11348" lon="5.56694">
        <ele>1040.2</ele>
        <time>2022-08-12T08:43:34.000Z</time>
      </trkpt>
      <trkpt lat="45.11348" lon="5.56699">
        <ele>1038.9</ele>
        <time>2022-08-12T08:43:36.000Z</time>
      </trkpt>
      <trkpt lat="45.11347" lon="5.567">
        <ele>1038.6</ele>
        <time>2022-08-12T08:43:37.000Z</time>
      </trkpt>
      <trkpt lat="45.11347" lon="5.56699">
        <ele>1038.6</ele>
        <time>2022-08-12T08:43:39.000Z</time>
      </trkpt>
      <trkpt lat="45.11343" lon="5.56698">
        <ele>1038.3</ele>
        <time>2022-08-12T08:43:41.000Z</time>
      </trkpt>
      <trkpt lat="45.11341" lon="5.56698">
        <ele>1038</ele>
        <time>2022-08-12T08:43:42.000Z</time>
      </trkpt>
      <trkpt lat="45.11339" lon="5.56699">
        <ele>1037.6</ele>
        <time>2022-08-12T08:43:44.000Z</time>
      </trkpt>
      <trkpt lat="45.11338" lon="5.56701">
        <ele>1037.1</ele>
        <time>2022-08-12T08:43:45.000Z</time>
      </trkpt>
      <trkpt lat="45.11336" lon="5.56701">
        <ele>1036.7</ele>
        <time>2022-08-12T08:43:46.000Z</time>
      </trkpt>
      <trkpt lat="45.11334" lon="5.56702">
        <ele>1036.3</ele>
        <time>2022-08-12T08:43:47.000Z</time>
      </trkpt>
      <trkpt lat="45.11333" lon="5.56702">
        <ele>1036.1</ele>
        <time>2022-08-12T08:43:48.000Z</time>
      </trkpt>
      <trkpt lat="45.11332" lon="5.56702">
        <ele>1036</ele>
        <time>2022-08-12T08:43:49.000Z</time>
      </trkpt>
      <trkpt lat="45.11332" lon="5.56705">
        <ele>1035.1</ele>
        <time>2022-08-12T08:43:55.000Z</time>
      </trkpt>
      <trkpt lat="45.11332" lon="5.56707">
        <ele>1034.7</ele>
        <time>2022-08-12T08:44:00.000Z</time>
      </trkpt>
      <trkpt lat="45.11333" lon="5.56708">
        <ele>1034.5</ele>
        <time>2022-08-12T08:44:01.000Z</time>
      </trkpt>
      <trkpt lat="45.11334" lon="5.56711">
        <ele>1033.9</ele>
        <time>2022-08-12T08:44:03.000Z</time>
      </trkpt>
      <trkpt lat="45.11335" lon="5.56712">
        <ele>1033.9</ele>
        <time>2022-08-12T08:44:06.000Z</time>
      </trkpt>
      <trkpt lat="45.11334" lon="5.56711">
        <ele>1033.9</ele>
        <time>2022-08-12T08:44:09.000Z</time>
      </trkpt>
      <trkpt lat="45.11334" lon="5.56713">
        <ele>1033.4</ele>
        <time>2022-08-12T08:44:19.000Z</time>
      </trkpt>
      <trkpt lat="45.11333" lon="5.56713">
        <ele>1033.4</ele>
        <time>2022-08-12T08:44:20.000Z</time>
      </trkpt>
      <trkpt lat="45.11333" lon="5.56715">
        <ele>1032.9</ele>
        <time>2022-08-12T08:44:26.000Z</time>
      </trkpt>
      <trkpt lat="45.1133" lon="5.56719">
        <ele>1031.4</ele>
        <time>2022-08-12T08:44:31.000Z</time>
      </trkpt>
      <trkpt lat="45.11328" lon="5.56719">
        <ele>1031.1</ele>
        <time>2022-08-12T08:44:32.000Z</time>
      </trkpt>
      <trkpt lat="45.11326" lon="5.5672">
        <ele>1030.3</ele>
        <time>2022-08-12T08:44:35.000Z</time>
      </trkpt>
      <trkpt lat="45.11324" lon="5.56721">
        <ele>1030.1</ele>
        <time>2022-08-12T08:44:37.000Z</time>
      </trkpt>
      <trkpt lat="45.11324" lon="5.5672">
        <ele>1030.1</ele>
        <time>2022-08-12T08:44:38.000Z</time>
      </trkpt>
      <trkpt lat="45.11322" lon="5.56719">
        <ele>1030.1</ele>
        <time>2022-08-12T08:44:39.000Z</time>
      </trkpt>
      <trkpt lat="45.11319" lon="5.56718">
        <ele>1029.9</ele>
        <time>2022-08-12T08:44:40.000Z</time>
      </trkpt>
      <trkpt lat="45.11316" lon="5.56718">
        <ele>1029.6</ele>
        <time>2022-08-12T08:44:41.000Z</time>
      </trkpt>
      <trkpt lat="45.11311" lon="5.56719">
        <ele>1028.5</ele>
        <time>2022-08-12T08:44:43.000Z</time>
      </trkpt>
      <trkpt lat="45.11307" lon="5.56721">
        <ele>1027.4</ele>
        <time>2022-08-12T08:44:44.000Z</time>
      </trkpt>
      <trkpt lat="45.11303" lon="5.56723">
        <ele>1026.2</ele>
        <time>2022-08-12T08:44:45.000Z</time>
      </trkpt>
      <trkpt lat="45.11298" lon="5.56725">
        <ele>1024.7</ele>
        <time>2022-08-12T08:44:47.000Z</time>
      </trkpt>
      <trkpt lat="45.11296" lon="5.56726">
        <ele>1024.2</ele>
        <time>2022-08-12T08:44:48.000Z</time>
      </trkpt>
      <trkpt lat="45.11295" lon="5.56726">
        <ele>1023.8</ele>
        <time>2022-08-12T08:44:49.000Z</time>
      </trkpt>
      <trkpt lat="45.11294" lon="5.56727">
        <ele>1023.6</ele>
        <time>2022-08-12T08:44:50.000Z</time>
      </trkpt>
      <trkpt lat="45.11295" lon="5.56725">
        <ele>1024.2</ele>
        <time>2022-08-12T08:44:56.000Z</time>
      </trkpt>
      <trkpt lat="45.11295" lon="5.56723">
        <ele>1024.5</ele>
        <time>2022-08-12T08:44:58.000Z</time>
      </trkpt>
      <trkpt lat="45.11294" lon="5.56722">
        <ele>1024.6</ele>
        <time>2022-08-12T08:44:59.000Z</time>
      </trkpt>
      <trkpt lat="45.11294" lon="5.56721">
        <ele>1024.8</ele>
        <time>2022-08-12T08:45:01.000Z</time>
      </trkpt>
      <trkpt lat="45.11295" lon="5.56721">
        <ele>1025</ele>
        <time>2022-08-12T08:45:09.000Z</time>
      </trkpt>
      <trkpt lat="45.11296" lon="5.56721">
        <ele>1025.1</ele>
        <time>2022-08-12T08:45:11.000Z</time>
      </trkpt>
      <trkpt lat="45.11296" lon="5.56722">
        <ele>1024.9</ele>
        <time>2022-08-12T08:45:13.000Z</time>
      </trkpt>
      <trkpt lat="45.11295" lon="5.56722">
        <ele>1024.7</ele>
        <time>2022-08-12T08:45:15.000Z</time>
      </trkpt>
      <trkpt lat="45.11296" lon="5.56722">
        <ele>1024.9</ele>
        <time>2022-08-12T08:45:21.000Z</time>
      </trkpt>
      <trkpt lat="45.11295" lon="5.56722">
        <ele>1024.9</ele>
        <time>2022-08-12T08:45:37.000Z</time>
      </trkpt>
      <trkpt lat="45.11295" lon="5.56723">
        <ele>1024.5</ele>
        <time>2022-08-12T08:45:38.000Z</time>
      </trkpt>
      <trkpt lat="45.11294" lon="5.56723">
        <ele>1024.4</ele>
        <time>2022-08-12T08:45:40.000Z</time>
      </trkpt>
      <trkpt lat="45.11294" lon="5.56722">
        <ele>1024.4</ele>
        <time>2022-08-12T08:45:45.000Z</time>
      </trkpt>
      <trkpt lat="45.11294" lon="5.56723">
        <ele>1024.3</ele>
        <time>2022-08-12T08:45:58.000Z</time>
      </trkpt>
      <trkpt lat="45.11295" lon="5.56722">
        <ele>1024.8</ele>
        <time>2022-08-12T08:46:01.000Z</time>
      </trkpt>
      <trkpt lat="45.11294" lon="5.56721">
        <ele>1024.8</ele>
        <time>2022-08-12T08:46:02.000Z</time>
      </trkpt>
      <trkpt lat="45.11295" lon="5.56722">
        <ele>1024.8</ele>
        <time>2022-08-12T08:46:04.000Z</time>
      </trkpt>
      <trkpt lat="45.11295" lon="5.56723">
        <ele>1024.5</ele>
        <time>2022-08-12T08:46:08.000Z</time>
      </trkpt>
      <trkpt lat="45.11294" lon="5.56723">
        <ele>1024.5</ele>
        <time>2022-08-12T08:46:19.000Z</time>
      </trkpt>
      <trkpt lat="45.11295" lon="5.56722">
        <ele>1024.6</ele>
        <time>2022-08-12T08:46:22.000Z</time>
      </trkpt>
      <trkpt lat="45.11295" lon="5.56721">
        <ele>1025.1</ele>
        <time>2022-08-12T08:46:28.000Z</time>
      </trkpt>
      <trkpt lat="45.11293" lon="5.5672">
        <ele>1024.8</ele>
        <time>2022-08-12T08:46:33.000Z</time>
      </trkpt>
      <trkpt lat="45.11294" lon="5.5672">
        <ele>1024.8</ele>
        <time>2022-08-12T08:46:36.000Z</time>
      </trkpt>
      <trkpt lat="45.11294" lon="5.56719">
        <ele>1025</ele>
        <time>2022-08-12T08:46:37.000Z</time>
      </trkpt>
      <trkpt lat="45.11293" lon="5.56719">
        <ele>1025.1</ele>
        <time>2022-08-12T08:46:38.000Z</time>
      </trkpt>
      <trkpt lat="45.11292" lon="5.56719">
        <ele>1024.7</ele>
        <time>2022-08-12T08:46:40.000Z</time>
      </trkpt>
      <trkpt lat="45.11291" lon="5.56719">
        <ele>1024.5</ele>
        <time>2022-08-12T08:46:41.000Z</time>
      </trkpt>
      <trkpt lat="45.1129" lon="5.56718">
        <ele>1024.6</ele>
        <time>2022-08-12T08:46:42.000Z</time>
      </trkpt>
      <trkpt lat="45.11289" lon="5.56717">
        <ele>1024.5</ele>
        <time>2022-08-12T08:46:43.000Z</time>
      </trkpt>
      <trkpt lat="45.11287" lon="5.56716">
        <ele>1024.4</ele>
        <time>2022-08-12T08:46:44.000Z</time>
      </trkpt>
      <trkpt lat="45.11283" lon="5.56712">
        <ele>1024.4</ele>
        <time>2022-08-12T08:46:47.000Z</time>
      </trkpt>
      <trkpt lat="45.11282" lon="5.5671">
        <ele>1024.7</ele>
        <time>2022-08-12T08:46:48.000Z</time>
      </trkpt>
      <trkpt lat="45.11281" lon="5.56709">
        <ele>1024.6</ele>
        <time>2022-08-12T08:46:49.000Z</time>
      </trkpt>
      <trkpt lat="45.11279" lon="5.56706">
        <ele>1024.8</ele>
        <time>2022-08-12T08:46:51.000Z</time>
      </trkpt>
      <trkpt lat="45.11278" lon="5.56705">
        <ele>1024.8</ele>
        <time>2022-08-12T08:46:52.000Z</time>
      </trkpt>
      <trkpt lat="45.11278" lon="5.56703">
        <ele>1025.1</ele>
        <time>2022-08-12T08:46:53.000Z</time>
      </trkpt>
      <trkpt lat="45.11277" lon="5.56702">
        <ele>1025.2</ele>
        <time>2022-08-12T08:46:54.000Z</time>
      </trkpt>
      <trkpt lat="45.11277" lon="5.56701">
        <ele>1025.2</ele>
        <time>2022-08-12T08:46:55.000Z</time>
      </trkpt>
      <trkpt lat="45.11276" lon="5.56701">
        <ele>1025.2</ele>
        <time>2022-08-12T08:46:56.000Z</time>
      </trkpt>
      <trkpt lat="45.11276" lon="5.567">
        <ele>1025.3</ele>
        <time>2022-08-12T08:46:57.000Z</time>
      </trkpt>
      <trkpt lat="45.11275" lon="5.56698">
        <ele>1025.5</ele>
        <time>2022-08-12T08:46:58.000Z</time>
      </trkpt>
      <trkpt lat="45.11275" lon="5.56697">
        <ele>1025.7</ele>
        <time>2022-08-12T08:46:59.000Z</time>
      </trkpt>
      <trkpt lat="45.11274" lon="5.56696">
        <ele>1025.7</ele>
        <time>2022-08-12T08:47:00.000Z</time>
      </trkpt>
      <trkpt lat="45.11273" lon="5.56695">
        <ele>1025.7</ele>
        <time>2022-08-12T08:47:01.000Z</time>
      </trkpt>
      <trkpt lat="45.11272" lon="5.56694">
        <ele>1025.7</ele>
        <time>2022-08-12T08:47:02.000Z</time>
      </trkpt>
      <trkpt lat="45.11271" lon="5.56692">
        <ele>1025.8</ele>
        <time>2022-08-12T08:47:03.000Z</time>
      </trkpt>
      <trkpt lat="45.1127" lon="5.56692">
        <ele>1025.7</ele>
        <time>2022-08-12T08:47:04.000Z</time>
      </trkpt>
      <trkpt lat="45.1127" lon="5.56691">
        <ele>1025.8</ele>
        <time>2022-08-12T08:47:05.000Z</time>
      </trkpt>
      <trkpt lat="45.1127" lon="5.5669">
        <ele>1026</ele>
        <time>2022-08-12T08:47:06.000Z</time>
      </trkpt>
      <trkpt lat="45.1127" lon="5.56688">
        <ele>1026.2</ele>
        <time>2022-08-12T08:47:07.000Z</time>
      </trkpt>
      <trkpt lat="45.11269" lon="5.56688">
        <ele>1026.1</ele>
        <time>2022-08-12T08:47:08.000Z</time>
      </trkpt>
      <trkpt lat="45.11268" lon="5.56686">
        <ele>1026.1</ele>
        <time>2022-08-12T08:47:09.000Z</time>
      </trkpt>
      <trkpt lat="45.11267" lon="5.56686">
        <ele>1026.2</ele>
        <time>2022-08-12T08:47:10.000Z</time>
      </trkpt>
      <trkpt lat="45.11267" lon="5.56685">
        <ele>1026.2</ele>
        <time>2022-08-12T08:47:13.000Z</time>
      </trkpt>
      <trkpt lat="45.11267" lon="5.56684">
        <ele>1026.3</ele>
        <time>2022-08-12T08:47:14.000Z</time>
      </trkpt>
      <trkpt lat="45.11266" lon="5.56684">
        <ele>1026.3</ele>
        <time>2022-08-12T08:47:15.000Z</time>
      </trkpt>
      <trkpt lat="45.11266" lon="5.56683">
        <ele>1026.4</ele>
        <time>2022-08-12T08:47:16.000Z</time>
      </trkpt>
      <trkpt lat="45.11266" lon="5.56682">
        <ele>1026.5</ele>
        <time>2022-08-12T08:47:17.000Z</time>
      </trkpt>
      <trkpt lat="45.11265" lon="5.56682">
        <ele>1026.4</ele>
        <time>2022-08-12T08:47:19.000Z</time>
      </trkpt>
      <trkpt lat="45.11264" lon="5.56681">
        <ele>1026.2</ele>
        <time>2022-08-12T08:47:20.000Z</time>
      </trkpt>
      <trkpt lat="45.11264" lon="5.5668">
        <ele>1026.5</ele>
        <time>2022-08-12T08:47:22.000Z</time>
      </trkpt>
      <trkpt lat="45.11264" lon="5.56677">
        <ele>1026.9</ele>
        <time>2022-08-12T08:47:23.000Z</time>
      </trkpt>
      <trkpt lat="45.11263" lon="5.56676">
        <ele>1027</ele>
        <time>2022-08-12T08:47:24.000Z</time>
      </trkpt>
      <trkpt lat="45.11263" lon="5.56674">
        <ele>1027.2</ele>
        <time>2022-08-12T08:47:25.000Z</time>
      </trkpt>
      <trkpt lat="45.11262" lon="5.56673">
        <ele>1027.4</ele>
        <time>2022-08-12T08:47:26.000Z</time>
      </trkpt>
      <trkpt lat="45.11262" lon="5.56671">
        <ele>1027.6</ele>
        <time>2022-08-12T08:47:27.000Z</time>
      </trkpt>
      <trkpt lat="45.11259" lon="5.56669">
        <ele>1027.2</ele>
        <time>2022-08-12T08:47:28.000Z</time>
      </trkpt>
      <trkpt lat="45.11257" lon="5.56667">
        <ele>1026.9</ele>
        <time>2022-08-12T08:47:29.000Z</time>
      </trkpt>
      <trkpt lat="45.11256" lon="5.56665">
        <ele>1027.1</ele>
        <time>2022-08-12T08:47:31.000Z</time>
      </trkpt>
      <trkpt lat="45.11256" lon="5.56664">
        <ele>1027.3</ele>
        <time>2022-08-12T08:47:32.000Z</time>
      </trkpt>
      <trkpt lat="45.11255" lon="5.56662">
        <ele>1027.3</ele>
        <time>2022-08-12T08:47:33.000Z</time>
      </trkpt>
      <trkpt lat="45.11254" lon="5.56661">
        <ele>1027.4</ele>
        <time>2022-08-12T08:47:34.000Z</time>
      </trkpt>
      <trkpt lat="45.11253" lon="5.56659">
        <ele>1027.5</ele>
        <time>2022-08-12T08:47:35.000Z</time>
      </trkpt>
      <trkpt lat="45.11252" lon="5.56657">
        <ele>1027.5</ele>
        <time>2022-08-12T08:47:36.000Z</time>
      </trkpt>
      <trkpt lat="45.11249" lon="5.56655">
        <ele>1027.2</ele>
        <time>2022-08-12T08:47:37.000Z</time>
      </trkpt>
      <trkpt lat="45.11249" lon="5.56654">
        <ele>1027.4</ele>
        <time>2022-08-12T08:47:38.000Z</time>
      </trkpt>
      <trkpt lat="45.11248" lon="5.56653">
        <ele>1027.5</ele>
        <time>2022-08-12T08:47:39.000Z</time>
      </trkpt>
      <trkpt lat="45.11248" lon="5.56651">
        <ele>1027.7</ele>
        <time>2022-08-12T08:47:40.000Z</time>
      </trkpt>
      <trkpt lat="45.11247" lon="5.5665">
        <ele>1027.9</ele>
        <time>2022-08-12T08:47:41.000Z</time>
      </trkpt>
      <trkpt lat="45.11247" lon="5.56648">
        <ele>1028.1</ele>
        <time>2022-08-12T08:47:42.000Z</time>
      </trkpt>
      <trkpt lat="45.11246" lon="5.56646">
        <ele>1028.4</ele>
        <time>2022-08-12T08:47:43.000Z</time>
      </trkpt>
      <trkpt lat="45.11246" lon="5.56644">
        <ele>1028.6</ele>
        <time>2022-08-12T08:47:44.000Z</time>
      </trkpt>
      <trkpt lat="45.11245" lon="5.56642">
        <ele>1028.8</ele>
        <time>2022-08-12T08:47:45.000Z</time>
      </trkpt>
      <trkpt lat="45.11244" lon="5.56641">
        <ele>1028.7</ele>
        <time>2022-08-12T08:47:46.000Z</time>
      </trkpt>
      <trkpt lat="45.11244" lon="5.56639">
        <ele>1029.1</ele>
        <time>2022-08-12T08:47:47.000Z</time>
      </trkpt>
      <trkpt lat="45.11244" lon="5.56638">
        <ele>1029.3</ele>
        <time>2022-08-12T08:47:48.000Z</time>
      </trkpt>
      <trkpt lat="45.11244" lon="5.56635">
        <ele>1029.7</ele>
        <time>2022-08-12T08:47:49.000Z</time>
      </trkpt>
      <trkpt lat="45.11243" lon="5.56633">
        <ele>1030</ele>
        <time>2022-08-12T08:47:50.000Z</time>
      </trkpt>
      <trkpt lat="45.11242" lon="5.56631">
        <ele>1030.2</ele>
        <time>2022-08-12T08:47:51.000Z</time>
      </trkpt>
      <trkpt lat="45.11241" lon="5.5663">
        <ele>1030</ele>
        <time>2022-08-12T08:47:53.000Z</time>
      </trkpt>
      <trkpt lat="45.1124" lon="5.56628">
        <ele>1030.1</ele>
        <time>2022-08-12T08:47:54.000Z</time>
      </trkpt>
      <trkpt lat="45.11239" lon="5.56628">
        <ele>1030</ele>
        <time>2022-08-12T08:47:55.000Z</time>
      </trkpt>
      <trkpt lat="45.11239" lon="5.56626">
        <ele>1030.1</ele>
        <time>2022-08-12T08:47:56.000Z</time>
      </trkpt>
      <trkpt lat="45.11239" lon="5.56625">
        <ele>1030.4</ele>
        <time>2022-08-12T08:47:57.000Z</time>
      </trkpt>
      <trkpt lat="45.11239" lon="5.56623">
        <ele>1030.8</ele>
        <time>2022-08-12T08:47:58.000Z</time>
      </trkpt>
      <trkpt lat="45.11238" lon="5.56622">
        <ele>1030.9</ele>
        <time>2022-08-12T08:47:59.000Z</time>
      </trkpt>
      <trkpt lat="45.11237" lon="5.56621">
        <ele>1030.8</ele>
        <time>2022-08-12T08:48:00.000Z</time>
      </trkpt>
      <trkpt lat="45.11237" lon="5.5662">
        <ele>1030.7</ele>
        <time>2022-08-12T08:48:01.000Z</time>
      </trkpt>
      <trkpt lat="45.11236" lon="5.5662">
        <ele>1030.5</ele>
        <time>2022-08-12T08:48:02.000Z</time>
      </trkpt>
      <trkpt lat="45.11235" lon="5.56618">
        <ele>1030.6</ele>
        <time>2022-08-12T08:48:03.000Z</time>
      </trkpt>
      <trkpt lat="45.11234" lon="5.56616">
        <ele>1030.8</ele>
        <time>2022-08-12T08:48:04.000Z</time>
      </trkpt>
      <trkpt lat="45.11234" lon="5.56615">
        <ele>1031</ele>
        <time>2022-08-12T08:48:05.000Z</time>
      </trkpt>
      <trkpt lat="45.11233" lon="5.56612">
        <ele>1031.3</ele>
        <time>2022-08-12T08:48:06.000Z</time>
      </trkpt>
      <trkpt lat="45.11233" lon="5.56611">
        <ele>1031.6</ele>
        <time>2022-08-12T08:48:07.000Z</time>
      </trkpt>
      <trkpt lat="45.11233" lon="5.56609">
        <ele>1031.8</ele>
        <time>2022-08-12T08:48:08.000Z</time>
      </trkpt>
      <trkpt lat="45.11232" lon="5.56607">
        <ele>1031.8</ele>
        <time>2022-08-12T08:48:09.000Z</time>
      </trkpt>
      <trkpt lat="45.11232" lon="5.56606">
        <ele>1031.9</ele>
        <time>2022-08-12T08:48:10.000Z</time>
      </trkpt>
      <trkpt lat="45.11231" lon="5.56604">
        <ele>1032</ele>
        <time>2022-08-12T08:48:11.000Z</time>
      </trkpt>
      <trkpt lat="45.11231" lon="5.56603">
        <ele>1032.2</ele>
        <time>2022-08-12T08:48:12.000Z</time>
      </trkpt>
      <trkpt lat="45.1123" lon="5.56601">
        <ele>1032.4</ele>
        <time>2022-08-12T08:48:13.000Z</time>
      </trkpt>
      <trkpt lat="45.11229" lon="5.56599">
        <ele>1032.5</ele>
        <time>2022-08-12T08:48:14.000Z</time>
      </trkpt>
      <trkpt lat="45.11229" lon="5.56598">
        <ele>1032.6</ele>
        <time>2022-08-12T08:48:15.000Z</time>
      </trkpt>
      <trkpt lat="45.11228" lon="5.56597">
        <ele>1032.5</ele>
        <time>2022-08-12T08:48:16.000Z</time>
      </trkpt>
      <trkpt lat="45.11228" lon="5.56595">
        <ele>1032.6</ele>
        <time>2022-08-12T08:48:17.000Z</time>
      </trkpt>
      <trkpt lat="45.11227" lon="5.56593">
        <ele>1032.8</ele>
        <time>2022-08-12T08:48:18.000Z</time>
      </trkpt>
      <trkpt lat="45.11227" lon="5.56592">
        <ele>1032.9</ele>
        <time>2022-08-12T08:48:19.000Z</time>
      </trkpt>
      <trkpt lat="45.11226" lon="5.56592">
        <ele>1032.7</ele>
        <time>2022-08-12T08:48:20.000Z</time>
      </trkpt>
      <trkpt lat="45.11225" lon="5.5659">
        <ele>1032.5</ele>
        <time>2022-08-12T08:48:21.000Z</time>
      </trkpt>
      <trkpt lat="45.11224" lon="5.56589">
        <ele>1032.7</ele>
        <time>2022-08-12T08:48:22.000Z</time>
      </trkpt>
      <trkpt lat="45.11224" lon="5.56588">
        <ele>1032.8</ele>
        <time>2022-08-12T08:48:23.000Z</time>
      </trkpt>
      <trkpt lat="45.11223" lon="5.56587">
        <ele>1032.8</ele>
        <time>2022-08-12T08:48:24.000Z</time>
      </trkpt>
      <trkpt lat="45.11223" lon="5.56585">
        <ele>1032.8</ele>
        <time>2022-08-12T08:48:25.000Z</time>
      </trkpt>
      <trkpt lat="45.11222" lon="5.56582">
        <ele>1033.2</ele>
        <time>2022-08-12T08:48:26.000Z</time>
      </trkpt>
      <trkpt lat="45.11223" lon="5.5658">
        <ele>1033.9</ele>
        <time>2022-08-12T08:48:27.000Z</time>
      </trkpt>
      <trkpt lat="45.11222" lon="5.56578">
        <ele>1033.9</ele>
        <time>2022-08-12T08:48:28.000Z</time>
      </trkpt>
      <trkpt lat="45.11221" lon="5.56577">
        <ele>1034</ele>
        <time>2022-08-12T08:48:29.000Z</time>
      </trkpt>
      <trkpt lat="45.11221" lon="5.56575">
        <ele>1034.1</ele>
        <time>2022-08-12T08:48:30.000Z</time>
      </trkpt>
      <trkpt lat="45.11221" lon="5.56573">
        <ele>1034.4</ele>
        <time>2022-08-12T08:48:31.000Z</time>
      </trkpt>
      <trkpt lat="45.1122" lon="5.56572">
        <ele>1034.6</ele>
        <time>2022-08-12T08:48:32.000Z</time>
      </trkpt>
      <trkpt lat="45.1122" lon="5.5657">
        <ele>1034.9</ele>
        <time>2022-08-12T08:48:33.000Z</time>
      </trkpt>
      <trkpt lat="45.11219" lon="5.56568">
        <ele>1035.1</ele>
        <time>2022-08-12T08:48:34.000Z</time>
      </trkpt>
      <trkpt lat="45.11219" lon="5.56566">
        <ele>1035.2</ele>
        <time>2022-08-12T08:48:35.000Z</time>
      </trkpt>
      <trkpt lat="45.11218" lon="5.56565">
        <ele>1035.3</ele>
        <time>2022-08-12T08:48:36.000Z</time>
      </trkpt>
      <trkpt lat="45.11218" lon="5.56564">
        <ele>1035.4</ele>
        <time>2022-08-12T08:48:37.000Z</time>
      </trkpt>
      <trkpt lat="45.11218" lon="5.56561">
        <ele>1036</ele>
        <time>2022-08-12T08:48:38.000Z</time>
      </trkpt>
      <trkpt lat="45.11218" lon="5.56559">
        <ele>1036.2</ele>
        <time>2022-08-12T08:48:39.000Z</time>
      </trkpt>
      <trkpt lat="45.11216" lon="5.56557">
        <ele>1036.2</ele>
        <time>2022-08-12T08:48:40.000Z</time>
      </trkpt>
      <trkpt lat="45.11214" lon="5.56556">
        <ele>1035.9</ele>
        <time>2022-08-12T08:48:41.000Z</time>
      </trkpt>
      <trkpt lat="45.11213" lon="5.56555">
        <ele>1035.7</ele>
        <time>2022-08-12T08:48:42.000Z</time>
      </trkpt>
      <trkpt lat="45.11212" lon="5.56553">
        <ele>1035.8</ele>
        <time>2022-08-12T08:48:43.000Z</time>
      </trkpt>
      <trkpt lat="45.11211" lon="5.56551">
        <ele>1035.9</ele>
        <time>2022-08-12T08:48:44.000Z</time>
      </trkpt>
      <trkpt lat="45.11211" lon="5.56548">
        <ele>1036.5</ele>
        <time>2022-08-12T08:48:45.000Z</time>
      </trkpt>
      <trkpt lat="45.11211" lon="5.56545">
        <ele>1037.2</ele>
        <time>2022-08-12T08:48:46.000Z</time>
      </trkpt>
      <trkpt lat="45.11211" lon="5.56543">
        <ele>1037.5</ele>
        <time>2022-08-12T08:48:47.000Z</time>
      </trkpt>
      <trkpt lat="45.1121" lon="5.56541">
        <ele>1037.6</ele>
        <time>2022-08-12T08:48:48.000Z</time>
      </trkpt>
      <trkpt lat="45.1121" lon="5.5654">
        <ele>1037.6</ele>
        <time>2022-08-12T08:48:49.000Z</time>
      </trkpt>
      <trkpt lat="45.11208" lon="5.56538">
        <ele>1037.6</ele>
        <time>2022-08-12T08:48:50.000Z</time>
      </trkpt>
      <trkpt lat="45.11208" lon="5.56537">
        <ele>1038</ele>
        <time>2022-08-12T08:48:51.000Z</time>
      </trkpt>
      <trkpt lat="45.11209" lon="5.56535">
        <ele>1038.4</ele>
        <time>2022-08-12T08:48:52.000Z</time>
      </trkpt>
      <trkpt lat="45.1121" lon="5.56535">
        <ele>1038.5</ele>
        <time>2022-08-12T08:48:53.000Z</time>
      </trkpt>
      <trkpt lat="45.1121" lon="5.56534">
        <ele>1038.7</ele>
        <time>2022-08-12T08:48:54.000Z</time>
      </trkpt>
      <trkpt lat="45.11209" lon="5.56534">
        <ele>1038.5</ele>
        <time>2022-08-12T08:48:55.000Z</time>
      </trkpt>
      <trkpt lat="45.11207" lon="5.56534">
        <ele>1038.1</ele>
        <time>2022-08-12T08:48:56.000Z</time>
      </trkpt>
      <trkpt lat="45.11206" lon="5.56532">
        <ele>1038.1</ele>
        <time>2022-08-12T08:48:57.000Z</time>
      </trkpt>
      <trkpt lat="45.11204" lon="5.56529">
        <ele>1038.2</ele>
        <time>2022-08-12T08:48:58.000Z</time>
      </trkpt>
      <trkpt lat="45.11204" lon="5.56527">
        <ele>1038.6</ele>
        <time>2022-08-12T08:48:59.000Z</time>
      </trkpt>
      <trkpt lat="45.11204" lon="5.56526">
        <ele>1038.8</ele>
        <time>2022-08-12T08:49:00.000Z</time>
      </trkpt>
      <trkpt lat="45.11204" lon="5.56525">
        <ele>1038.8</ele>
        <time>2022-08-12T08:49:01.000Z</time>
      </trkpt>
      <trkpt lat="45.11203" lon="5.56524">
        <ele>1038.7</ele>
        <time>2022-08-12T08:49:04.000Z</time>
      </trkpt>
      <trkpt lat="45.11202" lon="5.56522">
        <ele>1039.1</ele>
        <time>2022-08-12T08:49:05.000Z</time>
      </trkpt>
      <trkpt lat="45.11202" lon="5.5652">
        <ele>1039.2</ele>
        <time>2022-08-12T08:49:06.000Z</time>
      </trkpt>
      <trkpt lat="45.11201" lon="5.56518">
        <ele>1039.3</ele>
        <time>2022-08-12T08:49:07.000Z</time>
      </trkpt>
      <trkpt lat="45.11201" lon="5.56517">
        <ele>1039.6</ele>
        <time>2022-08-12T08:49:08.000Z</time>
      </trkpt>
      <trkpt lat="45.112" lon="5.56515">
        <ele>1039.8</ele>
        <time>2022-08-12T08:49:09.000Z</time>
      </trkpt>
      <trkpt lat="45.11199" lon="5.56513">
        <ele>1039.9</ele>
        <time>2022-08-12T08:49:10.000Z</time>
      </trkpt>
      <trkpt lat="45.11199" lon="5.56511">
        <ele>1040.1</ele>
        <time>2022-08-12T08:49:11.000Z</time>
      </trkpt>
      <trkpt lat="45.11199" lon="5.56509">
        <ele>1040.3</ele>
        <time>2022-08-12T08:49:12.000Z</time>
      </trkpt>
      <trkpt lat="45.11198" lon="5.56508">
        <ele>1040.6</ele>
        <time>2022-08-12T08:49:13.000Z</time>
      </trkpt>
      <trkpt lat="45.11198" lon="5.56506">
        <ele>1040.8</ele>
        <time>2022-08-12T08:49:14.000Z</time>
      </trkpt>
      <trkpt lat="45.11198" lon="5.56505">
        <ele>1041</ele>
        <time>2022-08-12T08:49:15.000Z</time>
      </trkpt>
      <trkpt lat="45.11197" lon="5.56503">
        <ele>1041.1</ele>
        <time>2022-08-12T08:49:16.000Z</time>
      </trkpt>
      <trkpt lat="45.11197" lon="5.56501">
        <ele>1041.4</ele>
        <time>2022-08-12T08:49:17.000Z</time>
      </trkpt>
      <trkpt lat="45.11197" lon="5.565">
        <ele>1041.7</ele>
        <time>2022-08-12T08:49:18.000Z</time>
      </trkpt>
      <trkpt lat="45.11197" lon="5.56499">
        <ele>1042</ele>
        <time>2022-08-12T08:49:19.000Z</time>
      </trkpt>
      <trkpt lat="45.11197" lon="5.56497">
        <ele>1042.3</ele>
        <time>2022-08-12T08:49:20.000Z</time>
      </trkpt>
      <trkpt lat="45.11197" lon="5.56496">
        <ele>1042.4</ele>
        <time>2022-08-12T08:49:21.000Z</time>
      </trkpt>
      <trkpt lat="45.11195" lon="5.56495">
        <ele>1042.1</ele>
        <time>2022-08-12T08:49:22.000Z</time>
      </trkpt>
      <trkpt lat="45.11193" lon="5.56494">
        <ele>1042.1</ele>
        <time>2022-08-12T08:49:23.000Z</time>
      </trkpt>
      <trkpt lat="45.11193" lon="5.56493">
        <ele>1042.4</ele>
        <time>2022-08-12T08:49:24.000Z</time>
      </trkpt>
      <trkpt lat="45.11193" lon="5.56491">
        <ele>1042.6</ele>
        <time>2022-08-12T08:49:25.000Z</time>
      </trkpt>
      <trkpt lat="45.11192" lon="5.5649">
        <ele>1042.9</ele>
        <time>2022-08-12T08:49:26.000Z</time>
      </trkpt>
      <trkpt lat="45.11192" lon="5.56489">
        <ele>1043.1</ele>
        <time>2022-08-12T08:49:27.000Z</time>
      </trkpt>
      <trkpt lat="45.11192" lon="5.56487">
        <ele>1043.3</ele>
        <time>2022-08-12T08:49:28.000Z</time>
      </trkpt>
      <trkpt lat="45.11192" lon="5.56486">
        <ele>1043.5</ele>
        <time>2022-08-12T08:49:29.000Z</time>
      </trkpt>
      <trkpt lat="45.11192" lon="5.56485">
        <ele>1044</ele>
        <time>2022-08-12T08:49:30.000Z</time>
      </trkpt>
      <trkpt lat="45.11192" lon="5.56483">
        <ele>1044.3</ele>
        <time>2022-08-12T08:49:31.000Z</time>
      </trkpt>
      <trkpt lat="45.11191" lon="5.56481">
        <ele>1044.6</ele>
        <time>2022-08-12T08:49:32.000Z</time>
      </trkpt>
      <trkpt lat="45.11191" lon="5.56479">
        <ele>1044.9</ele>
        <time>2022-08-12T08:49:33.000Z</time>
      </trkpt>
      <trkpt lat="45.1119" lon="5.56478">
        <ele>1045.2</ele>
        <time>2022-08-12T08:49:34.000Z</time>
      </trkpt>
      <trkpt lat="45.1119" lon="5.56476">
        <ele>1045.5</ele>
        <time>2022-08-12T08:49:35.000Z</time>
      </trkpt>
      <trkpt lat="45.1119" lon="5.56475">
        <ele>1045.8</ele>
        <time>2022-08-12T08:49:36.000Z</time>
      </trkpt>
      <trkpt lat="45.1119" lon="5.56473">
        <ele>1046.3</ele>
        <time>2022-08-12T08:49:37.000Z</time>
      </trkpt>
      <trkpt lat="45.1119" lon="5.56471">
        <ele>1046.5</ele>
        <time>2022-08-12T08:49:38.000Z</time>
      </trkpt>
      <trkpt lat="45.11189" lon="5.5647">
        <ele>1046.6</ele>
        <time>2022-08-12T08:49:39.000Z</time>
      </trkpt>
      <trkpt lat="45.11188" lon="5.56469">
        <ele>1046.8</ele>
        <time>2022-08-12T08:49:40.000Z</time>
      </trkpt>
      <trkpt lat="45.11188" lon="5.56468">
        <ele>1047</ele>
        <time>2022-08-12T08:49:41.000Z</time>
      </trkpt>
      <trkpt lat="45.11187" lon="5.56466">
        <ele>1047.4</ele>
        <time>2022-08-12T08:49:42.000Z</time>
      </trkpt>
      <trkpt lat="45.11187" lon="5.56463">
        <ele>1047.8</ele>
        <time>2022-08-12T08:49:43.000Z</time>
      </trkpt>
      <trkpt lat="45.11186" lon="5.56461">
        <ele>1048.1</ele>
        <time>2022-08-12T08:49:44.000Z</time>
      </trkpt>
      <trkpt lat="45.11185" lon="5.56459">
        <ele>1048.4</ele>
        <time>2022-08-12T08:49:45.000Z</time>
      </trkpt>
      <trkpt lat="45.11184" lon="5.56458">
        <ele>1048.5</ele>
        <time>2022-08-12T08:49:46.000Z</time>
      </trkpt>
      <trkpt lat="45.11182" lon="5.56456">
        <ele>1048.6</ele>
        <time>2022-08-12T08:49:47.000Z</time>
      </trkpt>
      <trkpt lat="45.1118" lon="5.56455">
        <ele>1048.7</ele>
        <time>2022-08-12T08:49:48.000Z</time>
      </trkpt>
      <trkpt lat="45.1118" lon="5.56454">
        <ele>1048.9</ele>
        <time>2022-08-12T08:49:49.000Z</time>
      </trkpt>
      <trkpt lat="45.11179" lon="5.56453">
        <ele>1049</ele>
        <time>2022-08-12T08:49:50.000Z</time>
      </trkpt>
      <trkpt lat="45.11179" lon="5.56452">
        <ele>1049.1</ele>
        <time>2022-08-12T08:49:51.000Z</time>
      </trkpt>
      <trkpt lat="45.11179" lon="5.56451">
        <ele>1049.4</ele>
        <time>2022-08-12T08:49:52.000Z</time>
      </trkpt>
      <trkpt lat="45.11178" lon="5.5645">
        <ele>1049.5</ele>
        <time>2022-08-12T08:49:53.000Z</time>
      </trkpt>
      <trkpt lat="45.11177" lon="5.56449">
        <ele>1049.6</ele>
        <time>2022-08-12T08:49:54.000Z</time>
      </trkpt>
      <trkpt lat="45.11177" lon="5.56447">
        <ele>1049.8</ele>
        <time>2022-08-12T08:49:55.000Z</time>
      </trkpt>
      <trkpt lat="45.11177" lon="5.56446">
        <ele>1050</ele>
        <time>2022-08-12T08:49:56.000Z</time>
      </trkpt>
      <trkpt lat="45.11176" lon="5.56446">
        <ele>1050.1</ele>
        <time>2022-08-12T08:49:57.000Z</time>
      </trkpt>
      <trkpt lat="45.11174" lon="5.56445">
        <ele>1050</ele>
        <time>2022-08-12T08:49:58.000Z</time>
      </trkpt>
      <trkpt lat="45.11172" lon="5.56444">
        <ele>1049.8</ele>
        <time>2022-08-12T08:49:59.000Z</time>
      </trkpt>
      <trkpt lat="45.1117" lon="5.56443">
        <ele>1049.7</ele>
        <time>2022-08-12T08:50:00.000Z</time>
      </trkpt>
      <trkpt lat="45.11169" lon="5.56442">
        <ele>1049.8</ele>
        <time>2022-08-12T08:50:01.000Z</time>
      </trkpt>
      <trkpt lat="45.11168" lon="5.56441">
        <ele>1050</ele>
        <time>2022-08-12T08:50:02.000Z</time>
      </trkpt>
      <trkpt lat="45.11167" lon="5.5644">
        <ele>1050.2</ele>
        <time>2022-08-12T08:50:03.000Z</time>
      </trkpt>
      <trkpt lat="45.11165" lon="5.56439">
        <ele>1050.3</ele>
        <time>2022-08-12T08:50:04.000Z</time>
      </trkpt>
      <trkpt lat="45.11165" lon="5.56438">
        <ele>1050.4</ele>
        <time>2022-08-12T08:50:05.000Z</time>
      </trkpt>
      <trkpt lat="45.11164" lon="5.56438">
        <ele>1050.5</ele>
        <time>2022-08-12T08:50:06.000Z</time>
      </trkpt>
      <trkpt lat="45.11163" lon="5.56437">
        <ele>1050.5</ele>
        <time>2022-08-12T08:50:08.000Z</time>
      </trkpt>
      <trkpt lat="45.11162" lon="5.56438">
        <ele>1050.4</ele>
        <time>2022-08-12T08:50:09.000Z</time>
      </trkpt>
      <trkpt lat="45.11161" lon="5.56438">
        <ele>1050.1</ele>
        <time>2022-08-12T08:50:11.000Z</time>
      </trkpt>
      <trkpt lat="45.11158" lon="5.5644">
        <ele>1049.5</ele>
        <time>2022-08-12T08:50:12.000Z</time>
      </trkpt>
      <trkpt lat="45.11157" lon="5.56441">
        <ele>1049.2</ele>
        <time>2022-08-12T08:50:13.000Z</time>
      </trkpt>
      <trkpt lat="45.11156" lon="5.56441">
        <ele>1049.1</ele>
        <time>2022-08-12T08:50:14.000Z</time>
      </trkpt>
      <trkpt lat="45.11154" lon="5.56442">
        <ele>1048.7</ele>
        <time>2022-08-12T08:50:15.000Z</time>
      </trkpt>
      <trkpt lat="45.11153" lon="5.56443">
        <ele>1048.3</ele>
        <time>2022-08-12T08:50:16.000Z</time>
      </trkpt>
      <trkpt lat="45.11146" lon="5.56448">
        <ele>1046.8</ele>
        <time>2022-08-12T08:50:20.000Z</time>
      </trkpt>
      <trkpt lat="45.11143" lon="5.56448">
        <ele>1046.4</ele>
        <time>2022-08-12T08:50:22.000Z</time>
      </trkpt>
      <trkpt lat="45.1114" lon="5.56451">
        <ele>1045.4</ele>
        <time>2022-08-12T08:50:25.000Z</time>
      </trkpt>
      <trkpt lat="45.11133" lon="5.56452">
        <ele>1044.1</ele>
        <time>2022-08-12T08:50:29.000Z</time>
      </trkpt>
      <trkpt lat="45.11131" lon="5.56452">
        <ele>1043.9</ele>
        <time>2022-08-12T08:50:30.000Z</time>
      </trkpt>
      <trkpt lat="45.11129" lon="5.56451">
        <ele>1043.8</ele>
        <time>2022-08-12T08:50:31.000Z</time>
      </trkpt>
      <trkpt lat="45.11126" lon="5.56449">
        <ele>1043.9</ele>
        <time>2022-08-12T08:50:33.000Z</time>
      </trkpt>
      <trkpt lat="45.11125" lon="5.56448">
        <ele>1043.9</ele>
        <time>2022-08-12T08:50:34.000Z</time>
      </trkpt>
      <trkpt lat="45.11123" lon="5.56448">
        <ele>1043.9</ele>
        <time>2022-08-12T08:50:35.000Z</time>
      </trkpt>
      <trkpt lat="45.1112" lon="5.56445">
        <ele>1044.2</ele>
        <time>2022-08-12T08:50:38.000Z</time>
      </trkpt>
      <trkpt lat="45.11119" lon="5.56444">
        <ele>1044.4</ele>
        <time>2022-08-12T08:50:39.000Z</time>
      </trkpt>
      <trkpt lat="45.11118" lon="5.56443">
        <ele>1044.4</ele>
        <time>2022-08-12T08:50:40.000Z</time>
      </trkpt>
      <trkpt lat="45.11118" lon="5.56442">
        <ele>1044.5</ele>
        <time>2022-08-12T08:50:41.000Z</time>
      </trkpt>
      <trkpt lat="45.11117" lon="5.56441">
        <ele>1044.7</ele>
        <time>2022-08-12T08:50:42.000Z</time>
      </trkpt>
      <trkpt lat="45.11117" lon="5.5644">
        <ele>1045</ele>
        <time>2022-08-12T08:50:43.000Z</time>
      </trkpt>
      <trkpt lat="45.11116" lon="5.56438">
        <ele>1045.3</ele>
        <time>2022-08-12T08:50:44.000Z</time>
      </trkpt>
      <trkpt lat="45.11116" lon="5.56437">
        <ele>1045.6</ele>
        <time>2022-08-12T08:50:45.000Z</time>
      </trkpt>
      <trkpt lat="45.11116" lon="5.56435">
        <ele>1046</ele>
        <time>2022-08-12T08:50:46.000Z</time>
      </trkpt>
      <trkpt lat="45.11116" lon="5.56434">
        <ele>1046.4</ele>
        <time>2022-08-12T08:50:47.000Z</time>
      </trkpt>
      <trkpt lat="45.11116" lon="5.56432">
        <ele>1046.9</ele>
        <time>2022-08-12T08:50:48.000Z</time>
      </trkpt>
      <trkpt lat="45.11117" lon="5.5643">
        <ele>1047.5</ele>
        <time>2022-08-12T08:50:49.000Z</time>
      </trkpt>
      <trkpt lat="45.11117" lon="5.56427">
        <ele>1048.1</ele>
        <time>2022-08-12T08:50:50.000Z</time>
      </trkpt>
      <trkpt lat="45.11117" lon="5.56426">
        <ele>1048.4</ele>
        <time>2022-08-12T08:50:51.000Z</time>
      </trkpt>
      <trkpt lat="45.11117" lon="5.56425">
        <ele>1048.8</ele>
        <time>2022-08-12T08:50:52.000Z</time>
      </trkpt>
      <trkpt lat="45.11118" lon="5.56424">
        <ele>1049.1</ele>
        <time>2022-08-12T08:50:53.000Z</time>
      </trkpt>
      <trkpt lat="45.11119" lon="5.56424">
        <ele>1049.4</ele>
        <time>2022-08-12T08:50:54.000Z</time>
      </trkpt>
      <trkpt lat="45.1112" lon="5.56423">
        <ele>1049.7</ele>
        <time>2022-08-12T08:50:55.000Z</time>
      </trkpt>
      <trkpt lat="45.11121" lon="5.56423">
        <ele>1049.9</ele>
        <time>2022-08-12T08:50:56.000Z</time>
      </trkpt>
      <trkpt lat="45.11124" lon="5.56422">
        <ele>1050.6</ele>
        <time>2022-08-12T08:51:01.000Z</time>
      </trkpt>
      <trkpt lat="45.11125" lon="5.56421">
        <ele>1050.8</ele>
        <time>2022-08-12T08:51:03.000Z</time>
      </trkpt>
      <trkpt lat="45.11126" lon="5.5642">
        <ele>1051.3</ele>
        <time>2022-08-12T08:51:04.000Z</time>
      </trkpt>
      <trkpt lat="45.11126" lon="5.56419">
        <ele>1051.5</ele>
        <time>2022-08-12T08:51:05.000Z</time>
      </trkpt>
      <trkpt lat="45.11127" lon="5.56419">
        <ele>1051.7</ele>
        <time>2022-08-12T08:51:06.000Z</time>
      </trkpt>
      <trkpt lat="45.11127" lon="5.5642">
        <ele>1051.6</ele>
        <time>2022-08-12T08:51:07.000Z</time>
      </trkpt>
      <trkpt lat="45.11127" lon="5.56419">
        <ele>1051.7</ele>
        <time>2022-08-12T08:51:09.000Z</time>
      </trkpt>
      <trkpt lat="45.11128" lon="5.56419">
        <ele>1051.9</ele>
        <time>2022-08-12T08:51:12.000Z</time>
      </trkpt>
      <trkpt lat="45.11131" lon="5.56418">
        <ele>1052.6</ele>
        <time>2022-08-12T08:51:14.000Z</time>
      </trkpt>
      <trkpt lat="45.11133" lon="5.56418">
        <ele>1053</ele>
        <time>2022-08-12T08:51:17.000Z</time>
      </trkpt>
      <trkpt lat="45.11134" lon="5.56417">
        <ele>1053.1</ele>
        <time>2022-08-12T08:51:18.000Z</time>
      </trkpt>
      <trkpt lat="45.11135" lon="5.56417">
        <ele>1053.3</ele>
        <time>2022-08-12T08:51:19.000Z</time>
      </trkpt>
      <trkpt lat="45.11136" lon="5.56416">
        <ele>1053.7</ele>
        <time>2022-08-12T08:51:22.000Z</time>
      </trkpt>
      <trkpt lat="45.11137" lon="5.56415">
        <ele>1054.1</ele>
        <time>2022-08-12T08:51:23.000Z</time>
      </trkpt>
      <trkpt lat="45.11142" lon="5.56412">
        <ele>1055.5</ele>
        <time>2022-08-12T08:51:33.000Z</time>
      </trkpt>
      <trkpt lat="45.11143" lon="5.56411">
        <ele>1055.7</ele>
        <time>2022-08-12T08:51:34.000Z</time>
      </trkpt>
      <trkpt lat="45.11145" lon="5.56411">
        <ele>1055.7</ele>
        <time>2022-08-12T08:51:35.000Z</time>
      </trkpt>
      <trkpt lat="45.11147" lon="5.56412">
        <ele>1055.8</ele>
        <time>2022-08-12T08:51:36.000Z</time>
      </trkpt>
      <trkpt lat="45.1115" lon="5.56411">
        <ele>1056.1</ele>
        <time>2022-08-12T08:51:38.000Z</time>
      </trkpt>
      <trkpt lat="45.1115" lon="5.5641">
        <ele>1056.3</ele>
        <time>2022-08-12T08:51:40.000Z</time>
      </trkpt>
      <trkpt lat="45.11151" lon="5.56409">
        <ele>1056.7</ele>
        <time>2022-08-12T08:51:41.000Z</time>
      </trkpt>
      <trkpt lat="45.11151" lon="5.56408">
        <ele>1056.9</ele>
        <time>2022-08-12T08:51:42.000Z</time>
      </trkpt>
      <trkpt lat="45.11152" lon="5.56408">
        <ele>1056.9</ele>
        <time>2022-08-12T08:51:43.000Z</time>
      </trkpt>
      <trkpt lat="45.11154" lon="5.56408">
        <ele>1057.2</ele>
        <time>2022-08-12T08:51:44.000Z</time>
      </trkpt>
      <trkpt lat="45.11155" lon="5.56406">
        <ele>1057.6</ele>
        <time>2022-08-12T08:51:45.000Z</time>
      </trkpt>
      <trkpt lat="45.11156" lon="5.56406">
        <ele>1057.8</ele>
        <time>2022-08-12T08:51:46.000Z</time>
      </trkpt>
      <trkpt lat="45.11157" lon="5.56405">
        <ele>1058</ele>
        <time>2022-08-12T08:51:47.000Z</time>
      </trkpt>
      <trkpt lat="45.11158" lon="5.56405">
        <ele>1058.1</ele>
        <time>2022-08-12T08:51:48.000Z</time>
      </trkpt>
      <trkpt lat="45.11159" lon="5.56404">
        <ele>1058.4</ele>
        <time>2022-08-12T08:51:49.000Z</time>
      </trkpt>
      <trkpt lat="45.1116" lon="5.56403">
        <ele>1058.7</ele>
        <time>2022-08-12T08:51:50.000Z</time>
      </trkpt>
      <trkpt lat="45.11161" lon="5.56402">
        <ele>1058.8</ele>
        <time>2022-08-12T08:51:51.000Z</time>
      </trkpt>
      <trkpt lat="45.11162" lon="5.56401">
        <ele>1059.1</ele>
        <time>2022-08-12T08:51:54.000Z</time>
      </trkpt>
      <trkpt lat="45.11164" lon="5.56401">
        <ele>1059.3</ele>
        <time>2022-08-12T08:51:55.000Z</time>
      </trkpt>
      <trkpt lat="45.11165" lon="5.56399">
        <ele>1059.8</ele>
        <time>2022-08-12T08:51:56.000Z</time>
      </trkpt>
      <trkpt lat="45.1117" lon="5.56396">
        <ele>1060.7</ele>
        <time>2022-08-12T08:51:59.000Z</time>
      </trkpt>
      <trkpt lat="45.11171" lon="5.56396">
        <ele>1060.9</ele>
        <time>2022-08-12T08:52:00.000Z</time>
      </trkpt>
      <trkpt lat="45.11172" lon="5.56396">
        <ele>1060.9</ele>
        <time>2022-08-12T08:52:01.000Z</time>
      </trkpt>
      <trkpt lat="45.11173" lon="5.56396">
        <ele>1061</ele>
        <time>2022-08-12T08:52:02.000Z</time>
      </trkpt>
      <trkpt lat="45.11174" lon="5.56394">
        <ele>1061.5</ele>
        <time>2022-08-12T08:52:03.000Z</time>
      </trkpt>
      <trkpt lat="45.11175" lon="5.56392">
        <ele>1061.9</ele>
        <time>2022-08-12T08:52:04.000Z</time>
      </trkpt>
      <trkpt lat="45.11176" lon="5.56391">
        <ele>1062.2</ele>
        <time>2022-08-12T08:52:05.000Z</time>
      </trkpt>
      <trkpt lat="45.11177" lon="5.5639">
        <ele>1062.5</ele>
        <time>2022-08-12T08:52:07.000Z</time>
      </trkpt>
      <trkpt lat="45.11178" lon="5.5639">
        <ele>1062.6</ele>
        <time>2022-08-12T08:52:08.000Z</time>
      </trkpt>
      <trkpt lat="45.11179" lon="5.5639">
        <ele>1062.7</ele>
        <time>2022-08-12T08:52:09.000Z</time>
      </trkpt>
      <trkpt lat="45.1118" lon="5.5639">
        <ele>1062.8</ele>
        <time>2022-08-12T08:52:10.000Z</time>
      </trkpt>
      <trkpt lat="45.11182" lon="5.5639">
        <ele>1062.9</ele>
        <time>2022-08-12T08:52:11.000Z</time>
      </trkpt>
      <trkpt lat="45.11184" lon="5.56391">
        <ele>1062.9</ele>
        <time>2022-08-12T08:52:12.000Z</time>
      </trkpt>
      <trkpt lat="45.11186" lon="5.56392">
        <ele>1062.9</ele>
        <time>2022-08-12T08:52:13.000Z</time>
      </trkpt>
      <trkpt lat="45.11189" lon="5.56393">
        <ele>1062.9</ele>
        <time>2022-08-12T08:52:14.000Z</time>
      </trkpt>
      <trkpt lat="45.1119" lon="5.56393">
        <ele>1062.9</ele>
        <time>2022-08-12T08:52:16.000Z</time>
      </trkpt>
      <trkpt lat="45.11192" lon="5.56394">
        <ele>1062.9</ele>
        <time>2022-08-12T08:52:18.000Z</time>
      </trkpt>
      <trkpt lat="45.11193" lon="5.56395">
        <ele>1062.7</ele>
        <time>2022-08-12T08:52:19.000Z</time>
      </trkpt>
      <trkpt lat="45.11193" lon="5.56396">
        <ele>1062.7</ele>
        <time>2022-08-12T08:52:20.000Z</time>
      </trkpt>
      <trkpt lat="45.11195" lon="5.56395">
        <ele>1063</ele>
        <time>2022-08-12T08:52:23.000Z</time>
      </trkpt>
      <trkpt lat="45.11197" lon="5.56396">
        <ele>1063.1</ele>
        <time>2022-08-12T08:52:24.000Z</time>
      </trkpt>
      <trkpt lat="45.11199" lon="5.56397">
        <ele>1063</ele>
        <time>2022-08-12T08:52:25.000Z</time>
      </trkpt>
      <trkpt lat="45.112" lon="5.56399">
        <ele>1062.9</ele>
        <time>2022-08-12T08:52:26.000Z</time>
      </trkpt>
      <trkpt lat="45.11203" lon="5.56402">
        <ele>1062.6</ele>
        <time>2022-08-12T08:52:28.000Z</time>
      </trkpt>
      <trkpt lat="45.11205" lon="5.56403">
        <ele>1062.6</ele>
        <time>2022-08-12T08:52:29.000Z</time>
      </trkpt>
      <trkpt lat="45.11206" lon="5.56404">
        <ele>1062.5</ele>
        <time>2022-08-12T08:52:30.000Z</time>
      </trkpt>
      <trkpt lat="45.11208" lon="5.56406">
        <ele>1062.4</ele>
        <time>2022-08-12T08:52:31.000Z</time>
      </trkpt>
      <trkpt lat="45.11209" lon="5.56406">
        <ele>1062.4</ele>
        <time>2022-08-12T08:52:32.000Z</time>
      </trkpt>
      <trkpt lat="45.1121" lon="5.56408">
        <ele>1062.4</ele>
        <time>2022-08-12T08:52:33.000Z</time>
      </trkpt>
      <trkpt lat="45.11212" lon="5.56409">
        <ele>1062.3</ele>
        <time>2022-08-12T08:52:34.000Z</time>
      </trkpt>
      <trkpt lat="45.11214" lon="5.5641">
        <ele>1062.3</ele>
        <time>2022-08-12T08:52:35.000Z</time>
      </trkpt>
      <trkpt lat="45.11215" lon="5.56411">
        <ele>1062.2</ele>
        <time>2022-08-12T08:52:36.000Z</time>
      </trkpt>
      <trkpt lat="45.11217" lon="5.56413">
        <ele>1062.1</ele>
        <time>2022-08-12T08:52:37.000Z</time>
      </trkpt>
      <trkpt lat="45.11217" lon="5.56414">
        <ele>1062</ele>
        <time>2022-08-12T08:52:38.000Z</time>
      </trkpt>
      <trkpt lat="45.1122" lon="5.56417">
        <ele>1061.7</ele>
        <time>2022-08-12T08:52:41.000Z</time>
      </trkpt>
      <trkpt lat="45.11219" lon="5.56418">
        <ele>1061.4</ele>
        <time>2022-08-12T08:52:42.000Z</time>
      </trkpt>
      <trkpt lat="45.1122" lon="5.5642">
        <ele>1061.3</ele>
        <time>2022-08-12T08:52:43.000Z</time>
      </trkpt>
      <trkpt lat="45.11222" lon="5.56421">
        <ele>1061.2</ele>
        <time>2022-08-12T08:52:45.000Z</time>
      </trkpt>
      <trkpt lat="45.11223" lon="5.56423">
        <ele>1061.3</ele>
        <time>2022-08-12T08:52:46.000Z</time>
      </trkpt>
      <trkpt lat="45.11223" lon="5.56424">
        <ele>1061.2</ele>
        <time>2022-08-12T08:52:47.000Z</time>
      </trkpt>
      <trkpt lat="45.11224" lon="5.56425">
        <ele>1061.2</ele>
        <time>2022-08-12T08:52:48.000Z</time>
      </trkpt>
      <trkpt lat="45.11225" lon="5.56426">
        <ele>1061.1</ele>
        <time>2022-08-12T08:52:49.000Z</time>
      </trkpt>
      <trkpt lat="45.11225" lon="5.56428">
        <ele>1061</ele>
        <time>2022-08-12T08:52:50.000Z</time>
      </trkpt>
      <trkpt lat="45.11225" lon="5.56429">
        <ele>1060.8</ele>
        <time>2022-08-12T08:52:51.000Z</time>
      </trkpt>
      <trkpt lat="45.11226" lon="5.56431">
        <ele>1060.7</ele>
        <time>2022-08-12T08:52:52.000Z</time>
      </trkpt>
      <trkpt lat="45.11227" lon="5.56432">
        <ele>1060.8</ele>
        <time>2022-08-12T08:52:53.000Z</time>
      </trkpt>
      <trkpt lat="45.11228" lon="5.56433">
        <ele>1060.9</ele>
        <time>2022-08-12T08:52:54.000Z</time>
      </trkpt>
      <trkpt lat="45.11229" lon="5.56434">
        <ele>1061</ele>
        <time>2022-08-12T08:52:55.000Z</time>
      </trkpt>
      <trkpt lat="45.1123" lon="5.56435">
        <ele>1061</ele>
        <time>2022-08-12T08:52:57.000Z</time>
      </trkpt>
      <trkpt lat="45.11231" lon="5.56436">
        <ele>1061.1</ele>
        <time>2022-08-12T08:52:58.000Z</time>
      </trkpt>
      <trkpt lat="45.11231" lon="5.56437">
        <ele>1061.1</ele>
        <time>2022-08-12T08:53:00.000Z</time>
      </trkpt>
      <trkpt lat="45.11232" lon="5.56437">
        <ele>1061.1</ele>
        <time>2022-08-12T08:53:01.000Z</time>
      </trkpt>
      <trkpt lat="45.11232" lon="5.56438">
        <ele>1061.2</ele>
        <time>2022-08-12T08:53:02.000Z</time>
      </trkpt>
      <trkpt lat="45.11233" lon="5.56439">
        <ele>1061.2</ele>
        <time>2022-08-12T08:53:03.000Z</time>
      </trkpt>
      <trkpt lat="45.11235" lon="5.5644">
        <ele>1061.4</ele>
        <time>2022-08-12T08:53:04.000Z</time>
      </trkpt>
      <trkpt lat="45.11236" lon="5.5644">
        <ele>1061.6</ele>
        <time>2022-08-12T08:53:06.000Z</time>
      </trkpt>
      <trkpt lat="45.11238" lon="5.5644">
        <ele>1061.9</ele>
        <time>2022-08-12T08:53:10.000Z</time>
      </trkpt>
      <trkpt lat="45.11238" lon="5.56441">
        <ele>1061.9</ele>
        <time>2022-08-12T08:53:12.000Z</time>
      </trkpt>
      <trkpt lat="45.11239" lon="5.56441">
        <ele>1062.3</ele>
        <time>2022-08-12T08:53:14.000Z</time>
      </trkpt>
      <trkpt lat="45.1124" lon="5.56441">
        <ele>1062.4</ele>
        <time>2022-08-12T08:53:15.000Z</time>
      </trkpt>
      <trkpt lat="45.11241" lon="5.56441">
        <ele>1062.5</ele>
        <time>2022-08-12T08:53:17.000Z</time>
      </trkpt>
      <trkpt lat="45.11242" lon="5.5644">
        <ele>1062.9</ele>
        <time>2022-08-12T08:53:20.000Z</time>
      </trkpt>
      <trkpt lat="45.11243" lon="5.5644">
        <ele>1063.2</ele>
        <time>2022-08-12T08:53:21.000Z</time>
      </trkpt>
      <trkpt lat="45.11244" lon="5.56441">
        <ele>1063.4</ele>
        <time>2022-08-12T08:53:22.000Z</time>
      </trkpt>
      <trkpt lat="45.11246" lon="5.56441">
        <ele>1063.7</ele>
        <time>2022-08-12T08:53:23.000Z</time>
      </trkpt>
      <trkpt lat="45.11246" lon="5.5644">
        <ele>1063.8</ele>
        <time>2022-08-12T08:53:24.000Z</time>
      </trkpt>
      <trkpt lat="45.11247" lon="5.56441">
        <ele>1063.9</ele>
        <time>2022-08-12T08:53:25.000Z</time>
      </trkpt>
      <trkpt lat="45.11248" lon="5.56441">
        <ele>1064.1</ele>
        <time>2022-08-12T08:53:26.000Z</time>
      </trkpt>
      <trkpt lat="45.11249" lon="5.56442">
        <ele>1064.2</ele>
        <time>2022-08-12T08:53:27.000Z</time>
      </trkpt>
      <trkpt lat="45.1125" lon="5.56443">
        <ele>1064.3</ele>
        <time>2022-08-12T08:53:29.000Z</time>
      </trkpt>
      <trkpt lat="45.11251" lon="5.56443">
        <ele>1064.5</ele>
        <time>2022-08-12T08:53:30.000Z</time>
      </trkpt>
      <trkpt lat="45.11252" lon="5.56444">
        <ele>1064.6</ele>
        <time>2022-08-12T08:53:31.000Z</time>
      </trkpt>
      <trkpt lat="45.11253" lon="5.56444">
        <ele>1064.7</ele>
        <time>2022-08-12T08:53:32.000Z</time>
      </trkpt>
      <trkpt lat="45.11254" lon="5.56445">
        <ele>1065</ele>
        <time>2022-08-12T08:53:33.000Z</time>
      </trkpt>
      <trkpt lat="45.11255" lon="5.56445">
        <ele>1065.3</ele>
        <time>2022-08-12T08:53:34.000Z</time>
      </trkpt>
      <trkpt lat="45.11257" lon="5.56445">
        <ele>1065.7</ele>
        <time>2022-08-12T08:53:35.000Z</time>
      </trkpt>
      <trkpt lat="45.11259" lon="5.56446">
        <ele>1066.1</ele>
        <time>2022-08-12T08:53:36.000Z</time>
      </trkpt>
      <trkpt lat="45.1126" lon="5.56447">
        <ele>1066.1</ele>
        <time>2022-08-12T08:53:37.000Z</time>
      </trkpt>
      <trkpt lat="45.11261" lon="5.56448">
        <ele>1066.3</ele>
        <time>2022-08-12T08:53:39.000Z</time>
      </trkpt>
      <trkpt lat="45.11262" lon="5.56449">
        <ele>1066.4</ele>
        <time>2022-08-12T08:53:40.000Z</time>
      </trkpt>
      <trkpt lat="45.11263" lon="5.56449">
        <ele>1066.6</ele>
        <time>2022-08-12T08:53:42.000Z</time>
      </trkpt>
      <trkpt lat="45.11264" lon="5.5645">
        <ele>1066.9</ele>
        <time>2022-08-12T08:53:43.000Z</time>
      </trkpt>
      <trkpt lat="45.11266" lon="5.5645">
        <ele>1067.2</ele>
        <time>2022-08-12T08:53:44.000Z</time>
      </trkpt>
      <trkpt lat="45.11268" lon="5.5645">
        <ele>1067.6</ele>
        <time>2022-08-12T08:53:45.000Z</time>
      </trkpt>
      <trkpt lat="45.11269" lon="5.56452">
        <ele>1067.8</ele>
        <time>2022-08-12T08:53:46.000Z</time>
      </trkpt>
      <trkpt lat="45.11271" lon="5.56453">
        <ele>1067.9</ele>
        <time>2022-08-12T08:53:47.000Z</time>
      </trkpt>
      <trkpt lat="45.11272" lon="5.56453">
        <ele>1068.2</ele>
        <time>2022-08-12T08:53:52.000Z</time>
      </trkpt>
      <trkpt lat="45.11273" lon="5.56454">
        <ele>1068.4</ele>
        <time>2022-08-12T08:53:54.000Z</time>
      </trkpt>
      <trkpt lat="45.11274" lon="5.56454">
        <ele>1068.7</ele>
        <time>2022-08-12T08:53:55.000Z</time>
      </trkpt>
      <trkpt lat="45.11276" lon="5.56455">
        <ele>1069</ele>
        <time>2022-08-12T08:53:56.000Z</time>
      </trkpt>
      <trkpt lat="45.11278" lon="5.56456">
        <ele>1069.2</ele>
        <time>2022-08-12T08:53:57.000Z</time>
      </trkpt>
      <trkpt lat="45.11279" lon="5.56457">
        <ele>1069.4</ele>
        <time>2022-08-12T08:53:58.000Z</time>
      </trkpt>
      <trkpt lat="45.11279" lon="5.56458">
        <ele>1069.4</ele>
        <time>2022-08-12T08:53:59.000Z</time>
      </trkpt>
      <trkpt lat="45.1128" lon="5.56458">
        <ele>1069.5</ele>
        <time>2022-08-12T08:54:01.000Z</time>
      </trkpt>
      <trkpt lat="45.11281" lon="5.56459">
        <ele>1069.6</ele>
        <time>2022-08-12T08:54:04.000Z</time>
      </trkpt>
      <trkpt lat="45.11282" lon="5.5646">
        <ele>1069.7</ele>
        <time>2022-08-12T08:54:05.000Z</time>
      </trkpt>
      <trkpt lat="45.11285" lon="5.56465">
        <ele>1069.9</ele>
        <time>2022-08-12T08:54:08.000Z</time>
      </trkpt>
      <trkpt lat="45.11288" lon="5.56466">
        <ele>1070.5</ele>
        <time>2022-08-12T08:54:09.000Z</time>
      </trkpt>
      <trkpt lat="45.11289" lon="5.56466">
        <ele>1070.6</ele>
        <time>2022-08-12T08:54:10.000Z</time>
      </trkpt>
      <trkpt lat="45.1129" lon="5.56466">
        <ele>1070.8</ele>
        <time>2022-08-12T08:54:11.000Z</time>
      </trkpt>
      <trkpt lat="45.1129" lon="5.56467">
        <ele>1070.8</ele>
        <time>2022-08-12T08:54:12.000Z</time>
      </trkpt>
      <trkpt lat="45.11292" lon="5.56466">
        <ele>1071.5</ele>
        <time>2022-08-12T08:54:15.000Z</time>
      </trkpt>
      <trkpt lat="45.11293" lon="5.56466">
        <ele>1071.6</ele>
        <time>2022-08-12T08:54:16.000Z</time>
      </trkpt>
      <trkpt lat="45.11295" lon="5.56466">
        <ele>1072</ele>
        <time>2022-08-12T08:54:19.000Z</time>
      </trkpt>
      <trkpt lat="45.11296" lon="5.56467">
        <ele>1072.3</ele>
        <time>2022-08-12T08:54:20.000Z</time>
      </trkpt>
      <trkpt lat="45.11297" lon="5.56467">
        <ele>1072.6</ele>
        <time>2022-08-12T08:54:21.000Z</time>
      </trkpt>
      <trkpt lat="45.113" lon="5.56467">
        <ele>1073</ele>
        <time>2022-08-12T08:54:22.000Z</time>
      </trkpt>
      <trkpt lat="45.11302" lon="5.56468">
        <ele>1073.7</ele>
        <time>2022-08-12T08:54:23.000Z</time>
      </trkpt>
      <trkpt lat="45.11303" lon="5.56468">
        <ele>1073.8</ele>
        <time>2022-08-12T08:54:24.000Z</time>
      </trkpt>
      <trkpt lat="45.11304" lon="5.56468">
        <ele>1074.1</ele>
        <time>2022-08-12T08:54:25.000Z</time>
      </trkpt>
      <trkpt lat="45.11305" lon="5.56468">
        <ele>1074.5</ele>
        <time>2022-08-12T08:54:26.000Z</time>
      </trkpt>
      <trkpt lat="45.11307" lon="5.56468">
        <ele>1074.8</ele>
        <time>2022-08-12T08:54:27.000Z</time>
      </trkpt>
      <trkpt lat="45.11308" lon="5.56468">
        <ele>1074.9</ele>
        <time>2022-08-12T08:54:28.000Z</time>
      </trkpt>
      <trkpt lat="45.11309" lon="5.56468">
        <ele>1075.2</ele>
        <time>2022-08-12T08:54:29.000Z</time>
      </trkpt>
      <trkpt lat="45.11311" lon="5.56468">
        <ele>1075.7</ele>
        <time>2022-08-12T08:54:30.000Z</time>
      </trkpt>
      <trkpt lat="45.11313" lon="5.56468">
        <ele>1076</ele>
        <time>2022-08-12T08:54:31.000Z</time>
      </trkpt>
      <trkpt lat="45.11314" lon="5.56468">
        <ele>1076.2</ele>
        <time>2022-08-12T08:54:33.000Z</time>
      </trkpt>
      <trkpt lat="45.11314" lon="5.56467">
        <ele>1076.4</ele>
        <time>2022-08-12T08:54:34.000Z</time>
      </trkpt>
      <trkpt lat="45.11316" lon="5.56465">
        <ele>1076.9</ele>
        <time>2022-08-12T08:54:35.000Z</time>
      </trkpt>
      <trkpt lat="45.11318" lon="5.56464">
        <ele>1077.6</ele>
        <time>2022-08-12T08:54:36.000Z</time>
      </trkpt>
      <trkpt lat="45.11319" lon="5.56464">
        <ele>1077.9</ele>
        <time>2022-08-12T08:54:37.000Z</time>
      </trkpt>
      <trkpt lat="45.1132" lon="5.56463">
        <ele>1078</ele>
        <time>2022-08-12T08:54:38.000Z</time>
      </trkpt>
      <trkpt lat="45.1132" lon="5.56462">
        <ele>1078.2</ele>
        <time>2022-08-12T08:54:40.000Z</time>
      </trkpt>
      <trkpt lat="45.11321" lon="5.56461">
        <ele>1078.5</ele>
        <time>2022-08-12T08:54:41.000Z</time>
      </trkpt>
      <trkpt lat="45.11321" lon="5.5646">
        <ele>1078.7</ele>
        <time>2022-08-12T08:54:42.000Z</time>
      </trkpt>
      <trkpt lat="45.11321" lon="5.56459">
        <ele>1078.9</ele>
        <time>2022-08-12T08:54:43.000Z</time>
      </trkpt>
      <trkpt lat="45.11322" lon="5.56457">
        <ele>1079.1</ele>
        <time>2022-08-12T08:54:44.000Z</time>
      </trkpt>
      <trkpt lat="45.11322" lon="5.56456">
        <ele>1079.2</ele>
        <time>2022-08-12T08:54:45.000Z</time>
      </trkpt>
      <trkpt lat="45.11321" lon="5.56456">
        <ele>1079.2</ele>
        <time>2022-08-12T08:54:46.000Z</time>
      </trkpt>
      <trkpt lat="45.11321" lon="5.56457">
        <ele>1079</ele>
        <time>2022-08-12T08:55:50.000Z</time>
      </trkpt>
      <trkpt lat="45.11322" lon="5.56452">
        <ele>1079.7</ele>
        <time>2022-08-12T08:55:59.000Z</time>
      </trkpt>
      <trkpt lat="45.11323" lon="5.56449">
        <ele>1080.3</ele>
        <time>2022-08-12T08:56:01.000Z</time>
      </trkpt>
      <trkpt lat="45.11323" lon="5.56448">
        <ele>1080.4</ele>
        <time>2022-08-12T08:56:02.000Z</time>
      </trkpt>
      <trkpt lat="45.11321" lon="5.56445">
        <ele>1080.3</ele>
        <time>2022-08-12T08:56:04.000Z</time>
      </trkpt>
      <trkpt lat="45.11321" lon="5.56444">
        <ele>1080.3</ele>
        <time>2022-08-12T08:56:06.000Z</time>
      </trkpt>
      <trkpt lat="45.11321" lon="5.56443">
        <ele>1080.5</ele>
        <time>2022-08-12T08:56:07.000Z</time>
      </trkpt>
      <trkpt lat="45.11323" lon="5.56437">
        <ele>1081.4</ele>
        <time>2022-08-12T08:56:10.000Z</time>
      </trkpt>
      <trkpt lat="45.11323" lon="5.56434">
        <ele>1081.7</ele>
        <time>2022-08-12T08:56:13.000Z</time>
      </trkpt>
      <trkpt lat="45.11323" lon="5.56433">
        <ele>1081.8</ele>
        <time>2022-08-12T08:56:14.000Z</time>
      </trkpt>
      <trkpt lat="45.11323" lon="5.56431">
        <ele>1082</ele>
        <time>2022-08-12T08:56:15.000Z</time>
      </trkpt>
      <trkpt lat="45.11323" lon="5.56429">
        <ele>1082.1</ele>
        <time>2022-08-12T08:56:16.000Z</time>
      </trkpt>
      <trkpt lat="45.11323" lon="5.56428">
        <ele>1082.2</ele>
        <time>2022-08-12T08:56:17.000Z</time>
      </trkpt>
      <trkpt lat="45.11323" lon="5.56423">
        <ele>1082.5</ele>
        <time>2022-08-12T08:56:19.000Z</time>
      </trkpt>
      <trkpt lat="45.11323" lon="5.56422">
        <ele>1082.7</ele>
        <time>2022-08-12T08:56:20.000Z</time>
      </trkpt>
      <trkpt lat="45.11323" lon="5.5642">
        <ele>1082.8</ele>
        <time>2022-08-12T08:56:21.000Z</time>
      </trkpt>
      <trkpt lat="45.11323" lon="5.56419">
        <ele>1083</ele>
        <time>2022-08-12T08:56:22.000Z</time>
      </trkpt>
      <trkpt lat="45.11323" lon="5.56417">
        <ele>1083.1</ele>
        <time>2022-08-12T08:56:23.000Z</time>
      </trkpt>
      <trkpt lat="45.11323" lon="5.56416">
        <ele>1083.2</ele>
        <time>2022-08-12T08:56:24.000Z</time>
      </trkpt>
      <trkpt lat="45.11323" lon="5.56414">
        <ele>1083.4</ele>
        <time>2022-08-12T08:56:26.000Z</time>
      </trkpt>
      <trkpt lat="45.11324" lon="5.56413">
        <ele>1083.7</ele>
        <time>2022-08-12T08:56:27.000Z</time>
      </trkpt>
      <trkpt lat="45.11324" lon="5.56411">
        <ele>1084</ele>
        <time>2022-08-12T08:56:28.000Z</time>
      </trkpt>
      <trkpt lat="45.11325" lon="5.5641">
        <ele>1084.3</ele>
        <time>2022-08-12T08:56:29.000Z</time>
      </trkpt>
      <trkpt lat="45.11325" lon="5.56409">
        <ele>1084.4</ele>
        <time>2022-08-12T08:56:30.000Z</time>
      </trkpt>
      <trkpt lat="45.11325" lon="5.56408">
        <ele>1084.4</ele>
        <time>2022-08-12T08:56:31.000Z</time>
      </trkpt>
      <trkpt lat="45.11325" lon="5.56407">
        <ele>1084.6</ele>
        <time>2022-08-12T08:56:34.000Z</time>
      </trkpt>
      <trkpt lat="45.11326" lon="5.56406">
        <ele>1084.9</ele>
        <time>2022-08-12T08:56:35.000Z</time>
      </trkpt>
      <trkpt lat="45.11327" lon="5.56404">
        <ele>1085.3</ele>
        <time>2022-08-12T08:56:36.000Z</time>
      </trkpt>
      <trkpt lat="45.11328" lon="5.56403">
        <ele>1085.6</ele>
        <time>2022-08-12T08:56:37.000Z</time>
      </trkpt>
      <trkpt lat="45.11329" lon="5.56402">
        <ele>1085.9</ele>
        <time>2022-08-12T08:56:38.000Z</time>
      </trkpt>
      <trkpt lat="45.1133" lon="5.56401">
        <ele>1086</ele>
        <time>2022-08-12T08:56:39.000Z</time>
      </trkpt>
      <trkpt lat="45.11331" lon="5.56399">
        <ele>1086.5</ele>
        <time>2022-08-12T08:56:41.000Z</time>
      </trkpt>
      <trkpt lat="45.11331" lon="5.56396">
        <ele>1086.8</ele>
        <time>2022-08-12T08:56:42.000Z</time>
      </trkpt>
      <trkpt lat="45.11331" lon="5.56394">
        <ele>1087</ele>
        <time>2022-08-12T08:56:43.000Z</time>
      </trkpt>
      <trkpt lat="45.11332" lon="5.56393">
        <ele>1087.3</ele>
        <time>2022-08-12T08:56:44.000Z</time>
      </trkpt>
      <trkpt lat="45.11332" lon="5.56392">
        <ele>1087.4</ele>
        <time>2022-08-12T08:56:45.000Z</time>
      </trkpt>
      <trkpt lat="45.11332" lon="5.56391">
        <ele>1087.5</ele>
        <time>2022-08-12T08:56:46.000Z</time>
      </trkpt>
      <trkpt lat="45.11332" lon="5.5639">
        <ele>1087.5</ele>
        <time>2022-08-12T08:56:47.000Z</time>
      </trkpt>
      <trkpt lat="45.11332" lon="5.56389">
        <ele>1087.7</ele>
        <time>2022-08-12T08:56:48.000Z</time>
      </trkpt>
      <trkpt lat="45.11332" lon="5.56388">
        <ele>1087.9</ele>
        <time>2022-08-12T08:56:49.000Z</time>
      </trkpt>
      <trkpt lat="45.11332" lon="5.56386">
        <ele>1088</ele>
        <time>2022-08-12T08:56:50.000Z</time>
      </trkpt>
      <trkpt lat="45.11332" lon="5.56383">
        <ele>1088.2</ele>
        <time>2022-08-12T08:56:51.000Z</time>
      </trkpt>
      <trkpt lat="45.11332" lon="5.56381">
        <ele>1088.4</ele>
        <time>2022-08-12T08:56:52.000Z</time>
      </trkpt>
      <trkpt lat="45.11333" lon="5.56378">
        <ele>1088.7</ele>
        <time>2022-08-12T08:56:53.000Z</time>
      </trkpt>
      <trkpt lat="45.11333" lon="5.56376">
        <ele>1088.9</ele>
        <time>2022-08-12T08:56:54.000Z</time>
      </trkpt>
      <trkpt lat="45.11333" lon="5.56373">
        <ele>1089.1</ele>
        <time>2022-08-12T08:56:55.000Z</time>
      </trkpt>
      <trkpt lat="45.11334" lon="5.56371">
        <ele>1089.3</ele>
        <time>2022-08-12T08:56:56.000Z</time>
      </trkpt>
      <trkpt lat="45.11333" lon="5.56369">
        <ele>1089.4</ele>
        <time>2022-08-12T08:56:57.000Z</time>
      </trkpt>
      <trkpt lat="45.11333" lon="5.56366">
        <ele>1089.6</ele>
        <time>2022-08-12T08:56:58.000Z</time>
      </trkpt>
      <trkpt lat="45.11333" lon="5.56364">
        <ele>1089.8</ele>
        <time>2022-08-12T08:56:59.000Z</time>
      </trkpt>
      <trkpt lat="45.11334" lon="5.56362">
        <ele>1090</ele>
        <time>2022-08-12T08:57:00.000Z</time>
      </trkpt>
      <trkpt lat="45.11334" lon="5.56359">
        <ele>1090.4</ele>
        <time>2022-08-12T08:57:01.000Z</time>
      </trkpt>
      <trkpt lat="45.11336" lon="5.56356">
        <ele>1090.9</ele>
        <time>2022-08-12T08:57:02.000Z</time>
      </trkpt>
      <trkpt lat="45.11337" lon="5.56355">
        <ele>1091.3</ele>
        <time>2022-08-12T08:57:03.000Z</time>
      </trkpt>
      <trkpt lat="45.11338" lon="5.56353">
        <ele>1091.5</ele>
        <time>2022-08-12T08:57:04.000Z</time>
      </trkpt>
      <trkpt lat="45.11338" lon="5.56352">
        <ele>1091.7</ele>
        <time>2022-08-12T08:57:05.000Z</time>
      </trkpt>
      <trkpt lat="45.11339" lon="5.56351">
        <ele>1091.9</ele>
        <time>2022-08-12T08:57:06.000Z</time>
      </trkpt>
      <trkpt lat="45.11339" lon="5.5635">
        <ele>1091.9</ele>
        <time>2022-08-12T08:57:07.000Z</time>
      </trkpt>
      <trkpt lat="45.11338" lon="5.5635">
        <ele>1092</ele>
        <time>2022-08-12T08:57:08.000Z</time>
      </trkpt>
      <trkpt lat="45.11337" lon="5.56349">
        <ele>1091.9</ele>
        <time>2022-08-12T08:57:09.000Z</time>
      </trkpt>
      <trkpt lat="45.11337" lon="5.56348">
        <ele>1091.9</ele>
        <time>2022-08-12T08:57:10.000Z</time>
      </trkpt>
      <trkpt lat="45.11336" lon="5.56346">
        <ele>1092</ele>
        <time>2022-08-12T08:57:11.000Z</time>
      </trkpt>
      <trkpt lat="45.11336" lon="5.56345">
        <ele>1092.2</ele>
        <time>2022-08-12T08:57:12.000Z</time>
      </trkpt>
      <trkpt lat="45.11336" lon="5.56343">
        <ele>1092.4</ele>
        <time>2022-08-12T08:57:13.000Z</time>
      </trkpt>
      <trkpt lat="45.11336" lon="5.56341">
        <ele>1092.6</ele>
        <time>2022-08-12T08:57:14.000Z</time>
      </trkpt>
      <trkpt lat="45.11337" lon="5.56339">
        <ele>1092.9</ele>
        <time>2022-08-12T08:57:15.000Z</time>
      </trkpt>
      <trkpt lat="45.11337" lon="5.56337">
        <ele>1093.1</ele>
        <time>2022-08-12T08:57:16.000Z</time>
      </trkpt>
      <trkpt lat="45.11338" lon="5.56336">
        <ele>1093.3</ele>
        <time>2022-08-12T08:57:17.000Z</time>
      </trkpt>
      <trkpt lat="45.11338" lon="5.56335">
        <ele>1093.6</ele>
        <time>2022-08-12T08:57:18.000Z</time>
      </trkpt>
      <trkpt lat="45.11338" lon="5.56333">
        <ele>1093.7</ele>
        <time>2022-08-12T08:57:19.000Z</time>
      </trkpt>
      <trkpt lat="45.11337" lon="5.56332">
        <ele>1093.7</ele>
        <time>2022-08-12T08:57:20.000Z</time>
      </trkpt>
      <trkpt lat="45.11337" lon="5.5633">
        <ele>1093.8</ele>
        <time>2022-08-12T08:57:21.000Z</time>
      </trkpt>
      <trkpt lat="45.11337" lon="5.56329">
        <ele>1094</ele>
        <time>2022-08-12T08:57:22.000Z</time>
      </trkpt>
      <trkpt lat="45.11336" lon="5.56328">
        <ele>1094</ele>
        <time>2022-08-12T08:57:23.000Z</time>
      </trkpt>
      <trkpt lat="45.11336" lon="5.56327">
        <ele>1094</ele>
        <time>2022-08-12T08:57:24.000Z</time>
      </trkpt>
      <trkpt lat="45.11336" lon="5.56326">
        <ele>1094.2</ele>
        <time>2022-08-12T08:57:25.000Z</time>
      </trkpt>
      <trkpt lat="45.11336" lon="5.56325">
        <ele>1094.3</ele>
        <time>2022-08-12T08:57:26.000Z</time>
      </trkpt>
      <trkpt lat="45.11336" lon="5.56324">
        <ele>1094.4</ele>
        <time>2022-08-12T08:57:29.000Z</time>
      </trkpt>
      <trkpt lat="45.11336" lon="5.56318">
        <ele>1095</ele>
        <time>2022-08-12T08:57:34.000Z</time>
      </trkpt>
      <trkpt lat="45.11336" lon="5.56317">
        <ele>1095.2</ele>
        <time>2022-08-12T08:57:35.000Z</time>
      </trkpt>
      <trkpt lat="45.11336" lon="5.56316">
        <ele>1095.3</ele>
        <time>2022-08-12T08:57:36.000Z</time>
      </trkpt>
      <trkpt lat="45.11335" lon="5.56314">
        <ele>1095.4</ele>
        <time>2022-08-12T08:57:38.000Z</time>
      </trkpt>
      <trkpt lat="45.11334" lon="5.56312">
        <ele>1095.4</ele>
        <time>2022-08-12T08:57:39.000Z</time>
      </trkpt>
      <trkpt lat="45.11335" lon="5.5631">
        <ele>1095.7</ele>
        <time>2022-08-12T08:57:40.000Z</time>
      </trkpt>
      <trkpt lat="45.11335" lon="5.56309">
        <ele>1095.8</ele>
        <time>2022-08-12T08:57:41.000Z</time>
      </trkpt>
      <trkpt lat="45.11334" lon="5.56306">
        <ele>1096</ele>
        <time>2022-08-12T08:57:42.000Z</time>
      </trkpt>
      <trkpt lat="45.11334" lon="5.56304">
        <ele>1096.2</ele>
        <time>2022-08-12T08:57:43.000Z</time>
      </trkpt>
      <trkpt lat="45.11333" lon="5.56303">
        <ele>1096.3</ele>
        <time>2022-08-12T08:57:44.000Z</time>
      </trkpt>
      <trkpt lat="45.11333" lon="5.56302">
        <ele>1096.3</ele>
        <time>2022-08-12T08:57:45.000Z</time>
      </trkpt>
      <trkpt lat="45.11332" lon="5.56301">
        <ele>1096.3</ele>
        <time>2022-08-12T08:57:46.000Z</time>
      </trkpt>
      <trkpt lat="45.11331" lon="5.563">
        <ele>1096.3</ele>
        <time>2022-08-12T08:57:47.000Z</time>
      </trkpt>
      <trkpt lat="45.11331" lon="5.56298">
        <ele>1096.4</ele>
        <time>2022-08-12T08:57:48.000Z</time>
      </trkpt>
      <trkpt lat="45.11331" lon="5.56297">
        <ele>1096.6</ele>
        <time>2022-08-12T08:57:49.000Z</time>
      </trkpt>
      <trkpt lat="45.11332" lon="5.56294">
        <ele>1096.9</ele>
        <time>2022-08-12T08:57:50.000Z</time>
      </trkpt>
      <trkpt lat="45.11331" lon="5.56292">
        <ele>1097.1</ele>
        <time>2022-08-12T08:57:51.000Z</time>
      </trkpt>
      <trkpt lat="45.1133" lon="5.56291">
        <ele>1097.1</ele>
        <time>2022-08-12T08:57:52.000Z</time>
      </trkpt>
      <trkpt lat="45.11329" lon="5.5629">
        <ele>1097</ele>
        <time>2022-08-12T08:57:53.000Z</time>
      </trkpt>
      <trkpt lat="45.11327" lon="5.56287">
        <ele>1097</ele>
        <time>2022-08-12T08:57:55.000Z</time>
      </trkpt>
      <trkpt lat="45.11326" lon="5.56286">
        <ele>1097</ele>
        <time>2022-08-12T08:57:56.000Z</time>
      </trkpt>
      <trkpt lat="45.11325" lon="5.56284">
        <ele>1097.1</ele>
        <time>2022-08-12T08:57:57.000Z</time>
      </trkpt>
      <trkpt lat="45.11325" lon="5.56282">
        <ele>1097.3</ele>
        <time>2022-08-12T08:57:58.000Z</time>
      </trkpt>
      <trkpt lat="45.11325" lon="5.56281">
        <ele>1097.4</ele>
        <time>2022-08-12T08:58:00.000Z</time>
      </trkpt>
      <trkpt lat="45.11325" lon="5.56279">
        <ele>1097.7</ele>
        <time>2022-08-12T08:58:01.000Z</time>
      </trkpt>
      <trkpt lat="45.11325" lon="5.56277">
        <ele>1097.9</ele>
        <time>2022-08-12T08:58:02.000Z</time>
      </trkpt>
      <trkpt lat="45.11324" lon="5.56275">
        <ele>1098.1</ele>
        <time>2022-08-12T08:58:03.000Z</time>
      </trkpt>
      <trkpt lat="45.11324" lon="5.56273">
        <ele>1098.3</ele>
        <time>2022-08-12T08:58:04.000Z</time>
      </trkpt>
      <trkpt lat="45.11324" lon="5.56272">
        <ele>1098.4</ele>
        <time>2022-08-12T08:58:05.000Z</time>
      </trkpt>
      <trkpt lat="45.11324" lon="5.56271">
        <ele>1098.5</ele>
        <time>2022-08-12T08:58:06.000Z</time>
      </trkpt>
      <trkpt lat="45.11324" lon="5.5627">
        <ele>1098.7</ele>
        <time>2022-08-12T08:58:07.000Z</time>
      </trkpt>
      <trkpt lat="45.11324" lon="5.56269">
        <ele>1098.8</ele>
        <time>2022-08-12T08:58:08.000Z</time>
      </trkpt>
      <trkpt lat="45.11323" lon="5.56266">
        <ele>1099.2</ele>
        <time>2022-08-12T08:58:09.000Z</time>
      </trkpt>
      <trkpt lat="45.11322" lon="5.56265">
        <ele>1099.3</ele>
        <time>2022-08-12T08:58:10.000Z</time>
      </trkpt>
      <trkpt lat="45.11322" lon="5.56262">
        <ele>1099.6</ele>
        <time>2022-08-12T08:58:11.000Z</time>
      </trkpt>
      <trkpt lat="45.11321" lon="5.56257">
        <ele>1100.1</ele>
        <time>2022-08-12T08:58:13.000Z</time>
      </trkpt>
      <trkpt lat="45.1132" lon="5.56255">
        <ele>1100.3</ele>
        <time>2022-08-12T08:58:14.000Z</time>
      </trkpt>
      <trkpt lat="45.11319" lon="5.56253">
        <ele>1100.5</ele>
        <time>2022-08-12T08:58:15.000Z</time>
      </trkpt>
      <trkpt lat="45.11319" lon="5.56252">
        <ele>1100.7</ele>
        <time>2022-08-12T08:58:16.000Z</time>
      </trkpt>
      <trkpt lat="45.11318" lon="5.56251">
        <ele>1100.7</ele>
        <time>2022-08-12T08:58:17.000Z</time>
      </trkpt>
      <trkpt lat="45.11318" lon="5.56249">
        <ele>1100.9</ele>
        <time>2022-08-12T08:58:18.000Z</time>
      </trkpt>
      <trkpt lat="45.11318" lon="5.56247">
        <ele>1101.1</ele>
        <time>2022-08-12T08:58:19.000Z</time>
      </trkpt>
      <trkpt lat="45.11318" lon="5.56244">
        <ele>1101.6</ele>
        <time>2022-08-12T08:58:20.000Z</time>
      </trkpt>
      <trkpt lat="45.11318" lon="5.56241">
        <ele>1101.9</ele>
        <time>2022-08-12T08:58:21.000Z</time>
      </trkpt>
      <trkpt lat="45.11317" lon="5.56238">
        <ele>1102.2</ele>
        <time>2022-08-12T08:58:22.000Z</time>
      </trkpt>
      <trkpt lat="45.11316" lon="5.56236">
        <ele>1102.2</ele>
        <time>2022-08-12T08:58:23.000Z</time>
      </trkpt>
      <trkpt lat="45.11314" lon="5.56227">
        <ele>1102.9</ele>
        <time>2022-08-12T08:58:27.000Z</time>
      </trkpt>
      <trkpt lat="45.11314" lon="5.56223">
        <ele>1103.4</ele>
        <time>2022-08-12T08:58:29.000Z</time>
      </trkpt>
      <trkpt lat="45.11314" lon="5.56221">
        <ele>1103.8</ele>
        <time>2022-08-12T08:58:30.000Z</time>
      </trkpt>
      <trkpt lat="45.11315" lon="5.56219">
        <ele>1104.1</ele>
        <time>2022-08-12T08:58:31.000Z</time>
      </trkpt>
      <trkpt lat="45.11316" lon="5.56218">
        <ele>1104.4</ele>
        <time>2022-08-12T08:58:32.000Z</time>
      </trkpt>
      <trkpt lat="45.11315" lon="5.56217">
        <ele>1104.3</ele>
        <time>2022-08-12T08:58:33.000Z</time>
      </trkpt>
      <trkpt lat="45.11313" lon="5.56216">
        <ele>1104.2</ele>
        <time>2022-08-12T08:58:34.000Z</time>
      </trkpt>
      <trkpt lat="45.11315" lon="5.56213">
        <ele>1104.9</ele>
        <time>2022-08-12T08:58:36.000Z</time>
      </trkpt>
      <trkpt lat="45.11315" lon="5.56212">
        <ele>1105.2</ele>
        <time>2022-08-12T08:58:37.000Z</time>
      </trkpt>
      <trkpt lat="45.11315" lon="5.56211">
        <ele>1105.3</ele>
        <time>2022-08-12T08:58:38.000Z</time>
      </trkpt>
      <trkpt lat="45.11315" lon="5.5621">
        <ele>1105.3</ele>
        <time>2022-08-12T08:58:39.000Z</time>
      </trkpt>
      <trkpt lat="45.11315" lon="5.56209">
        <ele>1105.5</ele>
        <time>2022-08-12T08:58:41.000Z</time>
      </trkpt>
      <trkpt lat="45.11315" lon="5.56207">
        <ele>1105.7</ele>
        <time>2022-08-12T08:58:42.000Z</time>
      </trkpt>
      <trkpt lat="45.11314" lon="5.56205">
        <ele>1105.9</ele>
        <time>2022-08-12T08:58:43.000Z</time>
      </trkpt>
      <trkpt lat="45.11313" lon="5.56203">
        <ele>1106</ele>
        <time>2022-08-12T08:58:44.000Z</time>
      </trkpt>
      <trkpt lat="45.11313" lon="5.56201">
        <ele>1106.1</ele>
        <time>2022-08-12T08:58:45.000Z</time>
      </trkpt>
      <trkpt lat="45.11312" lon="5.56199">
        <ele>1106.4</ele>
        <time>2022-08-12T08:58:46.000Z</time>
      </trkpt>
      <trkpt lat="45.11312" lon="5.56197">
        <ele>1106.6</ele>
        <time>2022-08-12T08:58:47.000Z</time>
      </trkpt>
      <trkpt lat="45.11312" lon="5.56194">
        <ele>1106.9</ele>
        <time>2022-08-12T08:58:48.000Z</time>
      </trkpt>
      <trkpt lat="45.11312" lon="5.56193">
        <ele>1107.1</ele>
        <time>2022-08-12T08:58:49.000Z</time>
      </trkpt>
      <trkpt lat="45.11311" lon="5.56191">
        <ele>1107.1</ele>
        <time>2022-08-12T08:58:50.000Z</time>
      </trkpt>
      <trkpt lat="45.11311" lon="5.56189">
        <ele>1107.2</ele>
        <time>2022-08-12T08:58:51.000Z</time>
      </trkpt>
      <trkpt lat="45.11311" lon="5.56188">
        <ele>1107.3</ele>
        <time>2022-08-12T08:58:52.000Z</time>
      </trkpt>
      <trkpt lat="45.11311" lon="5.56186">
        <ele>1107.4</ele>
        <time>2022-08-12T08:58:53.000Z</time>
      </trkpt>
      <trkpt lat="45.11311" lon="5.56183">
        <ele>1107.5</ele>
        <time>2022-08-12T08:58:54.000Z</time>
      </trkpt>
      <trkpt lat="45.11311" lon="5.56181">
        <ele>1107.7</ele>
        <time>2022-08-12T08:58:55.000Z</time>
      </trkpt>
      <trkpt lat="45.11311" lon="5.5618">
        <ele>1107.8</ele>
        <time>2022-08-12T08:58:56.000Z</time>
      </trkpt>
      <trkpt lat="45.11311" lon="5.56177">
        <ele>1107.9</ele>
        <time>2022-08-12T08:58:57.000Z</time>
      </trkpt>
      <trkpt lat="45.11311" lon="5.56175">
        <ele>1108.1</ele>
        <time>2022-08-12T08:58:58.000Z</time>
      </trkpt>
      <trkpt lat="45.11312" lon="5.56173">
        <ele>1108.4</ele>
        <time>2022-08-12T08:58:59.000Z</time>
      </trkpt>
      <trkpt lat="45.11312" lon="5.5617">
        <ele>1108.6</ele>
        <time>2022-08-12T08:59:00.000Z</time>
      </trkpt>
      <trkpt lat="45.11312" lon="5.56169">
        <ele>1108.8</ele>
        <time>2022-08-12T08:59:01.000Z</time>
      </trkpt>
      <trkpt lat="45.11311" lon="5.56167">
        <ele>1108.7</ele>
        <time>2022-08-12T08:59:02.000Z</time>
      </trkpt>
      <trkpt lat="45.11311" lon="5.56165">
        <ele>1108.9</ele>
        <time>2022-08-12T08:59:03.000Z</time>
      </trkpt>
      <trkpt lat="45.11312" lon="5.56162">
        <ele>1109.2</ele>
        <time>2022-08-12T08:59:04.000Z</time>
      </trkpt>
      <trkpt lat="45.11312" lon="5.5616">
        <ele>1109.3</ele>
        <time>2022-08-12T08:59:05.000Z</time>
      </trkpt>
      <trkpt lat="45.11311" lon="5.56158">
        <ele>1109.4</ele>
        <time>2022-08-12T08:59:06.000Z</time>
      </trkpt>
      <trkpt lat="45.11312" lon="5.56155">
        <ele>1109.6</ele>
        <time>2022-08-12T08:59:07.000Z</time>
      </trkpt>
      <trkpt lat="45.11314" lon="5.56155">
        <ele>1109.9</ele>
        <time>2022-08-12T08:59:08.000Z</time>
      </trkpt>
      <trkpt lat="45.11314" lon="5.56153">
        <ele>1110</ele>
        <time>2022-08-12T08:59:09.000Z</time>
      </trkpt>
      <trkpt lat="45.11314" lon="5.56151">
        <ele>1110.1</ele>
        <time>2022-08-12T08:59:10.000Z</time>
      </trkpt>
      <trkpt lat="45.11314" lon="5.56149">
        <ele>1110.3</ele>
        <time>2022-08-12T08:59:11.000Z</time>
      </trkpt>
      <trkpt lat="45.11315" lon="5.56147">
        <ele>1110.6</ele>
        <time>2022-08-12T08:59:12.000Z</time>
      </trkpt>
      <trkpt lat="45.11313" lon="5.56143">
        <ele>1110.5</ele>
        <time>2022-08-12T08:59:13.000Z</time>
      </trkpt>
      <trkpt lat="45.11311" lon="5.56142">
        <ele>1110.4</ele>
        <time>2022-08-12T08:59:14.000Z</time>
      </trkpt>
      <trkpt lat="45.1131" lon="5.56141">
        <ele>1110.4</ele>
        <time>2022-08-12T08:59:15.000Z</time>
      </trkpt>
      <trkpt lat="45.1131" lon="5.56139">
        <ele>1110.5</ele>
        <time>2022-08-12T08:59:16.000Z</time>
      </trkpt>
      <trkpt lat="45.1131" lon="5.56136">
        <ele>1110.6</ele>
        <time>2022-08-12T08:59:17.000Z</time>
      </trkpt>
      <trkpt lat="45.1131" lon="5.56133">
        <ele>1110.6</ele>
        <time>2022-08-12T08:59:18.000Z</time>
      </trkpt>
      <trkpt lat="45.1131" lon="5.56131">
        <ele>1110.8</ele>
        <time>2022-08-12T08:59:19.000Z</time>
      </trkpt>
      <trkpt lat="45.11311" lon="5.56129">
        <ele>1110.9</ele>
        <time>2022-08-12T08:59:20.000Z</time>
      </trkpt>
      <trkpt lat="45.11311" lon="5.56127">
        <ele>1111</ele>
        <time>2022-08-12T08:59:21.000Z</time>
      </trkpt>
      <trkpt lat="45.11311" lon="5.56126">
        <ele>1111</ele>
        <time>2022-08-12T08:59:22.000Z</time>
      </trkpt>
      <trkpt lat="45.1131" lon="5.56124">
        <ele>1111</ele>
        <time>2022-08-12T08:59:23.000Z</time>
      </trkpt>
      <trkpt lat="45.1131" lon="5.56123">
        <ele>1111.1</ele>
        <time>2022-08-12T08:59:24.000Z</time>
      </trkpt>
      <trkpt lat="45.11311" lon="5.56121">
        <ele>1111.2</ele>
        <time>2022-08-12T08:59:25.000Z</time>
      </trkpt>
      <trkpt lat="45.11311" lon="5.56119">
        <ele>1111.3</ele>
        <time>2022-08-12T08:59:26.000Z</time>
      </trkpt>
      <trkpt lat="45.1131" lon="5.56116">
        <ele>1111.3</ele>
        <time>2022-08-12T08:59:27.000Z</time>
      </trkpt>
      <trkpt lat="45.1131" lon="5.56114">
        <ele>1111.4</ele>
        <time>2022-08-12T08:59:28.000Z</time>
      </trkpt>
      <trkpt lat="45.1131" lon="5.56112">
        <ele>1111.5</ele>
        <time>2022-08-12T08:59:29.000Z</time>
      </trkpt>
      <trkpt lat="45.1131" lon="5.5611">
        <ele>1111.5</ele>
        <time>2022-08-12T08:59:30.000Z</time>
      </trkpt>
      <trkpt lat="45.1131" lon="5.56108">
        <ele>1111.6</ele>
        <time>2022-08-12T08:59:31.000Z</time>
      </trkpt>
      <trkpt lat="45.11311" lon="5.56107">
        <ele>1111.7</ele>
        <time>2022-08-12T08:59:32.000Z</time>
      </trkpt>
      <trkpt lat="45.1131" lon="5.56105">
        <ele>1111.6</ele>
        <time>2022-08-12T08:59:33.000Z</time>
      </trkpt>
      <trkpt lat="45.1131" lon="5.56103">
        <ele>1111.7</ele>
        <time>2022-08-12T08:59:34.000Z</time>
      </trkpt>
      <trkpt lat="45.11311" lon="5.56101">
        <ele>1111.8</ele>
        <time>2022-08-12T08:59:35.000Z</time>
      </trkpt>
      <trkpt lat="45.11311" lon="5.56099">
        <ele>1111.8</ele>
        <time>2022-08-12T08:59:36.000Z</time>
      </trkpt>
      <trkpt lat="45.11311" lon="5.56094">
        <ele>1112</ele>
        <time>2022-08-12T08:59:38.000Z</time>
      </trkpt>
      <trkpt lat="45.11311" lon="5.56091">
        <ele>1112</ele>
        <time>2022-08-12T08:59:39.000Z</time>
      </trkpt>
      <trkpt lat="45.11312" lon="5.5609">
        <ele>1112.1</ele>
        <time>2022-08-12T08:59:40.000Z</time>
      </trkpt>
      <trkpt lat="45.11313" lon="5.56088">
        <ele>1112.2</ele>
        <time>2022-08-12T08:59:41.000Z</time>
      </trkpt>
      <trkpt lat="45.11313" lon="5.56087">
        <ele>1112.2</ele>
        <time>2022-08-12T08:59:42.000Z</time>
      </trkpt>
      <trkpt lat="45.11317" lon="5.56075">
        <ele>1112.1</ele>
        <time>2022-08-12T08:59:47.000Z</time>
      </trkpt>
      <trkpt lat="45.11317" lon="5.56073">
        <ele>1112</ele>
        <time>2022-08-12T08:59:48.000Z</time>
      </trkpt>
      <trkpt lat="45.1132" lon="5.56069">
        <ele>1112</ele>
        <time>2022-08-12T08:59:50.000Z</time>
      </trkpt>
      <trkpt lat="45.1132" lon="5.56067">
        <ele>1111.9</ele>
        <time>2022-08-12T08:59:51.000Z</time>
      </trkpt>
      <trkpt lat="45.11321" lon="5.56065">
        <ele>1111.9</ele>
        <time>2022-08-12T08:59:52.000Z</time>
      </trkpt>
      <trkpt lat="45.11322" lon="5.56062">
        <ele>1111.8</ele>
        <time>2022-08-12T08:59:53.000Z</time>
      </trkpt>
      <trkpt lat="45.11323" lon="5.5606">
        <ele>1111.8</ele>
        <time>2022-08-12T08:59:54.000Z</time>
      </trkpt>
      <trkpt lat="45.11324" lon="5.56058">
        <ele>1111.7</ele>
        <time>2022-08-12T08:59:55.000Z</time>
      </trkpt>
      <trkpt lat="45.11329" lon="5.56051">
        <ele>1111.4</ele>
        <time>2022-08-12T08:59:58.000Z</time>
      </trkpt>
      <trkpt lat="45.1133" lon="5.56049">
        <ele>1111.2</ele>
        <time>2022-08-12T08:59:59.000Z</time>
      </trkpt>
      <trkpt lat="45.11331" lon="5.56043">
        <ele>1110.6</ele>
        <time>2022-08-12T09:00:01.000Z</time>
      </trkpt>
      <trkpt lat="45.11331" lon="5.56042">
        <ele>1110.5</ele>
        <time>2022-08-12T09:00:02.000Z</time>
      </trkpt>
      <trkpt lat="45.11331" lon="5.56039">
        <ele>1110.2</ele>
        <time>2022-08-12T09:00:03.000Z</time>
      </trkpt>
      <trkpt lat="45.11333" lon="5.5603">
        <ele>1109.3</ele>
        <time>2022-08-12T09:00:07.000Z</time>
      </trkpt>
      <trkpt lat="45.11335" lon="5.56029">
        <ele>1109.2</ele>
        <time>2022-08-12T09:00:08.000Z</time>
      </trkpt>
      <trkpt lat="45.11336" lon="5.56028">
        <ele>1109.1</ele>
        <time>2022-08-12T09:00:09.000Z</time>
      </trkpt>
      <trkpt lat="45.11337" lon="5.56027">
        <ele>1109.1</ele>
        <time>2022-08-12T09:00:10.000Z</time>
      </trkpt>
      <trkpt lat="45.11339" lon="5.56026">
        <ele>1109</ele>
        <time>2022-08-12T09:00:11.000Z</time>
      </trkpt>
      <trkpt lat="45.1134" lon="5.56026">
        <ele>1109</ele>
        <time>2022-08-12T09:00:12.000Z</time>
      </trkpt>
      <trkpt lat="45.11341" lon="5.56025">
        <ele>1108.9</ele>
        <time>2022-08-12T09:00:13.000Z</time>
      </trkpt>
      <trkpt lat="45.11342" lon="5.56024">
        <ele>1108.9</ele>
        <time>2022-08-12T09:00:14.000Z</time>
      </trkpt>
      <trkpt lat="45.11343" lon="5.56024">
        <ele>1108.9</ele>
        <time>2022-08-12T09:00:15.000Z</time>
      </trkpt>
      <trkpt lat="45.11344" lon="5.56024">
        <ele>1109</ele>
        <time>2022-08-12T09:00:16.000Z</time>
      </trkpt>
      <trkpt lat="45.11346" lon="5.56025">
        <ele>1109.2</ele>
        <time>2022-08-12T09:00:17.000Z</time>
      </trkpt>
      <trkpt lat="45.11348" lon="5.56027">
        <ele>1109.4</ele>
        <time>2022-08-12T09:00:18.000Z</time>
      </trkpt>
      <trkpt lat="45.11349" lon="5.56027">
        <ele>1109.5</ele>
        <time>2022-08-12T09:00:19.000Z</time>
      </trkpt>
      <trkpt lat="45.1135" lon="5.56028">
        <ele>1109.7</ele>
        <time>2022-08-12T09:00:20.000Z</time>
      </trkpt>
      <trkpt lat="45.11352" lon="5.56029">
        <ele>1109.8</ele>
        <time>2022-08-12T09:00:21.000Z</time>
      </trkpt>
      <trkpt lat="45.11353" lon="5.56029">
        <ele>1109.9</ele>
        <time>2022-08-12T09:00:23.000Z</time>
      </trkpt>
      <trkpt lat="45.11354" lon="5.5603">
        <ele>1109.9</ele>
        <time>2022-08-12T09:00:24.000Z</time>
      </trkpt>
      <trkpt lat="45.11355" lon="5.5603">
        <ele>1110</ele>
        <time>2022-08-12T09:00:25.000Z</time>
      </trkpt>
      <trkpt lat="45.11356" lon="5.5603">
        <ele>1110.1</ele>
        <time>2022-08-12T09:00:26.000Z</time>
      </trkpt>
      <trkpt lat="45.11357" lon="5.56031">
        <ele>1110.2</ele>
        <time>2022-08-12T09:00:27.000Z</time>
      </trkpt>
      <trkpt lat="45.11357" lon="5.56032">
        <ele>1110.3</ele>
        <time>2022-08-12T09:00:28.000Z</time>
      </trkpt>
      <trkpt lat="45.11358" lon="5.56032">
        <ele>1110.3</ele>
        <time>2022-08-12T09:00:29.000Z</time>
      </trkpt>
      <trkpt lat="45.11359" lon="5.56031">
        <ele>1110.3</ele>
        <time>2022-08-12T09:00:31.000Z</time>
      </trkpt>
      <trkpt lat="45.1136" lon="5.56031">
        <ele>1110.3</ele>
        <time>2022-08-12T09:00:32.000Z</time>
      </trkpt>
      <trkpt lat="45.11361" lon="5.56031">
        <ele>1110.3</ele>
        <time>2022-08-12T09:00:33.000Z</time>
      </trkpt>
      <trkpt lat="45.11362" lon="5.56031">
        <ele>1110.4</ele>
        <time>2022-08-12T09:00:34.000Z</time>
      </trkpt>
      <trkpt lat="45.11363" lon="5.56032">
        <ele>1110.6</ele>
        <time>2022-08-12T09:00:35.000Z</time>
      </trkpt>
      <trkpt lat="45.11364" lon="5.56033">
        <ele>1110.8</ele>
        <time>2022-08-12T09:00:36.000Z</time>
      </trkpt>
      <trkpt lat="45.11366" lon="5.56034">
        <ele>1111</ele>
        <time>2022-08-12T09:00:37.000Z</time>
      </trkpt>
      <trkpt lat="45.11367" lon="5.56034">
        <ele>1111</ele>
        <time>2022-08-12T09:00:38.000Z</time>
      </trkpt>
      <trkpt lat="45.11367" lon="5.56036">
        <ele>1111.3</ele>
        <time>2022-08-12T09:00:42.000Z</time>
      </trkpt>
      <trkpt lat="45.11368" lon="5.56037">
        <ele>1111.5</ele>
        <time>2022-08-12T09:00:45.000Z</time>
      </trkpt>
      <trkpt lat="45.11368" lon="5.56038">
        <ele>1111.6</ele>
        <time>2022-08-12T09:00:46.000Z</time>
      </trkpt>
      <trkpt lat="45.11369" lon="5.56038">
        <ele>1111.7</ele>
        <time>2022-08-12T09:00:47.000Z</time>
      </trkpt>
      <trkpt lat="45.11373" lon="5.56039">
        <ele>1112</ele>
        <time>2022-08-12T09:00:50.000Z</time>
      </trkpt>
      <trkpt lat="45.11374" lon="5.56038">
        <ele>1112.1</ele>
        <time>2022-08-12T09:00:51.000Z</time>
      </trkpt>
      <trkpt lat="45.11376" lon="5.56039">
        <ele>1112.3</ele>
        <time>2022-08-12T09:00:52.000Z</time>
      </trkpt>
      <trkpt lat="45.11378" lon="5.56039">
        <ele>1112.4</ele>
        <time>2022-08-12T09:00:53.000Z</time>
      </trkpt>
      <trkpt lat="45.11379" lon="5.56039">
        <ele>1112.5</ele>
        <time>2022-08-12T09:00:54.000Z</time>
      </trkpt>
      <trkpt lat="45.11381" lon="5.56039">
        <ele>1112.7</ele>
        <time>2022-08-12T09:00:55.000Z</time>
      </trkpt>
      <trkpt lat="45.11382" lon="5.5604">
        <ele>1112.8</ele>
        <time>2022-08-12T09:00:56.000Z</time>
      </trkpt>
      <trkpt lat="45.11384" lon="5.5604">
        <ele>1113</ele>
        <time>2022-08-12T09:00:57.000Z</time>
      </trkpt>
      <trkpt lat="45.11386" lon="5.5604">
        <ele>1113.2</ele>
        <time>2022-08-12T09:00:58.000Z</time>
      </trkpt>
      <trkpt lat="45.11387" lon="5.5604">
        <ele>1113.2</ele>
        <time>2022-08-12T09:00:59.000Z</time>
      </trkpt>
      <trkpt lat="45.11392" lon="5.56041">
        <ele>1113.7</ele>
        <time>2022-08-12T09:01:02.000Z</time>
      </trkpt>
      <trkpt lat="45.11394" lon="5.56043">
        <ele>1114</ele>
        <time>2022-08-12T09:01:03.000Z</time>
      </trkpt>
      <trkpt lat="45.11395" lon="5.56044">
        <ele>1114.2</ele>
        <time>2022-08-12T09:01:04.000Z</time>
      </trkpt>
      <trkpt lat="45.11396" lon="5.56045">
        <ele>1114.3</ele>
        <time>2022-08-12T09:01:05.000Z</time>
      </trkpt>
      <trkpt lat="45.11398" lon="5.56045">
        <ele>1114.5</ele>
        <time>2022-08-12T09:01:06.000Z</time>
      </trkpt>
      <trkpt lat="45.114" lon="5.56045">
        <ele>1114.7</ele>
        <time>2022-08-12T09:01:07.000Z</time>
      </trkpt>
      <trkpt lat="45.11402" lon="5.56045">
        <ele>1114.8</ele>
        <time>2022-08-12T09:01:08.000Z</time>
      </trkpt>
      <trkpt lat="45.11403" lon="5.56045">
        <ele>1114.9</ele>
        <time>2022-08-12T09:01:11.000Z</time>
      </trkpt>
      <trkpt lat="45.11404" lon="5.56046">
        <ele>1115.1</ele>
        <time>2022-08-12T09:01:12.000Z</time>
      </trkpt>
      <trkpt lat="45.11405" lon="5.56047">
        <ele>1115.2</ele>
        <time>2022-08-12T09:01:13.000Z</time>
      </trkpt>
      <trkpt lat="45.11406" lon="5.56046">
        <ele>1115.3</ele>
        <time>2022-08-12T09:01:15.000Z</time>
      </trkpt>
      <trkpt lat="45.11408" lon="5.56047">
        <ele>1115.5</ele>
        <time>2022-08-12T09:01:16.000Z</time>
      </trkpt>
      <trkpt lat="45.11409" lon="5.56048">
        <ele>1115.6</ele>
        <time>2022-08-12T09:01:17.000Z</time>
      </trkpt>
      <trkpt lat="45.1141" lon="5.56049">
        <ele>1115.8</ele>
        <time>2022-08-12T09:01:18.000Z</time>
      </trkpt>
      <trkpt lat="45.11412" lon="5.5605">
        <ele>1116.1</ele>
        <time>2022-08-12T09:01:19.000Z</time>
      </trkpt>
      <trkpt lat="45.11413" lon="5.56052">
        <ele>1116.3</ele>
        <time>2022-08-12T09:01:20.000Z</time>
      </trkpt>
      <trkpt lat="45.11414" lon="5.56053">
        <ele>1116.5</ele>
        <time>2022-08-12T09:01:21.000Z</time>
      </trkpt>
      <trkpt lat="45.11415" lon="5.56054">
        <ele>1116.7</ele>
        <time>2022-08-12T09:01:22.000Z</time>
      </trkpt>
      <trkpt lat="45.11417" lon="5.56055">
        <ele>1116.9</ele>
        <time>2022-08-12T09:01:23.000Z</time>
      </trkpt>
      <trkpt lat="45.11418" lon="5.56055">
        <ele>1117</ele>
        <time>2022-08-12T09:01:24.000Z</time>
      </trkpt>
      <trkpt lat="45.11419" lon="5.56056">
        <ele>1117.1</ele>
        <time>2022-08-12T09:01:25.000Z</time>
      </trkpt>
      <trkpt lat="45.11421" lon="5.56056">
        <ele>1117.2</ele>
        <time>2022-08-12T09:01:26.000Z</time>
      </trkpt>
      <trkpt lat="45.11422" lon="5.56057">
        <ele>1117.3</ele>
        <time>2022-08-12T09:01:27.000Z</time>
      </trkpt>
      <trkpt lat="45.11423" lon="5.56058">
        <ele>1117.4</ele>
        <time>2022-08-12T09:01:28.000Z</time>
      </trkpt>
      <trkpt lat="45.11423" lon="5.56061">
        <ele>1117.6</ele>
        <time>2022-08-12T09:01:29.000Z</time>
      </trkpt>
      <trkpt lat="45.11426" lon="5.56062">
        <ele>1117.8</ele>
        <time>2022-08-12T09:01:30.000Z</time>
      </trkpt>
      <trkpt lat="45.11428" lon="5.56063">
        <ele>1117.9</ele>
        <time>2022-08-12T09:01:31.000Z</time>
      </trkpt>
      <trkpt lat="45.11429" lon="5.56064">
        <ele>1118.1</ele>
        <time>2022-08-12T09:01:32.000Z</time>
      </trkpt>
      <trkpt lat="45.1143" lon="5.56066">
        <ele>1118.2</ele>
        <time>2022-08-12T09:01:33.000Z</time>
      </trkpt>
      <trkpt lat="45.11431" lon="5.56067">
        <ele>1118.3</ele>
        <time>2022-08-12T09:01:34.000Z</time>
      </trkpt>
      <trkpt lat="45.11432" lon="5.56068">
        <ele>1118.5</ele>
        <time>2022-08-12T09:01:35.000Z</time>
      </trkpt>
      <trkpt lat="45.11433" lon="5.56069">
        <ele>1118.5</ele>
        <time>2022-08-12T09:01:36.000Z</time>
      </trkpt>
      <trkpt lat="45.11434" lon="5.5607">
        <ele>1118.6</ele>
        <time>2022-08-12T09:01:37.000Z</time>
      </trkpt>
      <trkpt lat="45.11436" lon="5.5607">
        <ele>1118.7</ele>
        <time>2022-08-12T09:01:38.000Z</time>
      </trkpt>
      <trkpt lat="45.11437" lon="5.56071">
        <ele>1118.8</ele>
        <time>2022-08-12T09:01:39.000Z</time>
      </trkpt>
      <trkpt lat="45.11438" lon="5.56071">
        <ele>1118.9</ele>
        <time>2022-08-12T09:01:40.000Z</time>
      </trkpt>
      <trkpt lat="45.1144" lon="5.56072">
        <ele>1119</ele>
        <time>2022-08-12T09:01:41.000Z</time>
      </trkpt>
      <trkpt lat="45.11441" lon="5.56073">
        <ele>1119.1</ele>
        <time>2022-08-12T09:01:42.000Z</time>
      </trkpt>
      <trkpt lat="45.11442" lon="5.56074">
        <ele>1119.2</ele>
        <time>2022-08-12T09:01:43.000Z</time>
      </trkpt>
      <trkpt lat="45.11443" lon="5.56075">
        <ele>1119.4</ele>
        <time>2022-08-12T09:01:44.000Z</time>
      </trkpt>
      <trkpt lat="45.11444" lon="5.56076">
        <ele>1119.4</ele>
        <time>2022-08-12T09:01:45.000Z</time>
      </trkpt>
      <trkpt lat="45.11444" lon="5.56077">
        <ele>1119.5</ele>
        <time>2022-08-12T09:01:47.000Z</time>
      </trkpt>
      <trkpt lat="45.11445" lon="5.56078">
        <ele>1119.6</ele>
        <time>2022-08-12T09:01:48.000Z</time>
      </trkpt>
      <trkpt lat="45.11445" lon="5.56079">
        <ele>1119.7</ele>
        <time>2022-08-12T09:01:49.000Z</time>
      </trkpt>
      <trkpt lat="45.11446" lon="5.56081">
        <ele>1119.9</ele>
        <time>2022-08-12T09:01:50.000Z</time>
      </trkpt>
      <trkpt lat="45.11447" lon="5.56082">
        <ele>1120</ele>
        <time>2022-08-12T09:01:51.000Z</time>
      </trkpt>
      <trkpt lat="45.11448" lon="5.56082">
        <ele>1120.1</ele>
        <time>2022-08-12T09:01:53.000Z</time>
      </trkpt>
      <trkpt lat="45.11448" lon="5.56083">
        <ele>1120.1</ele>
        <time>2022-08-12T09:01:54.000Z</time>
      </trkpt>
      <trkpt lat="45.11449" lon="5.56083">
        <ele>1120.1</ele>
        <time>2022-08-12T09:01:55.000Z</time>
      </trkpt>
      <trkpt lat="45.1145" lon="5.56083">
        <ele>1120.2</ele>
        <time>2022-08-12T09:01:58.000Z</time>
      </trkpt>
      <trkpt lat="45.11451" lon="5.56084">
        <ele>1120.3</ele>
        <time>2022-08-12T09:01:59.000Z</time>
      </trkpt>
      <trkpt lat="45.11452" lon="5.56085">
        <ele>1120.4</ele>
        <time>2022-08-12T09:02:00.000Z</time>
      </trkpt>
      <trkpt lat="45.11454" lon="5.56085">
        <ele>1120.5</ele>
        <time>2022-08-12T09:02:01.000Z</time>
      </trkpt>
      <trkpt lat="45.11456" lon="5.56086">
        <ele>1120.6</ele>
        <time>2022-08-12T09:02:02.000Z</time>
      </trkpt>
      <trkpt lat="45.11458" lon="5.56086">
        <ele>1120.7</ele>
        <time>2022-08-12T09:02:03.000Z</time>
      </trkpt>
      <trkpt lat="45.1146" lon="5.56086">
        <ele>1120.8</ele>
        <time>2022-08-12T09:02:04.000Z</time>
      </trkpt>
      <trkpt lat="45.11463" lon="5.56087">
        <ele>1120.9</ele>
        <time>2022-08-12T09:02:05.000Z</time>
      </trkpt>
      <trkpt lat="45.11465" lon="5.56088">
        <ele>1121.1</ele>
        <time>2022-08-12T09:02:06.000Z</time>
      </trkpt>
      <trkpt lat="45.11466" lon="5.56089">
        <ele>1121.2</ele>
        <time>2022-08-12T09:02:08.000Z</time>
      </trkpt>
      <trkpt lat="45.11468" lon="5.5609">
        <ele>1121.3</ele>
        <time>2022-08-12T09:02:11.000Z</time>
      </trkpt>
      <trkpt lat="45.11469" lon="5.56092">
        <ele>1121.5</ele>
        <time>2022-08-12T09:02:12.000Z</time>
      </trkpt>
      <trkpt lat="45.1147" lon="5.56093">
        <ele>1121.6</ele>
        <time>2022-08-12T09:02:13.000Z</time>
      </trkpt>
      <trkpt lat="45.11473" lon="5.56094">
        <ele>1121.8</ele>
        <time>2022-08-12T09:02:14.000Z</time>
      </trkpt>
      <trkpt lat="45.11474" lon="5.56095">
        <ele>1121.9</ele>
        <time>2022-08-12T09:02:15.000Z</time>
      </trkpt>
      <trkpt lat="45.11475" lon="5.56096">
        <ele>1122</ele>
        <time>2022-08-12T09:02:16.000Z</time>
      </trkpt>
      <trkpt lat="45.11477" lon="5.56097">
        <ele>1122.1</ele>
        <time>2022-08-12T09:02:17.000Z</time>
      </trkpt>
      <trkpt lat="45.11479" lon="5.56098">
        <ele>1122.3</ele>
        <time>2022-08-12T09:02:18.000Z</time>
      </trkpt>
      <trkpt lat="45.11483" lon="5.561">
        <ele>1122.6</ele>
        <time>2022-08-12T09:02:20.000Z</time>
      </trkpt>
      <trkpt lat="45.11483" lon="5.56101">
        <ele>1122.7</ele>
        <time>2022-08-12T09:02:21.000Z</time>
      </trkpt>
      <trkpt lat="45.11484" lon="5.56102">
        <ele>1122.8</ele>
        <time>2022-08-12T09:02:22.000Z</time>
      </trkpt>
      <trkpt lat="45.11487" lon="5.56104">
        <ele>1123</ele>
        <time>2022-08-12T09:02:25.000Z</time>
      </trkpt>
      <trkpt lat="45.11489" lon="5.56105">
        <ele>1123.1</ele>
        <time>2022-08-12T09:02:26.000Z</time>
      </trkpt>
      <trkpt lat="45.11491" lon="5.56106">
        <ele>1123.3</ele>
        <time>2022-08-12T09:02:27.000Z</time>
      </trkpt>
      <trkpt lat="45.11493" lon="5.56107">
        <ele>1123.4</ele>
        <time>2022-08-12T09:02:28.000Z</time>
      </trkpt>
      <trkpt lat="45.11494" lon="5.56108">
        <ele>1123.6</ele>
        <time>2022-08-12T09:02:29.000Z</time>
      </trkpt>
      <trkpt lat="45.11498" lon="5.56111">
        <ele>1123.9</ele>
        <time>2022-08-12T09:02:32.000Z</time>
      </trkpt>
      <trkpt lat="45.11501" lon="5.56114">
        <ele>1124.4</ele>
        <time>2022-08-12T09:02:34.000Z</time>
      </trkpt>
      <trkpt lat="45.1151" lon="5.56128">
        <ele>1126.3</ele>
        <time>2022-08-12T09:02:41.000Z</time>
      </trkpt>
      <trkpt lat="45.11513" lon="5.5613">
        <ele>1126.7</ele>
        <time>2022-08-12T09:02:42.000Z</time>
      </trkpt>
      <trkpt lat="45.11518" lon="5.56135">
        <ele>1127.7</ele>
        <time>2022-08-12T09:02:45.000Z</time>
      </trkpt>
      <trkpt lat="45.11519" lon="5.56137">
        <ele>1127.9</ele>
        <time>2022-08-12T09:02:46.000Z</time>
      </trkpt>
      <trkpt lat="45.1152" lon="5.56139">
        <ele>1128.2</ele>
        <time>2022-08-12T09:02:47.000Z</time>
      </trkpt>
      <trkpt lat="45.11523" lon="5.5614">
        <ele>1128.5</ele>
        <time>2022-08-12T09:02:49.000Z</time>
      </trkpt>
      <trkpt lat="45.11525" lon="5.5614">
        <ele>1128.7</ele>
        <time>2022-08-12T09:02:50.000Z</time>
      </trkpt>
      <trkpt lat="45.11526" lon="5.56142">
        <ele>1128.9</ele>
        <time>2022-08-12T09:02:51.000Z</time>
      </trkpt>
      <trkpt lat="45.11527" lon="5.56144">
        <ele>1129.2</ele>
        <time>2022-08-12T09:02:54.000Z</time>
      </trkpt>
      <trkpt lat="45.1153" lon="5.56147">
        <ele>1129.5</ele>
        <time>2022-08-12T09:02:56.000Z</time>
      </trkpt>
      <trkpt lat="45.11535" lon="5.56151">
        <ele>1130.4</ele>
        <time>2022-08-12T09:03:00.000Z</time>
      </trkpt>
      <trkpt lat="45.11537" lon="5.56152">
        <ele>1130.7</ele>
        <time>2022-08-12T09:03:01.000Z</time>
      </trkpt>
      <trkpt lat="45.11542" lon="5.56155">
        <ele>1131.4</ele>
        <time>2022-08-12T09:03:04.000Z</time>
      </trkpt>
      <trkpt lat="45.11543" lon="5.56156">
        <ele>1131.6</ele>
        <time>2022-08-12T09:03:05.000Z</time>
      </trkpt>
      <trkpt lat="45.11543" lon="5.56157">
        <ele>1131.7</ele>
        <time>2022-08-12T09:03:06.000Z</time>
      </trkpt>
      <trkpt lat="45.11545" lon="5.56158">
        <ele>1132</ele>
        <time>2022-08-12T09:03:07.000Z</time>
      </trkpt>
      <trkpt lat="45.11546" lon="5.56159">
        <ele>1132.2</ele>
        <time>2022-08-12T09:03:08.000Z</time>
      </trkpt>
      <trkpt lat="45.11547" lon="5.5616">
        <ele>1132.3</ele>
        <time>2022-08-12T09:03:09.000Z</time>
      </trkpt>
      <trkpt lat="45.11548" lon="5.5616">
        <ele>1132.5</ele>
        <time>2022-08-12T09:03:10.000Z</time>
      </trkpt>
      <trkpt lat="45.11549" lon="5.56161">
        <ele>1132.6</ele>
        <time>2022-08-12T09:03:11.000Z</time>
      </trkpt>
      <trkpt lat="45.1155" lon="5.56161">
        <ele>1132.8</ele>
        <time>2022-08-12T09:03:12.000Z</time>
      </trkpt>
      <trkpt lat="45.11551" lon="5.56162">
        <ele>1133.1</ele>
        <time>2022-08-12T09:03:13.000Z</time>
      </trkpt>
      <trkpt lat="45.11553" lon="5.56162">
        <ele>1133.3</ele>
        <time>2022-08-12T09:03:14.000Z</time>
      </trkpt>
      <trkpt lat="45.11554" lon="5.56162">
        <ele>1133.5</ele>
        <time>2022-08-12T09:03:15.000Z</time>
      </trkpt>
      <trkpt lat="45.11555" lon="5.56163">
        <ele>1133.7</ele>
        <time>2022-08-12T09:03:16.000Z</time>
      </trkpt>
      <trkpt lat="45.11556" lon="5.56164">
        <ele>1133.9</ele>
        <time>2022-08-12T09:03:17.000Z</time>
      </trkpt>
      <trkpt lat="45.11557" lon="5.56164">
        <ele>1134</ele>
        <time>2022-08-12T09:03:18.000Z</time>
      </trkpt>
      <trkpt lat="45.11558" lon="5.56165">
        <ele>1134.2</ele>
        <time>2022-08-12T09:03:19.000Z</time>
      </trkpt>
      <trkpt lat="45.1156" lon="5.56165">
        <ele>1134.3</ele>
        <time>2022-08-12T09:03:20.000Z</time>
      </trkpt>
      <trkpt lat="45.11561" lon="5.56166">
        <ele>1134.5</ele>
        <time>2022-08-12T09:03:21.000Z</time>
      </trkpt>
      <trkpt lat="45.11563" lon="5.56166">
        <ele>1134.7</ele>
        <time>2022-08-12T09:03:22.000Z</time>
      </trkpt>
      <trkpt lat="45.11564" lon="5.56166">
        <ele>1134.9</ele>
        <time>2022-08-12T09:03:23.000Z</time>
      </trkpt>
      <trkpt lat="45.11565" lon="5.56167">
        <ele>1135</ele>
        <time>2022-08-12T09:03:24.000Z</time>
      </trkpt>
      <trkpt lat="45.11566" lon="5.56168">
        <ele>1135.1</ele>
        <time>2022-08-12T09:03:25.000Z</time>
      </trkpt>
      <trkpt lat="45.11568" lon="5.56168">
        <ele>1135.3</ele>
        <time>2022-08-12T09:03:26.000Z</time>
      </trkpt>
      <trkpt lat="45.11569" lon="5.56169">
        <ele>1135.4</ele>
        <time>2022-08-12T09:03:27.000Z</time>
      </trkpt>
      <trkpt lat="45.1157" lon="5.5617">
        <ele>1135.5</ele>
        <time>2022-08-12T09:03:28.000Z</time>
      </trkpt>
      <trkpt lat="45.11571" lon="5.5617">
        <ele>1135.6</ele>
        <time>2022-08-12T09:03:29.000Z</time>
      </trkpt>
      <trkpt lat="45.11572" lon="5.56171">
        <ele>1135.7</ele>
        <time>2022-08-12T09:03:30.000Z</time>
      </trkpt>
      <trkpt lat="45.11573" lon="5.56171">
        <ele>1135.9</ele>
        <time>2022-08-12T09:03:31.000Z</time>
      </trkpt>
      <trkpt lat="45.11574" lon="5.56171">
        <ele>1136</ele>
        <time>2022-08-12T09:03:32.000Z</time>
      </trkpt>
      <trkpt lat="45.11576" lon="5.56171">
        <ele>1136.1</ele>
        <time>2022-08-12T09:03:33.000Z</time>
      </trkpt>
      <trkpt lat="45.11577" lon="5.56171">
        <ele>1136.3</ele>
        <time>2022-08-12T09:03:34.000Z</time>
      </trkpt>
      <trkpt lat="45.11578" lon="5.56171">
        <ele>1136.4</ele>
        <time>2022-08-12T09:03:35.000Z</time>
      </trkpt>
      <trkpt lat="45.11579" lon="5.56171">
        <ele>1136.5</ele>
        <time>2022-08-12T09:03:36.000Z</time>
      </trkpt>
      <trkpt lat="45.1158" lon="5.56171">
        <ele>1136.6</ele>
        <time>2022-08-12T09:03:37.000Z</time>
      </trkpt>
      <trkpt lat="45.11581" lon="5.56171">
        <ele>1136.7</ele>
        <time>2022-08-12T09:03:38.000Z</time>
      </trkpt>
      <trkpt lat="45.11582" lon="5.56172">
        <ele>1136.9</ele>
        <time>2022-08-12T09:03:39.000Z</time>
      </trkpt>
      <trkpt lat="45.11584" lon="5.56172">
        <ele>1137</ele>
        <time>2022-08-12T09:03:40.000Z</time>
      </trkpt>
      <trkpt lat="45.11585" lon="5.56173">
        <ele>1137.1</ele>
        <time>2022-08-12T09:03:41.000Z</time>
      </trkpt>
      <trkpt lat="45.11586" lon="5.56173">
        <ele>1137.2</ele>
        <time>2022-08-12T09:03:42.000Z</time>
      </trkpt>
      <trkpt lat="45.11588" lon="5.56174">
        <ele>1137.3</ele>
        <time>2022-08-12T09:03:43.000Z</time>
      </trkpt>
      <trkpt lat="45.11589" lon="5.56174">
        <ele>1137.4</ele>
        <time>2022-08-12T09:03:44.000Z</time>
      </trkpt>
      <trkpt lat="45.1159" lon="5.56174">
        <ele>1137.6</ele>
        <time>2022-08-12T09:03:45.000Z</time>
      </trkpt>
      <trkpt lat="45.11591" lon="5.56174">
        <ele>1137.7</ele>
        <time>2022-08-12T09:03:46.000Z</time>
      </trkpt>
      <trkpt lat="45.11593" lon="5.56175">
        <ele>1137.8</ele>
        <time>2022-08-12T09:03:47.000Z</time>
      </trkpt>
      <trkpt lat="45.11594" lon="5.56175">
        <ele>1137.9</ele>
        <time>2022-08-12T09:03:48.000Z</time>
      </trkpt>
      <trkpt lat="45.11596" lon="5.56176">
        <ele>1138</ele>
        <time>2022-08-12T09:03:49.000Z</time>
      </trkpt>
      <trkpt lat="45.11597" lon="5.56177">
        <ele>1138.1</ele>
        <time>2022-08-12T09:03:50.000Z</time>
      </trkpt>
      <trkpt lat="45.11598" lon="5.56177">
        <ele>1138.2</ele>
        <time>2022-08-12T09:03:51.000Z</time>
      </trkpt>
      <trkpt lat="45.11599" lon="5.56178">
        <ele>1138.3</ele>
        <time>2022-08-12T09:03:52.000Z</time>
      </trkpt>
      <trkpt lat="45.116" lon="5.56178">
        <ele>1138.4</ele>
        <time>2022-08-12T09:03:53.000Z</time>
      </trkpt>
      <trkpt lat="45.11601" lon="5.56178">
        <ele>1138.5</ele>
        <time>2022-08-12T09:03:54.000Z</time>
      </trkpt>
      <trkpt lat="45.11602" lon="5.56178">
        <ele>1138.6</ele>
        <time>2022-08-12T09:03:55.000Z</time>
      </trkpt>
      <trkpt lat="45.11603" lon="5.56178">
        <ele>1138.7</ele>
        <time>2022-08-12T09:03:56.000Z</time>
      </trkpt>
      <trkpt lat="45.11604" lon="5.56179">
        <ele>1138.8</ele>
        <time>2022-08-12T09:03:57.000Z</time>
      </trkpt>
      <trkpt lat="45.11606" lon="5.56179">
        <ele>1139</ele>
        <time>2022-08-12T09:03:58.000Z</time>
      </trkpt>
      <trkpt lat="45.11608" lon="5.56179">
        <ele>1139.1</ele>
        <time>2022-08-12T09:03:59.000Z</time>
      </trkpt>
      <trkpt lat="45.11609" lon="5.5618">
        <ele>1139.3</ele>
        <time>2022-08-12T09:04:00.000Z</time>
      </trkpt>
      <trkpt lat="45.1161" lon="5.5618">
        <ele>1139.4</ele>
        <time>2022-08-12T09:04:01.000Z</time>
      </trkpt>
      <trkpt lat="45.11611" lon="5.56181">
        <ele>1139.5</ele>
        <time>2022-08-12T09:04:02.000Z</time>
      </trkpt>
      <trkpt lat="45.11612" lon="5.56181">
        <ele>1139.6</ele>
        <time>2022-08-12T09:04:03.000Z</time>
      </trkpt>
      <trkpt lat="45.11614" lon="5.56181">
        <ele>1139.7</ele>
        <time>2022-08-12T09:04:04.000Z</time>
      </trkpt>
      <trkpt lat="45.11615" lon="5.5618">
        <ele>1139.8</ele>
        <time>2022-08-12T09:04:05.000Z</time>
      </trkpt>
      <trkpt lat="45.11617" lon="5.5618">
        <ele>1139.9</ele>
        <time>2022-08-12T09:04:06.000Z</time>
      </trkpt>
      <trkpt lat="45.1162" lon="5.5618">
        <ele>1140.1</ele>
        <time>2022-08-12T09:04:09.000Z</time>
      </trkpt>
      <trkpt lat="45.11626" lon="5.5618">
        <ele>1140.6</ele>
        <time>2022-08-12T09:04:13.000Z</time>
      </trkpt>
      <trkpt lat="45.11627" lon="5.5618">
        <ele>1140.6</ele>
        <time>2022-08-12T09:04:14.000Z</time>
      </trkpt>
      <trkpt lat="45.1163" lon="5.56179">
        <ele>1140.8</ele>
        <time>2022-08-12T09:04:16.000Z</time>
      </trkpt>
      <trkpt lat="45.11631" lon="5.56179">
        <ele>1140.9</ele>
        <time>2022-08-12T09:04:17.000Z</time>
      </trkpt>
      <trkpt lat="45.11633" lon="5.56179">
        <ele>1141</ele>
        <time>2022-08-12T09:04:18.000Z</time>
      </trkpt>
      <trkpt lat="45.11634" lon="5.56179">
        <ele>1141.1</ele>
        <time>2022-08-12T09:04:19.000Z</time>
      </trkpt>
      <trkpt lat="45.11635" lon="5.56178">
        <ele>1141.2</ele>
        <time>2022-08-12T09:04:20.000Z</time>
      </trkpt>
      <trkpt lat="45.11637" lon="5.56178">
        <ele>1141.3</ele>
        <time>2022-08-12T09:04:21.000Z</time>
      </trkpt>
      <trkpt lat="45.11639" lon="5.56177">
        <ele>1141.4</ele>
        <time>2022-08-12T09:04:22.000Z</time>
      </trkpt>
      <trkpt lat="45.1164" lon="5.56177">
        <ele>1141.5</ele>
        <time>2022-08-12T09:04:23.000Z</time>
      </trkpt>
      <trkpt lat="45.11641" lon="5.56177">
        <ele>1141.6</ele>
        <time>2022-08-12T09:04:24.000Z</time>
      </trkpt>
      <trkpt lat="45.11642" lon="5.56176">
        <ele>1141.7</ele>
        <time>2022-08-12T09:04:25.000Z</time>
      </trkpt>
      <trkpt lat="45.11643" lon="5.56176">
        <ele>1141.7</ele>
        <time>2022-08-12T09:04:26.000Z</time>
      </trkpt>
      <trkpt lat="45.11644" lon="5.56175">
        <ele>1141.8</ele>
        <time>2022-08-12T09:04:27.000Z</time>
      </trkpt>
      <trkpt lat="45.11646" lon="5.56175">
        <ele>1142</ele>
        <time>2022-08-12T09:04:28.000Z</time>
      </trkpt>
      <trkpt lat="45.11647" lon="5.56174">
        <ele>1142.1</ele>
        <time>2022-08-12T09:04:29.000Z</time>
      </trkpt>
      <trkpt lat="45.11649" lon="5.56174">
        <ele>1142.2</ele>
        <time>2022-08-12T09:04:30.000Z</time>
      </trkpt>
      <trkpt lat="45.1165" lon="5.56174">
        <ele>1142.3</ele>
        <time>2022-08-12T09:04:31.000Z</time>
      </trkpt>
      <trkpt lat="45.11651" lon="5.56174">
        <ele>1142.4</ele>
        <time>2022-08-12T09:04:32.000Z</time>
      </trkpt>
      <trkpt lat="45.11652" lon="5.56174">
        <ele>1142.6</ele>
        <time>2022-08-12T09:04:34.000Z</time>
      </trkpt>
      <trkpt lat="45.11654" lon="5.56173">
        <ele>1142.7</ele>
        <time>2022-08-12T09:04:35.000Z</time>
      </trkpt>
      <trkpt lat="45.11655" lon="5.56173">
        <ele>1142.8</ele>
        <time>2022-08-12T09:04:36.000Z</time>
      </trkpt>
      <trkpt lat="45.11657" lon="5.56173">
        <ele>1143</ele>
        <time>2022-08-12T09:04:37.000Z</time>
      </trkpt>
      <trkpt lat="45.11658" lon="5.56173">
        <ele>1143.1</ele>
        <time>2022-08-12T09:04:38.000Z</time>
      </trkpt>
      <trkpt lat="45.11659" lon="5.56174">
        <ele>1143.2</ele>
        <time>2022-08-12T09:04:39.000Z</time>
      </trkpt>
      <trkpt lat="45.1166" lon="5.56174">
        <ele>1143.4</ele>
        <time>2022-08-12T09:04:41.000Z</time>
      </trkpt>
      <trkpt lat="45.11661" lon="5.56173">
        <ele>1143.4</ele>
        <time>2022-08-12T09:04:42.000Z</time>
      </trkpt>
      <trkpt lat="45.11661" lon="5.56171">
        <ele>1143.4</ele>
        <time>2022-08-12T09:04:44.000Z</time>
      </trkpt>
      <trkpt lat="45.11661" lon="5.5617">
        <ele>1143.4</ele>
        <time>2022-08-12T09:04:45.000Z</time>
      </trkpt>
      <trkpt lat="45.11661" lon="5.56169">
        <ele>1143.4</ele>
        <time>2022-08-12T09:04:46.000Z</time>
      </trkpt>
      <trkpt lat="45.11661" lon="5.56168">
        <ele>1143.3</ele>
        <time>2022-08-12T09:04:47.000Z</time>
      </trkpt>
      <trkpt lat="45.11661" lon="5.56167">
        <ele>1143.4</ele>
        <time>2022-08-12T09:04:48.000Z</time>
      </trkpt>
      <trkpt lat="45.11661" lon="5.56165">
        <ele>1143.4</ele>
        <time>2022-08-12T09:04:49.000Z</time>
      </trkpt>
      <trkpt lat="45.11661" lon="5.56164">
        <ele>1143.4</ele>
        <time>2022-08-12T09:04:50.000Z</time>
      </trkpt>
      <trkpt lat="45.11662" lon="5.56163">
        <ele>1143.4</ele>
        <time>2022-08-12T09:04:51.000Z</time>
      </trkpt>
      <trkpt lat="45.11662" lon="5.56162">
        <ele>1143.5</ele>
        <time>2022-08-12T09:04:52.000Z</time>
      </trkpt>
      <trkpt lat="45.11663" lon="5.56161">
        <ele>1143.6</ele>
        <time>2022-08-12T09:04:53.000Z</time>
      </trkpt>
      <trkpt lat="45.11664" lon="5.5616">
        <ele>1143.7</ele>
        <time>2022-08-12T09:04:54.000Z</time>
      </trkpt>
      <trkpt lat="45.11666" lon="5.56159">
        <ele>1143.9</ele>
        <time>2022-08-12T09:04:55.000Z</time>
      </trkpt>
      <trkpt lat="45.11666" lon="5.56158">
        <ele>1144</ele>
        <time>2022-08-12T09:04:56.000Z</time>
      </trkpt>
      <trkpt lat="45.11667" lon="5.56157">
        <ele>1144.1</ele>
        <time>2022-08-12T09:04:57.000Z</time>
      </trkpt>
      <trkpt lat="45.11668" lon="5.56156">
        <ele>1144.2</ele>
        <time>2022-08-12T09:04:58.000Z</time>
      </trkpt>
      <trkpt lat="45.1167" lon="5.56154">
        <ele>1144.5</ele>
        <time>2022-08-12T09:05:00.000Z</time>
      </trkpt>
      <trkpt lat="45.11678" lon="5.56145">
        <ele>1145.5</ele>
        <time>2022-08-12T09:05:08.000Z</time>
      </trkpt>
      <trkpt lat="45.11683" lon="5.5614">
        <ele>1146.3</ele>
        <time>2022-08-12T09:05:12.000Z</time>
      </trkpt>
      <trkpt lat="45.11684" lon="5.56139">
        <ele>1146.4</ele>
        <time>2022-08-12T09:05:13.000Z</time>
      </trkpt>
      <trkpt lat="45.11685" lon="5.56138">
        <ele>1146.6</ele>
        <time>2022-08-12T09:05:14.000Z</time>
      </trkpt>
      <trkpt lat="45.11686" lon="5.56137">
        <ele>1146.8</ele>
        <time>2022-08-12T09:05:15.000Z</time>
      </trkpt>
      <trkpt lat="45.11687" lon="5.56136">
        <ele>1146.9</ele>
        <time>2022-08-12T09:05:16.000Z</time>
      </trkpt>
      <trkpt lat="45.11688" lon="5.56134">
        <ele>1147.1</ele>
        <time>2022-08-12T09:05:17.000Z</time>
      </trkpt>
      <trkpt lat="45.11689" lon="5.56133">
        <ele>1147.2</ele>
        <time>2022-08-12T09:05:18.000Z</time>
      </trkpt>
      <trkpt lat="45.1169" lon="5.56131">
        <ele>1147.4</ele>
        <time>2022-08-12T09:05:19.000Z</time>
      </trkpt>
      <trkpt lat="45.11691" lon="5.5613">
        <ele>1147.5</ele>
        <time>2022-08-12T09:05:20.000Z</time>
      </trkpt>
      <trkpt lat="45.11692" lon="5.56129">
        <ele>1147.7</ele>
        <time>2022-08-12T09:05:21.000Z</time>
      </trkpt>
      <trkpt lat="45.11693" lon="5.56128">
        <ele>1147.8</ele>
        <time>2022-08-12T09:05:22.000Z</time>
      </trkpt>
      <trkpt lat="45.11694" lon="5.56127">
        <ele>1147.9</ele>
        <time>2022-08-12T09:05:23.000Z</time>
      </trkpt>
      <trkpt lat="45.11695" lon="5.56126">
        <ele>1148.1</ele>
        <time>2022-08-12T09:05:24.000Z</time>
      </trkpt>
      <trkpt lat="45.11696" lon="5.56124">
        <ele>1148.3</ele>
        <time>2022-08-12T09:05:25.000Z</time>
      </trkpt>
      <trkpt lat="45.11698" lon="5.56123">
        <ele>1148.5</ele>
        <time>2022-08-12T09:05:26.000Z</time>
      </trkpt>
      <trkpt lat="45.11699" lon="5.56122">
        <ele>1148.6</ele>
        <time>2022-08-12T09:05:27.000Z</time>
      </trkpt>
      <trkpt lat="45.117" lon="5.56121">
        <ele>1148.8</ele>
        <time>2022-08-12T09:05:28.000Z</time>
      </trkpt>
      <trkpt lat="45.117" lon="5.5612">
        <ele>1148.8</ele>
        <time>2022-08-12T09:05:29.000Z</time>
      </trkpt>
      <trkpt lat="45.11701" lon="5.56119">
        <ele>1149</ele>
        <time>2022-08-12T09:05:30.000Z</time>
      </trkpt>
      <trkpt lat="45.11702" lon="5.56118">
        <ele>1149.1</ele>
        <time>2022-08-12T09:05:31.000Z</time>
      </trkpt>
      <trkpt lat="45.11703" lon="5.56117">
        <ele>1149.3</ele>
        <time>2022-08-12T09:05:32.000Z</time>
      </trkpt>
      <trkpt lat="45.11709" lon="5.56112">
        <ele>1150.1</ele>
        <time>2022-08-12T09:05:37.000Z</time>
      </trkpt>
      <trkpt lat="45.1171" lon="5.56111">
        <ele>1150.2</ele>
        <time>2022-08-12T09:05:38.000Z</time>
      </trkpt>
      <trkpt lat="45.11711" lon="5.56109">
        <ele>1150.4</ele>
        <time>2022-08-12T09:05:39.000Z</time>
      </trkpt>
      <trkpt lat="45.11712" lon="5.56108">
        <ele>1150.6</ele>
        <time>2022-08-12T09:05:40.000Z</time>
      </trkpt>
      <trkpt lat="45.11713" lon="5.56107">
        <ele>1150.7</ele>
        <time>2022-08-12T09:05:41.000Z</time>
      </trkpt>
      <trkpt lat="45.11715" lon="5.56106">
        <ele>1150.9</ele>
        <time>2022-08-12T09:05:42.000Z</time>
      </trkpt>
      <trkpt lat="45.11716" lon="5.56104">
        <ele>1151</ele>
        <time>2022-08-12T09:05:43.000Z</time>
      </trkpt>
      <trkpt lat="45.11716" lon="5.56103">
        <ele>1151.1</ele>
        <time>2022-08-12T09:05:44.000Z</time>
      </trkpt>
      <trkpt lat="45.11717" lon="5.56102">
        <ele>1151.2</ele>
        <time>2022-08-12T09:05:45.000Z</time>
      </trkpt>
      <trkpt lat="45.11718" lon="5.56101">
        <ele>1151.4</ele>
        <time>2022-08-12T09:05:46.000Z</time>
      </trkpt>
      <trkpt lat="45.11719" lon="5.56099">
        <ele>1151.5</ele>
        <time>2022-08-12T09:05:47.000Z</time>
      </trkpt>
      <trkpt lat="45.1172" lon="5.56098">
        <ele>1151.6</ele>
        <time>2022-08-12T09:05:48.000Z</time>
      </trkpt>
      <trkpt lat="45.11721" lon="5.56097">
        <ele>1151.8</ele>
        <time>2022-08-12T09:05:49.000Z</time>
      </trkpt>
      <trkpt lat="45.11722" lon="5.56096">
        <ele>1151.9</ele>
        <time>2022-08-12T09:05:50.000Z</time>
      </trkpt>
      <trkpt lat="45.11723" lon="5.56096">
        <ele>1152.1</ele>
        <time>2022-08-12T09:05:51.000Z</time>
      </trkpt>
      <trkpt lat="45.11724" lon="5.56095">
        <ele>1152.3</ele>
        <time>2022-08-12T09:05:52.000Z</time>
      </trkpt>
      <trkpt lat="45.11725" lon="5.56093">
        <ele>1152.5</ele>
        <time>2022-08-12T09:05:53.000Z</time>
      </trkpt>
      <trkpt lat="45.11726" lon="5.56092">
        <ele>1152.7</ele>
        <time>2022-08-12T09:05:54.000Z</time>
      </trkpt>
      <trkpt lat="45.11728" lon="5.56091">
        <ele>1152.9</ele>
        <time>2022-08-12T09:05:55.000Z</time>
      </trkpt>
      <trkpt lat="45.11729" lon="5.5609">
        <ele>1153.1</ele>
        <time>2022-08-12T09:05:56.000Z</time>
      </trkpt>
      <trkpt lat="45.1173" lon="5.56089">
        <ele>1153.3</ele>
        <time>2022-08-12T09:05:57.000Z</time>
      </trkpt>
      <trkpt lat="45.11731" lon="5.56088">
        <ele>1153.5</ele>
        <time>2022-08-12T09:05:58.000Z</time>
      </trkpt>
      <trkpt lat="45.11732" lon="5.56087">
        <ele>1153.7</ele>
        <time>2022-08-12T09:05:59.000Z</time>
      </trkpt>
      <trkpt lat="45.11733" lon="5.56086">
        <ele>1153.8</ele>
        <time>2022-08-12T09:06:00.000Z</time>
      </trkpt>
      <trkpt lat="45.11734" lon="5.56086">
        <ele>1154</ele>
        <time>2022-08-12T09:06:01.000Z</time>
      </trkpt>
      <trkpt lat="45.11735" lon="5.56085">
        <ele>1154.2</ele>
        <time>2022-08-12T09:06:02.000Z</time>
      </trkpt>
      <trkpt lat="45.11736" lon="5.56084">
        <ele>1154.5</ele>
        <time>2022-08-12T09:06:03.000Z</time>
      </trkpt>
      <trkpt lat="45.11737" lon="5.56083">
        <ele>1154.7</ele>
        <time>2022-08-12T09:06:04.000Z</time>
      </trkpt>
      <trkpt lat="45.11738" lon="5.56083">
        <ele>1154.8</ele>
        <time>2022-08-12T09:06:05.000Z</time>
      </trkpt>
      <trkpt lat="45.11739" lon="5.56082">
        <ele>1155</ele>
        <time>2022-08-12T09:06:06.000Z</time>
      </trkpt>
      <trkpt lat="45.11739" lon="5.56081">
        <ele>1155.1</ele>
        <time>2022-08-12T09:06:07.000Z</time>
      </trkpt>
      <trkpt lat="45.1174" lon="5.5608">
        <ele>1155.3</ele>
        <time>2022-08-12T09:06:08.000Z</time>
      </trkpt>
      <trkpt lat="45.11741" lon="5.56079">
        <ele>1155.5</ele>
        <time>2022-08-12T09:06:09.000Z</time>
      </trkpt>
      <trkpt lat="45.11742" lon="5.56078">
        <ele>1155.6</ele>
        <time>2022-08-12T09:06:10.000Z</time>
      </trkpt>
      <trkpt lat="45.11744" lon="5.56077">
        <ele>1155.8</ele>
        <time>2022-08-12T09:06:11.000Z</time>
      </trkpt>
      <trkpt lat="45.11745" lon="5.56077">
        <ele>1156.1</ele>
        <time>2022-08-12T09:06:12.000Z</time>
      </trkpt>
      <trkpt lat="45.11746" lon="5.56076">
        <ele>1156.2</ele>
        <time>2022-08-12T09:06:13.000Z</time>
      </trkpt>
      <trkpt lat="45.11746" lon="5.56075">
        <ele>1156.3</ele>
        <time>2022-08-12T09:06:14.000Z</time>
      </trkpt>
      <trkpt lat="45.11747" lon="5.56074">
        <ele>1156.5</ele>
        <time>2022-08-12T09:06:15.000Z</time>
      </trkpt>
      <trkpt lat="45.11748" lon="5.56073">
        <ele>1156.7</ele>
        <time>2022-08-12T09:06:16.000Z</time>
      </trkpt>
      <trkpt lat="45.11749" lon="5.56072">
        <ele>1156.8</ele>
        <time>2022-08-12T09:06:17.000Z</time>
      </trkpt>
      <trkpt lat="45.1175" lon="5.56071">
        <ele>1157</ele>
        <time>2022-08-12T09:06:18.000Z</time>
      </trkpt>
      <trkpt lat="45.11751" lon="5.5607">
        <ele>1157.2</ele>
        <time>2022-08-12T09:06:19.000Z</time>
      </trkpt>
      <trkpt lat="45.11752" lon="5.56069">
        <ele>1157.3</ele>
        <time>2022-08-12T09:06:20.000Z</time>
      </trkpt>
      <trkpt lat="45.11753" lon="5.56069">
        <ele>1157.5</ele>
        <time>2022-08-12T09:06:21.000Z</time>
      </trkpt>
      <trkpt lat="45.11754" lon="5.56068">
        <ele>1157.6</ele>
        <time>2022-08-12T09:06:22.000Z</time>
      </trkpt>
      <trkpt lat="45.11755" lon="5.56066">
        <ele>1157.7</ele>
        <time>2022-08-12T09:06:23.000Z</time>
      </trkpt>
      <trkpt lat="45.11755" lon="5.56065">
        <ele>1157.8</ele>
        <time>2022-08-12T09:06:24.000Z</time>
      </trkpt>
      <trkpt lat="45.11757" lon="5.56064">
        <ele>1158</ele>
        <time>2022-08-12T09:06:25.000Z</time>
      </trkpt>
      <trkpt lat="45.11758" lon="5.56064">
        <ele>1158.2</ele>
        <time>2022-08-12T09:06:26.000Z</time>
      </trkpt>
      <trkpt lat="45.11759" lon="5.56063">
        <ele>1158.3</ele>
        <time>2022-08-12T09:06:27.000Z</time>
      </trkpt>
      <trkpt lat="45.1176" lon="5.56063">
        <ele>1158.5</ele>
        <time>2022-08-12T09:06:28.000Z</time>
      </trkpt>
      <trkpt lat="45.11761" lon="5.56062">
        <ele>1158.6</ele>
        <time>2022-08-12T09:06:29.000Z</time>
      </trkpt>
      <trkpt lat="45.11762" lon="5.56062">
        <ele>1158.7</ele>
        <time>2022-08-12T09:06:30.000Z</time>
      </trkpt>
      <trkpt lat="45.11763" lon="5.56062">
        <ele>1158.8</ele>
        <time>2022-08-12T09:06:31.000Z</time>
      </trkpt>
      <trkpt lat="45.11764" lon="5.56061">
        <ele>1159</ele>
        <time>2022-08-12T09:06:32.000Z</time>
      </trkpt>
      <trkpt lat="45.11765" lon="5.5606">
        <ele>1159.1</ele>
        <time>2022-08-12T09:06:33.000Z</time>
      </trkpt>
      <trkpt lat="45.11766" lon="5.5606">
        <ele>1159.2</ele>
        <time>2022-08-12T09:06:34.000Z</time>
      </trkpt>
      <trkpt lat="45.11766" lon="5.56058">
        <ele>1159.4</ele>
        <time>2022-08-12T09:06:35.000Z</time>
      </trkpt>
      <trkpt lat="45.11767" lon="5.56057">
        <ele>1159.5</ele>
        <time>2022-08-12T09:06:36.000Z</time>
      </trkpt>
      <trkpt lat="45.11768" lon="5.56056">
        <ele>1159.7</ele>
        <time>2022-08-12T09:06:37.000Z</time>
      </trkpt>
      <trkpt lat="45.11769" lon="5.56055">
        <ele>1159.8</ele>
        <time>2022-08-12T09:06:38.000Z</time>
      </trkpt>
      <trkpt lat="45.1177" lon="5.56055">
        <ele>1159.9</ele>
        <time>2022-08-12T09:06:39.000Z</time>
      </trkpt>
      <trkpt lat="45.11772" lon="5.56055">
        <ele>1160.1</ele>
        <time>2022-08-12T09:06:40.000Z</time>
      </trkpt>
      <trkpt lat="45.11773" lon="5.56054">
        <ele>1160.3</ele>
        <time>2022-08-12T09:06:41.000Z</time>
      </trkpt>
      <trkpt lat="45.11774" lon="5.56054">
        <ele>1160.4</ele>
        <time>2022-08-12T09:06:42.000Z</time>
      </trkpt>
      <trkpt lat="45.11775" lon="5.56054">
        <ele>1160.6</ele>
        <time>2022-08-12T09:06:43.000Z</time>
      </trkpt>
      <trkpt lat="45.11776" lon="5.56053">
        <ele>1160.7</ele>
        <time>2022-08-12T09:06:44.000Z</time>
      </trkpt>
      <trkpt lat="45.11776" lon="5.56052">
        <ele>1160.8</ele>
        <time>2022-08-12T09:06:45.000Z</time>
      </trkpt>
      <trkpt lat="45.11777" lon="5.56051">
        <ele>1160.9</ele>
        <time>2022-08-12T09:06:46.000Z</time>
      </trkpt>
      <trkpt lat="45.11778" lon="5.5605">
        <ele>1161</ele>
        <time>2022-08-12T09:06:47.000Z</time>
      </trkpt>
      <trkpt lat="45.11779" lon="5.56049">
        <ele>1161.2</ele>
        <time>2022-08-12T09:06:48.000Z</time>
      </trkpt>
      <trkpt lat="45.1178" lon="5.56049">
        <ele>1161.3</ele>
        <time>2022-08-12T09:06:49.000Z</time>
      </trkpt>
      <trkpt lat="45.11781" lon="5.56048">
        <ele>1161.5</ele>
        <time>2022-08-12T09:06:50.000Z</time>
      </trkpt>
      <trkpt lat="45.11782" lon="5.56048">
        <ele>1161.6</ele>
        <time>2022-08-12T09:06:51.000Z</time>
      </trkpt>
      <trkpt lat="45.11783" lon="5.56048">
        <ele>1161.8</ele>
        <time>2022-08-12T09:06:52.000Z</time>
      </trkpt>
      <trkpt lat="45.11784" lon="5.56047">
        <ele>1161.9</ele>
        <time>2022-08-12T09:06:53.000Z</time>
      </trkpt>
      <trkpt lat="45.11785" lon="5.56046">
        <ele>1162</ele>
        <time>2022-08-12T09:06:54.000Z</time>
      </trkpt>
      <trkpt lat="45.11786" lon="5.56045">
        <ele>1162.1</ele>
        <time>2022-08-12T09:06:55.000Z</time>
      </trkpt>
      <trkpt lat="45.11787" lon="5.56044">
        <ele>1162.3</ele>
        <time>2022-08-12T09:06:56.000Z</time>
      </trkpt>
      <trkpt lat="45.11788" lon="5.56043">
        <ele>1162.5</ele>
        <time>2022-08-12T09:06:57.000Z</time>
      </trkpt>
      <trkpt lat="45.11789" lon="5.56042">
        <ele>1162.7</ele>
        <time>2022-08-12T09:06:58.000Z</time>
      </trkpt>
      <trkpt lat="45.11791" lon="5.56041">
        <ele>1162.9</ele>
        <time>2022-08-12T09:06:59.000Z</time>
      </trkpt>
      <trkpt lat="45.11792" lon="5.5604">
        <ele>1163</ele>
        <time>2022-08-12T09:07:00.000Z</time>
      </trkpt>
      <trkpt lat="45.11793" lon="5.5604">
        <ele>1163.2</ele>
        <time>2022-08-12T09:07:01.000Z</time>
      </trkpt>
      <trkpt lat="45.11795" lon="5.5604">
        <ele>1163.4</ele>
        <time>2022-08-12T09:07:03.000Z</time>
      </trkpt>
      <trkpt lat="45.11797" lon="5.56039">
        <ele>1163.8</ele>
        <time>2022-08-12T09:07:05.000Z</time>
      </trkpt>
      <trkpt lat="45.11798" lon="5.56039">
        <ele>1163.9</ele>
        <time>2022-08-12T09:07:06.000Z</time>
      </trkpt>
      <trkpt lat="45.11799" lon="5.56038">
        <ele>1164.1</ele>
        <time>2022-08-12T09:07:07.000Z</time>
      </trkpt>
      <trkpt lat="45.118" lon="5.56038">
        <ele>1164.2</ele>
        <time>2022-08-12T09:07:08.000Z</time>
      </trkpt>
      <trkpt lat="45.11801" lon="5.56037">
        <ele>1164.4</ele>
        <time>2022-08-12T09:07:09.000Z</time>
      </trkpt>
      <trkpt lat="45.11803" lon="5.56036">
        <ele>1164.6</ele>
        <time>2022-08-12T09:07:10.000Z</time>
      </trkpt>
      <trkpt lat="45.11804" lon="5.56037">
        <ele>1164.8</ele>
        <time>2022-08-12T09:07:11.000Z</time>
      </trkpt>
      <trkpt lat="45.11805" lon="5.56036">
        <ele>1165</ele>
        <time>2022-08-12T09:07:12.000Z</time>
      </trkpt>
      <trkpt lat="45.11807" lon="5.56036">
        <ele>1165.1</ele>
        <time>2022-08-12T09:07:13.000Z</time>
      </trkpt>
      <trkpt lat="45.11808" lon="5.56035">
        <ele>1165.3</ele>
        <time>2022-08-12T09:07:14.000Z</time>
      </trkpt>
      <trkpt lat="45.11809" lon="5.56034">
        <ele>1165.5</ele>
        <time>2022-08-12T09:07:15.000Z</time>
      </trkpt>
      <trkpt lat="45.1181" lon="5.56034">
        <ele>1165.6</ele>
        <time>2022-08-12T09:07:16.000Z</time>
      </trkpt>
      <trkpt lat="45.11811" lon="5.56033">
        <ele>1165.8</ele>
        <time>2022-08-12T09:07:17.000Z</time>
      </trkpt>
      <trkpt lat="45.11812" lon="5.56032">
        <ele>1165.9</ele>
        <time>2022-08-12T09:07:18.000Z</time>
      </trkpt>
      <trkpt lat="45.11813" lon="5.56031">
        <ele>1166.1</ele>
        <time>2022-08-12T09:07:19.000Z</time>
      </trkpt>
      <trkpt lat="45.11815" lon="5.5603">
        <ele>1166.3</ele>
        <time>2022-08-12T09:07:20.000Z</time>
      </trkpt>
      <trkpt lat="45.11816" lon="5.56029">
        <ele>1166.5</ele>
        <time>2022-08-12T09:07:21.000Z</time>
      </trkpt>
      <trkpt lat="45.11817" lon="5.56029">
        <ele>1166.7</ele>
        <time>2022-08-12T09:07:22.000Z</time>
      </trkpt>
      <trkpt lat="45.11819" lon="5.56028">
        <ele>1166.9</ele>
        <time>2022-08-12T09:07:23.000Z</time>
      </trkpt>
      <trkpt lat="45.1182" lon="5.56027">
        <ele>1167.1</ele>
        <time>2022-08-12T09:07:24.000Z</time>
      </trkpt>
      <trkpt lat="45.11821" lon="5.56027">
        <ele>1167.3</ele>
        <time>2022-08-12T09:07:25.000Z</time>
      </trkpt>
      <trkpt lat="45.11822" lon="5.56026">
        <ele>1167.4</ele>
        <time>2022-08-12T09:07:26.000Z</time>
      </trkpt>
      <trkpt lat="45.11823" lon="5.56025">
        <ele>1167.6</ele>
        <time>2022-08-12T09:07:27.000Z</time>
      </trkpt>
      <trkpt lat="45.11824" lon="5.56025">
        <ele>1167.7</ele>
        <time>2022-08-12T09:07:28.000Z</time>
      </trkpt>
      <trkpt lat="45.11825" lon="5.56025">
        <ele>1167.9</ele>
        <time>2022-08-12T09:07:29.000Z</time>
      </trkpt>
      <trkpt lat="45.11827" lon="5.56025">
        <ele>1168.1</ele>
        <time>2022-08-12T09:07:30.000Z</time>
      </trkpt>
      <trkpt lat="45.11828" lon="5.56025">
        <ele>1168.3</ele>
        <time>2022-08-12T09:07:31.000Z</time>
      </trkpt>
      <trkpt lat="45.11829" lon="5.56025">
        <ele>1168.4</ele>
        <time>2022-08-12T09:07:32.000Z</time>
      </trkpt>
      <trkpt lat="45.1183" lon="5.56025">
        <ele>1168.6</ele>
        <time>2022-08-12T09:07:33.000Z</time>
      </trkpt>
      <trkpt lat="45.11831" lon="5.56024">
        <ele>1168.7</ele>
        <time>2022-08-12T09:07:34.000Z</time>
      </trkpt>
      <trkpt lat="45.11833" lon="5.56024">
        <ele>1168.9</ele>
        <time>2022-08-12T09:07:35.000Z</time>
      </trkpt>
      <trkpt lat="45.11834" lon="5.56024">
        <ele>1169</ele>
        <time>2022-08-12T09:07:36.000Z</time>
      </trkpt>
      <trkpt lat="45.11835" lon="5.56024">
        <ele>1169.2</ele>
        <time>2022-08-12T09:07:37.000Z</time>
      </trkpt>
      <trkpt lat="45.11836" lon="5.56025">
        <ele>1169.3</ele>
        <time>2022-08-12T09:07:38.000Z</time>
      </trkpt>
      <trkpt lat="45.11839" lon="5.56024">
        <ele>1169.6</ele>
        <time>2022-08-12T09:07:40.000Z</time>
      </trkpt>
      <trkpt lat="45.1184" lon="5.56024">
        <ele>1169.8</ele>
        <time>2022-08-12T09:07:41.000Z</time>
      </trkpt>
      <trkpt lat="45.11841" lon="5.56024">
        <ele>1169.9</ele>
        <time>2022-08-12T09:07:42.000Z</time>
      </trkpt>
      <trkpt lat="45.11842" lon="5.56023">
        <ele>1170</ele>
        <time>2022-08-12T09:07:43.000Z</time>
      </trkpt>
      <trkpt lat="45.11844" lon="5.56021">
        <ele>1170.2</ele>
        <time>2022-08-12T09:07:45.000Z</time>
      </trkpt>
      <trkpt lat="45.11845" lon="5.5602">
        <ele>1170.3</ele>
        <time>2022-08-12T09:07:46.000Z</time>
      </trkpt>
      <trkpt lat="45.11845" lon="5.56018">
        <ele>1170.4</ele>
        <time>2022-08-12T09:07:47.000Z</time>
      </trkpt>
      <trkpt lat="45.11847" lon="5.56018">
        <ele>1170.6</ele>
        <time>2022-08-12T09:07:48.000Z</time>
      </trkpt>
      <trkpt lat="45.11848" lon="5.56018">
        <ele>1170.8</ele>
        <time>2022-08-12T09:07:49.000Z</time>
      </trkpt>
      <trkpt lat="45.1185" lon="5.56018">
        <ele>1171</ele>
        <time>2022-08-12T09:07:50.000Z</time>
      </trkpt>
      <trkpt lat="45.11851" lon="5.56019">
        <ele>1171.1</ele>
        <time>2022-08-12T09:07:51.000Z</time>
      </trkpt>
      <trkpt lat="45.11853" lon="5.5602">
        <ele>1171.3</ele>
        <time>2022-08-12T09:07:52.000Z</time>
      </trkpt>
      <trkpt lat="45.11853" lon="5.56021">
        <ele>1171.4</ele>
        <time>2022-08-12T09:07:53.000Z</time>
      </trkpt>
      <trkpt lat="45.11855" lon="5.56022">
        <ele>1171.5</ele>
        <time>2022-08-12T09:07:54.000Z</time>
      </trkpt>
      <trkpt lat="45.11856" lon="5.56021">
        <ele>1171.6</ele>
        <time>2022-08-12T09:07:55.000Z</time>
      </trkpt>
      <trkpt lat="45.11858" lon="5.56022">
        <ele>1171.8</ele>
        <time>2022-08-12T09:07:57.000Z</time>
      </trkpt>
      <trkpt lat="45.11859" lon="5.56022">
        <ele>1172</ele>
        <time>2022-08-12T09:07:58.000Z</time>
      </trkpt>
      <trkpt lat="45.1186" lon="5.56022">
        <ele>1172.1</ele>
        <time>2022-08-12T09:07:59.000Z</time>
      </trkpt>
      <trkpt lat="45.11862" lon="5.56021">
        <ele>1172.3</ele>
        <time>2022-08-12T09:08:00.000Z</time>
      </trkpt>
      <trkpt lat="45.11863" lon="5.5602">
        <ele>1172.5</ele>
        <time>2022-08-12T09:08:01.000Z</time>
      </trkpt>
      <trkpt lat="45.11864" lon="5.5602">
        <ele>1172.6</ele>
        <time>2022-08-12T09:08:02.000Z</time>
      </trkpt>
      <trkpt lat="45.11865" lon="5.56019">
        <ele>1172.8</ele>
        <time>2022-08-12T09:08:03.000Z</time>
      </trkpt>
      <trkpt lat="45.11866" lon="5.56018">
        <ele>1172.9</ele>
        <time>2022-08-12T09:08:04.000Z</time>
      </trkpt>
      <trkpt lat="45.11867" lon="5.56018">
        <ele>1173.1</ele>
        <time>2022-08-12T09:08:06.000Z</time>
      </trkpt>
      <trkpt lat="45.11868" lon="5.56017">
        <ele>1173.3</ele>
        <time>2022-08-12T09:08:07.000Z</time>
      </trkpt>
      <trkpt lat="45.11869" lon="5.56016">
        <ele>1173.4</ele>
        <time>2022-08-12T09:08:08.000Z</time>
      </trkpt>
      <trkpt lat="45.1187" lon="5.56016">
        <ele>1173.6</ele>
        <time>2022-08-12T09:08:09.000Z</time>
      </trkpt>
      <trkpt lat="45.11871" lon="5.56016">
        <ele>1173.7</ele>
        <time>2022-08-12T09:08:10.000Z</time>
      </trkpt>
      <trkpt lat="45.11873" lon="5.56015">
        <ele>1173.9</ele>
        <time>2022-08-12T09:08:11.000Z</time>
      </trkpt>
      <trkpt lat="45.11874" lon="5.56015">
        <ele>1174.1</ele>
        <time>2022-08-12T09:08:12.000Z</time>
      </trkpt>
      <trkpt lat="45.11875" lon="5.56014">
        <ele>1174.2</ele>
        <time>2022-08-12T09:08:13.000Z</time>
      </trkpt>
      <trkpt lat="45.11876" lon="5.56014">
        <ele>1174.4</ele>
        <time>2022-08-12T09:08:14.000Z</time>
      </trkpt>
      <trkpt lat="45.11877" lon="5.56014">
        <ele>1174.5</ele>
        <time>2022-08-12T09:08:15.000Z</time>
      </trkpt>
      <trkpt lat="45.11878" lon="5.56013">
        <ele>1174.6</ele>
        <time>2022-08-12T09:08:16.000Z</time>
      </trkpt>
      <trkpt lat="45.11879" lon="5.56013">
        <ele>1174.8</ele>
        <time>2022-08-12T09:08:17.000Z</time>
      </trkpt>
      <trkpt lat="45.1188" lon="5.56013">
        <ele>1175</ele>
        <time>2022-08-12T09:08:18.000Z</time>
      </trkpt>
      <trkpt lat="45.11881" lon="5.56012">
        <ele>1175.1</ele>
        <time>2022-08-12T09:08:19.000Z</time>
      </trkpt>
      <trkpt lat="45.11882" lon="5.56012">
        <ele>1175.3</ele>
        <time>2022-08-12T09:08:20.000Z</time>
      </trkpt>
      <trkpt lat="45.11883" lon="5.56011">
        <ele>1175.5</ele>
        <time>2022-08-12T09:08:21.000Z</time>
      </trkpt>
      <trkpt lat="45.11885" lon="5.5601">
        <ele>1175.7</ele>
        <time>2022-08-12T09:08:22.000Z</time>
      </trkpt>
      <trkpt lat="45.11886" lon="5.5601">
        <ele>1175.9</ele>
        <time>2022-08-12T09:08:23.000Z</time>
      </trkpt>
      <trkpt lat="45.11887" lon="5.56009">
        <ele>1176.1</ele>
        <time>2022-08-12T09:08:24.000Z</time>
      </trkpt>
      <trkpt lat="45.11889" lon="5.56008">
        <ele>1176.4</ele>
        <time>2022-08-12T09:08:25.000Z</time>
      </trkpt>
      <trkpt lat="45.1189" lon="5.56008">
        <ele>1176.5</ele>
        <time>2022-08-12T09:08:26.000Z</time>
      </trkpt>
      <trkpt lat="45.11891" lon="5.56008">
        <ele>1176.6</ele>
        <time>2022-08-12T09:08:27.000Z</time>
      </trkpt>
      <trkpt lat="45.11892" lon="5.56007">
        <ele>1176.7</ele>
        <time>2022-08-12T09:08:28.000Z</time>
      </trkpt>
      <trkpt lat="45.11893" lon="5.56007">
        <ele>1176.9</ele>
        <time>2022-08-12T09:08:29.000Z</time>
      </trkpt>
      <trkpt lat="45.11894" lon="5.56007">
        <ele>1177</ele>
        <time>2022-08-12T09:08:30.000Z</time>
      </trkpt>
      <trkpt lat="45.11895" lon="5.56007">
        <ele>1177.1</ele>
        <time>2022-08-12T09:08:31.000Z</time>
      </trkpt>
      <trkpt lat="45.11896" lon="5.56007">
        <ele>1177.2</ele>
        <time>2022-08-12T09:08:32.000Z</time>
      </trkpt>
      <trkpt lat="45.11897" lon="5.56006">
        <ele>1177.3</ele>
        <time>2022-08-12T09:08:33.000Z</time>
      </trkpt>
      <trkpt lat="45.11898" lon="5.56005">
        <ele>1177.6</ele>
        <time>2022-08-12T09:08:34.000Z</time>
      </trkpt>
      <trkpt lat="45.11899" lon="5.56004">
        <ele>1177.7</ele>
        <time>2022-08-12T09:08:35.000Z</time>
      </trkpt>
      <trkpt lat="45.119" lon="5.56004">
        <ele>1177.9</ele>
        <time>2022-08-12T09:08:36.000Z</time>
      </trkpt>
      <trkpt lat="45.11902" lon="5.56004">
        <ele>1178.1</ele>
        <time>2022-08-12T09:08:37.000Z</time>
      </trkpt>
      <trkpt lat="45.11903" lon="5.56002">
        <ele>1178.3</ele>
        <time>2022-08-12T09:08:38.000Z</time>
      </trkpt>
      <trkpt lat="45.11904" lon="5.56001">
        <ele>1178.6</ele>
        <time>2022-08-12T09:08:39.000Z</time>
      </trkpt>
      <trkpt lat="45.11905" lon="5.56">
        <ele>1178.8</ele>
        <time>2022-08-12T09:08:40.000Z</time>
      </trkpt>
      <trkpt lat="45.11907" lon="5.55999">
        <ele>1179</ele>
        <time>2022-08-12T09:08:41.000Z</time>
      </trkpt>
      <trkpt lat="45.11908" lon="5.55998">
        <ele>1179.2</ele>
        <time>2022-08-12T09:08:42.000Z</time>
      </trkpt>
      <trkpt lat="45.1191" lon="5.55998">
        <ele>1179.4</ele>
        <time>2022-08-12T09:08:43.000Z</time>
      </trkpt>
      <trkpt lat="45.11911" lon="5.55997">
        <ele>1179.5</ele>
        <time>2022-08-12T09:08:44.000Z</time>
      </trkpt>
      <trkpt lat="45.11912" lon="5.55996">
        <ele>1179.6</ele>
        <time>2022-08-12T09:08:45.000Z</time>
      </trkpt>
      <trkpt lat="45.11913" lon="5.55996">
        <ele>1179.8</ele>
        <time>2022-08-12T09:08:46.000Z</time>
      </trkpt>
      <trkpt lat="45.11914" lon="5.55995">
        <ele>1179.9</ele>
        <time>2022-08-12T09:08:47.000Z</time>
      </trkpt>
      <trkpt lat="45.11916" lon="5.55994">
        <ele>1180.1</ele>
        <time>2022-08-12T09:08:48.000Z</time>
      </trkpt>
      <trkpt lat="45.11917" lon="5.55994">
        <ele>1180.2</ele>
        <time>2022-08-12T09:08:49.000Z</time>
      </trkpt>
      <trkpt lat="45.11918" lon="5.55993">
        <ele>1180.3</ele>
        <time>2022-08-12T09:08:50.000Z</time>
      </trkpt>
      <trkpt lat="45.11919" lon="5.55993">
        <ele>1180.4</ele>
        <time>2022-08-12T09:08:51.000Z</time>
      </trkpt>
      <trkpt lat="45.11921" lon="5.55992">
        <ele>1180.5</ele>
        <time>2022-08-12T09:08:52.000Z</time>
      </trkpt>
      <trkpt lat="45.11922" lon="5.55992">
        <ele>1180.5</ele>
        <time>2022-08-12T09:08:53.000Z</time>
      </trkpt>
      <trkpt lat="45.11923" lon="5.55992">
        <ele>1180.6</ele>
        <time>2022-08-12T09:08:54.000Z</time>
      </trkpt>
      <trkpt lat="45.11923" lon="5.55991">
        <ele>1180.6</ele>
        <time>2022-08-12T09:08:55.000Z</time>
      </trkpt>
      <trkpt lat="45.11924" lon="5.55991">
        <ele>1180.7</ele>
        <time>2022-08-12T09:08:56.000Z</time>
      </trkpt>
      <trkpt lat="45.11925" lon="5.55991">
        <ele>1180.7</ele>
        <time>2022-08-12T09:08:57.000Z</time>
      </trkpt>
      <trkpt lat="45.11926" lon="5.55991">
        <ele>1180.8</ele>
        <time>2022-08-12T09:08:58.000Z</time>
      </trkpt>
      <trkpt lat="45.11927" lon="5.5599">
        <ele>1180.9</ele>
        <time>2022-08-12T09:08:59.000Z</time>
      </trkpt>
      <trkpt lat="45.11929" lon="5.55989">
        <ele>1181</ele>
        <time>2022-08-12T09:09:00.000Z</time>
      </trkpt>
      <trkpt lat="45.1193" lon="5.55988">
        <ele>1181.1</ele>
        <time>2022-08-12T09:09:01.000Z</time>
      </trkpt>
      <trkpt lat="45.11931" lon="5.55988">
        <ele>1181.2</ele>
        <time>2022-08-12T09:09:02.000Z</time>
      </trkpt>
      <trkpt lat="45.11932" lon="5.55987">
        <ele>1181.3</ele>
        <time>2022-08-12T09:09:03.000Z</time>
      </trkpt>
      <trkpt lat="45.11933" lon="5.55987">
        <ele>1181.3</ele>
        <time>2022-08-12T09:09:04.000Z</time>
      </trkpt>
      <trkpt lat="45.11934" lon="5.55987">
        <ele>1181.4</ele>
        <time>2022-08-12T09:09:05.000Z</time>
      </trkpt>
      <trkpt lat="45.11935" lon="5.55986">
        <ele>1181.5</ele>
        <time>2022-08-12T09:09:06.000Z</time>
      </trkpt>
      <trkpt lat="45.11936" lon="5.55986">
        <ele>1181.6</ele>
        <time>2022-08-12T09:09:07.000Z</time>
      </trkpt>
      <trkpt lat="45.11937" lon="5.55985">
        <ele>1181.7</ele>
        <time>2022-08-12T09:09:08.000Z</time>
      </trkpt>
      <trkpt lat="45.11937" lon="5.55984">
        <ele>1181.7</ele>
        <time>2022-08-12T09:09:09.000Z</time>
      </trkpt>
      <trkpt lat="45.11938" lon="5.55983">
        <ele>1181.9</ele>
        <time>2022-08-12T09:09:10.000Z</time>
      </trkpt>
      <trkpt lat="45.11939" lon="5.55982">
        <ele>1182</ele>
        <time>2022-08-12T09:09:11.000Z</time>
      </trkpt>
      <trkpt lat="45.1194" lon="5.55981">
        <ele>1182.1</ele>
        <time>2022-08-12T09:09:12.000Z</time>
      </trkpt>
      <trkpt lat="45.11941" lon="5.5598">
        <ele>1182.2</ele>
        <time>2022-08-12T09:09:13.000Z</time>
      </trkpt>
      <trkpt lat="45.11942" lon="5.55979">
        <ele>1182.3</ele>
        <time>2022-08-12T09:09:14.000Z</time>
      </trkpt>
      <trkpt lat="45.11942" lon="5.55978">
        <ele>1182.4</ele>
        <time>2022-08-12T09:09:15.000Z</time>
      </trkpt>
      <trkpt lat="45.11943" lon="5.55977">
        <ele>1182.6</ele>
        <time>2022-08-12T09:09:16.000Z</time>
      </trkpt>
      <trkpt lat="45.11945" lon="5.55976">
        <ele>1182.7</ele>
        <time>2022-08-12T09:09:17.000Z</time>
      </trkpt>
      <trkpt lat="45.11946" lon="5.55975">
        <ele>1182.8</ele>
        <time>2022-08-12T09:09:18.000Z</time>
      </trkpt>
      <trkpt lat="45.11947" lon="5.55974">
        <ele>1183</ele>
        <time>2022-08-12T09:09:19.000Z</time>
      </trkpt>
      <trkpt lat="45.11949" lon="5.55974">
        <ele>1183</ele>
        <time>2022-08-12T09:09:20.000Z</time>
      </trkpt>
      <trkpt lat="45.1195" lon="5.55973">
        <ele>1183.2</ele>
        <time>2022-08-12T09:09:21.000Z</time>
      </trkpt>
      <trkpt lat="45.11952" lon="5.55972">
        <ele>1183.3</ele>
        <time>2022-08-12T09:09:22.000Z</time>
      </trkpt>
      <trkpt lat="45.11953" lon="5.55971">
        <ele>1183.4</ele>
        <time>2022-08-12T09:09:23.000Z</time>
      </trkpt>
      <trkpt lat="45.11954" lon="5.55971">
        <ele>1183.4</ele>
        <time>2022-08-12T09:09:24.000Z</time>
      </trkpt>
      <trkpt lat="45.11956" lon="5.5597">
        <ele>1183.5</ele>
        <time>2022-08-12T09:09:25.000Z</time>
      </trkpt>
      <trkpt lat="45.11957" lon="5.55969">
        <ele>1183.6</ele>
        <time>2022-08-12T09:09:26.000Z</time>
      </trkpt>
      <trkpt lat="45.11959" lon="5.55968">
        <ele>1183.7</ele>
        <time>2022-08-12T09:09:27.000Z</time>
      </trkpt>
      <trkpt lat="45.1196" lon="5.55967">
        <ele>1183.9</ele>
        <time>2022-08-12T09:09:28.000Z</time>
      </trkpt>
      <trkpt lat="45.11961" lon="5.55966">
        <ele>1183.9</ele>
        <time>2022-08-12T09:09:29.000Z</time>
      </trkpt>
      <trkpt lat="45.11962" lon="5.55966">
        <ele>1184</ele>
        <time>2022-08-12T09:09:30.000Z</time>
      </trkpt>
      <trkpt lat="45.11964" lon="5.55965">
        <ele>1184.1</ele>
        <time>2022-08-12T09:09:31.000Z</time>
      </trkpt>
      <trkpt lat="45.11965" lon="5.55965">
        <ele>1184.2</ele>
        <time>2022-08-12T09:09:32.000Z</time>
      </trkpt>
      <trkpt lat="45.11967" lon="5.55964">
        <ele>1184.3</ele>
        <time>2022-08-12T09:09:33.000Z</time>
      </trkpt>
      <trkpt lat="45.11968" lon="5.55963">
        <ele>1184.5</ele>
        <time>2022-08-12T09:09:34.000Z</time>
      </trkpt>
      <trkpt lat="45.11969" lon="5.55962">
        <ele>1184.6</ele>
        <time>2022-08-12T09:09:35.000Z</time>
      </trkpt>
      <trkpt lat="45.1197" lon="5.55962">
        <ele>1184.6</ele>
        <time>2022-08-12T09:09:36.000Z</time>
      </trkpt>
      <trkpt lat="45.11971" lon="5.55961">
        <ele>1184.7</ele>
        <time>2022-08-12T09:09:37.000Z</time>
      </trkpt>
      <trkpt lat="45.11972" lon="5.5596">
        <ele>1184.8</ele>
        <time>2022-08-12T09:09:38.000Z</time>
      </trkpt>
      <trkpt lat="45.11973" lon="5.5596">
        <ele>1184.9</ele>
        <time>2022-08-12T09:09:39.000Z</time>
      </trkpt>
      <trkpt lat="45.11974" lon="5.55959">
        <ele>1185</ele>
        <time>2022-08-12T09:09:40.000Z</time>
      </trkpt>
      <trkpt lat="45.11975" lon="5.55958">
        <ele>1185.1</ele>
        <time>2022-08-12T09:09:41.000Z</time>
      </trkpt>
      <trkpt lat="45.11976" lon="5.55957">
        <ele>1185.2</ele>
        <time>2022-08-12T09:09:42.000Z</time>
      </trkpt>
      <trkpt lat="45.11977" lon="5.55956">
        <ele>1185.3</ele>
        <time>2022-08-12T09:09:43.000Z</time>
      </trkpt>
      <trkpt lat="45.11978" lon="5.55955">
        <ele>1185.5</ele>
        <time>2022-08-12T09:09:44.000Z</time>
      </trkpt>
      <trkpt lat="45.11979" lon="5.55954">
        <ele>1185.6</ele>
        <time>2022-08-12T09:09:45.000Z</time>
      </trkpt>
      <trkpt lat="45.11981" lon="5.55953">
        <ele>1185.7</ele>
        <time>2022-08-12T09:09:46.000Z</time>
      </trkpt>
      <trkpt lat="45.11982" lon="5.55952">
        <ele>1185.8</ele>
        <time>2022-08-12T09:09:47.000Z</time>
      </trkpt>
      <trkpt lat="45.11983" lon="5.55951">
        <ele>1185.9</ele>
        <time>2022-08-12T09:09:48.000Z</time>
      </trkpt>
      <trkpt lat="45.11984" lon="5.5595">
        <ele>1186</ele>
        <time>2022-08-12T09:09:49.000Z</time>
      </trkpt>
      <trkpt lat="45.11985" lon="5.55949">
        <ele>1186.1</ele>
        <time>2022-08-12T09:09:50.000Z</time>
      </trkpt>
      <trkpt lat="45.11986" lon="5.55949">
        <ele>1186.2</ele>
        <time>2022-08-12T09:09:51.000Z</time>
      </trkpt>
      <trkpt lat="45.11987" lon="5.55947">
        <ele>1186.3</ele>
        <time>2022-08-12T09:09:52.000Z</time>
      </trkpt>
      <trkpt lat="45.11988" lon="5.55946">
        <ele>1186.5</ele>
        <time>2022-08-12T09:09:53.000Z</time>
      </trkpt>
      <trkpt lat="45.1199" lon="5.55945">
        <ele>1186.6</ele>
        <time>2022-08-12T09:09:54.000Z</time>
      </trkpt>
      <trkpt lat="45.11991" lon="5.55944">
        <ele>1186.7</ele>
        <time>2022-08-12T09:09:55.000Z</time>
      </trkpt>
      <trkpt lat="45.11992" lon="5.55942">
        <ele>1186.8</ele>
        <time>2022-08-12T09:09:56.000Z</time>
      </trkpt>
      <trkpt lat="45.11993" lon="5.55941">
        <ele>1186.9</ele>
        <time>2022-08-12T09:09:57.000Z</time>
      </trkpt>
      <trkpt lat="45.11995" lon="5.55941">
        <ele>1187</ele>
        <time>2022-08-12T09:09:58.000Z</time>
      </trkpt>
      <trkpt lat="45.11996" lon="5.5594">
        <ele>1187.1</ele>
        <time>2022-08-12T09:09:59.000Z</time>
      </trkpt>
      <trkpt lat="45.11997" lon="5.5594">
        <ele>1187.2</ele>
        <time>2022-08-12T09:10:00.000Z</time>
      </trkpt>
      <trkpt lat="45.11998" lon="5.55939">
        <ele>1187.3</ele>
        <time>2022-08-12T09:10:01.000Z</time>
      </trkpt>
      <trkpt lat="45.12" lon="5.55939">
        <ele>1187.4</ele>
        <time>2022-08-12T09:10:02.000Z</time>
      </trkpt>
      <trkpt lat="45.12001" lon="5.55938">
        <ele>1187.5</ele>
        <time>2022-08-12T09:10:03.000Z</time>
      </trkpt>
      <trkpt lat="45.12002" lon="5.55937">
        <ele>1187.6</ele>
        <time>2022-08-12T09:10:04.000Z</time>
      </trkpt>
      <trkpt lat="45.12004" lon="5.55933">
        <ele>1187.8</ele>
        <time>2022-08-12T09:10:07.000Z</time>
      </trkpt>
      <trkpt lat="45.12005" lon="5.55932">
        <ele>1187.9</ele>
        <time>2022-08-12T09:10:08.000Z</time>
      </trkpt>
      <trkpt lat="45.12006" lon="5.55931">
        <ele>1187.9</ele>
        <time>2022-08-12T09:10:09.000Z</time>
      </trkpt>
      <trkpt lat="45.12016" lon="5.55925">
        <ele>1188.4</ele>
        <time>2022-08-12T09:10:15.000Z</time>
      </trkpt>
      <trkpt lat="45.12019" lon="5.55922">
        <ele>1188.6</ele>
        <time>2022-08-12T09:10:19.000Z</time>
      </trkpt>
      <trkpt lat="45.1202" lon="5.5592">
        <ele>1188.8</ele>
        <time>2022-08-12T09:10:21.000Z</time>
      </trkpt>
      <trkpt lat="45.12021" lon="5.55919">
        <ele>1188.8</ele>
        <time>2022-08-12T09:10:22.000Z</time>
      </trkpt>
      <trkpt lat="45.12022" lon="5.55918">
        <ele>1188.9</ele>
        <time>2022-08-12T09:10:23.000Z</time>
      </trkpt>
      <trkpt lat="45.12023" lon="5.55917">
        <ele>1189</ele>
        <time>2022-08-12T09:10:24.000Z</time>
      </trkpt>
      <trkpt lat="45.12024" lon="5.55916">
        <ele>1189</ele>
        <time>2022-08-12T09:10:25.000Z</time>
      </trkpt>
      <trkpt lat="45.12025" lon="5.55915">
        <ele>1189.1</ele>
        <time>2022-08-12T09:10:26.000Z</time>
      </trkpt>
      <trkpt lat="45.12026" lon="5.55914">
        <ele>1189.2</ele>
        <time>2022-08-12T09:10:27.000Z</time>
      </trkpt>
      <trkpt lat="45.12027" lon="5.55914">
        <ele>1189.3</ele>
        <time>2022-08-12T09:10:28.000Z</time>
      </trkpt>
      <trkpt lat="45.12028" lon="5.55913">
        <ele>1189.4</ele>
        <time>2022-08-12T09:10:29.000Z</time>
      </trkpt>
      <trkpt lat="45.12029" lon="5.55912">
        <ele>1189.5</ele>
        <time>2022-08-12T09:10:30.000Z</time>
      </trkpt>
      <trkpt lat="45.1203" lon="5.55911">
        <ele>1189.6</ele>
        <time>2022-08-12T09:10:31.000Z</time>
      </trkpt>
      <trkpt lat="45.1203" lon="5.5591">
        <ele>1189.7</ele>
        <time>2022-08-12T09:10:32.000Z</time>
      </trkpt>
      <trkpt lat="45.12031" lon="5.55908">
        <ele>1189.8</ele>
        <time>2022-08-12T09:10:33.000Z</time>
      </trkpt>
      <trkpt lat="45.12032" lon="5.55907">
        <ele>1189.9</ele>
        <time>2022-08-12T09:10:34.000Z</time>
      </trkpt>
      <trkpt lat="45.12032" lon="5.55905">
        <ele>1190.1</ele>
        <time>2022-08-12T09:10:35.000Z</time>
      </trkpt>
      <trkpt lat="45.12033" lon="5.55904">
        <ele>1190.2</ele>
        <time>2022-08-12T09:10:36.000Z</time>
      </trkpt>
      <trkpt lat="45.12034" lon="5.55902">
        <ele>1190.3</ele>
        <time>2022-08-12T09:10:37.000Z</time>
      </trkpt>
      <trkpt lat="45.12035" lon="5.55901">
        <ele>1190.4</ele>
        <time>2022-08-12T09:10:38.000Z</time>
      </trkpt>
      <trkpt lat="45.12036" lon="5.559">
        <ele>1190.5</ele>
        <time>2022-08-12T09:10:39.000Z</time>
      </trkpt>
      <trkpt lat="45.12037" lon="5.55899">
        <ele>1190.6</ele>
        <time>2022-08-12T09:10:40.000Z</time>
      </trkpt>
      <trkpt lat="45.12038" lon="5.55897">
        <ele>1190.7</ele>
        <time>2022-08-12T09:10:41.000Z</time>
      </trkpt>
      <trkpt lat="45.12039" lon="5.55895">
        <ele>1190.9</ele>
        <time>2022-08-12T09:10:42.000Z</time>
      </trkpt>
      <trkpt lat="45.1204" lon="5.55893">
        <ele>1191.1</ele>
        <time>2022-08-12T09:10:43.000Z</time>
      </trkpt>
      <trkpt lat="45.12041" lon="5.55892">
        <ele>1191.2</ele>
        <time>2022-08-12T09:10:44.000Z</time>
      </trkpt>
      <trkpt lat="45.12041" lon="5.5589">
        <ele>1191.4</ele>
        <time>2022-08-12T09:10:45.000Z</time>
      </trkpt>
      <trkpt lat="45.12042" lon="5.55888">
        <ele>1191.6</ele>
        <time>2022-08-12T09:10:46.000Z</time>
      </trkpt>
      <trkpt lat="45.12044" lon="5.55881">
        <ele>1192.2</ele>
        <time>2022-08-12T09:10:50.000Z</time>
      </trkpt>
      <trkpt lat="45.12045" lon="5.55877">
        <ele>1192.5</ele>
        <time>2022-08-12T09:10:52.000Z</time>
      </trkpt>
      <trkpt lat="45.12045" lon="5.55875">
        <ele>1192.7</ele>
        <time>2022-08-12T09:10:53.000Z</time>
      </trkpt>
      <trkpt lat="45.12045" lon="5.5587">
        <ele>1193.1</ele>
        <time>2022-08-12T09:10:55.000Z</time>
      </trkpt>
      <trkpt lat="45.12045" lon="5.55868">
        <ele>1193.4</ele>
        <time>2022-08-12T09:10:56.000Z</time>
      </trkpt>
      <trkpt lat="45.12044" lon="5.55866">
        <ele>1193.6</ele>
        <time>2022-08-12T09:10:57.000Z</time>
      </trkpt>
      <trkpt lat="45.12045" lon="5.55864">
        <ele>1193.7</ele>
        <time>2022-08-12T09:10:58.000Z</time>
      </trkpt>
      <trkpt lat="45.12045" lon="5.55862">
        <ele>1193.9</ele>
        <time>2022-08-12T09:10:59.000Z</time>
      </trkpt>
      <trkpt lat="45.12045" lon="5.5586">
        <ele>1194</ele>
        <time>2022-08-12T09:11:00.000Z</time>
      </trkpt>
      <trkpt lat="45.12047" lon="5.55854">
        <ele>1194.4</ele>
        <time>2022-08-12T09:11:03.000Z</time>
      </trkpt>
      <trkpt lat="45.12048" lon="5.55849">
        <ele>1194.7</ele>
        <time>2022-08-12T09:11:05.000Z</time>
      </trkpt>
      <trkpt lat="45.12049" lon="5.55848">
        <ele>1194.8</ele>
        <time>2022-08-12T09:11:06.000Z</time>
      </trkpt>
      <trkpt lat="45.1205" lon="5.55846">
        <ele>1195</ele>
        <time>2022-08-12T09:11:07.000Z</time>
      </trkpt>
      <trkpt lat="45.12053" lon="5.55834">
        <ele>1195.9</ele>
        <time>2022-08-12T09:11:12.000Z</time>
      </trkpt>
      <trkpt lat="45.12054" lon="5.55833">
        <ele>1196</ele>
        <time>2022-08-12T09:11:13.000Z</time>
      </trkpt>
      <trkpt lat="45.12055" lon="5.55831">
        <ele>1196.1</ele>
        <time>2022-08-12T09:11:14.000Z</time>
      </trkpt>
      <trkpt lat="45.12055" lon="5.55827">
        <ele>1196.2</ele>
        <time>2022-08-12T09:11:16.000Z</time>
      </trkpt>
      <trkpt lat="45.12056" lon="5.55825">
        <ele>1196.2</ele>
        <time>2022-08-12T09:11:17.000Z</time>
      </trkpt>
      <trkpt lat="45.12057" lon="5.55823">
        <ele>1196.2</ele>
        <time>2022-08-12T09:11:18.000Z</time>
      </trkpt>
      <trkpt lat="45.12058" lon="5.55822">
        <ele>1196.1</ele>
        <time>2022-08-12T09:11:19.000Z</time>
      </trkpt>
      <trkpt lat="45.12059" lon="5.5582">
        <ele>1196</ele>
        <time>2022-08-12T09:11:20.000Z</time>
      </trkpt>
      <trkpt lat="45.1206" lon="5.55818">
        <ele>1196</ele>
        <time>2022-08-12T09:11:21.000Z</time>
      </trkpt>
      <trkpt lat="45.12061" lon="5.55816">
        <ele>1196</ele>
        <time>2022-08-12T09:11:22.000Z</time>
      </trkpt>
      <trkpt lat="45.12061" lon="5.55815">
        <ele>1196</ele>
        <time>2022-08-12T09:11:23.000Z</time>
      </trkpt>
      <trkpt lat="45.1206" lon="5.55813">
        <ele>1196.2</ele>
        <time>2022-08-12T09:11:24.000Z</time>
      </trkpt>
      <trkpt lat="45.12059" lon="5.55812">
        <ele>1196.3</ele>
        <time>2022-08-12T09:11:25.000Z</time>
      </trkpt>
      <trkpt lat="45.12058" lon="5.5581">
        <ele>1196.5</ele>
        <time>2022-08-12T09:11:26.000Z</time>
      </trkpt>
      <trkpt lat="45.12058" lon="5.55808">
        <ele>1196.7</ele>
        <time>2022-08-12T09:11:27.000Z</time>
      </trkpt>
      <trkpt lat="45.12057" lon="5.55806">
        <ele>1196.9</ele>
        <time>2022-08-12T09:11:28.000Z</time>
      </trkpt>
      <trkpt lat="45.12055" lon="5.55803">
        <ele>1197.1</ele>
        <time>2022-08-12T09:11:30.000Z</time>
      </trkpt>
      <trkpt lat="45.12054" lon="5.55801">
        <ele>1197.1</ele>
        <time>2022-08-12T09:11:31.000Z</time>
      </trkpt>
      <trkpt lat="45.12053" lon="5.55801">
        <ele>1197.1</ele>
        <time>2022-08-12T09:11:33.000Z</time>
      </trkpt>
      <trkpt lat="45.12053" lon="5.55802">
        <ele>1197.1</ele>
        <time>2022-08-12T09:11:34.000Z</time>
      </trkpt>
      <trkpt lat="45.12055" lon="5.55803">
        <ele>1197.1</ele>
        <time>2022-08-12T09:11:39.000Z</time>
      </trkpt>
      <trkpt lat="45.12056" lon="5.55803">
        <ele>1197</ele>
        <time>2022-08-12T09:11:41.000Z</time>
      </trkpt>
      <trkpt lat="45.12057" lon="5.55804">
        <ele>1196.9</ele>
        <time>2022-08-12T09:11:42.000Z</time>
      </trkpt>
      <trkpt lat="45.12057" lon="5.55805">
        <ele>1196.9</ele>
        <time>2022-08-12T09:11:43.000Z</time>
      </trkpt>
      <trkpt lat="45.12057" lon="5.55806">
        <ele>1196.9</ele>
        <time>2022-08-12T09:11:44.000Z</time>
      </trkpt>
      <trkpt lat="45.12057" lon="5.55807">
        <ele>1196.8</ele>
        <time>2022-08-12T09:11:45.000Z</time>
      </trkpt>
      <trkpt lat="45.12058" lon="5.55808">
        <ele>1196.7</ele>
        <time>2022-08-12T09:11:48.000Z</time>
      </trkpt>
      <trkpt lat="45.12058" lon="5.55806">
        <ele>1196.7</ele>
        <time>2022-08-12T09:11:55.000Z</time>
      </trkpt>
      <trkpt lat="45.12057" lon="5.55805">
        <ele>1196.9</ele>
        <time>2022-08-12T09:11:56.000Z</time>
      </trkpt>
      <trkpt lat="45.12059" lon="5.55804">
        <ele>1196.8</ele>
        <time>2022-08-12T09:12:00.000Z</time>
      </trkpt>
      <trkpt lat="45.12059" lon="5.55803">
        <ele>1196.7</ele>
        <time>2022-08-12T09:12:01.000Z</time>
      </trkpt>
      <trkpt lat="45.1206" lon="5.55801">
        <ele>1196.7</ele>
        <time>2022-08-12T09:12:02.000Z</time>
      </trkpt>
      <trkpt lat="45.1206" lon="5.558">
        <ele>1196.7</ele>
        <time>2022-08-12T09:12:03.000Z</time>
      </trkpt>
      <trkpt lat="45.1206" lon="5.55799">
        <ele>1196.7</ele>
        <time>2022-08-12T09:12:05.000Z</time>
      </trkpt>
      <trkpt lat="45.12058" lon="5.55799">
        <ele>1196.9</ele>
        <time>2022-08-12T09:12:15.000Z</time>
      </trkpt>
      <trkpt lat="45.12056" lon="5.55797">
        <ele>1197.3</ele>
        <time>2022-08-12T09:13:21.000Z</time>
      </trkpt>
      <trkpt lat="45.12054" lon="5.55796">
        <ele>1197.3</ele>
        <time>2022-08-12T09:13:22.000Z</time>
      </trkpt>
      <trkpt lat="45.12053" lon="5.55795">
        <ele>1197.3</ele>
        <time>2022-08-12T09:13:23.000Z</time>
      </trkpt>
      <trkpt lat="45.12051" lon="5.55794">
        <ele>1197.3</ele>
        <time>2022-08-12T09:13:24.000Z</time>
      </trkpt>
      <trkpt lat="45.12046" lon="5.55789">
        <ele>1197.4</ele>
        <time>2022-08-12T09:13:27.000Z</time>
      </trkpt>
      <trkpt lat="45.12037" lon="5.55781">
        <ele>1197.8</ele>
        <time>2022-08-12T09:13:33.000Z</time>
      </trkpt>
      <trkpt lat="45.12035" lon="5.55778">
        <ele>1198</ele>
        <time>2022-08-12T09:13:35.000Z</time>
      </trkpt>
      <trkpt lat="45.12034" lon="5.55777">
        <ele>1198</ele>
        <time>2022-08-12T09:13:36.000Z</time>
      </trkpt>
      <trkpt lat="45.12031" lon="5.55773">
        <ele>1198.2</ele>
        <time>2022-08-12T09:13:38.000Z</time>
      </trkpt>
      <trkpt lat="45.1203" lon="5.55771">
        <ele>1198.2</ele>
        <time>2022-08-12T09:13:39.000Z</time>
      </trkpt>
      <trkpt lat="45.12027" lon="5.55767">
        <ele>1198.4</ele>
        <time>2022-08-12T09:13:41.000Z</time>
      </trkpt>
      <trkpt lat="45.12022" lon="5.5576">
        <ele>1198.3</ele>
        <time>2022-08-12T09:13:46.000Z</time>
      </trkpt>
      <trkpt lat="45.12017" lon="5.55756">
        <ele>1198.3</ele>
        <time>2022-08-12T09:13:49.000Z</time>
      </trkpt>
      <trkpt lat="45.12016" lon="5.55754">
        <ele>1198.3</ele>
        <time>2022-08-12T09:13:50.000Z</time>
      </trkpt>
      <trkpt lat="45.12016" lon="5.55753">
        <ele>1198.3</ele>
        <time>2022-08-12T09:13:51.000Z</time>
      </trkpt>
      <trkpt lat="45.12015" lon="5.55752">
        <ele>1198.4</ele>
        <time>2022-08-12T09:13:52.000Z</time>
      </trkpt>
      <trkpt lat="45.12014" lon="5.55751">
        <ele>1198.4</ele>
        <time>2022-08-12T09:13:53.000Z</time>
      </trkpt>
      <trkpt lat="45.12013" lon="5.5575">
        <ele>1198.5</ele>
        <time>2022-08-12T09:13:54.000Z</time>
      </trkpt>
      <trkpt lat="45.12013" lon="5.55749">
        <ele>1198.5</ele>
        <time>2022-08-12T09:13:55.000Z</time>
      </trkpt>
      <trkpt lat="45.12012" lon="5.55748">
        <ele>1198.6</ele>
        <time>2022-08-12T09:13:57.000Z</time>
      </trkpt>
      <trkpt lat="45.12011" lon="5.55747">
        <ele>1198.6</ele>
        <time>2022-08-12T09:13:59.000Z</time>
      </trkpt>
      <trkpt lat="45.1201" lon="5.55745">
        <ele>1198.7</ele>
        <time>2022-08-12T09:14:00.000Z</time>
      </trkpt>
      <trkpt lat="45.12009" lon="5.55743">
        <ele>1198.8</ele>
        <time>2022-08-12T09:14:01.000Z</time>
      </trkpt>
      <trkpt lat="45.12007" lon="5.55741">
        <ele>1198.9</ele>
        <time>2022-08-12T09:14:02.000Z</time>
      </trkpt>
      <trkpt lat="45.12006" lon="5.55739">
        <ele>1199</ele>
        <time>2022-08-12T09:14:03.000Z</time>
      </trkpt>
      <trkpt lat="45.12003" lon="5.55737">
        <ele>1199</ele>
        <time>2022-08-12T09:14:04.000Z</time>
      </trkpt>
      <trkpt lat="45.12002" lon="5.55735">
        <ele>1199.1</ele>
        <time>2022-08-12T09:14:05.000Z</time>
      </trkpt>
      <trkpt lat="45.12001" lon="5.55734">
        <ele>1199.2</ele>
        <time>2022-08-12T09:14:06.000Z</time>
      </trkpt>
      <trkpt lat="45.11999" lon="5.55733">
        <ele>1199.2</ele>
        <time>2022-08-12T09:14:07.000Z</time>
      </trkpt>
      <trkpt lat="45.11998" lon="5.55732">
        <ele>1199.2</ele>
        <time>2022-08-12T09:14:08.000Z</time>
      </trkpt>
      <trkpt lat="45.11994" lon="5.55729">
        <ele>1199.3</ele>
        <time>2022-08-12T09:14:11.000Z</time>
      </trkpt>
      <trkpt lat="45.11992" lon="5.55728">
        <ele>1199.3</ele>
        <time>2022-08-12T09:14:12.000Z</time>
      </trkpt>
      <trkpt lat="45.11991" lon="5.55727">
        <ele>1199.3</ele>
        <time>2022-08-12T09:14:13.000Z</time>
      </trkpt>
      <trkpt lat="45.1199" lon="5.55726">
        <ele>1199.3</ele>
        <time>2022-08-12T09:14:14.000Z</time>
      </trkpt>
      <trkpt lat="45.11989" lon="5.55724">
        <ele>1199.4</ele>
        <time>2022-08-12T09:14:15.000Z</time>
      </trkpt>
      <trkpt lat="45.11988" lon="5.55723">
        <ele>1199.5</ele>
        <time>2022-08-12T09:14:16.000Z</time>
      </trkpt>
      <trkpt lat="45.11987" lon="5.55722">
        <ele>1199.5</ele>
        <time>2022-08-12T09:14:17.000Z</time>
      </trkpt>
      <trkpt lat="45.11986" lon="5.55721">
        <ele>1199.6</ele>
        <time>2022-08-12T09:14:18.000Z</time>
      </trkpt>
      <trkpt lat="45.11985" lon="5.5572">
        <ele>1199.7</ele>
        <time>2022-08-12T09:14:20.000Z</time>
      </trkpt>
      <trkpt lat="45.11985" lon="5.55718">
        <ele>1199.8</ele>
        <time>2022-08-12T09:14:21.000Z</time>
      </trkpt>
      <trkpt lat="45.11984" lon="5.55717">
        <ele>1199.9</ele>
        <time>2022-08-12T09:14:24.000Z</time>
      </trkpt>
      <trkpt lat="45.11983" lon="5.55716">
        <ele>1200</ele>
        <time>2022-08-12T09:14:25.000Z</time>
      </trkpt>
      <trkpt lat="45.11981" lon="5.55714">
        <ele>1200.2</ele>
        <time>2022-08-12T09:14:26.000Z</time>
      </trkpt>
      <trkpt lat="45.11979" lon="5.55712">
        <ele>1200.3</ele>
        <time>2022-08-12T09:14:27.000Z</time>
      </trkpt>
      <trkpt lat="45.11978" lon="5.55711">
        <ele>1200.3</ele>
        <time>2022-08-12T09:14:28.000Z</time>
      </trkpt>
      <trkpt lat="45.11976" lon="5.5571">
        <ele>1200.4</ele>
        <time>2022-08-12T09:14:29.000Z</time>
      </trkpt>
      <trkpt lat="45.11975" lon="5.55709">
        <ele>1200.4</ele>
        <time>2022-08-12T09:14:30.000Z</time>
      </trkpt>
      <trkpt lat="45.11974" lon="5.55709">
        <ele>1200.5</ele>
        <time>2022-08-12T09:14:31.000Z</time>
      </trkpt>
      <trkpt lat="45.11972" lon="5.55708">
        <ele>1200.5</ele>
        <time>2022-08-12T09:14:32.000Z</time>
      </trkpt>
      <trkpt lat="45.11971" lon="5.55707">
        <ele>1200.6</ele>
        <time>2022-08-12T09:14:33.000Z</time>
      </trkpt>
      <trkpt lat="45.1197" lon="5.55705">
        <ele>1200.7</ele>
        <time>2022-08-12T09:14:34.000Z</time>
      </trkpt>
      <trkpt lat="45.11969" lon="5.55704">
        <ele>1200.7</ele>
        <time>2022-08-12T09:14:35.000Z</time>
      </trkpt>
      <trkpt lat="45.11968" lon="5.55702">
        <ele>1200.9</ele>
        <time>2022-08-12T09:14:36.000Z</time>
      </trkpt>
      <trkpt lat="45.11968" lon="5.55699">
        <ele>1201.2</ele>
        <time>2022-08-12T09:14:37.000Z</time>
      </trkpt>
      <trkpt lat="45.11967" lon="5.55696">
        <ele>1201.5</ele>
        <time>2022-08-12T09:14:38.000Z</time>
      </trkpt>
      <trkpt lat="45.11967" lon="5.55693">
        <ele>1201.7</ele>
        <time>2022-08-12T09:14:39.000Z</time>
      </trkpt>
      <trkpt lat="45.11966" lon="5.55691">
        <ele>1201.8</ele>
        <time>2022-08-12T09:14:40.000Z</time>
      </trkpt>
      <trkpt lat="45.11965" lon="5.55689">
        <ele>1201.9</ele>
        <time>2022-08-12T09:14:41.000Z</time>
      </trkpt>
      <trkpt lat="45.11964" lon="5.55685">
        <ele>1202.2</ele>
        <time>2022-08-12T09:14:43.000Z</time>
      </trkpt>
      <trkpt lat="45.11964" lon="5.55683">
        <ele>1202.4</ele>
        <time>2022-08-12T09:14:44.000Z</time>
      </trkpt>
      <trkpt lat="45.11964" lon="5.55681">
        <ele>1202.5</ele>
        <time>2022-08-12T09:14:45.000Z</time>
      </trkpt>
      <trkpt lat="45.11964" lon="5.55679">
        <ele>1202.7</ele>
        <time>2022-08-12T09:14:46.000Z</time>
      </trkpt>
      <trkpt lat="45.11964" lon="5.55678">
        <ele>1202.8</ele>
        <time>2022-08-12T09:14:47.000Z</time>
      </trkpt>
      <trkpt lat="45.11964" lon="5.55677">
        <ele>1202.8</ele>
        <time>2022-08-12T09:14:48.000Z</time>
      </trkpt>
      <trkpt lat="45.11964" lon="5.55675">
        <ele>1203</ele>
        <time>2022-08-12T09:14:50.000Z</time>
      </trkpt>
      <trkpt lat="45.11964" lon="5.55674">
        <ele>1203.1</ele>
        <time>2022-08-12T09:14:51.000Z</time>
      </trkpt>
      <trkpt lat="45.11964" lon="5.55672">
        <ele>1203.2</ele>
        <time>2022-08-12T09:14:52.000Z</time>
      </trkpt>
      <trkpt lat="45.11964" lon="5.5567">
        <ele>1203.4</ele>
        <time>2022-08-12T09:14:53.000Z</time>
      </trkpt>
      <trkpt lat="45.11964" lon="5.55669">
        <ele>1203.5</ele>
        <time>2022-08-12T09:14:56.000Z</time>
      </trkpt>
      <trkpt lat="45.11963" lon="5.55667">
        <ele>1203.6</ele>
        <time>2022-08-12T09:14:57.000Z</time>
      </trkpt>
      <trkpt lat="45.11963" lon="5.55665">
        <ele>1203.8</ele>
        <time>2022-08-12T09:14:58.000Z</time>
      </trkpt>
      <trkpt lat="45.11963" lon="5.55664">
        <ele>1203.9</ele>
        <time>2022-08-12T09:14:59.000Z</time>
      </trkpt>
      <trkpt lat="45.11962" lon="5.55662">
        <ele>1204</ele>
        <time>2022-08-12T09:15:00.000Z</time>
      </trkpt>
      <trkpt lat="45.11963" lon="5.5566">
        <ele>1204.1</ele>
        <time>2022-08-12T09:15:01.000Z</time>
      </trkpt>
      <trkpt lat="45.11963" lon="5.55659">
        <ele>1204.2</ele>
        <time>2022-08-12T09:15:02.000Z</time>
      </trkpt>
      <trkpt lat="45.11963" lon="5.55658">
        <ele>1204.3</ele>
        <time>2022-08-12T09:15:03.000Z</time>
      </trkpt>
      <trkpt lat="45.11962" lon="5.55656">
        <ele>1204.4</ele>
        <time>2022-08-12T09:15:04.000Z</time>
      </trkpt>
      <trkpt lat="45.11961" lon="5.55655">
        <ele>1204.5</ele>
        <time>2022-08-12T09:15:05.000Z</time>
      </trkpt>
      <trkpt lat="45.1196" lon="5.55653">
        <ele>1204.5</ele>
        <time>2022-08-12T09:15:06.000Z</time>
      </trkpt>
      <trkpt lat="45.11959" lon="5.55651">
        <ele>1204.6</ele>
        <time>2022-08-12T09:15:07.000Z</time>
      </trkpt>
      <trkpt lat="45.11958" lon="5.55648">
        <ele>1204.9</ele>
        <time>2022-08-12T09:15:08.000Z</time>
      </trkpt>
      <trkpt lat="45.11957" lon="5.55645">
        <ele>1205</ele>
        <time>2022-08-12T09:15:09.000Z</time>
      </trkpt>
      <trkpt lat="45.11956" lon="5.55643">
        <ele>1205.1</ele>
        <time>2022-08-12T09:15:10.000Z</time>
      </trkpt>
      <trkpt lat="45.11956" lon="5.55641">
        <ele>1205.2</ele>
        <time>2022-08-12T09:15:11.000Z</time>
      </trkpt>
      <trkpt lat="45.11955" lon="5.55639">
        <ele>1205.4</ele>
        <time>2022-08-12T09:15:12.000Z</time>
      </trkpt>
      <trkpt lat="45.11954" lon="5.55636">
        <ele>1205.6</ele>
        <time>2022-08-12T09:15:13.000Z</time>
      </trkpt>
      <trkpt lat="45.11953" lon="5.55633">
        <ele>1205.8</ele>
        <time>2022-08-12T09:15:14.000Z</time>
      </trkpt>
      <trkpt lat="45.11952" lon="5.5563">
        <ele>1206</ele>
        <time>2022-08-12T09:15:15.000Z</time>
      </trkpt>
      <trkpt lat="45.11951" lon="5.55627">
        <ele>1206.2</ele>
        <time>2022-08-12T09:15:16.000Z</time>
      </trkpt>
      <trkpt lat="45.11949" lon="5.55626">
        <ele>1206.2</ele>
        <time>2022-08-12T09:15:17.000Z</time>
      </trkpt>
      <trkpt lat="45.11946" lon="5.55623">
        <ele>1206.2</ele>
        <time>2022-08-12T09:15:18.000Z</time>
      </trkpt>
      <trkpt lat="45.11945" lon="5.55621">
        <ele>1206.3</ele>
        <time>2022-08-12T09:15:19.000Z</time>
      </trkpt>
      <trkpt lat="45.11943" lon="5.55617">
        <ele>1206.4</ele>
        <time>2022-08-12T09:15:21.000Z</time>
      </trkpt>
      <trkpt lat="45.11942" lon="5.55614">
        <ele>1206.5</ele>
        <time>2022-08-12T09:15:22.000Z</time>
      </trkpt>
      <trkpt lat="45.11941" lon="5.55612">
        <ele>1206.5</ele>
        <time>2022-08-12T09:15:23.000Z</time>
      </trkpt>
      <trkpt lat="45.1194" lon="5.55611">
        <ele>1206.5</ele>
        <time>2022-08-12T09:15:24.000Z</time>
      </trkpt>
      <trkpt lat="45.11939" lon="5.5561">
        <ele>1206.6</ele>
        <time>2022-08-12T09:15:25.000Z</time>
      </trkpt>
      <trkpt lat="45.11938" lon="5.55608">
        <ele>1206.7</ele>
        <time>2022-08-12T09:15:26.000Z</time>
      </trkpt>
      <trkpt lat="45.11937" lon="5.55607">
        <ele>1206.8</ele>
        <time>2022-08-12T09:15:27.000Z</time>
      </trkpt>
      <trkpt lat="45.11936" lon="5.55605">
        <ele>1206.8</ele>
        <time>2022-08-12T09:15:28.000Z</time>
      </trkpt>
      <trkpt lat="45.1193" lon="5.55594">
        <ele>1207.5</ele>
        <time>2022-08-12T09:15:34.000Z</time>
      </trkpt>
      <trkpt lat="45.11929" lon="5.55593">
        <ele>1207.6</ele>
        <time>2022-08-12T09:15:35.000Z</time>
      </trkpt>
      <trkpt lat="45.11929" lon="5.55591">
        <ele>1207.9</ele>
        <time>2022-08-12T09:15:36.000Z</time>
      </trkpt>
      <trkpt lat="45.11929" lon="5.55588">
        <ele>1208.1</ele>
        <time>2022-08-12T09:15:37.000Z</time>
      </trkpt>
      <trkpt lat="45.11928" lon="5.55585">
        <ele>1208.4</ele>
        <time>2022-08-12T09:15:39.000Z</time>
      </trkpt>
      <trkpt lat="45.11926" lon="5.55582">
        <ele>1208.5</ele>
        <time>2022-08-12T09:15:41.000Z</time>
      </trkpt>
      <trkpt lat="45.11924" lon="5.5558">
        <ele>1208.5</ele>
        <time>2022-08-12T09:15:42.000Z</time>
      </trkpt>
      <trkpt lat="45.11923" lon="5.55579">
        <ele>1208.5</ele>
        <time>2022-08-12T09:15:43.000Z</time>
      </trkpt>
      <trkpt lat="45.11921" lon="5.55577">
        <ele>1208.5</ele>
        <time>2022-08-12T09:15:44.000Z</time>
      </trkpt>
      <trkpt lat="45.1192" lon="5.55577">
        <ele>1208.4</ele>
        <time>2022-08-12T09:15:45.000Z</time>
      </trkpt>
      <trkpt lat="45.11919" lon="5.55574">
        <ele>1208.6</ele>
        <time>2022-08-12T09:15:47.000Z</time>
      </trkpt>
      <trkpt lat="45.11918" lon="5.55572">
        <ele>1208.9</ele>
        <time>2022-08-12T09:15:48.000Z</time>
      </trkpt>
      <trkpt lat="45.11917" lon="5.55569">
        <ele>1209.1</ele>
        <time>2022-08-12T09:15:49.000Z</time>
      </trkpt>
      <trkpt lat="45.11916" lon="5.55567">
        <ele>1209.3</ele>
        <time>2022-08-12T09:15:50.000Z</time>
      </trkpt>
      <trkpt lat="45.11915" lon="5.55565">
        <ele>1209.5</ele>
        <time>2022-08-12T09:15:51.000Z</time>
      </trkpt>
      <trkpt lat="45.11915" lon="5.55563">
        <ele>1209.6</ele>
        <time>2022-08-12T09:15:52.000Z</time>
      </trkpt>
      <trkpt lat="45.11914" lon="5.55562">
        <ele>1209.7</ele>
        <time>2022-08-12T09:15:53.000Z</time>
      </trkpt>
      <trkpt lat="45.11913" lon="5.55561">
        <ele>1209.7</ele>
        <time>2022-08-12T09:15:54.000Z</time>
      </trkpt>
      <trkpt lat="45.11913" lon="5.5556">
        <ele>1209.8</ele>
        <time>2022-08-12T09:15:55.000Z</time>
      </trkpt>
      <trkpt lat="45.11912" lon="5.55558">
        <ele>1210</ele>
        <time>2022-08-12T09:15:56.000Z</time>
      </trkpt>
      <trkpt lat="45.11911" lon="5.55556">
        <ele>1210.1</ele>
        <time>2022-08-12T09:15:57.000Z</time>
      </trkpt>
      <trkpt lat="45.11911" lon="5.55555">
        <ele>1210.3</ele>
        <time>2022-08-12T09:15:58.000Z</time>
      </trkpt>
      <trkpt lat="45.1191" lon="5.55552">
        <ele>1210.5</ele>
        <time>2022-08-12T09:15:59.000Z</time>
      </trkpt>
      <trkpt lat="45.1191" lon="5.55549">
        <ele>1210.7</ele>
        <time>2022-08-12T09:16:00.000Z</time>
      </trkpt>
      <trkpt lat="45.11908" lon="5.55546">
        <ele>1210.8</ele>
        <time>2022-08-12T09:16:01.000Z</time>
      </trkpt>
      <trkpt lat="45.11907" lon="5.55544">
        <ele>1210.9</ele>
        <time>2022-08-12T09:16:02.000Z</time>
      </trkpt>
      <trkpt lat="45.11906" lon="5.55542">
        <ele>1210.9</ele>
        <time>2022-08-12T09:16:03.000Z</time>
      </trkpt>
      <trkpt lat="45.11906" lon="5.55541">
        <ele>1211.1</ele>
        <time>2022-08-12T09:16:04.000Z</time>
      </trkpt>
      <trkpt lat="45.11906" lon="5.5554">
        <ele>1211.1</ele>
        <time>2022-08-12T09:16:05.000Z</time>
      </trkpt>
      <trkpt lat="45.11905" lon="5.55537">
        <ele>1211.2</ele>
        <time>2022-08-12T09:16:06.000Z</time>
      </trkpt>
      <trkpt lat="45.11904" lon="5.55535">
        <ele>1211.4</ele>
        <time>2022-08-12T09:16:07.000Z</time>
      </trkpt>
      <trkpt lat="45.11904" lon="5.55533">
        <ele>1211.6</ele>
        <time>2022-08-12T09:16:08.000Z</time>
      </trkpt>
      <trkpt lat="45.11903" lon="5.55531">
        <ele>1211.7</ele>
        <time>2022-08-12T09:16:09.000Z</time>
      </trkpt>
      <trkpt lat="45.11902" lon="5.55529">
        <ele>1211.8</ele>
        <time>2022-08-12T09:16:10.000Z</time>
      </trkpt>
      <trkpt lat="45.11902" lon="5.55528">
        <ele>1211.8</ele>
        <time>2022-08-12T09:16:11.000Z</time>
      </trkpt>
      <trkpt lat="45.119" lon="5.55527">
        <ele>1211.7</ele>
        <time>2022-08-12T09:16:12.000Z</time>
      </trkpt>
      <trkpt lat="45.119" lon="5.55525">
        <ele>1211.9</ele>
        <time>2022-08-12T09:16:14.000Z</time>
      </trkpt>
      <trkpt lat="45.11899" lon="5.55522">
        <ele>1212.1</ele>
        <time>2022-08-12T09:16:15.000Z</time>
      </trkpt>
      <trkpt lat="45.11898" lon="5.55519">
        <ele>1212.3</ele>
        <time>2022-08-12T09:16:16.000Z</time>
      </trkpt>
      <trkpt lat="45.11897" lon="5.55517">
        <ele>1212.4</ele>
        <time>2022-08-12T09:16:17.000Z</time>
      </trkpt>
      <trkpt lat="45.11896" lon="5.55515">
        <ele>1212.5</ele>
        <time>2022-08-12T09:16:18.000Z</time>
      </trkpt>
      <trkpt lat="45.11895" lon="5.55513">
        <ele>1212.5</ele>
        <time>2022-08-12T09:16:19.000Z</time>
      </trkpt>
      <trkpt lat="45.11895" lon="5.55512">
        <ele>1212.6</ele>
        <time>2022-08-12T09:16:20.000Z</time>
      </trkpt>
      <trkpt lat="45.11894" lon="5.55509">
        <ele>1212.8</ele>
        <time>2022-08-12T09:16:21.000Z</time>
      </trkpt>
      <trkpt lat="45.11894" lon="5.55507">
        <ele>1213</ele>
        <time>2022-08-12T09:16:22.000Z</time>
      </trkpt>
      <trkpt lat="45.11895" lon="5.55506">
        <ele>1213.2</ele>
        <time>2022-08-12T09:16:23.000Z</time>
      </trkpt>
      <trkpt lat="45.11895" lon="5.55505">
        <ele>1213.4</ele>
        <time>2022-08-12T09:16:24.000Z</time>
      </trkpt>
      <trkpt lat="45.11896" lon="5.55503">
        <ele>1213.6</ele>
        <time>2022-08-12T09:16:25.000Z</time>
      </trkpt>
      <trkpt lat="45.11896" lon="5.55502">
        <ele>1213.8</ele>
        <time>2022-08-12T09:16:26.000Z</time>
      </trkpt>
      <trkpt lat="45.11896" lon="5.555">
        <ele>1214</ele>
        <time>2022-08-12T09:16:27.000Z</time>
      </trkpt>
      <trkpt lat="45.11895" lon="5.55498">
        <ele>1214.2</ele>
        <time>2022-08-12T09:16:31.000Z</time>
      </trkpt>
      <trkpt lat="45.11895" lon="5.55497">
        <ele>1214.4</ele>
        <time>2022-08-12T09:16:34.000Z</time>
      </trkpt>
      <trkpt lat="45.11895" lon="5.55495">
        <ele>1214.8</ele>
        <time>2022-08-12T09:16:35.000Z</time>
      </trkpt>
      <trkpt lat="45.11894" lon="5.55493">
        <ele>1215</ele>
        <time>2022-08-12T09:16:36.000Z</time>
      </trkpt>
      <trkpt lat="45.11894" lon="5.55492">
        <ele>1215.2</ele>
        <time>2022-08-12T09:16:37.000Z</time>
      </trkpt>
      <trkpt lat="45.11893" lon="5.5549">
        <ele>1215.4</ele>
        <time>2022-08-12T09:16:38.000Z</time>
      </trkpt>
      <trkpt lat="45.11893" lon="5.55488">
        <ele>1215.7</ele>
        <time>2022-08-12T09:16:39.000Z</time>
      </trkpt>
      <trkpt lat="45.11893" lon="5.55486">
        <ele>1216</ele>
        <time>2022-08-12T09:16:40.000Z</time>
      </trkpt>
      <trkpt lat="45.11893" lon="5.55485">
        <ele>1216.3</ele>
        <time>2022-08-12T09:16:41.000Z</time>
      </trkpt>
      <trkpt lat="45.11893" lon="5.55483">
        <ele>1216.7</ele>
        <time>2022-08-12T09:16:42.000Z</time>
      </trkpt>
      <trkpt lat="45.11893" lon="5.55481">
        <ele>1217</ele>
        <time>2022-08-12T09:16:43.000Z</time>
      </trkpt>
      <trkpt lat="45.11893" lon="5.5548">
        <ele>1217.3</ele>
        <time>2022-08-12T09:16:44.000Z</time>
      </trkpt>
      <trkpt lat="45.11893" lon="5.55479">
        <ele>1217.4</ele>
        <time>2022-08-12T09:16:45.000Z</time>
      </trkpt>
      <trkpt lat="45.11893" lon="5.55476">
        <ele>1217.8</ele>
        <time>2022-08-12T09:16:46.000Z</time>
      </trkpt>
      <trkpt lat="45.11892" lon="5.55474">
        <ele>1218.1</ele>
        <time>2022-08-12T09:16:47.000Z</time>
      </trkpt>
      <trkpt lat="45.11891" lon="5.55472">
        <ele>1218.3</ele>
        <time>2022-08-12T09:16:48.000Z</time>
      </trkpt>
      <trkpt lat="45.1189" lon="5.55471">
        <ele>1218.4</ele>
        <time>2022-08-12T09:16:49.000Z</time>
      </trkpt>
      <trkpt lat="45.11889" lon="5.55469">
        <ele>1218.5</ele>
        <time>2022-08-12T09:16:50.000Z</time>
      </trkpt>
      <trkpt lat="45.11889" lon="5.55468">
        <ele>1218.6</ele>
        <time>2022-08-12T09:16:51.000Z</time>
      </trkpt>
      <trkpt lat="45.11888" lon="5.55466">
        <ele>1218.8</ele>
        <time>2022-08-12T09:16:52.000Z</time>
      </trkpt>
      <trkpt lat="45.11888" lon="5.55463">
        <ele>1219.1</ele>
        <time>2022-08-12T09:16:53.000Z</time>
      </trkpt>
      <trkpt lat="45.11887" lon="5.55461">
        <ele>1219.3</ele>
        <time>2022-08-12T09:16:54.000Z</time>
      </trkpt>
      <trkpt lat="45.11887" lon="5.55459">
        <ele>1219.5</ele>
        <time>2022-08-12T09:16:55.000Z</time>
      </trkpt>
      <trkpt lat="45.11886" lon="5.55458">
        <ele>1219.6</ele>
        <time>2022-08-12T09:16:56.000Z</time>
      </trkpt>
      <trkpt lat="45.11884" lon="5.55456">
        <ele>1219.5</ele>
        <time>2022-08-12T09:16:57.000Z</time>
      </trkpt>
      <trkpt lat="45.11883" lon="5.55454">
        <ele>1219.5</ele>
        <time>2022-08-12T09:16:58.000Z</time>
      </trkpt>
      <trkpt lat="45.11882" lon="5.55453">
        <ele>1219.5</ele>
        <time>2022-08-12T09:16:59.000Z</time>
      </trkpt>
      <trkpt lat="45.1188" lon="5.55452">
        <ele>1219.4</ele>
        <time>2022-08-12T09:17:00.000Z</time>
      </trkpt>
      <trkpt lat="45.11879" lon="5.55451">
        <ele>1219.4</ele>
        <time>2022-08-12T09:17:01.000Z</time>
      </trkpt>
      <trkpt lat="45.11878" lon="5.55449">
        <ele>1219.3</ele>
        <time>2022-08-12T09:17:02.000Z</time>
      </trkpt>
      <trkpt lat="45.11876" lon="5.55448">
        <ele>1219.2</ele>
        <time>2022-08-12T09:17:03.000Z</time>
      </trkpt>
      <trkpt lat="45.11875" lon="5.55446">
        <ele>1219.3</ele>
        <time>2022-08-12T09:17:04.000Z</time>
      </trkpt>
      <trkpt lat="45.11874" lon="5.55444">
        <ele>1219.5</ele>
        <time>2022-08-12T09:17:05.000Z</time>
      </trkpt>
      <trkpt lat="45.11874" lon="5.55442">
        <ele>1219.6</ele>
        <time>2022-08-12T09:17:06.000Z</time>
      </trkpt>
      <trkpt lat="45.11873" lon="5.55439">
        <ele>1220.1</ele>
        <time>2022-08-12T09:17:07.000Z</time>
      </trkpt>
      <trkpt lat="45.11872" lon="5.55438">
        <ele>1220.2</ele>
        <time>2022-08-12T09:17:08.000Z</time>
      </trkpt>
      <trkpt lat="45.11872" lon="5.55437">
        <ele>1220.2</ele>
        <time>2022-08-12T09:17:09.000Z</time>
      </trkpt>
      <trkpt lat="45.1187" lon="5.55436">
        <ele>1220.1</ele>
        <time>2022-08-12T09:17:10.000Z</time>
      </trkpt>
      <trkpt lat="45.11869" lon="5.55434">
        <ele>1220.2</ele>
        <time>2022-08-12T09:17:11.000Z</time>
      </trkpt>
      <trkpt lat="45.11867" lon="5.55433">
        <ele>1220.1</ele>
        <time>2022-08-12T09:17:12.000Z</time>
      </trkpt>
      <trkpt lat="45.11866" lon="5.55431">
        <ele>1220.3</ele>
        <time>2022-08-12T09:17:13.000Z</time>
      </trkpt>
      <trkpt lat="45.11865" lon="5.5543">
        <ele>1220.4</ele>
        <time>2022-08-12T09:17:14.000Z</time>
      </trkpt>
      <trkpt lat="45.11864" lon="5.55428">
        <ele>1220.5</ele>
        <time>2022-08-12T09:17:15.000Z</time>
      </trkpt>
      <trkpt lat="45.11864" lon="5.55426">
        <ele>1220.7</ele>
        <time>2022-08-12T09:17:16.000Z</time>
      </trkpt>
      <trkpt lat="45.11863" lon="5.55425">
        <ele>1220.8</ele>
        <time>2022-08-12T09:17:17.000Z</time>
      </trkpt>
      <trkpt lat="45.11861" lon="5.55424">
        <ele>1220.8</ele>
        <time>2022-08-12T09:17:18.000Z</time>
      </trkpt>
      <trkpt lat="45.1186" lon="5.55423">
        <ele>1220.6</ele>
        <time>2022-08-12T09:17:19.000Z</time>
      </trkpt>
      <trkpt lat="45.1186" lon="5.55422">
        <ele>1220.6</ele>
        <time>2022-08-12T09:17:20.000Z</time>
      </trkpt>
      <trkpt lat="45.1186" lon="5.55421">
        <ele>1220.8</ele>
        <time>2022-08-12T09:17:21.000Z</time>
      </trkpt>
      <trkpt lat="45.11859" lon="5.55421">
        <ele>1220.8</ele>
        <time>2022-08-12T09:17:23.000Z</time>
      </trkpt>
      <trkpt lat="45.11859" lon="5.5542">
        <ele>1220.8</ele>
        <time>2022-08-12T09:17:24.000Z</time>
      </trkpt>
      <trkpt lat="45.11858" lon="5.5542">
        <ele>1220.8</ele>
        <time>2022-08-12T09:17:25.000Z</time>
      </trkpt>
      <trkpt lat="45.11857" lon="5.55418">
        <ele>1220.7</ele>
        <time>2022-08-12T09:17:26.000Z</time>
      </trkpt>
      <trkpt lat="45.11856" lon="5.55417">
        <ele>1220.6</ele>
        <time>2022-08-12T09:17:27.000Z</time>
      </trkpt>
      <trkpt lat="45.11855" lon="5.55416">
        <ele>1220.5</ele>
        <time>2022-08-12T09:17:28.000Z</time>
      </trkpt>
      <trkpt lat="45.11852" lon="5.55414">
        <ele>1220.1</ele>
        <time>2022-08-12T09:17:29.000Z</time>
      </trkpt>
      <trkpt lat="45.1185" lon="5.55413">
        <ele>1219.7</ele>
        <time>2022-08-12T09:17:30.000Z</time>
      </trkpt>
      <trkpt lat="45.11848" lon="5.55411">
        <ele>1219.5</ele>
        <time>2022-08-12T09:17:31.000Z</time>
      </trkpt>
      <trkpt lat="45.11847" lon="5.5541">
        <ele>1219.3</ele>
        <time>2022-08-12T09:17:32.000Z</time>
      </trkpt>
      <trkpt lat="45.11845" lon="5.55407">
        <ele>1219.4</ele>
        <time>2022-08-12T09:17:33.000Z</time>
      </trkpt>
      <trkpt lat="45.11845" lon="5.55406">
        <ele>1219.4</ele>
        <time>2022-08-12T09:17:34.000Z</time>
      </trkpt>
      <trkpt lat="45.11844" lon="5.55405">
        <ele>1219.3</ele>
        <time>2022-08-12T09:17:35.000Z</time>
      </trkpt>
      <trkpt lat="45.11839" lon="5.55394">
        <ele>1219.7</ele>
        <time>2022-08-12T09:17:40.000Z</time>
      </trkpt>
      <trkpt lat="45.11838" lon="5.55392">
        <ele>1219.8</ele>
        <time>2022-08-12T09:17:41.000Z</time>
      </trkpt>
      <trkpt lat="45.11834" lon="5.55388">
        <ele>1219.4</ele>
        <time>2022-08-12T09:17:43.000Z</time>
      </trkpt>
      <trkpt lat="45.11832" lon="5.55386">
        <ele>1219.2</ele>
        <time>2022-08-12T09:17:44.000Z</time>
      </trkpt>
      <trkpt lat="45.11828" lon="5.55378">
        <ele>1219.6</ele>
        <time>2022-08-12T09:17:47.000Z</time>
      </trkpt>
      <trkpt lat="45.11825" lon="5.55374">
        <ele>1219.5</ele>
        <time>2022-08-12T09:17:49.000Z</time>
      </trkpt>
      <trkpt lat="45.11825" lon="5.55373">
        <ele>1219.5</ele>
        <time>2022-08-12T09:17:50.000Z</time>
      </trkpt>
      <trkpt lat="45.11823" lon="5.55371">
        <ele>1219.5</ele>
        <time>2022-08-12T09:17:52.000Z</time>
      </trkpt>
      <trkpt lat="45.11823" lon="5.55369">
        <ele>1219.6</ele>
        <time>2022-08-12T09:17:53.000Z</time>
      </trkpt>
      <trkpt lat="45.1182" lon="5.55366">
        <ele>1219.5</ele>
        <time>2022-08-12T09:17:55.000Z</time>
      </trkpt>
      <trkpt lat="45.11819" lon="5.55364">
        <ele>1219.5</ele>
        <time>2022-08-12T09:17:56.000Z</time>
      </trkpt>
      <trkpt lat="45.11819" lon="5.55362">
        <ele>1219.6</ele>
        <time>2022-08-12T09:17:57.000Z</time>
      </trkpt>
      <trkpt lat="45.11817" lon="5.5536">
        <ele>1219.6</ele>
        <time>2022-08-12T09:17:58.000Z</time>
      </trkpt>
      <trkpt lat="45.11816" lon="5.55357">
        <ele>1219.6</ele>
        <time>2022-08-12T09:17:59.000Z</time>
      </trkpt>
      <trkpt lat="45.11815" lon="5.55355">
        <ele>1219.7</ele>
        <time>2022-08-12T09:18:00.000Z</time>
      </trkpt>
      <trkpt lat="45.1181" lon="5.55342">
        <ele>1220.7</ele>
        <time>2022-08-12T09:18:04.000Z</time>
      </trkpt>
      <trkpt lat="45.1181" lon="5.55336">
        <ele>1221.6</ele>
        <time>2022-08-12T09:18:05.000Z</time>
      </trkpt>
      <trkpt lat="45.1181" lon="5.55326">
        <ele>1223.2</ele>
        <time>2022-08-12T09:18:07.000Z</time>
      </trkpt>
      <trkpt lat="45.11811" lon="5.55322">
        <ele>1224.1</ele>
        <time>2022-08-12T09:18:08.000Z</time>
      </trkpt>
      <trkpt lat="45.11812" lon="5.55319">
        <ele>1224.7</ele>
        <time>2022-08-12T09:18:09.000Z</time>
      </trkpt>
      <trkpt lat="45.11812" lon="5.55314">
        <ele>1225.2</ele>
        <time>2022-08-12T09:18:10.000Z</time>
      </trkpt>
      <trkpt lat="45.11809" lon="5.55311">
        <ele>1225.2</ele>
        <time>2022-08-12T09:18:11.000Z</time>
      </trkpt>
      <trkpt lat="45.11808" lon="5.55308">
        <ele>1225.4</ele>
        <time>2022-08-12T09:18:12.000Z</time>
      </trkpt>
      <trkpt lat="45.11808" lon="5.55305">
        <ele>1225.5</ele>
        <time>2022-08-12T09:18:13.000Z</time>
      </trkpt>
      <trkpt lat="45.11808" lon="5.55303">
        <ele>1225.9</ele>
        <time>2022-08-12T09:18:14.000Z</time>
      </trkpt>
      <trkpt lat="45.11808" lon="5.553">
        <ele>1226.4</ele>
        <time>2022-08-12T09:18:15.000Z</time>
      </trkpt>
      <trkpt lat="45.11808" lon="5.55296">
        <ele>1226.9</ele>
        <time>2022-08-12T09:18:16.000Z</time>
      </trkpt>
      <trkpt lat="45.11807" lon="5.55291">
        <ele>1227.5</ele>
        <time>2022-08-12T09:18:17.000Z</time>
      </trkpt>
      <trkpt lat="45.11807" lon="5.55286">
        <ele>1228.2</ele>
        <time>2022-08-12T09:18:18.000Z</time>
      </trkpt>
      <trkpt lat="45.11807" lon="5.55279">
        <ele>1229</ele>
        <time>2022-08-12T09:18:19.000Z</time>
      </trkpt>
      <trkpt lat="45.11802" lon="5.55263">
        <ele>1230.4</ele>
        <time>2022-08-12T09:18:21.000Z</time>
      </trkpt>
      <trkpt lat="45.11802" lon="5.55255">
        <ele>1231.2</ele>
        <time>2022-08-12T09:18:22.000Z</time>
      </trkpt>
      <trkpt lat="45.11799" lon="5.55248">
        <ele>1231.7</ele>
        <time>2022-08-12T09:18:23.000Z</time>
      </trkpt>
      <trkpt lat="45.11798" lon="5.55242">
        <ele>1232.2</ele>
        <time>2022-08-12T09:18:24.000Z</time>
      </trkpt>
      <trkpt lat="45.11797" lon="5.55237">
        <ele>1232.6</ele>
        <time>2022-08-12T09:18:25.000Z</time>
      </trkpt>
      <trkpt lat="45.11796" lon="5.55234">
        <ele>1232.9</ele>
        <time>2022-08-12T09:18:26.000Z</time>
      </trkpt>
      <trkpt lat="45.11796" lon="5.55232">
        <ele>1233.1</ele>
        <time>2022-08-12T09:18:27.000Z</time>
      </trkpt>
      <trkpt lat="45.11796" lon="5.55231">
        <ele>1233.1</ele>
        <time>2022-08-12T09:18:28.000Z</time>
      </trkpt>
      <trkpt lat="45.11795" lon="5.5523">
        <ele>1233.2</ele>
        <time>2022-08-12T09:18:30.000Z</time>
      </trkpt>
      <trkpt lat="45.11793" lon="5.55229">
        <ele>1233.3</ele>
        <time>2022-08-12T09:18:31.000Z</time>
      </trkpt>
      <trkpt lat="45.11791" lon="5.55229">
        <ele>1233.3</ele>
        <time>2022-08-12T09:18:32.000Z</time>
      </trkpt>
      <trkpt lat="45.11789" lon="5.55229">
        <ele>1233.2</ele>
        <time>2022-08-12T09:18:34.000Z</time>
      </trkpt>
      <trkpt lat="45.11788" lon="5.55229">
        <ele>1233.2</ele>
        <time>2022-08-12T09:18:35.000Z</time>
      </trkpt>
      <trkpt lat="45.11787" lon="5.55229">
        <ele>1233.2</ele>
        <time>2022-08-12T09:18:36.000Z</time>
      </trkpt>
      <trkpt lat="45.11786" lon="5.5523">
        <ele>1233.1</ele>
        <time>2022-08-12T09:18:37.000Z</time>
      </trkpt>
      <trkpt lat="45.11781" lon="5.5523">
        <ele>1233</ele>
        <time>2022-08-12T09:18:41.000Z</time>
      </trkpt>
      <trkpt lat="45.1178" lon="5.55232">
        <ele>1232.7</ele>
        <time>2022-08-12T09:18:45.000Z</time>
      </trkpt>
      <trkpt lat="45.1178" lon="5.55233">
        <ele>1232.5</ele>
        <time>2022-08-12T09:18:46.000Z</time>
      </trkpt>
      <trkpt lat="45.11777" lon="5.55235">
        <ele>1232.2</ele>
        <time>2022-08-12T09:18:48.000Z</time>
      </trkpt>
      <trkpt lat="45.11776" lon="5.55236">
        <ele>1232.1</ele>
        <time>2022-08-12T09:18:49.000Z</time>
      </trkpt>
      <trkpt lat="45.11776" lon="5.55237">
        <ele>1232</ele>
        <time>2022-08-12T09:18:50.000Z</time>
      </trkpt>
      <trkpt lat="45.11774" lon="5.55238">
        <ele>1232</ele>
        <time>2022-08-12T09:18:52.000Z</time>
      </trkpt>
      <trkpt lat="45.11772" lon="5.55238">
        <ele>1232.1</ele>
        <time>2022-08-12T09:18:53.000Z</time>
      </trkpt>
      <trkpt lat="45.11771" lon="5.55239">
        <ele>1232.1</ele>
        <time>2022-08-12T09:18:54.000Z</time>
      </trkpt>
      <trkpt lat="45.11769" lon="5.5524">
        <ele>1232.1</ele>
        <time>2022-08-12T09:18:55.000Z</time>
      </trkpt>
      <trkpt lat="45.11768" lon="5.55241">
        <ele>1232</ele>
        <time>2022-08-12T09:18:56.000Z</time>
      </trkpt>
      <trkpt lat="45.11766" lon="5.55243">
        <ele>1231.9</ele>
        <time>2022-08-12T09:18:57.000Z</time>
      </trkpt>
      <trkpt lat="45.11765" lon="5.55244">
        <ele>1231.7</ele>
        <time>2022-08-12T09:18:58.000Z</time>
      </trkpt>
      <trkpt lat="45.11763" lon="5.55246">
        <ele>1231.6</ele>
        <time>2022-08-12T09:18:59.000Z</time>
      </trkpt>
      <trkpt lat="45.11762" lon="5.55248">
        <ele>1231.5</ele>
        <time>2022-08-12T09:19:00.000Z</time>
      </trkpt>
      <trkpt lat="45.1176" lon="5.55249">
        <ele>1231.4</ele>
        <time>2022-08-12T09:19:01.000Z</time>
      </trkpt>
      <trkpt lat="45.11758" lon="5.55251">
        <ele>1231.3</ele>
        <time>2022-08-12T09:19:02.000Z</time>
      </trkpt>
      <trkpt lat="45.11757" lon="5.55252">
        <ele>1231.1</ele>
        <time>2022-08-12T09:19:03.000Z</time>
      </trkpt>
      <trkpt lat="45.11756" lon="5.55253">
        <ele>1231</ele>
        <time>2022-08-12T09:19:04.000Z</time>
      </trkpt>
      <trkpt lat="45.11755" lon="5.55255">
        <ele>1230.8</ele>
        <time>2022-08-12T09:19:05.000Z</time>
      </trkpt>
      <trkpt lat="45.11755" lon="5.55257">
        <ele>1230.4</ele>
        <time>2022-08-12T09:19:06.000Z</time>
      </trkpt>
      <trkpt lat="45.11753" lon="5.55259">
        <ele>1230.2</ele>
        <time>2022-08-12T09:19:07.000Z</time>
      </trkpt>
      <trkpt lat="45.11752" lon="5.5526">
        <ele>1230.1</ele>
        <time>2022-08-12T09:19:08.000Z</time>
      </trkpt>
      <trkpt lat="45.11751" lon="5.55261">
        <ele>1230</ele>
        <time>2022-08-12T09:19:09.000Z</time>
      </trkpt>
      <trkpt lat="45.1175" lon="5.55262">
        <ele>1229.9</ele>
        <time>2022-08-12T09:19:10.000Z</time>
      </trkpt>
      <trkpt lat="45.11748" lon="5.55263">
        <ele>1229.8</ele>
        <time>2022-08-12T09:19:11.000Z</time>
      </trkpt>
      <trkpt lat="45.11748" lon="5.55264">
        <ele>1229.7</ele>
        <time>2022-08-12T09:19:12.000Z</time>
      </trkpt>
      <trkpt lat="45.11746" lon="5.55265">
        <ele>1229.6</ele>
        <time>2022-08-12T09:19:13.000Z</time>
      </trkpt>
      <trkpt lat="45.11744" lon="5.55266">
        <ele>1229.6</ele>
        <time>2022-08-12T09:19:14.000Z</time>
      </trkpt>
      <trkpt lat="45.11742" lon="5.55267">
        <ele>1229.5</ele>
        <time>2022-08-12T09:19:15.000Z</time>
      </trkpt>
      <trkpt lat="45.1174" lon="5.55269">
        <ele>1229.4</ele>
        <time>2022-08-12T09:19:16.000Z</time>
      </trkpt>
      <trkpt lat="45.11737" lon="5.5527">
        <ele>1229.4</ele>
        <time>2022-08-12T09:19:17.000Z</time>
      </trkpt>
      <trkpt lat="45.11732" lon="5.5527">
        <ele>1229.7</ele>
        <time>2022-08-12T09:19:18.000Z</time>
      </trkpt>
      <trkpt lat="45.11728" lon="5.55269">
        <ele>1230.1</ele>
        <time>2022-08-12T09:19:19.000Z</time>
      </trkpt>
      <trkpt lat="45.11725" lon="5.55269">
        <ele>1230.4</ele>
        <time>2022-08-12T09:19:20.000Z</time>
      </trkpt>
      <trkpt lat="45.11722" lon="5.55269">
        <ele>1230.6</ele>
        <time>2022-08-12T09:19:21.000Z</time>
      </trkpt>
      <trkpt lat="45.11718" lon="5.55269">
        <ele>1230.7</ele>
        <time>2022-08-12T09:19:22.000Z</time>
      </trkpt>
      <trkpt lat="45.11712" lon="5.55269">
        <ele>1230.7</ele>
        <time>2022-08-12T09:19:23.000Z</time>
      </trkpt>
      <trkpt lat="45.11703" lon="5.55267">
        <ele>1231.3</ele>
        <time>2022-08-12T09:19:25.000Z</time>
      </trkpt>
      <trkpt lat="45.117" lon="5.55265">
        <ele>1231.7</ele>
        <time>2022-08-12T09:19:26.000Z</time>
      </trkpt>
      <trkpt lat="45.11689" lon="5.55261">
        <ele>1231.9</ele>
        <time>2022-08-12T09:19:29.000Z</time>
      </trkpt>
      <trkpt lat="45.11684" lon="5.55259">
        <ele>1231.9</ele>
        <time>2022-08-12T09:19:30.000Z</time>
      </trkpt>
      <trkpt lat="45.1168" lon="5.55256">
        <ele>1232</ele>
        <time>2022-08-12T09:19:31.000Z</time>
      </trkpt>
      <trkpt lat="45.11676" lon="5.55253">
        <ele>1232.2</ele>
        <time>2022-08-12T09:19:32.000Z</time>
      </trkpt>
      <trkpt lat="45.11673" lon="5.55248">
        <ele>1232.7</ele>
        <time>2022-08-12T09:19:33.000Z</time>
      </trkpt>
      <trkpt lat="45.11671" lon="5.55244">
        <ele>1233.2</ele>
        <time>2022-08-12T09:19:34.000Z</time>
      </trkpt>
      <trkpt lat="45.1167" lon="5.5524">
        <ele>1233.7</ele>
        <time>2022-08-12T09:19:35.000Z</time>
      </trkpt>
      <trkpt lat="45.11668" lon="5.55237">
        <ele>1234</ele>
        <time>2022-08-12T09:19:36.000Z</time>
      </trkpt>
      <trkpt lat="45.11667" lon="5.55234">
        <ele>1234.2</ele>
        <time>2022-08-12T09:19:37.000Z</time>
      </trkpt>
      <trkpt lat="45.11666" lon="5.55232">
        <ele>1234.4</ele>
        <time>2022-08-12T09:19:38.000Z</time>
      </trkpt>
      <trkpt lat="45.11664" lon="5.5523">
        <ele>1234.5</ele>
        <time>2022-08-12T09:19:39.000Z</time>
      </trkpt>
      <trkpt lat="45.11663" lon="5.55229">
        <ele>1234.6</ele>
        <time>2022-08-12T09:19:40.000Z</time>
      </trkpt>
      <trkpt lat="45.11661" lon="5.55227">
        <ele>1234.6</ele>
        <time>2022-08-12T09:19:41.000Z</time>
      </trkpt>
      <trkpt lat="45.1166" lon="5.55226">
        <ele>1234.7</ele>
        <time>2022-08-12T09:19:42.000Z</time>
      </trkpt>
      <trkpt lat="45.11658" lon="5.55223">
        <ele>1234.9</ele>
        <time>2022-08-12T09:19:45.000Z</time>
      </trkpt>
      <trkpt lat="45.11657" lon="5.55223">
        <ele>1234.9</ele>
        <time>2022-08-12T09:19:46.000Z</time>
      </trkpt>
      <trkpt lat="45.11657" lon="5.55222">
        <ele>1235.1</ele>
        <time>2022-08-12T09:19:47.000Z</time>
      </trkpt>
      <trkpt lat="45.11657" lon="5.55221">
        <ele>1235.2</ele>
        <time>2022-08-12T09:19:48.000Z</time>
      </trkpt>
      <trkpt lat="45.11656" lon="5.55219">
        <ele>1235.4</ele>
        <time>2022-08-12T09:19:49.000Z</time>
      </trkpt>
      <trkpt lat="45.11654" lon="5.55215">
        <ele>1235.8</ele>
        <time>2022-08-12T09:19:51.000Z</time>
      </trkpt>
      <trkpt lat="45.11653" lon="5.55212">
        <ele>1236.2</ele>
        <time>2022-08-12T09:19:53.000Z</time>
      </trkpt>
      <trkpt lat="45.11651" lon="5.55211">
        <ele>1236.2</ele>
        <time>2022-08-12T09:19:54.000Z</time>
      </trkpt>
      <trkpt lat="45.11649" lon="5.55209">
        <ele>1236.2</ele>
        <time>2022-08-12T09:19:55.000Z</time>
      </trkpt>
      <trkpt lat="45.11649" lon="5.55208">
        <ele>1236.5</ele>
        <time>2022-08-12T09:19:56.000Z</time>
      </trkpt>
      <trkpt lat="45.11647" lon="5.55204">
        <ele>1237</ele>
        <time>2022-08-12T09:19:58.000Z</time>
      </trkpt>
      <trkpt lat="45.11644" lon="5.55197">
        <ele>1237.9</ele>
        <time>2022-08-12T09:20:01.000Z</time>
      </trkpt>
      <trkpt lat="45.11644" lon="5.55195">
        <ele>1238.2</ele>
        <time>2022-08-12T09:20:02.000Z</time>
      </trkpt>
      <trkpt lat="45.11644" lon="5.55194">
        <ele>1238.5</ele>
        <time>2022-08-12T09:20:03.000Z</time>
      </trkpt>
      <trkpt lat="45.11644" lon="5.55193">
        <ele>1238.6</ele>
        <time>2022-08-12T09:20:04.000Z</time>
      </trkpt>
      <trkpt lat="45.11645" lon="5.5519">
        <ele>1238.9</ele>
        <time>2022-08-12T09:20:05.000Z</time>
      </trkpt>
      <trkpt lat="45.11644" lon="5.55189">
        <ele>1239.1</ele>
        <time>2022-08-12T09:20:06.000Z</time>
      </trkpt>
      <trkpt lat="45.11644" lon="5.55187">
        <ele>1239.2</ele>
        <time>2022-08-12T09:20:07.000Z</time>
      </trkpt>
      <trkpt lat="45.11644" lon="5.55185">
        <ele>1239.4</ele>
        <time>2022-08-12T09:20:08.000Z</time>
      </trkpt>
      <trkpt lat="45.11642" lon="5.55183">
        <ele>1239.5</ele>
        <time>2022-08-12T09:20:10.000Z</time>
      </trkpt>
      <trkpt lat="45.11642" lon="5.55182">
        <ele>1239.6</ele>
        <time>2022-08-12T09:20:11.000Z</time>
      </trkpt>
      <trkpt lat="45.11642" lon="5.55181">
        <ele>1239.7</ele>
        <time>2022-08-12T09:20:12.000Z</time>
      </trkpt>
      <trkpt lat="45.11642" lon="5.5518">
        <ele>1239.8</ele>
        <time>2022-08-12T09:20:13.000Z</time>
      </trkpt>
      <trkpt lat="45.11642" lon="5.55179">
        <ele>1239.9</ele>
        <time>2022-08-12T09:20:14.000Z</time>
      </trkpt>
      <trkpt lat="45.11642" lon="5.55178">
        <ele>1240</ele>
        <time>2022-08-12T09:20:15.000Z</time>
      </trkpt>
      <trkpt lat="45.11642" lon="5.55177">
        <ele>1240.2</ele>
        <time>2022-08-12T09:20:16.000Z</time>
      </trkpt>
      <trkpt lat="45.11641" lon="5.55176">
        <ele>1240.2</ele>
        <time>2022-08-12T09:20:17.000Z</time>
      </trkpt>
      <trkpt lat="45.11639" lon="5.55174">
        <ele>1240.3</ele>
        <time>2022-08-12T09:20:18.000Z</time>
      </trkpt>
      <trkpt lat="45.11638" lon="5.55171">
        <ele>1240.4</ele>
        <time>2022-08-12T09:20:19.000Z</time>
      </trkpt>
      <trkpt lat="45.11637" lon="5.55169">
        <ele>1240.5</ele>
        <time>2022-08-12T09:20:20.000Z</time>
      </trkpt>
      <trkpt lat="45.11636" lon="5.55168">
        <ele>1240.6</ele>
        <time>2022-08-12T09:20:21.000Z</time>
      </trkpt>
      <trkpt lat="45.11636" lon="5.55167">
        <ele>1240.6</ele>
        <time>2022-08-12T09:20:22.000Z</time>
      </trkpt>
      <trkpt lat="45.11635" lon="5.55165">
        <ele>1240.9</ele>
        <time>2022-08-12T09:20:24.000Z</time>
      </trkpt>
      <trkpt lat="45.11635" lon="5.55164">
        <ele>1241</ele>
        <time>2022-08-12T09:20:25.000Z</time>
      </trkpt>
      <trkpt lat="45.11634" lon="5.55162">
        <ele>1241.2</ele>
        <time>2022-08-12T09:20:26.000Z</time>
      </trkpt>
      <trkpt lat="45.11634" lon="5.55161">
        <ele>1241.3</ele>
        <time>2022-08-12T09:20:27.000Z</time>
      </trkpt>
      <trkpt lat="45.11634" lon="5.55159">
        <ele>1241.6</ele>
        <time>2022-08-12T09:20:28.000Z</time>
      </trkpt>
      <trkpt lat="45.11633" lon="5.55157">
        <ele>1241.8</ele>
        <time>2022-08-12T09:20:29.000Z</time>
      </trkpt>
      <trkpt lat="45.11634" lon="5.55156">
        <ele>1242</ele>
        <time>2022-08-12T09:20:30.000Z</time>
      </trkpt>
      <trkpt lat="45.11634" lon="5.55155">
        <ele>1242.2</ele>
        <time>2022-08-12T09:20:31.000Z</time>
      </trkpt>
      <trkpt lat="45.11634" lon="5.55154">
        <ele>1242.3</ele>
        <time>2022-08-12T09:20:32.000Z</time>
      </trkpt>
      <trkpt lat="45.11634" lon="5.55153">
        <ele>1242.5</ele>
        <time>2022-08-12T09:20:33.000Z</time>
      </trkpt>
      <trkpt lat="45.11634" lon="5.55152">
        <ele>1242.5</ele>
        <time>2022-08-12T09:20:34.000Z</time>
      </trkpt>
      <trkpt lat="45.11633" lon="5.55151">
        <ele>1242.6</ele>
        <time>2022-08-12T09:20:35.000Z</time>
      </trkpt>
      <trkpt lat="45.11633" lon="5.5515">
        <ele>1242.7</ele>
        <time>2022-08-12T09:20:36.000Z</time>
      </trkpt>
      <trkpt lat="45.11633" lon="5.55149">
        <ele>1242.9</ele>
        <time>2022-08-12T09:20:37.000Z</time>
      </trkpt>
      <trkpt lat="45.11632" lon="5.55147">
        <ele>1243.1</ele>
        <time>2022-08-12T09:20:38.000Z</time>
      </trkpt>
      <trkpt lat="45.11632" lon="5.55146">
        <ele>1243.2</ele>
        <time>2022-08-12T09:20:39.000Z</time>
      </trkpt>
      <trkpt lat="45.11631" lon="5.55145">
        <ele>1243.3</ele>
        <time>2022-08-12T09:20:40.000Z</time>
      </trkpt>
      <trkpt lat="45.1163" lon="5.55143">
        <ele>1243.5</ele>
        <time>2022-08-12T09:20:41.000Z</time>
      </trkpt>
      <trkpt lat="45.1163" lon="5.55142">
        <ele>1243.6</ele>
        <time>2022-08-12T09:20:42.000Z</time>
      </trkpt>
      <trkpt lat="45.1163" lon="5.5514">
        <ele>1243.8</ele>
        <time>2022-08-12T09:20:44.000Z</time>
      </trkpt>
      <trkpt lat="45.1163" lon="5.55139">
        <ele>1244</ele>
        <time>2022-08-12T09:20:45.000Z</time>
      </trkpt>
      <trkpt lat="45.1163" lon="5.55138">
        <ele>1244.1</ele>
        <time>2022-08-12T09:20:46.000Z</time>
      </trkpt>
      <trkpt lat="45.1163" lon="5.55137">
        <ele>1244.2</ele>
        <time>2022-08-12T09:20:47.000Z</time>
      </trkpt>
      <trkpt lat="45.1163" lon="5.55136">
        <ele>1244.3</ele>
        <time>2022-08-12T09:20:48.000Z</time>
      </trkpt>
      <trkpt lat="45.1163" lon="5.55135">
        <ele>1244.3</ele>
        <time>2022-08-12T09:20:49.000Z</time>
      </trkpt>
      <trkpt lat="45.1163" lon="5.55133">
        <ele>1244.5</ele>
        <time>2022-08-12T09:20:51.000Z</time>
      </trkpt>
      <trkpt lat="45.11629" lon="5.55131">
        <ele>1244.6</ele>
        <time>2022-08-12T09:20:52.000Z</time>
      </trkpt>
      <trkpt lat="45.11628" lon="5.5513">
        <ele>1244.7</ele>
        <time>2022-08-12T09:20:53.000Z</time>
      </trkpt>
      <trkpt lat="45.11628" lon="5.55127">
        <ele>1244.9</ele>
        <time>2022-08-12T09:20:54.000Z</time>
      </trkpt>
      <trkpt lat="45.11628" lon="5.55126">
        <ele>1245.1</ele>
        <time>2022-08-12T09:20:55.000Z</time>
      </trkpt>
      <trkpt lat="45.11628" lon="5.55124">
        <ele>1245.2</ele>
        <time>2022-08-12T09:20:56.000Z</time>
      </trkpt>
      <trkpt lat="45.11627" lon="5.55123">
        <ele>1245.2</ele>
        <time>2022-08-12T09:20:57.000Z</time>
      </trkpt>
      <trkpt lat="45.11626" lon="5.55122">
        <ele>1245.2</ele>
        <time>2022-08-12T09:20:58.000Z</time>
      </trkpt>
      <trkpt lat="45.11626" lon="5.5512">
        <ele>1245.3</ele>
        <time>2022-08-12T09:20:59.000Z</time>
      </trkpt>
      <trkpt lat="45.11625" lon="5.55118">
        <ele>1245.4</ele>
        <time>2022-08-12T09:21:02.000Z</time>
      </trkpt>
      <trkpt lat="45.11624" lon="5.55115">
        <ele>1245.5</ele>
        <time>2022-08-12T09:21:03.000Z</time>
      </trkpt>
      <trkpt lat="45.11623" lon="5.55114">
        <ele>1245.6</ele>
        <time>2022-08-12T09:21:04.000Z</time>
      </trkpt>
      <trkpt lat="45.11623" lon="5.55112">
        <ele>1245.7</ele>
        <time>2022-08-12T09:21:05.000Z</time>
      </trkpt>
      <trkpt lat="45.11623" lon="5.5511">
        <ele>1245.7</ele>
        <time>2022-08-12T09:21:06.000Z</time>
      </trkpt>
      <trkpt lat="45.11623" lon="5.55109">
        <ele>1245.8</ele>
        <time>2022-08-12T09:21:07.000Z</time>
      </trkpt>
      <trkpt lat="45.11622" lon="5.55108">
        <ele>1245.9</ele>
        <time>2022-08-12T09:21:08.000Z</time>
      </trkpt>
      <trkpt lat="45.11622" lon="5.55106">
        <ele>1246</ele>
        <time>2022-08-12T09:21:09.000Z</time>
      </trkpt>
      <trkpt lat="45.11622" lon="5.55105">
        <ele>1246.2</ele>
        <time>2022-08-12T09:21:10.000Z</time>
      </trkpt>
      <trkpt lat="45.11622" lon="5.55102">
        <ele>1246.4</ele>
        <time>2022-08-12T09:21:11.000Z</time>
      </trkpt>
      <trkpt lat="45.11622" lon="5.551">
        <ele>1246.7</ele>
        <time>2022-08-12T09:21:12.000Z</time>
      </trkpt>
      <trkpt lat="45.11622" lon="5.55098">
        <ele>1246.8</ele>
        <time>2022-08-12T09:21:13.000Z</time>
      </trkpt>
      <trkpt lat="45.11622" lon="5.55096">
        <ele>1247</ele>
        <time>2022-08-12T09:21:14.000Z</time>
      </trkpt>
      <trkpt lat="45.11621" lon="5.55094">
        <ele>1247.1</ele>
        <time>2022-08-12T09:21:15.000Z</time>
      </trkpt>
      <trkpt lat="45.11622" lon="5.55093">
        <ele>1247.3</ele>
        <time>2022-08-12T09:21:16.000Z</time>
      </trkpt>
      <trkpt lat="45.11622" lon="5.55092">
        <ele>1247.4</ele>
        <time>2022-08-12T09:21:18.000Z</time>
      </trkpt>
      <trkpt lat="45.11622" lon="5.55091">
        <ele>1247.5</ele>
        <time>2022-08-12T09:21:19.000Z</time>
      </trkpt>
      <trkpt lat="45.11623" lon="5.55088">
        <ele>1247.8</ele>
        <time>2022-08-12T09:21:20.000Z</time>
      </trkpt>
      <trkpt lat="45.11623" lon="5.55086">
        <ele>1248</ele>
        <time>2022-08-12T09:21:21.000Z</time>
      </trkpt>
      <trkpt lat="45.11622" lon="5.55084">
        <ele>1248.1</ele>
        <time>2022-08-12T09:21:22.000Z</time>
      </trkpt>
      <trkpt lat="45.11622" lon="5.55082">
        <ele>1248.3</ele>
        <time>2022-08-12T09:21:23.000Z</time>
      </trkpt>
      <trkpt lat="45.11622" lon="5.55081">
        <ele>1248.3</ele>
        <time>2022-08-12T09:21:24.000Z</time>
      </trkpt>
      <trkpt lat="45.11621" lon="5.55079">
        <ele>1248.4</ele>
        <time>2022-08-12T09:21:25.000Z</time>
      </trkpt>
      <trkpt lat="45.11621" lon="5.55078">
        <ele>1248.4</ele>
        <time>2022-08-12T09:21:28.000Z</time>
      </trkpt>
      <trkpt lat="45.11621" lon="5.55076">
        <ele>1248.5</ele>
        <time>2022-08-12T09:21:29.000Z</time>
      </trkpt>
      <trkpt lat="45.1162" lon="5.55073">
        <ele>1248.7</ele>
        <time>2022-08-12T09:21:30.000Z</time>
      </trkpt>
      <trkpt lat="45.1162" lon="5.55071">
        <ele>1248.8</ele>
        <time>2022-08-12T09:21:31.000Z</time>
      </trkpt>
      <trkpt lat="45.11619" lon="5.5507">
        <ele>1248.8</ele>
        <time>2022-08-12T09:21:32.000Z</time>
      </trkpt>
      <trkpt lat="45.11619" lon="5.55068">
        <ele>1249</ele>
        <time>2022-08-12T09:21:34.000Z</time>
      </trkpt>
      <trkpt lat="45.11619" lon="5.55066">
        <ele>1249.2</ele>
        <time>2022-08-12T09:21:35.000Z</time>
      </trkpt>
      <trkpt lat="45.11619" lon="5.55064">
        <ele>1249.3</ele>
        <time>2022-08-12T09:21:36.000Z</time>
      </trkpt>
      <trkpt lat="45.11618" lon="5.55062">
        <ele>1249.3</ele>
        <time>2022-08-12T09:21:37.000Z</time>
      </trkpt>
      <trkpt lat="45.11618" lon="5.5506">
        <ele>1249.4</ele>
        <time>2022-08-12T09:21:38.000Z</time>
      </trkpt>
      <trkpt lat="45.11617" lon="5.55059">
        <ele>1249.5</ele>
        <time>2022-08-12T09:21:39.000Z</time>
      </trkpt>
      <trkpt lat="45.11617" lon="5.55057">
        <ele>1249.5</ele>
        <time>2022-08-12T09:21:40.000Z</time>
      </trkpt>
      <trkpt lat="45.11616" lon="5.55055">
        <ele>1249.6</ele>
        <time>2022-08-12T09:21:41.000Z</time>
      </trkpt>
      <trkpt lat="45.11615" lon="5.55053">
        <ele>1249.6</ele>
        <time>2022-08-12T09:21:42.000Z</time>
      </trkpt>
      <trkpt lat="45.11615" lon="5.55051">
        <ele>1249.7</ele>
        <time>2022-08-12T09:21:43.000Z</time>
      </trkpt>
      <trkpt lat="45.11614" lon="5.5505">
        <ele>1249.8</ele>
        <time>2022-08-12T09:21:44.000Z</time>
      </trkpt>
      <trkpt lat="45.11614" lon="5.55048">
        <ele>1249.9</ele>
        <time>2022-08-12T09:21:45.000Z</time>
      </trkpt>
      <trkpt lat="45.11614" lon="5.55046">
        <ele>1250</ele>
        <time>2022-08-12T09:21:46.000Z</time>
      </trkpt>
      <trkpt lat="45.11614" lon="5.55044">
        <ele>1250.1</ele>
        <time>2022-08-12T09:21:47.000Z</time>
      </trkpt>
      <trkpt lat="45.11613" lon="5.55041">
        <ele>1250.2</ele>
        <time>2022-08-12T09:21:48.000Z</time>
      </trkpt>
      <trkpt lat="45.11613" lon="5.55039">
        <ele>1250.4</ele>
        <time>2022-08-12T09:21:49.000Z</time>
      </trkpt>
      <trkpt lat="45.11612" lon="5.55035">
        <ele>1250.6</ele>
        <time>2022-08-12T09:21:51.000Z</time>
      </trkpt>
      <trkpt lat="45.11612" lon="5.55032">
        <ele>1250.8</ele>
        <time>2022-08-12T09:21:52.000Z</time>
      </trkpt>
      <trkpt lat="45.11611" lon="5.5503">
        <ele>1250.8</ele>
        <time>2022-08-12T09:21:53.000Z</time>
      </trkpt>
      <trkpt lat="45.1161" lon="5.55028">
        <ele>1250.9</ele>
        <time>2022-08-12T09:21:54.000Z</time>
      </trkpt>
      <trkpt lat="45.1161" lon="5.55026">
        <ele>1251</ele>
        <time>2022-08-12T09:21:55.000Z</time>
      </trkpt>
      <trkpt lat="45.11609" lon="5.55024">
        <ele>1251.2</ele>
        <time>2022-08-12T09:21:56.000Z</time>
      </trkpt>
      <trkpt lat="45.1161" lon="5.55023">
        <ele>1251.2</ele>
        <time>2022-08-12T09:21:57.000Z</time>
      </trkpt>
      <trkpt lat="45.11609" lon="5.55021">
        <ele>1251.3</ele>
        <time>2022-08-12T09:21:59.000Z</time>
      </trkpt>
      <trkpt lat="45.11609" lon="5.55019">
        <ele>1251.5</ele>
        <time>2022-08-12T09:22:00.000Z</time>
      </trkpt>
      <trkpt lat="45.11609" lon="5.55017">
        <ele>1251.6</ele>
        <time>2022-08-12T09:22:01.000Z</time>
      </trkpt>
      <trkpt lat="45.11609" lon="5.55015">
        <ele>1251.8</ele>
        <time>2022-08-12T09:22:02.000Z</time>
      </trkpt>
      <trkpt lat="45.11609" lon="5.55014">
        <ele>1251.9</ele>
        <time>2022-08-12T09:22:03.000Z</time>
      </trkpt>
      <trkpt lat="45.11609" lon="5.55012">
        <ele>1252</ele>
        <time>2022-08-12T09:22:04.000Z</time>
      </trkpt>
      <trkpt lat="45.11608" lon="5.5501">
        <ele>1252.1</ele>
        <time>2022-08-12T09:22:05.000Z</time>
      </trkpt>
      <trkpt lat="45.11607" lon="5.55008">
        <ele>1252.1</ele>
        <time>2022-08-12T09:22:06.000Z</time>
      </trkpt>
      <trkpt lat="45.11607" lon="5.55005">
        <ele>1252.3</ele>
        <time>2022-08-12T09:22:08.000Z</time>
      </trkpt>
      <trkpt lat="45.11606" lon="5.55003">
        <ele>1252.4</ele>
        <time>2022-08-12T09:22:09.000Z</time>
      </trkpt>
      <trkpt lat="45.11604" lon="5.55001">
        <ele>1252.5</ele>
        <time>2022-08-12T09:22:10.000Z</time>
      </trkpt>
      <trkpt lat="45.11603" lon="5.54999">
        <ele>1252.5</ele>
        <time>2022-08-12T09:22:11.000Z</time>
      </trkpt>
      <trkpt lat="45.11603" lon="5.54998">
        <ele>1252.6</ele>
        <time>2022-08-12T09:22:12.000Z</time>
      </trkpt>
      <trkpt lat="45.11602" lon="5.54996">
        <ele>1252.6</ele>
        <time>2022-08-12T09:22:13.000Z</time>
      </trkpt>
      <trkpt lat="45.11602" lon="5.54995">
        <ele>1252.7</ele>
        <time>2022-08-12T09:22:14.000Z</time>
      </trkpt>
      <trkpt lat="45.11603" lon="5.54992">
        <ele>1252.9</ele>
        <time>2022-08-12T09:22:16.000Z</time>
      </trkpt>
      <trkpt lat="45.11602" lon="5.54991">
        <ele>1253</ele>
        <time>2022-08-12T09:22:17.000Z</time>
      </trkpt>
      <trkpt lat="45.11601" lon="5.54989">
        <ele>1253</ele>
        <time>2022-08-12T09:22:18.000Z</time>
      </trkpt>
      <trkpt lat="45.116" lon="5.54988">
        <ele>1253.1</ele>
        <time>2022-08-12T09:22:19.000Z</time>
      </trkpt>
      <trkpt lat="45.11599" lon="5.54986">
        <ele>1253.1</ele>
        <time>2022-08-12T09:22:20.000Z</time>
      </trkpt>
      <trkpt lat="45.11599" lon="5.54985">
        <ele>1253.2</ele>
        <time>2022-08-12T09:22:21.000Z</time>
      </trkpt>
      <trkpt lat="45.11599" lon="5.54984">
        <ele>1253.2</ele>
        <time>2022-08-12T09:22:22.000Z</time>
      </trkpt>
      <trkpt lat="45.11599" lon="5.54983">
        <ele>1253.4</ele>
        <time>2022-08-12T09:22:23.000Z</time>
      </trkpt>
      <trkpt lat="45.11599" lon="5.54982">
        <ele>1253.5</ele>
        <time>2022-08-12T09:22:24.000Z</time>
      </trkpt>
      <trkpt lat="45.11599" lon="5.54981">
        <ele>1253.5</ele>
        <time>2022-08-12T09:22:25.000Z</time>
      </trkpt>
      <trkpt lat="45.11598" lon="5.5498">
        <ele>1253.5</ele>
        <time>2022-08-12T09:22:26.000Z</time>
      </trkpt>
      <trkpt lat="45.11597" lon="5.54978">
        <ele>1253.6</ele>
        <time>2022-08-12T09:22:27.000Z</time>
      </trkpt>
      <trkpt lat="45.11598" lon="5.54977">
        <ele>1253.7</ele>
        <time>2022-08-12T09:22:28.000Z</time>
      </trkpt>
      <trkpt lat="45.11598" lon="5.54975">
        <ele>1253.8</ele>
        <time>2022-08-12T09:22:29.000Z</time>
      </trkpt>
      <trkpt lat="45.11598" lon="5.54974">
        <ele>1253.9</ele>
        <time>2022-08-12T09:22:30.000Z</time>
      </trkpt>
      <trkpt lat="45.11598" lon="5.54973">
        <ele>1254</ele>
        <time>2022-08-12T09:22:31.000Z</time>
      </trkpt>
      <trkpt lat="45.11597" lon="5.54972">
        <ele>1254</ele>
        <time>2022-08-12T09:22:33.000Z</time>
      </trkpt>
      <trkpt lat="45.11597" lon="5.5497">
        <ele>1254.1</ele>
        <time>2022-08-12T09:22:34.000Z</time>
      </trkpt>
      <trkpt lat="45.11596" lon="5.54968">
        <ele>1254.1</ele>
        <time>2022-08-12T09:22:35.000Z</time>
      </trkpt>
      <trkpt lat="45.11596" lon="5.54967">
        <ele>1254.2</ele>
        <time>2022-08-12T09:22:36.000Z</time>
      </trkpt>
      <trkpt lat="45.11595" lon="5.54965">
        <ele>1254.2</ele>
        <time>2022-08-12T09:22:37.000Z</time>
      </trkpt>
      <trkpt lat="45.11594" lon="5.54964">
        <ele>1254.3</ele>
        <time>2022-08-12T09:22:38.000Z</time>
      </trkpt>
      <trkpt lat="45.11594" lon="5.54962">
        <ele>1254.4</ele>
        <time>2022-08-12T09:22:39.000Z</time>
      </trkpt>
      <trkpt lat="45.11594" lon="5.5496">
        <ele>1254.5</ele>
        <time>2022-08-12T09:22:40.000Z</time>
      </trkpt>
      <trkpt lat="45.11593" lon="5.54958">
        <ele>1254.6</ele>
        <time>2022-08-12T09:22:41.000Z</time>
      </trkpt>
      <trkpt lat="45.11593" lon="5.54956">
        <ele>1254.7</ele>
        <time>2022-08-12T09:22:42.000Z</time>
      </trkpt>
      <trkpt lat="45.11593" lon="5.54955">
        <ele>1254.7</ele>
        <time>2022-08-12T09:22:43.000Z</time>
      </trkpt>
      <trkpt lat="45.11593" lon="5.54954">
        <ele>1254.8</ele>
        <time>2022-08-12T09:22:44.000Z</time>
      </trkpt>
      <trkpt lat="45.11594" lon="5.54953">
        <ele>1254.9</ele>
        <time>2022-08-12T09:22:45.000Z</time>
      </trkpt>
      <trkpt lat="45.11594" lon="5.54951">
        <ele>1255</ele>
        <time>2022-08-12T09:22:46.000Z</time>
      </trkpt>
      <trkpt lat="45.11594" lon="5.54949">
        <ele>1255.1</ele>
        <time>2022-08-12T09:22:47.000Z</time>
      </trkpt>
      <trkpt lat="45.11595" lon="5.54947">
        <ele>1255.3</ele>
        <time>2022-08-12T09:22:48.000Z</time>
      </trkpt>
      <trkpt lat="45.11596" lon="5.54947">
        <ele>1255.3</ele>
        <time>2022-08-12T09:22:49.000Z</time>
      </trkpt>
      <trkpt lat="45.11596" lon="5.54946">
        <ele>1255.3</ele>
        <time>2022-08-12T09:22:50.000Z</time>
      </trkpt>
      <trkpt lat="45.11596" lon="5.54945">
        <ele>1255.4</ele>
        <time>2022-08-12T09:22:51.000Z</time>
      </trkpt>
      <trkpt lat="45.11596" lon="5.54944">
        <ele>1255.5</ele>
        <time>2022-08-12T09:22:52.000Z</time>
      </trkpt>
      <trkpt lat="45.11595" lon="5.54942">
        <ele>1255.5</ele>
        <time>2022-08-12T09:22:53.000Z</time>
      </trkpt>
      <trkpt lat="45.11595" lon="5.5494">
        <ele>1255.5</ele>
        <time>2022-08-12T09:22:54.000Z</time>
      </trkpt>
      <trkpt lat="45.11595" lon="5.54938">
        <ele>1255.6</ele>
        <time>2022-08-12T09:22:55.000Z</time>
      </trkpt>
      <trkpt lat="45.11595" lon="5.54937">
        <ele>1255.6</ele>
        <time>2022-08-12T09:22:56.000Z</time>
      </trkpt>
      <trkpt lat="45.11595" lon="5.54935">
        <ele>1255.6</ele>
        <time>2022-08-12T09:22:57.000Z</time>
      </trkpt>
      <trkpt lat="45.11596" lon="5.54933">
        <ele>1255.7</ele>
        <time>2022-08-12T09:22:58.000Z</time>
      </trkpt>
      <trkpt lat="45.11597" lon="5.54932">
        <ele>1255.7</ele>
        <time>2022-08-12T09:22:59.000Z</time>
      </trkpt>
      <trkpt lat="45.11597" lon="5.5493">
        <ele>1255.8</ele>
        <time>2022-08-12T09:23:00.000Z</time>
      </trkpt>
      <trkpt lat="45.11598" lon="5.54929">
        <ele>1255.8</ele>
        <time>2022-08-12T09:23:01.000Z</time>
      </trkpt>
      <trkpt lat="45.11598" lon="5.54928">
        <ele>1255.8</ele>
        <time>2022-08-12T09:23:02.000Z</time>
      </trkpt>
      <trkpt lat="45.11599" lon="5.54926">
        <ele>1255.9</ele>
        <time>2022-08-12T09:23:03.000Z</time>
      </trkpt>
      <trkpt lat="45.11599" lon="5.54924">
        <ele>1255.9</ele>
        <time>2022-08-12T09:23:04.000Z</time>
      </trkpt>
      <trkpt lat="45.11599" lon="5.54922">
        <ele>1255.9</ele>
        <time>2022-08-12T09:23:05.000Z</time>
      </trkpt>
      <trkpt lat="45.11599" lon="5.54919">
        <ele>1256</ele>
        <time>2022-08-12T09:23:06.000Z</time>
      </trkpt>
      <trkpt lat="45.116" lon="5.54917">
        <ele>1256</ele>
        <time>2022-08-12T09:23:07.000Z</time>
      </trkpt>
      <trkpt lat="45.116" lon="5.54913">
        <ele>1255.9</ele>
        <time>2022-08-12T09:23:08.000Z</time>
      </trkpt>
      <trkpt lat="45.11601" lon="5.54911">
        <ele>1255.9</ele>
        <time>2022-08-12T09:23:09.000Z</time>
      </trkpt>
      <trkpt lat="45.11602" lon="5.54908">
        <ele>1255.8</ele>
        <time>2022-08-12T09:23:10.000Z</time>
      </trkpt>
      <trkpt lat="45.11602" lon="5.54907">
        <ele>1255.8</ele>
        <time>2022-08-12T09:23:11.000Z</time>
      </trkpt>
      <trkpt lat="45.11602" lon="5.54906">
        <ele>1255.7</ele>
        <time>2022-08-12T09:23:13.000Z</time>
      </trkpt>
      <trkpt lat="45.11602" lon="5.54905">
        <ele>1255.7</ele>
        <time>2022-08-12T09:23:14.000Z</time>
      </trkpt>
      <trkpt lat="45.11602" lon="5.54904">
        <ele>1255.7</ele>
        <time>2022-08-12T09:23:15.000Z</time>
      </trkpt>
      <trkpt lat="45.11602" lon="5.54902">
        <ele>1255.7</ele>
        <time>2022-08-12T09:23:16.000Z</time>
      </trkpt>
      <trkpt lat="45.11601" lon="5.549">
        <ele>1255.6</ele>
        <time>2022-08-12T09:23:17.000Z</time>
      </trkpt>
      <trkpt lat="45.11601" lon="5.54899">
        <ele>1255.6</ele>
        <time>2022-08-12T09:23:18.000Z</time>
      </trkpt>
      <trkpt lat="45.11601" lon="5.54896">
        <ele>1255.5</ele>
        <time>2022-08-12T09:23:19.000Z</time>
      </trkpt>
      <trkpt lat="45.116" lon="5.54894">
        <ele>1255.5</ele>
        <time>2022-08-12T09:23:20.000Z</time>
      </trkpt>
      <trkpt lat="45.11598" lon="5.54892">
        <ele>1255.5</ele>
        <time>2022-08-12T09:23:21.000Z</time>
      </trkpt>
      <trkpt lat="45.11598" lon="5.54891">
        <ele>1255.5</ele>
        <time>2022-08-12T09:23:22.000Z</time>
      </trkpt>
      <trkpt lat="45.11598" lon="5.54889">
        <ele>1255.5</ele>
        <time>2022-08-12T09:23:23.000Z</time>
      </trkpt>
      <trkpt lat="45.11598" lon="5.54888">
        <ele>1255.4</ele>
        <time>2022-08-12T09:23:24.000Z</time>
      </trkpt>
      <trkpt lat="45.11597" lon="5.54887">
        <ele>1255.4</ele>
        <time>2022-08-12T09:23:25.000Z</time>
      </trkpt>
      <trkpt lat="45.11595" lon="5.54886">
        <ele>1255.4</ele>
        <time>2022-08-12T09:23:26.000Z</time>
      </trkpt>
      <trkpt lat="45.11594" lon="5.54884">
        <ele>1255.4</ele>
        <time>2022-08-12T09:23:27.000Z</time>
      </trkpt>
      <trkpt lat="45.11592" lon="5.54881">
        <ele>1255.3</ele>
        <time>2022-08-12T09:23:29.000Z</time>
      </trkpt>
      <trkpt lat="45.11591" lon="5.54879">
        <ele>1255.3</ele>
        <time>2022-08-12T09:23:30.000Z</time>
      </trkpt>
      <trkpt lat="45.11591" lon="5.54877">
        <ele>1255.2</ele>
        <time>2022-08-12T09:23:31.000Z</time>
      </trkpt>
      <trkpt lat="45.1159" lon="5.54876">
        <ele>1255.2</ele>
        <time>2022-08-12T09:23:32.000Z</time>
      </trkpt>
      <trkpt lat="45.11588" lon="5.54875">
        <ele>1255.3</ele>
        <time>2022-08-12T09:23:33.000Z</time>
      </trkpt>
      <trkpt lat="45.11585" lon="5.54876">
        <ele>1255.5</ele>
        <time>2022-08-12T09:23:37.000Z</time>
      </trkpt>
      <trkpt lat="45.11584" lon="5.54875">
        <ele>1255.5</ele>
        <time>2022-08-12T09:23:39.000Z</time>
      </trkpt>
      <trkpt lat="45.11583" lon="5.54875">
        <ele>1255.5</ele>
        <time>2022-08-12T09:23:40.000Z</time>
      </trkpt>
      <trkpt lat="45.11582" lon="5.54875">
        <ele>1255.6</ele>
        <time>2022-08-12T09:23:41.000Z</time>
      </trkpt>
      <trkpt lat="45.1158" lon="5.54874">
        <ele>1255.6</ele>
        <time>2022-08-12T09:23:43.000Z</time>
      </trkpt>
      <trkpt lat="45.11578" lon="5.54873">
        <ele>1255.7</ele>
        <time>2022-08-12T09:23:45.000Z</time>
      </trkpt>
      <trkpt lat="45.11577" lon="5.54872">
        <ele>1255.8</ele>
        <time>2022-08-12T09:23:46.000Z</time>
      </trkpt>
      <trkpt lat="45.11576" lon="5.54871">
        <ele>1255.8</ele>
        <time>2022-08-12T09:23:47.000Z</time>
      </trkpt>
      <trkpt lat="45.11575" lon="5.5487">
        <ele>1255.9</ele>
        <time>2022-08-12T09:23:48.000Z</time>
      </trkpt>
      <trkpt lat="45.11573" lon="5.54869">
        <ele>1255.9</ele>
        <time>2022-08-12T09:23:49.000Z</time>
      </trkpt>
      <trkpt lat="45.11572" lon="5.54866">
        <ele>1255.9</ele>
        <time>2022-08-12T09:23:51.000Z</time>
      </trkpt>
      <trkpt lat="45.11571" lon="5.54866">
        <ele>1256</ele>
        <time>2022-08-12T09:23:52.000Z</time>
      </trkpt>
      <trkpt lat="45.11571" lon="5.54864">
        <ele>1256</ele>
        <time>2022-08-12T09:23:53.000Z</time>
      </trkpt>
      <trkpt lat="45.1157" lon="5.54859">
        <ele>1255.9</ele>
        <time>2022-08-12T09:23:55.000Z</time>
      </trkpt>
      <trkpt lat="45.1157" lon="5.54857">
        <ele>1255.8</ele>
        <time>2022-08-12T09:23:56.000Z</time>
      </trkpt>
      <trkpt lat="45.1157" lon="5.54855">
        <ele>1255.7</ele>
        <time>2022-08-12T09:23:57.000Z</time>
      </trkpt>
      <trkpt lat="45.11569" lon="5.54852">
        <ele>1255.7</ele>
        <time>2022-08-12T09:23:58.000Z</time>
      </trkpt>
      <trkpt lat="45.11569" lon="5.5485">
        <ele>1255.7</ele>
        <time>2022-08-12T09:23:59.000Z</time>
      </trkpt>
      <trkpt lat="45.11568" lon="5.54847">
        <ele>1255.7</ele>
        <time>2022-08-12T09:24:01.000Z</time>
      </trkpt>
      <trkpt lat="45.11566" lon="5.54846">
        <ele>1255.9</ele>
        <time>2022-08-12T09:24:02.000Z</time>
      </trkpt>
      <trkpt lat="45.11564" lon="5.54845">
        <ele>1256.1</ele>
        <time>2022-08-12T09:24:03.000Z</time>
      </trkpt>
      <trkpt lat="45.11562" lon="5.54844">
        <ele>1256.3</ele>
        <time>2022-08-12T09:24:04.000Z</time>
      </trkpt>
      <trkpt lat="45.1156" lon="5.54843">
        <ele>1256.4</ele>
        <time>2022-08-12T09:24:05.000Z</time>
      </trkpt>
      <trkpt lat="45.11558" lon="5.54843">
        <ele>1256.7</ele>
        <time>2022-08-12T09:24:06.000Z</time>
      </trkpt>
      <trkpt lat="45.11556" lon="5.54843">
        <ele>1256.9</ele>
        <time>2022-08-12T09:24:07.000Z</time>
      </trkpt>
      <trkpt lat="45.11555" lon="5.54843">
        <ele>1257</ele>
        <time>2022-08-12T09:24:08.000Z</time>
      </trkpt>
      <trkpt lat="45.11554" lon="5.54841">
        <ele>1257.1</ele>
        <time>2022-08-12T09:24:09.000Z</time>
      </trkpt>
      <trkpt lat="45.11552" lon="5.54841">
        <ele>1257.2</ele>
        <time>2022-08-12T09:24:10.000Z</time>
      </trkpt>
      <trkpt lat="45.11551" lon="5.5484">
        <ele>1257.3</ele>
        <time>2022-08-12T09:24:11.000Z</time>
      </trkpt>
      <trkpt lat="45.1155" lon="5.5484">
        <ele>1257.3</ele>
        <time>2022-08-12T09:24:12.000Z</time>
      </trkpt>
      <trkpt lat="45.11547" lon="5.54837">
        <ele>1257.6</ele>
        <time>2022-08-12T09:24:15.000Z</time>
      </trkpt>
      <trkpt lat="45.11547" lon="5.54836">
        <ele>1257.6</ele>
        <time>2022-08-12T09:24:17.000Z</time>
      </trkpt>
      <trkpt lat="45.11546" lon="5.54835">
        <ele>1257.6</ele>
        <time>2022-08-12T09:24:19.000Z</time>
      </trkpt>
      <trkpt lat="45.11546" lon="5.54833">
        <ele>1257.7</ele>
        <time>2022-08-12T09:24:20.000Z</time>
      </trkpt>
      <trkpt lat="45.11545" lon="5.54833">
        <ele>1257.7</ele>
        <time>2022-08-12T09:24:21.000Z</time>
      </trkpt>
      <trkpt lat="45.11544" lon="5.54832">
        <ele>1257.7</ele>
        <time>2022-08-12T09:24:22.000Z</time>
      </trkpt>
      <trkpt lat="45.11541" lon="5.54826">
        <ele>1257.7</ele>
        <time>2022-08-12T09:24:25.000Z</time>
      </trkpt>
      <trkpt lat="45.11539" lon="5.54825">
        <ele>1257.7</ele>
        <time>2022-08-12T09:24:26.000Z</time>
      </trkpt>
      <trkpt lat="45.11538" lon="5.54824">
        <ele>1257.8</ele>
        <time>2022-08-12T09:24:27.000Z</time>
      </trkpt>
      <trkpt lat="45.11536" lon="5.54823">
        <ele>1257.9</ele>
        <time>2022-08-12T09:24:28.000Z</time>
      </trkpt>
      <trkpt lat="45.11535" lon="5.54822">
        <ele>1257.9</ele>
        <time>2022-08-12T09:24:29.000Z</time>
      </trkpt>
      <trkpt lat="45.11533" lon="5.54821">
        <ele>1258.1</ele>
        <time>2022-08-12T09:24:30.000Z</time>
      </trkpt>
      <trkpt lat="45.11531" lon="5.54821">
        <ele>1258.2</ele>
        <time>2022-08-12T09:24:31.000Z</time>
      </trkpt>
      <trkpt lat="45.1153" lon="5.5482">
        <ele>1258.4</ele>
        <time>2022-08-12T09:24:32.000Z</time>
      </trkpt>
      <trkpt lat="45.11528" lon="5.5482">
        <ele>1258.5</ele>
        <time>2022-08-12T09:24:33.000Z</time>
      </trkpt>
      <trkpt lat="45.11526" lon="5.54819">
        <ele>1258.6</ele>
        <time>2022-08-12T09:24:34.000Z</time>
      </trkpt>
      <trkpt lat="45.11525" lon="5.54818">
        <ele>1258.6</ele>
        <time>2022-08-12T09:24:35.000Z</time>
      </trkpt>
      <trkpt lat="45.11524" lon="5.54818">
        <ele>1258.6</ele>
        <time>2022-08-12T09:24:36.000Z</time>
      </trkpt>
      <trkpt lat="45.11524" lon="5.54817">
        <ele>1258.6</ele>
        <time>2022-08-12T09:24:37.000Z</time>
      </trkpt>
      <trkpt lat="45.11524" lon="5.54816">
        <ele>1258.6</ele>
        <time>2022-08-12T09:24:38.000Z</time>
      </trkpt>
      <trkpt lat="45.11523" lon="5.54815">
        <ele>1258.6</ele>
        <time>2022-08-12T09:24:39.000Z</time>
      </trkpt>
      <trkpt lat="45.11522" lon="5.54815">
        <ele>1258.7</ele>
        <time>2022-08-12T09:24:40.000Z</time>
      </trkpt>
      <trkpt lat="45.11521" lon="5.54815">
        <ele>1258.7</ele>
        <time>2022-08-12T09:24:41.000Z</time>
      </trkpt>
      <trkpt lat="45.1152" lon="5.54815">
        <ele>1258.8</ele>
        <time>2022-08-12T09:24:42.000Z</time>
      </trkpt>
      <trkpt lat="45.11518" lon="5.54815">
        <ele>1258.9</ele>
        <time>2022-08-12T09:24:43.000Z</time>
      </trkpt>
      <trkpt lat="45.11516" lon="5.54815">
        <ele>1259.1</ele>
        <time>2022-08-12T09:24:44.000Z</time>
      </trkpt>
      <trkpt lat="45.11514" lon="5.54814">
        <ele>1259.2</ele>
        <time>2022-08-12T09:24:45.000Z</time>
      </trkpt>
      <trkpt lat="45.11513" lon="5.54814">
        <ele>1259.2</ele>
        <time>2022-08-12T09:24:47.000Z</time>
      </trkpt>
      <trkpt lat="45.11511" lon="5.54814">
        <ele>1259.3</ele>
        <time>2022-08-12T09:24:48.000Z</time>
      </trkpt>
      <trkpt lat="45.1151" lon="5.54815">
        <ele>1259.4</ele>
        <time>2022-08-12T09:24:49.000Z</time>
      </trkpt>
      <trkpt lat="45.11508" lon="5.54816">
        <ele>1259.6</ele>
        <time>2022-08-12T09:24:50.000Z</time>
      </trkpt>
      <trkpt lat="45.11507" lon="5.54817">
        <ele>1259.6</ele>
        <time>2022-08-12T09:24:51.000Z</time>
      </trkpt>
      <trkpt lat="45.11506" lon="5.54818">
        <ele>1259.7</ele>
        <time>2022-08-12T09:24:52.000Z</time>
      </trkpt>
      <trkpt lat="45.11504" lon="5.54818">
        <ele>1259.8</ele>
        <time>2022-08-12T09:24:53.000Z</time>
      </trkpt>
      <trkpt lat="45.11503" lon="5.54818">
        <ele>1259.8</ele>
        <time>2022-08-12T09:24:55.000Z</time>
      </trkpt>
      <trkpt lat="45.11501" lon="5.54817">
        <ele>1259.9</ele>
        <time>2022-08-12T09:24:56.000Z</time>
      </trkpt>
      <trkpt lat="45.11499" lon="5.54817">
        <ele>1260</ele>
        <time>2022-08-12T09:24:57.000Z</time>
      </trkpt>
      <trkpt lat="45.11498" lon="5.54816">
        <ele>1260</ele>
        <time>2022-08-12T09:24:58.000Z</time>
      </trkpt>
      <trkpt lat="45.11496" lon="5.54815">
        <ele>1260</ele>
        <time>2022-08-12T09:25:01.000Z</time>
      </trkpt>
      <trkpt lat="45.11494" lon="5.54815">
        <ele>1260.1</ele>
        <time>2022-08-12T09:25:02.000Z</time>
      </trkpt>
      <trkpt lat="45.11492" lon="5.54813">
        <ele>1260.1</ele>
        <time>2022-08-12T09:25:03.000Z</time>
      </trkpt>
      <trkpt lat="45.1149" lon="5.54811">
        <ele>1260.2</ele>
        <time>2022-08-12T09:25:04.000Z</time>
      </trkpt>
      <trkpt lat="45.11489" lon="5.54809">
        <ele>1260.3</ele>
        <time>2022-08-12T09:25:05.000Z</time>
      </trkpt>
      <trkpt lat="45.11487" lon="5.54807">
        <ele>1260.4</ele>
        <time>2022-08-12T09:25:06.000Z</time>
      </trkpt>
      <trkpt lat="45.11486" lon="5.54806">
        <ele>1260.5</ele>
        <time>2022-08-12T09:25:07.000Z</time>
      </trkpt>
      <trkpt lat="45.11485" lon="5.54804">
        <ele>1260.6</ele>
        <time>2022-08-12T09:25:08.000Z</time>
      </trkpt>
      <trkpt lat="45.11483" lon="5.54803">
        <ele>1260.7</ele>
        <time>2022-08-12T09:25:09.000Z</time>
      </trkpt>
      <trkpt lat="45.1148" lon="5.548">
        <ele>1260.8</ele>
        <time>2022-08-12T09:25:11.000Z</time>
      </trkpt>
      <trkpt lat="45.11475" lon="5.54796">
        <ele>1261.2</ele>
        <time>2022-08-12T09:25:14.000Z</time>
      </trkpt>
      <trkpt lat="45.11474" lon="5.54794">
        <ele>1261.3</ele>
        <time>2022-08-12T09:25:15.000Z</time>
      </trkpt>
      <trkpt lat="45.11473" lon="5.54792">
        <ele>1261.4</ele>
        <time>2022-08-12T09:25:16.000Z</time>
      </trkpt>
      <trkpt lat="45.11472" lon="5.5479">
        <ele>1261.6</ele>
        <time>2022-08-12T09:25:17.000Z</time>
      </trkpt>
      <trkpt lat="45.11469" lon="5.54788">
        <ele>1261.6</ele>
        <time>2022-08-12T09:25:18.000Z</time>
      </trkpt>
      <trkpt lat="45.11467" lon="5.54786">
        <ele>1261.7</ele>
        <time>2022-08-12T09:25:19.000Z</time>
      </trkpt>
      <trkpt lat="45.11464" lon="5.54786">
        <ele>1261.7</ele>
        <time>2022-08-12T09:25:20.000Z</time>
      </trkpt>
      <trkpt lat="45.11457" lon="5.54788">
        <ele>1261.6</ele>
        <time>2022-08-12T09:25:22.000Z</time>
      </trkpt>
      <trkpt lat="45.11455" lon="5.54789">
        <ele>1261.6</ele>
        <time>2022-08-12T09:25:23.000Z</time>
      </trkpt>
      <trkpt lat="45.11453" lon="5.54791">
        <ele>1261.5</ele>
        <time>2022-08-12T09:25:24.000Z</time>
      </trkpt>
      <trkpt lat="45.1144" lon="5.54796">
        <ele>1261.4</ele>
        <time>2022-08-12T09:25:29.000Z</time>
      </trkpt>
      <trkpt lat="45.1143" lon="5.54794">
        <ele>1261.7</ele>
        <time>2022-08-12T09:25:33.000Z</time>
      </trkpt>
      <trkpt lat="45.11428" lon="5.54792">
        <ele>1261.8</ele>
        <time>2022-08-12T09:25:34.000Z</time>
      </trkpt>
      <trkpt lat="45.11427" lon="5.5479">
        <ele>1261.9</ele>
        <time>2022-08-12T09:25:35.000Z</time>
      </trkpt>
      <trkpt lat="45.11426" lon="5.54788">
        <ele>1262.1</ele>
        <time>2022-08-12T09:25:36.000Z</time>
      </trkpt>
      <trkpt lat="45.11424" lon="5.54785">
        <ele>1262.3</ele>
        <time>2022-08-12T09:25:37.000Z</time>
      </trkpt>
      <trkpt lat="45.11423" lon="5.54783">
        <ele>1262.4</ele>
        <time>2022-08-12T09:25:38.000Z</time>
      </trkpt>
      <trkpt lat="45.11421" lon="5.54782">
        <ele>1262.5</ele>
        <time>2022-08-12T09:25:39.000Z</time>
      </trkpt>
      <trkpt lat="45.11419" lon="5.54782">
        <ele>1262.6</ele>
        <time>2022-08-12T09:25:40.000Z</time>
      </trkpt>
      <trkpt lat="45.11416" lon="5.54784">
        <ele>1262.6</ele>
        <time>2022-08-12T09:25:41.000Z</time>
      </trkpt>
      <trkpt lat="45.11411" lon="5.54786">
        <ele>1262.5</ele>
        <time>2022-08-12T09:25:43.000Z</time>
      </trkpt>
      <trkpt lat="45.11409" lon="5.54785">
        <ele>1262.5</ele>
        <time>2022-08-12T09:25:44.000Z</time>
      </trkpt>
      <trkpt lat="45.11406" lon="5.54785">
        <ele>1262.6</ele>
        <time>2022-08-12T09:25:45.000Z</time>
      </trkpt>
      <trkpt lat="45.11404" lon="5.54783">
        <ele>1262.7</ele>
        <time>2022-08-12T09:25:46.000Z</time>
      </trkpt>
      <trkpt lat="45.11401" lon="5.54782">
        <ele>1262.8</ele>
        <time>2022-08-12T09:25:47.000Z</time>
      </trkpt>
      <trkpt lat="45.11396" lon="5.5478">
        <ele>1262.9</ele>
        <time>2022-08-12T09:25:49.000Z</time>
      </trkpt>
      <trkpt lat="45.11394" lon="5.54778">
        <ele>1263</ele>
        <time>2022-08-12T09:25:50.000Z</time>
      </trkpt>
      <trkpt lat="45.11389" lon="5.54772">
        <ele>1262.8</ele>
        <time>2022-08-12T09:25:53.000Z</time>
      </trkpt>
      <trkpt lat="45.11374" lon="5.54765">
        <ele>1262</ele>
        <time>2022-08-12T09:25:58.000Z</time>
      </trkpt>
      <trkpt lat="45.11372" lon="5.54763">
        <ele>1261.9</ele>
        <time>2022-08-12T09:25:59.000Z</time>
      </trkpt>
      <trkpt lat="45.11369" lon="5.54761">
        <ele>1261.7</ele>
        <time>2022-08-12T09:26:00.000Z</time>
      </trkpt>
      <trkpt lat="45.11365" lon="5.54758">
        <ele>1261.5</ele>
        <time>2022-08-12T09:26:01.000Z</time>
      </trkpt>
      <trkpt lat="45.11357" lon="5.54757">
        <ele>1261.1</ele>
        <time>2022-08-12T09:26:03.000Z</time>
      </trkpt>
      <trkpt lat="45.11337" lon="5.54759">
        <ele>1260.4</ele>
        <time>2022-08-12T09:26:08.000Z</time>
      </trkpt>
      <trkpt lat="45.11333" lon="5.54761">
        <ele>1260.4</ele>
        <time>2022-08-12T09:26:09.000Z</time>
      </trkpt>
      <trkpt lat="45.1133" lon="5.54762">
        <ele>1260.2</ele>
        <time>2022-08-12T09:26:10.000Z</time>
      </trkpt>
      <trkpt lat="45.11327" lon="5.54763">
        <ele>1260.1</ele>
        <time>2022-08-12T09:26:11.000Z</time>
      </trkpt>
      <trkpt lat="45.11324" lon="5.54764">
        <ele>1260</ele>
        <time>2022-08-12T09:26:12.000Z</time>
      </trkpt>
      <trkpt lat="45.1132" lon="5.54763">
        <ele>1259.8</ele>
        <time>2022-08-12T09:26:13.000Z</time>
      </trkpt>
      <trkpt lat="45.11312" lon="5.54764">
        <ele>1259.4</ele>
        <time>2022-08-12T09:26:15.000Z</time>
      </trkpt>
      <trkpt lat="45.11309" lon="5.54763">
        <ele>1259.2</ele>
        <time>2022-08-12T09:26:16.000Z</time>
      </trkpt>
      <trkpt lat="45.11307" lon="5.54762">
        <ele>1258.9</ele>
        <time>2022-08-12T09:26:17.000Z</time>
      </trkpt>
      <trkpt lat="45.11305" lon="5.54759">
        <ele>1258.6</ele>
        <time>2022-08-12T09:26:18.000Z</time>
      </trkpt>
      <trkpt lat="45.11302" lon="5.54754">
        <ele>1258.1</ele>
        <time>2022-08-12T09:26:19.000Z</time>
      </trkpt>
      <trkpt lat="45.113" lon="5.54752">
        <ele>1257.7</ele>
        <time>2022-08-12T09:26:20.000Z</time>
      </trkpt>
      <trkpt lat="45.11296" lon="5.54751">
        <ele>1257.4</ele>
        <time>2022-08-12T09:26:21.000Z</time>
      </trkpt>
      <trkpt lat="45.11292" lon="5.54752">
        <ele>1257.2</ele>
        <time>2022-08-12T09:26:22.000Z</time>
      </trkpt>
      <trkpt lat="45.11287" lon="5.5475">
        <ele>1256.7</ele>
        <time>2022-08-12T09:26:23.000Z</time>
      </trkpt>
      <trkpt lat="45.11284" lon="5.54748">
        <ele>1255.9</ele>
        <time>2022-08-12T09:26:24.000Z</time>
      </trkpt>
      <trkpt lat="45.11278" lon="5.54744">
        <ele>1254.8</ele>
        <time>2022-08-12T09:26:25.000Z</time>
      </trkpt>
      <trkpt lat="45.11271" lon="5.54743">
        <ele>1253.8</ele>
        <time>2022-08-12T09:26:26.000Z</time>
      </trkpt>
      <trkpt lat="45.11264" lon="5.54742">
        <ele>1253.2</ele>
        <time>2022-08-12T09:26:27.000Z</time>
      </trkpt>
      <trkpt lat="45.11257" lon="5.54743">
        <ele>1252.9</ele>
        <time>2022-08-12T09:26:28.000Z</time>
      </trkpt>
      <trkpt lat="45.11249" lon="5.54745">
        <ele>1252.6</ele>
        <time>2022-08-12T09:26:29.000Z</time>
      </trkpt>
      <trkpt lat="45.11244" lon="5.54746">
        <ele>1252.4</ele>
        <time>2022-08-12T09:26:30.000Z</time>
      </trkpt>
      <trkpt lat="45.1124" lon="5.54747">
        <ele>1252.3</ele>
        <time>2022-08-12T09:26:31.000Z</time>
      </trkpt>
      <trkpt lat="45.11234" lon="5.54749">
        <ele>1252</ele>
        <time>2022-08-12T09:26:32.000Z</time>
      </trkpt>
      <trkpt lat="45.1123" lon="5.54751">
        <ele>1252</ele>
        <time>2022-08-12T09:26:33.000Z</time>
      </trkpt>
      <trkpt lat="45.11226" lon="5.54754">
        <ele>1252.1</ele>
        <time>2022-08-12T09:26:34.000Z</time>
      </trkpt>
      <trkpt lat="45.11225" lon="5.54757">
        <ele>1252.3</ele>
        <time>2022-08-12T09:26:35.000Z</time>
      </trkpt>
      <trkpt lat="45.11224" lon="5.54759">
        <ele>1252.5</ele>
        <time>2022-08-12T09:26:36.000Z</time>
      </trkpt>
      <trkpt lat="45.11222" lon="5.54761">
        <ele>1252.6</ele>
        <time>2022-08-12T09:26:37.000Z</time>
      </trkpt>
      <trkpt lat="45.1122" lon="5.54761">
        <ele>1252.4</ele>
        <time>2022-08-12T09:26:38.000Z</time>
      </trkpt>
      <trkpt lat="45.11217" lon="5.54762">
        <ele>1252.3</ele>
        <time>2022-08-12T09:26:39.000Z</time>
      </trkpt>
      <trkpt lat="45.11215" lon="5.54762">
        <ele>1252.1</ele>
        <time>2022-08-12T09:26:40.000Z</time>
      </trkpt>
      <trkpt lat="45.11213" lon="5.54763">
        <ele>1252.1</ele>
        <time>2022-08-12T09:26:41.000Z</time>
      </trkpt>
      <trkpt lat="45.11209" lon="5.54765">
        <ele>1252</ele>
        <time>2022-08-12T09:26:43.000Z</time>
      </trkpt>
      <trkpt lat="45.11206" lon="5.54767">
        <ele>1252</ele>
        <time>2022-08-12T09:26:44.000Z</time>
      </trkpt>
      <trkpt lat="45.11203" lon="5.54769">
        <ele>1251.9</ele>
        <time>2022-08-12T09:26:45.000Z</time>
      </trkpt>
      <trkpt lat="45.11201" lon="5.54771">
        <ele>1251.9</ele>
        <time>2022-08-12T09:26:46.000Z</time>
      </trkpt>
      <trkpt lat="45.11198" lon="5.54772">
        <ele>1251.8</ele>
        <time>2022-08-12T09:26:47.000Z</time>
      </trkpt>
      <trkpt lat="45.11197" lon="5.54772">
        <ele>1251.6</ele>
        <time>2022-08-12T09:26:48.000Z</time>
      </trkpt>
      <trkpt lat="45.11195" lon="5.54772">
        <ele>1251.4</ele>
        <time>2022-08-12T09:26:49.000Z</time>
      </trkpt>
      <trkpt lat="45.11193" lon="5.54771">
        <ele>1251.1</ele>
        <time>2022-08-12T09:26:50.000Z</time>
      </trkpt>
      <trkpt lat="45.11191" lon="5.5477">
        <ele>1250.9</ele>
        <time>2022-08-12T09:26:51.000Z</time>
      </trkpt>
      <trkpt lat="45.11188" lon="5.54769">
        <ele>1250.6</ele>
        <time>2022-08-12T09:26:52.000Z</time>
      </trkpt>
      <trkpt lat="45.11178" lon="5.54768">
        <ele>1249.7</ele>
        <time>2022-08-12T09:26:55.000Z</time>
      </trkpt>
      <trkpt lat="45.11169" lon="5.54767">
        <ele>1249</ele>
        <time>2022-08-12T09:26:57.000Z</time>
      </trkpt>
      <trkpt lat="45.11167" lon="5.54765">
        <ele>1248.6</ele>
        <time>2022-08-12T09:26:58.000Z</time>
      </trkpt>
      <trkpt lat="45.11163" lon="5.54764">
        <ele>1248.3</ele>
        <time>2022-08-12T09:26:59.000Z</time>
      </trkpt>
      <trkpt lat="45.11158" lon="5.54761">
        <ele>1247.9</ele>
        <time>2022-08-12T09:27:00.000Z</time>
      </trkpt>
      <trkpt lat="45.11143" lon="5.54748">
        <ele>1245.9</ele>
        <time>2022-08-12T09:27:04.000Z</time>
      </trkpt>
      <trkpt lat="45.11139" lon="5.54743">
        <ele>1245</ele>
        <time>2022-08-12T09:27:05.000Z</time>
      </trkpt>
      <trkpt lat="45.11135" lon="5.54739">
        <ele>1244.4</ele>
        <time>2022-08-12T09:27:06.000Z</time>
      </trkpt>
      <trkpt lat="45.11127" lon="5.54733">
        <ele>1243.3</ele>
        <time>2022-08-12T09:27:08.000Z</time>
      </trkpt>
      <trkpt lat="45.11123" lon="5.54733">
        <ele>1243.2</ele>
        <time>2022-08-12T09:27:09.000Z</time>
      </trkpt>
      <trkpt lat="45.11121" lon="5.54734">
        <ele>1243.3</ele>
        <time>2022-08-12T09:27:10.000Z</time>
      </trkpt>
      <trkpt lat="45.1112" lon="5.54735">
        <ele>1243.5</ele>
        <time>2022-08-12T09:27:11.000Z</time>
      </trkpt>
      <trkpt lat="45.1112" lon="5.54736">
        <ele>1243.6</ele>
        <time>2022-08-12T09:27:12.000Z</time>
      </trkpt>
      <trkpt lat="45.11116" lon="5.54741">
        <ele>1244.5</ele>
        <time>2022-08-12T09:27:24.000Z</time>
      </trkpt>
      <trkpt lat="45.11115" lon="5.54742">
        <ele>1244.6</ele>
        <time>2022-08-12T09:27:25.000Z</time>
      </trkpt>
      <trkpt lat="45.11114" lon="5.54743">
        <ele>1244.7</ele>
        <time>2022-08-12T09:27:26.000Z</time>
      </trkpt>
      <trkpt lat="45.11113" lon="5.54743">
        <ele>1244.8</ele>
        <time>2022-08-12T09:27:27.000Z</time>
      </trkpt>
      <trkpt lat="45.11112" lon="5.54743">
        <ele>1244.8</ele>
        <time>2022-08-12T09:27:30.000Z</time>
      </trkpt>
      <trkpt lat="45.11102" lon="5.54746">
        <ele>1245</ele>
        <time>2022-08-12T09:28:12.000Z</time>
      </trkpt>
      <trkpt lat="45.11097" lon="5.54747">
        <ele>1245</ele>
        <time>2022-08-12T09:28:14.000Z</time>
      </trkpt>
      <trkpt lat="45.11094" lon="5.54747">
        <ele>1245</ele>
        <time>2022-08-12T09:28:15.000Z</time>
      </trkpt>
      <trkpt lat="45.11092" lon="5.54748">
        <ele>1245</ele>
        <time>2022-08-12T09:28:16.000Z</time>
      </trkpt>
      <trkpt lat="45.11091" lon="5.54749">
        <ele>1245.1</ele>
        <time>2022-08-12T09:28:17.000Z</time>
      </trkpt>
      <trkpt lat="45.11084" lon="5.5475">
        <ele>1245</ele>
        <time>2022-08-12T09:28:20.000Z</time>
      </trkpt>
      <trkpt lat="45.11073" lon="5.54751">
        <ele>1244.7</ele>
        <time>2022-08-12T09:28:24.000Z</time>
      </trkpt>
      <trkpt lat="45.11071" lon="5.54751">
        <ele>1244.6</ele>
        <time>2022-08-12T09:28:25.000Z</time>
      </trkpt>
      <trkpt lat="45.11069" lon="5.5475">
        <ele>1244.5</ele>
        <time>2022-08-12T09:28:26.000Z</time>
      </trkpt>
      <trkpt lat="45.11068" lon="5.54749">
        <ele>1244.3</ele>
        <time>2022-08-12T09:28:27.000Z</time>
      </trkpt>
      <trkpt lat="45.11066" lon="5.54748">
        <ele>1244.1</ele>
        <time>2022-08-12T09:28:28.000Z</time>
      </trkpt>
      <trkpt lat="45.11064" lon="5.54747">
        <ele>1243.8</ele>
        <time>2022-08-12T09:28:29.000Z</time>
      </trkpt>
      <trkpt lat="45.11061" lon="5.54746">
        <ele>1243.6</ele>
        <time>2022-08-12T09:28:30.000Z</time>
      </trkpt>
      <trkpt lat="45.11059" lon="5.54746">
        <ele>1243.4</ele>
        <time>2022-08-12T09:28:31.000Z</time>
      </trkpt>
      <trkpt lat="45.11054" lon="5.54743">
        <ele>1242.6</ele>
        <time>2022-08-12T09:28:34.000Z</time>
      </trkpt>
      <trkpt lat="45.11052" lon="5.54743">
        <ele>1242.5</ele>
        <time>2022-08-12T09:28:35.000Z</time>
      </trkpt>
      <trkpt lat="45.1105" lon="5.54744">
        <ele>1242.5</ele>
        <time>2022-08-12T09:28:36.000Z</time>
      </trkpt>
      <trkpt lat="45.11047" lon="5.54746">
        <ele>1242.7</ele>
        <time>2022-08-12T09:28:37.000Z</time>
      </trkpt>
      <trkpt lat="45.11045" lon="5.54746">
        <ele>1242.7</ele>
        <time>2022-08-12T09:28:38.000Z</time>
      </trkpt>
      <trkpt lat="45.11044" lon="5.54747">
        <ele>1242.6</ele>
        <time>2022-08-12T09:28:39.000Z</time>
      </trkpt>
      <trkpt lat="45.11037" lon="5.54747">
        <ele>1242.2</ele>
        <time>2022-08-12T09:28:42.000Z</time>
      </trkpt>
      <trkpt lat="45.11031" lon="5.54748">
        <ele>1242</ele>
        <time>2022-08-12T09:28:44.000Z</time>
      </trkpt>
      <trkpt lat="45.11024" lon="5.54751">
        <ele>1241.9</ele>
        <time>2022-08-12T09:28:47.000Z</time>
      </trkpt>
      <trkpt lat="45.11023" lon="5.54752">
        <ele>1241.9</ele>
        <time>2022-08-12T09:28:48.000Z</time>
      </trkpt>
      <trkpt lat="45.11021" lon="5.54752">
        <ele>1241.9</ele>
        <time>2022-08-12T09:28:49.000Z</time>
      </trkpt>
      <trkpt lat="45.1102" lon="5.54752">
        <ele>1241.8</ele>
        <time>2022-08-12T09:28:50.000Z</time>
      </trkpt>
      <trkpt lat="45.11017" lon="5.54751">
        <ele>1241.7</ele>
        <time>2022-08-12T09:28:51.000Z</time>
      </trkpt>
      <trkpt lat="45.11014" lon="5.54749">
        <ele>1241.3</ele>
        <time>2022-08-12T09:28:52.000Z</time>
      </trkpt>
      <trkpt lat="45.11009" lon="5.54748">
        <ele>1241</ele>
        <time>2022-08-12T09:28:53.000Z</time>
      </trkpt>
      <trkpt lat="45.11001" lon="5.54748">
        <ele>1240.8</ele>
        <time>2022-08-12T09:28:55.000Z</time>
      </trkpt>
      <trkpt lat="45.10998" lon="5.54747">
        <ele>1240.6</ele>
        <time>2022-08-12T09:28:56.000Z</time>
      </trkpt>
      <trkpt lat="45.10989" lon="5.54744">
        <ele>1240.1</ele>
        <time>2022-08-12T09:28:59.000Z</time>
      </trkpt>
      <trkpt lat="45.10981" lon="5.54745">
        <ele>1240.2</ele>
        <time>2022-08-12T09:29:01.000Z</time>
      </trkpt>
      <trkpt lat="45.10979" lon="5.54745">
        <ele>1240.3</ele>
        <time>2022-08-12T09:29:02.000Z</time>
      </trkpt>
      <trkpt lat="45.10976" lon="5.54745">
        <ele>1240.3</ele>
        <time>2022-08-12T09:29:03.000Z</time>
      </trkpt>
      <trkpt lat="45.10974" lon="5.54745">
        <ele>1240.3</ele>
        <time>2022-08-12T09:29:04.000Z</time>
      </trkpt>
      <trkpt lat="45.10972" lon="5.54745">
        <ele>1240.3</ele>
        <time>2022-08-12T09:29:05.000Z</time>
      </trkpt>
      <trkpt lat="45.10972" lon="5.54746">
        <ele>1240.4</ele>
        <time>2022-08-12T09:29:06.000Z</time>
      </trkpt>
      <trkpt lat="45.10971" lon="5.54745">
        <ele>1240.2</ele>
        <time>2022-08-12T09:29:07.000Z</time>
      </trkpt>
      <trkpt lat="45.10966" lon="5.54742">
        <ele>1239.7</ele>
        <time>2022-08-12T09:29:09.000Z</time>
      </trkpt>
      <trkpt lat="45.10963" lon="5.5474">
        <ele>1239.3</ele>
        <time>2022-08-12T09:29:10.000Z</time>
      </trkpt>
      <trkpt lat="45.10961" lon="5.54738">
        <ele>1239</ele>
        <time>2022-08-12T09:29:11.000Z</time>
      </trkpt>
      <trkpt lat="45.10958" lon="5.54736">
        <ele>1238.7</ele>
        <time>2022-08-12T09:29:12.000Z</time>
      </trkpt>
      <trkpt lat="45.10947" lon="5.54731">
        <ele>1238</ele>
        <time>2022-08-12T09:29:15.000Z</time>
      </trkpt>
      <trkpt lat="45.10942" lon="5.54729">
        <ele>1237.7</ele>
        <time>2022-08-12T09:29:16.000Z</time>
      </trkpt>
      <trkpt lat="45.10935" lon="5.54729">
        <ele>1237.3</ele>
        <time>2022-08-12T09:29:18.000Z</time>
      </trkpt>
      <trkpt lat="45.10932" lon="5.5473">
        <ele>1237.4</ele>
        <time>2022-08-12T09:29:19.000Z</time>
      </trkpt>
      <trkpt lat="45.1093" lon="5.5473">
        <ele>1237.4</ele>
        <time>2022-08-12T09:29:20.000Z</time>
      </trkpt>
      <trkpt lat="45.10929" lon="5.54731">
        <ele>1237.4</ele>
        <time>2022-08-12T09:29:21.000Z</time>
      </trkpt>
      <trkpt lat="45.10928" lon="5.54732">
        <ele>1237.4</ele>
        <time>2022-08-12T09:29:22.000Z</time>
      </trkpt>
      <trkpt lat="45.10925" lon="5.54732">
        <ele>1237.4</ele>
        <time>2022-08-12T09:29:27.000Z</time>
      </trkpt>
      <trkpt lat="45.10924" lon="5.54732">
        <ele>1237.4</ele>
        <time>2022-08-12T09:29:29.000Z</time>
      </trkpt>
      <trkpt lat="45.10923" lon="5.54732">
        <ele>1237.3</ele>
        <time>2022-08-12T09:29:32.000Z</time>
      </trkpt>
      <trkpt lat="45.10922" lon="5.54732">
        <ele>1237.3</ele>
        <time>2022-08-12T09:29:33.000Z</time>
      </trkpt>
      <trkpt lat="45.10917" lon="5.54734">
        <ele>1237.3</ele>
        <time>2022-08-12T09:29:36.000Z</time>
      </trkpt>
      <trkpt lat="45.10915" lon="5.54735">
        <ele>1237.3</ele>
        <time>2022-08-12T09:29:37.000Z</time>
      </trkpt>
      <trkpt lat="45.10911" lon="5.54737">
        <ele>1237.3</ele>
        <time>2022-08-12T09:29:39.000Z</time>
      </trkpt>
      <trkpt lat="45.10909" lon="5.54737">
        <ele>1237.2</ele>
        <time>2022-08-12T09:29:40.000Z</time>
      </trkpt>
      <trkpt lat="45.10905" lon="5.5474">
        <ele>1237.3</ele>
        <time>2022-08-12T09:29:43.000Z</time>
      </trkpt>
      <trkpt lat="45.10904" lon="5.54742">
        <ele>1237.6</ele>
        <time>2022-08-12T09:29:44.000Z</time>
      </trkpt>
      <trkpt lat="45.10903" lon="5.54744">
        <ele>1237.8</ele>
        <time>2022-08-12T09:29:45.000Z</time>
      </trkpt>
      <trkpt lat="45.10901" lon="5.54746">
        <ele>1238</ele>
        <time>2022-08-12T09:29:46.000Z</time>
      </trkpt>
      <trkpt lat="45.10896" lon="5.54751">
        <ele>1238.3</ele>
        <time>2022-08-12T09:29:49.000Z</time>
      </trkpt>
      <trkpt lat="45.10894" lon="5.54751">
        <ele>1238.2</ele>
        <time>2022-08-12T09:29:50.000Z</time>
      </trkpt>
      <trkpt lat="45.10892" lon="5.54751">
        <ele>1238.2</ele>
        <time>2022-08-12T09:29:51.000Z</time>
      </trkpt>
      <trkpt lat="45.10891" lon="5.5475">
        <ele>1238.1</ele>
        <time>2022-08-12T09:29:52.000Z</time>
      </trkpt>
      <trkpt lat="45.10882" lon="5.54751">
        <ele>1237.3</ele>
        <time>2022-08-12T09:29:56.000Z</time>
      </trkpt>
      <trkpt lat="45.10881" lon="5.5475">
        <ele>1237.1</ele>
        <time>2022-08-12T09:29:57.000Z</time>
      </trkpt>
      <trkpt lat="45.10879" lon="5.5475">
        <ele>1236.9</ele>
        <time>2022-08-12T09:29:58.000Z</time>
      </trkpt>
      <trkpt lat="45.10875" lon="5.54748">
        <ele>1236.2</ele>
        <time>2022-08-12T09:30:00.000Z</time>
      </trkpt>
      <trkpt lat="45.10874" lon="5.54746">
        <ele>1235.9</ele>
        <time>2022-08-12T09:30:01.000Z</time>
      </trkpt>
      <trkpt lat="45.10872" lon="5.54745">
        <ele>1235.5</ele>
        <time>2022-08-12T09:30:02.000Z</time>
      </trkpt>
      <trkpt lat="45.10867" lon="5.54742">
        <ele>1234.8</ele>
        <time>2022-08-12T09:30:04.000Z</time>
      </trkpt>
      <trkpt lat="45.10865" lon="5.54742">
        <ele>1234.5</ele>
        <time>2022-08-12T09:30:05.000Z</time>
      </trkpt>
      <trkpt lat="45.10859" lon="5.54741">
        <ele>1233.8</ele>
        <time>2022-08-12T09:30:07.000Z</time>
      </trkpt>
      <trkpt lat="45.10856" lon="5.5474">
        <ele>1233.3</ele>
        <time>2022-08-12T09:30:08.000Z</time>
      </trkpt>
      <trkpt lat="45.10854" lon="5.54739">
        <ele>1232.9</ele>
        <time>2022-08-12T09:30:09.000Z</time>
      </trkpt>
      <trkpt lat="45.10852" lon="5.54737">
        <ele>1232.5</ele>
        <time>2022-08-12T09:30:10.000Z</time>
      </trkpt>
      <trkpt lat="45.10852" lon="5.54736">
        <ele>1232.3</ele>
        <time>2022-08-12T09:30:11.000Z</time>
      </trkpt>
      <trkpt lat="45.10851" lon="5.54738">
        <ele>1232.4</ele>
        <time>2022-08-12T09:30:17.000Z</time>
      </trkpt>
      <trkpt lat="45.10851" lon="5.54739">
        <ele>1232.5</ele>
        <time>2022-08-12T09:30:18.000Z</time>
      </trkpt>
      <trkpt lat="45.1085" lon="5.54739">
        <ele>1232.5</ele>
        <time>2022-08-12T09:30:19.000Z</time>
      </trkpt>
      <trkpt lat="45.10853" lon="5.54734">
        <ele>1232.3</ele>
        <time>2022-08-12T12:50:18.000Z</time>
      </trkpt>
      <trkpt lat="45.10853" lon="5.54732">
        <ele>1232</ele>
        <time>2022-08-12T12:50:19.000Z</time>
      </trkpt>
      <trkpt lat="45.10853" lon="5.54729">
        <ele>1231.7</ele>
        <time>2022-08-12T12:50:20.000Z</time>
      </trkpt>
      <trkpt lat="45.10852" lon="5.54727">
        <ele>1231.3</ele>
        <time>2022-08-12T12:50:21.000Z</time>
      </trkpt>
      <trkpt lat="45.1085" lon="5.54726">
        <ele>1230.8</ele>
        <time>2022-08-12T12:50:22.000Z</time>
      </trkpt>
      <trkpt lat="45.10846" lon="5.54725">
        <ele>1230.2</ele>
        <time>2022-08-12T12:50:23.000Z</time>
      </trkpt>
      <trkpt lat="45.10838" lon="5.54723">
        <ele>1228.8</ele>
        <time>2022-08-12T12:50:25.000Z</time>
      </trkpt>
      <trkpt lat="45.10834" lon="5.54721">
        <ele>1227.9</ele>
        <time>2022-08-12T12:50:26.000Z</time>
      </trkpt>
      <trkpt lat="45.10829" lon="5.5472">
        <ele>1227.1</ele>
        <time>2022-08-12T12:50:27.000Z</time>
      </trkpt>
      <trkpt lat="45.10824" lon="5.5472">
        <ele>1226.5</ele>
        <time>2022-08-12T12:50:28.000Z</time>
      </trkpt>
      <trkpt lat="45.10819" lon="5.54722">
        <ele>1226.4</ele>
        <time>2022-08-12T12:50:29.000Z</time>
      </trkpt>
      <trkpt lat="45.10814" lon="5.54724">
        <ele>1226.1</ele>
        <time>2022-08-12T12:50:30.000Z</time>
      </trkpt>
      <trkpt lat="45.10809" lon="5.54726">
        <ele>1226</ele>
        <time>2022-08-12T12:50:31.000Z</time>
      </trkpt>
      <trkpt lat="45.10804" lon="5.54729">
        <ele>1225.8</ele>
        <time>2022-08-12T12:50:32.000Z</time>
      </trkpt>
      <trkpt lat="45.108" lon="5.54728">
        <ele>1225.5</ele>
        <time>2022-08-12T12:50:33.000Z</time>
      </trkpt>
      <trkpt lat="45.10796" lon="5.54726">
        <ele>1224.9</ele>
        <time>2022-08-12T12:50:34.000Z</time>
      </trkpt>
      <trkpt lat="45.10794" lon="5.54722">
        <ele>1224.1</ele>
        <time>2022-08-12T12:50:35.000Z</time>
      </trkpt>
      <trkpt lat="45.10791" lon="5.54718">
        <ele>1223.1</ele>
        <time>2022-08-12T12:50:36.000Z</time>
      </trkpt>
      <trkpt lat="45.1079" lon="5.54715">
        <ele>1222.4</ele>
        <time>2022-08-12T12:50:37.000Z</time>
      </trkpt>
      <trkpt lat="45.10788" lon="5.54714">
        <ele>1222</ele>
        <time>2022-08-12T12:50:38.000Z</time>
      </trkpt>
      <trkpt lat="45.10786" lon="5.54713">
        <ele>1221.6</ele>
        <time>2022-08-12T12:50:39.000Z</time>
      </trkpt>
      <trkpt lat="45.10783" lon="5.54711">
        <ele>1220.9</ele>
        <time>2022-08-12T12:50:40.000Z</time>
      </trkpt>
      <trkpt lat="45.1078" lon="5.54708">
        <ele>1220.2</ele>
        <time>2022-08-12T12:50:41.000Z</time>
      </trkpt>
      <trkpt lat="45.10776" lon="5.54707">
        <ele>1219.6</ele>
        <time>2022-08-12T12:50:43.000Z</time>
      </trkpt>
      <trkpt lat="45.10775" lon="5.54706">
        <ele>1219.4</ele>
        <time>2022-08-12T12:50:44.000Z</time>
      </trkpt>
      <trkpt lat="45.10775" lon="5.54705">
        <ele>1219.1</ele>
        <time>2022-08-12T12:50:45.000Z</time>
      </trkpt>
      <trkpt lat="45.10775" lon="5.54704">
        <ele>1219</ele>
        <time>2022-08-12T12:50:46.000Z</time>
      </trkpt>
      <trkpt lat="45.10772" lon="5.54703">
        <ele>1218.5</ele>
        <time>2022-08-12T12:50:49.000Z</time>
      </trkpt>
      <trkpt lat="45.1077" lon="5.54701">
        <ele>1218.1</ele>
        <time>2022-08-12T12:50:50.000Z</time>
      </trkpt>
      <trkpt lat="45.10768" lon="5.547">
        <ele>1217.7</ele>
        <time>2022-08-12T12:50:51.000Z</time>
      </trkpt>
      <trkpt lat="45.10766" lon="5.54699">
        <ele>1217.6</ele>
        <time>2022-08-12T12:50:52.000Z</time>
      </trkpt>
      <trkpt lat="45.10763" lon="5.54699">
        <ele>1217.4</ele>
        <time>2022-08-12T12:50:53.000Z</time>
      </trkpt>
      <trkpt lat="45.10756" lon="5.54697">
        <ele>1216.6</ele>
        <time>2022-08-12T12:50:55.000Z</time>
      </trkpt>
      <trkpt lat="45.10751" lon="5.54695">
        <ele>1216.2</ele>
        <time>2022-08-12T12:50:57.000Z</time>
      </trkpt>
      <trkpt lat="45.1075" lon="5.54695">
        <ele>1216</ele>
        <time>2022-08-12T12:50:59.000Z</time>
      </trkpt>
      <trkpt lat="45.10748" lon="5.54693">
        <ele>1215.8</ele>
        <time>2022-08-12T12:51:00.000Z</time>
      </trkpt>
      <trkpt lat="45.10746" lon="5.54692">
        <ele>1215.6</ele>
        <time>2022-08-12T12:51:01.000Z</time>
      </trkpt>
      <trkpt lat="45.10744" lon="5.54692">
        <ele>1215.4</ele>
        <time>2022-08-12T12:51:02.000Z</time>
      </trkpt>
      <trkpt lat="45.10742" lon="5.5469">
        <ele>1215.1</ele>
        <time>2022-08-12T12:51:03.000Z</time>
      </trkpt>
      <trkpt lat="45.10733" lon="5.54685">
        <ele>1214.2</ele>
        <time>2022-08-12T12:51:06.000Z</time>
      </trkpt>
      <trkpt lat="45.10728" lon="5.54682">
        <ele>1213.6</ele>
        <time>2022-08-12T12:51:08.000Z</time>
      </trkpt>
      <trkpt lat="45.10726" lon="5.54679">
        <ele>1213.1</ele>
        <time>2022-08-12T12:51:09.000Z</time>
      </trkpt>
      <trkpt lat="45.10723" lon="5.54675">
        <ele>1212.4</ele>
        <time>2022-08-12T12:51:10.000Z</time>
      </trkpt>
      <trkpt lat="45.10722" lon="5.5467">
        <ele>1211.6</ele>
        <time>2022-08-12T12:51:11.000Z</time>
      </trkpt>
      <trkpt lat="45.10721" lon="5.54663">
        <ele>1210.4</ele>
        <time>2022-08-12T12:51:12.000Z</time>
      </trkpt>
      <trkpt lat="45.1072" lon="5.54659">
        <ele>1209.7</ele>
        <time>2022-08-12T12:51:13.000Z</time>
      </trkpt>
      <trkpt lat="45.10716" lon="5.54656">
        <ele>1209.3</ele>
        <time>2022-08-12T12:51:14.000Z</time>
      </trkpt>
      <trkpt lat="45.10711" lon="5.54653">
        <ele>1209.2</ele>
        <time>2022-08-12T12:51:15.000Z</time>
      </trkpt>
      <trkpt lat="45.10708" lon="5.54652">
        <ele>1209.2</ele>
        <time>2022-08-12T12:51:16.000Z</time>
      </trkpt>
      <trkpt lat="45.10705" lon="5.54651">
        <ele>1209.3</ele>
        <time>2022-08-12T12:51:17.000Z</time>
      </trkpt>
      <trkpt lat="45.10702" lon="5.5465">
        <ele>1209.3</ele>
        <time>2022-08-12T12:51:18.000Z</time>
      </trkpt>
      <trkpt lat="45.107" lon="5.54649">
        <ele>1209.4</ele>
        <time>2022-08-12T12:51:19.000Z</time>
      </trkpt>
      <trkpt lat="45.10688" lon="5.54643">
        <ele>1209.5</ele>
        <time>2022-08-12T12:51:24.000Z</time>
      </trkpt>
      <trkpt lat="45.10686" lon="5.54642">
        <ele>1209.5</ele>
        <time>2022-08-12T12:51:25.000Z</time>
      </trkpt>
      <trkpt lat="45.10684" lon="5.54641">
        <ele>1209.5</ele>
        <time>2022-08-12T12:51:26.000Z</time>
      </trkpt>
      <trkpt lat="45.10672" lon="5.54638">
        <ele>1209.7</ele>
        <time>2022-08-12T12:51:31.000Z</time>
      </trkpt>
      <trkpt lat="45.10671" lon="5.54637">
        <ele>1209.7</ele>
        <time>2022-08-12T12:51:32.000Z</time>
      </trkpt>
      <trkpt lat="45.1067" lon="5.54635">
        <ele>1209.6</ele>
        <time>2022-08-12T12:51:33.000Z</time>
      </trkpt>
      <trkpt lat="45.10668" lon="5.54631">
        <ele>1209.4</ele>
        <time>2022-08-12T12:51:34.000Z</time>
      </trkpt>
      <trkpt lat="45.10664" lon="5.54624">
        <ele>1209</ele>
        <time>2022-08-12T12:51:37.000Z</time>
      </trkpt>
      <trkpt lat="45.10663" lon="5.54623">
        <ele>1208.9</ele>
        <time>2022-08-12T12:51:38.000Z</time>
      </trkpt>
      <trkpt lat="45.1066" lon="5.54621">
        <ele>1208.9</ele>
        <time>2022-08-12T12:51:39.000Z</time>
      </trkpt>
      <trkpt lat="45.10657" lon="5.5462">
        <ele>1208.8</ele>
        <time>2022-08-12T12:51:40.000Z</time>
      </trkpt>
      <trkpt lat="45.10653" lon="5.5462">
        <ele>1208.9</ele>
        <time>2022-08-12T12:51:42.000Z</time>
      </trkpt>
      <trkpt lat="45.10651" lon="5.54619">
        <ele>1209</ele>
        <time>2022-08-12T12:51:43.000Z</time>
      </trkpt>
      <trkpt lat="45.10649" lon="5.54619">
        <ele>1209</ele>
        <time>2022-08-12T12:51:44.000Z</time>
      </trkpt>
      <trkpt lat="45.10649" lon="5.54618">
        <ele>1209</ele>
        <time>2022-08-12T12:51:45.000Z</time>
      </trkpt>
      <trkpt lat="45.10648" lon="5.54617">
        <ele>1208.9</ele>
        <time>2022-08-12T12:51:48.000Z</time>
      </trkpt>
      <trkpt lat="45.10648" lon="5.54615">
        <ele>1208.9</ele>
        <time>2022-08-12T12:51:49.000Z</time>
      </trkpt>
      <trkpt lat="45.10647" lon="5.54612">
        <ele>1208.7</ele>
        <time>2022-08-12T12:51:51.000Z</time>
      </trkpt>
      <trkpt lat="45.10646" lon="5.54611">
        <ele>1208.7</ele>
        <time>2022-08-12T12:51:52.000Z</time>
      </trkpt>
      <trkpt lat="45.10645" lon="5.54608">
        <ele>1208.7</ele>
        <time>2022-08-12T12:51:53.000Z</time>
      </trkpt>
      <trkpt lat="45.10645" lon="5.54605">
        <ele>1208.6</ele>
        <time>2022-08-12T12:51:54.000Z</time>
      </trkpt>
      <trkpt lat="45.10645" lon="5.546">
        <ele>1208.4</ele>
        <time>2022-08-12T12:51:56.000Z</time>
      </trkpt>
      <trkpt lat="45.10645" lon="5.54598">
        <ele>1208.3</ele>
        <time>2022-08-12T12:51:57.000Z</time>
      </trkpt>
      <trkpt lat="45.10645" lon="5.54596">
        <ele>1208.2</ele>
        <time>2022-08-12T12:51:58.000Z</time>
      </trkpt>
      <trkpt lat="45.10643" lon="5.54593">
        <ele>1208.2</ele>
        <time>2022-08-12T12:51:59.000Z</time>
      </trkpt>
      <trkpt lat="45.10642" lon="5.54591">
        <ele>1208.2</ele>
        <time>2022-08-12T12:52:00.000Z</time>
      </trkpt>
      <trkpt lat="45.10641" lon="5.5459">
        <ele>1208.1</ele>
        <time>2022-08-12T12:52:01.000Z</time>
      </trkpt>
      <trkpt lat="45.1064" lon="5.54588">
        <ele>1208.1</ele>
        <time>2022-08-12T12:52:02.000Z</time>
      </trkpt>
      <trkpt lat="45.10635" lon="5.54579">
        <ele>1208.1</ele>
        <time>2022-08-12T12:52:06.000Z</time>
      </trkpt>
      <trkpt lat="45.10633" lon="5.54577">
        <ele>1208.2</ele>
        <time>2022-08-12T12:52:07.000Z</time>
      </trkpt>
      <trkpt lat="45.10632" lon="5.54576">
        <ele>1208.3</ele>
        <time>2022-08-12T12:52:08.000Z</time>
      </trkpt>
      <trkpt lat="45.1063" lon="5.54574">
        <ele>1208.3</ele>
        <time>2022-08-12T12:52:09.000Z</time>
      </trkpt>
      <trkpt lat="45.1063" lon="5.54572">
        <ele>1208.3</ele>
        <time>2022-08-12T12:52:10.000Z</time>
      </trkpt>
      <trkpt lat="45.1063" lon="5.5457">
        <ele>1208.3</ele>
        <time>2022-08-12T12:52:11.000Z</time>
      </trkpt>
      <trkpt lat="45.10631" lon="5.54568">
        <ele>1208.3</ele>
        <time>2022-08-12T12:52:12.000Z</time>
      </trkpt>
      <trkpt lat="45.10631" lon="5.54566">
        <ele>1208.3</ele>
        <time>2022-08-12T12:52:13.000Z</time>
      </trkpt>
      <trkpt lat="45.10631" lon="5.54563">
        <ele>1208.3</ele>
        <time>2022-08-12T12:52:14.000Z</time>
      </trkpt>
      <trkpt lat="45.10631" lon="5.5456">
        <ele>1208.3</ele>
        <time>2022-08-12T12:52:15.000Z</time>
      </trkpt>
      <trkpt lat="45.1063" lon="5.54558">
        <ele>1208.3</ele>
        <time>2022-08-12T12:52:16.000Z</time>
      </trkpt>
      <trkpt lat="45.10629" lon="5.54555">
        <ele>1208.3</ele>
        <time>2022-08-12T12:52:17.000Z</time>
      </trkpt>
      <trkpt lat="45.10629" lon="5.54552">
        <ele>1208.4</ele>
        <time>2022-08-12T12:52:18.000Z</time>
      </trkpt>
      <trkpt lat="45.10629" lon="5.5455">
        <ele>1208.4</ele>
        <time>2022-08-12T12:52:19.000Z</time>
      </trkpt>
      <trkpt lat="45.10628" lon="5.54549">
        <ele>1208.4</ele>
        <time>2022-08-12T12:52:20.000Z</time>
      </trkpt>
      <trkpt lat="45.10627" lon="5.54548">
        <ele>1208.4</ele>
        <time>2022-08-12T12:52:21.000Z</time>
      </trkpt>
      <trkpt lat="45.10625" lon="5.54546">
        <ele>1208.5</ele>
        <time>2022-08-12T12:52:22.000Z</time>
      </trkpt>
      <trkpt lat="45.10624" lon="5.54545">
        <ele>1208.5</ele>
        <time>2022-08-12T12:52:23.000Z</time>
      </trkpt>
      <trkpt lat="45.10624" lon="5.54544">
        <ele>1208.6</ele>
        <time>2022-08-12T12:52:25.000Z</time>
      </trkpt>
      <trkpt lat="45.10616" lon="5.54534">
        <ele>1208.8</ele>
        <time>2022-08-12T12:52:31.000Z</time>
      </trkpt>
      <trkpt lat="45.10614" lon="5.54533">
        <ele>1208.9</ele>
        <time>2022-08-12T12:52:32.000Z</time>
      </trkpt>
      <trkpt lat="45.10613" lon="5.54533">
        <ele>1208.9</ele>
        <time>2022-08-12T12:52:33.000Z</time>
      </trkpt>
      <trkpt lat="45.10612" lon="5.54532">
        <ele>1209</ele>
        <time>2022-08-12T12:52:34.000Z</time>
      </trkpt>
      <trkpt lat="45.10611" lon="5.5453">
        <ele>1209</ele>
        <time>2022-08-12T12:52:35.000Z</time>
      </trkpt>
      <trkpt lat="45.1061" lon="5.54528">
        <ele>1209</ele>
        <time>2022-08-12T12:52:36.000Z</time>
      </trkpt>
      <trkpt lat="45.10609" lon="5.54526">
        <ele>1209.1</ele>
        <time>2022-08-12T12:52:37.000Z</time>
      </trkpt>
      <trkpt lat="45.10609" lon="5.54524">
        <ele>1209.1</ele>
        <time>2022-08-12T12:52:38.000Z</time>
      </trkpt>
      <trkpt lat="45.10609" lon="5.54521">
        <ele>1209.2</ele>
        <time>2022-08-12T12:52:39.000Z</time>
      </trkpt>
      <trkpt lat="45.10608" lon="5.54519">
        <ele>1209.3</ele>
        <time>2022-08-12T12:52:40.000Z</time>
      </trkpt>
      <trkpt lat="45.10607" lon="5.54517">
        <ele>1209.4</ele>
        <time>2022-08-12T12:52:41.000Z</time>
      </trkpt>
      <trkpt lat="45.10605" lon="5.54515">
        <ele>1209.6</ele>
        <time>2022-08-12T12:52:42.000Z</time>
      </trkpt>
      <trkpt lat="45.10604" lon="5.54513">
        <ele>1209.7</ele>
        <time>2022-08-12T12:52:43.000Z</time>
      </trkpt>
      <trkpt lat="45.10603" lon="5.54509">
        <ele>1209.9</ele>
        <time>2022-08-12T12:52:44.000Z</time>
      </trkpt>
      <trkpt lat="45.10602" lon="5.54504">
        <ele>1210.2</ele>
        <time>2022-08-12T12:52:46.000Z</time>
      </trkpt>
      <trkpt lat="45.10603" lon="5.54499">
        <ele>1210.3</ele>
        <time>2022-08-12T12:52:48.000Z</time>
      </trkpt>
      <trkpt lat="45.10604" lon="5.54498">
        <ele>1210.3</ele>
        <time>2022-08-12T12:52:49.000Z</time>
      </trkpt>
      <trkpt lat="45.10603" lon="5.54494">
        <ele>1210.3</ele>
        <time>2022-08-12T12:52:50.000Z</time>
      </trkpt>
      <trkpt lat="45.106" lon="5.54489">
        <ele>1210.6</ele>
        <time>2022-08-12T12:52:52.000Z</time>
      </trkpt>
      <trkpt lat="45.10601" lon="5.54487">
        <ele>1210.6</ele>
        <time>2022-08-12T12:52:53.000Z</time>
      </trkpt>
      <trkpt lat="45.10601" lon="5.54485">
        <ele>1210.6</ele>
        <time>2022-08-12T12:52:54.000Z</time>
      </trkpt>
      <trkpt lat="45.10601" lon="5.54483">
        <ele>1210.6</ele>
        <time>2022-08-12T12:52:55.000Z</time>
      </trkpt>
      <trkpt lat="45.10602" lon="5.5448">
        <ele>1210.6</ele>
        <time>2022-08-12T12:52:56.000Z</time>
      </trkpt>
      <trkpt lat="45.10602" lon="5.54478">
        <ele>1210.6</ele>
        <time>2022-08-12T12:52:57.000Z</time>
      </trkpt>
      <trkpt lat="45.10601" lon="5.54477">
        <ele>1210.7</ele>
        <time>2022-08-12T12:52:58.000Z</time>
      </trkpt>
      <trkpt lat="45.106" lon="5.54477">
        <ele>1210.7</ele>
        <time>2022-08-12T12:52:59.000Z</time>
      </trkpt>
      <trkpt lat="45.10599" lon="5.54477">
        <ele>1210.8</ele>
        <time>2022-08-12T12:53:00.000Z</time>
      </trkpt>
      <trkpt lat="45.10598" lon="5.54477">
        <ele>1210.9</ele>
        <time>2022-08-12T12:53:01.000Z</time>
      </trkpt>
      <trkpt lat="45.10597" lon="5.54476">
        <ele>1210.9</ele>
        <time>2022-08-12T12:53:02.000Z</time>
      </trkpt>
      <trkpt lat="45.10597" lon="5.54475">
        <ele>1211</ele>
        <time>2022-08-12T12:53:03.000Z</time>
      </trkpt>
      <trkpt lat="45.10596" lon="5.54475">
        <ele>1211.1</ele>
        <time>2022-08-12T12:53:04.000Z</time>
      </trkpt>
      <trkpt lat="45.10595" lon="5.54475">
        <ele>1211.1</ele>
        <time>2022-08-12T12:53:05.000Z</time>
      </trkpt>
      <trkpt lat="45.10594" lon="5.54474">
        <ele>1211.2</ele>
        <time>2022-08-12T12:53:06.000Z</time>
      </trkpt>
      <trkpt lat="45.10592" lon="5.54473">
        <ele>1211.4</ele>
        <time>2022-08-12T12:53:08.000Z</time>
      </trkpt>
      <trkpt lat="45.1059" lon="5.54472">
        <ele>1211.5</ele>
        <time>2022-08-12T12:53:10.000Z</time>
      </trkpt>
      <trkpt lat="45.10589" lon="5.54469">
        <ele>1211.6</ele>
        <time>2022-08-12T12:53:12.000Z</time>
      </trkpt>
      <trkpt lat="45.10589" lon="5.54467">
        <ele>1211.6</ele>
        <time>2022-08-12T12:53:13.000Z</time>
      </trkpt>
      <trkpt lat="45.10589" lon="5.54465">
        <ele>1211.6</ele>
        <time>2022-08-12T12:53:14.000Z</time>
      </trkpt>
      <trkpt lat="45.10588" lon="5.54462">
        <ele>1211.7</ele>
        <time>2022-08-12T12:53:16.000Z</time>
      </trkpt>
      <trkpt lat="45.10588" lon="5.54461">
        <ele>1211.7</ele>
        <time>2022-08-12T12:53:17.000Z</time>
      </trkpt>
      <trkpt lat="45.10587" lon="5.54459">
        <ele>1211.7</ele>
        <time>2022-08-12T12:53:18.000Z</time>
      </trkpt>
      <trkpt lat="45.10586" lon="5.54458">
        <ele>1211.8</ele>
        <time>2022-08-12T12:53:19.000Z</time>
      </trkpt>
      <trkpt lat="45.10585" lon="5.54457">
        <ele>1211.9</ele>
        <time>2022-08-12T12:53:20.000Z</time>
      </trkpt>
      <trkpt lat="45.10584" lon="5.54453">
        <ele>1212</ele>
        <time>2022-08-12T12:53:22.000Z</time>
      </trkpt>
      <trkpt lat="45.10584" lon="5.5445">
        <ele>1212</ele>
        <time>2022-08-12T12:53:23.000Z</time>
      </trkpt>
      <trkpt lat="45.10584" lon="5.54448">
        <ele>1212</ele>
        <time>2022-08-12T12:53:24.000Z</time>
      </trkpt>
      <trkpt lat="45.10583" lon="5.54446">
        <ele>1212</ele>
        <time>2022-08-12T12:53:25.000Z</time>
      </trkpt>
      <trkpt lat="45.10582" lon="5.54444">
        <ele>1212.2</ele>
        <time>2022-08-12T12:53:26.000Z</time>
      </trkpt>
      <trkpt lat="45.10581" lon="5.54443">
        <ele>1212.3</ele>
        <time>2022-08-12T12:53:27.000Z</time>
      </trkpt>
      <trkpt lat="45.1058" lon="5.54442">
        <ele>1212.4</ele>
        <time>2022-08-12T12:53:28.000Z</time>
      </trkpt>
      <trkpt lat="45.10579" lon="5.54441">
        <ele>1212.5</ele>
        <time>2022-08-12T12:53:29.000Z</time>
      </trkpt>
      <trkpt lat="45.10575" lon="5.54432">
        <ele>1213.4</ele>
        <time>2022-08-12T12:53:34.000Z</time>
      </trkpt>
      <trkpt lat="45.10575" lon="5.5443">
        <ele>1213.4</ele>
        <time>2022-08-12T12:53:35.000Z</time>
      </trkpt>
      <trkpt lat="45.10575" lon="5.54428">
        <ele>1213.5</ele>
        <time>2022-08-12T12:53:36.000Z</time>
      </trkpt>
      <trkpt lat="45.10575" lon="5.54424">
        <ele>1213.6</ele>
        <time>2022-08-12T12:53:38.000Z</time>
      </trkpt>
      <trkpt lat="45.10574" lon="5.54422">
        <ele>1213.8</ele>
        <time>2022-08-12T12:53:39.000Z</time>
      </trkpt>
      <trkpt lat="45.10573" lon="5.5442">
        <ele>1214</ele>
        <time>2022-08-12T12:53:40.000Z</time>
      </trkpt>
      <trkpt lat="45.10569" lon="5.54415">
        <ele>1214.5</ele>
        <time>2022-08-12T12:53:43.000Z</time>
      </trkpt>
      <trkpt lat="45.10569" lon="5.54413">
        <ele>1214.6</ele>
        <time>2022-08-12T12:53:44.000Z</time>
      </trkpt>
      <trkpt lat="45.10568" lon="5.54411">
        <ele>1214.7</ele>
        <time>2022-08-12T12:53:45.000Z</time>
      </trkpt>
      <trkpt lat="45.10568" lon="5.54408">
        <ele>1214.7</ele>
        <time>2022-08-12T12:53:46.000Z</time>
      </trkpt>
      <trkpt lat="45.10567" lon="5.54406">
        <ele>1214.8</ele>
        <time>2022-08-12T12:53:47.000Z</time>
      </trkpt>
      <trkpt lat="45.1056" lon="5.54388">
        <ele>1215.5</ele>
        <time>2022-08-12T12:53:54.000Z</time>
      </trkpt>
      <trkpt lat="45.10558" lon="5.54386">
        <ele>1215.7</ele>
        <time>2022-08-12T12:53:55.000Z</time>
      </trkpt>
      <trkpt lat="45.10556" lon="5.54385">
        <ele>1215.8</ele>
        <time>2022-08-12T12:53:56.000Z</time>
      </trkpt>
      <trkpt lat="45.10553" lon="5.54383">
        <ele>1216</ele>
        <time>2022-08-12T12:53:57.000Z</time>
      </trkpt>
      <trkpt lat="45.10551" lon="5.54379">
        <ele>1216.2</ele>
        <time>2022-08-12T12:53:59.000Z</time>
      </trkpt>
      <trkpt lat="45.10548" lon="5.54373">
        <ele>1216.2</ele>
        <time>2022-08-12T12:54:00.000Z</time>
      </trkpt>
      <trkpt lat="45.10547" lon="5.5437">
        <ele>1216.2</ele>
        <time>2022-08-12T12:54:02.000Z</time>
      </trkpt>
      <trkpt lat="45.10547" lon="5.54367">
        <ele>1216.2</ele>
        <time>2022-08-12T12:54:03.000Z</time>
      </trkpt>
      <trkpt lat="45.10543" lon="5.54363">
        <ele>1216.4</ele>
        <time>2022-08-12T12:54:05.000Z</time>
      </trkpt>
      <trkpt lat="45.10539" lon="5.54364">
        <ele>1216.9</ele>
        <time>2022-08-12T12:54:06.000Z</time>
      </trkpt>
      <trkpt lat="45.10537" lon="5.54366">
        <ele>1217.1</ele>
        <time>2022-08-12T12:54:07.000Z</time>
      </trkpt>
      <trkpt lat="45.10536" lon="5.54368">
        <ele>1217.4</ele>
        <time>2022-08-12T12:54:08.000Z</time>
      </trkpt>
      <trkpt lat="45.10535" lon="5.54369">
        <ele>1217.5</ele>
        <time>2022-08-12T12:54:09.000Z</time>
      </trkpt>
      <trkpt lat="45.10533" lon="5.54368">
        <ele>1217.7</ele>
        <time>2022-08-12T12:54:10.000Z</time>
      </trkpt>
      <trkpt lat="45.10532" lon="5.54368">
        <ele>1217.8</ele>
        <time>2022-08-12T12:54:11.000Z</time>
      </trkpt>
      <trkpt lat="45.1053" lon="5.54367">
        <ele>1217.9</ele>
        <time>2022-08-12T12:54:12.000Z</time>
      </trkpt>
      <trkpt lat="45.10529" lon="5.54367">
        <ele>1218.1</ele>
        <time>2022-08-12T12:54:13.000Z</time>
      </trkpt>
      <trkpt lat="45.10528" lon="5.54367">
        <ele>1218.2</ele>
        <time>2022-08-12T12:54:14.000Z</time>
      </trkpt>
      <trkpt lat="45.10526" lon="5.54368">
        <ele>1218.4</ele>
        <time>2022-08-12T12:54:15.000Z</time>
      </trkpt>
      <trkpt lat="45.10524" lon="5.54369">
        <ele>1218.5</ele>
        <time>2022-08-12T12:54:16.000Z</time>
      </trkpt>
      <trkpt lat="45.10523" lon="5.54369">
        <ele>1218.6</ele>
        <time>2022-08-12T12:54:17.000Z</time>
      </trkpt>
      <trkpt lat="45.10522" lon="5.5437">
        <ele>1218.7</ele>
        <time>2022-08-12T12:54:18.000Z</time>
      </trkpt>
      <trkpt lat="45.1052" lon="5.5437">
        <ele>1218.8</ele>
        <time>2022-08-12T12:54:19.000Z</time>
      </trkpt>
      <trkpt lat="45.10519" lon="5.5437">
        <ele>1218.9</ele>
        <time>2022-08-12T12:54:20.000Z</time>
      </trkpt>
      <trkpt lat="45.10518" lon="5.54369">
        <ele>1218.9</ele>
        <time>2022-08-12T12:54:21.000Z</time>
      </trkpt>
      <trkpt lat="45.10516" lon="5.54366">
        <ele>1218.9</ele>
        <time>2022-08-12T12:54:22.000Z</time>
      </trkpt>
      <trkpt lat="45.10515" lon="5.54365">
        <ele>1219</ele>
        <time>2022-08-12T12:54:23.000Z</time>
      </trkpt>
      <trkpt lat="45.10513" lon="5.54364">
        <ele>1219.1</ele>
        <time>2022-08-12T12:54:24.000Z</time>
      </trkpt>
      <trkpt lat="45.1051" lon="5.54364">
        <ele>1219.3</ele>
        <time>2022-08-12T12:54:27.000Z</time>
      </trkpt>
      <trkpt lat="45.10507" lon="5.54363">
        <ele>1219.5</ele>
        <time>2022-08-12T12:54:29.000Z</time>
      </trkpt>
      <trkpt lat="45.10506" lon="5.54362">
        <ele>1219.5</ele>
        <time>2022-08-12T12:54:30.000Z</time>
      </trkpt>
      <trkpt lat="45.10505" lon="5.54362">
        <ele>1219.6</ele>
        <time>2022-08-12T12:54:31.000Z</time>
      </trkpt>
      <trkpt lat="45.10504" lon="5.54362">
        <ele>1219.7</ele>
        <time>2022-08-12T12:54:32.000Z</time>
      </trkpt>
      <trkpt lat="45.10498" lon="5.54359">
        <ele>1220.1</ele>
        <time>2022-08-12T12:54:35.000Z</time>
      </trkpt>
      <trkpt lat="45.10497" lon="5.54357">
        <ele>1220.1</ele>
        <time>2022-08-12T12:54:36.000Z</time>
      </trkpt>
      <trkpt lat="45.10496" lon="5.54356">
        <ele>1220.1</ele>
        <time>2022-08-12T12:54:37.000Z</time>
      </trkpt>
      <trkpt lat="45.10495" lon="5.54354">
        <ele>1220.2</ele>
        <time>2022-08-12T12:54:38.000Z</time>
      </trkpt>
      <trkpt lat="45.10493" lon="5.54354">
        <ele>1220.3</ele>
        <time>2022-08-12T12:54:39.000Z</time>
      </trkpt>
      <trkpt lat="45.10491" lon="5.54354">
        <ele>1220.5</ele>
        <time>2022-08-12T12:54:40.000Z</time>
      </trkpt>
      <trkpt lat="45.10489" lon="5.54354">
        <ele>1220.6</ele>
        <time>2022-08-12T12:54:41.000Z</time>
      </trkpt>
      <trkpt lat="45.10484" lon="5.54352">
        <ele>1221</ele>
        <time>2022-08-12T12:54:44.000Z</time>
      </trkpt>
      <trkpt lat="45.10483" lon="5.5435">
        <ele>1221.1</ele>
        <time>2022-08-12T12:54:45.000Z</time>
      </trkpt>
      <trkpt lat="45.10482" lon="5.54349">
        <ele>1221.2</ele>
        <time>2022-08-12T12:54:46.000Z</time>
      </trkpt>
      <trkpt lat="45.10481" lon="5.54346">
        <ele>1221.2</ele>
        <time>2022-08-12T12:54:47.000Z</time>
      </trkpt>
      <trkpt lat="45.1048" lon="5.54345">
        <ele>1221.3</ele>
        <time>2022-08-12T12:54:48.000Z</time>
      </trkpt>
      <trkpt lat="45.10478" lon="5.54342">
        <ele>1221.5</ele>
        <time>2022-08-12T12:54:50.000Z</time>
      </trkpt>
      <trkpt lat="45.10477" lon="5.54341">
        <ele>1221.5</ele>
        <time>2022-08-12T12:54:51.000Z</time>
      </trkpt>
      <trkpt lat="45.10477" lon="5.54342">
        <ele>1221.6</ele>
        <time>2022-08-12T12:54:52.000Z</time>
      </trkpt>
      <trkpt lat="45.10476" lon="5.54342">
        <ele>1221.7</ele>
        <time>2022-08-12T12:54:53.000Z</time>
      </trkpt>
      <trkpt lat="45.10474" lon="5.54342">
        <ele>1221.8</ele>
        <time>2022-08-12T12:54:54.000Z</time>
      </trkpt>
      <trkpt lat="45.10473" lon="5.54341">
        <ele>1221.9</ele>
        <time>2022-08-12T12:54:55.000Z</time>
      </trkpt>
      <trkpt lat="45.10472" lon="5.5434">
        <ele>1222</ele>
        <time>2022-08-12T12:54:56.000Z</time>
      </trkpt>
      <trkpt lat="45.10469" lon="5.54338">
        <ele>1222.2</ele>
        <time>2022-08-12T12:54:57.000Z</time>
      </trkpt>
      <trkpt lat="45.10468" lon="5.54338">
        <ele>1222.3</ele>
        <time>2022-08-12T12:54:58.000Z</time>
      </trkpt>
      <trkpt lat="45.10466" lon="5.54337">
        <ele>1222.4</ele>
        <time>2022-08-12T12:54:59.000Z</time>
      </trkpt>
      <trkpt lat="45.10462" lon="5.54337">
        <ele>1222.7</ele>
        <time>2022-08-12T12:55:01.000Z</time>
      </trkpt>
      <trkpt lat="45.10456" lon="5.54337">
        <ele>1223.2</ele>
        <time>2022-08-12T12:55:05.000Z</time>
      </trkpt>
      <trkpt lat="45.10455" lon="5.54336">
        <ele>1223.3</ele>
        <time>2022-08-12T12:55:06.000Z</time>
      </trkpt>
      <trkpt lat="45.10454" lon="5.54335">
        <ele>1223.3</ele>
        <time>2022-08-12T12:55:07.000Z</time>
      </trkpt>
      <trkpt lat="45.10452" lon="5.54331">
        <ele>1223.4</ele>
        <time>2022-08-12T12:55:08.000Z</time>
      </trkpt>
      <trkpt lat="45.10451" lon="5.54328">
        <ele>1223.5</ele>
        <time>2022-08-12T12:55:09.000Z</time>
      </trkpt>
      <trkpt lat="45.1045" lon="5.54327">
        <ele>1223.6</ele>
        <time>2022-08-12T12:55:10.000Z</time>
      </trkpt>
      <trkpt lat="45.10449" lon="5.54327">
        <ele>1223.7</ele>
        <time>2022-08-12T12:55:11.000Z</time>
      </trkpt>
      <trkpt lat="45.10448" lon="5.54327">
        <ele>1223.7</ele>
        <time>2022-08-12T12:55:12.000Z</time>
      </trkpt>
      <trkpt lat="45.10446" lon="5.54326">
        <ele>1223.8</ele>
        <time>2022-08-12T12:55:13.000Z</time>
      </trkpt>
      <trkpt lat="45.10444" lon="5.54325">
        <ele>1224</ele>
        <time>2022-08-12T12:55:14.000Z</time>
      </trkpt>
      <trkpt lat="45.10443" lon="5.54322">
        <ele>1224.1</ele>
        <time>2022-08-12T12:55:15.000Z</time>
      </trkpt>
      <trkpt lat="45.10442" lon="5.54321">
        <ele>1224.2</ele>
        <time>2022-08-12T12:55:16.000Z</time>
      </trkpt>
      <trkpt lat="45.10441" lon="5.54319">
        <ele>1224.3</ele>
        <time>2022-08-12T12:55:18.000Z</time>
      </trkpt>
      <trkpt lat="45.1044" lon="5.54318">
        <ele>1224.4</ele>
        <time>2022-08-12T12:55:19.000Z</time>
      </trkpt>
      <trkpt lat="45.10439" lon="5.54314">
        <ele>1224.5</ele>
        <time>2022-08-12T12:55:20.000Z</time>
      </trkpt>
      <trkpt lat="45.10439" lon="5.54312">
        <ele>1224.5</ele>
        <time>2022-08-12T12:55:22.000Z</time>
      </trkpt>
      <trkpt lat="45.10439" lon="5.54309">
        <ele>1224.5</ele>
        <time>2022-08-12T12:55:23.000Z</time>
      </trkpt>
      <trkpt lat="45.10439" lon="5.54306">
        <ele>1224.6</ele>
        <time>2022-08-12T12:55:24.000Z</time>
      </trkpt>
      <trkpt lat="45.10438" lon="5.54301">
        <ele>1224.6</ele>
        <time>2022-08-12T12:55:26.000Z</time>
      </trkpt>
      <trkpt lat="45.10436" lon="5.54299">
        <ele>1224.7</ele>
        <time>2022-08-12T12:55:27.000Z</time>
      </trkpt>
      <trkpt lat="45.10435" lon="5.54298">
        <ele>1224.8</ele>
        <time>2022-08-12T12:55:28.000Z</time>
      </trkpt>
      <trkpt lat="45.10434" lon="5.54297">
        <ele>1225</ele>
        <time>2022-08-12T12:55:29.000Z</time>
      </trkpt>
      <trkpt lat="45.10433" lon="5.54297">
        <ele>1225.1</ele>
        <time>2022-08-12T12:55:30.000Z</time>
      </trkpt>
      <trkpt lat="45.10432" lon="5.54295">
        <ele>1225.1</ele>
        <time>2022-08-12T12:55:31.000Z</time>
      </trkpt>
      <trkpt lat="45.10431" lon="5.54294">
        <ele>1225.2</ele>
        <time>2022-08-12T12:55:32.000Z</time>
      </trkpt>
      <trkpt lat="45.10427" lon="5.54289">
        <ele>1225.6</ele>
        <time>2022-08-12T12:55:35.000Z</time>
      </trkpt>
      <trkpt lat="45.10426" lon="5.54287">
        <ele>1225.7</ele>
        <time>2022-08-12T12:55:36.000Z</time>
      </trkpt>
      <trkpt lat="45.10427" lon="5.54285">
        <ele>1225.7</ele>
        <time>2022-08-12T12:55:37.000Z</time>
      </trkpt>
      <trkpt lat="45.10428" lon="5.54283">
        <ele>1225.5</ele>
        <time>2022-08-12T12:55:38.000Z</time>
      </trkpt>
      <trkpt lat="45.10426" lon="5.54275">
        <ele>1225.5</ele>
        <time>2022-08-12T12:55:41.000Z</time>
      </trkpt>
      <trkpt lat="45.10425" lon="5.54273">
        <ele>1225.6</ele>
        <time>2022-08-12T12:55:42.000Z</time>
      </trkpt>
      <trkpt lat="45.10423" lon="5.54272">
        <ele>1225.8</ele>
        <time>2022-08-12T12:55:43.000Z</time>
      </trkpt>
      <trkpt lat="45.10422" lon="5.5427">
        <ele>1226</ele>
        <time>2022-08-12T12:55:44.000Z</time>
      </trkpt>
      <trkpt lat="45.1042" lon="5.5427">
        <ele>1226.2</ele>
        <time>2022-08-12T12:55:45.000Z</time>
      </trkpt>
      <trkpt lat="45.10419" lon="5.5427">
        <ele>1226.4</ele>
        <time>2022-08-12T12:55:46.000Z</time>
      </trkpt>
      <trkpt lat="45.10417" lon="5.54269">
        <ele>1226.6</ele>
        <time>2022-08-12T12:55:47.000Z</time>
      </trkpt>
      <trkpt lat="45.10417" lon="5.54268">
        <ele>1226.7</ele>
        <time>2022-08-12T12:55:48.000Z</time>
      </trkpt>
      <trkpt lat="45.10416" lon="5.54267">
        <ele>1226.7</ele>
        <time>2022-08-12T12:55:49.000Z</time>
      </trkpt>
      <trkpt lat="45.10415" lon="5.54265">
        <ele>1226.8</ele>
        <time>2022-08-12T12:55:50.000Z</time>
      </trkpt>
      <trkpt lat="45.10414" lon="5.54262">
        <ele>1226.9</ele>
        <time>2022-08-12T12:55:51.000Z</time>
      </trkpt>
      <trkpt lat="45.10412" lon="5.5426">
        <ele>1227.1</ele>
        <time>2022-08-12T12:55:52.000Z</time>
      </trkpt>
      <trkpt lat="45.1041" lon="5.54259">
        <ele>1227.4</ele>
        <time>2022-08-12T12:55:53.000Z</time>
      </trkpt>
      <trkpt lat="45.10409" lon="5.54259">
        <ele>1227.5</ele>
        <time>2022-08-12T12:55:54.000Z</time>
      </trkpt>
      <trkpt lat="45.10408" lon="5.5426">
        <ele>1227.7</ele>
        <time>2022-08-12T12:55:55.000Z</time>
      </trkpt>
      <trkpt lat="45.10407" lon="5.54261">
        <ele>1227.8</ele>
        <time>2022-08-12T12:55:56.000Z</time>
      </trkpt>
      <trkpt lat="45.10406" lon="5.54262">
        <ele>1228</ele>
        <time>2022-08-12T12:55:57.000Z</time>
      </trkpt>
      <trkpt lat="45.10405" lon="5.54262">
        <ele>1228.1</ele>
        <time>2022-08-12T12:55:58.000Z</time>
      </trkpt>
      <trkpt lat="45.10404" lon="5.54264">
        <ele>1228.4</ele>
        <time>2022-08-12T12:56:00.000Z</time>
      </trkpt>
      <trkpt lat="45.10402" lon="5.54264">
        <ele>1228.7</ele>
        <time>2022-08-12T12:56:01.000Z</time>
      </trkpt>
      <trkpt lat="45.10398" lon="5.54265">
        <ele>1229.1</ele>
        <time>2022-08-12T12:56:03.000Z</time>
      </trkpt>
      <trkpt lat="45.10397" lon="5.54266">
        <ele>1229.3</ele>
        <time>2022-08-12T12:56:04.000Z</time>
      </trkpt>
      <trkpt lat="45.10395" lon="5.54266">
        <ele>1229.6</ele>
        <time>2022-08-12T12:56:05.000Z</time>
      </trkpt>
      <trkpt lat="45.10393" lon="5.54265">
        <ele>1229.9</ele>
        <time>2022-08-12T12:56:06.000Z</time>
      </trkpt>
      <trkpt lat="45.10391" lon="5.54266">
        <ele>1230.1</ele>
        <time>2022-08-12T12:56:07.000Z</time>
      </trkpt>
      <trkpt lat="45.1039" lon="5.54268">
        <ele>1230.2</ele>
        <time>2022-08-12T12:56:08.000Z</time>
      </trkpt>
      <trkpt lat="45.10388" lon="5.54268">
        <ele>1230.4</ele>
        <time>2022-08-12T12:56:09.000Z</time>
      </trkpt>
      <trkpt lat="45.10387" lon="5.54266">
        <ele>1230.6</ele>
        <time>2022-08-12T12:56:10.000Z</time>
      </trkpt>
      <trkpt lat="45.10386" lon="5.54263">
        <ele>1230.9</ele>
        <time>2022-08-12T12:56:11.000Z</time>
      </trkpt>
      <trkpt lat="45.10384" lon="5.54261">
        <ele>1231.1</ele>
        <time>2022-08-12T12:56:12.000Z</time>
      </trkpt>
      <trkpt lat="45.10387" lon="5.54259">
        <ele>1230.9</ele>
        <time>2022-08-12T12:56:13.000Z</time>
      </trkpt>
      <trkpt lat="45.10388" lon="5.54256">
        <ele>1230.9</ele>
        <time>2022-08-12T12:56:14.000Z</time>
      </trkpt>
      <trkpt lat="45.10389" lon="5.54254">
        <ele>1230.8</ele>
        <time>2022-08-12T12:56:15.000Z</time>
      </trkpt>
      <trkpt lat="45.10389" lon="5.54253">
        <ele>1230.8</ele>
        <time>2022-08-12T12:56:16.000Z</time>
      </trkpt>
      <trkpt lat="45.10389" lon="5.54251">
        <ele>1231</ele>
        <time>2022-08-12T12:56:17.000Z</time>
      </trkpt>
      <trkpt lat="45.10388" lon="5.5425">
        <ele>1231</ele>
        <time>2022-08-12T12:56:18.000Z</time>
      </trkpt>
      <trkpt lat="45.10388" lon="5.54249">
        <ele>1231.1</ele>
        <time>2022-08-12T12:56:19.000Z</time>
      </trkpt>
      <trkpt lat="45.10387" lon="5.54247">
        <ele>1231.2</ele>
        <time>2022-08-12T12:56:20.000Z</time>
      </trkpt>
      <trkpt lat="45.10386" lon="5.54246">
        <ele>1231.3</ele>
        <time>2022-08-12T12:56:21.000Z</time>
      </trkpt>
      <trkpt lat="45.10386" lon="5.54244">
        <ele>1231.4</ele>
        <time>2022-08-12T12:56:22.000Z</time>
      </trkpt>
      <trkpt lat="45.10385" lon="5.54242">
        <ele>1231.5</ele>
        <time>2022-08-12T12:56:23.000Z</time>
      </trkpt>
      <trkpt lat="45.10383" lon="5.5424">
        <ele>1231.7</ele>
        <time>2022-08-12T12:56:24.000Z</time>
      </trkpt>
      <trkpt lat="45.10382" lon="5.54238">
        <ele>1231.8</ele>
        <time>2022-08-12T12:56:25.000Z</time>
      </trkpt>
      <trkpt lat="45.10381" lon="5.54236">
        <ele>1232</ele>
        <time>2022-08-12T12:56:26.000Z</time>
      </trkpt>
      <trkpt lat="45.10378" lon="5.54235">
        <ele>1232.4</ele>
        <time>2022-08-12T12:56:28.000Z</time>
      </trkpt>
      <trkpt lat="45.10377" lon="5.54234">
        <ele>1232.5</ele>
        <time>2022-08-12T12:56:29.000Z</time>
      </trkpt>
      <trkpt lat="45.10376" lon="5.54232">
        <ele>1232.7</ele>
        <time>2022-08-12T12:56:30.000Z</time>
      </trkpt>
      <trkpt lat="45.10375" lon="5.5423">
        <ele>1232.9</ele>
        <time>2022-08-12T12:56:31.000Z</time>
      </trkpt>
      <trkpt lat="45.10374" lon="5.54231">
        <ele>1233</ele>
        <time>2022-08-12T12:56:32.000Z</time>
      </trkpt>
      <trkpt lat="45.10373" lon="5.54232">
        <ele>1233.1</ele>
        <time>2022-08-12T12:56:33.000Z</time>
      </trkpt>
      <trkpt lat="45.10373" lon="5.54233">
        <ele>1233.1</ele>
        <time>2022-08-12T12:56:34.000Z</time>
      </trkpt>
      <trkpt lat="45.10372" lon="5.54235">
        <ele>1233.1</ele>
        <time>2022-08-12T12:56:35.000Z</time>
      </trkpt>
      <trkpt lat="45.1037" lon="5.54237">
        <ele>1233.3</ele>
        <time>2022-08-12T12:56:37.000Z</time>
      </trkpt>
      <trkpt lat="45.10367" lon="5.54235">
        <ele>1233.8</ele>
        <time>2022-08-12T12:56:38.000Z</time>
      </trkpt>
      <trkpt lat="45.10364" lon="5.54234">
        <ele>1234.2</ele>
        <time>2022-08-12T12:56:39.000Z</time>
      </trkpt>
      <trkpt lat="45.10363" lon="5.54233">
        <ele>1234.4</ele>
        <time>2022-08-12T12:56:40.000Z</time>
      </trkpt>
      <trkpt lat="45.10362" lon="5.54233">
        <ele>1234.5</ele>
        <time>2022-08-12T12:56:41.000Z</time>
      </trkpt>
      <trkpt lat="45.10361" lon="5.54232">
        <ele>1234.6</ele>
        <time>2022-08-12T12:56:42.000Z</time>
      </trkpt>
      <trkpt lat="45.10361" lon="5.54231">
        <ele>1234.7</ele>
        <time>2022-08-12T12:56:43.000Z</time>
      </trkpt>
      <trkpt lat="45.1036" lon="5.5423">
        <ele>1234.8</ele>
        <time>2022-08-12T12:56:44.000Z</time>
      </trkpt>
      <trkpt lat="45.10359" lon="5.5423">
        <ele>1234.9</ele>
        <time>2022-08-12T12:56:45.000Z</time>
      </trkpt>
      <trkpt lat="45.10357" lon="5.5423">
        <ele>1235</ele>
        <time>2022-08-12T12:56:46.000Z</time>
      </trkpt>
      <trkpt lat="45.10357" lon="5.54231">
        <ele>1235</ele>
        <time>2022-08-12T12:56:47.000Z</time>
      </trkpt>
      <trkpt lat="45.10356" lon="5.54232">
        <ele>1235.1</ele>
        <time>2022-08-12T12:56:48.000Z</time>
      </trkpt>
      <trkpt lat="45.10356" lon="5.54233">
        <ele>1235.1</ele>
        <time>2022-08-12T12:56:49.000Z</time>
      </trkpt>
      <trkpt lat="45.10355" lon="5.54234">
        <ele>1235.1</ele>
        <time>2022-08-12T12:56:50.000Z</time>
      </trkpt>
      <trkpt lat="45.10354" lon="5.54235">
        <ele>1235.2</ele>
        <time>2022-08-12T12:56:51.000Z</time>
      </trkpt>
      <trkpt lat="45.10352" lon="5.54234">
        <ele>1235.3</ele>
        <time>2022-08-12T12:56:52.000Z</time>
      </trkpt>
      <trkpt lat="45.10351" lon="5.54232">
        <ele>1235.5</ele>
        <time>2022-08-12T12:56:53.000Z</time>
      </trkpt>
      <trkpt lat="45.1035" lon="5.5423">
        <ele>1235.6</ele>
        <time>2022-08-12T12:56:54.000Z</time>
      </trkpt>
      <trkpt lat="45.1035" lon="5.54229">
        <ele>1235.7</ele>
        <time>2022-08-12T12:56:55.000Z</time>
      </trkpt>
      <trkpt lat="45.10349" lon="5.54227">
        <ele>1235.8</ele>
        <time>2022-08-12T12:56:56.000Z</time>
      </trkpt>
      <trkpt lat="45.10348" lon="5.54224">
        <ele>1235.9</ele>
        <time>2022-08-12T12:56:57.000Z</time>
      </trkpt>
      <trkpt lat="45.10347" lon="5.54223">
        <ele>1236</ele>
        <time>2022-08-12T12:56:58.000Z</time>
      </trkpt>
      <trkpt lat="45.10345" lon="5.54222">
        <ele>1236.1</ele>
        <time>2022-08-12T12:56:59.000Z</time>
      </trkpt>
      <trkpt lat="45.10344" lon="5.54221">
        <ele>1236.2</ele>
        <time>2022-08-12T12:57:00.000Z</time>
      </trkpt>
      <trkpt lat="45.10343" lon="5.54221">
        <ele>1236.3</ele>
        <time>2022-08-12T12:57:01.000Z</time>
      </trkpt>
      <trkpt lat="45.10341" lon="5.54221">
        <ele>1236.4</ele>
        <time>2022-08-12T12:57:02.000Z</time>
      </trkpt>
      <trkpt lat="45.1034" lon="5.54222">
        <ele>1236.5</ele>
        <time>2022-08-12T12:57:03.000Z</time>
      </trkpt>
      <trkpt lat="45.10339" lon="5.54223">
        <ele>1236.6</ele>
        <time>2022-08-12T12:57:04.000Z</time>
      </trkpt>
      <trkpt lat="45.10338" lon="5.54224">
        <ele>1236.7</ele>
        <time>2022-08-12T12:57:05.000Z</time>
      </trkpt>
      <trkpt lat="45.10337" lon="5.54225">
        <ele>1236.7</ele>
        <time>2022-08-12T12:57:06.000Z</time>
      </trkpt>
      <trkpt lat="45.10336" lon="5.54225">
        <ele>1236.8</ele>
        <time>2022-08-12T12:57:07.000Z</time>
      </trkpt>
      <trkpt lat="45.10334" lon="5.54225">
        <ele>1236.9</ele>
        <time>2022-08-12T12:57:08.000Z</time>
      </trkpt>
      <trkpt lat="45.10332" lon="5.54226">
        <ele>1237.1</ele>
        <time>2022-08-12T12:57:09.000Z</time>
      </trkpt>
      <trkpt lat="45.1033" lon="5.54226">
        <ele>1237.2</ele>
        <time>2022-08-12T12:57:10.000Z</time>
      </trkpt>
      <trkpt lat="45.10328" lon="5.54226">
        <ele>1237.4</ele>
        <time>2022-08-12T12:57:11.000Z</time>
      </trkpt>
      <trkpt lat="45.10324" lon="5.54226">
        <ele>1237.7</ele>
        <time>2022-08-12T12:57:12.000Z</time>
      </trkpt>
      <trkpt lat="45.10322" lon="5.54228">
        <ele>1237.8</ele>
        <time>2022-08-12T12:57:13.000Z</time>
      </trkpt>
      <trkpt lat="45.10321" lon="5.54228">
        <ele>1237.9</ele>
        <time>2022-08-12T12:57:14.000Z</time>
      </trkpt>
      <trkpt lat="45.1032" lon="5.54229">
        <ele>1237.9</ele>
        <time>2022-08-12T12:57:15.000Z</time>
      </trkpt>
      <trkpt lat="45.10319" lon="5.5423">
        <ele>1238</ele>
        <time>2022-08-12T12:57:17.000Z</time>
      </trkpt>
      <trkpt lat="45.10318" lon="5.54231">
        <ele>1238.1</ele>
        <time>2022-08-12T12:57:18.000Z</time>
      </trkpt>
      <trkpt lat="45.10316" lon="5.54232">
        <ele>1238.2</ele>
        <time>2022-08-12T12:57:19.000Z</time>
      </trkpt>
      <trkpt lat="45.10315" lon="5.54233">
        <ele>1238.3</ele>
        <time>2022-08-12T12:57:20.000Z</time>
      </trkpt>
      <trkpt lat="45.10315" lon="5.54235">
        <ele>1238.3</ele>
        <time>2022-08-12T12:57:21.000Z</time>
      </trkpt>
      <trkpt lat="45.10314" lon="5.54236">
        <ele>1238.4</ele>
        <time>2022-08-12T12:57:25.000Z</time>
      </trkpt>
      <trkpt lat="45.10313" lon="5.54237">
        <ele>1238.5</ele>
        <time>2022-08-12T12:57:32.000Z</time>
      </trkpt>
      <trkpt lat="45.10311" lon="5.54239">
        <ele>1238.6</ele>
        <time>2022-08-12T12:57:33.000Z</time>
      </trkpt>
      <trkpt lat="45.10301" lon="5.54237">
        <ele>1239.1</ele>
        <time>2022-08-12T12:57:38.000Z</time>
      </trkpt>
      <trkpt lat="45.10299" lon="5.54237">
        <ele>1239.1</ele>
        <time>2022-08-12T12:57:39.000Z</time>
      </trkpt>
      <trkpt lat="45.10297" lon="5.54236">
        <ele>1239.1</ele>
        <time>2022-08-12T12:57:40.000Z</time>
      </trkpt>
      <trkpt lat="45.10296" lon="5.54236">
        <ele>1239.2</ele>
        <time>2022-08-12T12:57:41.000Z</time>
      </trkpt>
      <trkpt lat="45.10296" lon="5.54237">
        <ele>1239.2</ele>
        <time>2022-08-12T12:57:42.000Z</time>
      </trkpt>
      <trkpt lat="45.10292" lon="5.54238">
        <ele>1239.3</ele>
        <time>2022-08-12T12:57:45.000Z</time>
      </trkpt>
      <trkpt lat="45.10291" lon="5.54238">
        <ele>1239.3</ele>
        <time>2022-08-12T12:57:46.000Z</time>
      </trkpt>
      <trkpt lat="45.1029" lon="5.54239">
        <ele>1239.4</ele>
        <time>2022-08-12T12:57:47.000Z</time>
      </trkpt>
      <trkpt lat="45.10288" lon="5.54241">
        <ele>1239.4</ele>
        <time>2022-08-12T12:57:48.000Z</time>
      </trkpt>
      <trkpt lat="45.10287" lon="5.54242">
        <ele>1239.5</ele>
        <time>2022-08-12T12:57:49.000Z</time>
      </trkpt>
      <trkpt lat="45.10286" lon="5.54244">
        <ele>1239.6</ele>
        <time>2022-08-12T12:57:50.000Z</time>
      </trkpt>
      <trkpt lat="45.10285" lon="5.54246">
        <ele>1239.7</ele>
        <time>2022-08-12T12:57:51.000Z</time>
      </trkpt>
      <trkpt lat="45.10284" lon="5.54248">
        <ele>1239.7</ele>
        <time>2022-08-12T12:57:52.000Z</time>
      </trkpt>
      <trkpt lat="45.10282" lon="5.54251">
        <ele>1239.8</ele>
        <time>2022-08-12T12:57:54.000Z</time>
      </trkpt>
      <trkpt lat="45.10282" lon="5.54252">
        <ele>1239.8</ele>
        <time>2022-08-12T12:57:55.000Z</time>
      </trkpt>
      <trkpt lat="45.10282" lon="5.54254">
        <ele>1239.7</ele>
        <time>2022-08-12T12:57:56.000Z</time>
      </trkpt>
      <trkpt lat="45.10282" lon="5.54257">
        <ele>1239.6</ele>
        <time>2022-08-12T12:57:57.000Z</time>
      </trkpt>
      <trkpt lat="45.10281" lon="5.54264">
        <ele>1239.4</ele>
        <time>2022-08-12T12:58:01.000Z</time>
      </trkpt>
      <trkpt lat="45.1028" lon="5.54266">
        <ele>1239.4</ele>
        <time>2022-08-12T12:58:02.000Z</time>
      </trkpt>
      <trkpt lat="45.10279" lon="5.54267">
        <ele>1239.3</ele>
        <time>2022-08-12T12:58:03.000Z</time>
      </trkpt>
      <trkpt lat="45.10278" lon="5.54269">
        <ele>1239.3</ele>
        <time>2022-08-12T12:58:04.000Z</time>
      </trkpt>
      <trkpt lat="45.10276" lon="5.54271">
        <ele>1239.2</ele>
        <time>2022-08-12T12:58:06.000Z</time>
      </trkpt>
      <trkpt lat="45.10274" lon="5.54272">
        <ele>1239.2</ele>
        <time>2022-08-12T12:58:07.000Z</time>
      </trkpt>
      <trkpt lat="45.10273" lon="5.54273">
        <ele>1239.2</ele>
        <time>2022-08-12T12:58:08.000Z</time>
      </trkpt>
      <trkpt lat="45.10271" lon="5.54274">
        <ele>1239.1</ele>
        <time>2022-08-12T12:58:09.000Z</time>
      </trkpt>
      <trkpt lat="45.1027" lon="5.54274">
        <ele>1239.1</ele>
        <time>2022-08-12T12:58:10.000Z</time>
      </trkpt>
      <trkpt lat="45.10268" lon="5.54274">
        <ele>1239.1</ele>
        <time>2022-08-12T12:58:11.000Z</time>
      </trkpt>
      <trkpt lat="45.10267" lon="5.54273">
        <ele>1239.2</ele>
        <time>2022-08-12T12:58:12.000Z</time>
      </trkpt>
      <trkpt lat="45.10266" lon="5.54273">
        <ele>1239.2</ele>
        <time>2022-08-12T12:58:13.000Z</time>
      </trkpt>
      <trkpt lat="45.10267" lon="5.54273">
        <ele>1239.2</ele>
        <time>2022-08-12T12:58:14.000Z</time>
      </trkpt>
      <trkpt lat="45.10266" lon="5.54273">
        <ele>1239.2</ele>
        <time>2022-08-12T12:59:09.000Z</time>
      </trkpt>
      <trkpt lat="45.10266" lon="5.54272">
        <ele>1239.2</ele>
        <time>2022-08-12T12:59:14.000Z</time>
      </trkpt>
      <trkpt lat="45.10264" lon="5.54275">
        <ele>1239.1</ele>
        <time>2022-08-12T12:59:36.000Z</time>
      </trkpt>
      <trkpt lat="45.10263" lon="5.54276">
        <ele>1239.1</ele>
        <time>2022-08-12T12:59:37.000Z</time>
      </trkpt>
      <trkpt lat="45.10259" lon="5.54279">
        <ele>1238.9</ele>
        <time>2022-08-12T12:59:39.000Z</time>
      </trkpt>
      <trkpt lat="45.10255" lon="5.54275">
        <ele>1239.1</ele>
        <time>2022-08-12T09:43:29.000Z</time>
      </trkpt>
      <trkpt lat="45.10254" lon="5.54275">
        <ele>1239.1</ele>
        <time>2022-08-12T09:43:30.000Z</time>
      </trkpt>
      <trkpt lat="45.10252" lon="5.54276">
        <ele>1239.1</ele>
        <time>2022-08-12T09:43:31.000Z</time>
      </trkpt>
      <trkpt lat="45.1025" lon="5.54276">
        <ele>1239.1</ele>
        <time>2022-08-12T09:43:32.000Z</time>
      </trkpt>
      <trkpt lat="45.10248" lon="5.54277">
        <ele>1239</ele>
        <time>2022-08-12T09:43:33.000Z</time>
      </trkpt>
      <trkpt lat="45.10239" lon="5.54277">
        <ele>1239</ele>
        <time>2022-08-12T09:43:37.000Z</time>
      </trkpt>
      <trkpt lat="45.10232" lon="5.54277">
        <ele>1239</ele>
        <time>2022-08-12T09:43:40.000Z</time>
      </trkpt>
      <trkpt lat="45.10229" lon="5.54278">
        <ele>1239</ele>
        <time>2022-08-12T09:43:41.000Z</time>
      </trkpt>
      <trkpt lat="45.10226" lon="5.54279">
        <ele>1238.9</ele>
        <time>2022-08-12T09:43:42.000Z</time>
      </trkpt>
      <trkpt lat="45.10223" lon="5.5428">
        <ele>1238.8</ele>
        <time>2022-08-12T09:43:43.000Z</time>
      </trkpt>
      <trkpt lat="45.10221" lon="5.54281">
        <ele>1238.8</ele>
        <time>2022-08-12T09:43:44.000Z</time>
      </trkpt>
      <trkpt lat="45.10214" lon="5.54282">
        <ele>1238.9</ele>
        <time>2022-08-12T09:43:47.000Z</time>
      </trkpt>
      <trkpt lat="45.10213" lon="5.54282">
        <ele>1239</ele>
        <time>2022-08-12T09:43:48.000Z</time>
      </trkpt>
      <trkpt lat="45.10211" lon="5.54283">
        <ele>1239</ele>
        <time>2022-08-12T09:43:49.000Z</time>
      </trkpt>
      <trkpt lat="45.10209" lon="5.54283">
        <ele>1239</ele>
        <time>2022-08-12T09:43:50.000Z</time>
      </trkpt>
      <trkpt lat="45.10208" lon="5.54283">
        <ele>1239</ele>
        <time>2022-08-12T09:43:51.000Z</time>
      </trkpt>
      <trkpt lat="45.10206" lon="5.54283">
        <ele>1239.1</ele>
        <time>2022-08-12T09:43:52.000Z</time>
      </trkpt>
      <trkpt lat="45.10204" lon="5.54283">
        <ele>1239.2</ele>
        <time>2022-08-12T09:43:53.000Z</time>
      </trkpt>
      <trkpt lat="45.10202" lon="5.54283">
        <ele>1239.2</ele>
        <time>2022-08-12T09:43:54.000Z</time>
      </trkpt>
      <trkpt lat="45.10191" lon="5.54283">
        <ele>1239.4</ele>
        <time>2022-08-12T09:44:00.000Z</time>
      </trkpt>
      <trkpt lat="45.10189" lon="5.54283">
        <ele>1239.4</ele>
        <time>2022-08-12T09:44:01.000Z</time>
      </trkpt>
      <trkpt lat="45.10177" lon="5.54284">
        <ele>1239.2</ele>
        <time>2022-08-12T09:44:06.000Z</time>
      </trkpt>
      <trkpt lat="45.10162" lon="5.54284">
        <ele>1239.1</ele>
        <time>2022-08-12T09:44:12.000Z</time>
      </trkpt>
      <trkpt lat="45.10149" lon="5.5428">
        <ele>1239.7</ele>
        <time>2022-08-12T09:44:17.000Z</time>
      </trkpt>
      <trkpt lat="45.10147" lon="5.5428">
        <ele>1239.7</ele>
        <time>2022-08-12T09:44:18.000Z</time>
      </trkpt>
      <trkpt lat="45.10145" lon="5.5428">
        <ele>1239.7</ele>
        <time>2022-08-12T09:44:19.000Z</time>
      </trkpt>
      <trkpt lat="45.10139" lon="5.5428">
        <ele>1239.7</ele>
        <time>2022-08-12T09:44:22.000Z</time>
      </trkpt>
      <trkpt lat="45.10137" lon="5.54279">
        <ele>1239.7</ele>
        <time>2022-08-12T09:44:23.000Z</time>
      </trkpt>
      <trkpt lat="45.10134" lon="5.54279">
        <ele>1239.6</ele>
        <time>2022-08-12T09:44:24.000Z</time>
      </trkpt>
      <trkpt lat="45.10132" lon="5.54279">
        <ele>1239.5</ele>
        <time>2022-08-12T09:44:25.000Z</time>
      </trkpt>
      <trkpt lat="45.1013" lon="5.54279">
        <ele>1239.5</ele>
        <time>2022-08-12T09:44:26.000Z</time>
      </trkpt>
      <trkpt lat="45.10127" lon="5.54279">
        <ele>1239.4</ele>
        <time>2022-08-12T09:44:27.000Z</time>
      </trkpt>
      <trkpt lat="45.10119" lon="5.54279">
        <ele>1239.1</ele>
        <time>2022-08-12T09:44:30.000Z</time>
      </trkpt>
      <trkpt lat="45.10116" lon="5.54279">
        <ele>1239</ele>
        <time>2022-08-12T09:44:31.000Z</time>
      </trkpt>
      <trkpt lat="45.10111" lon="5.54279">
        <ele>1238.8</ele>
        <time>2022-08-12T09:44:33.000Z</time>
      </trkpt>
      <trkpt lat="45.10092" lon="5.54277">
        <ele>1238.4</ele>
        <time>2022-08-12T09:44:39.000Z</time>
      </trkpt>
      <trkpt lat="45.10083" lon="5.54275">
        <ele>1238.3</ele>
        <time>2022-08-12T09:44:42.000Z</time>
      </trkpt>
      <trkpt lat="45.1008" lon="5.54274">
        <ele>1238.4</ele>
        <time>2022-08-12T09:44:43.000Z</time>
      </trkpt>
      <trkpt lat="45.10077" lon="5.54274">
        <ele>1238.4</ele>
        <time>2022-08-12T09:44:44.000Z</time>
      </trkpt>
      <trkpt lat="45.10074" lon="5.54273">
        <ele>1238.4</ele>
        <time>2022-08-12T09:44:45.000Z</time>
      </trkpt>
      <trkpt lat="45.10072" lon="5.54273">
        <ele>1238.4</ele>
        <time>2022-08-12T09:44:46.000Z</time>
      </trkpt>
      <trkpt lat="45.10071" lon="5.54274">
        <ele>1238.4</ele>
        <time>2022-08-12T09:44:47.000Z</time>
      </trkpt>
      <trkpt lat="45.10068" lon="5.54274">
        <ele>1238.3</ele>
        <time>2022-08-12T09:44:48.000Z</time>
      </trkpt>
      <trkpt lat="45.10066" lon="5.54274">
        <ele>1238.4</ele>
        <time>2022-08-12T09:44:49.000Z</time>
      </trkpt>
      <trkpt lat="45.10064" lon="5.54272">
        <ele>1238.5</ele>
        <time>2022-08-12T09:44:50.000Z</time>
      </trkpt>
      <trkpt lat="45.10063" lon="5.5427">
        <ele>1238.6</ele>
        <time>2022-08-12T09:44:51.000Z</time>
      </trkpt>
      <trkpt lat="45.10059" lon="5.54268">
        <ele>1238.7</ele>
        <time>2022-08-12T09:44:53.000Z</time>
      </trkpt>
      <trkpt lat="45.10057" lon="5.54267">
        <ele>1238.8</ele>
        <time>2022-08-12T09:44:54.000Z</time>
      </trkpt>
      <trkpt lat="45.10051" lon="5.54263">
        <ele>1239.3</ele>
        <time>2022-08-12T09:44:57.000Z</time>
      </trkpt>
      <trkpt lat="45.10047" lon="5.54261">
        <ele>1239.7</ele>
        <time>2022-08-12T09:44:59.000Z</time>
      </trkpt>
      <trkpt lat="45.10036" lon="5.54256">
        <ele>1240.8</ele>
        <time>2022-08-12T09:45:04.000Z</time>
      </trkpt>
      <trkpt lat="45.1002" lon="5.54244">
        <ele>1242.5</ele>
        <time>2022-08-12T09:45:11.000Z</time>
      </trkpt>
      <trkpt lat="45.10018" lon="5.54243">
        <ele>1242.6</ele>
        <time>2022-08-12T09:45:12.000Z</time>
      </trkpt>
      <trkpt lat="45.10016" lon="5.54242">
        <ele>1242.7</ele>
        <time>2022-08-12T09:45:13.000Z</time>
      </trkpt>
      <trkpt lat="45.10015" lon="5.54242">
        <ele>1242.8</ele>
        <time>2022-08-12T09:45:14.000Z</time>
      </trkpt>
      <trkpt lat="45.10013" lon="5.54241">
        <ele>1242.8</ele>
        <time>2022-08-12T09:45:15.000Z</time>
      </trkpt>
      <trkpt lat="45.10011" lon="5.54241">
        <ele>1242.9</ele>
        <time>2022-08-12T09:45:16.000Z</time>
      </trkpt>
      <trkpt lat="45.10009" lon="5.5424">
        <ele>1243</ele>
        <time>2022-08-12T09:45:17.000Z</time>
      </trkpt>
      <trkpt lat="45.10003" lon="5.54239">
        <ele>1243.3</ele>
        <time>2022-08-12T09:45:20.000Z</time>
      </trkpt>
      <trkpt lat="45.10001" lon="5.54238">
        <ele>1243.4</ele>
        <time>2022-08-12T09:45:21.000Z</time>
      </trkpt>
      <trkpt lat="45.09999" lon="5.54237">
        <ele>1243.5</ele>
        <time>2022-08-12T09:45:22.000Z</time>
      </trkpt>
      <trkpt lat="45.09996" lon="5.54235">
        <ele>1243.7</ele>
        <time>2022-08-12T09:45:23.000Z</time>
      </trkpt>
      <trkpt lat="45.09994" lon="5.54234">
        <ele>1243.8</ele>
        <time>2022-08-12T09:45:24.000Z</time>
      </trkpt>
      <trkpt lat="45.09992" lon="5.54232">
        <ele>1243.9</ele>
        <time>2022-08-12T09:45:25.000Z</time>
      </trkpt>
      <trkpt lat="45.0999" lon="5.54232">
        <ele>1244</ele>
        <time>2022-08-12T09:45:26.000Z</time>
      </trkpt>
      <trkpt lat="45.09983" lon="5.5423">
        <ele>1244.4</ele>
        <time>2022-08-12T09:45:30.000Z</time>
      </trkpt>
      <trkpt lat="45.09979" lon="5.54229">
        <ele>1244.5</ele>
        <time>2022-08-12T09:45:31.000Z</time>
      </trkpt>
      <trkpt lat="45.09977" lon="5.5423">
        <ele>1244.5</ele>
        <time>2022-08-12T09:45:32.000Z</time>
      </trkpt>
      <trkpt lat="45.09976" lon="5.5423">
        <ele>1244.6</ele>
        <time>2022-08-12T09:45:33.000Z</time>
      </trkpt>
      <trkpt lat="45.09974" lon="5.5423">
        <ele>1244.7</ele>
        <time>2022-08-12T09:45:34.000Z</time>
      </trkpt>
      <trkpt lat="45.09973" lon="5.5423">
        <ele>1244.7</ele>
        <time>2022-08-12T09:45:35.000Z</time>
      </trkpt>
      <trkpt lat="45.0997" lon="5.5423">
        <ele>1244.8</ele>
        <time>2022-08-12T09:45:36.000Z</time>
      </trkpt>
      <trkpt lat="45.09968" lon="5.5423">
        <ele>1244.9</ele>
        <time>2022-08-12T09:45:37.000Z</time>
      </trkpt>
      <trkpt lat="45.09966" lon="5.54232">
        <ele>1244.9</ele>
        <time>2022-08-12T09:45:38.000Z</time>
      </trkpt>
      <trkpt lat="45.09965" lon="5.54233">
        <ele>1244.9</ele>
        <time>2022-08-12T09:45:39.000Z</time>
      </trkpt>
      <trkpt lat="45.09964" lon="5.54233">
        <ele>1244.9</ele>
        <time>2022-08-12T09:45:40.000Z</time>
      </trkpt>
      <trkpt lat="45.09963" lon="5.54234">
        <ele>1244.9</ele>
        <time>2022-08-12T09:45:41.000Z</time>
      </trkpt>
      <trkpt lat="45.09961" lon="5.54234">
        <ele>1245</ele>
        <time>2022-08-12T09:45:42.000Z</time>
      </trkpt>
      <trkpt lat="45.09959" lon="5.54234">
        <ele>1245</ele>
        <time>2022-08-12T09:45:43.000Z</time>
      </trkpt>
      <trkpt lat="45.09957" lon="5.54234">
        <ele>1245.1</ele>
        <time>2022-08-12T09:45:44.000Z</time>
      </trkpt>
      <trkpt lat="45.09955" lon="5.54234">
        <ele>1245.2</ele>
        <time>2022-08-12T09:45:45.000Z</time>
      </trkpt>
      <trkpt lat="45.09953" lon="5.54234">
        <ele>1245.3</ele>
        <time>2022-08-12T09:45:46.000Z</time>
      </trkpt>
      <trkpt lat="45.09952" lon="5.54234">
        <ele>1245.3</ele>
        <time>2022-08-12T09:45:47.000Z</time>
      </trkpt>
      <trkpt lat="45.0995" lon="5.54233">
        <ele>1245.4</ele>
        <time>2022-08-12T09:45:48.000Z</time>
      </trkpt>
      <trkpt lat="45.09948" lon="5.54233">
        <ele>1245.5</ele>
        <time>2022-08-12T09:45:49.000Z</time>
      </trkpt>
      <trkpt lat="45.09947" lon="5.54232">
        <ele>1245.6</ele>
        <time>2022-08-12T09:45:50.000Z</time>
      </trkpt>
      <trkpt lat="45.09945" lon="5.54231">
        <ele>1245.6</ele>
        <time>2022-08-12T09:45:51.000Z</time>
      </trkpt>
      <trkpt lat="45.09944" lon="5.5423">
        <ele>1245.7</ele>
        <time>2022-08-12T09:45:52.000Z</time>
      </trkpt>
      <trkpt lat="45.09942" lon="5.5423">
        <ele>1245.8</ele>
        <time>2022-08-12T09:45:53.000Z</time>
      </trkpt>
      <trkpt lat="45.0994" lon="5.5423">
        <ele>1245.9</ele>
        <time>2022-08-12T09:45:54.000Z</time>
      </trkpt>
      <trkpt lat="45.09939" lon="5.5423">
        <ele>1245.9</ele>
        <time>2022-08-12T09:45:55.000Z</time>
      </trkpt>
      <trkpt lat="45.09937" lon="5.54229">
        <ele>1246</ele>
        <time>2022-08-12T09:45:56.000Z</time>
      </trkpt>
      <trkpt lat="45.09936" lon="5.54229">
        <ele>1246.1</ele>
        <time>2022-08-12T09:45:57.000Z</time>
      </trkpt>
      <trkpt lat="45.09934" lon="5.54228">
        <ele>1246.2</ele>
        <time>2022-08-12T09:45:58.000Z</time>
      </trkpt>
      <trkpt lat="45.09933" lon="5.54227">
        <ele>1246.2</ele>
        <time>2022-08-12T09:45:59.000Z</time>
      </trkpt>
      <trkpt lat="45.09931" lon="5.54226">
        <ele>1246.4</ele>
        <time>2022-08-12T09:46:00.000Z</time>
      </trkpt>
      <trkpt lat="45.0993" lon="5.54226">
        <ele>1246.4</ele>
        <time>2022-08-12T09:46:01.000Z</time>
      </trkpt>
      <trkpt lat="45.09929" lon="5.54225">
        <ele>1246.4</ele>
        <time>2022-08-12T09:46:02.000Z</time>
      </trkpt>
      <trkpt lat="45.09928" lon="5.54226">
        <ele>1246.5</ele>
        <time>2022-08-12T09:46:03.000Z</time>
      </trkpt>
      <trkpt lat="45.09926" lon="5.54225">
        <ele>1246.6</ele>
        <time>2022-08-12T09:46:04.000Z</time>
      </trkpt>
      <trkpt lat="45.09924" lon="5.54225">
        <ele>1246.6</ele>
        <time>2022-08-12T09:46:05.000Z</time>
      </trkpt>
      <trkpt lat="45.09922" lon="5.54224">
        <ele>1246.7</ele>
        <time>2022-08-12T09:46:06.000Z</time>
      </trkpt>
      <trkpt lat="45.09921" lon="5.54224">
        <ele>1246.8</ele>
        <time>2022-08-12T09:46:07.000Z</time>
      </trkpt>
      <trkpt lat="45.0992" lon="5.54224">
        <ele>1246.8</ele>
        <time>2022-08-12T09:46:08.000Z</time>
      </trkpt>
      <trkpt lat="45.09918" lon="5.54225">
        <ele>1246.9</ele>
        <time>2022-08-12T09:46:09.000Z</time>
      </trkpt>
      <trkpt lat="45.09916" lon="5.54225">
        <ele>1247</ele>
        <time>2022-08-12T09:46:10.000Z</time>
      </trkpt>
      <trkpt lat="45.09914" lon="5.54224">
        <ele>1247.1</ele>
        <time>2022-08-12T09:46:11.000Z</time>
      </trkpt>
      <trkpt lat="45.09913" lon="5.54223">
        <ele>1247.2</ele>
        <time>2022-08-12T09:46:12.000Z</time>
      </trkpt>
      <trkpt lat="45.09912" lon="5.54223">
        <ele>1247.3</ele>
        <time>2022-08-12T09:46:13.000Z</time>
      </trkpt>
      <trkpt lat="45.09911" lon="5.54223">
        <ele>1247.4</ele>
        <time>2022-08-12T09:46:14.000Z</time>
      </trkpt>
      <trkpt lat="45.09909" lon="5.54223">
        <ele>1247.5</ele>
        <time>2022-08-12T09:46:15.000Z</time>
      </trkpt>
      <trkpt lat="45.09908" lon="5.54222">
        <ele>1247.6</ele>
        <time>2022-08-12T09:46:16.000Z</time>
      </trkpt>
      <trkpt lat="45.09907" lon="5.54221">
        <ele>1247.8</ele>
        <time>2022-08-12T09:46:17.000Z</time>
      </trkpt>
      <trkpt lat="45.09905" lon="5.54219">
        <ele>1248</ele>
        <time>2022-08-12T09:46:18.000Z</time>
      </trkpt>
      <trkpt lat="45.09903" lon="5.54218">
        <ele>1248.1</ele>
        <time>2022-08-12T09:46:19.000Z</time>
      </trkpt>
      <trkpt lat="45.09902" lon="5.54218">
        <ele>1248.2</ele>
        <time>2022-08-12T09:46:20.000Z</time>
      </trkpt>
      <trkpt lat="45.09901" lon="5.54218">
        <ele>1248.3</ele>
        <time>2022-08-12T09:46:22.000Z</time>
      </trkpt>
      <trkpt lat="45.099" lon="5.54218">
        <ele>1248.4</ele>
        <time>2022-08-12T09:46:23.000Z</time>
      </trkpt>
      <trkpt lat="45.09899" lon="5.54217">
        <ele>1248.5</ele>
        <time>2022-08-12T09:46:24.000Z</time>
      </trkpt>
      <trkpt lat="45.09897" lon="5.54216">
        <ele>1248.6</ele>
        <time>2022-08-12T09:46:25.000Z</time>
      </trkpt>
      <trkpt lat="45.09896" lon="5.54216">
        <ele>1248.7</ele>
        <time>2022-08-12T09:46:26.000Z</time>
      </trkpt>
      <trkpt lat="45.09895" lon="5.54216">
        <ele>1248.8</ele>
        <time>2022-08-12T09:46:27.000Z</time>
      </trkpt>
      <trkpt lat="45.09894" lon="5.54215">
        <ele>1248.9</ele>
        <time>2022-08-12T09:46:28.000Z</time>
      </trkpt>
      <trkpt lat="45.09892" lon="5.54216">
        <ele>1249</ele>
        <time>2022-08-12T09:46:29.000Z</time>
      </trkpt>
      <trkpt lat="45.09888" lon="5.54216">
        <ele>1249.3</ele>
        <time>2022-08-12T09:46:30.000Z</time>
      </trkpt>
      <trkpt lat="45.09887" lon="5.54215">
        <ele>1249.4</ele>
        <time>2022-08-12T09:46:31.000Z</time>
      </trkpt>
      <trkpt lat="45.09886" lon="5.54215">
        <ele>1249.5</ele>
        <time>2022-08-12T09:46:32.000Z</time>
      </trkpt>
      <trkpt lat="45.09884" lon="5.54214">
        <ele>1249.6</ele>
        <time>2022-08-12T09:46:33.000Z</time>
      </trkpt>
      <trkpt lat="45.09884" lon="5.54213">
        <ele>1249.7</ele>
        <time>2022-08-12T09:46:34.000Z</time>
      </trkpt>
      <trkpt lat="45.09883" lon="5.54213">
        <ele>1249.8</ele>
        <time>2022-08-12T09:46:35.000Z</time>
      </trkpt>
      <trkpt lat="45.09881" lon="5.54213">
        <ele>1249.9</ele>
        <time>2022-08-12T09:46:36.000Z</time>
      </trkpt>
      <trkpt lat="45.0988" lon="5.54213">
        <ele>1250</ele>
        <time>2022-08-12T09:46:37.000Z</time>
      </trkpt>
      <trkpt lat="45.09878" lon="5.54212">
        <ele>1250.1</ele>
        <time>2022-08-12T09:46:38.000Z</time>
      </trkpt>
      <trkpt lat="45.09876" lon="5.54212">
        <ele>1250.3</ele>
        <time>2022-08-12T09:46:39.000Z</time>
      </trkpt>
      <trkpt lat="45.09875" lon="5.54211">
        <ele>1250.4</ele>
        <time>2022-08-12T09:46:40.000Z</time>
      </trkpt>
      <trkpt lat="45.09873" lon="5.54211">
        <ele>1250.6</ele>
        <time>2022-08-12T09:46:41.000Z</time>
      </trkpt>
      <trkpt lat="45.09872" lon="5.5421">
        <ele>1250.7</ele>
        <time>2022-08-12T09:46:42.000Z</time>
      </trkpt>
      <trkpt lat="45.09871" lon="5.54209">
        <ele>1250.8</ele>
        <time>2022-08-12T09:46:43.000Z</time>
      </trkpt>
      <trkpt lat="45.09869" lon="5.54208">
        <ele>1250.9</ele>
        <time>2022-08-12T09:46:44.000Z</time>
      </trkpt>
      <trkpt lat="45.09868" lon="5.54208">
        <ele>1251</ele>
        <time>2022-08-12T09:46:45.000Z</time>
      </trkpt>
      <trkpt lat="45.09867" lon="5.54207">
        <ele>1251.1</ele>
        <time>2022-08-12T09:46:46.000Z</time>
      </trkpt>
      <trkpt lat="45.09866" lon="5.54207">
        <ele>1251.2</ele>
        <time>2022-08-12T09:46:47.000Z</time>
      </trkpt>
      <trkpt lat="45.09865" lon="5.54206">
        <ele>1251.3</ele>
        <time>2022-08-12T09:46:48.000Z</time>
      </trkpt>
      <trkpt lat="45.09863" lon="5.54205">
        <ele>1251.5</ele>
        <time>2022-08-12T09:46:49.000Z</time>
      </trkpt>
      <trkpt lat="45.09862" lon="5.54205">
        <ele>1251.6</ele>
        <time>2022-08-12T09:46:50.000Z</time>
      </trkpt>
      <trkpt lat="45.09861" lon="5.54204">
        <ele>1251.7</ele>
        <time>2022-08-12T09:46:51.000Z</time>
      </trkpt>
      <trkpt lat="45.0986" lon="5.54203">
        <ele>1251.8</ele>
        <time>2022-08-12T09:46:52.000Z</time>
      </trkpt>
      <trkpt lat="45.09859" lon="5.54203">
        <ele>1251.9</ele>
        <time>2022-08-12T09:46:53.000Z</time>
      </trkpt>
      <trkpt lat="45.09858" lon="5.54203">
        <ele>1252</ele>
        <time>2022-08-12T09:46:54.000Z</time>
      </trkpt>
      <trkpt lat="45.09855" lon="5.54203">
        <ele>1252.3</ele>
        <time>2022-08-12T09:46:55.000Z</time>
      </trkpt>
      <trkpt lat="45.09854" lon="5.54203">
        <ele>1252.4</ele>
        <time>2022-08-12T09:46:56.000Z</time>
      </trkpt>
      <trkpt lat="45.09853" lon="5.54203">
        <ele>1252.5</ele>
        <time>2022-08-12T09:46:57.000Z</time>
      </trkpt>
      <trkpt lat="45.09851" lon="5.54202">
        <ele>1252.7</ele>
        <time>2022-08-12T09:46:58.000Z</time>
      </trkpt>
      <trkpt lat="45.09849" lon="5.54202">
        <ele>1252.9</ele>
        <time>2022-08-12T09:46:59.000Z</time>
      </trkpt>
      <trkpt lat="45.09848" lon="5.54201">
        <ele>1253.1</ele>
        <time>2022-08-12T09:47:00.000Z</time>
      </trkpt>
      <trkpt lat="45.09846" lon="5.54201">
        <ele>1253.3</ele>
        <time>2022-08-12T09:47:01.000Z</time>
      </trkpt>
      <trkpt lat="45.09844" lon="5.542">
        <ele>1253.5</ele>
        <time>2022-08-12T09:47:02.000Z</time>
      </trkpt>
      <trkpt lat="45.09843" lon="5.542">
        <ele>1253.6</ele>
        <time>2022-08-12T09:47:03.000Z</time>
      </trkpt>
      <trkpt lat="45.09842" lon="5.54199">
        <ele>1253.8</ele>
        <time>2022-08-12T09:47:04.000Z</time>
      </trkpt>
      <trkpt lat="45.09841" lon="5.54198">
        <ele>1254</ele>
        <time>2022-08-12T09:47:05.000Z</time>
      </trkpt>
      <trkpt lat="45.0984" lon="5.54198">
        <ele>1254.1</ele>
        <time>2022-08-12T09:47:06.000Z</time>
      </trkpt>
      <trkpt lat="45.09839" lon="5.54198">
        <ele>1254.2</ele>
        <time>2022-08-12T09:47:07.000Z</time>
      </trkpt>
      <trkpt lat="45.09838" lon="5.54198">
        <ele>1254.3</ele>
        <time>2022-08-12T09:47:08.000Z</time>
      </trkpt>
      <trkpt lat="45.09837" lon="5.54198">
        <ele>1254.4</ele>
        <time>2022-08-12T09:47:09.000Z</time>
      </trkpt>
      <trkpt lat="45.09836" lon="5.54198">
        <ele>1254.5</ele>
        <time>2022-08-12T09:47:10.000Z</time>
      </trkpt>
      <trkpt lat="45.09835" lon="5.54198">
        <ele>1254.6</ele>
        <time>2022-08-12T09:47:11.000Z</time>
      </trkpt>
      <trkpt lat="45.09834" lon="5.54198">
        <ele>1254.7</ele>
        <time>2022-08-12T09:47:12.000Z</time>
      </trkpt>
      <trkpt lat="45.09833" lon="5.54197">
        <ele>1254.8</ele>
        <time>2022-08-12T09:47:13.000Z</time>
      </trkpt>
      <trkpt lat="45.09832" lon="5.54196">
        <ele>1255.3</ele>
        <time>2022-08-12T09:47:15.000Z</time>
      </trkpt>
      <trkpt lat="45.0983" lon="5.54195">
        <ele>1255.6</ele>
        <time>2022-08-12T09:47:16.000Z</time>
      </trkpt>
      <trkpt lat="45.09829" lon="5.54195">
        <ele>1255.9</ele>
        <time>2022-08-12T09:47:17.000Z</time>
      </trkpt>
      <trkpt lat="45.09827" lon="5.54194">
        <ele>1256.3</ele>
        <time>2022-08-12T09:47:18.000Z</time>
      </trkpt>
      <trkpt lat="45.09826" lon="5.54194">
        <ele>1256.6</ele>
        <time>2022-08-12T09:47:19.000Z</time>
      </trkpt>
      <trkpt lat="45.09825" lon="5.54193">
        <ele>1256.8</ele>
        <time>2022-08-12T09:47:20.000Z</time>
      </trkpt>
      <trkpt lat="45.09825" lon="5.54192">
        <ele>1257.1</ele>
        <time>2022-08-12T09:47:21.000Z</time>
      </trkpt>
      <trkpt lat="45.09824" lon="5.54192">
        <ele>1257.2</ele>
        <time>2022-08-12T09:47:22.000Z</time>
      </trkpt>
      <trkpt lat="45.09823" lon="5.54192">
        <ele>1257.4</ele>
        <time>2022-08-12T09:47:23.000Z</time>
      </trkpt>
      <trkpt lat="45.09822" lon="5.54192">
        <ele>1257.7</ele>
        <time>2022-08-12T09:47:25.000Z</time>
      </trkpt>
      <trkpt lat="45.09821" lon="5.54192">
        <ele>1257.9</ele>
        <time>2022-08-12T09:47:26.000Z</time>
      </trkpt>
      <trkpt lat="45.0982" lon="5.54192">
        <ele>1258.1</ele>
        <time>2022-08-12T09:47:27.000Z</time>
      </trkpt>
      <trkpt lat="45.09819" lon="5.54192">
        <ele>1258.4</ele>
        <time>2022-08-12T09:47:28.000Z</time>
      </trkpt>
      <trkpt lat="45.09817" lon="5.54192">
        <ele>1258.8</ele>
        <time>2022-08-12T09:47:29.000Z</time>
      </trkpt>
      <trkpt lat="45.09815" lon="5.54191">
        <ele>1259.4</ele>
        <time>2022-08-12T09:47:30.000Z</time>
      </trkpt>
      <trkpt lat="45.09812" lon="5.5419">
        <ele>1260</ele>
        <time>2022-08-12T09:47:31.000Z</time>
      </trkpt>
      <trkpt lat="45.09811" lon="5.5419">
        <ele>1260.4</ele>
        <time>2022-08-12T09:47:34.000Z</time>
      </trkpt>
      <trkpt lat="45.0981" lon="5.5419">
        <ele>1260.5</ele>
        <time>2022-08-12T09:47:35.000Z</time>
      </trkpt>
      <trkpt lat="45.09809" lon="5.5419">
        <ele>1260.8</ele>
        <time>2022-08-12T09:47:36.000Z</time>
      </trkpt>
      <trkpt lat="45.09807" lon="5.5419">
        <ele>1261.2</ele>
        <time>2022-08-12T09:47:37.000Z</time>
      </trkpt>
      <trkpt lat="45.09805" lon="5.54189">
        <ele>1261.7</ele>
        <time>2022-08-12T09:47:38.000Z</time>
      </trkpt>
      <trkpt lat="45.09804" lon="5.54189">
        <ele>1262.1</ele>
        <time>2022-08-12T09:47:39.000Z</time>
      </trkpt>
      <trkpt lat="45.09803" lon="5.54189">
        <ele>1262.3</ele>
        <time>2022-08-12T09:47:40.000Z</time>
      </trkpt>
      <trkpt lat="45.09801" lon="5.5419">
        <ele>1262.8</ele>
        <time>2022-08-12T09:47:41.000Z</time>
      </trkpt>
      <trkpt lat="45.09799" lon="5.5419">
        <ele>1263.4</ele>
        <time>2022-08-12T09:47:42.000Z</time>
      </trkpt>
      <trkpt lat="45.09797" lon="5.5419">
        <ele>1263.9</ele>
        <time>2022-08-12T09:47:43.000Z</time>
      </trkpt>
      <trkpt lat="45.09796" lon="5.5419">
        <ele>1264.3</ele>
        <time>2022-08-12T09:47:44.000Z</time>
      </trkpt>
      <trkpt lat="45.09795" lon="5.54189">
        <ele>1264.6</ele>
        <time>2022-08-12T09:47:47.000Z</time>
      </trkpt>
      <trkpt lat="45.09794" lon="5.54188">
        <ele>1265</ele>
        <time>2022-08-12T09:47:48.000Z</time>
      </trkpt>
      <trkpt lat="45.09793" lon="5.54186">
        <ele>1265.4</ele>
        <time>2022-08-12T09:47:49.000Z</time>
      </trkpt>
      <trkpt lat="45.09792" lon="5.54185">
        <ele>1265.8</ele>
        <time>2022-08-12T09:47:50.000Z</time>
      </trkpt>
      <trkpt lat="45.09792" lon="5.54184">
        <ele>1266</ele>
        <time>2022-08-12T09:47:51.000Z</time>
      </trkpt>
      <trkpt lat="45.09792" lon="5.54183">
        <ele>1266.3</ele>
        <time>2022-08-12T09:47:52.000Z</time>
      </trkpt>
      <trkpt lat="45.09791" lon="5.54182">
        <ele>1266.6</ele>
        <time>2022-08-12T09:47:53.000Z</time>
      </trkpt>
      <trkpt lat="45.0979" lon="5.54181">
        <ele>1267.1</ele>
        <time>2022-08-12T09:47:54.000Z</time>
      </trkpt>
      <trkpt lat="45.09788" lon="5.54179">
        <ele>1267.6</ele>
        <time>2022-08-12T09:47:55.000Z</time>
      </trkpt>
      <trkpt lat="45.09787" lon="5.54178">
        <ele>1268.1</ele>
        <time>2022-08-12T09:47:56.000Z</time>
      </trkpt>
      <trkpt lat="45.09786" lon="5.54176">
        <ele>1268.6</ele>
        <time>2022-08-12T09:47:57.000Z</time>
      </trkpt>
      <trkpt lat="45.09786" lon="5.54174">
        <ele>1268.8</ele>
        <time>2022-08-12T09:47:58.000Z</time>
      </trkpt>
      <trkpt lat="45.09786" lon="5.54173">
        <ele>1268.9</ele>
        <time>2022-08-12T09:47:59.000Z</time>
      </trkpt>
      <trkpt lat="45.09786" lon="5.5417">
        <ele>1269.1</ele>
        <time>2022-08-12T09:48:00.000Z</time>
      </trkpt>
      <trkpt lat="45.09786" lon="5.54168">
        <ele>1269.3</ele>
        <time>2022-08-12T09:48:01.000Z</time>
      </trkpt>
      <trkpt lat="45.09786" lon="5.54167">
        <ele>1269.7</ele>
        <time>2022-08-12T09:48:02.000Z</time>
      </trkpt>
      <trkpt lat="45.09784" lon="5.54165">
        <ele>1270.2</ele>
        <time>2022-08-12T09:48:03.000Z</time>
      </trkpt>
      <trkpt lat="45.09784" lon="5.54164">
        <ele>1270.5</ele>
        <time>2022-08-12T09:48:04.000Z</time>
      </trkpt>
      <trkpt lat="45.09783" lon="5.54162">
        <ele>1270.7</ele>
        <time>2022-08-12T09:48:05.000Z</time>
      </trkpt>
      <trkpt lat="45.09783" lon="5.54159">
        <ele>1271</ele>
        <time>2022-08-12T09:48:06.000Z</time>
      </trkpt>
      <trkpt lat="45.09783" lon="5.54157">
        <ele>1271.2</ele>
        <time>2022-08-12T09:48:07.000Z</time>
      </trkpt>
      <trkpt lat="45.09783" lon="5.54156">
        <ele>1271.4</ele>
        <time>2022-08-12T09:48:08.000Z</time>
      </trkpt>
      <trkpt lat="45.09782" lon="5.54154">
        <ele>1271.6</ele>
        <time>2022-08-12T09:48:09.000Z</time>
      </trkpt>
      <trkpt lat="45.09782" lon="5.54152">
        <ele>1271.8</ele>
        <time>2022-08-12T09:48:10.000Z</time>
      </trkpt>
      <trkpt lat="45.09782" lon="5.54151">
        <ele>1272.1</ele>
        <time>2022-08-12T09:48:11.000Z</time>
      </trkpt>
      <trkpt lat="45.0978" lon="5.54149">
        <ele>1272.5</ele>
        <time>2022-08-12T09:48:12.000Z</time>
      </trkpt>
      <trkpt lat="45.09779" lon="5.54147">
        <ele>1273</ele>
        <time>2022-08-12T09:48:13.000Z</time>
      </trkpt>
      <trkpt lat="45.09778" lon="5.54146">
        <ele>1273.4</ele>
        <time>2022-08-12T09:48:14.000Z</time>
      </trkpt>
      <trkpt lat="45.09778" lon="5.54144">
        <ele>1273.7</ele>
        <time>2022-08-12T09:48:15.000Z</time>
      </trkpt>
      <trkpt lat="45.09778" lon="5.54143">
        <ele>1273.7</ele>
        <time>2022-08-12T09:48:17.000Z</time>
      </trkpt>
      <trkpt lat="45.09778" lon="5.54142">
        <ele>1273.8</ele>
        <time>2022-08-12T09:48:18.000Z</time>
      </trkpt>
      <trkpt lat="45.09777" lon="5.54142">
        <ele>1273.9</ele>
        <time>2022-08-12T09:48:19.000Z</time>
      </trkpt>
      <trkpt lat="45.09777" lon="5.54141">
        <ele>1274.1</ele>
        <time>2022-08-12T09:48:20.000Z</time>
      </trkpt>
      <trkpt lat="45.09776" lon="5.54139">
        <ele>1274.3</ele>
        <time>2022-08-12T09:48:21.000Z</time>
      </trkpt>
      <trkpt lat="45.09776" lon="5.54138">
        <ele>1274.5</ele>
        <time>2022-08-12T09:48:22.000Z</time>
      </trkpt>
      <trkpt lat="45.09775" lon="5.54136">
        <ele>1274.7</ele>
        <time>2022-08-12T09:48:23.000Z</time>
      </trkpt>
      <trkpt lat="45.09775" lon="5.54134">
        <ele>1274.9</ele>
        <time>2022-08-12T09:48:24.000Z</time>
      </trkpt>
      <trkpt lat="45.09774" lon="5.54131">
        <ele>1275.1</ele>
        <time>2022-08-12T09:48:25.000Z</time>
      </trkpt>
      <trkpt lat="45.09773" lon="5.5413">
        <ele>1275.3</ele>
        <time>2022-08-12T09:48:27.000Z</time>
      </trkpt>
      <trkpt lat="45.09772" lon="5.54128">
        <ele>1275.6</ele>
        <time>2022-08-12T09:48:28.000Z</time>
      </trkpt>
      <trkpt lat="45.0977" lon="5.54126">
        <ele>1276.1</ele>
        <time>2022-08-12T09:48:29.000Z</time>
      </trkpt>
      <trkpt lat="45.0977" lon="5.54124">
        <ele>1276.3</ele>
        <time>2022-08-12T09:48:30.000Z</time>
      </trkpt>
      <trkpt lat="45.09769" lon="5.54122">
        <ele>1276.5</ele>
        <time>2022-08-12T09:48:31.000Z</time>
      </trkpt>
      <trkpt lat="45.09769" lon="5.5412">
        <ele>1276.7</ele>
        <time>2022-08-12T09:48:32.000Z</time>
      </trkpt>
      <trkpt lat="45.09768" lon="5.54117">
        <ele>1276.9</ele>
        <time>2022-08-12T09:48:33.000Z</time>
      </trkpt>
      <trkpt lat="45.09768" lon="5.54115">
        <ele>1276.9</ele>
        <time>2022-08-12T09:48:34.000Z</time>
      </trkpt>
      <trkpt lat="45.09769" lon="5.54113">
        <ele>1276.9</ele>
        <time>2022-08-12T09:48:35.000Z</time>
      </trkpt>
      <trkpt lat="45.09769" lon="5.54111">
        <ele>1277</ele>
        <time>2022-08-12T09:48:36.000Z</time>
      </trkpt>
      <trkpt lat="45.09768" lon="5.54109">
        <ele>1277.2</ele>
        <time>2022-08-12T09:48:37.000Z</time>
      </trkpt>
      <trkpt lat="45.09768" lon="5.54108">
        <ele>1277.2</ele>
        <time>2022-08-12T09:48:38.000Z</time>
      </trkpt>
      <trkpt lat="45.09767" lon="5.54107">
        <ele>1277.4</ele>
        <time>2022-08-12T09:48:39.000Z</time>
      </trkpt>
      <trkpt lat="45.09767" lon="5.54105">
        <ele>1277.5</ele>
        <time>2022-08-12T09:48:40.000Z</time>
      </trkpt>
      <trkpt lat="45.09766" lon="5.54104">
        <ele>1277.8</ele>
        <time>2022-08-12T09:48:41.000Z</time>
      </trkpt>
      <trkpt lat="45.09764" lon="5.54102">
        <ele>1278.2</ele>
        <time>2022-08-12T09:48:42.000Z</time>
      </trkpt>
      <trkpt lat="45.09763" lon="5.541">
        <ele>1278.6</ele>
        <time>2022-08-12T09:48:43.000Z</time>
      </trkpt>
      <trkpt lat="45.09762" lon="5.54098">
        <ele>1278.9</ele>
        <time>2022-08-12T09:48:44.000Z</time>
      </trkpt>
      <trkpt lat="45.09762" lon="5.54096">
        <ele>1279</ele>
        <time>2022-08-12T09:48:45.000Z</time>
      </trkpt>
      <trkpt lat="45.09761" lon="5.54093">
        <ele>1279.3</ele>
        <time>2022-08-12T09:48:46.000Z</time>
      </trkpt>
      <trkpt lat="45.09761" lon="5.5409">
        <ele>1279.5</ele>
        <time>2022-08-12T09:48:47.000Z</time>
      </trkpt>
      <trkpt lat="45.0976" lon="5.54087">
        <ele>1279.6</ele>
        <time>2022-08-12T09:48:48.000Z</time>
      </trkpt>
      <trkpt lat="45.0976" lon="5.54085">
        <ele>1279.8</ele>
        <time>2022-08-12T09:48:49.000Z</time>
      </trkpt>
      <trkpt lat="45.09759" lon="5.54081">
        <ele>1280.2</ele>
        <time>2022-08-12T09:48:50.000Z</time>
      </trkpt>
      <trkpt lat="45.09759" lon="5.54076">
        <ele>1280.7</ele>
        <time>2022-08-12T09:48:51.000Z</time>
      </trkpt>
      <trkpt lat="45.09758" lon="5.54073">
        <ele>1281</ele>
        <time>2022-08-12T09:48:52.000Z</time>
      </trkpt>
      <trkpt lat="45.09757" lon="5.54068">
        <ele>1281.6</ele>
        <time>2022-08-12T09:48:53.000Z</time>
      </trkpt>
      <trkpt lat="45.09757" lon="5.54065">
        <ele>1282</ele>
        <time>2022-08-12T09:48:54.000Z</time>
      </trkpt>
      <trkpt lat="45.09757" lon="5.54061">
        <ele>1282.3</ele>
        <time>2022-08-12T09:48:55.000Z</time>
      </trkpt>
      <trkpt lat="45.09757" lon="5.54058">
        <ele>1282.7</ele>
        <time>2022-08-12T09:48:56.000Z</time>
      </trkpt>
      <trkpt lat="45.09756" lon="5.54054">
        <ele>1283.1</ele>
        <time>2022-08-12T09:48:57.000Z</time>
      </trkpt>
      <trkpt lat="45.09756" lon="5.54052">
        <ele>1283.3</ele>
        <time>2022-08-12T09:48:58.000Z</time>
      </trkpt>
      <trkpt lat="45.09756" lon="5.5405">
        <ele>1283.5</ele>
        <time>2022-08-12T09:48:59.000Z</time>
      </trkpt>
      <trkpt lat="45.09756" lon="5.54047">
        <ele>1283.8</ele>
        <time>2022-08-12T09:49:00.000Z</time>
      </trkpt>
      <trkpt lat="45.09756" lon="5.54044">
        <ele>1284.2</ele>
        <time>2022-08-12T09:49:01.000Z</time>
      </trkpt>
      <trkpt lat="45.09757" lon="5.54041">
        <ele>1284.3</ele>
        <time>2022-08-12T09:49:02.000Z</time>
      </trkpt>
      <trkpt lat="45.09758" lon="5.54039">
        <ele>1284.4</ele>
        <time>2022-08-12T09:49:03.000Z</time>
      </trkpt>
      <trkpt lat="45.09758" lon="5.54037">
        <ele>1284.6</ele>
        <time>2022-08-12T09:49:04.000Z</time>
      </trkpt>
      <trkpt lat="45.0976" lon="5.54034">
        <ele>1284.6</ele>
        <time>2022-08-12T09:49:05.000Z</time>
      </trkpt>
      <trkpt lat="45.09764" lon="5.54029">
        <ele>1284.4</ele>
        <time>2022-08-12T09:49:08.000Z</time>
      </trkpt>
      <trkpt lat="45.09766" lon="5.54029">
        <ele>1284.1</ele>
        <time>2022-08-12T09:49:09.000Z</time>
      </trkpt>
      <trkpt lat="45.09767" lon="5.54028">
        <ele>1283.9</ele>
        <time>2022-08-12T09:49:10.000Z</time>
      </trkpt>
      <trkpt lat="45.09768" lon="5.54026">
        <ele>1284</ele>
        <time>2022-08-12T09:49:12.000Z</time>
      </trkpt>
      <trkpt lat="45.09775" lon="5.54024">
        <ele>1283</ele>
        <time>2022-08-12T09:49:15.000Z</time>
      </trkpt>
      <trkpt lat="45.09777" lon="5.54023">
        <ele>1282.9</ele>
        <time>2022-08-12T09:49:16.000Z</time>
      </trkpt>
      <trkpt lat="45.09778" lon="5.54022">
        <ele>1282.8</ele>
        <time>2022-08-12T09:49:17.000Z</time>
      </trkpt>
      <trkpt lat="45.0978" lon="5.5402">
        <ele>1282.8</ele>
        <time>2022-08-12T09:49:18.000Z</time>
      </trkpt>
      <trkpt lat="45.09781" lon="5.54019">
        <ele>1282.8</ele>
        <time>2022-08-12T09:49:19.000Z</time>
      </trkpt>
      <trkpt lat="45.09783" lon="5.54018">
        <ele>1282.7</ele>
        <time>2022-08-12T09:49:20.000Z</time>
      </trkpt>
      <trkpt lat="45.09787" lon="5.54015">
        <ele>1282.5</ele>
        <time>2022-08-12T09:49:22.000Z</time>
      </trkpt>
      <trkpt lat="45.09794" lon="5.54007">
        <ele>1282.6</ele>
        <time>2022-08-12T09:49:27.000Z</time>
      </trkpt>
      <trkpt lat="45.09796" lon="5.54004">
        <ele>1282.8</ele>
        <time>2022-08-12T09:49:28.000Z</time>
      </trkpt>
      <trkpt lat="45.09797" lon="5.54003">
        <ele>1282.7</ele>
        <time>2022-08-12T09:49:29.000Z</time>
      </trkpt>
      <trkpt lat="45.09799" lon="5.54001">
        <ele>1282.8</ele>
        <time>2022-08-12T09:49:30.000Z</time>
      </trkpt>
      <trkpt lat="45.098" lon="5.54">
        <ele>1282.8</ele>
        <time>2022-08-12T09:49:31.000Z</time>
      </trkpt>
      <trkpt lat="45.09801" lon="5.53998">
        <ele>1283</ele>
        <time>2022-08-12T09:49:32.000Z</time>
      </trkpt>
      <trkpt lat="45.09802" lon="5.53996">
        <ele>1283</ele>
        <time>2022-08-12T09:49:33.000Z</time>
      </trkpt>
      <trkpt lat="45.09804" lon="5.53995">
        <ele>1283</ele>
        <time>2022-08-12T09:49:34.000Z</time>
      </trkpt>
      <trkpt lat="45.09804" lon="5.53994">
        <ele>1283</ele>
        <time>2022-08-12T09:49:35.000Z</time>
      </trkpt>
      <trkpt lat="45.09804" lon="5.53993">
        <ele>1283.3</ele>
        <time>2022-08-12T09:49:36.000Z</time>
      </trkpt>
      <trkpt lat="45.09805" lon="5.53991">
        <ele>1283.3</ele>
        <time>2022-08-12T09:49:37.000Z</time>
      </trkpt>
      <trkpt lat="45.09807" lon="5.5399">
        <ele>1283.2</ele>
        <time>2022-08-12T09:49:38.000Z</time>
      </trkpt>
      <trkpt lat="45.09809" lon="5.53989">
        <ele>1283</ele>
        <time>2022-08-12T09:49:39.000Z</time>
      </trkpt>
      <trkpt lat="45.09811" lon="5.53987">
        <ele>1283</ele>
        <time>2022-08-12T09:49:40.000Z</time>
      </trkpt>
      <trkpt lat="45.09812" lon="5.53986">
        <ele>1283.1</ele>
        <time>2022-08-12T09:49:41.000Z</time>
      </trkpt>
      <trkpt lat="45.09813" lon="5.53984">
        <ele>1283.2</ele>
        <time>2022-08-12T09:49:42.000Z</time>
      </trkpt>
      <trkpt lat="45.09814" lon="5.53982">
        <ele>1283.1</ele>
        <time>2022-08-12T09:49:43.000Z</time>
      </trkpt>
      <trkpt lat="45.09815" lon="5.53981">
        <ele>1283.1</ele>
        <time>2022-08-12T09:49:44.000Z</time>
      </trkpt>
      <trkpt lat="45.09817" lon="5.5398">
        <ele>1283</ele>
        <time>2022-08-12T09:49:45.000Z</time>
      </trkpt>
      <trkpt lat="45.09819" lon="5.53978">
        <ele>1282.9</ele>
        <time>2022-08-12T09:49:46.000Z</time>
      </trkpt>
      <trkpt lat="45.0982" lon="5.53977">
        <ele>1282.9</ele>
        <time>2022-08-12T09:49:47.000Z</time>
      </trkpt>
      <trkpt lat="45.09821" lon="5.53976">
        <ele>1282.8</ele>
        <time>2022-08-12T09:49:48.000Z</time>
      </trkpt>
      <trkpt lat="45.09822" lon="5.53974">
        <ele>1282.7</ele>
        <time>2022-08-12T09:49:49.000Z</time>
      </trkpt>
      <trkpt lat="45.09823" lon="5.53972">
        <ele>1282.8</ele>
        <time>2022-08-12T09:49:50.000Z</time>
      </trkpt>
      <trkpt lat="45.09825" lon="5.5397">
        <ele>1282.8</ele>
        <time>2022-08-12T09:49:51.000Z</time>
      </trkpt>
      <trkpt lat="45.09827" lon="5.53968">
        <ele>1282.6</ele>
        <time>2022-08-12T09:49:52.000Z</time>
      </trkpt>
      <trkpt lat="45.09828" lon="5.53967">
        <ele>1282.4</ele>
        <time>2022-08-12T09:49:53.000Z</time>
      </trkpt>
      <trkpt lat="45.0983" lon="5.53966">
        <ele>1282.3</ele>
        <time>2022-08-12T09:49:54.000Z</time>
      </trkpt>
      <trkpt lat="45.09831" lon="5.53965">
        <ele>1282.2</ele>
        <time>2022-08-12T09:49:55.000Z</time>
      </trkpt>
      <trkpt lat="45.09833" lon="5.53964">
        <ele>1282.1</ele>
        <time>2022-08-12T09:49:56.000Z</time>
      </trkpt>
      <trkpt lat="45.09834" lon="5.53962">
        <ele>1282</ele>
        <time>2022-08-12T09:49:57.000Z</time>
      </trkpt>
      <trkpt lat="45.09835" lon="5.53961">
        <ele>1281.9</ele>
        <time>2022-08-12T09:49:58.000Z</time>
      </trkpt>
      <trkpt lat="45.09836" lon="5.53959">
        <ele>1281.9</ele>
        <time>2022-08-12T09:49:59.000Z</time>
      </trkpt>
      <trkpt lat="45.09837" lon="5.53957">
        <ele>1282</ele>
        <time>2022-08-12T09:50:00.000Z</time>
      </trkpt>
      <trkpt lat="45.09838" lon="5.53955">
        <ele>1282.1</ele>
        <time>2022-08-12T09:50:01.000Z</time>
      </trkpt>
      <trkpt lat="45.09838" lon="5.53951">
        <ele>1282.3</ele>
        <time>2022-08-12T09:50:02.000Z</time>
      </trkpt>
      <trkpt lat="45.0984" lon="5.53949">
        <ele>1282.3</ele>
        <time>2022-08-12T09:50:03.000Z</time>
      </trkpt>
      <trkpt lat="45.09841" lon="5.53947">
        <ele>1282.3</ele>
        <time>2022-08-12T09:50:04.000Z</time>
      </trkpt>
      <trkpt lat="45.09842" lon="5.53945">
        <ele>1282.4</ele>
        <time>2022-08-12T09:50:05.000Z</time>
      </trkpt>
      <trkpt lat="45.09843" lon="5.53944">
        <ele>1282.3</ele>
        <time>2022-08-12T09:50:06.000Z</time>
      </trkpt>
      <trkpt lat="45.09844" lon="5.53942">
        <ele>1282.3</ele>
        <time>2022-08-12T09:50:07.000Z</time>
      </trkpt>
      <trkpt lat="45.09845" lon="5.53941">
        <ele>1282.1</ele>
        <time>2022-08-12T09:50:08.000Z</time>
      </trkpt>
      <trkpt lat="45.09846" lon="5.5394">
        <ele>1282</ele>
        <time>2022-08-12T09:50:09.000Z</time>
      </trkpt>
      <trkpt lat="45.09847" lon="5.53938">
        <ele>1282</ele>
        <time>2022-08-12T09:50:10.000Z</time>
      </trkpt>
      <trkpt lat="45.09848" lon="5.53936">
        <ele>1281.9</ele>
        <time>2022-08-12T09:50:11.000Z</time>
      </trkpt>
      <trkpt lat="45.09848" lon="5.53934">
        <ele>1282</ele>
        <time>2022-08-12T09:50:12.000Z</time>
      </trkpt>
      <trkpt lat="45.09849" lon="5.53932">
        <ele>1282.1</ele>
        <time>2022-08-12T09:50:13.000Z</time>
      </trkpt>
      <trkpt lat="45.09849" lon="5.5393">
        <ele>1282.2</ele>
        <time>2022-08-12T09:50:14.000Z</time>
      </trkpt>
      <trkpt lat="45.09849" lon="5.53929">
        <ele>1282.2</ele>
        <time>2022-08-12T09:50:16.000Z</time>
      </trkpt>
      <trkpt lat="45.0985" lon="5.53927">
        <ele>1282.3</ele>
        <time>2022-08-12T09:50:17.000Z</time>
      </trkpt>
      <trkpt lat="45.09849" lon="5.53926">
        <ele>1282.5</ele>
        <time>2022-08-12T09:50:18.000Z</time>
      </trkpt>
      <trkpt lat="45.09848" lon="5.53926">
        <ele>1282.7</ele>
        <time>2022-08-12T09:50:19.000Z</time>
      </trkpt>
      <trkpt lat="45.09847" lon="5.53926">
        <ele>1283</ele>
        <time>2022-08-12T09:50:20.000Z</time>
      </trkpt>
      <trkpt lat="45.09846" lon="5.53926">
        <ele>1283.1</ele>
        <time>2022-08-12T09:50:21.000Z</time>
      </trkpt>
      <trkpt lat="45.09847" lon="5.53927">
        <ele>1282.8</ele>
        <time>2022-08-12T09:50:22.000Z</time>
      </trkpt>
      <trkpt lat="45.09844" lon="5.53926">
        <ele>1283.3</ele>
        <time>2022-08-12T09:50:25.000Z</time>
      </trkpt>
      <trkpt lat="45.09843" lon="5.53926">
        <ele>1283.6</ele>
        <time>2022-08-12T09:50:26.000Z</time>
      </trkpt>
      <trkpt lat="45.09841" lon="5.53926">
        <ele>1283.8</ele>
        <time>2022-08-12T09:50:27.000Z</time>
      </trkpt>
      <trkpt lat="45.0984" lon="5.53927">
        <ele>1284.1</ele>
        <time>2022-08-12T09:50:28.000Z</time>
      </trkpt>
      <trkpt lat="45.09839" lon="5.53926">
        <ele>1284.3</ele>
        <time>2022-08-12T09:50:29.000Z</time>
      </trkpt>
      <trkpt lat="45.09838" lon="5.53925">
        <ele>1284.5</ele>
        <time>2022-08-12T09:50:30.000Z</time>
      </trkpt>
      <trkpt lat="45.09837" lon="5.53925">
        <ele>1284.7</ele>
        <time>2022-08-12T09:50:31.000Z</time>
      </trkpt>
      <trkpt lat="45.09837" lon="5.53924">
        <ele>1284.9</ele>
        <time>2022-08-12T09:50:32.000Z</time>
      </trkpt>
      <trkpt lat="45.09836" lon="5.53923">
        <ele>1285.1</ele>
        <time>2022-08-12T09:50:33.000Z</time>
      </trkpt>
      <trkpt lat="45.09835" lon="5.53923">
        <ele>1285.3</ele>
        <time>2022-08-12T09:50:34.000Z</time>
      </trkpt>
      <trkpt lat="45.09833" lon="5.53923">
        <ele>1285.5</ele>
        <time>2022-08-12T09:50:35.000Z</time>
      </trkpt>
      <trkpt lat="45.09831" lon="5.53923">
        <ele>1285.9</ele>
        <time>2022-08-12T09:50:36.000Z</time>
      </trkpt>
      <trkpt lat="45.0983" lon="5.53923">
        <ele>1286</ele>
        <time>2022-08-12T09:50:37.000Z</time>
      </trkpt>
      <trkpt lat="45.09833" lon="5.53921">
        <ele>1285.7</ele>
        <time>2022-08-12T09:51:11.000Z</time>
      </trkpt>
      <trkpt lat="45.09837" lon="5.53921">
        <ele>1285</ele>
        <time>2022-08-12T09:51:13.000Z</time>
      </trkpt>
      <trkpt lat="45.09841" lon="5.53923">
        <ele>1284.1</ele>
        <time>2022-08-12T09:51:15.000Z</time>
      </trkpt>
      <trkpt lat="45.09843" lon="5.53924">
        <ele>1283.7</ele>
        <time>2022-08-12T09:51:16.000Z</time>
      </trkpt>
      <trkpt lat="45.09845" lon="5.53925">
        <ele>1283.3</ele>
        <time>2022-08-12T09:51:17.000Z</time>
      </trkpt>
      <trkpt lat="45.09846" lon="5.53925">
        <ele>1283.1</ele>
        <time>2022-08-12T09:51:18.000Z</time>
      </trkpt>
      <trkpt lat="45.09849" lon="5.53924">
        <ele>1282.8</ele>
        <time>2022-08-12T09:51:19.000Z</time>
      </trkpt>
      <trkpt lat="45.09851" lon="5.53922">
        <ele>1282.4</ele>
        <time>2022-08-12T09:51:20.000Z</time>
      </trkpt>
      <trkpt lat="45.09853" lon="5.5392">
        <ele>1282.2</ele>
        <time>2022-08-12T09:51:21.000Z</time>
      </trkpt>
      <trkpt lat="45.09855" lon="5.53916">
        <ele>1282.2</ele>
        <time>2022-08-12T09:51:22.000Z</time>
      </trkpt>
      <trkpt lat="45.09856" lon="5.53914">
        <ele>1282</ele>
        <time>2022-08-12T09:51:23.000Z</time>
      </trkpt>
      <trkpt lat="45.09856" lon="5.53912">
        <ele>1281.8</ele>
        <time>2022-08-12T09:51:24.000Z</time>
      </trkpt>
      <trkpt lat="45.09857" lon="5.5391">
        <ele>1281.7</ele>
        <time>2022-08-12T09:51:25.000Z</time>
      </trkpt>
      <trkpt lat="45.09856" lon="5.53908">
        <ele>1281.9</ele>
        <time>2022-08-12T09:51:26.000Z</time>
      </trkpt>
      <trkpt lat="45.09856" lon="5.53906">
        <ele>1281.9</ele>
        <time>2022-08-12T09:51:27.000Z</time>
      </trkpt>
      <trkpt lat="45.09856" lon="5.53904">
        <ele>1281.9</ele>
        <time>2022-08-12T09:51:28.000Z</time>
      </trkpt>
      <trkpt lat="45.09856" lon="5.53902">
        <ele>1282</ele>
        <time>2022-08-12T09:51:29.000Z</time>
      </trkpt>
      <trkpt lat="45.09856" lon="5.539">
        <ele>1282</ele>
        <time>2022-08-12T09:51:30.000Z</time>
      </trkpt>
      <trkpt lat="45.09856" lon="5.53898">
        <ele>1281.9</ele>
        <time>2022-08-12T09:51:31.000Z</time>
      </trkpt>
      <trkpt lat="45.09856" lon="5.53896">
        <ele>1281.9</ele>
        <time>2022-08-12T09:51:32.000Z</time>
      </trkpt>
      <trkpt lat="45.09856" lon="5.53894">
        <ele>1281.9</ele>
        <time>2022-08-12T09:51:33.000Z</time>
      </trkpt>
      <trkpt lat="45.09856" lon="5.53892">
        <ele>1282</ele>
        <time>2022-08-12T09:51:34.000Z</time>
      </trkpt>
      <trkpt lat="45.09855" lon="5.53889">
        <ele>1282.1</ele>
        <time>2022-08-12T09:51:35.000Z</time>
      </trkpt>
      <trkpt lat="45.09854" lon="5.53887">
        <ele>1282.2</ele>
        <time>2022-08-12T09:51:36.000Z</time>
      </trkpt>
      <trkpt lat="45.09853" lon="5.53879">
        <ele>1282.5</ele>
        <time>2022-08-12T09:51:40.000Z</time>
      </trkpt>
      <trkpt lat="45.09852" lon="5.53877">
        <ele>1282.6</ele>
        <time>2022-08-12T09:51:41.000Z</time>
      </trkpt>
      <trkpt lat="45.09852" lon="5.53875">
        <ele>1282.7</ele>
        <time>2022-08-12T09:51:42.000Z</time>
      </trkpt>
      <trkpt lat="45.09852" lon="5.53873">
        <ele>1282.7</ele>
        <time>2022-08-12T09:51:43.000Z</time>
      </trkpt>
      <trkpt lat="45.09847" lon="5.53862">
        <ele>1283.5</ele>
        <time>2022-08-12T09:51:48.000Z</time>
      </trkpt>
      <trkpt lat="45.09842" lon="5.53854">
        <ele>1284.1</ele>
        <time>2022-08-12T09:51:52.000Z</time>
      </trkpt>
      <trkpt lat="45.0984" lon="5.53852">
        <ele>1284.2</ele>
        <time>2022-08-12T09:51:53.000Z</time>
      </trkpt>
      <trkpt lat="45.09839" lon="5.5385">
        <ele>1284.3</ele>
        <time>2022-08-12T09:51:54.000Z</time>
      </trkpt>
      <trkpt lat="45.09834" lon="5.53842">
        <ele>1284.5</ele>
        <time>2022-08-12T09:51:57.000Z</time>
      </trkpt>
      <trkpt lat="45.09821" lon="5.53824">
        <ele>1285.1</ele>
        <time>2022-08-12T09:52:05.000Z</time>
      </trkpt>
      <trkpt lat="45.0982" lon="5.53822">
        <ele>1285.2</ele>
        <time>2022-08-12T09:52:06.000Z</time>
      </trkpt>
      <trkpt lat="45.09805" lon="5.53806">
        <ele>1286.2</ele>
        <time>2022-08-12T09:52:14.000Z</time>
      </trkpt>
      <trkpt lat="45.09803" lon="5.53805">
        <ele>1286.2</ele>
        <time>2022-08-12T09:52:15.000Z</time>
      </trkpt>
      <trkpt lat="45.09801" lon="5.53803">
        <ele>1286.1</ele>
        <time>2022-08-12T09:52:16.000Z</time>
      </trkpt>
      <trkpt lat="45.09799" lon="5.53801">
        <ele>1285.9</ele>
        <time>2022-08-12T09:52:17.000Z</time>
      </trkpt>
      <trkpt lat="45.09792" lon="5.53795">
        <ele>1285.5</ele>
        <time>2022-08-12T09:52:21.000Z</time>
      </trkpt>
      <trkpt lat="45.0979" lon="5.53793">
        <ele>1285.5</ele>
        <time>2022-08-12T09:52:22.000Z</time>
      </trkpt>
      <trkpt lat="45.09773" lon="5.53785">
        <ele>1286</ele>
        <time>2022-08-12T09:52:29.000Z</time>
      </trkpt>
      <trkpt lat="45.09771" lon="5.53784">
        <ele>1286</ele>
        <time>2022-08-12T09:52:30.000Z</time>
      </trkpt>
      <trkpt lat="45.09768" lon="5.53784">
        <ele>1286.2</ele>
        <time>2022-08-12T09:52:32.000Z</time>
      </trkpt>
      <trkpt lat="45.09767" lon="5.53783">
        <ele>1286.3</ele>
        <time>2022-08-12T09:52:33.000Z</time>
      </trkpt>
      <trkpt lat="45.09766" lon="5.53783">
        <ele>1286.3</ele>
        <time>2022-08-12T09:52:34.000Z</time>
      </trkpt>
      <trkpt lat="45.09764" lon="5.53782">
        <ele>1286.2</ele>
        <time>2022-08-12T09:52:35.000Z</time>
      </trkpt>
      <trkpt lat="45.09753" lon="5.53776">
        <ele>1286.1</ele>
        <time>2022-08-12T09:52:41.000Z</time>
      </trkpt>
      <trkpt lat="45.09752" lon="5.53774">
        <ele>1286</ele>
        <time>2022-08-12T09:52:42.000Z</time>
      </trkpt>
      <trkpt lat="45.09751" lon="5.53774">
        <ele>1286</ele>
        <time>2022-08-12T09:52:43.000Z</time>
      </trkpt>
      <trkpt lat="45.09749" lon="5.53773">
        <ele>1286.1</ele>
        <time>2022-08-12T09:52:44.000Z</time>
      </trkpt>
      <trkpt lat="45.09745" lon="5.53772">
        <ele>1286.6</ele>
        <time>2022-08-12T09:52:46.000Z</time>
      </trkpt>
      <trkpt lat="45.09743" lon="5.53772">
        <ele>1286.7</ele>
        <time>2022-08-12T09:52:47.000Z</time>
      </trkpt>
      <trkpt lat="45.09738" lon="5.53771">
        <ele>1287.3</ele>
        <time>2022-08-12T09:52:50.000Z</time>
      </trkpt>
      <trkpt lat="45.09737" lon="5.53771">
        <ele>1287.4</ele>
        <time>2022-08-12T09:52:51.000Z</time>
      </trkpt>
      <trkpt lat="45.09733" lon="5.53769">
        <ele>1287.6</ele>
        <time>2022-08-12T09:52:53.000Z</time>
      </trkpt>
      <trkpt lat="45.09732" lon="5.53769">
        <ele>1287.8</ele>
        <time>2022-08-12T09:52:54.000Z</time>
      </trkpt>
      <trkpt lat="45.0973" lon="5.53769">
        <ele>1288</ele>
        <time>2022-08-12T09:52:55.000Z</time>
      </trkpt>
      <trkpt lat="45.09728" lon="5.53769">
        <ele>1288.2</ele>
        <time>2022-08-12T09:52:56.000Z</time>
      </trkpt>
      <trkpt lat="45.09726" lon="5.53768">
        <ele>1288.4</ele>
        <time>2022-08-12T09:52:58.000Z</time>
      </trkpt>
      <trkpt lat="45.09725" lon="5.53768">
        <ele>1288.4</ele>
        <time>2022-08-12T09:52:59.000Z</time>
      </trkpt>
      <trkpt lat="45.09724" lon="5.53767">
        <ele>1288.4</ele>
        <time>2022-08-12T09:53:00.000Z</time>
      </trkpt>
      <trkpt lat="45.09723" lon="5.53766">
        <ele>1288.4</ele>
        <time>2022-08-12T09:53:01.000Z</time>
      </trkpt>
      <trkpt lat="45.09722" lon="5.53766">
        <ele>1288.5</ele>
        <time>2022-08-12T09:53:02.000Z</time>
      </trkpt>
      <trkpt lat="45.09721" lon="5.53765">
        <ele>1288.5</ele>
        <time>2022-08-12T09:53:03.000Z</time>
      </trkpt>
      <trkpt lat="45.09719" lon="5.53765">
        <ele>1288.6</ele>
        <time>2022-08-12T09:53:04.000Z</time>
      </trkpt>
      <trkpt lat="45.09718" lon="5.53764">
        <ele>1288.6</ele>
        <time>2022-08-12T09:53:05.000Z</time>
      </trkpt>
      <trkpt lat="45.09717" lon="5.53763">
        <ele>1288.6</ele>
        <time>2022-08-12T09:53:06.000Z</time>
      </trkpt>
      <trkpt lat="45.09716" lon="5.53763">
        <ele>1288.5</ele>
        <time>2022-08-12T09:53:07.000Z</time>
      </trkpt>
      <trkpt lat="45.09716" lon="5.53762">
        <ele>1288.6</ele>
        <time>2022-08-12T09:53:09.000Z</time>
      </trkpt>
      <trkpt lat="45.09714" lon="5.53762">
        <ele>1288.7</ele>
        <time>2022-08-12T09:53:10.000Z</time>
      </trkpt>
      <trkpt lat="45.09712" lon="5.53761">
        <ele>1288.8</ele>
        <time>2022-08-12T09:53:11.000Z</time>
      </trkpt>
      <trkpt lat="45.09711" lon="5.53758">
        <ele>1288.3</ele>
        <time>2022-08-12T09:53:12.000Z</time>
      </trkpt>
      <trkpt lat="45.0971" lon="5.53757">
        <ele>1288.3</ele>
        <time>2022-08-12T09:53:13.000Z</time>
      </trkpt>
      <trkpt lat="45.09707" lon="5.53757">
        <ele>1288.7</ele>
        <time>2022-08-12T09:53:15.000Z</time>
      </trkpt>
      <trkpt lat="45.09706" lon="5.53757">
        <ele>1288.9</ele>
        <time>2022-08-12T09:53:16.000Z</time>
      </trkpt>
      <trkpt lat="45.09705" lon="5.53757">
        <ele>1288.9</ele>
        <time>2022-08-12T09:53:17.000Z</time>
      </trkpt>
      <trkpt lat="45.09704" lon="5.53755">
        <ele>1288.7</ele>
        <time>2022-08-12T09:53:18.000Z</time>
      </trkpt>
      <trkpt lat="45.09703" lon="5.53754">
        <ele>1288.6</ele>
        <time>2022-08-12T09:53:19.000Z</time>
      </trkpt>
      <trkpt lat="45.09703" lon="5.53753">
        <ele>1288.5</ele>
        <time>2022-08-12T09:53:20.000Z</time>
      </trkpt>
      <trkpt lat="45.09702" lon="5.53752">
        <ele>1288.4</ele>
        <time>2022-08-12T09:53:31.000Z</time>
      </trkpt>
      <trkpt lat="45.09697" lon="5.53752">
        <ele>1289</ele>
        <time>2022-08-12T09:53:52.000Z</time>
      </trkpt>
      <trkpt lat="45.09693" lon="5.53749">
        <ele>1289</ele>
        <time>2022-08-12T09:53:55.000Z</time>
      </trkpt>
      <trkpt lat="45.09688" lon="5.53746">
        <ele>1289.3</ele>
        <time>2022-08-12T09:53:59.000Z</time>
      </trkpt>
      <trkpt lat="45.09687" lon="5.53746">
        <ele>1289.4</ele>
        <time>2022-08-12T09:54:00.000Z</time>
      </trkpt>
      <trkpt lat="45.09686" lon="5.53745">
        <ele>1289.4</ele>
        <time>2022-08-12T09:54:01.000Z</time>
      </trkpt>
      <trkpt lat="45.09683" lon="5.53743">
        <ele>1289.5</ele>
        <time>2022-08-12T09:54:03.000Z</time>
      </trkpt>
      <trkpt lat="45.09682" lon="5.53741">
        <ele>1289.6</ele>
        <time>2022-08-12T09:54:05.000Z</time>
      </trkpt>
      <trkpt lat="45.0968" lon="5.5374">
        <ele>1289.6</ele>
        <time>2022-08-12T09:54:06.000Z</time>
      </trkpt>
      <trkpt lat="45.09679" lon="5.5374">
        <ele>1289.7</ele>
        <time>2022-08-12T09:54:09.000Z</time>
      </trkpt>
      <trkpt lat="45.09679" lon="5.53739">
        <ele>1289.8</ele>
        <time>2022-08-12T09:54:11.000Z</time>
      </trkpt>
      <trkpt lat="45.09677" lon="5.53737">
        <ele>1289.8</ele>
        <time>2022-08-12T09:54:13.000Z</time>
      </trkpt>
      <trkpt lat="45.09669" lon="5.53729">
        <ele>1290.3</ele>
        <time>2022-08-12T09:54:18.000Z</time>
      </trkpt>
      <trkpt lat="45.09667" lon="5.53727">
        <ele>1290.3</ele>
        <time>2022-08-12T09:54:19.000Z</time>
      </trkpt>
      <trkpt lat="45.09666" lon="5.53723">
        <ele>1290.3</ele>
        <time>2022-08-12T09:54:21.000Z</time>
      </trkpt>
      <trkpt lat="45.09664" lon="5.53721">
        <ele>1290.5</ele>
        <time>2022-08-12T09:54:22.000Z</time>
      </trkpt>
      <trkpt lat="45.09664" lon="5.53719">
        <ele>1290.7</ele>
        <time>2022-08-12T09:54:23.000Z</time>
      </trkpt>
      <trkpt lat="45.09664" lon="5.53717">
        <ele>1290.7</ele>
        <time>2022-08-12T09:54:29.000Z</time>
      </trkpt>
      <trkpt lat="45.09665" lon="5.53714">
        <ele>1290.7</ele>
        <time>2022-08-12T09:54:30.000Z</time>
      </trkpt>
      <trkpt lat="45.09666" lon="5.5371">
        <ele>1290.6</ele>
        <time>2022-08-12T09:54:31.000Z</time>
      </trkpt>
      <trkpt lat="45.09666" lon="5.53705">
        <ele>1290.7</ele>
        <time>2022-08-12T09:54:33.000Z</time>
      </trkpt>
      <trkpt lat="45.09666" lon="5.53702">
        <ele>1290.8</ele>
        <time>2022-08-12T09:54:34.000Z</time>
      </trkpt>
      <trkpt lat="45.09666" lon="5.537">
        <ele>1291</ele>
        <time>2022-08-12T09:54:35.000Z</time>
      </trkpt>
      <trkpt lat="45.09667" lon="5.53698">
        <ele>1290.9</ele>
        <time>2022-08-12T09:54:36.000Z</time>
      </trkpt>
      <trkpt lat="45.09667" lon="5.53696">
        <ele>1290.8</ele>
        <time>2022-08-12T09:54:37.000Z</time>
      </trkpt>
      <trkpt lat="45.09668" lon="5.53693">
        <ele>1290.9</ele>
        <time>2022-08-12T09:54:38.000Z</time>
      </trkpt>
      <trkpt lat="45.09668" lon="5.53687">
        <ele>1291.6</ele>
        <time>2022-08-12T09:54:40.000Z</time>
      </trkpt>
      <trkpt lat="45.09669" lon="5.53686">
        <ele>1291.8</ele>
        <time>2022-08-12T09:54:42.000Z</time>
      </trkpt>
      <trkpt lat="45.09669" lon="5.53685">
        <ele>1291.9</ele>
        <time>2022-08-12T09:54:43.000Z</time>
      </trkpt>
      <trkpt lat="45.0967" lon="5.53683">
        <ele>1291.9</ele>
        <time>2022-08-12T09:54:44.000Z</time>
      </trkpt>
      <trkpt lat="45.09671" lon="5.5368">
        <ele>1292.2</ele>
        <time>2022-08-12T09:54:45.000Z</time>
      </trkpt>
      <trkpt lat="45.09671" lon="5.53674">
        <ele>1293.2</ele>
        <time>2022-08-12T09:54:47.000Z</time>
      </trkpt>
      <trkpt lat="45.09671" lon="5.53671">
        <ele>1293.5</ele>
        <time>2022-08-12T09:54:48.000Z</time>
      </trkpt>
      <trkpt lat="45.09671" lon="5.53669">
        <ele>1293.8</ele>
        <time>2022-08-12T09:54:49.000Z</time>
      </trkpt>
      <trkpt lat="45.09671" lon="5.53667">
        <ele>1294.1</ele>
        <time>2022-08-12T09:54:50.000Z</time>
      </trkpt>
      <trkpt lat="45.09671" lon="5.53666">
        <ele>1294.2</ele>
        <time>2022-08-12T09:54:51.000Z</time>
      </trkpt>
      <trkpt lat="45.09671" lon="5.53665">
        <ele>1294.3</ele>
        <time>2022-08-12T09:54:52.000Z</time>
      </trkpt>
      <trkpt lat="45.09672" lon="5.53663">
        <ele>1294.3</ele>
        <time>2022-08-12T09:54:53.000Z</time>
      </trkpt>
      <trkpt lat="45.09672" lon="5.53661">
        <ele>1294.4</ele>
        <time>2022-08-12T09:54:54.000Z</time>
      </trkpt>
      <trkpt lat="45.09673" lon="5.53659">
        <ele>1294.6</ele>
        <time>2022-08-12T09:54:55.000Z</time>
      </trkpt>
      <trkpt lat="45.09673" lon="5.53657">
        <ele>1294.7</ele>
        <time>2022-08-12T09:54:56.000Z</time>
      </trkpt>
      <trkpt lat="45.09677" lon="5.53645">
        <ele>1295.4</ele>
        <time>2022-08-12T09:54:59.000Z</time>
      </trkpt>
      <trkpt lat="45.09678" lon="5.53639">
        <ele>1295.9</ele>
        <time>2022-08-12T09:55:01.000Z</time>
      </trkpt>
      <trkpt lat="45.09679" lon="5.53636">
        <ele>1295.9</ele>
        <time>2022-08-12T09:55:02.000Z</time>
      </trkpt>
      <trkpt lat="45.09683" lon="5.53628">
        <ele>1295.9</ele>
        <time>2022-08-12T09:55:05.000Z</time>
      </trkpt>
      <trkpt lat="45.09683" lon="5.53622">
        <ele>1296.2</ele>
        <time>2022-08-12T09:55:07.000Z</time>
      </trkpt>
      <trkpt lat="45.09685" lon="5.53616">
        <ele>1296.4</ele>
        <time>2022-08-12T09:55:09.000Z</time>
      </trkpt>
      <trkpt lat="45.09684" lon="5.53611">
        <ele>1296.9</ele>
        <time>2022-08-12T09:55:11.000Z</time>
      </trkpt>
      <trkpt lat="45.09683" lon="5.53608">
        <ele>1297</ele>
        <time>2022-08-12T09:55:12.000Z</time>
      </trkpt>
      <trkpt lat="45.09684" lon="5.53606">
        <ele>1297</ele>
        <time>2022-08-12T09:55:13.000Z</time>
      </trkpt>
      <trkpt lat="45.09685" lon="5.53601">
        <ele>1297</ele>
        <time>2022-08-12T09:55:15.000Z</time>
      </trkpt>
      <trkpt lat="45.09686" lon="5.53599">
        <ele>1296.8</ele>
        <time>2022-08-12T09:55:16.000Z</time>
      </trkpt>
      <trkpt lat="45.09687" lon="5.53597">
        <ele>1296.7</ele>
        <time>2022-08-12T09:55:17.000Z</time>
      </trkpt>
      <trkpt lat="45.09686" lon="5.53592">
        <ele>1297.1</ele>
        <time>2022-08-12T09:55:19.000Z</time>
      </trkpt>
      <trkpt lat="45.09685" lon="5.5359">
        <ele>1297.2</ele>
        <time>2022-08-12T09:55:20.000Z</time>
      </trkpt>
      <trkpt lat="45.09685" lon="5.53588">
        <ele>1297.3</ele>
        <time>2022-08-12T09:55:21.000Z</time>
      </trkpt>
      <trkpt lat="45.09684" lon="5.53585">
        <ele>1297.4</ele>
        <time>2022-08-12T09:55:22.000Z</time>
      </trkpt>
      <trkpt lat="45.09681" lon="5.53579">
        <ele>1297.7</ele>
        <time>2022-08-12T09:55:24.000Z</time>
      </trkpt>
      <trkpt lat="45.09678" lon="5.53578">
        <ele>1297.9</ele>
        <time>2022-08-12T09:55:25.000Z</time>
      </trkpt>
      <trkpt lat="45.09676" lon="5.53576">
        <ele>1298</ele>
        <time>2022-08-12T09:55:26.000Z</time>
      </trkpt>
      <trkpt lat="45.09675" lon="5.53574">
        <ele>1298</ele>
        <time>2022-08-12T09:55:27.000Z</time>
      </trkpt>
      <trkpt lat="45.09674" lon="5.53572">
        <ele>1298</ele>
        <time>2022-08-12T09:55:28.000Z</time>
      </trkpt>
      <trkpt lat="45.09673" lon="5.53571">
        <ele>1298</ele>
        <time>2022-08-12T09:55:29.000Z</time>
      </trkpt>
      <trkpt lat="45.09673" lon="5.53569">
        <ele>1297.8</ele>
        <time>2022-08-12T09:55:30.000Z</time>
      </trkpt>
      <trkpt lat="45.09672" lon="5.53567">
        <ele>1297.8</ele>
        <time>2022-08-12T09:55:31.000Z</time>
      </trkpt>
      <trkpt lat="45.09669" lon="5.53564">
        <ele>1297.7</ele>
        <time>2022-08-12T09:55:33.000Z</time>
      </trkpt>
      <trkpt lat="45.09667" lon="5.53561">
        <ele>1297.6</ele>
        <time>2022-08-12T09:55:35.000Z</time>
      </trkpt>
      <trkpt lat="45.09666" lon="5.5356">
        <ele>1297.6</ele>
        <time>2022-08-12T09:55:36.000Z</time>
      </trkpt>
      <trkpt lat="45.09663" lon="5.53557">
        <ele>1297.5</ele>
        <time>2022-08-12T09:55:38.000Z</time>
      </trkpt>
      <trkpt lat="45.09661" lon="5.53556">
        <ele>1297.5</ele>
        <time>2022-08-12T09:55:39.000Z</time>
      </trkpt>
      <trkpt lat="45.0966" lon="5.53555">
        <ele>1297.5</ele>
        <time>2022-08-12T09:55:40.000Z</time>
      </trkpt>
      <trkpt lat="45.09659" lon="5.53554">
        <ele>1297.3</ele>
        <time>2022-08-12T09:55:41.000Z</time>
      </trkpt>
      <trkpt lat="45.09658" lon="5.53553">
        <ele>1297.3</ele>
        <time>2022-08-12T09:55:42.000Z</time>
      </trkpt>
      <trkpt lat="45.09656" lon="5.53552">
        <ele>1297.3</ele>
        <time>2022-08-12T09:55:43.000Z</time>
      </trkpt>
      <trkpt lat="45.09655" lon="5.53551">
        <ele>1297.2</ele>
        <time>2022-08-12T09:55:44.000Z</time>
      </trkpt>
      <trkpt lat="45.09653" lon="5.53551">
        <ele>1297.3</ele>
        <time>2022-08-12T09:55:45.000Z</time>
      </trkpt>
      <trkpt lat="45.09652" lon="5.5355">
        <ele>1297.3</ele>
        <time>2022-08-12T09:55:46.000Z</time>
      </trkpt>
      <trkpt lat="45.09651" lon="5.5355">
        <ele>1297.4</ele>
        <time>2022-08-12T09:55:47.000Z</time>
      </trkpt>
      <trkpt lat="45.09649" lon="5.53549">
        <ele>1297.4</ele>
        <time>2022-08-12T09:55:48.000Z</time>
      </trkpt>
      <trkpt lat="45.09647" lon="5.53549">
        <ele>1297.4</ele>
        <time>2022-08-12T09:55:49.000Z</time>
      </trkpt>
      <trkpt lat="45.09646" lon="5.53548">
        <ele>1297.5</ele>
        <time>2022-08-12T09:55:50.000Z</time>
      </trkpt>
      <trkpt lat="45.09645" lon="5.53548">
        <ele>1297.5</ele>
        <time>2022-08-12T09:55:51.000Z</time>
      </trkpt>
      <trkpt lat="45.09643" lon="5.53548">
        <ele>1297.6</ele>
        <time>2022-08-12T09:55:52.000Z</time>
      </trkpt>
      <trkpt lat="45.0964" lon="5.53546">
        <ele>1297.6</ele>
        <time>2022-08-12T09:55:54.000Z</time>
      </trkpt>
      <trkpt lat="45.09638" lon="5.53546">
        <ele>1297.7</ele>
        <time>2022-08-12T09:55:55.000Z</time>
      </trkpt>
      <trkpt lat="45.09637" lon="5.53546">
        <ele>1297.7</ele>
        <time>2022-08-12T09:55:56.000Z</time>
      </trkpt>
      <trkpt lat="45.09636" lon="5.53546">
        <ele>1297.8</ele>
        <time>2022-08-12T09:55:57.000Z</time>
      </trkpt>
      <trkpt lat="45.09635" lon="5.53546">
        <ele>1297.9</ele>
        <time>2022-08-12T09:55:58.000Z</time>
      </trkpt>
      <trkpt lat="45.09634" lon="5.53546">
        <ele>1298</ele>
        <time>2022-08-12T09:55:59.000Z</time>
      </trkpt>
      <trkpt lat="45.09632" lon="5.53546">
        <ele>1298.1</ele>
        <time>2022-08-12T09:56:00.000Z</time>
      </trkpt>
      <trkpt lat="45.09631" lon="5.53547">
        <ele>1298.3</ele>
        <time>2022-08-12T09:56:01.000Z</time>
      </trkpt>
      <trkpt lat="45.0963" lon="5.53547">
        <ele>1298.4</ele>
        <time>2022-08-12T09:56:02.000Z</time>
      </trkpt>
      <trkpt lat="45.09629" lon="5.53547">
        <ele>1298.5</ele>
        <time>2022-08-12T09:56:03.000Z</time>
      </trkpt>
      <trkpt lat="45.09628" lon="5.53548">
        <ele>1298.7</ele>
        <time>2022-08-12T09:56:04.000Z</time>
      </trkpt>
      <trkpt lat="45.09626" lon="5.53548">
        <ele>1298.8</ele>
        <time>2022-08-12T09:56:05.000Z</time>
      </trkpt>
      <trkpt lat="45.09626" lon="5.53549">
        <ele>1299</ele>
        <time>2022-08-12T09:56:07.000Z</time>
      </trkpt>
      <trkpt lat="45.09625" lon="5.53549">
        <ele>1299</ele>
        <time>2022-08-12T09:56:08.000Z</time>
      </trkpt>
      <trkpt lat="45.09623" lon="5.53549">
        <ele>1299.2</ele>
        <time>2022-08-12T09:56:09.000Z</time>
      </trkpt>
      <trkpt lat="45.09621" lon="5.53549">
        <ele>1299.4</ele>
        <time>2022-08-12T09:56:10.000Z</time>
      </trkpt>
      <trkpt lat="45.09619" lon="5.5355">
        <ele>1299.7</ele>
        <time>2022-08-12T09:56:11.000Z</time>
      </trkpt>
      <trkpt lat="45.09618" lon="5.53551">
        <ele>1299.8</ele>
        <time>2022-08-12T09:56:12.000Z</time>
      </trkpt>
      <trkpt lat="45.09616" lon="5.53552">
        <ele>1300.1</ele>
        <time>2022-08-12T09:56:13.000Z</time>
      </trkpt>
      <trkpt lat="45.09614" lon="5.53552">
        <ele>1300.3</ele>
        <time>2022-08-12T09:56:14.000Z</time>
      </trkpt>
      <trkpt lat="45.09612" lon="5.53553">
        <ele>1300.5</ele>
        <time>2022-08-12T09:56:15.000Z</time>
      </trkpt>
      <trkpt lat="45.09611" lon="5.53553">
        <ele>1300.6</ele>
        <time>2022-08-12T09:56:16.000Z</time>
      </trkpt>
      <trkpt lat="45.0961" lon="5.53553">
        <ele>1300.8</ele>
        <time>2022-08-12T09:56:18.000Z</time>
      </trkpt>
      <trkpt lat="45.09609" lon="5.53553">
        <ele>1300.8</ele>
        <time>2022-08-12T09:56:19.000Z</time>
      </trkpt>
      <trkpt lat="45.09608" lon="5.53554">
        <ele>1301</ele>
        <time>2022-08-12T09:56:20.000Z</time>
      </trkpt>
      <trkpt lat="45.09607" lon="5.53554">
        <ele>1301</ele>
        <time>2022-08-12T09:56:21.000Z</time>
      </trkpt>
      <trkpt lat="45.09605" lon="5.53556">
        <ele>1301.5</ele>
        <time>2022-08-12T09:56:58.000Z</time>
      </trkpt>
      <trkpt lat="45.09601" lon="5.53558">
        <ele>1302</ele>
        <time>2022-08-12T09:57:00.000Z</time>
      </trkpt>
      <trkpt lat="45.096" lon="5.53559">
        <ele>1302.2</ele>
        <time>2022-08-12T09:57:01.000Z</time>
      </trkpt>
      <trkpt lat="45.09597" lon="5.53561">
        <ele>1302.6</ele>
        <time>2022-08-12T09:57:03.000Z</time>
      </trkpt>
      <trkpt lat="45.09597" lon="5.53562">
        <ele>1302.7</ele>
        <time>2022-08-12T09:57:04.000Z</time>
      </trkpt>
      <trkpt lat="45.09595" lon="5.53563">
        <ele>1302.9</ele>
        <time>2022-08-12T09:57:05.000Z</time>
      </trkpt>
      <trkpt lat="45.09594" lon="5.53564">
        <ele>1303.1</ele>
        <time>2022-08-12T09:57:07.000Z</time>
      </trkpt>
      <trkpt lat="45.09593" lon="5.53565">
        <ele>1303.3</ele>
        <time>2022-08-12T09:57:08.000Z</time>
      </trkpt>
      <trkpt lat="45.09592" lon="5.53566">
        <ele>1303.5</ele>
        <time>2022-08-12T09:57:09.000Z</time>
      </trkpt>
      <trkpt lat="45.09591" lon="5.53568">
        <ele>1303.7</ele>
        <time>2022-08-12T09:57:10.000Z</time>
      </trkpt>
      <trkpt lat="45.09591" lon="5.5357">
        <ele>1304</ele>
        <time>2022-08-12T09:57:11.000Z</time>
      </trkpt>
      <trkpt lat="45.0959" lon="5.53571">
        <ele>1304.1</ele>
        <time>2022-08-12T09:57:12.000Z</time>
      </trkpt>
      <trkpt lat="45.0959" lon="5.53572">
        <ele>1304.3</ele>
        <time>2022-08-12T09:57:13.000Z</time>
      </trkpt>
      <trkpt lat="45.09589" lon="5.53573">
        <ele>1304.5</ele>
        <time>2022-08-12T09:57:14.000Z</time>
      </trkpt>
      <trkpt lat="45.09588" lon="5.53574">
        <ele>1304.7</ele>
        <time>2022-08-12T09:57:15.000Z</time>
      </trkpt>
      <trkpt lat="45.09586" lon="5.53575">
        <ele>1304.9</ele>
        <time>2022-08-12T09:57:16.000Z</time>
      </trkpt>
      <trkpt lat="45.09585" lon="5.53576">
        <ele>1305</ele>
        <time>2022-08-12T09:57:17.000Z</time>
      </trkpt>
      <trkpt lat="45.09584" lon="5.53576">
        <ele>1305.2</ele>
        <time>2022-08-12T09:57:18.000Z</time>
      </trkpt>
      <trkpt lat="45.09583" lon="5.53578">
        <ele>1305.4</ele>
        <time>2022-08-12T09:57:19.000Z</time>
      </trkpt>
      <trkpt lat="45.09583" lon="5.53579">
        <ele>1305.5</ele>
        <time>2022-08-12T09:57:20.000Z</time>
      </trkpt>
      <trkpt lat="45.09581" lon="5.53579">
        <ele>1305.6</ele>
        <time>2022-08-12T09:57:21.000Z</time>
      </trkpt>
      <trkpt lat="45.0958" lon="5.53579">
        <ele>1305.7</ele>
        <time>2022-08-12T09:57:22.000Z</time>
      </trkpt>
      <trkpt lat="45.09578" lon="5.53579">
        <ele>1305.7</ele>
        <time>2022-08-12T09:57:23.000Z</time>
      </trkpt>
      <trkpt lat="45.09577" lon="5.53581">
        <ele>1305.9</ele>
        <time>2022-08-12T09:57:24.000Z</time>
      </trkpt>
      <trkpt lat="45.09576" lon="5.53582">
        <ele>1306.1</ele>
        <time>2022-08-12T09:57:25.000Z</time>
      </trkpt>
      <trkpt lat="45.09575" lon="5.53583">
        <ele>1306.3</ele>
        <time>2022-08-12T09:57:26.000Z</time>
      </trkpt>
      <trkpt lat="45.09575" lon="5.53585">
        <ele>1306.4</ele>
        <time>2022-08-12T09:57:27.000Z</time>
      </trkpt>
      <trkpt lat="45.09574" lon="5.53586">
        <ele>1306.6</ele>
        <time>2022-08-12T09:57:28.000Z</time>
      </trkpt>
      <trkpt lat="45.09573" lon="5.53586">
        <ele>1306.6</ele>
        <time>2022-08-12T09:57:29.000Z</time>
      </trkpt>
      <trkpt lat="45.09572" lon="5.53587">
        <ele>1306.7</ele>
        <time>2022-08-12T09:57:30.000Z</time>
      </trkpt>
      <trkpt lat="45.09572" lon="5.53588">
        <ele>1306.8</ele>
        <time>2022-08-12T09:57:31.000Z</time>
      </trkpt>
      <trkpt lat="45.09571" lon="5.53589">
        <ele>1306.9</ele>
        <time>2022-08-12T09:57:32.000Z</time>
      </trkpt>
      <trkpt lat="45.0957" lon="5.53589">
        <ele>1307</ele>
        <time>2022-08-12T09:57:33.000Z</time>
      </trkpt>
      <trkpt lat="45.09569" lon="5.5359">
        <ele>1307.2</ele>
        <time>2022-08-12T09:57:34.000Z</time>
      </trkpt>
      <trkpt lat="45.09568" lon="5.53591">
        <ele>1307.3</ele>
        <time>2022-08-12T09:57:35.000Z</time>
      </trkpt>
      <trkpt lat="45.09567" lon="5.53592">
        <ele>1307.4</ele>
        <time>2022-08-12T09:57:36.000Z</time>
      </trkpt>
      <trkpt lat="45.09567" lon="5.53594">
        <ele>1307.6</ele>
        <time>2022-08-12T09:57:37.000Z</time>
      </trkpt>
      <trkpt lat="45.09566" lon="5.53595">
        <ele>1307.7</ele>
        <time>2022-08-12T09:57:38.000Z</time>
      </trkpt>
      <trkpt lat="45.09566" lon="5.53596">
        <ele>1307.9</ele>
        <time>2022-08-12T09:57:39.000Z</time>
      </trkpt>
      <trkpt lat="45.09565" lon="5.53598">
        <ele>1308</ele>
        <time>2022-08-12T09:57:40.000Z</time>
      </trkpt>
      <trkpt lat="45.09563" lon="5.53599">
        <ele>1308.2</ele>
        <time>2022-08-12T09:57:41.000Z</time>
      </trkpt>
      <trkpt lat="45.09563" lon="5.536">
        <ele>1308.4</ele>
        <time>2022-08-12T09:57:42.000Z</time>
      </trkpt>
      <trkpt lat="45.09562" lon="5.536">
        <ele>1308.4</ele>
        <time>2022-08-12T09:57:43.000Z</time>
      </trkpt>
      <trkpt lat="45.09562" lon="5.53601">
        <ele>1308.5</ele>
        <time>2022-08-12T09:57:44.000Z</time>
      </trkpt>
      <trkpt lat="45.09561" lon="5.53602">
        <ele>1308.7</ele>
        <time>2022-08-12T09:57:45.000Z</time>
      </trkpt>
      <trkpt lat="45.0956" lon="5.53603">
        <ele>1308.9</ele>
        <time>2022-08-12T09:57:46.000Z</time>
      </trkpt>
      <trkpt lat="45.0956" lon="5.53605">
        <ele>1309.1</ele>
        <time>2022-08-12T09:57:47.000Z</time>
      </trkpt>
      <trkpt lat="45.09559" lon="5.53606">
        <ele>1309.2</ele>
        <time>2022-08-12T09:57:48.000Z</time>
      </trkpt>
      <trkpt lat="45.09558" lon="5.53607">
        <ele>1309.4</ele>
        <time>2022-08-12T09:57:49.000Z</time>
      </trkpt>
      <trkpt lat="45.09557" lon="5.53608">
        <ele>1309.6</ele>
        <time>2022-08-12T09:57:50.000Z</time>
      </trkpt>
      <trkpt lat="45.09556" lon="5.53609">
        <ele>1309.7</ele>
        <time>2022-08-12T09:57:51.000Z</time>
      </trkpt>
      <trkpt lat="45.09555" lon="5.5361">
        <ele>1309.9</ele>
        <time>2022-08-12T09:57:52.000Z</time>
      </trkpt>
      <trkpt lat="45.09554" lon="5.53611">
        <ele>1310.1</ele>
        <time>2022-08-12T09:57:53.000Z</time>
      </trkpt>
      <trkpt lat="45.09554" lon="5.53613">
        <ele>1310.2</ele>
        <time>2022-08-12T09:57:54.000Z</time>
      </trkpt>
      <trkpt lat="45.09553" lon="5.53614">
        <ele>1310.3</ele>
        <time>2022-08-12T09:57:55.000Z</time>
      </trkpt>
      <trkpt lat="45.09552" lon="5.53615">
        <ele>1310.5</ele>
        <time>2022-08-12T09:57:56.000Z</time>
      </trkpt>
      <trkpt lat="45.09552" lon="5.53617">
        <ele>1310.6</ele>
        <time>2022-08-12T09:57:57.000Z</time>
      </trkpt>
      <trkpt lat="45.09551" lon="5.53618">
        <ele>1310.7</ele>
        <time>2022-08-12T09:57:58.000Z</time>
      </trkpt>
      <trkpt lat="45.0955" lon="5.53619">
        <ele>1310.9</ele>
        <time>2022-08-12T09:57:59.000Z</time>
      </trkpt>
      <trkpt lat="45.09549" lon="5.5362">
        <ele>1311.1</ele>
        <time>2022-08-12T09:58:00.000Z</time>
      </trkpt>
      <trkpt lat="45.09548" lon="5.53622">
        <ele>1311.3</ele>
        <time>2022-08-12T09:58:01.000Z</time>
      </trkpt>
      <trkpt lat="45.09547" lon="5.53623">
        <ele>1311.4</ele>
        <time>2022-08-12T09:58:02.000Z</time>
      </trkpt>
      <trkpt lat="45.09547" lon="5.53624">
        <ele>1311.5</ele>
        <time>2022-08-12T09:58:04.000Z</time>
      </trkpt>
      <trkpt lat="45.09546" lon="5.53625">
        <ele>1311.7</ele>
        <time>2022-08-12T09:58:05.000Z</time>
      </trkpt>
      <trkpt lat="45.09545" lon="5.53625">
        <ele>1311.8</ele>
        <time>2022-08-12T09:58:06.000Z</time>
      </trkpt>
      <trkpt lat="45.09544" lon="5.53626">
        <ele>1312</ele>
        <time>2022-08-12T09:58:07.000Z</time>
      </trkpt>
      <trkpt lat="45.09542" lon="5.53628">
        <ele>1312.2</ele>
        <time>2022-08-12T09:58:08.000Z</time>
      </trkpt>
      <trkpt lat="45.0954" lon="5.53629">
        <ele>1312.5</ele>
        <time>2022-08-12T09:58:09.000Z</time>
      </trkpt>
      <trkpt lat="45.09538" lon="5.53629">
        <ele>1312.8</ele>
        <time>2022-08-12T09:58:10.000Z</time>
      </trkpt>
      <trkpt lat="45.09537" lon="5.5363">
        <ele>1313</ele>
        <time>2022-08-12T09:58:11.000Z</time>
      </trkpt>
      <trkpt lat="45.09535" lon="5.53631">
        <ele>1313.2</ele>
        <time>2022-08-12T09:58:12.000Z</time>
      </trkpt>
      <trkpt lat="45.09534" lon="5.53632">
        <ele>1313.4</ele>
        <time>2022-08-12T09:58:14.000Z</time>
      </trkpt>
      <trkpt lat="45.09533" lon="5.53634">
        <ele>1313.7</ele>
        <time>2022-08-12T09:58:15.000Z</time>
      </trkpt>
      <trkpt lat="45.09532" lon="5.53634">
        <ele>1313.9</ele>
        <time>2022-08-12T09:58:16.000Z</time>
      </trkpt>
      <trkpt lat="45.09531" lon="5.53635">
        <ele>1314.2</ele>
        <time>2022-08-12T09:58:17.000Z</time>
      </trkpt>
      <trkpt lat="45.0953" lon="5.53636">
        <ele>1314.4</ele>
        <time>2022-08-12T09:58:18.000Z</time>
      </trkpt>
      <trkpt lat="45.09529" lon="5.53637">
        <ele>1314.5</ele>
        <time>2022-08-12T09:58:19.000Z</time>
      </trkpt>
      <trkpt lat="45.09528" lon="5.53637">
        <ele>1314.8</ele>
        <time>2022-08-12T09:58:20.000Z</time>
      </trkpt>
      <trkpt lat="45.09526" lon="5.53638">
        <ele>1314.9</ele>
        <time>2022-08-12T09:58:21.000Z</time>
      </trkpt>
      <trkpt lat="45.09525" lon="5.53638">
        <ele>1314.9</ele>
        <time>2022-08-12T09:58:22.000Z</time>
      </trkpt>
      <trkpt lat="45.09524" lon="5.53639">
        <ele>1315</ele>
        <time>2022-08-12T09:58:23.000Z</time>
      </trkpt>
      <trkpt lat="45.09523" lon="5.53639">
        <ele>1315</ele>
        <time>2022-08-12T09:58:24.000Z</time>
      </trkpt>
      <trkpt lat="45.09521" lon="5.53639">
        <ele>1315</ele>
        <time>2022-08-12T09:58:25.000Z</time>
      </trkpt>
      <trkpt lat="45.0952" lon="5.53639">
        <ele>1315</ele>
        <time>2022-08-12T09:58:26.000Z</time>
      </trkpt>
      <trkpt lat="45.09518" lon="5.5364">
        <ele>1315.1</ele>
        <time>2022-08-12T09:58:27.000Z</time>
      </trkpt>
      <trkpt lat="45.09517" lon="5.5364">
        <ele>1315.2</ele>
        <time>2022-08-12T09:58:28.000Z</time>
      </trkpt>
      <trkpt lat="45.09515" lon="5.53642">
        <ele>1315.3</ele>
        <time>2022-08-12T09:58:29.000Z</time>
      </trkpt>
      <trkpt lat="45.09515" lon="5.53644">
        <ele>1315.5</ele>
        <time>2022-08-12T09:58:30.000Z</time>
      </trkpt>
      <trkpt lat="45.09514" lon="5.53645">
        <ele>1315.7</ele>
        <time>2022-08-12T09:58:31.000Z</time>
      </trkpt>
      <trkpt lat="45.09513" lon="5.53645">
        <ele>1315.7</ele>
        <time>2022-08-12T09:58:32.000Z</time>
      </trkpt>
      <trkpt lat="45.09511" lon="5.53646">
        <ele>1315.8</ele>
        <time>2022-08-12T09:58:33.000Z</time>
      </trkpt>
      <trkpt lat="45.09511" lon="5.53648">
        <ele>1316</ele>
        <time>2022-08-12T09:58:34.000Z</time>
      </trkpt>
      <trkpt lat="45.09509" lon="5.53649">
        <ele>1316.2</ele>
        <time>2022-08-12T09:58:35.000Z</time>
      </trkpt>
      <trkpt lat="45.09509" lon="5.5365">
        <ele>1316.3</ele>
        <time>2022-08-12T09:58:36.000Z</time>
      </trkpt>
      <trkpt lat="45.09508" lon="5.53651">
        <ele>1316.5</ele>
        <time>2022-08-12T09:58:37.000Z</time>
      </trkpt>
      <trkpt lat="45.09508" lon="5.53653">
        <ele>1316.8</ele>
        <time>2022-08-12T09:58:38.000Z</time>
      </trkpt>
      <trkpt lat="45.09508" lon="5.53655">
        <ele>1317</ele>
        <time>2022-08-12T09:58:39.000Z</time>
      </trkpt>
      <trkpt lat="45.09507" lon="5.53657">
        <ele>1317.3</ele>
        <time>2022-08-12T09:58:40.000Z</time>
      </trkpt>
      <trkpt lat="45.09506" lon="5.53659">
        <ele>1317.5</ele>
        <time>2022-08-12T09:58:41.000Z</time>
      </trkpt>
      <trkpt lat="45.09507" lon="5.5366">
        <ele>1317.7</ele>
        <time>2022-08-12T09:58:42.000Z</time>
      </trkpt>
      <trkpt lat="45.09507" lon="5.53661">
        <ele>1317.8</ele>
        <time>2022-08-12T09:58:43.000Z</time>
      </trkpt>
      <trkpt lat="45.09506" lon="5.53663">
        <ele>1318</ele>
        <time>2022-08-12T09:58:44.000Z</time>
      </trkpt>
      <trkpt lat="45.09506" lon="5.53664">
        <ele>1318.2</ele>
        <time>2022-08-12T09:58:45.000Z</time>
      </trkpt>
      <trkpt lat="45.09506" lon="5.53665">
        <ele>1318.4</ele>
        <time>2022-08-12T09:58:47.000Z</time>
      </trkpt>
      <trkpt lat="45.09506" lon="5.53667">
        <ele>1318.6</ele>
        <time>2022-08-12T09:58:48.000Z</time>
      </trkpt>
      <trkpt lat="45.09506" lon="5.53669">
        <ele>1318.8</ele>
        <time>2022-08-12T09:58:49.000Z</time>
      </trkpt>
      <trkpt lat="45.09506" lon="5.53671">
        <ele>1319</ele>
        <time>2022-08-12T09:58:50.000Z</time>
      </trkpt>
      <trkpt lat="45.09505" lon="5.53672">
        <ele>1319.2</ele>
        <time>2022-08-12T09:58:51.000Z</time>
      </trkpt>
      <trkpt lat="45.09505" lon="5.53675">
        <ele>1319.5</ele>
        <time>2022-08-12T09:58:52.000Z</time>
      </trkpt>
      <trkpt lat="45.09505" lon="5.53676">
        <ele>1319.5</ele>
        <time>2022-08-12T09:58:53.000Z</time>
      </trkpt>
      <trkpt lat="45.09505" lon="5.53678">
        <ele>1319.7</ele>
        <time>2022-08-12T09:58:54.000Z</time>
      </trkpt>
      <trkpt lat="45.09505" lon="5.5368">
        <ele>1319.9</ele>
        <time>2022-08-12T09:58:55.000Z</time>
      </trkpt>
      <trkpt lat="45.09505" lon="5.53682">
        <ele>1320.1</ele>
        <time>2022-08-12T09:58:56.000Z</time>
      </trkpt>
      <trkpt lat="45.09504" lon="5.53683">
        <ele>1320.3</ele>
        <time>2022-08-12T09:58:57.000Z</time>
      </trkpt>
      <trkpt lat="45.09503" lon="5.53685">
        <ele>1320.6</ele>
        <time>2022-08-12T09:58:58.000Z</time>
      </trkpt>
      <trkpt lat="45.09502" lon="5.53686">
        <ele>1320.8</ele>
        <time>2022-08-12T09:58:59.000Z</time>
      </trkpt>
      <trkpt lat="45.09502" lon="5.53688">
        <ele>1321</ele>
        <time>2022-08-12T09:59:00.000Z</time>
      </trkpt>
      <trkpt lat="45.09502" lon="5.5369">
        <ele>1321.3</ele>
        <time>2022-08-12T09:59:01.000Z</time>
      </trkpt>
      <trkpt lat="45.09502" lon="5.53692">
        <ele>1321.5</ele>
        <time>2022-08-12T09:59:02.000Z</time>
      </trkpt>
      <trkpt lat="45.09502" lon="5.53695">
        <ele>1321.7</ele>
        <time>2022-08-12T09:59:03.000Z</time>
      </trkpt>
      <trkpt lat="45.09501" lon="5.53697">
        <ele>1322</ele>
        <time>2022-08-12T09:59:04.000Z</time>
      </trkpt>
      <trkpt lat="45.09501" lon="5.53698">
        <ele>1322.2</ele>
        <time>2022-08-12T09:59:05.000Z</time>
      </trkpt>
      <trkpt lat="45.095" lon="5.537">
        <ele>1322.4</ele>
        <time>2022-08-12T09:59:06.000Z</time>
      </trkpt>
      <trkpt lat="45.09501" lon="5.53702">
        <ele>1322.5</ele>
        <time>2022-08-12T09:59:07.000Z</time>
      </trkpt>
      <trkpt lat="45.09501" lon="5.53705">
        <ele>1322.6</ele>
        <time>2022-08-12T09:59:08.000Z</time>
      </trkpt>
      <trkpt lat="45.09501" lon="5.53706">
        <ele>1322.7</ele>
        <time>2022-08-12T09:59:09.000Z</time>
      </trkpt>
      <trkpt lat="45.09501" lon="5.53708">
        <ele>1322.8</ele>
        <time>2022-08-12T09:59:10.000Z</time>
      </trkpt>
      <trkpt lat="45.09502" lon="5.53711">
        <ele>1322.9</ele>
        <time>2022-08-12T09:59:11.000Z</time>
      </trkpt>
      <trkpt lat="45.09502" lon="5.53714">
        <ele>1323.1</ele>
        <time>2022-08-12T09:59:12.000Z</time>
      </trkpt>
      <trkpt lat="45.09502" lon="5.53717">
        <ele>1323.3</ele>
        <time>2022-08-12T09:59:13.000Z</time>
      </trkpt>
      <trkpt lat="45.09502" lon="5.53718">
        <ele>1323.4</ele>
        <time>2022-08-12T09:59:14.000Z</time>
      </trkpt>
      <trkpt lat="45.09501" lon="5.5372">
        <ele>1323.7</ele>
        <time>2022-08-12T09:59:15.000Z</time>
      </trkpt>
      <trkpt lat="45.09501" lon="5.53723">
        <ele>1323.9</ele>
        <time>2022-08-12T09:59:16.000Z</time>
      </trkpt>
      <trkpt lat="45.095" lon="5.53724">
        <ele>1324.1</ele>
        <time>2022-08-12T09:59:17.000Z</time>
      </trkpt>
      <trkpt lat="45.095" lon="5.53727">
        <ele>1324.4</ele>
        <time>2022-08-12T09:59:18.000Z</time>
      </trkpt>
      <trkpt lat="45.09499" lon="5.53732">
        <ele>1324.8</ele>
        <time>2022-08-12T09:59:20.000Z</time>
      </trkpt>
      <trkpt lat="45.09498" lon="5.53735">
        <ele>1325.1</ele>
        <time>2022-08-12T09:59:21.000Z</time>
      </trkpt>
      <trkpt lat="45.09496" lon="5.53745">
        <ele>1326.1</ele>
        <time>2022-08-12T09:59:25.000Z</time>
      </trkpt>
      <trkpt lat="45.09495" lon="5.53746">
        <ele>1326.3</ele>
        <time>2022-08-12T09:59:26.000Z</time>
      </trkpt>
      <trkpt lat="45.09494" lon="5.53747">
        <ele>1326.4</ele>
        <time>2022-08-12T09:59:27.000Z</time>
      </trkpt>
      <trkpt lat="45.09493" lon="5.53749">
        <ele>1326.6</ele>
        <time>2022-08-12T09:59:28.000Z</time>
      </trkpt>
      <trkpt lat="45.09492" lon="5.5375">
        <ele>1326.8</ele>
        <time>2022-08-12T09:59:29.000Z</time>
      </trkpt>
      <trkpt lat="45.09491" lon="5.53751">
        <ele>1327.1</ele>
        <time>2022-08-12T09:59:30.000Z</time>
      </trkpt>
      <trkpt lat="45.0949" lon="5.53753">
        <ele>1327.3</ele>
        <time>2022-08-12T09:59:31.000Z</time>
      </trkpt>
      <trkpt lat="45.09489" lon="5.53755">
        <ele>1327.6</ele>
        <time>2022-08-12T09:59:32.000Z</time>
      </trkpt>
      <trkpt lat="45.09488" lon="5.53757">
        <ele>1327.8</ele>
        <time>2022-08-12T09:59:33.000Z</time>
      </trkpt>
      <trkpt lat="45.09488" lon="5.53759">
        <ele>1328.1</ele>
        <time>2022-08-12T09:59:34.000Z</time>
      </trkpt>
      <trkpt lat="45.09487" lon="5.5376">
        <ele>1328.4</ele>
        <time>2022-08-12T09:59:35.000Z</time>
      </trkpt>
      <trkpt lat="45.09486" lon="5.53762">
        <ele>1328.6</ele>
        <time>2022-08-12T09:59:36.000Z</time>
      </trkpt>
      <trkpt lat="45.09483" lon="5.53766">
        <ele>1329.3</ele>
        <time>2022-08-12T09:59:39.000Z</time>
      </trkpt>
      <trkpt lat="45.09482" lon="5.53767">
        <ele>1329.5</ele>
        <time>2022-08-12T09:59:40.000Z</time>
      </trkpt>
      <trkpt lat="45.09481" lon="5.53767">
        <ele>1329.7</ele>
        <time>2022-08-12T09:59:41.000Z</time>
      </trkpt>
      <trkpt lat="45.09479" lon="5.53768">
        <ele>1330</ele>
        <time>2022-08-12T09:59:42.000Z</time>
      </trkpt>
      <trkpt lat="45.09478" lon="5.53769">
        <ele>1330.3</ele>
        <time>2022-08-12T09:59:43.000Z</time>
      </trkpt>
      <trkpt lat="45.09475" lon="5.5377">
        <ele>1330.7</ele>
        <time>2022-08-12T09:59:45.000Z</time>
      </trkpt>
      <trkpt lat="45.09474" lon="5.5377">
        <ele>1330.9</ele>
        <time>2022-08-12T09:59:46.000Z</time>
      </trkpt>
      <trkpt lat="45.09473" lon="5.53771">
        <ele>1331.2</ele>
        <time>2022-08-12T09:59:47.000Z</time>
      </trkpt>
      <trkpt lat="45.09471" lon="5.53772">
        <ele>1331.5</ele>
        <time>2022-08-12T09:59:48.000Z</time>
      </trkpt>
      <trkpt lat="45.0947" lon="5.53772">
        <ele>1331.7</ele>
        <time>2022-08-12T09:59:49.000Z</time>
      </trkpt>
      <trkpt lat="45.09469" lon="5.53773">
        <ele>1331.8</ele>
        <time>2022-08-12T09:59:50.000Z</time>
      </trkpt>
      <trkpt lat="45.09469" lon="5.53774">
        <ele>1331.9</ele>
        <time>2022-08-12T09:59:51.000Z</time>
      </trkpt>
      <trkpt lat="45.09469" lon="5.53775">
        <ele>1332.1</ele>
        <time>2022-08-12T09:59:52.000Z</time>
      </trkpt>
      <trkpt lat="45.09469" lon="5.53777">
        <ele>1332.3</ele>
        <time>2022-08-12T09:59:53.000Z</time>
      </trkpt>
      <trkpt lat="45.09468" lon="5.53778">
        <ele>1332.4</ele>
        <time>2022-08-12T09:59:54.000Z</time>
      </trkpt>
      <trkpt lat="45.09467" lon="5.53778">
        <ele>1332.6</ele>
        <time>2022-08-12T09:59:55.000Z</time>
      </trkpt>
      <trkpt lat="45.09466" lon="5.53778">
        <ele>1332.7</ele>
        <time>2022-08-12T09:59:56.000Z</time>
      </trkpt>
      <trkpt lat="45.09464" lon="5.53779">
        <ele>1333</ele>
        <time>2022-08-12T09:59:57.000Z</time>
      </trkpt>
      <trkpt lat="45.09462" lon="5.5378">
        <ele>1333.2</ele>
        <time>2022-08-12T09:59:58.000Z</time>
      </trkpt>
      <trkpt lat="45.09461" lon="5.53781">
        <ele>1333.5</ele>
        <time>2022-08-12T09:59:59.000Z</time>
      </trkpt>
      <trkpt lat="45.09459" lon="5.53782">
        <ele>1333.6</ele>
        <time>2022-08-12T10:00:00.000Z</time>
      </trkpt>
      <trkpt lat="45.09458" lon="5.53782">
        <ele>1333.8</ele>
        <time>2022-08-12T10:00:01.000Z</time>
      </trkpt>
      <trkpt lat="45.09457" lon="5.53782">
        <ele>1334</ele>
        <time>2022-08-12T10:00:02.000Z</time>
      </trkpt>
      <trkpt lat="45.09456" lon="5.53782">
        <ele>1334</ele>
        <time>2022-08-12T10:00:03.000Z</time>
      </trkpt>
      <trkpt lat="45.09455" lon="5.53781">
        <ele>1334.1</ele>
        <time>2022-08-12T10:00:05.000Z</time>
      </trkpt>
      <trkpt lat="45.09454" lon="5.53781">
        <ele>1334.2</ele>
        <time>2022-08-12T10:00:11.000Z</time>
      </trkpt>
      <trkpt lat="45.09453" lon="5.53781">
        <ele>1334.4</ele>
        <time>2022-08-12T10:00:13.000Z</time>
      </trkpt>
      <trkpt lat="45.09451" lon="5.53782">
        <ele>1334.6</ele>
        <time>2022-08-12T10:00:14.000Z</time>
      </trkpt>
      <trkpt lat="45.0945" lon="5.53783">
        <ele>1334.8</ele>
        <time>2022-08-12T10:00:15.000Z</time>
      </trkpt>
      <trkpt lat="45.09448" lon="5.53784">
        <ele>1335.1</ele>
        <time>2022-08-12T10:00:16.000Z</time>
      </trkpt>
      <trkpt lat="45.09446" lon="5.53786">
        <ele>1335.4</ele>
        <time>2022-08-12T10:00:17.000Z</time>
      </trkpt>
      <trkpt lat="45.09443" lon="5.53787">
        <ele>1335.8</ele>
        <time>2022-08-12T10:00:18.000Z</time>
      </trkpt>
      <trkpt lat="45.09442" lon="5.53787">
        <ele>1335.9</ele>
        <time>2022-08-12T10:00:19.000Z</time>
      </trkpt>
      <trkpt lat="45.0944" lon="5.53788">
        <ele>1336.1</ele>
        <time>2022-08-12T10:00:20.000Z</time>
      </trkpt>
      <trkpt lat="45.09439" lon="5.53788">
        <ele>1336.3</ele>
        <time>2022-08-12T10:00:21.000Z</time>
      </trkpt>
      <trkpt lat="45.09437" lon="5.53789">
        <ele>1336.4</ele>
        <time>2022-08-12T10:00:22.000Z</time>
      </trkpt>
      <trkpt lat="45.09435" lon="5.53789">
        <ele>1336.6</ele>
        <time>2022-08-12T10:00:23.000Z</time>
      </trkpt>
      <trkpt lat="45.09434" lon="5.5379">
        <ele>1336.7</ele>
        <time>2022-08-12T10:00:24.000Z</time>
      </trkpt>
      <trkpt lat="45.09435" lon="5.53792">
        <ele>1336.9</ele>
        <time>2022-08-12T10:00:26.000Z</time>
      </trkpt>
      <trkpt lat="45.09434" lon="5.53793">
        <ele>1337.1</ele>
        <time>2022-08-12T10:00:27.000Z</time>
      </trkpt>
      <trkpt lat="45.09434" lon="5.53795">
        <ele>1337.2</ele>
        <time>2022-08-12T10:00:28.000Z</time>
      </trkpt>
      <trkpt lat="45.09434" lon="5.53796">
        <ele>1337.3</ele>
        <time>2022-08-12T10:00:29.000Z</time>
      </trkpt>
      <trkpt lat="45.09434" lon="5.53797">
        <ele>1337.4</ele>
        <time>2022-08-12T10:00:31.000Z</time>
      </trkpt>
      <trkpt lat="45.09434" lon="5.53799">
        <ele>1337.6</ele>
        <time>2022-08-12T10:00:32.000Z</time>
      </trkpt>
      <trkpt lat="45.09433" lon="5.53799">
        <ele>1337.6</ele>
        <time>2022-08-12T10:00:33.000Z</time>
      </trkpt>
      <trkpt lat="45.09433" lon="5.538">
        <ele>1337.8</ele>
        <time>2022-08-12T10:00:34.000Z</time>
      </trkpt>
      <trkpt lat="45.09432" lon="5.538">
        <ele>1337.8</ele>
        <time>2022-08-12T10:00:35.000Z</time>
      </trkpt>
      <trkpt lat="45.09432" lon="5.53801">
        <ele>1337.9</ele>
        <time>2022-08-12T10:00:37.000Z</time>
      </trkpt>
      <trkpt lat="45.09432" lon="5.53803">
        <ele>1338.2</ele>
        <time>2022-08-12T10:00:42.000Z</time>
      </trkpt>
      <trkpt lat="45.09431" lon="5.53804">
        <ele>1338.3</ele>
        <time>2022-08-12T10:00:43.000Z</time>
      </trkpt>
      <trkpt lat="45.09431" lon="5.53805">
        <ele>1338.4</ele>
        <time>2022-08-12T10:00:51.000Z</time>
      </trkpt>
      <trkpt lat="45.09431" lon="5.53809">
        <ele>1338.7</ele>
        <time>2022-08-12T10:00:53.000Z</time>
      </trkpt>
      <trkpt lat="45.09432" lon="5.53811">
        <ele>1338.7</ele>
        <time>2022-08-12T10:00:54.000Z</time>
      </trkpt>
      <trkpt lat="45.09432" lon="5.53812">
        <ele>1338.9</ele>
        <time>2022-08-12T10:00:56.000Z</time>
      </trkpt>
      <trkpt lat="45.09432" lon="5.53813">
        <ele>1338.9</ele>
        <time>2022-08-12T10:00:59.000Z</time>
      </trkpt>
      <trkpt lat="45.09431" lon="5.53813">
        <ele>1339</ele>
        <time>2022-08-12T10:01:00.000Z</time>
      </trkpt>
      <trkpt lat="45.09431" lon="5.53814">
        <ele>1339.1</ele>
        <time>2022-08-12T10:01:01.000Z</time>
      </trkpt>
      <trkpt lat="45.0943" lon="5.53816">
        <ele>1339.3</ele>
        <time>2022-08-12T10:01:02.000Z</time>
      </trkpt>
      <trkpt lat="45.0943" lon="5.53818">
        <ele>1339.5</ele>
        <time>2022-08-12T10:01:03.000Z</time>
      </trkpt>
      <trkpt lat="45.09429" lon="5.53819">
        <ele>1339.7</ele>
        <time>2022-08-12T10:01:04.000Z</time>
      </trkpt>
      <trkpt lat="45.09427" lon="5.5382">
        <ele>1339.9</ele>
        <time>2022-08-12T10:01:05.000Z</time>
      </trkpt>
      <trkpt lat="45.09425" lon="5.53821">
        <ele>1340.2</ele>
        <time>2022-08-12T10:01:07.000Z</time>
      </trkpt>
      <trkpt lat="45.09425" lon="5.53822">
        <ele>1340.3</ele>
        <time>2022-08-12T10:01:09.000Z</time>
      </trkpt>
      <trkpt lat="45.09424" lon="5.53823">
        <ele>1340.5</ele>
        <time>2022-08-12T10:01:10.000Z</time>
      </trkpt>
      <trkpt lat="45.09421" lon="5.53824">
        <ele>1340.8</ele>
        <time>2022-08-12T10:01:12.000Z</time>
      </trkpt>
      <trkpt lat="45.0942" lon="5.53825">
        <ele>1341</ele>
        <time>2022-08-12T10:01:13.000Z</time>
      </trkpt>
      <trkpt lat="45.09419" lon="5.53826">
        <ele>1341.2</ele>
        <time>2022-08-12T10:01:14.000Z</time>
      </trkpt>
      <trkpt lat="45.09418" lon="5.53827">
        <ele>1341.4</ele>
        <time>2022-08-12T10:01:15.000Z</time>
      </trkpt>
      <trkpt lat="45.09417" lon="5.53829">
        <ele>1341.6</ele>
        <time>2022-08-12T10:01:16.000Z</time>
      </trkpt>
      <trkpt lat="45.09416" lon="5.53831">
        <ele>1341.9</ele>
        <time>2022-08-12T10:01:17.000Z</time>
      </trkpt>
      <trkpt lat="45.09415" lon="5.53832">
        <ele>1342</ele>
        <time>2022-08-12T10:01:19.000Z</time>
      </trkpt>
      <trkpt lat="45.09414" lon="5.53832">
        <ele>1342.1</ele>
        <time>2022-08-12T10:01:20.000Z</time>
      </trkpt>
      <trkpt lat="45.09412" lon="5.53833">
        <ele>1342.3</ele>
        <time>2022-08-12T10:01:21.000Z</time>
      </trkpt>
      <trkpt lat="45.09411" lon="5.53833">
        <ele>1342.4</ele>
        <time>2022-08-12T10:01:22.000Z</time>
      </trkpt>
      <trkpt lat="45.0941" lon="5.53833">
        <ele>1342.5</ele>
        <time>2022-08-12T10:01:23.000Z</time>
      </trkpt>
      <trkpt lat="45.09408" lon="5.53832">
        <ele>1342.5</ele>
        <time>2022-08-12T10:01:24.000Z</time>
      </trkpt>
      <trkpt lat="45.09407" lon="5.53832">
        <ele>1342.6</ele>
        <time>2022-08-12T10:01:26.000Z</time>
      </trkpt>
      <trkpt lat="45.09405" lon="5.53832">
        <ele>1342.8</ele>
        <time>2022-08-12T10:01:27.000Z</time>
      </trkpt>
      <trkpt lat="45.09403" lon="5.53831">
        <ele>1342.8</ele>
        <time>2022-08-12T10:01:28.000Z</time>
      </trkpt>
      <trkpt lat="45.09402" lon="5.53831">
        <ele>1342.9</ele>
        <time>2022-08-12T10:01:29.000Z</time>
      </trkpt>
      <trkpt lat="45.09401" lon="5.53831">
        <ele>1343</ele>
        <time>2022-08-12T10:01:30.000Z</time>
      </trkpt>
      <trkpt lat="45.09397" lon="5.53831">
        <ele>1343.3</ele>
        <time>2022-08-12T10:01:31.000Z</time>
      </trkpt>
      <trkpt lat="45.09396" lon="5.53832">
        <ele>1343.4</ele>
        <time>2022-08-12T10:01:32.000Z</time>
      </trkpt>
      <trkpt lat="45.09395" lon="5.53835">
        <ele>1343.6</ele>
        <time>2022-08-12T10:01:33.000Z</time>
      </trkpt>
      <trkpt lat="45.09394" lon="5.53837">
        <ele>1343.8</ele>
        <time>2022-08-12T10:01:34.000Z</time>
      </trkpt>
      <trkpt lat="45.09393" lon="5.53838">
        <ele>1343.9</ele>
        <time>2022-08-12T10:01:35.000Z</time>
      </trkpt>
      <trkpt lat="45.09391" lon="5.53839">
        <ele>1344.1</ele>
        <time>2022-08-12T10:01:38.000Z</time>
      </trkpt>
      <trkpt lat="45.09386" lon="5.53837">
        <ele>1344.3</ele>
        <time>2022-08-12T10:01:42.000Z</time>
      </trkpt>
      <trkpt lat="45.09385" lon="5.53837">
        <ele>1344.4</ele>
        <time>2022-08-12T10:01:43.000Z</time>
      </trkpt>
      <trkpt lat="45.09384" lon="5.53838">
        <ele>1344.5</ele>
        <time>2022-08-12T10:01:44.000Z</time>
      </trkpt>
      <trkpt lat="45.09383" lon="5.53838">
        <ele>1344.6</ele>
        <time>2022-08-12T10:01:45.000Z</time>
      </trkpt>
      <trkpt lat="45.0938" lon="5.53838">
        <ele>1344.8</ele>
        <time>2022-08-12T10:01:46.000Z</time>
      </trkpt>
      <trkpt lat="45.09378" lon="5.53838">
        <ele>1344.9</ele>
        <time>2022-08-12T10:01:47.000Z</time>
      </trkpt>
      <trkpt lat="45.09377" lon="5.53837">
        <ele>1345</ele>
        <time>2022-08-12T10:01:48.000Z</time>
      </trkpt>
      <trkpt lat="45.09375" lon="5.53837">
        <ele>1345.1</ele>
        <time>2022-08-12T10:01:49.000Z</time>
      </trkpt>
      <trkpt lat="45.09372" lon="5.53837">
        <ele>1345.3</ele>
        <time>2022-08-12T10:01:51.000Z</time>
      </trkpt>
      <trkpt lat="45.09371" lon="5.53838">
        <ele>1345.5</ele>
        <time>2022-08-12T10:01:52.000Z</time>
      </trkpt>
      <trkpt lat="45.09369" lon="5.53839">
        <ele>1345.6</ele>
        <time>2022-08-12T10:01:53.000Z</time>
      </trkpt>
      <trkpt lat="45.09366" lon="5.53841">
        <ele>1345.9</ele>
        <time>2022-08-12T10:01:55.000Z</time>
      </trkpt>
      <trkpt lat="45.09364" lon="5.53842">
        <ele>1346.1</ele>
        <time>2022-08-12T10:01:56.000Z</time>
      </trkpt>
      <trkpt lat="45.09362" lon="5.53843">
        <ele>1346.3</ele>
        <time>2022-08-12T10:01:57.000Z</time>
      </trkpt>
      <trkpt lat="45.0936" lon="5.53843">
        <ele>1346.5</ele>
        <time>2022-08-12T10:01:59.000Z</time>
      </trkpt>
      <trkpt lat="45.09357" lon="5.53842">
        <ele>1346.7</ele>
        <time>2022-08-12T10:02:01.000Z</time>
      </trkpt>
      <trkpt lat="45.09356" lon="5.53839">
        <ele>1346.6</ele>
        <time>2022-08-12T10:02:03.000Z</time>
      </trkpt>
      <trkpt lat="45.09356" lon="5.53837">
        <ele>1346.5</ele>
        <time>2022-08-12T10:02:04.000Z</time>
      </trkpt>
      <trkpt lat="45.09357" lon="5.53835">
        <ele>1346.4</ele>
        <time>2022-08-12T10:02:05.000Z</time>
      </trkpt>
      <trkpt lat="45.09357" lon="5.53832">
        <ele>1346.2</ele>
        <time>2022-08-12T10:02:06.000Z</time>
      </trkpt>
      <trkpt lat="45.09357" lon="5.5383">
        <ele>1346</ele>
        <time>2022-08-12T10:02:07.000Z</time>
      </trkpt>
      <trkpt lat="45.09356" lon="5.53826">
        <ele>1345.5</ele>
        <time>2022-08-12T10:02:10.000Z</time>
      </trkpt>
      <trkpt lat="45.09356" lon="5.53825">
        <ele>1345.5</ele>
        <time>2022-08-12T10:02:11.000Z</time>
      </trkpt>
      <trkpt lat="45.09354" lon="5.53822">
        <ele>1345.3</ele>
        <time>2022-08-12T10:02:12.000Z</time>
      </trkpt>
      <trkpt lat="45.09354" lon="5.53821">
        <ele>1345.2</ele>
        <time>2022-08-12T10:02:13.000Z</time>
      </trkpt>
      <trkpt lat="45.09349" lon="5.53816">
        <ele>1345</ele>
        <time>2022-08-12T10:02:16.000Z</time>
      </trkpt>
      <trkpt lat="45.09348" lon="5.53815">
        <ele>1344.9</ele>
        <time>2022-08-12T10:02:17.000Z</time>
      </trkpt>
      <trkpt lat="45.09348" lon="5.53814">
        <ele>1344.9</ele>
        <time>2022-08-12T10:02:18.000Z</time>
      </trkpt>
      <trkpt lat="45.09348" lon="5.53813">
        <ele>1344.8</ele>
        <time>2022-08-12T10:02:19.000Z</time>
      </trkpt>
      <trkpt lat="45.09346" lon="5.53811">
        <ele>1344.7</ele>
        <time>2022-08-12T10:02:20.000Z</time>
      </trkpt>
      <trkpt lat="45.09345" lon="5.53809">
        <ele>1344.6</ele>
        <time>2022-08-12T10:02:23.000Z</time>
      </trkpt>
      <trkpt lat="45.09345" lon="5.5381">
        <ele>1344.6</ele>
        <time>2022-08-12T10:02:29.000Z</time>
      </trkpt>
      <trkpt lat="45.09345" lon="5.53809">
        <ele>1344.6</ele>
        <time>2022-08-12T10:02:56.000Z</time>
      </trkpt>
      <trkpt lat="45.09344" lon="5.53808">
        <ele>1344.5</ele>
        <time>2022-08-12T10:03:10.000Z</time>
      </trkpt>
      <trkpt lat="45.09343" lon="5.53807">
        <ele>1344.4</ele>
        <time>2022-08-12T10:03:11.000Z</time>
      </trkpt>
      <trkpt lat="45.09342" lon="5.53805">
        <ele>1344.2</ele>
        <time>2022-08-12T10:03:12.000Z</time>
      </trkpt>
      <trkpt lat="45.09342" lon="5.53803">
        <ele>1344</ele>
        <time>2022-08-12T10:03:13.000Z</time>
      </trkpt>
      <trkpt lat="45.09338" lon="5.53797">
        <ele>1343.4</ele>
        <time>2022-08-12T10:03:16.000Z</time>
      </trkpt>
      <trkpt lat="45.09338" lon="5.53795">
        <ele>1343.2</ele>
        <time>2022-08-12T10:03:17.000Z</time>
      </trkpt>
      <trkpt lat="45.09337" lon="5.53791">
        <ele>1342.7</ele>
        <time>2022-08-12T10:03:18.000Z</time>
      </trkpt>
      <trkpt lat="45.09337" lon="5.53788">
        <ele>1342.3</ele>
        <time>2022-08-12T10:03:19.000Z</time>
      </trkpt>
      <trkpt lat="45.09337" lon="5.53785">
        <ele>1342</ele>
        <time>2022-08-12T10:03:20.000Z</time>
      </trkpt>
      <trkpt lat="45.09336" lon="5.53783">
        <ele>1341.7</ele>
        <time>2022-08-12T10:03:21.000Z</time>
      </trkpt>
      <trkpt lat="45.09336" lon="5.53782">
        <ele>1341.5</ele>
        <time>2022-08-12T10:03:22.000Z</time>
      </trkpt>
      <trkpt lat="45.09334" lon="5.53779">
        <ele>1341.2</ele>
        <time>2022-08-12T10:03:23.000Z</time>
      </trkpt>
      <trkpt lat="45.09333" lon="5.53778">
        <ele>1341</ele>
        <time>2022-08-12T10:03:24.000Z</time>
      </trkpt>
      <trkpt lat="45.09331" lon="5.53777">
        <ele>1341</ele>
        <time>2022-08-12T10:03:25.000Z</time>
      </trkpt>
      <trkpt lat="45.09328" lon="5.53773">
        <ele>1340.3</ele>
        <time>2022-08-12T10:03:36.000Z</time>
      </trkpt>
      <trkpt lat="45.09328" lon="5.53771">
        <ele>1340</ele>
        <time>2022-08-12T10:03:37.000Z</time>
      </trkpt>
      <trkpt lat="45.09327" lon="5.5377">
        <ele>1339.7</ele>
        <time>2022-08-12T10:03:38.000Z</time>
      </trkpt>
      <trkpt lat="45.09325" lon="5.53764">
        <ele>1338.6</ele>
        <time>2022-08-12T10:03:42.000Z</time>
      </trkpt>
      <trkpt lat="45.09321" lon="5.53754">
        <ele>1336.8</ele>
        <time>2022-08-12T10:03:45.000Z</time>
      </trkpt>
      <trkpt lat="45.0932" lon="5.53752">
        <ele>1336.3</ele>
        <time>2022-08-12T10:03:46.000Z</time>
      </trkpt>
      <trkpt lat="45.09319" lon="5.5375">
        <ele>1336</ele>
        <time>2022-08-12T10:03:47.000Z</time>
      </trkpt>
      <trkpt lat="45.09316" lon="5.53748">
        <ele>1335.5</ele>
        <time>2022-08-12T10:03:48.000Z</time>
      </trkpt>
      <trkpt lat="45.09313" lon="5.53746">
        <ele>1335.1</ele>
        <time>2022-08-12T10:03:49.000Z</time>
      </trkpt>
      <trkpt lat="45.0931" lon="5.53744">
        <ele>1334.8</ele>
        <time>2022-08-12T10:03:50.000Z</time>
      </trkpt>
      <trkpt lat="45.09302" lon="5.53737">
        <ele>1333.6</ele>
        <time>2022-08-12T10:03:54.000Z</time>
      </trkpt>
      <trkpt lat="45.09301" lon="5.53736">
        <ele>1333.7</ele>
        <time>2022-08-12T10:03:55.000Z</time>
      </trkpt>
      <trkpt lat="45.09299" lon="5.53736">
        <ele>1333.9</ele>
        <time>2022-08-12T10:03:56.000Z</time>
      </trkpt>
      <trkpt lat="45.09297" lon="5.53736">
        <ele>1334.2</ele>
        <time>2022-08-12T10:03:57.000Z</time>
      </trkpt>
      <trkpt lat="45.09294" lon="5.53737">
        <ele>1334.5</ele>
        <time>2022-08-12T10:03:58.000Z</time>
      </trkpt>
      <trkpt lat="45.09293" lon="5.53737">
        <ele>1334.8</ele>
        <time>2022-08-12T10:03:59.000Z</time>
      </trkpt>
      <trkpt lat="45.09292" lon="5.53737">
        <ele>1335</ele>
        <time>2022-08-12T10:04:00.000Z</time>
      </trkpt>
      <trkpt lat="45.09292" lon="5.53738">
        <ele>1335.1</ele>
        <time>2022-08-12T10:04:01.000Z</time>
      </trkpt>
      <trkpt lat="45.09292" lon="5.53739">
        <ele>1335.2</ele>
        <time>2022-08-12T10:04:02.000Z</time>
      </trkpt>
      <trkpt lat="45.09294" lon="5.53741">
        <ele>1335.5</ele>
        <time>2022-08-12T10:04:06.000Z</time>
      </trkpt>
      <trkpt lat="45.09294" lon="5.53743">
        <ele>1335.7</ele>
        <time>2022-08-12T10:04:07.000Z</time>
      </trkpt>
      <trkpt lat="45.09295" lon="5.53746">
        <ele>1336.3</ele>
        <time>2022-08-12T10:04:09.000Z</time>
      </trkpt>
      <trkpt lat="45.09295" lon="5.53747">
        <ele>1336.6</ele>
        <time>2022-08-12T10:04:10.000Z</time>
      </trkpt>
      <trkpt lat="45.09294" lon="5.53748">
        <ele>1336.9</ele>
        <time>2022-08-12T10:04:11.000Z</time>
      </trkpt>
      <trkpt lat="45.09292" lon="5.53749">
        <ele>1337.2</ele>
        <time>2022-08-12T10:04:12.000Z</time>
      </trkpt>
      <trkpt lat="45.09291" lon="5.53749">
        <ele>1337.3</ele>
        <time>2022-08-12T10:04:13.000Z</time>
      </trkpt>
      <trkpt lat="45.0929" lon="5.53749">
        <ele>1337.4</ele>
        <time>2022-08-12T10:04:14.000Z</time>
      </trkpt>
      <trkpt lat="45.09289" lon="5.53748">
        <ele>1337.5</ele>
        <time>2022-08-12T10:04:15.000Z</time>
      </trkpt>
      <trkpt lat="45.09288" lon="5.53748">
        <ele>1337.5</ele>
        <time>2022-08-12T10:04:16.000Z</time>
      </trkpt>
      <trkpt lat="45.09287" lon="5.53748">
        <ele>1337.5</ele>
        <time>2022-08-12T10:04:17.000Z</time>
      </trkpt>
      <trkpt lat="45.09286" lon="5.53748">
        <ele>1337.7</ele>
        <time>2022-08-12T10:04:20.000Z</time>
      </trkpt>
      <trkpt lat="45.09284" lon="5.53747">
        <ele>1337.8</ele>
        <time>2022-08-12T10:04:21.000Z</time>
      </trkpt>
      <trkpt lat="45.09283" lon="5.53747">
        <ele>1337.8</ele>
        <time>2022-08-12T10:04:22.000Z</time>
      </trkpt>
      <trkpt lat="45.09282" lon="5.53746">
        <ele>1337.8</ele>
        <time>2022-08-12T10:04:23.000Z</time>
      </trkpt>
      <trkpt lat="45.0928" lon="5.53745">
        <ele>1337.8</ele>
        <time>2022-08-12T10:04:24.000Z</time>
      </trkpt>
      <trkpt lat="45.09279" lon="5.53745">
        <ele>1337.9</ele>
        <time>2022-08-12T10:04:25.000Z</time>
      </trkpt>
      <trkpt lat="45.09277" lon="5.53744">
        <ele>1338</ele>
        <time>2022-08-12T10:04:26.000Z</time>
      </trkpt>
      <trkpt lat="45.09275" lon="5.53743">
        <ele>1338.4</ele>
        <time>2022-08-12T10:04:27.000Z</time>
      </trkpt>
      <trkpt lat="45.09273" lon="5.53743">
        <ele>1338.8</ele>
        <time>2022-08-12T10:04:28.000Z</time>
      </trkpt>
      <trkpt lat="45.09272" lon="5.53743">
        <ele>1339.3</ele>
        <time>2022-08-12T10:04:29.000Z</time>
      </trkpt>
      <trkpt lat="45.0927" lon="5.53744">
        <ele>1339.7</ele>
        <time>2022-08-12T10:04:30.000Z</time>
      </trkpt>
      <trkpt lat="45.09269" lon="5.53744">
        <ele>1340.2</ele>
        <time>2022-08-12T10:04:31.000Z</time>
      </trkpt>
      <trkpt lat="45.09264" lon="5.53745">
        <ele>1341.7</ele>
        <time>2022-08-12T10:04:33.000Z</time>
      </trkpt>
      <trkpt lat="45.09262" lon="5.53746">
        <ele>1342.2</ele>
        <time>2022-08-12T10:04:34.000Z</time>
      </trkpt>
      <trkpt lat="45.0926" lon="5.53746">
        <ele>1342.7</ele>
        <time>2022-08-12T10:04:35.000Z</time>
      </trkpt>
      <trkpt lat="45.09258" lon="5.53746">
        <ele>1343.1</ele>
        <time>2022-08-12T10:04:36.000Z</time>
      </trkpt>
      <trkpt lat="45.09257" lon="5.53745">
        <ele>1343.5</ele>
        <time>2022-08-12T10:04:37.000Z</time>
      </trkpt>
      <trkpt lat="45.09255" lon="5.53744">
        <ele>1343.7</ele>
        <time>2022-08-12T10:04:38.000Z</time>
      </trkpt>
      <trkpt lat="45.09254" lon="5.53742">
        <ele>1343.6</ele>
        <time>2022-08-12T10:04:39.000Z</time>
      </trkpt>
      <trkpt lat="45.09254" lon="5.53741">
        <ele>1343.4</ele>
        <time>2022-08-12T10:04:40.000Z</time>
      </trkpt>
      <trkpt lat="45.09254" lon="5.5374">
        <ele>1343.1</ele>
        <time>2022-08-12T10:04:41.000Z</time>
      </trkpt>
      <trkpt lat="45.09254" lon="5.53739">
        <ele>1343</ele>
        <time>2022-08-12T10:04:42.000Z</time>
      </trkpt>
      <trkpt lat="45.09254" lon="5.53737">
        <ele>1342.6</ele>
        <time>2022-08-12T10:04:44.000Z</time>
      </trkpt>
      <trkpt lat="45.09254" lon="5.53736">
        <ele>1342.5</ele>
        <time>2022-08-12T10:04:45.000Z</time>
      </trkpt>
      <trkpt lat="45.09254" lon="5.53735">
        <ele>1342.2</ele>
        <time>2022-08-12T10:04:46.000Z</time>
      </trkpt>
      <trkpt lat="45.09253" lon="5.53732">
        <ele>1341.9</ele>
        <time>2022-08-12T10:04:47.000Z</time>
      </trkpt>
      <trkpt lat="45.09252" lon="5.53729">
        <ele>1341.6</ele>
        <time>2022-08-12T10:04:48.000Z</time>
      </trkpt>
      <trkpt lat="45.09251" lon="5.53726">
        <ele>1341.5</ele>
        <time>2022-08-12T10:04:49.000Z</time>
      </trkpt>
      <trkpt lat="45.0925" lon="5.53724">
        <ele>1341.5</ele>
        <time>2022-08-12T10:04:50.000Z</time>
      </trkpt>
      <trkpt lat="45.09247" lon="5.53722">
        <ele>1341.9</ele>
        <time>2022-08-12T10:04:51.000Z</time>
      </trkpt>
      <trkpt lat="45.09244" lon="5.53721">
        <ele>1342.5</ele>
        <time>2022-08-12T10:04:52.000Z</time>
      </trkpt>
      <trkpt lat="45.09243" lon="5.5372">
        <ele>1342.9</ele>
        <time>2022-08-12T10:04:53.000Z</time>
      </trkpt>
      <trkpt lat="45.09242" lon="5.53719">
        <ele>1343.1</ele>
        <time>2022-08-12T10:04:54.000Z</time>
      </trkpt>
      <trkpt lat="45.0924" lon="5.53718">
        <ele>1343.2</ele>
        <time>2022-08-12T10:04:55.000Z</time>
      </trkpt>
      <trkpt lat="45.09239" lon="5.53716">
        <ele>1343.2</ele>
        <time>2022-08-12T10:04:56.000Z</time>
      </trkpt>
      <trkpt lat="45.09239" lon="5.53715">
        <ele>1343.1</ele>
        <time>2022-08-12T10:04:57.000Z</time>
      </trkpt>
      <trkpt lat="45.09238" lon="5.53713">
        <ele>1343</ele>
        <time>2022-08-12T10:04:58.000Z</time>
      </trkpt>
      <trkpt lat="45.09237" lon="5.53711">
        <ele>1343</ele>
        <time>2022-08-12T10:04:59.000Z</time>
      </trkpt>
      <trkpt lat="45.09236" lon="5.53709">
        <ele>1342.9</ele>
        <time>2022-08-12T10:05:00.000Z</time>
      </trkpt>
      <trkpt lat="45.09235" lon="5.53707">
        <ele>1342.7</ele>
        <time>2022-08-12T10:05:01.000Z</time>
      </trkpt>
      <trkpt lat="45.09234" lon="5.53705">
        <ele>1342.8</ele>
        <time>2022-08-12T10:05:02.000Z</time>
      </trkpt>
      <trkpt lat="45.09233" lon="5.53703">
        <ele>1342.6</ele>
        <time>2022-08-12T10:05:03.000Z</time>
      </trkpt>
      <trkpt lat="45.0923" lon="5.53695">
        <ele>1342.2</ele>
        <time>2022-08-12T10:05:05.000Z</time>
      </trkpt>
      <trkpt lat="45.09229" lon="5.53692">
        <ele>1342.1</ele>
        <time>2022-08-12T10:05:06.000Z</time>
      </trkpt>
      <trkpt lat="45.09227" lon="5.5368">
        <ele>1340.6</ele>
        <time>2022-08-12T10:05:09.000Z</time>
      </trkpt>
      <trkpt lat="45.09229" lon="5.53677">
        <ele>1339.4</ele>
        <time>2022-08-12T10:05:10.000Z</time>
      </trkpt>
      <trkpt lat="45.09231" lon="5.53671">
        <ele>1337.7</ele>
        <time>2022-08-12T10:05:11.000Z</time>
      </trkpt>
      <trkpt lat="45.09231" lon="5.53667">
        <ele>1336.9</ele>
        <time>2022-08-12T10:05:12.000Z</time>
      </trkpt>
      <trkpt lat="45.0923" lon="5.53663">
        <ele>1336.6</ele>
        <time>2022-08-12T10:05:13.000Z</time>
      </trkpt>
      <trkpt lat="45.0923" lon="5.5366">
        <ele>1336.1</ele>
        <time>2022-08-12T10:05:14.000Z</time>
      </trkpt>
      <trkpt lat="45.09231" lon="5.53655">
        <ele>1335.3</ele>
        <time>2022-08-12T10:05:15.000Z</time>
      </trkpt>
      <trkpt lat="45.09233" lon="5.53651">
        <ele>1333.9</ele>
        <time>2022-08-12T10:05:16.000Z</time>
      </trkpt>
      <trkpt lat="45.09235" lon="5.53646">
        <ele>1332.7</ele>
        <time>2022-08-12T10:05:17.000Z</time>
      </trkpt>
      <trkpt lat="45.09237" lon="5.53641">
        <ele>1331.4</ele>
        <time>2022-08-12T10:05:18.000Z</time>
      </trkpt>
      <trkpt lat="45.09239" lon="5.53638">
        <ele>1330.4</ele>
        <time>2022-08-12T10:05:19.000Z</time>
      </trkpt>
      <trkpt lat="45.09241" lon="5.53635">
        <ele>1329.7</ele>
        <time>2022-08-12T10:05:20.000Z</time>
      </trkpt>
      <trkpt lat="45.09243" lon="5.53632">
        <ele>1329.1</ele>
        <time>2022-08-12T10:05:21.000Z</time>
      </trkpt>
      <trkpt lat="45.09242" lon="5.53627">
        <ele>1329.4</ele>
        <time>2022-08-12T10:05:22.000Z</time>
      </trkpt>
      <trkpt lat="45.09241" lon="5.53622">
        <ele>1329.5</ele>
        <time>2022-08-12T10:05:23.000Z</time>
      </trkpt>
      <trkpt lat="45.09241" lon="5.53616">
        <ele>1329.3</ele>
        <time>2022-08-12T10:05:25.000Z</time>
      </trkpt>
      <trkpt lat="45.09241" lon="5.53613">
        <ele>1329.2</ele>
        <time>2022-08-12T10:05:26.000Z</time>
      </trkpt>
      <trkpt lat="45.0924" lon="5.53608">
        <ele>1329.4</ele>
        <time>2022-08-12T10:05:28.000Z</time>
      </trkpt>
      <trkpt lat="45.0924" lon="5.53606">
        <ele>1329.3</ele>
        <time>2022-08-12T10:05:29.000Z</time>
      </trkpt>
      <trkpt lat="45.09241" lon="5.53603">
        <ele>1329.3</ele>
        <time>2022-08-12T10:05:30.000Z</time>
      </trkpt>
      <trkpt lat="45.0924" lon="5.53601">
        <ele>1329.3</ele>
        <time>2022-08-12T10:05:31.000Z</time>
      </trkpt>
      <trkpt lat="45.0924" lon="5.53599">
        <ele>1329.4</ele>
        <time>2022-08-12T10:05:32.000Z</time>
      </trkpt>
      <trkpt lat="45.09239" lon="5.53598">
        <ele>1329.6</ele>
        <time>2022-08-12T10:05:33.000Z</time>
      </trkpt>
      <trkpt lat="45.09236" lon="5.53596">
        <ele>1330.2</ele>
        <time>2022-08-12T10:05:35.000Z</time>
      </trkpt>
      <trkpt lat="45.09235" lon="5.53597">
        <ele>1330.6</ele>
        <time>2022-08-12T10:05:36.000Z</time>
      </trkpt>
      <trkpt lat="45.09233" lon="5.53597">
        <ele>1331</ele>
        <time>2022-08-12T10:05:37.000Z</time>
      </trkpt>
      <trkpt lat="45.09232" lon="5.53596">
        <ele>1331.3</ele>
        <time>2022-08-12T10:05:38.000Z</time>
      </trkpt>
      <trkpt lat="45.09231" lon="5.53596">
        <ele>1331.5</ele>
        <time>2022-08-12T10:05:39.000Z</time>
      </trkpt>
      <trkpt lat="45.0923" lon="5.53595">
        <ele>1331.6</ele>
        <time>2022-08-12T10:05:40.000Z</time>
      </trkpt>
      <trkpt lat="45.0923" lon="5.53594">
        <ele>1331.6</ele>
        <time>2022-08-12T10:05:42.000Z</time>
      </trkpt>
      <trkpt lat="45.09229" lon="5.53592">
        <ele>1331.8</ele>
        <time>2022-08-12T10:05:43.000Z</time>
      </trkpt>
      <trkpt lat="45.09228" lon="5.53591">
        <ele>1332.1</ele>
        <time>2022-08-12T10:05:44.000Z</time>
      </trkpt>
      <trkpt lat="45.09227" lon="5.53591">
        <ele>1332.2</ele>
        <time>2022-08-12T10:05:45.000Z</time>
      </trkpt>
      <trkpt lat="45.09226" lon="5.5359">
        <ele>1332.3</ele>
        <time>2022-08-12T10:05:50.000Z</time>
      </trkpt>
      <trkpt lat="45.09225" lon="5.53586">
        <ele>1332.5</ele>
        <time>2022-08-12T10:05:52.000Z</time>
      </trkpt>
      <trkpt lat="45.09224" lon="5.53584">
        <ele>1332.7</ele>
        <time>2022-08-12T10:05:53.000Z</time>
      </trkpt>
      <trkpt lat="45.09223" lon="5.53579">
        <ele>1333</ele>
        <time>2022-08-12T10:05:55.000Z</time>
      </trkpt>
      <trkpt lat="45.09222" lon="5.53577">
        <ele>1333.3</ele>
        <time>2022-08-12T10:05:56.000Z</time>
      </trkpt>
      <trkpt lat="45.0922" lon="5.53575">
        <ele>1333.6</ele>
        <time>2022-08-12T10:05:57.000Z</time>
      </trkpt>
      <trkpt lat="45.09219" lon="5.53571">
        <ele>1334</ele>
        <time>2022-08-12T10:05:59.000Z</time>
      </trkpt>
      <trkpt lat="45.09218" lon="5.53569">
        <ele>1334.2</ele>
        <time>2022-08-12T10:06:00.000Z</time>
      </trkpt>
      <trkpt lat="45.09215" lon="5.53568">
        <ele>1334.6</ele>
        <time>2022-08-12T10:06:02.000Z</time>
      </trkpt>
      <trkpt lat="45.09213" lon="5.53569">
        <ele>1334.8</ele>
        <time>2022-08-12T10:06:03.000Z</time>
      </trkpt>
      <trkpt lat="45.09209" lon="5.5357">
        <ele>1335.4</ele>
        <time>2022-08-12T10:06:05.000Z</time>
      </trkpt>
      <trkpt lat="45.09192" lon="5.53574">
        <ele>1337.7</ele>
        <time>2022-08-12T10:06:13.000Z</time>
      </trkpt>
      <trkpt lat="45.0919" lon="5.53574">
        <ele>1337.8</ele>
        <time>2022-08-12T10:06:14.000Z</time>
      </trkpt>
      <trkpt lat="45.09183" lon="5.53574">
        <ele>1338</ele>
        <time>2022-08-12T10:06:17.000Z</time>
      </trkpt>
      <trkpt lat="45.09181" lon="5.53575">
        <ele>1338</ele>
        <time>2022-08-12T10:06:18.000Z</time>
      </trkpt>
      <trkpt lat="45.09179" lon="5.53576">
        <ele>1338.1</ele>
        <time>2022-08-12T10:06:19.000Z</time>
      </trkpt>
      <trkpt lat="45.09176" lon="5.53576">
        <ele>1338.2</ele>
        <time>2022-08-12T10:06:20.000Z</time>
      </trkpt>
      <trkpt lat="45.09172" lon="5.53575">
        <ele>1338.3</ele>
        <time>2022-08-12T10:06:22.000Z</time>
      </trkpt>
      <trkpt lat="45.0917" lon="5.53575">
        <ele>1338.3</ele>
        <time>2022-08-12T10:06:23.000Z</time>
      </trkpt>
      <trkpt lat="45.09166" lon="5.53574">
        <ele>1338.2</ele>
        <time>2022-08-12T10:06:27.000Z</time>
      </trkpt>
      <trkpt lat="45.09164" lon="5.53573">
        <ele>1338</ele>
        <time>2022-08-12T10:06:28.000Z</time>
      </trkpt>
      <trkpt lat="45.09162" lon="5.53572">
        <ele>1337.7</ele>
        <time>2022-08-12T10:06:29.000Z</time>
      </trkpt>
      <trkpt lat="45.09158" lon="5.53566">
        <ele>1336.9</ele>
        <time>2022-08-12T10:06:31.000Z</time>
      </trkpt>
      <trkpt lat="45.09156" lon="5.53562">
        <ele>1336.3</ele>
        <time>2022-08-12T10:06:32.000Z</time>
      </trkpt>
      <trkpt lat="45.09154" lon="5.53558">
        <ele>1335.8</ele>
        <time>2022-08-12T10:06:33.000Z</time>
      </trkpt>
      <trkpt lat="45.09152" lon="5.53553">
        <ele>1335.4</ele>
        <time>2022-08-12T10:06:34.000Z</time>
      </trkpt>
      <trkpt lat="45.0915" lon="5.53549">
        <ele>1335.1</ele>
        <time>2022-08-12T10:06:35.000Z</time>
      </trkpt>
      <trkpt lat="45.09142" lon="5.5354">
        <ele>1333.9</ele>
        <time>2022-08-12T10:06:38.000Z</time>
      </trkpt>
      <trkpt lat="45.0914" lon="5.53537">
        <ele>1333.6</ele>
        <time>2022-08-12T10:06:39.000Z</time>
      </trkpt>
      <trkpt lat="45.09137" lon="5.53533">
        <ele>1332.7</ele>
        <time>2022-08-12T10:06:40.000Z</time>
      </trkpt>
      <trkpt lat="45.09136" lon="5.5353">
        <ele>1332.2</ele>
        <time>2022-08-12T10:06:41.000Z</time>
      </trkpt>
      <trkpt lat="45.09135" lon="5.53529">
        <ele>1331.7</ele>
        <time>2022-08-12T10:06:42.000Z</time>
      </trkpt>
      <trkpt lat="45.09134" lon="5.53527">
        <ele>1331.4</ele>
        <time>2022-08-12T10:06:43.000Z</time>
      </trkpt>
      <trkpt lat="45.09133" lon="5.53525">
        <ele>1331.1</ele>
        <time>2022-08-12T10:06:45.000Z</time>
      </trkpt>
      <trkpt lat="45.09131" lon="5.53523">
        <ele>1330.2</ele>
        <time>2022-08-12T10:06:47.000Z</time>
      </trkpt>
      <trkpt lat="45.09129" lon="5.53522">
        <ele>1329.5</ele>
        <time>2022-08-12T10:06:49.000Z</time>
      </trkpt>
      <trkpt lat="45.09129" lon="5.53521">
        <ele>1329.4</ele>
        <time>2022-08-12T10:06:50.000Z</time>
      </trkpt>
      <trkpt lat="45.09128" lon="5.53521">
        <ele>1329.3</ele>
        <time>2022-08-12T10:06:52.000Z</time>
      </trkpt>
      <trkpt lat="45.09125" lon="5.53523">
        <ele>1328.5</ele>
        <time>2022-08-12T10:07:00.000Z</time>
      </trkpt>
      <trkpt lat="45.09124" lon="5.53523">
        <ele>1327.9</ele>
        <time>2022-08-12T10:07:01.000Z</time>
      </trkpt>
      <trkpt lat="45.09122" lon="5.53524">
        <ele>1327.5</ele>
        <time>2022-08-12T10:07:02.000Z</time>
      </trkpt>
      <trkpt lat="45.09121" lon="5.53527">
        <ele>1327.2</ele>
        <time>2022-08-12T10:07:03.000Z</time>
      </trkpt>
      <trkpt lat="45.0912" lon="5.53536">
        <ele>1327.4</ele>
        <time>2022-08-12T10:07:05.000Z</time>
      </trkpt>
      <trkpt lat="45.0912" lon="5.53541">
        <ele>1327.8</ele>
        <time>2022-08-12T10:07:06.000Z</time>
      </trkpt>
      <trkpt lat="45.09122" lon="5.53547">
        <ele>1328.6</ele>
        <time>2022-08-12T10:07:08.000Z</time>
      </trkpt>
      <trkpt lat="45.09123" lon="5.53551">
        <ele>1329.2</ele>
        <time>2022-08-12T10:07:09.000Z</time>
      </trkpt>
      <trkpt lat="45.09124" lon="5.53552">
        <ele>1329.5</ele>
        <time>2022-08-12T10:07:10.000Z</time>
      </trkpt>
      <trkpt lat="45.09123" lon="5.53552">
        <ele>1329.4</ele>
        <time>2022-08-12T10:07:11.000Z</time>
      </trkpt>
      <trkpt lat="45.09123" lon="5.53554">
        <ele>1329.3</ele>
        <time>2022-08-12T10:07:12.000Z</time>
      </trkpt>
      <trkpt lat="45.09122" lon="5.53556">
        <ele>1329.1</ele>
        <time>2022-08-12T10:07:13.000Z</time>
      </trkpt>
      <trkpt lat="45.09121" lon="5.53557">
        <ele>1329</ele>
        <time>2022-08-12T10:07:14.000Z</time>
      </trkpt>
      <trkpt lat="45.0912" lon="5.5356">
        <ele>1328.7</ele>
        <time>2022-08-12T10:07:15.000Z</time>
      </trkpt>
      <trkpt lat="45.09118" lon="5.53562">
        <ele>1328.6</ele>
        <time>2022-08-12T10:07:16.000Z</time>
      </trkpt>
      <trkpt lat="45.09117" lon="5.53566">
        <ele>1328.6</ele>
        <time>2022-08-12T10:07:17.000Z</time>
      </trkpt>
      <trkpt lat="45.09117" lon="5.53568">
        <ele>1328.6</ele>
        <time>2022-08-12T10:07:18.000Z</time>
      </trkpt>
      <trkpt lat="45.09116" lon="5.5357">
        <ele>1328.5</ele>
        <time>2022-08-12T10:07:19.000Z</time>
      </trkpt>
      <trkpt lat="45.09116" lon="5.53572">
        <ele>1328.6</ele>
        <time>2022-08-12T10:07:20.000Z</time>
      </trkpt>
      <trkpt lat="45.09116" lon="5.53574">
        <ele>1328.7</ele>
        <time>2022-08-12T10:07:21.000Z</time>
      </trkpt>
      <trkpt lat="45.09115" lon="5.53576">
        <ele>1328.5</ele>
        <time>2022-08-12T10:07:22.000Z</time>
      </trkpt>
      <trkpt lat="45.09113" lon="5.53577">
        <ele>1328.1</ele>
        <time>2022-08-12T10:07:23.000Z</time>
      </trkpt>
      <trkpt lat="45.09112" lon="5.53578">
        <ele>1327.9</ele>
        <time>2022-08-12T10:07:24.000Z</time>
      </trkpt>
      <trkpt lat="45.0911" lon="5.5358">
        <ele>1327.4</ele>
        <time>2022-08-12T10:07:25.000Z</time>
      </trkpt>
      <trkpt lat="45.09108" lon="5.53583">
        <ele>1326.6</ele>
        <time>2022-08-12T10:07:26.000Z</time>
      </trkpt>
      <trkpt lat="45.09106" lon="5.53585">
        <ele>1325.6</ele>
        <time>2022-08-12T10:07:27.000Z</time>
      </trkpt>
      <trkpt lat="45.09105" lon="5.53586">
        <ele>1325.3</ele>
        <time>2022-08-12T10:07:28.000Z</time>
      </trkpt>
      <trkpt lat="45.09104" lon="5.53588">
        <ele>1325.4</ele>
        <time>2022-08-12T10:07:29.000Z</time>
      </trkpt>
      <trkpt lat="45.09105" lon="5.53588">
        <ele>1325.5</ele>
        <time>2022-08-12T10:07:30.000Z</time>
      </trkpt>
      <trkpt lat="45.09105" lon="5.53592">
        <ele>1325.9</ele>
        <time>2022-08-12T10:07:36.000Z</time>
      </trkpt>
      <trkpt lat="45.09105" lon="5.53593">
        <ele>1326.2</ele>
        <time>2022-08-12T10:07:37.000Z</time>
      </trkpt>
      <trkpt lat="45.09104" lon="5.53595">
        <ele>1326</ele>
        <time>2022-08-12T10:07:41.000Z</time>
      </trkpt>
      <trkpt lat="45.09103" lon="5.53596">
        <ele>1325.8</ele>
        <time>2022-08-12T10:07:42.000Z</time>
      </trkpt>
      <trkpt lat="45.091" lon="5.53604">
        <ele>1325.1</ele>
        <time>2022-08-12T10:07:46.000Z</time>
      </trkpt>
      <trkpt lat="45.09099" lon="5.53605">
        <ele>1325</ele>
        <time>2022-08-12T10:07:47.000Z</time>
      </trkpt>
      <trkpt lat="45.09098" lon="5.53607">
        <ele>1324.8</ele>
        <time>2022-08-12T10:07:48.000Z</time>
      </trkpt>
      <trkpt lat="45.09097" lon="5.53609">
        <ele>1324.5</ele>
        <time>2022-08-12T10:07:49.000Z</time>
      </trkpt>
      <trkpt lat="45.09096" lon="5.53611">
        <ele>1324.6</ele>
        <time>2022-08-12T10:07:50.000Z</time>
      </trkpt>
      <trkpt lat="45.09096" lon="5.53614">
        <ele>1325.2</ele>
        <time>2022-08-12T10:07:51.000Z</time>
      </trkpt>
      <trkpt lat="45.09097" lon="5.53617">
        <ele>1326</ele>
        <time>2022-08-12T10:07:52.000Z</time>
      </trkpt>
      <trkpt lat="45.09096" lon="5.53623">
        <ele>1326.6</ele>
        <time>2022-08-12T10:07:55.000Z</time>
      </trkpt>
      <trkpt lat="45.09096" lon="5.53624">
        <ele>1326.8</ele>
        <time>2022-08-12T10:07:56.000Z</time>
      </trkpt>
      <trkpt lat="45.09092" lon="5.53632">
        <ele>1326.6</ele>
        <time>2022-08-12T10:07:59.000Z</time>
      </trkpt>
      <trkpt lat="45.09089" lon="5.53636">
        <ele>1326</ele>
        <time>2022-08-12T10:08:00.000Z</time>
      </trkpt>
      <trkpt lat="45.09086" lon="5.53642">
        <ele>1325.7</ele>
        <time>2022-08-12T10:08:02.000Z</time>
      </trkpt>
      <trkpt lat="45.09086" lon="5.53644">
        <ele>1326</ele>
        <time>2022-08-12T10:08:03.000Z</time>
      </trkpt>
      <trkpt lat="45.09086" lon="5.53646">
        <ele>1326.4</ele>
        <time>2022-08-12T10:08:04.000Z</time>
      </trkpt>
      <trkpt lat="45.09085" lon="5.53648">
        <ele>1326.5</ele>
        <time>2022-08-12T10:08:05.000Z</time>
      </trkpt>
      <trkpt lat="45.09085" lon="5.5365">
        <ele>1326.7</ele>
        <time>2022-08-12T10:08:06.000Z</time>
      </trkpt>
      <trkpt lat="45.09085" lon="5.53651">
        <ele>1326.8</ele>
        <time>2022-08-12T10:08:07.000Z</time>
      </trkpt>
      <trkpt lat="45.09085" lon="5.53653">
        <ele>1327.2</ele>
        <time>2022-08-12T10:08:09.000Z</time>
      </trkpt>
      <trkpt lat="45.09085" lon="5.53656">
        <ele>1327.9</ele>
        <time>2022-08-12T10:08:10.000Z</time>
      </trkpt>
      <trkpt lat="45.09085" lon="5.53659">
        <ele>1328.6</ele>
        <time>2022-08-12T10:08:12.000Z</time>
      </trkpt>
      <trkpt lat="45.09085" lon="5.53662">
        <ele>1328.9</ele>
        <time>2022-08-12T10:08:14.000Z</time>
      </trkpt>
      <trkpt lat="45.09084" lon="5.53664">
        <ele>1328.7</ele>
        <time>2022-08-12T10:08:15.000Z</time>
      </trkpt>
      <trkpt lat="45.09082" lon="5.53668">
        <ele>1328.6</ele>
        <time>2022-08-12T10:08:16.000Z</time>
      </trkpt>
      <trkpt lat="45.09081" lon="5.5367">
        <ele>1328.5</ele>
        <time>2022-08-12T10:08:17.000Z</time>
      </trkpt>
      <trkpt lat="45.09079" lon="5.53672">
        <ele>1328</ele>
        <time>2022-08-12T10:08:18.000Z</time>
      </trkpt>
      <trkpt lat="45.09077" lon="5.53674">
        <ele>1327.4</ele>
        <time>2022-08-12T10:08:19.000Z</time>
      </trkpt>
      <trkpt lat="45.09074" lon="5.53675">
        <ele>1326.7</ele>
        <time>2022-08-12T10:08:20.000Z</time>
      </trkpt>
      <trkpt lat="45.09072" lon="5.53678">
        <ele>1326</ele>
        <time>2022-08-12T10:08:22.000Z</time>
      </trkpt>
      <trkpt lat="45.0907" lon="5.53681">
        <ele>1326</ele>
        <time>2022-08-12T10:08:24.000Z</time>
      </trkpt>
      <trkpt lat="45.0907" lon="5.53685">
        <ele>1326.7</ele>
        <time>2022-08-12T10:08:25.000Z</time>
      </trkpt>
      <trkpt lat="45.09069" lon="5.53689">
        <ele>1327.1</ele>
        <time>2022-08-12T10:08:26.000Z</time>
      </trkpt>
      <trkpt lat="45.09068" lon="5.53692">
        <ele>1327.5</ele>
        <time>2022-08-12T10:08:27.000Z</time>
      </trkpt>
      <trkpt lat="45.09068" lon="5.53693">
        <ele>1327.7</ele>
        <time>2022-08-12T10:08:28.000Z</time>
      </trkpt>
      <trkpt lat="45.09067" lon="5.53696">
        <ele>1328.4</ele>
        <time>2022-08-12T10:08:29.000Z</time>
      </trkpt>
      <trkpt lat="45.09066" lon="5.53703">
        <ele>1330</ele>
        <time>2022-08-12T10:08:31.000Z</time>
      </trkpt>
      <trkpt lat="45.09065" lon="5.53705">
        <ele>1330.2</ele>
        <time>2022-08-12T10:08:32.000Z</time>
      </trkpt>
      <trkpt lat="45.09064" lon="5.53706">
        <ele>1330.1</ele>
        <time>2022-08-12T10:08:33.000Z</time>
      </trkpt>
      <trkpt lat="45.09063" lon="5.53708">
        <ele>1330.2</ele>
        <time>2022-08-12T10:08:34.000Z</time>
      </trkpt>
      <trkpt lat="45.09062" lon="5.5371">
        <ele>1330.3</ele>
        <time>2022-08-12T10:08:35.000Z</time>
      </trkpt>
      <trkpt lat="45.09061" lon="5.53712">
        <ele>1330.5</ele>
        <time>2022-08-12T10:08:36.000Z</time>
      </trkpt>
      <trkpt lat="45.0906" lon="5.53713">
        <ele>1330.1</ele>
        <time>2022-08-12T10:08:37.000Z</time>
      </trkpt>
      <trkpt lat="45.09058" lon="5.53713">
        <ele>1329.5</ele>
        <time>2022-08-12T10:08:38.000Z</time>
      </trkpt>
      <trkpt lat="45.09057" lon="5.53715">
        <ele>1329.6</ele>
        <time>2022-08-12T10:08:39.000Z</time>
      </trkpt>
      <trkpt lat="45.09057" lon="5.53718">
        <ele>1330.5</ele>
        <time>2022-08-12T10:08:40.000Z</time>
      </trkpt>
      <trkpt lat="45.09058" lon="5.53721">
        <ele>1331.9</ele>
        <time>2022-08-12T10:08:41.000Z</time>
      </trkpt>
      <trkpt lat="45.09058" lon="5.53723">
        <ele>1332.6</ele>
        <time>2022-08-12T10:08:42.000Z</time>
      </trkpt>
      <trkpt lat="45.09058" lon="5.53727">
        <ele>1333.6</ele>
        <time>2022-08-12T10:08:43.000Z</time>
      </trkpt>
      <trkpt lat="45.09054" lon="5.53731">
        <ele>1333</ele>
        <time>2022-08-12T10:08:44.000Z</time>
      </trkpt>
      <trkpt lat="45.09052" lon="5.53733">
        <ele>1332.8</ele>
        <time>2022-08-12T10:08:45.000Z</time>
      </trkpt>
      <trkpt lat="45.0905" lon="5.53734">
        <ele>1332.2</ele>
        <time>2022-08-12T10:08:46.000Z</time>
      </trkpt>
      <trkpt lat="45.09049" lon="5.53735">
        <ele>1332.2</ele>
        <time>2022-08-12T10:08:47.000Z</time>
      </trkpt>
      <trkpt lat="45.09048" lon="5.53738">
        <ele>1333.2</ele>
        <time>2022-08-12T10:08:48.000Z</time>
      </trkpt>
      <trkpt lat="45.09048" lon="5.53741">
        <ele>1334</ele>
        <time>2022-08-12T10:08:49.000Z</time>
      </trkpt>
      <trkpt lat="45.09047" lon="5.53743">
        <ele>1334.1</ele>
        <time>2022-08-12T10:08:50.000Z</time>
      </trkpt>
      <trkpt lat="45.09045" lon="5.53745">
        <ele>1333.8</ele>
        <time>2022-08-12T10:08:51.000Z</time>
      </trkpt>
      <trkpt lat="45.09043" lon="5.53746">
        <ele>1333.4</ele>
        <time>2022-08-12T10:08:52.000Z</time>
      </trkpt>
      <trkpt lat="45.09043" lon="5.53748">
        <ele>1334</ele>
        <time>2022-08-12T10:08:54.000Z</time>
      </trkpt>
      <trkpt lat="45.09043" lon="5.53749">
        <ele>1334.1</ele>
        <time>2022-08-12T10:08:55.000Z</time>
      </trkpt>
      <trkpt lat="45.09039" lon="5.53752">
        <ele>1333.1</ele>
        <time>2022-08-12T10:08:58.000Z</time>
      </trkpt>
      <trkpt lat="45.09037" lon="5.53754">
        <ele>1333.2</ele>
        <time>2022-08-12T10:08:59.000Z</time>
      </trkpt>
      <trkpt lat="45.09036" lon="5.53758">
        <ele>1333.8</ele>
        <time>2022-08-12T10:09:00.000Z</time>
      </trkpt>
      <trkpt lat="45.0903" lon="5.53764">
        <ele>1333.2</ele>
        <time>2022-08-12T10:09:02.000Z</time>
      </trkpt>
      <trkpt lat="45.09027" lon="5.53767">
        <ele>1332.6</ele>
        <time>2022-08-12T10:09:03.000Z</time>
      </trkpt>
      <trkpt lat="45.09024" lon="5.5377">
        <ele>1332.3</ele>
        <time>2022-08-12T10:09:04.000Z</time>
      </trkpt>
      <trkpt lat="45.09022" lon="5.53775">
        <ele>1332.6</ele>
        <time>2022-08-12T10:09:05.000Z</time>
      </trkpt>
      <trkpt lat="45.0902" lon="5.53777">
        <ele>1332.3</ele>
        <time>2022-08-12T10:09:06.000Z</time>
      </trkpt>
      <trkpt lat="45.09017" lon="5.53781">
        <ele>1332.3</ele>
        <time>2022-08-12T10:09:07.000Z</time>
      </trkpt>
      <trkpt lat="45.09011" lon="5.53791">
        <ele>1332.6</ele>
        <time>2022-08-12T10:09:11.000Z</time>
      </trkpt>
      <trkpt lat="45.0901" lon="5.53794">
        <ele>1333.5</ele>
        <time>2022-08-12T10:09:12.000Z</time>
      </trkpt>
      <trkpt lat="45.0901" lon="5.53798">
        <ele>1334.8</ele>
        <time>2022-08-12T10:09:13.000Z</time>
      </trkpt>
      <trkpt lat="45.09009" lon="5.538">
        <ele>1334.9</ele>
        <time>2022-08-12T10:09:14.000Z</time>
      </trkpt>
      <trkpt lat="45.09005" lon="5.53805">
        <ele>1334.6</ele>
        <time>2022-08-12T10:09:16.000Z</time>
      </trkpt>
      <trkpt lat="45.09004" lon="5.53807">
        <ele>1334.7</ele>
        <time>2022-08-12T10:09:17.000Z</time>
      </trkpt>
      <trkpt lat="45.09002" lon="5.53809">
        <ele>1334.3</ele>
        <time>2022-08-12T10:09:18.000Z</time>
      </trkpt>
      <trkpt lat="45.08995" lon="5.53816">
        <ele>1333.3</ele>
        <time>2022-08-12T10:09:21.000Z</time>
      </trkpt>
      <trkpt lat="45.08993" lon="5.53818">
        <ele>1332.9</ele>
        <time>2022-08-12T10:09:22.000Z</time>
      </trkpt>
      <trkpt lat="45.08992" lon="5.5382">
        <ele>1333.1</ele>
        <time>2022-08-12T10:09:23.000Z</time>
      </trkpt>
      <trkpt lat="45.08991" lon="5.53822">
        <ele>1333.3</ele>
        <time>2022-08-12T10:09:24.000Z</time>
      </trkpt>
      <trkpt lat="45.0899" lon="5.53823">
        <ele>1333.3</ele>
        <time>2022-08-12T10:09:25.000Z</time>
      </trkpt>
      <trkpt lat="45.0899" lon="5.53824">
        <ele>1333.4</ele>
        <time>2022-08-12T10:09:26.000Z</time>
      </trkpt>
      <trkpt lat="45.08989" lon="5.53826">
        <ele>1333.7</ele>
        <time>2022-08-12T10:09:27.000Z</time>
      </trkpt>
      <trkpt lat="45.08988" lon="5.53828">
        <ele>1334.1</ele>
        <time>2022-08-12T10:09:28.000Z</time>
      </trkpt>
      <trkpt lat="45.08985" lon="5.53832">
        <ele>1334</ele>
        <time>2022-08-12T10:09:30.000Z</time>
      </trkpt>
      <trkpt lat="45.08984" lon="5.53833">
        <ele>1333.8</ele>
        <time>2022-08-12T10:09:31.000Z</time>
      </trkpt>
      <trkpt lat="45.08982" lon="5.53834">
        <ele>1333.2</ele>
        <time>2022-08-12T10:09:32.000Z</time>
      </trkpt>
      <trkpt lat="45.0898" lon="5.53836">
        <ele>1332.6</ele>
        <time>2022-08-12T10:09:33.000Z</time>
      </trkpt>
      <trkpt lat="45.08978" lon="5.53837">
        <ele>1332.3</ele>
        <time>2022-08-12T10:09:34.000Z</time>
      </trkpt>
      <trkpt lat="45.08977" lon="5.53838">
        <ele>1332.1</ele>
        <time>2022-08-12T10:09:35.000Z</time>
      </trkpt>
      <trkpt lat="45.08973" lon="5.53842">
        <ele>1331.5</ele>
        <time>2022-08-12T10:09:38.000Z</time>
      </trkpt>
      <trkpt lat="45.08973" lon="5.53843">
        <ele>1331.9</ele>
        <time>2022-08-12T10:09:39.000Z</time>
      </trkpt>
      <trkpt lat="45.08973" lon="5.53846">
        <ele>1332.8</ele>
        <time>2022-08-12T10:09:40.000Z</time>
      </trkpt>
      <trkpt lat="45.08972" lon="5.53848">
        <ele>1332.9</ele>
        <time>2022-08-12T10:09:41.000Z</time>
      </trkpt>
      <trkpt lat="45.08971" lon="5.5385">
        <ele>1333.7</ele>
        <time>2022-08-12T10:09:42.000Z</time>
      </trkpt>
      <trkpt lat="45.08971" lon="5.53852">
        <ele>1334.1</ele>
        <time>2022-08-12T10:09:43.000Z</time>
      </trkpt>
      <trkpt lat="45.08965" lon="5.5386">
        <ele>1334.3</ele>
        <time>2022-08-12T10:09:53.000Z</time>
      </trkpt>
      <trkpt lat="45.08963" lon="5.53861">
        <ele>1333.9</ele>
        <time>2022-08-12T10:09:54.000Z</time>
      </trkpt>
      <trkpt lat="45.08962" lon="5.53863">
        <ele>1333.7</ele>
        <time>2022-08-12T10:09:55.000Z</time>
      </trkpt>
      <trkpt lat="45.08957" lon="5.53866">
        <ele>1332.5</ele>
        <time>2022-08-12T10:09:57.000Z</time>
      </trkpt>
      <trkpt lat="45.08955" lon="5.53867">
        <ele>1331.8</ele>
        <time>2022-08-12T10:09:58.000Z</time>
      </trkpt>
      <trkpt lat="45.08954" lon="5.53867">
        <ele>1331.2</ele>
        <time>2022-08-12T10:09:59.000Z</time>
      </trkpt>
      <trkpt lat="45.08952" lon="5.53869">
        <ele>1330.8</ele>
        <time>2022-08-12T10:10:00.000Z</time>
      </trkpt>
      <trkpt lat="45.08951" lon="5.53871">
        <ele>1330.8</ele>
        <time>2022-08-12T10:10:01.000Z</time>
      </trkpt>
      <trkpt lat="45.08948" lon="5.53873">
        <ele>1330.5</ele>
        <time>2022-08-12T10:10:02.000Z</time>
      </trkpt>
      <trkpt lat="45.08946" lon="5.53876">
        <ele>1329.9</ele>
        <time>2022-08-12T10:10:03.000Z</time>
      </trkpt>
      <trkpt lat="45.08944" lon="5.53878">
        <ele>1329.7</ele>
        <time>2022-08-12T10:10:04.000Z</time>
      </trkpt>
      <trkpt lat="45.0894" lon="5.53884">
        <ele>1330.1</ele>
        <time>2022-08-12T10:10:07.000Z</time>
      </trkpt>
      <trkpt lat="45.08939" lon="5.53886">
        <ele>1329.9</ele>
        <time>2022-08-12T10:10:09.000Z</time>
      </trkpt>
      <trkpt lat="45.08938" lon="5.53887">
        <ele>1330.1</ele>
        <time>2022-08-12T10:10:10.000Z</time>
      </trkpt>
      <trkpt lat="45.08938" lon="5.53889">
        <ele>1330.2</ele>
        <time>2022-08-12T10:10:11.000Z</time>
      </trkpt>
      <trkpt lat="45.08934" lon="5.53891">
        <ele>1329.3</ele>
        <time>2022-08-12T10:10:13.000Z</time>
      </trkpt>
      <trkpt lat="45.0893" lon="5.53891">
        <ele>1328.1</ele>
        <time>2022-08-12T10:10:14.000Z</time>
      </trkpt>
      <trkpt lat="45.0893" lon="5.53892">
        <ele>1327.9</ele>
        <time>2022-08-12T10:10:15.000Z</time>
      </trkpt>
      <trkpt lat="45.0893" lon="5.53893">
        <ele>1328</ele>
        <time>2022-08-12T10:10:16.000Z</time>
      </trkpt>
      <trkpt lat="45.08929" lon="5.53894">
        <ele>1328</ele>
        <time>2022-08-12T10:10:17.000Z</time>
      </trkpt>
      <trkpt lat="45.08928" lon="5.53897">
        <ele>1328.3</ele>
        <time>2022-08-12T10:10:18.000Z</time>
      </trkpt>
      <trkpt lat="45.08925" lon="5.539">
        <ele>1327.9</ele>
        <time>2022-08-12T10:10:19.000Z</time>
      </trkpt>
      <trkpt lat="45.08922" lon="5.53902">
        <ele>1327.4</ele>
        <time>2022-08-12T10:10:20.000Z</time>
      </trkpt>
      <trkpt lat="45.08921" lon="5.53904">
        <ele>1326.9</ele>
        <time>2022-08-12T10:10:21.000Z</time>
      </trkpt>
      <trkpt lat="45.08919" lon="5.53905">
        <ele>1326.7</ele>
        <time>2022-08-12T10:10:22.000Z</time>
      </trkpt>
      <trkpt lat="45.08916" lon="5.53911">
        <ele>1326.4</ele>
        <time>2022-08-12T10:10:24.000Z</time>
      </trkpt>
      <trkpt lat="45.08913" lon="5.53915">
        <ele>1326.1</ele>
        <time>2022-08-12T10:10:26.000Z</time>
      </trkpt>
      <trkpt lat="45.08911" lon="5.53916">
        <ele>1325.4</ele>
        <time>2022-08-12T10:10:28.000Z</time>
      </trkpt>
      <trkpt lat="45.08897" lon="5.53922">
        <ele>1321.2</ele>
        <time>2022-08-12T10:10:31.000Z</time>
      </trkpt>
      <trkpt lat="45.08896" lon="5.53924">
        <ele>1321.1</ele>
        <time>2022-08-12T10:10:32.000Z</time>
      </trkpt>
      <trkpt lat="45.08895" lon="5.53925">
        <ele>1320.7</ele>
        <time>2022-08-12T10:10:33.000Z</time>
      </trkpt>
      <trkpt lat="45.08894" lon="5.53927">
        <ele>1320.7</ele>
        <time>2022-08-12T10:10:34.000Z</time>
      </trkpt>
      <trkpt lat="45.08893" lon="5.53928">
        <ele>1320.4</ele>
        <time>2022-08-12T10:10:36.000Z</time>
      </trkpt>
      <trkpt lat="45.08892" lon="5.53928">
        <ele>1320.2</ele>
        <time>2022-08-12T10:10:37.000Z</time>
      </trkpt>
      <trkpt lat="45.08891" lon="5.5393">
        <ele>1319.7</ele>
        <time>2022-08-12T10:10:38.000Z</time>
      </trkpt>
      <trkpt lat="45.0889" lon="5.5393">
        <ele>1319.6</ele>
        <time>2022-08-12T10:10:39.000Z</time>
      </trkpt>
      <trkpt lat="45.0889" lon="5.53931">
        <ele>1319.4</ele>
        <time>2022-08-12T10:10:40.000Z</time>
      </trkpt>
      <trkpt lat="45.08883" lon="5.53938">
        <ele>1317.8</ele>
        <time>2022-08-12T10:10:44.000Z</time>
      </trkpt>
      <trkpt lat="45.08882" lon="5.53941">
        <ele>1317.8</ele>
        <time>2022-08-12T10:10:45.000Z</time>
      </trkpt>
      <trkpt lat="45.08882" lon="5.53944">
        <ele>1318.1</ele>
        <time>2022-08-12T10:10:46.000Z</time>
      </trkpt>
      <trkpt lat="45.0888" lon="5.53945">
        <ele>1317.5</ele>
        <time>2022-08-12T10:10:47.000Z</time>
      </trkpt>
      <trkpt lat="45.08879" lon="5.53944">
        <ele>1317</ele>
        <time>2022-08-12T10:10:48.000Z</time>
      </trkpt>
      <trkpt lat="45.08878" lon="5.53945">
        <ele>1316.6</ele>
        <time>2022-08-12T10:10:49.000Z</time>
      </trkpt>
      <trkpt lat="45.08872" lon="5.5395">
        <ele>1315.2</ele>
        <time>2022-08-12T10:10:51.000Z</time>
      </trkpt>
      <trkpt lat="45.08869" lon="5.53957">
        <ele>1315</ele>
        <time>2022-08-12T10:10:53.000Z</time>
      </trkpt>
      <trkpt lat="45.08866" lon="5.53972">
        <ele>1316</ele>
        <time>2022-08-12T10:10:56.000Z</time>
      </trkpt>
      <trkpt lat="45.08863" lon="5.53976">
        <ele>1315.3</ele>
        <time>2022-08-12T10:10:57.000Z</time>
      </trkpt>
      <trkpt lat="45.0886" lon="5.53982">
        <ele>1314.4</ele>
        <time>2022-08-12T10:10:58.000Z</time>
      </trkpt>
      <trkpt lat="45.08855" lon="5.53986">
        <ele>1313.3</ele>
        <time>2022-08-12T10:10:59.000Z</time>
      </trkpt>
      <trkpt lat="45.08854" lon="5.53991">
        <ele>1313</ele>
        <time>2022-08-12T10:11:00.000Z</time>
      </trkpt>
      <trkpt lat="45.08852" lon="5.53994">
        <ele>1312.7</ele>
        <time>2022-08-12T10:11:01.000Z</time>
      </trkpt>
      <trkpt lat="45.08851" lon="5.53997">
        <ele>1312.8</ele>
        <time>2022-08-12T10:11:02.000Z</time>
      </trkpt>
      <trkpt lat="45.0885" lon="5.53999">
        <ele>1312.7</ele>
        <time>2022-08-12T10:11:03.000Z</time>
      </trkpt>
      <trkpt lat="45.08849" lon="5.54001">
        <ele>1312.2</ele>
        <time>2022-08-12T10:11:04.000Z</time>
      </trkpt>
      <trkpt lat="45.08847" lon="5.54">
        <ele>1311.3</ele>
        <time>2022-08-12T10:11:05.000Z</time>
      </trkpt>
      <trkpt lat="45.08846" lon="5.53999">
        <ele>1311</ele>
        <time>2022-08-12T10:11:06.000Z</time>
      </trkpt>
      <trkpt lat="45.08846" lon="5.54">
        <ele>1311</ele>
        <time>2022-08-12T10:11:07.000Z</time>
      </trkpt>
      <trkpt lat="45.08846" lon="5.54003">
        <ele>1311.4</ele>
        <time>2022-08-12T10:11:10.000Z</time>
      </trkpt>
      <trkpt lat="45.08846" lon="5.54005">
        <ele>1311.4</ele>
        <time>2022-08-12T10:11:11.000Z</time>
      </trkpt>
      <trkpt lat="45.08844" lon="5.54006">
        <ele>1311</ele>
        <time>2022-08-12T10:11:12.000Z</time>
      </trkpt>
      <trkpt lat="45.08841" lon="5.54011">
        <ele>1310.3</ele>
        <time>2022-08-12T10:11:14.000Z</time>
      </trkpt>
      <trkpt lat="45.08841" lon="5.54014">
        <ele>1310.6</ele>
        <time>2022-08-12T10:11:15.000Z</time>
      </trkpt>
      <trkpt lat="45.0884" lon="5.54015">
        <ele>1310.7</ele>
        <time>2022-08-12T10:11:16.000Z</time>
      </trkpt>
      <trkpt lat="45.0884" lon="5.54017">
        <ele>1310.6</ele>
        <time>2022-08-12T10:11:17.000Z</time>
      </trkpt>
      <trkpt lat="45.08837" lon="5.54023">
        <ele>1310.5</ele>
        <time>2022-08-12T10:11:19.000Z</time>
      </trkpt>
      <trkpt lat="45.08835" lon="5.54026">
        <ele>1310.3</ele>
        <time>2022-08-12T10:11:20.000Z</time>
      </trkpt>
      <trkpt lat="45.08833" lon="5.54029">
        <ele>1309.9</ele>
        <time>2022-08-12T10:11:21.000Z</time>
      </trkpt>
      <trkpt lat="45.08831" lon="5.54037">
        <ele>1310.3</ele>
        <time>2022-08-12T10:11:23.000Z</time>
      </trkpt>
      <trkpt lat="45.0883" lon="5.5404">
        <ele>1310.3</ele>
        <time>2022-08-12T10:11:24.000Z</time>
      </trkpt>
      <trkpt lat="45.08829" lon="5.54041">
        <ele>1310.2</ele>
        <time>2022-08-12T10:11:25.000Z</time>
      </trkpt>
      <trkpt lat="45.0883" lon="5.54044">
        <ele>1310.6</ele>
        <time>2022-08-12T10:11:26.000Z</time>
      </trkpt>
      <trkpt lat="45.0883" lon="5.54048">
        <ele>1311.3</ele>
        <time>2022-08-12T10:11:27.000Z</time>
      </trkpt>
      <trkpt lat="45.08831" lon="5.54051">
        <ele>1311.6</ele>
        <time>2022-08-12T10:11:28.000Z</time>
      </trkpt>
      <trkpt lat="45.08829" lon="5.54053">
        <ele>1311.5</ele>
        <time>2022-08-12T10:11:29.000Z</time>
      </trkpt>
      <trkpt lat="45.08828" lon="5.54054">
        <ele>1311.2</ele>
        <time>2022-08-12T10:11:30.000Z</time>
      </trkpt>
      <trkpt lat="45.08824" lon="5.54053">
        <ele>1310.1</ele>
        <time>2022-08-12T10:11:31.000Z</time>
      </trkpt>
      <trkpt lat="45.08821" lon="5.54051">
        <ele>1308.9</ele>
        <time>2022-08-12T10:11:32.000Z</time>
      </trkpt>
      <trkpt lat="45.0882" lon="5.54049">
        <ele>1308.2</ele>
        <time>2022-08-12T10:11:33.000Z</time>
      </trkpt>
      <trkpt lat="45.08818" lon="5.54047">
        <ele>1307.3</ele>
        <time>2022-08-12T10:11:34.000Z</time>
      </trkpt>
      <trkpt lat="45.08818" lon="5.54044">
        <ele>1306.8</ele>
        <time>2022-08-12T10:11:35.000Z</time>
      </trkpt>
      <trkpt lat="45.0882" lon="5.54034">
        <ele>1306</ele>
        <time>2022-08-12T10:11:38.000Z</time>
      </trkpt>
      <trkpt lat="45.08819" lon="5.54032">
        <ele>1305.5</ele>
        <time>2022-08-12T10:11:39.000Z</time>
      </trkpt>
      <trkpt lat="45.08817" lon="5.5403">
        <ele>1304.6</ele>
        <time>2022-08-12T10:11:40.000Z</time>
      </trkpt>
      <trkpt lat="45.08814" lon="5.54032">
        <ele>1303.6</ele>
        <time>2022-08-12T10:11:41.000Z</time>
      </trkpt>
      <trkpt lat="45.08813" lon="5.54034">
        <ele>1303.6</ele>
        <time>2022-08-12T10:11:42.000Z</time>
      </trkpt>
      <trkpt lat="45.08812" lon="5.54034">
        <ele>1303.4</ele>
        <time>2022-08-12T10:11:44.000Z</time>
      </trkpt>
      <trkpt lat="45.08811" lon="5.54034">
        <ele>1303</ele>
        <time>2022-08-12T10:11:45.000Z</time>
      </trkpt>
      <trkpt lat="45.0881" lon="5.54034">
        <ele>1302.6</ele>
        <time>2022-08-12T10:11:47.000Z</time>
      </trkpt>
      <trkpt lat="45.08808" lon="5.54034">
        <ele>1302.1</ele>
        <time>2022-08-12T10:11:48.000Z</time>
      </trkpt>
      <trkpt lat="45.08807" lon="5.54036">
        <ele>1302</ele>
        <time>2022-08-12T10:11:49.000Z</time>
      </trkpt>
      <trkpt lat="45.08805" lon="5.54038">
        <ele>1301.8</ele>
        <time>2022-08-12T10:11:50.000Z</time>
      </trkpt>
      <trkpt lat="45.08804" lon="5.54041">
        <ele>1301.9</ele>
        <time>2022-08-12T10:11:51.000Z</time>
      </trkpt>
      <trkpt lat="45.08803" lon="5.54043">
        <ele>1302</ele>
        <time>2022-08-12T10:11:52.000Z</time>
      </trkpt>
      <trkpt lat="45.08802" lon="5.54045">
        <ele>1302</ele>
        <time>2022-08-12T10:11:53.000Z</time>
      </trkpt>
      <trkpt lat="45.088" lon="5.54053">
        <ele>1302.6</ele>
        <time>2022-08-12T10:11:56.000Z</time>
      </trkpt>
      <trkpt lat="45.08798" lon="5.54059">
        <ele>1302.9</ele>
        <time>2022-08-12T10:11:58.000Z</time>
      </trkpt>
      <trkpt lat="45.08795" lon="5.54062">
        <ele>1302.4</ele>
        <time>2022-08-12T10:11:59.000Z</time>
      </trkpt>
      <trkpt lat="45.08793" lon="5.54064">
        <ele>1301.9</ele>
        <time>2022-08-12T10:12:00.000Z</time>
      </trkpt>
      <trkpt lat="45.08791" lon="5.54067">
        <ele>1301.7</ele>
        <time>2022-08-12T10:12:01.000Z</time>
      </trkpt>
      <trkpt lat="45.08788" lon="5.54073">
        <ele>1301.6</ele>
        <time>2022-08-12T10:12:03.000Z</time>
      </trkpt>
      <trkpt lat="45.08787" lon="5.54074">
        <ele>1301.4</ele>
        <time>2022-08-12T10:12:04.000Z</time>
      </trkpt>
      <trkpt lat="45.08785" lon="5.54076">
        <ele>1301.3</ele>
        <time>2022-08-12T10:12:05.000Z</time>
      </trkpt>
      <trkpt lat="45.08784" lon="5.54079">
        <ele>1301.1</ele>
        <time>2022-08-12T10:12:06.000Z</time>
      </trkpt>
      <trkpt lat="45.08781" lon="5.54081">
        <ele>1300.7</ele>
        <time>2022-08-12T10:12:07.000Z</time>
      </trkpt>
      <trkpt lat="45.08779" lon="5.54082">
        <ele>1300.2</ele>
        <time>2022-08-12T10:12:08.000Z</time>
      </trkpt>
      <trkpt lat="45.08778" lon="5.54084">
        <ele>1300.1</ele>
        <time>2022-08-12T10:12:09.000Z</time>
      </trkpt>
      <trkpt lat="45.08777" lon="5.54089">
        <ele>1300.3</ele>
        <time>2022-08-12T10:12:10.000Z</time>
      </trkpt>
      <trkpt lat="45.08777" lon="5.54095">
        <ele>1301</ele>
        <time>2022-08-12T10:12:11.000Z</time>
      </trkpt>
      <trkpt lat="45.08778" lon="5.54098">
        <ele>1301.6</ele>
        <time>2022-08-12T10:12:12.000Z</time>
      </trkpt>
      <trkpt lat="45.08773" lon="5.54115">
        <ele>1301.8</ele>
        <time>2022-08-12T10:12:15.000Z</time>
      </trkpt>
      <trkpt lat="45.08773" lon="5.54118">
        <ele>1301.9</ele>
        <time>2022-08-12T10:12:16.000Z</time>
      </trkpt>
      <trkpt lat="45.08771" lon="5.54121">
        <ele>1301.6</ele>
        <time>2022-08-12T10:12:17.000Z</time>
      </trkpt>
      <trkpt lat="45.08767" lon="5.54126">
        <ele>1300.9</ele>
        <time>2022-08-12T10:12:18.000Z</time>
      </trkpt>
      <trkpt lat="45.08765" lon="5.54129">
        <ele>1300.9</ele>
        <time>2022-08-12T10:12:19.000Z</time>
      </trkpt>
      <trkpt lat="45.08764" lon="5.54132">
        <ele>1300.8</ele>
        <time>2022-08-12T10:12:20.000Z</time>
      </trkpt>
      <trkpt lat="45.08763" lon="5.54134">
        <ele>1300.8</ele>
        <time>2022-08-12T10:12:21.000Z</time>
      </trkpt>
      <trkpt lat="45.08761" lon="5.54139">
        <ele>1300.8</ele>
        <time>2022-08-12T10:12:23.000Z</time>
      </trkpt>
      <trkpt lat="45.08759" lon="5.54141">
        <ele>1300.5</ele>
        <time>2022-08-12T10:12:24.000Z</time>
      </trkpt>
      <trkpt lat="45.08758" lon="5.54144">
        <ele>1300.3</ele>
        <time>2022-08-12T10:12:25.000Z</time>
      </trkpt>
      <trkpt lat="45.08752" lon="5.54152">
        <ele>1299.5</ele>
        <time>2022-08-12T10:12:28.000Z</time>
      </trkpt>
      <trkpt lat="45.08738" lon="5.54162">
        <ele>1296.3</ele>
        <time>2022-08-12T10:12:32.000Z</time>
      </trkpt>
      <trkpt lat="45.08736" lon="5.54162">
        <ele>1295.8</ele>
        <time>2022-08-12T10:12:33.000Z</time>
      </trkpt>
      <trkpt lat="45.08735" lon="5.54161">
        <ele>1295.6</ele>
        <time>2022-08-12T10:12:34.000Z</time>
      </trkpt>
      <trkpt lat="45.08735" lon="5.54163">
        <ele>1295.6</ele>
        <time>2022-08-12T10:12:35.000Z</time>
      </trkpt>
      <trkpt lat="45.08733" lon="5.54165">
        <ele>1295.6</ele>
        <time>2022-08-12T10:12:36.000Z</time>
      </trkpt>
      <trkpt lat="45.08731" lon="5.54167">
        <ele>1295.3</ele>
        <time>2022-08-12T10:12:37.000Z</time>
      </trkpt>
      <trkpt lat="45.0873" lon="5.54167">
        <ele>1295</ele>
        <time>2022-08-12T10:12:38.000Z</time>
      </trkpt>
      <trkpt lat="45.08729" lon="5.54168">
        <ele>1294.7</ele>
        <time>2022-08-12T10:12:39.000Z</time>
      </trkpt>
      <trkpt lat="45.08727" lon="5.54168">
        <ele>1294.4</ele>
        <time>2022-08-12T10:12:40.000Z</time>
      </trkpt>
      <trkpt lat="45.08726" lon="5.5417">
        <ele>1294.1</ele>
        <time>2022-08-12T10:12:41.000Z</time>
      </trkpt>
      <trkpt lat="45.08725" lon="5.54173">
        <ele>1294.2</ele>
        <time>2022-08-12T10:12:42.000Z</time>
      </trkpt>
      <trkpt lat="45.08725" lon="5.54175">
        <ele>1294.4</ele>
        <time>2022-08-12T10:12:43.000Z</time>
      </trkpt>
      <trkpt lat="45.08725" lon="5.54176">
        <ele>1294.5</ele>
        <time>2022-08-12T10:12:44.000Z</time>
      </trkpt>
      <trkpt lat="45.08725" lon="5.54177">
        <ele>1294.5</ele>
        <time>2022-08-12T10:12:45.000Z</time>
      </trkpt>
      <trkpt lat="45.08724" lon="5.54178">
        <ele>1294.3</ele>
        <time>2022-08-12T10:12:46.000Z</time>
      </trkpt>
      <trkpt lat="45.08724" lon="5.54181">
        <ele>1294.4</ele>
        <time>2022-08-12T10:12:47.000Z</time>
      </trkpt>
      <trkpt lat="45.08725" lon="5.54184">
        <ele>1294.8</ele>
        <time>2022-08-12T10:12:48.000Z</time>
      </trkpt>
      <trkpt lat="45.08725" lon="5.54187">
        <ele>1295.1</ele>
        <time>2022-08-12T10:12:49.000Z</time>
      </trkpt>
      <trkpt lat="45.08719" lon="5.54196">
        <ele>1294.2</ele>
        <time>2022-08-12T10:12:52.000Z</time>
      </trkpt>
      <trkpt lat="45.08718" lon="5.54199">
        <ele>1294.3</ele>
        <time>2022-08-12T10:12:53.000Z</time>
      </trkpt>
      <trkpt lat="45.08718" lon="5.54204">
        <ele>1294.5</ele>
        <time>2022-08-12T10:12:54.000Z</time>
      </trkpt>
      <trkpt lat="45.08717" lon="5.54208">
        <ele>1294.7</ele>
        <time>2022-08-12T10:12:55.000Z</time>
      </trkpt>
      <trkpt lat="45.08716" lon="5.54213">
        <ele>1294.8</ele>
        <time>2022-08-12T10:12:56.000Z</time>
      </trkpt>
      <trkpt lat="45.08714" lon="5.54217">
        <ele>1294.7</ele>
        <time>2022-08-12T10:12:57.000Z</time>
      </trkpt>
      <trkpt lat="45.0871" lon="5.54221">
        <ele>1294.3</ele>
        <time>2022-08-12T10:12:58.000Z</time>
      </trkpt>
      <trkpt lat="45.08706" lon="5.54226">
        <ele>1293.6</ele>
        <time>2022-08-12T10:12:59.000Z</time>
      </trkpt>
      <trkpt lat="45.08702" lon="5.5423">
        <ele>1293.2</ele>
        <time>2022-08-12T10:13:00.000Z</time>
      </trkpt>
      <trkpt lat="45.087" lon="5.54234">
        <ele>1292.9</ele>
        <time>2022-08-12T10:13:01.000Z</time>
      </trkpt>
      <trkpt lat="45.08699" lon="5.54237">
        <ele>1293</ele>
        <time>2022-08-12T10:13:02.000Z</time>
      </trkpt>
      <trkpt lat="45.087" lon="5.5424">
        <ele>1293.3</ele>
        <time>2022-08-12T10:13:03.000Z</time>
      </trkpt>
      <trkpt lat="45.08701" lon="5.54243">
        <ele>1293.7</ele>
        <time>2022-08-12T10:13:04.000Z</time>
      </trkpt>
      <trkpt lat="45.08701" lon="5.54244">
        <ele>1293.7</ele>
        <time>2022-08-12T10:13:05.000Z</time>
      </trkpt>
      <trkpt lat="45.087" lon="5.54245">
        <ele>1293.7</ele>
        <time>2022-08-12T10:13:06.000Z</time>
      </trkpt>
      <trkpt lat="45.08699" lon="5.54246">
        <ele>1293.6</ele>
        <time>2022-08-12T10:13:07.000Z</time>
      </trkpt>
      <trkpt lat="45.08699" lon="5.54247">
        <ele>1293.5</ele>
        <time>2022-08-12T10:13:08.000Z</time>
      </trkpt>
      <trkpt lat="45.08698" lon="5.54249">
        <ele>1293.5</ele>
        <time>2022-08-12T10:13:09.000Z</time>
      </trkpt>
      <trkpt lat="45.08698" lon="5.5425">
        <ele>1293.6</ele>
        <time>2022-08-12T10:13:10.000Z</time>
      </trkpt>
      <trkpt lat="45.08698" lon="5.54249">
        <ele>1293.6</ele>
        <time>2022-08-12T10:13:12.000Z</time>
      </trkpt>
      <trkpt lat="45.08696" lon="5.54251">
        <ele>1293.2</ele>
        <time>2022-08-12T10:13:58.000Z</time>
      </trkpt>
      <trkpt lat="45.08696" lon="5.54247">
        <ele>1293</ele>
        <time>2022-08-12T10:14:08.000Z</time>
      </trkpt>
      <trkpt lat="45.08698" lon="5.54245">
        <ele>1293.4</ele>
        <time>2022-08-12T10:14:11.000Z</time>
      </trkpt>
      <trkpt lat="45.08699" lon="5.54245">
        <ele>1293.4</ele>
        <time>2022-08-12T10:14:12.000Z</time>
      </trkpt>
      <trkpt lat="45.08698" lon="5.54245">
        <ele>1293.4</ele>
        <time>2022-08-12T10:14:16.000Z</time>
      </trkpt>
      <trkpt lat="45.08699" lon="5.54244">
        <ele>1293.4</ele>
        <time>2022-08-12T10:14:19.000Z</time>
      </trkpt>
      <trkpt lat="45.087" lon="5.54243">
        <ele>1293.5</ele>
        <time>2022-08-12T10:14:20.000Z</time>
      </trkpt>
      <trkpt lat="45.08704" lon="5.54237">
        <ele>1293.9</ele>
        <time>2022-08-12T10:14:24.000Z</time>
      </trkpt>
      <trkpt lat="45.08705" lon="5.54235">
        <ele>1294.1</ele>
        <time>2022-08-12T10:14:26.000Z</time>
      </trkpt>
      <trkpt lat="45.08706" lon="5.54234">
        <ele>1294.2</ele>
        <time>2022-08-12T10:14:27.000Z</time>
      </trkpt>
      <trkpt lat="45.08708" lon="5.54234">
        <ele>1294.5</ele>
        <time>2022-08-12T10:14:28.000Z</time>
      </trkpt>
      <trkpt lat="45.08709" lon="5.54234">
        <ele>1294.8</ele>
        <time>2022-08-12T10:14:29.000Z</time>
      </trkpt>
      <trkpt lat="45.08711" lon="5.54234">
        <ele>1295.2</ele>
        <time>2022-08-12T10:14:31.000Z</time>
      </trkpt>
      <trkpt lat="45.08712" lon="5.54231">
        <ele>1295.3</ele>
        <time>2022-08-12T10:14:33.000Z</time>
      </trkpt>
      <trkpt lat="45.08713" lon="5.5423">
        <ele>1295.3</ele>
        <time>2022-08-12T10:14:34.000Z</time>
      </trkpt>
      <trkpt lat="45.08713" lon="5.54228">
        <ele>1295.3</ele>
        <time>2022-08-12T10:14:35.000Z</time>
      </trkpt>
      <trkpt lat="45.08714" lon="5.54227">
        <ele>1295.4</ele>
        <time>2022-08-12T10:14:36.000Z</time>
      </trkpt>
      <trkpt lat="45.08715" lon="5.54226">
        <ele>1295.7</ele>
        <time>2022-08-12T10:14:38.000Z</time>
      </trkpt>
      <trkpt lat="45.08716" lon="5.54225">
        <ele>1295.7</ele>
        <time>2022-08-12T10:14:40.000Z</time>
      </trkpt>
      <trkpt lat="45.08717" lon="5.54225">
        <ele>1296</ele>
        <time>2022-08-12T10:14:41.000Z</time>
      </trkpt>
      <trkpt lat="45.08719" lon="5.54224">
        <ele>1296.3</ele>
        <time>2022-08-12T10:14:43.000Z</time>
      </trkpt>
      <trkpt lat="45.08719" lon="5.54221">
        <ele>1296.3</ele>
        <time>2022-08-12T10:14:44.000Z</time>
      </trkpt>
      <trkpt lat="45.0872" lon="5.5422">
        <ele>1296.4</ele>
        <time>2022-08-12T10:14:46.000Z</time>
      </trkpt>
      <trkpt lat="45.08721" lon="5.54218">
        <ele>1296.5</ele>
        <time>2022-08-12T10:14:47.000Z</time>
      </trkpt>
      <trkpt lat="45.08722" lon="5.54217">
        <ele>1296.6</ele>
        <time>2022-08-12T10:14:48.000Z</time>
      </trkpt>
      <trkpt lat="45.08723" lon="5.54215">
        <ele>1296.7</ele>
        <time>2022-08-12T10:14:49.000Z</time>
      </trkpt>
      <trkpt lat="45.08723" lon="5.54214">
        <ele>1296.6</ele>
        <time>2022-08-12T10:14:50.000Z</time>
      </trkpt>
      <trkpt lat="45.08724" lon="5.54214">
        <ele>1296.7</ele>
        <time>2022-08-12T10:14:51.000Z</time>
      </trkpt>
      <trkpt lat="45.08725" lon="5.54213">
        <ele>1296.9</ele>
        <time>2022-08-12T10:14:53.000Z</time>
      </trkpt>
      <trkpt lat="45.08726" lon="5.54212">
        <ele>1297</ele>
        <time>2022-08-12T10:14:54.000Z</time>
      </trkpt>
      <trkpt lat="45.08727" lon="5.54211">
        <ele>1297.1</ele>
        <time>2022-08-12T10:14:55.000Z</time>
      </trkpt>
      <trkpt lat="45.08727" lon="5.5421">
        <ele>1297.1</ele>
        <time>2022-08-12T10:14:56.000Z</time>
      </trkpt>
      <trkpt lat="45.08728" lon="5.54208">
        <ele>1297.2</ele>
        <time>2022-08-12T10:14:57.000Z</time>
      </trkpt>
      <trkpt lat="45.08731" lon="5.54206">
        <ele>1297.6</ele>
        <time>2022-08-12T10:14:59.000Z</time>
      </trkpt>
      <trkpt lat="45.08732" lon="5.54204">
        <ele>1297.8</ele>
        <time>2022-08-12T10:15:00.000Z</time>
      </trkpt>
      <trkpt lat="45.08734" lon="5.54203">
        <ele>1298</ele>
        <time>2022-08-12T10:15:01.000Z</time>
      </trkpt>
      <trkpt lat="45.08735" lon="5.54202">
        <ele>1298.1</ele>
        <time>2022-08-12T10:15:02.000Z</time>
      </trkpt>
      <trkpt lat="45.08736" lon="5.54201">
        <ele>1298.3</ele>
        <time>2022-08-12T10:15:03.000Z</time>
      </trkpt>
      <trkpt lat="45.08737" lon="5.54199">
        <ele>1298.5</ele>
        <time>2022-08-12T10:15:04.000Z</time>
      </trkpt>
      <trkpt lat="45.08739" lon="5.54198">
        <ele>1298.7</ele>
        <time>2022-08-12T10:15:05.000Z</time>
      </trkpt>
      <trkpt lat="45.0874" lon="5.54197">
        <ele>1298.9</ele>
        <time>2022-08-12T10:15:07.000Z</time>
      </trkpt>
      <trkpt lat="45.08739" lon="5.54196">
        <ele>1298.8</ele>
        <time>2022-08-12T10:15:09.000Z</time>
      </trkpt>
      <trkpt lat="45.0874" lon="5.54194">
        <ele>1298.9</ele>
        <time>2022-08-12T10:15:10.000Z</time>
      </trkpt>
      <trkpt lat="45.08741" lon="5.54192">
        <ele>1299</ele>
        <time>2022-08-12T10:15:11.000Z</time>
      </trkpt>
      <trkpt lat="45.08743" lon="5.54189">
        <ele>1299.2</ele>
        <time>2022-08-12T10:15:12.000Z</time>
      </trkpt>
      <trkpt lat="45.08744" lon="5.54188">
        <ele>1299.3</ele>
        <time>2022-08-12T10:15:13.000Z</time>
      </trkpt>
      <trkpt lat="45.08745" lon="5.54187">
        <ele>1299.6</ele>
        <time>2022-08-12T10:15:14.000Z</time>
      </trkpt>
      <trkpt lat="45.08746" lon="5.54186">
        <ele>1299.7</ele>
        <time>2022-08-12T10:15:15.000Z</time>
      </trkpt>
      <trkpt lat="45.08746" lon="5.54185">
        <ele>1299.8</ele>
        <time>2022-08-12T10:15:17.000Z</time>
      </trkpt>
      <trkpt lat="45.08747" lon="5.54185">
        <ele>1300</ele>
        <time>2022-08-12T10:15:18.000Z</time>
      </trkpt>
      <trkpt lat="45.08748" lon="5.54184">
        <ele>1300.3</ele>
        <time>2022-08-12T10:15:19.000Z</time>
      </trkpt>
      <trkpt lat="45.0875" lon="5.54181">
        <ele>1300.4</ele>
        <time>2022-08-12T10:15:20.000Z</time>
      </trkpt>
      <trkpt lat="45.0875" lon="5.54178">
        <ele>1300.4</ele>
        <time>2022-08-12T10:15:21.000Z</time>
      </trkpt>
      <trkpt lat="45.0875" lon="5.54177">
        <ele>1300.4</ele>
        <time>2022-08-12T10:15:22.000Z</time>
      </trkpt>
      <trkpt lat="45.08751" lon="5.54176">
        <ele>1300.6</ele>
        <time>2022-08-12T10:15:23.000Z</time>
      </trkpt>
      <trkpt lat="45.08752" lon="5.54176">
        <ele>1300.7</ele>
        <time>2022-08-12T10:15:24.000Z</time>
      </trkpt>
      <trkpt lat="45.08752" lon="5.54175">
        <ele>1300.8</ele>
        <time>2022-08-12T10:15:25.000Z</time>
      </trkpt>
      <trkpt lat="45.08754" lon="5.54174">
        <ele>1301</ele>
        <time>2022-08-12T10:15:26.000Z</time>
      </trkpt>
      <trkpt lat="45.08754" lon="5.54173">
        <ele>1301.2</ele>
        <time>2022-08-12T10:15:27.000Z</time>
      </trkpt>
      <trkpt lat="45.08756" lon="5.54173">
        <ele>1301.4</ele>
        <time>2022-08-12T10:15:28.000Z</time>
      </trkpt>
      <trkpt lat="45.08756" lon="5.54172">
        <ele>1301.5</ele>
        <time>2022-08-12T10:15:29.000Z</time>
      </trkpt>
      <trkpt lat="45.08757" lon="5.54171">
        <ele>1301.6</ele>
        <time>2022-08-12T10:15:30.000Z</time>
      </trkpt>
      <trkpt lat="45.08758" lon="5.54168">
        <ele>1301.7</ele>
        <time>2022-08-12T10:15:31.000Z</time>
      </trkpt>
      <trkpt lat="45.08758" lon="5.54166">
        <ele>1301.7</ele>
        <time>2022-08-12T10:15:32.000Z</time>
      </trkpt>
      <trkpt lat="45.08759" lon="5.54165">
        <ele>1301.9</ele>
        <time>2022-08-12T10:15:35.000Z</time>
      </trkpt>
      <trkpt lat="45.0876" lon="5.54165">
        <ele>1302</ele>
        <time>2022-08-12T10:15:36.000Z</time>
      </trkpt>
      <trkpt lat="45.08761" lon="5.54164">
        <ele>1302.2</ele>
        <time>2022-08-12T10:15:37.000Z</time>
      </trkpt>
      <trkpt lat="45.08762" lon="5.54163">
        <ele>1302.3</ele>
        <time>2022-08-12T10:15:38.000Z</time>
      </trkpt>
      <trkpt lat="45.08763" lon="5.54162">
        <ele>1302.6</ele>
        <time>2022-08-12T10:15:40.000Z</time>
      </trkpt>
      <trkpt lat="45.08764" lon="5.54161">
        <ele>1302.7</ele>
        <time>2022-08-12T10:15:41.000Z</time>
      </trkpt>
      <trkpt lat="45.08765" lon="5.54159">
        <ele>1302.7</ele>
        <time>2022-08-12T10:15:45.000Z</time>
      </trkpt>
      <trkpt lat="45.08764" lon="5.54158">
        <ele>1302.7</ele>
        <time>2022-08-12T10:15:46.000Z</time>
      </trkpt>
      <trkpt lat="45.08766" lon="5.54158">
        <ele>1302.9</ele>
        <time>2022-08-12T10:15:48.000Z</time>
      </trkpt>
      <trkpt lat="45.08766" lon="5.54159">
        <ele>1303.1</ele>
        <time>2022-08-12T10:15:49.000Z</time>
      </trkpt>
      <trkpt lat="45.08767" lon="5.54159">
        <ele>1303.2</ele>
        <time>2022-08-12T10:15:50.000Z</time>
      </trkpt>
      <trkpt lat="45.08766" lon="5.54158">
        <ele>1303.1</ele>
        <time>2022-08-12T10:15:52.000Z</time>
      </trkpt>
      <trkpt lat="45.08767" lon="5.54158">
        <ele>1303.3</ele>
        <time>2022-08-12T10:16:18.000Z</time>
      </trkpt>
      <trkpt lat="45.08767" lon="5.54159">
        <ele>1303.4</ele>
        <time>2022-08-12T10:16:19.000Z</time>
      </trkpt>
      <trkpt lat="45.08767" lon="5.54158">
        <ele>1303.1</ele>
        <time>2022-08-12T10:16:29.000Z</time>
      </trkpt>
      <trkpt lat="45.08767" lon="5.54157">
        <ele>1303.1</ele>
        <time>2022-08-12T10:16:30.000Z</time>
      </trkpt>
      <trkpt lat="45.08767" lon="5.54156">
        <ele>1303.2</ele>
        <time>2022-08-12T10:16:31.000Z</time>
      </trkpt>
      <trkpt lat="45.08768" lon="5.54155">
        <ele>1303.3</ele>
        <time>2022-08-12T10:16:32.000Z</time>
      </trkpt>
      <trkpt lat="45.08769" lon="5.54152">
        <ele>1303.5</ele>
        <time>2022-08-12T10:16:35.000Z</time>
      </trkpt>
      <trkpt lat="45.0877" lon="5.54152">
        <ele>1303.6</ele>
        <time>2022-08-12T10:16:37.000Z</time>
      </trkpt>
      <trkpt lat="45.0877" lon="5.54151">
        <ele>1303.7</ele>
        <time>2022-08-12T10:16:38.000Z</time>
      </trkpt>
      <trkpt lat="45.08771" lon="5.5415">
        <ele>1303.8</ele>
        <time>2022-08-12T10:16:39.000Z</time>
      </trkpt>
      <trkpt lat="45.08772" lon="5.54149">
        <ele>1303.9</ele>
        <time>2022-08-12T10:16:40.000Z</time>
      </trkpt>
      <trkpt lat="45.08773" lon="5.54148">
        <ele>1304.2</ele>
        <time>2022-08-12T10:16:42.000Z</time>
      </trkpt>
      <trkpt lat="45.08774" lon="5.54148">
        <ele>1304.4</ele>
        <time>2022-08-12T10:16:43.000Z</time>
      </trkpt>
      <trkpt lat="45.08775" lon="5.54147">
        <ele>1304.7</ele>
        <time>2022-08-12T10:16:44.000Z</time>
      </trkpt>
      <trkpt lat="45.08778" lon="5.54146">
        <ele>1305.2</ele>
        <time>2022-08-12T10:16:46.000Z</time>
      </trkpt>
      <trkpt lat="45.08779" lon="5.54145">
        <ele>1305.5</ele>
        <time>2022-08-12T10:16:47.000Z</time>
      </trkpt>
      <trkpt lat="45.0878" lon="5.54144">
        <ele>1305.8</ele>
        <time>2022-08-12T10:16:48.000Z</time>
      </trkpt>
      <trkpt lat="45.08781" lon="5.54144">
        <ele>1305.9</ele>
        <time>2022-08-12T10:16:49.000Z</time>
      </trkpt>
      <trkpt lat="45.08781" lon="5.54143">
        <ele>1305.9</ele>
        <time>2022-08-12T10:16:50.000Z</time>
      </trkpt>
      <trkpt lat="45.08781" lon="5.54142">
        <ele>1305.8</ele>
        <time>2022-08-12T10:16:51.000Z</time>
      </trkpt>
      <trkpt lat="45.08782" lon="5.54138">
        <ele>1306</ele>
        <time>2022-08-12T10:16:56.000Z</time>
      </trkpt>
      <trkpt lat="45.08783" lon="5.54136">
        <ele>1306.1</ele>
        <time>2022-08-12T10:16:58.000Z</time>
      </trkpt>
      <trkpt lat="45.08783" lon="5.54133">
        <ele>1305.8</ele>
        <time>2022-08-12T10:17:01.000Z</time>
      </trkpt>
      <trkpt lat="45.08782" lon="5.54133">
        <ele>1305.7</ele>
        <time>2022-08-12T10:17:02.000Z</time>
      </trkpt>
      <trkpt lat="45.08783" lon="5.54132">
        <ele>1305.8</ele>
        <time>2022-08-12T10:17:03.000Z</time>
      </trkpt>
      <trkpt lat="45.08783" lon="5.54133">
        <ele>1306</ele>
        <time>2022-08-12T10:17:04.000Z</time>
      </trkpt>
      <trkpt lat="45.08784" lon="5.54133">
        <ele>1306.1</ele>
        <time>2022-08-12T10:17:05.000Z</time>
      </trkpt>
      <trkpt lat="45.08785" lon="5.54133">
        <ele>1306.5</ele>
        <time>2022-08-12T10:17:06.000Z</time>
      </trkpt>
      <trkpt lat="45.08786" lon="5.54133">
        <ele>1306.6</ele>
        <time>2022-08-12T10:17:07.000Z</time>
      </trkpt>
      <trkpt lat="45.08787" lon="5.54131">
        <ele>1306.7</ele>
        <time>2022-08-12T10:17:10.000Z</time>
      </trkpt>
      <trkpt lat="45.08788" lon="5.54132">
        <ele>1307.1</ele>
        <time>2022-08-12T10:17:11.000Z</time>
      </trkpt>
      <trkpt lat="45.08789" lon="5.54132">
        <ele>1307.3</ele>
        <time>2022-08-12T10:17:12.000Z</time>
      </trkpt>
      <trkpt lat="45.08791" lon="5.54129">
        <ele>1307.7</ele>
        <time>2022-08-12T10:17:21.000Z</time>
      </trkpt>
      <trkpt lat="45.08792" lon="5.54125">
        <ele>1307.7</ele>
        <time>2022-08-12T10:17:23.000Z</time>
      </trkpt>
      <trkpt lat="45.08794" lon="5.54122">
        <ele>1307.9</ele>
        <time>2022-08-12T10:17:25.000Z</time>
      </trkpt>
      <trkpt lat="45.08795" lon="5.54121">
        <ele>1308</ele>
        <time>2022-08-12T10:17:26.000Z</time>
      </trkpt>
      <trkpt lat="45.08795" lon="5.5412">
        <ele>1308</ele>
        <time>2022-08-12T10:17:27.000Z</time>
      </trkpt>
      <trkpt lat="45.08798" lon="5.54118">
        <ele>1308.6</ele>
        <time>2022-08-12T10:17:31.000Z</time>
      </trkpt>
      <trkpt lat="45.08798" lon="5.54119">
        <ele>1308.7</ele>
        <time>2022-08-12T10:17:32.000Z</time>
      </trkpt>
      <trkpt lat="45.08799" lon="5.54119">
        <ele>1308.8</ele>
        <time>2022-08-12T10:17:35.000Z</time>
      </trkpt>
      <trkpt lat="45.08798" lon="5.54122">
        <ele>1308.9</ele>
        <time>2022-08-12T10:18:42.000Z</time>
      </trkpt>
      <trkpt lat="45.08796" lon="5.54123">
        <ele>1308.5</ele>
        <time>2022-08-12T10:18:43.000Z</time>
      </trkpt>
      <trkpt lat="45.08794" lon="5.54125">
        <ele>1308.2</ele>
        <time>2022-08-12T10:18:44.000Z</time>
      </trkpt>
      <trkpt lat="45.08788" lon="5.54132">
        <ele>1307.2</ele>
        <time>2022-08-12T10:18:46.000Z</time>
      </trkpt>
      <trkpt lat="45.08784" lon="5.54137">
        <ele>1306.4</ele>
        <time>2022-08-12T10:18:47.000Z</time>
      </trkpt>
      <trkpt lat="45.0878" lon="5.54142">
        <ele>1305.7</ele>
        <time>2022-08-12T10:18:48.000Z</time>
      </trkpt>
      <trkpt lat="45.08776" lon="5.54147">
        <ele>1304.9</ele>
        <time>2022-08-12T10:18:49.000Z</time>
      </trkpt>
      <trkpt lat="45.0877" lon="5.54154">
        <ele>1303.7</ele>
        <time>2022-08-12T10:18:51.000Z</time>
      </trkpt>
      <trkpt lat="45.08767" lon="5.54156">
        <ele>1303.2</ele>
        <time>2022-08-12T10:18:52.000Z</time>
      </trkpt>
      <trkpt lat="45.08766" lon="5.54157">
        <ele>1303</ele>
        <time>2022-08-12T10:18:53.000Z</time>
      </trkpt>
      <trkpt lat="45.08765" lon="5.54158">
        <ele>1302.9</ele>
        <time>2022-08-12T10:18:54.000Z</time>
      </trkpt>
      <trkpt lat="45.08765" lon="5.5416">
        <ele>1302.8</ele>
        <time>2022-08-12T10:18:55.000Z</time>
      </trkpt>
      <trkpt lat="45.08764" lon="5.5416">
        <ele>1302.8</ele>
        <time>2022-08-12T10:18:56.000Z</time>
      </trkpt>
      <trkpt lat="45.08765" lon="5.54161">
        <ele>1302.8</ele>
        <time>2022-08-12T10:19:04.000Z</time>
      </trkpt>
      <trkpt lat="45.08765" lon="5.54162">
        <ele>1302.9</ele>
        <time>2022-08-12T10:19:06.000Z</time>
      </trkpt>
      <trkpt lat="45.08765" lon="5.54164">
        <ele>1303.1</ele>
        <time>2022-08-12T10:19:07.000Z</time>
      </trkpt>
      <trkpt lat="45.08765" lon="5.54165">
        <ele>1303.1</ele>
        <time>2022-08-12T10:19:08.000Z</time>
      </trkpt>
      <trkpt lat="45.08758" lon="5.54172">
        <ele>1301.8</ele>
        <time>2022-08-12T10:19:12.000Z</time>
      </trkpt>
      <trkpt lat="45.08755" lon="5.54174">
        <ele>1301.3</ele>
        <time>2022-08-12T10:19:13.000Z</time>
      </trkpt>
      <trkpt lat="45.08749" lon="5.54182">
        <ele>1300.3</ele>
        <time>2022-08-12T10:19:16.000Z</time>
      </trkpt>
      <trkpt lat="45.08747" lon="5.54184">
        <ele>1300</ele>
        <time>2022-08-12T10:19:17.000Z</time>
      </trkpt>
      <trkpt lat="45.08745" lon="5.54186">
        <ele>1299.5</ele>
        <time>2022-08-12T10:19:18.000Z</time>
      </trkpt>
      <trkpt lat="45.08742" lon="5.54188">
        <ele>1299</ele>
        <time>2022-08-12T10:19:19.000Z</time>
      </trkpt>
      <trkpt lat="45.08735" lon="5.54199">
        <ele>1298</ele>
        <time>2022-08-12T10:19:21.000Z</time>
      </trkpt>
      <trkpt lat="45.08731" lon="5.54204">
        <ele>1297.6</ele>
        <time>2022-08-12T10:19:22.000Z</time>
      </trkpt>
      <trkpt lat="45.08728" lon="5.54209">
        <ele>1297.3</ele>
        <time>2022-08-12T10:19:23.000Z</time>
      </trkpt>
      <trkpt lat="45.08726" lon="5.54213">
        <ele>1297</ele>
        <time>2022-08-12T10:19:24.000Z</time>
      </trkpt>
      <trkpt lat="45.08723" lon="5.54216">
        <ele>1296.7</ele>
        <time>2022-08-12T10:19:25.000Z</time>
      </trkpt>
      <trkpt lat="45.08721" lon="5.54218">
        <ele>1296.4</ele>
        <time>2022-08-12T10:19:26.000Z</time>
      </trkpt>
      <trkpt lat="45.0872" lon="5.54219">
        <ele>1296.3</ele>
        <time>2022-08-12T10:19:27.000Z</time>
      </trkpt>
      <trkpt lat="45.0872" lon="5.54221">
        <ele>1296.3</ele>
        <time>2022-08-12T10:19:28.000Z</time>
      </trkpt>
      <trkpt lat="45.0872" lon="5.54223">
        <ele>1296.5</ele>
        <time>2022-08-12T10:19:29.000Z</time>
      </trkpt>
      <trkpt lat="45.0872" lon="5.54226">
        <ele>1296.7</ele>
        <time>2022-08-12T10:19:30.000Z</time>
      </trkpt>
      <trkpt lat="45.0872" lon="5.54228">
        <ele>1296.8</ele>
        <time>2022-08-12T10:19:31.000Z</time>
      </trkpt>
      <trkpt lat="45.0872" lon="5.54231">
        <ele>1296.8</ele>
        <time>2022-08-12T10:19:32.000Z</time>
      </trkpt>
      <trkpt lat="45.0872" lon="5.54233">
        <ele>1296.8</ele>
        <time>2022-08-12T10:19:34.000Z</time>
      </trkpt>
      <trkpt lat="45.08719" lon="5.54236">
        <ele>1296.8</ele>
        <time>2022-08-12T10:19:35.000Z</time>
      </trkpt>
      <trkpt lat="45.08718" lon="5.54239">
        <ele>1296.7</ele>
        <time>2022-08-12T10:19:36.000Z</time>
      </trkpt>
      <trkpt lat="45.08717" lon="5.5424">
        <ele>1296.7</ele>
        <time>2022-08-12T10:19:37.000Z</time>
      </trkpt>
      <trkpt lat="45.08717" lon="5.54238">
        <ele>1296.5</ele>
        <time>2022-08-12T10:19:45.000Z</time>
      </trkpt>
      <trkpt lat="45.08716" lon="5.54238">
        <ele>1296.4</ele>
        <time>2022-08-12T10:19:47.000Z</time>
      </trkpt>
      <trkpt lat="45.08717" lon="5.54237">
        <ele>1296.5</ele>
        <time>2022-08-12T10:19:52.000Z</time>
      </trkpt>
      <trkpt lat="45.08719" lon="5.54238">
        <ele>1296.9</ele>
        <time>2022-08-12T10:19:55.000Z</time>
      </trkpt>
      <trkpt lat="45.0872" lon="5.54241">
        <ele>1297.2</ele>
        <time>2022-08-12T10:20:03.000Z</time>
      </trkpt>
      <trkpt lat="45.0872" lon="5.54244">
        <ele>1297.3</ele>
        <time>2022-08-12T10:20:05.000Z</time>
      </trkpt>
      <trkpt lat="45.08719" lon="5.54246">
        <ele>1297.2</ele>
        <time>2022-08-12T10:20:06.000Z</time>
      </trkpt>
      <trkpt lat="45.08718" lon="5.54248">
        <ele>1297.1</ele>
        <time>2022-08-12T10:20:07.000Z</time>
      </trkpt>
      <trkpt lat="45.08716" lon="5.54251">
        <ele>1296.9</ele>
        <time>2022-08-12T10:20:08.000Z</time>
      </trkpt>
      <trkpt lat="45.08715" lon="5.54253">
        <ele>1296.8</ele>
        <time>2022-08-12T10:20:09.000Z</time>
      </trkpt>
      <trkpt lat="45.08715" lon="5.54256">
        <ele>1296.6</ele>
        <time>2022-08-12T10:20:10.000Z</time>
      </trkpt>
      <trkpt lat="45.08714" lon="5.5426">
        <ele>1296.6</ele>
        <time>2022-08-12T10:20:11.000Z</time>
      </trkpt>
      <trkpt lat="45.08714" lon="5.54262">
        <ele>1296.6</ele>
        <time>2022-08-12T10:20:12.000Z</time>
      </trkpt>
      <trkpt lat="45.08714" lon="5.54264">
        <ele>1296.5</ele>
        <time>2022-08-12T10:20:13.000Z</time>
      </trkpt>
      <trkpt lat="45.08712" lon="5.54265">
        <ele>1296.2</ele>
        <time>2022-08-12T10:20:14.000Z</time>
      </trkpt>
      <trkpt lat="45.08713" lon="5.54267">
        <ele>1296.3</ele>
        <time>2022-08-12T10:20:15.000Z</time>
      </trkpt>
      <trkpt lat="45.08713" lon="5.54268">
        <ele>1296.3</ele>
        <time>2022-08-12T10:20:16.000Z</time>
      </trkpt>
      <trkpt lat="45.08713" lon="5.5427">
        <ele>1296.4</ele>
        <time>2022-08-12T10:20:17.000Z</time>
      </trkpt>
      <trkpt lat="45.08713" lon="5.54271">
        <ele>1296.4</ele>
        <time>2022-08-12T10:20:18.000Z</time>
      </trkpt>
      <trkpt lat="45.08714" lon="5.54271">
        <ele>1296.5</ele>
        <time>2022-08-12T10:20:23.000Z</time>
      </trkpt>
      <trkpt lat="45.08715" lon="5.54271">
        <ele>1296.6</ele>
        <time>2022-08-12T10:20:25.000Z</time>
      </trkpt>
      <trkpt lat="45.08716" lon="5.54271">
        <ele>1296.9</ele>
        <time>2022-08-12T10:20:27.000Z</time>
      </trkpt>
      <trkpt lat="45.08718" lon="5.54274">
        <ele>1297.2</ele>
        <time>2022-08-12T10:20:29.000Z</time>
      </trkpt>
      <trkpt lat="45.08719" lon="5.54274">
        <ele>1297.4</ele>
        <time>2022-08-12T10:20:30.000Z</time>
      </trkpt>
      <trkpt lat="45.0872" lon="5.54274">
        <ele>1297.6</ele>
        <time>2022-08-12T10:20:31.000Z</time>
      </trkpt>
      <trkpt lat="45.08721" lon="5.54273">
        <ele>1297.7</ele>
        <time>2022-08-12T10:20:32.000Z</time>
      </trkpt>
      <trkpt lat="45.08722" lon="5.54271">
        <ele>1298</ele>
        <time>2022-08-12T10:20:37.000Z</time>
      </trkpt>
      <trkpt lat="45.08723" lon="5.5427">
        <ele>1298.1</ele>
        <time>2022-08-12T10:20:38.000Z</time>
      </trkpt>
      <trkpt lat="45.08724" lon="5.54268">
        <ele>1298.2</ele>
        <time>2022-08-12T10:20:39.000Z</time>
      </trkpt>
      <trkpt lat="45.08725" lon="5.54268">
        <ele>1298.4</ele>
        <time>2022-08-12T10:20:40.000Z</time>
      </trkpt>
      <trkpt lat="45.08727" lon="5.54267">
        <ele>1298.6</ele>
        <time>2022-08-12T10:20:41.000Z</time>
      </trkpt>
      <trkpt lat="45.08728" lon="5.54265">
        <ele>1298.8</ele>
        <time>2022-08-12T10:20:42.000Z</time>
      </trkpt>
      <trkpt lat="45.0873" lon="5.54264">
        <ele>1299</ele>
        <time>2022-08-12T10:20:43.000Z</time>
      </trkpt>
      <trkpt lat="45.08731" lon="5.54264">
        <ele>1299.1</ele>
        <time>2022-08-12T10:20:44.000Z</time>
      </trkpt>
      <trkpt lat="45.08731" lon="5.54263">
        <ele>1299.1</ele>
        <time>2022-08-12T10:20:45.000Z</time>
      </trkpt>
      <trkpt lat="45.08732" lon="5.54262">
        <ele>1299.3</ele>
        <time>2022-08-12T10:20:46.000Z</time>
      </trkpt>
      <trkpt lat="45.08732" lon="5.5426">
        <ele>1299.3</ele>
        <time>2022-08-12T10:20:47.000Z</time>
      </trkpt>
      <trkpt lat="45.08733" lon="5.54258">
        <ele>1299.5</ele>
        <time>2022-08-12T10:20:48.000Z</time>
      </trkpt>
      <trkpt lat="45.08734" lon="5.54256">
        <ele>1299.6</ele>
        <time>2022-08-12T10:20:49.000Z</time>
      </trkpt>
      <trkpt lat="45.08734" lon="5.54255">
        <ele>1299.7</ele>
        <time>2022-08-12T10:20:50.000Z</time>
      </trkpt>
      <trkpt lat="45.08735" lon="5.54255">
        <ele>1299.7</ele>
        <time>2022-08-12T10:20:51.000Z</time>
      </trkpt>
      <trkpt lat="45.08735" lon="5.54254">
        <ele>1299.8</ele>
        <time>2022-08-12T10:20:52.000Z</time>
      </trkpt>
      <trkpt lat="45.08736" lon="5.54252">
        <ele>1300</ele>
        <time>2022-08-12T10:20:53.000Z</time>
      </trkpt>
      <trkpt lat="45.08737" lon="5.54251">
        <ele>1300.1</ele>
        <time>2022-08-12T10:20:54.000Z</time>
      </trkpt>
      <trkpt lat="45.08738" lon="5.5425">
        <ele>1300.2</ele>
        <time>2022-08-12T10:20:55.000Z</time>
      </trkpt>
      <trkpt lat="45.08739" lon="5.54248">
        <ele>1300.4</ele>
        <time>2022-08-12T10:20:56.000Z</time>
      </trkpt>
      <trkpt lat="45.0874" lon="5.54246">
        <ele>1300.5</ele>
        <time>2022-08-12T10:20:57.000Z</time>
      </trkpt>
      <trkpt lat="45.08741" lon="5.54245">
        <ele>1300.7</ele>
        <time>2022-08-12T10:20:58.000Z</time>
      </trkpt>
      <trkpt lat="45.08742" lon="5.54243">
        <ele>1300.8</ele>
        <time>2022-08-12T10:20:59.000Z</time>
      </trkpt>
      <trkpt lat="45.08743" lon="5.5424">
        <ele>1301</ele>
        <time>2022-08-12T10:21:00.000Z</time>
      </trkpt>
      <trkpt lat="45.08744" lon="5.54238">
        <ele>1301.1</ele>
        <time>2022-08-12T10:21:01.000Z</time>
      </trkpt>
      <trkpt lat="45.08746" lon="5.54236">
        <ele>1301.3</ele>
        <time>2022-08-12T10:21:02.000Z</time>
      </trkpt>
      <trkpt lat="45.08747" lon="5.54234">
        <ele>1301.4</ele>
        <time>2022-08-12T10:21:03.000Z</time>
      </trkpt>
      <trkpt lat="45.08746" lon="5.5423">
        <ele>1301.3</ele>
        <time>2022-08-12T10:21:04.000Z</time>
      </trkpt>
      <trkpt lat="45.08746" lon="5.54228">
        <ele>1301.2</ele>
        <time>2022-08-12T10:21:05.000Z</time>
      </trkpt>
      <trkpt lat="45.08746" lon="5.54226">
        <ele>1301.3</ele>
        <time>2022-08-12T10:21:06.000Z</time>
      </trkpt>
      <trkpt lat="45.08747" lon="5.54224">
        <ele>1301.5</ele>
        <time>2022-08-12T10:21:07.000Z</time>
      </trkpt>
      <trkpt lat="45.08748" lon="5.54221">
        <ele>1301.7</ele>
        <time>2022-08-12T10:21:08.000Z</time>
      </trkpt>
      <trkpt lat="45.0875" lon="5.54217">
        <ele>1301.9</ele>
        <time>2022-08-12T10:21:09.000Z</time>
      </trkpt>
      <trkpt lat="45.08752" lon="5.54216">
        <ele>1302.2</ele>
        <time>2022-08-12T10:21:10.000Z</time>
      </trkpt>
      <trkpt lat="45.08754" lon="5.54214">
        <ele>1302.4</ele>
        <time>2022-08-12T10:21:11.000Z</time>
      </trkpt>
      <trkpt lat="45.08755" lon="5.54212">
        <ele>1302.6</ele>
        <time>2022-08-12T10:21:12.000Z</time>
      </trkpt>
      <trkpt lat="45.08756" lon="5.54211">
        <ele>1302.8</ele>
        <time>2022-08-12T10:21:13.000Z</time>
      </trkpt>
      <trkpt lat="45.08757" lon="5.54211">
        <ele>1303</ele>
        <time>2022-08-12T10:21:14.000Z</time>
      </trkpt>
      <trkpt lat="45.08758" lon="5.54211">
        <ele>1303.1</ele>
        <time>2022-08-12T10:21:15.000Z</time>
      </trkpt>
      <trkpt lat="45.08757" lon="5.5421">
        <ele>1303</ele>
        <time>2022-08-12T10:21:16.000Z</time>
      </trkpt>
      <trkpt lat="45.08757" lon="5.54209">
        <ele>1303</ele>
        <time>2022-08-12T10:21:17.000Z</time>
      </trkpt>
      <trkpt lat="45.08758" lon="5.54207">
        <ele>1303</ele>
        <time>2022-08-12T10:21:18.000Z</time>
      </trkpt>
      <trkpt lat="45.08758" lon="5.54205">
        <ele>1303</ele>
        <time>2022-08-12T10:21:19.000Z</time>
      </trkpt>
      <trkpt lat="45.08759" lon="5.54199">
        <ele>1303</ele>
        <time>2022-08-12T10:21:21.000Z</time>
      </trkpt>
      <trkpt lat="45.08759" lon="5.54197">
        <ele>1303.1</ele>
        <time>2022-08-12T10:21:22.000Z</time>
      </trkpt>
      <trkpt lat="45.0876" lon="5.54195">
        <ele>1303.2</ele>
        <time>2022-08-12T10:21:24.000Z</time>
      </trkpt>
      <trkpt lat="45.08761" lon="5.54194">
        <ele>1303.3</ele>
        <time>2022-08-12T10:21:25.000Z</time>
      </trkpt>
      <trkpt lat="45.08762" lon="5.54193">
        <ele>1303.4</ele>
        <time>2022-08-12T10:21:26.000Z</time>
      </trkpt>
      <trkpt lat="45.08763" lon="5.54192">
        <ele>1303.7</ele>
        <time>2022-08-12T10:21:28.000Z</time>
      </trkpt>
      <trkpt lat="45.08763" lon="5.54191">
        <ele>1303.7</ele>
        <time>2022-08-12T10:21:29.000Z</time>
      </trkpt>
      <trkpt lat="45.08765" lon="5.5419">
        <ele>1304</ele>
        <time>2022-08-12T10:21:31.000Z</time>
      </trkpt>
      <trkpt lat="45.08766" lon="5.54189">
        <ele>1304.2</ele>
        <time>2022-08-12T10:21:33.000Z</time>
      </trkpt>
      <trkpt lat="45.08768" lon="5.54184">
        <ele>1304.6</ele>
        <time>2022-08-12T10:21:37.000Z</time>
      </trkpt>
      <trkpt lat="45.08769" lon="5.54183">
        <ele>1304.8</ele>
        <time>2022-08-12T10:21:38.000Z</time>
      </trkpt>
      <trkpt lat="45.0877" lon="5.54181">
        <ele>1304.9</ele>
        <time>2022-08-12T10:21:39.000Z</time>
      </trkpt>
      <trkpt lat="45.08771" lon="5.5418">
        <ele>1305</ele>
        <time>2022-08-12T10:21:40.000Z</time>
      </trkpt>
      <trkpt lat="45.08772" lon="5.54179">
        <ele>1305.2</ele>
        <time>2022-08-12T10:21:41.000Z</time>
      </trkpt>
      <trkpt lat="45.08773" lon="5.54179">
        <ele>1305.4</ele>
        <time>2022-08-12T10:21:42.000Z</time>
      </trkpt>
      <trkpt lat="45.08774" lon="5.54179">
        <ele>1305.7</ele>
        <time>2022-08-12T10:21:43.000Z</time>
      </trkpt>
      <trkpt lat="45.08775" lon="5.54178">
        <ele>1305.9</ele>
        <time>2022-08-12T10:21:44.000Z</time>
      </trkpt>
      <trkpt lat="45.08777" lon="5.54178">
        <ele>1306.2</ele>
        <time>2022-08-12T10:21:45.000Z</time>
      </trkpt>
      <trkpt lat="45.08778" lon="5.54178">
        <ele>1306.5</ele>
        <time>2022-08-12T10:21:46.000Z</time>
      </trkpt>
      <trkpt lat="45.08779" lon="5.54177">
        <ele>1306.7</ele>
        <time>2022-08-12T10:21:47.000Z</time>
      </trkpt>
      <trkpt lat="45.08781" lon="5.54176">
        <ele>1307</ele>
        <time>2022-08-12T10:21:48.000Z</time>
      </trkpt>
      <trkpt lat="45.08782" lon="5.54176">
        <ele>1307.3</ele>
        <time>2022-08-12T10:21:49.000Z</time>
      </trkpt>
      <trkpt lat="45.08783" lon="5.54175">
        <ele>1307.6</ele>
        <time>2022-08-12T10:21:50.000Z</time>
      </trkpt>
      <trkpt lat="45.08784" lon="5.54174">
        <ele>1307.9</ele>
        <time>2022-08-12T10:21:51.000Z</time>
      </trkpt>
      <trkpt lat="45.08786" lon="5.54175">
        <ele>1308.2</ele>
        <time>2022-08-12T10:21:52.000Z</time>
      </trkpt>
      <trkpt lat="45.08787" lon="5.54176">
        <ele>1308.5</ele>
        <time>2022-08-12T10:21:53.000Z</time>
      </trkpt>
      <trkpt lat="45.08787" lon="5.54177">
        <ele>1308.6</ele>
        <time>2022-08-12T10:21:54.000Z</time>
      </trkpt>
      <trkpt lat="45.08787" lon="5.54179">
        <ele>1308.5</ele>
        <time>2022-08-12T10:21:55.000Z</time>
      </trkpt>
      <trkpt lat="45.08788" lon="5.54181">
        <ele>1308.9</ele>
        <time>2022-08-12T10:21:56.000Z</time>
      </trkpt>
      <trkpt lat="45.08787" lon="5.54182">
        <ele>1308.6</ele>
        <time>2022-08-12T10:21:58.000Z</time>
      </trkpt>
      <trkpt lat="45.08786" lon="5.54184">
        <ele>1308.6</ele>
        <time>2022-08-12T10:21:59.000Z</time>
      </trkpt>
      <trkpt lat="45.08787" lon="5.54187">
        <ele>1308.8</ele>
        <time>2022-08-12T10:22:00.000Z</time>
      </trkpt>
      <trkpt lat="45.08787" lon="5.5419">
        <ele>1309</ele>
        <time>2022-08-12T10:22:01.000Z</time>
      </trkpt>
      <trkpt lat="45.08787" lon="5.54191">
        <ele>1309</ele>
        <time>2022-08-12T10:22:02.000Z</time>
      </trkpt>
      <trkpt lat="45.08787" lon="5.54193">
        <ele>1308.9</ele>
        <time>2022-08-12T10:22:03.000Z</time>
      </trkpt>
      <trkpt lat="45.08786" lon="5.54194">
        <ele>1308.7</ele>
        <time>2022-08-12T10:22:04.000Z</time>
      </trkpt>
      <trkpt lat="45.08785" lon="5.54196">
        <ele>1308.5</ele>
        <time>2022-08-12T10:22:05.000Z</time>
      </trkpt>
      <trkpt lat="45.08785" lon="5.54198">
        <ele>1308.4</ele>
        <time>2022-08-12T10:22:06.000Z</time>
      </trkpt>
      <trkpt lat="45.08785" lon="5.542">
        <ele>1308.4</ele>
        <time>2022-08-12T10:22:07.000Z</time>
      </trkpt>
      <trkpt lat="45.08785" lon="5.54201">
        <ele>1308.5</ele>
        <time>2022-08-12T10:22:08.000Z</time>
      </trkpt>
      <trkpt lat="45.08785" lon="5.54202">
        <ele>1308.4</ele>
        <time>2022-08-12T10:22:09.000Z</time>
      </trkpt>
      <trkpt lat="45.08785" lon="5.54204">
        <ele>1308.4</ele>
        <time>2022-08-12T10:22:10.000Z</time>
      </trkpt>
      <trkpt lat="45.08785" lon="5.54205">
        <ele>1308.4</ele>
        <time>2022-08-12T10:22:11.000Z</time>
      </trkpt>
      <trkpt lat="45.08785" lon="5.54206">
        <ele>1308.4</ele>
        <time>2022-08-12T10:22:12.000Z</time>
      </trkpt>
      <trkpt lat="45.08785" lon="5.54208">
        <ele>1308.5</ele>
        <time>2022-08-12T10:22:13.000Z</time>
      </trkpt>
      <trkpt lat="45.08785" lon="5.54209">
        <ele>1308.5</ele>
        <time>2022-08-12T10:22:14.000Z</time>
      </trkpt>
      <trkpt lat="45.08785" lon="5.54211">
        <ele>1308.5</ele>
        <time>2022-08-12T10:22:15.000Z</time>
      </trkpt>
      <trkpt lat="45.08786" lon="5.54213">
        <ele>1308.5</ele>
        <time>2022-08-12T10:22:16.000Z</time>
      </trkpt>
      <trkpt lat="45.08786" lon="5.54215">
        <ele>1308.5</ele>
        <time>2022-08-12T10:22:17.000Z</time>
      </trkpt>
      <trkpt lat="45.08785" lon="5.54217">
        <ele>1308.4</ele>
        <time>2022-08-12T10:22:18.000Z</time>
      </trkpt>
      <trkpt lat="45.08785" lon="5.54218">
        <ele>1308.3</ele>
        <time>2022-08-12T10:22:19.000Z</time>
      </trkpt>
      <trkpt lat="45.08784" lon="5.5422">
        <ele>1308.2</ele>
        <time>2022-08-12T10:22:20.000Z</time>
      </trkpt>
      <trkpt lat="45.08784" lon="5.54222">
        <ele>1308.1</ele>
        <time>2022-08-12T10:22:21.000Z</time>
      </trkpt>
      <trkpt lat="45.08784" lon="5.54224">
        <ele>1308.1</ele>
        <time>2022-08-12T10:22:22.000Z</time>
      </trkpt>
      <trkpt lat="45.08784" lon="5.54226">
        <ele>1308</ele>
        <time>2022-08-12T10:22:23.000Z</time>
      </trkpt>
      <trkpt lat="45.08784" lon="5.54228">
        <ele>1307.8</ele>
        <time>2022-08-12T10:22:24.000Z</time>
      </trkpt>
      <trkpt lat="45.08783" lon="5.54229">
        <ele>1307.7</ele>
        <time>2022-08-12T10:22:25.000Z</time>
      </trkpt>
      <trkpt lat="45.08783" lon="5.5423">
        <ele>1307.6</ele>
        <time>2022-08-12T10:22:26.000Z</time>
      </trkpt>
      <trkpt lat="45.08783" lon="5.54231">
        <ele>1307.6</ele>
        <time>2022-08-12T10:22:27.000Z</time>
      </trkpt>
      <trkpt lat="45.08784" lon="5.54231">
        <ele>1307.6</ele>
        <time>2022-08-12T10:22:28.000Z</time>
      </trkpt>
      <trkpt lat="45.08785" lon="5.5423">
        <ele>1308</ele>
        <time>2022-08-12T10:22:30.000Z</time>
      </trkpt>
      <trkpt lat="45.08786" lon="5.54229">
        <ele>1308.1</ele>
        <time>2022-08-12T10:22:31.000Z</time>
      </trkpt>
      <trkpt lat="45.08787" lon="5.54228">
        <ele>1308.4</ele>
        <time>2022-08-12T10:22:32.000Z</time>
      </trkpt>
      <trkpt lat="45.08788" lon="5.54228">
        <ele>1308.6</ele>
        <time>2022-08-12T10:22:33.000Z</time>
      </trkpt>
      <trkpt lat="45.08789" lon="5.54227">
        <ele>1308.7</ele>
        <time>2022-08-12T10:22:34.000Z</time>
      </trkpt>
      <trkpt lat="45.0879" lon="5.54226">
        <ele>1309</ele>
        <time>2022-08-12T10:22:36.000Z</time>
      </trkpt>
      <trkpt lat="45.08792" lon="5.54224">
        <ele>1309.4</ele>
        <time>2022-08-12T10:22:37.000Z</time>
      </trkpt>
      <trkpt lat="45.08793" lon="5.54223">
        <ele>1309.7</ele>
        <time>2022-08-12T10:22:38.000Z</time>
      </trkpt>
      <trkpt lat="45.08794" lon="5.54222">
        <ele>1310</ele>
        <time>2022-08-12T10:22:39.000Z</time>
      </trkpt>
      <trkpt lat="45.08795" lon="5.5422">
        <ele>1310.2</ele>
        <time>2022-08-12T10:22:40.000Z</time>
      </trkpt>
      <trkpt lat="45.08796" lon="5.54219">
        <ele>1310.3</ele>
        <time>2022-08-12T10:22:41.000Z</time>
      </trkpt>
      <trkpt lat="45.08796" lon="5.54217">
        <ele>1310.4</ele>
        <time>2022-08-12T10:22:42.000Z</time>
      </trkpt>
      <trkpt lat="45.08797" lon="5.54215">
        <ele>1310.7</ele>
        <time>2022-08-12T10:22:43.000Z</time>
      </trkpt>
      <trkpt lat="45.08799" lon="5.54213">
        <ele>1311</ele>
        <time>2022-08-12T10:22:44.000Z</time>
      </trkpt>
      <trkpt lat="45.088" lon="5.54211">
        <ele>1311.3</ele>
        <time>2022-08-12T10:22:45.000Z</time>
      </trkpt>
      <trkpt lat="45.08801" lon="5.5421">
        <ele>1311.5</ele>
        <time>2022-08-12T10:22:46.000Z</time>
      </trkpt>
      <trkpt lat="45.08802" lon="5.54209">
        <ele>1311.7</ele>
        <time>2022-08-12T10:22:47.000Z</time>
      </trkpt>
      <trkpt lat="45.08803" lon="5.54208">
        <ele>1312</ele>
        <time>2022-08-12T10:22:49.000Z</time>
      </trkpt>
      <trkpt lat="45.08804" lon="5.54207">
        <ele>1312.2</ele>
        <time>2022-08-12T10:22:50.000Z</time>
      </trkpt>
      <trkpt lat="45.08805" lon="5.54206">
        <ele>1312.4</ele>
        <time>2022-08-12T10:22:51.000Z</time>
      </trkpt>
      <trkpt lat="45.08806" lon="5.54206">
        <ele>1312.6</ele>
        <time>2022-08-12T10:22:52.000Z</time>
      </trkpt>
      <trkpt lat="45.08806" lon="5.54207">
        <ele>1312.7</ele>
        <time>2022-08-12T10:22:54.000Z</time>
      </trkpt>
      <trkpt lat="45.08805" lon="5.54209">
        <ele>1312.4</ele>
        <time>2022-08-12T10:22:56.000Z</time>
      </trkpt>
      <trkpt lat="45.08805" lon="5.54211">
        <ele>1312.3</ele>
        <time>2022-08-12T10:22:57.000Z</time>
      </trkpt>
      <trkpt lat="45.08805" lon="5.54213">
        <ele>1312.3</ele>
        <time>2022-08-12T10:22:58.000Z</time>
      </trkpt>
      <trkpt lat="45.08805" lon="5.54214">
        <ele>1312.2</ele>
        <time>2022-08-12T10:22:59.000Z</time>
      </trkpt>
      <trkpt lat="45.08806" lon="5.54215">
        <ele>1312.3</ele>
        <time>2022-08-12T10:23:01.000Z</time>
      </trkpt>
      <trkpt lat="45.08807" lon="5.54215">
        <ele>1312.5</ele>
        <time>2022-08-12T10:23:02.000Z</time>
      </trkpt>
      <trkpt lat="45.08808" lon="5.54216">
        <ele>1312.8</ele>
        <time>2022-08-12T10:23:03.000Z</time>
      </trkpt>
      <trkpt lat="45.0881" lon="5.54215">
        <ele>1313</ele>
        <time>2022-08-12T10:23:04.000Z</time>
      </trkpt>
      <trkpt lat="45.08811" lon="5.54214">
        <ele>1313.3</ele>
        <time>2022-08-12T10:23:07.000Z</time>
      </trkpt>
      <trkpt lat="45.08812" lon="5.54213">
        <ele>1313.5</ele>
        <time>2022-08-12T10:23:08.000Z</time>
      </trkpt>
      <trkpt lat="45.08813" lon="5.54212">
        <ele>1313.8</ele>
        <time>2022-08-12T10:23:10.000Z</time>
      </trkpt>
      <trkpt lat="45.08814" lon="5.54212">
        <ele>1314</ele>
        <time>2022-08-12T10:23:11.000Z</time>
      </trkpt>
      <trkpt lat="45.08814" lon="5.54211">
        <ele>1314.1</ele>
        <time>2022-08-12T10:23:12.000Z</time>
      </trkpt>
      <trkpt lat="45.08815" lon="5.5421">
        <ele>1314.3</ele>
        <time>2022-08-12T10:23:13.000Z</time>
      </trkpt>
      <trkpt lat="45.08816" lon="5.54209">
        <ele>1314.5</ele>
        <time>2022-08-12T10:23:14.000Z</time>
      </trkpt>
      <trkpt lat="45.08817" lon="5.54208">
        <ele>1314.8</ele>
        <time>2022-08-12T10:23:15.000Z</time>
      </trkpt>
      <trkpt lat="45.08818" lon="5.54206">
        <ele>1315.1</ele>
        <time>2022-08-12T10:23:16.000Z</time>
      </trkpt>
      <trkpt lat="45.08819" lon="5.54205">
        <ele>1315.4</ele>
        <time>2022-08-12T10:23:17.000Z</time>
      </trkpt>
      <trkpt lat="45.0882" lon="5.54204">
        <ele>1315.5</ele>
        <time>2022-08-12T10:23:18.000Z</time>
      </trkpt>
      <trkpt lat="45.0882" lon="5.54205">
        <ele>1315.6</ele>
        <time>2022-08-12T10:23:19.000Z</time>
      </trkpt>
      <trkpt lat="45.08821" lon="5.54206">
        <ele>1315.8</ele>
        <time>2022-08-12T10:23:20.000Z</time>
      </trkpt>
      <trkpt lat="45.08821" lon="5.54208">
        <ele>1315.7</ele>
        <time>2022-08-12T10:23:21.000Z</time>
      </trkpt>
      <trkpt lat="45.08821" lon="5.5421">
        <ele>1315.4</ele>
        <time>2022-08-12T10:23:22.000Z</time>
      </trkpt>
      <trkpt lat="45.08821" lon="5.54213">
        <ele>1315.3</ele>
        <time>2022-08-12T10:23:23.000Z</time>
      </trkpt>
      <trkpt lat="45.08821" lon="5.54215">
        <ele>1315.3</ele>
        <time>2022-08-12T10:23:24.000Z</time>
      </trkpt>
      <trkpt lat="45.08821" lon="5.54216">
        <ele>1315.2</ele>
        <time>2022-08-12T10:23:25.000Z</time>
      </trkpt>
      <trkpt lat="45.08823" lon="5.54214">
        <ele>1315.6</ele>
        <time>2022-08-12T10:23:31.000Z</time>
      </trkpt>
      <trkpt lat="45.08823" lon="5.54212">
        <ele>1315.7</ele>
        <time>2022-08-12T10:23:32.000Z</time>
      </trkpt>
      <trkpt lat="45.08824" lon="5.54209">
        <ele>1316.1</ele>
        <time>2022-08-12T10:23:33.000Z</time>
      </trkpt>
      <trkpt lat="45.08825" lon="5.54207">
        <ele>1316.4</ele>
        <time>2022-08-12T10:23:34.000Z</time>
      </trkpt>
      <trkpt lat="45.08826" lon="5.54205">
        <ele>1316.7</ele>
        <time>2022-08-12T10:23:35.000Z</time>
      </trkpt>
      <trkpt lat="45.08827" lon="5.54203">
        <ele>1317.1</ele>
        <time>2022-08-12T10:23:36.000Z</time>
      </trkpt>
      <trkpt lat="45.08827" lon="5.542">
        <ele>1317.3</ele>
        <time>2022-08-12T10:23:37.000Z</time>
      </trkpt>
      <trkpt lat="45.08828" lon="5.54197">
        <ele>1317.6</ele>
        <time>2022-08-12T10:23:38.000Z</time>
      </trkpt>
      <trkpt lat="45.08828" lon="5.54196">
        <ele>1317.7</ele>
        <time>2022-08-12T10:23:39.000Z</time>
      </trkpt>
      <trkpt lat="45.08828" lon="5.54194">
        <ele>1317.8</ele>
        <time>2022-08-12T10:23:40.000Z</time>
      </trkpt>
      <trkpt lat="45.08828" lon="5.54192">
        <ele>1317.9</ele>
        <time>2022-08-12T10:23:41.000Z</time>
      </trkpt>
      <trkpt lat="45.0883" lon="5.5419">
        <ele>1318.3</ele>
        <time>2022-08-12T10:23:43.000Z</time>
      </trkpt>
      <trkpt lat="45.08832" lon="5.54189">
        <ele>1318.6</ele>
        <time>2022-08-12T10:23:44.000Z</time>
      </trkpt>
      <trkpt lat="45.08833" lon="5.5419">
        <ele>1318.9</ele>
        <time>2022-08-12T10:23:45.000Z</time>
      </trkpt>
      <trkpt lat="45.08834" lon="5.5419">
        <ele>1319.1</ele>
        <time>2022-08-12T10:23:46.000Z</time>
      </trkpt>
      <trkpt lat="45.08835" lon="5.54191">
        <ele>1319.3</ele>
        <time>2022-08-12T10:23:47.000Z</time>
      </trkpt>
      <trkpt lat="45.08836" lon="5.54192">
        <ele>1319.5</ele>
        <time>2022-08-12T10:23:48.000Z</time>
      </trkpt>
      <trkpt lat="45.08837" lon="5.54194">
        <ele>1319.6</ele>
        <time>2022-08-12T10:23:49.000Z</time>
      </trkpt>
      <trkpt lat="45.08837" lon="5.54195">
        <ele>1319.7</ele>
        <time>2022-08-12T10:23:51.000Z</time>
      </trkpt>
      <trkpt lat="45.08838" lon="5.54195">
        <ele>1319.8</ele>
        <time>2022-08-12T10:23:54.000Z</time>
      </trkpt>
      <trkpt lat="45.08838" lon="5.54193">
        <ele>1319.9</ele>
        <time>2022-08-12T10:23:55.000Z</time>
      </trkpt>
      <trkpt lat="45.08839" lon="5.54191">
        <ele>1320.1</ele>
        <time>2022-08-12T10:23:56.000Z</time>
      </trkpt>
      <trkpt lat="45.0884" lon="5.54188">
        <ele>1320.2</ele>
        <time>2022-08-12T10:23:57.000Z</time>
      </trkpt>
      <trkpt lat="45.08841" lon="5.54187">
        <ele>1320.4</ele>
        <time>2022-08-12T10:23:58.000Z</time>
      </trkpt>
      <trkpt lat="45.08842" lon="5.54186">
        <ele>1320.6</ele>
        <time>2022-08-12T10:23:59.000Z</time>
      </trkpt>
      <trkpt lat="45.08842" lon="5.54185">
        <ele>1320.7</ele>
        <time>2022-08-12T10:24:00.000Z</time>
      </trkpt>
      <trkpt lat="45.08843" lon="5.54184">
        <ele>1320.8</ele>
        <time>2022-08-12T10:24:01.000Z</time>
      </trkpt>
      <trkpt lat="45.08843" lon="5.54183">
        <ele>1320.9</ele>
        <time>2022-08-12T10:24:02.000Z</time>
      </trkpt>
      <trkpt lat="45.08844" lon="5.54182">
        <ele>1321</ele>
        <time>2022-08-12T10:24:03.000Z</time>
      </trkpt>
      <trkpt lat="45.08844" lon="5.54181">
        <ele>1321.1</ele>
        <time>2022-08-12T10:24:04.000Z</time>
      </trkpt>
      <trkpt lat="45.08845" lon="5.54179">
        <ele>1321.3</ele>
        <time>2022-08-12T10:24:05.000Z</time>
      </trkpt>
      <trkpt lat="45.08846" lon="5.54178">
        <ele>1321.5</ele>
        <time>2022-08-12T10:24:06.000Z</time>
      </trkpt>
      <trkpt lat="45.08847" lon="5.54176">
        <ele>1321.7</ele>
        <time>2022-08-12T10:24:07.000Z</time>
      </trkpt>
      <trkpt lat="45.08847" lon="5.54174">
        <ele>1321.8</ele>
        <time>2022-08-12T10:24:08.000Z</time>
      </trkpt>
      <trkpt lat="45.08848" lon="5.54173">
        <ele>1321.9</ele>
        <time>2022-08-12T10:24:09.000Z</time>
      </trkpt>
      <trkpt lat="45.08849" lon="5.54172">
        <ele>1322.2</ele>
        <time>2022-08-12T10:24:10.000Z</time>
      </trkpt>
      <trkpt lat="45.08849" lon="5.5417">
        <ele>1322.4</ele>
        <time>2022-08-12T10:24:11.000Z</time>
      </trkpt>
      <trkpt lat="45.08849" lon="5.54169">
        <ele>1322.4</ele>
        <time>2022-08-12T10:24:12.000Z</time>
      </trkpt>
      <trkpt lat="45.0885" lon="5.54166">
        <ele>1322.5</ele>
        <time>2022-08-12T10:24:13.000Z</time>
      </trkpt>
      <trkpt lat="45.0885" lon="5.54164">
        <ele>1322.5</ele>
        <time>2022-08-12T10:24:14.000Z</time>
      </trkpt>
      <trkpt lat="45.08851" lon="5.54161">
        <ele>1322.7</ele>
        <time>2022-08-12T10:24:15.000Z</time>
      </trkpt>
      <trkpt lat="45.08851" lon="5.54159">
        <ele>1322.7</ele>
        <time>2022-08-12T10:24:16.000Z</time>
      </trkpt>
      <trkpt lat="45.08851" lon="5.54156">
        <ele>1322.7</ele>
        <time>2022-08-12T10:24:17.000Z</time>
      </trkpt>
      <trkpt lat="45.08851" lon="5.54153">
        <ele>1322.7</ele>
        <time>2022-08-12T10:24:18.000Z</time>
      </trkpt>
      <trkpt lat="45.08852" lon="5.54151">
        <ele>1322.9</ele>
        <time>2022-08-12T10:24:19.000Z</time>
      </trkpt>
      <trkpt lat="45.08854" lon="5.54152">
        <ele>1323.3</ele>
        <time>2022-08-12T10:24:20.000Z</time>
      </trkpt>
      <trkpt lat="45.08855" lon="5.54153">
        <ele>1323.6</ele>
        <time>2022-08-12T10:24:21.000Z</time>
      </trkpt>
      <trkpt lat="45.08856" lon="5.54155">
        <ele>1323.7</ele>
        <time>2022-08-12T10:24:22.000Z</time>
      </trkpt>
      <trkpt lat="45.08856" lon="5.54156">
        <ele>1323.9</ele>
        <time>2022-08-12T10:24:23.000Z</time>
      </trkpt>
      <trkpt lat="45.08856" lon="5.54158">
        <ele>1323.9</ele>
        <time>2022-08-12T10:24:24.000Z</time>
      </trkpt>
      <trkpt lat="45.08856" lon="5.5416">
        <ele>1324</ele>
        <time>2022-08-12T10:24:25.000Z</time>
      </trkpt>
      <trkpt lat="45.08857" lon="5.54163">
        <ele>1324</ele>
        <time>2022-08-12T10:24:26.000Z</time>
      </trkpt>
      <trkpt lat="45.08857" lon="5.54165">
        <ele>1324</ele>
        <time>2022-08-12T10:24:27.000Z</time>
      </trkpt>
      <trkpt lat="45.08857" lon="5.54167">
        <ele>1324</ele>
        <time>2022-08-12T10:24:28.000Z</time>
      </trkpt>
      <trkpt lat="45.08857" lon="5.54169">
        <ele>1324.1</ele>
        <time>2022-08-12T10:24:29.000Z</time>
      </trkpt>
      <trkpt lat="45.08857" lon="5.54171">
        <ele>1324.1</ele>
        <time>2022-08-12T10:24:30.000Z</time>
      </trkpt>
      <trkpt lat="45.08858" lon="5.54172">
        <ele>1324.2</ele>
        <time>2022-08-12T10:24:31.000Z</time>
      </trkpt>
      <trkpt lat="45.08859" lon="5.54172">
        <ele>1324.4</ele>
        <time>2022-08-12T10:24:32.000Z</time>
      </trkpt>
      <trkpt lat="45.0886" lon="5.54172">
        <ele>1324.6</ele>
        <time>2022-08-12T10:24:33.000Z</time>
      </trkpt>
      <trkpt lat="45.08861" lon="5.54171">
        <ele>1324.8</ele>
        <time>2022-08-12T10:24:34.000Z</time>
      </trkpt>
      <trkpt lat="45.08862" lon="5.5417">
        <ele>1325</ele>
        <time>2022-08-12T10:24:35.000Z</time>
      </trkpt>
      <trkpt lat="45.08862" lon="5.54169">
        <ele>1325.1</ele>
        <time>2022-08-12T10:24:36.000Z</time>
      </trkpt>
      <trkpt lat="45.08862" lon="5.54168">
        <ele>1325.1</ele>
        <time>2022-08-12T10:24:37.000Z</time>
      </trkpt>
      <trkpt lat="45.08862" lon="5.54165">
        <ele>1325.2</ele>
        <time>2022-08-12T10:24:38.000Z</time>
      </trkpt>
      <trkpt lat="45.08863" lon="5.54164">
        <ele>1325.2</ele>
        <time>2022-08-12T10:24:39.000Z</time>
      </trkpt>
      <trkpt lat="45.08863" lon="5.54162">
        <ele>1325.2</ele>
        <time>2022-08-12T10:24:40.000Z</time>
      </trkpt>
      <trkpt lat="45.08863" lon="5.5416">
        <ele>1325.3</ele>
        <time>2022-08-12T10:24:41.000Z</time>
      </trkpt>
      <trkpt lat="45.08863" lon="5.54158">
        <ele>1325.3</ele>
        <time>2022-08-12T10:24:42.000Z</time>
      </trkpt>
      <trkpt lat="45.08863" lon="5.54156">
        <ele>1325.3</ele>
        <time>2022-08-12T10:24:43.000Z</time>
      </trkpt>
      <trkpt lat="45.08864" lon="5.54154">
        <ele>1325.5</ele>
        <time>2022-08-12T10:24:44.000Z</time>
      </trkpt>
      <trkpt lat="45.08865" lon="5.54153">
        <ele>1325.6</ele>
        <time>2022-08-12T10:24:45.000Z</time>
      </trkpt>
      <trkpt lat="45.08865" lon="5.54151">
        <ele>1325.6</ele>
        <time>2022-08-12T10:24:46.000Z</time>
      </trkpt>
      <trkpt lat="45.08866" lon="5.5415">
        <ele>1325.8</ele>
        <time>2022-08-12T10:24:47.000Z</time>
      </trkpt>
      <trkpt lat="45.08866" lon="5.54149">
        <ele>1325.8</ele>
        <time>2022-08-12T10:24:48.000Z</time>
      </trkpt>
      <trkpt lat="45.08867" lon="5.54147">
        <ele>1326</ele>
        <time>2022-08-12T10:24:49.000Z</time>
      </trkpt>
      <trkpt lat="45.08868" lon="5.54146">
        <ele>1326.2</ele>
        <time>2022-08-12T10:24:50.000Z</time>
      </trkpt>
      <trkpt lat="45.08869" lon="5.54145">
        <ele>1326.4</ele>
        <time>2022-08-12T10:24:51.000Z</time>
      </trkpt>
      <trkpt lat="45.08869" lon="5.54144">
        <ele>1326.4</ele>
        <time>2022-08-12T10:24:52.000Z</time>
      </trkpt>
      <trkpt lat="45.0887" lon="5.54141">
        <ele>1326.6</ele>
        <time>2022-08-12T10:24:54.000Z</time>
      </trkpt>
      <trkpt lat="45.08871" lon="5.54139">
        <ele>1326.8</ele>
        <time>2022-08-12T10:24:55.000Z</time>
      </trkpt>
      <trkpt lat="45.08875" lon="5.54137">
        <ele>1327.5</ele>
        <time>2022-08-12T10:24:58.000Z</time>
      </trkpt>
      <trkpt lat="45.08876" lon="5.54139">
        <ele>1327.7</ele>
        <time>2022-08-12T10:24:59.000Z</time>
      </trkpt>
      <trkpt lat="45.08877" lon="5.54141">
        <ele>1327.8</ele>
        <time>2022-08-12T10:25:00.000Z</time>
      </trkpt>
      <trkpt lat="45.08878" lon="5.54143">
        <ele>1328</ele>
        <time>2022-08-12T10:25:02.000Z</time>
      </trkpt>
      <trkpt lat="45.08879" lon="5.54144">
        <ele>1328</ele>
        <time>2022-08-12T10:25:03.000Z</time>
      </trkpt>
      <trkpt lat="45.08879" lon="5.54145">
        <ele>1328</ele>
        <time>2022-08-12T10:25:04.000Z</time>
      </trkpt>
      <trkpt lat="45.08879" lon="5.54147">
        <ele>1328</ele>
        <time>2022-08-12T10:25:05.000Z</time>
      </trkpt>
      <trkpt lat="45.08878" lon="5.54148">
        <ele>1327.9</ele>
        <time>2022-08-12T10:25:06.000Z</time>
      </trkpt>
      <trkpt lat="45.08878" lon="5.54149">
        <ele>1327.9</ele>
        <time>2022-08-12T10:25:07.000Z</time>
      </trkpt>
      <trkpt lat="45.08879" lon="5.54151">
        <ele>1327.9</ele>
        <time>2022-08-12T10:25:08.000Z</time>
      </trkpt>
      <trkpt lat="45.08879" lon="5.54153">
        <ele>1327.9</ele>
        <time>2022-08-12T10:25:09.000Z</time>
      </trkpt>
      <trkpt lat="45.08879" lon="5.54154">
        <ele>1327.9</ele>
        <time>2022-08-12T10:25:10.000Z</time>
      </trkpt>
      <trkpt lat="45.0888" lon="5.54157">
        <ele>1327.9</ele>
        <time>2022-08-12T10:25:11.000Z</time>
      </trkpt>
      <trkpt lat="45.0888" lon="5.54158">
        <ele>1327.9</ele>
        <time>2022-08-12T10:25:13.000Z</time>
      </trkpt>
      <trkpt lat="45.08881" lon="5.5416">
        <ele>1328.1</ele>
        <time>2022-08-12T10:25:14.000Z</time>
      </trkpt>
      <trkpt lat="45.08882" lon="5.54161">
        <ele>1328.2</ele>
        <time>2022-08-12T10:25:15.000Z</time>
      </trkpt>
      <trkpt lat="45.08883" lon="5.54162">
        <ele>1328.3</ele>
        <time>2022-08-12T10:25:16.000Z</time>
      </trkpt>
      <trkpt lat="45.08884" lon="5.54162">
        <ele>1328.4</ele>
        <time>2022-08-12T10:25:19.000Z</time>
      </trkpt>
      <trkpt lat="45.08889" lon="5.54169">
        <ele>1328.8</ele>
        <time>2022-08-12T10:25:24.000Z</time>
      </trkpt>
      <trkpt lat="45.0889" lon="5.5417">
        <ele>1328.8</ele>
        <time>2022-08-12T10:25:25.000Z</time>
      </trkpt>
      <trkpt lat="45.08891" lon="5.54171">
        <ele>1328.8</ele>
        <time>2022-08-12T10:25:26.000Z</time>
      </trkpt>
      <trkpt lat="45.08893" lon="5.54174">
        <ele>1328.8</ele>
        <time>2022-08-12T10:25:28.000Z</time>
      </trkpt>
      <trkpt lat="45.08896" lon="5.54177">
        <ele>1328.7</ele>
        <time>2022-08-12T10:25:30.000Z</time>
      </trkpt>
      <trkpt lat="45.08897" lon="5.54182">
        <ele>1328.5</ele>
        <time>2022-08-12T10:25:33.000Z</time>
      </trkpt>
      <trkpt lat="45.08898" lon="5.54183">
        <ele>1328.5</ele>
        <time>2022-08-12T10:25:34.000Z</time>
      </trkpt>
      <trkpt lat="45.089" lon="5.54184">
        <ele>1328.5</ele>
        <time>2022-08-12T10:25:35.000Z</time>
      </trkpt>
      <trkpt lat="45.089" lon="5.54185">
        <ele>1328.5</ele>
        <time>2022-08-12T10:25:36.000Z</time>
      </trkpt>
      <trkpt lat="45.089" lon="5.54186">
        <ele>1328.5</ele>
        <time>2022-08-12T10:25:37.000Z</time>
      </trkpt>
      <trkpt lat="45.08902" lon="5.54186">
        <ele>1328.5</ele>
        <time>2022-08-12T10:25:38.000Z</time>
      </trkpt>
      <trkpt lat="45.08906" lon="5.54188">
        <ele>1328.7</ele>
        <time>2022-08-12T10:25:41.000Z</time>
      </trkpt>
      <trkpt lat="45.08907" lon="5.54188">
        <ele>1328.8</ele>
        <time>2022-08-12T10:25:42.000Z</time>
      </trkpt>
      <trkpt lat="45.08908" lon="5.54187">
        <ele>1328.9</ele>
        <time>2022-08-12T10:25:43.000Z</time>
      </trkpt>
      <trkpt lat="45.08908" lon="5.54186">
        <ele>1329</ele>
        <time>2022-08-12T10:25:44.000Z</time>
      </trkpt>
      <trkpt lat="45.08907" lon="5.54185">
        <ele>1329</ele>
        <time>2022-08-12T10:25:45.000Z</time>
      </trkpt>
      <trkpt lat="45.08905" lon="5.54182">
        <ele>1329.1</ele>
        <time>2022-08-12T10:25:48.000Z</time>
      </trkpt>
      <trkpt lat="45.08905" lon="5.5418">
        <ele>1329.2</ele>
        <time>2022-08-12T10:25:49.000Z</time>
      </trkpt>
      <trkpt lat="45.08906" lon="5.54176">
        <ele>1329.5</ele>
        <time>2022-08-12T10:25:51.000Z</time>
      </trkpt>
      <trkpt lat="45.08906" lon="5.54175">
        <ele>1329.7</ele>
        <time>2022-08-12T10:25:52.000Z</time>
      </trkpt>
      <trkpt lat="45.0891" lon="5.54173">
        <ele>1330</ele>
        <time>2022-08-12T10:25:54.000Z</time>
      </trkpt>
      <trkpt lat="45.08913" lon="5.54174">
        <ele>1330.2</ele>
        <time>2022-08-12T10:25:57.000Z</time>
      </trkpt>
      <trkpt lat="45.08915" lon="5.54174">
        <ele>1330.3</ele>
        <time>2022-08-12T10:25:58.000Z</time>
      </trkpt>
      <trkpt lat="45.08917" lon="5.54175">
        <ele>1330.4</ele>
        <time>2022-08-12T10:25:59.000Z</time>
      </trkpt>
      <trkpt lat="45.08919" lon="5.54176">
        <ele>1330.4</ele>
        <time>2022-08-12T10:26:00.000Z</time>
      </trkpt>
      <trkpt lat="45.08921" lon="5.54176">
        <ele>1330.5</ele>
        <time>2022-08-12T10:26:01.000Z</time>
      </trkpt>
      <trkpt lat="45.08922" lon="5.54176">
        <ele>1330.6</ele>
        <time>2022-08-12T10:26:02.000Z</time>
      </trkpt>
      <trkpt lat="45.08922" lon="5.54175">
        <ele>1330.7</ele>
        <time>2022-08-12T10:26:03.000Z</time>
      </trkpt>
      <trkpt lat="45.08923" lon="5.54174">
        <ele>1330.8</ele>
        <time>2022-08-12T10:26:04.000Z</time>
      </trkpt>
      <trkpt lat="45.08923" lon="5.54171">
        <ele>1331</ele>
        <time>2022-08-12T10:26:14.000Z</time>
      </trkpt>
      <trkpt lat="45.08923" lon="5.54169">
        <ele>1331.2</ele>
        <time>2022-08-12T10:26:25.000Z</time>
      </trkpt>
      <trkpt lat="45.08924" lon="5.54166">
        <ele>1331.7</ele>
        <time>2022-08-12T10:26:28.000Z</time>
      </trkpt>
      <trkpt lat="45.08925" lon="5.54166">
        <ele>1331.7</ele>
        <time>2022-08-12T10:26:29.000Z</time>
      </trkpt>
      <trkpt lat="45.08925" lon="5.54165">
        <ele>1331.8</ele>
        <time>2022-08-12T10:26:32.000Z</time>
      </trkpt>
      <trkpt lat="45.08926" lon="5.54165">
        <ele>1331.9</ele>
        <time>2022-08-12T10:26:36.000Z</time>
      </trkpt>
      <trkpt lat="45.08927" lon="5.54164">
        <ele>1332.1</ele>
        <time>2022-08-12T10:26:37.000Z</time>
      </trkpt>
      <trkpt lat="45.08929" lon="5.54164">
        <ele>1332.2</ele>
        <time>2022-08-12T10:26:38.000Z</time>
      </trkpt>
      <trkpt lat="45.0893" lon="5.54163">
        <ele>1332.4</ele>
        <time>2022-08-12T10:26:39.000Z</time>
      </trkpt>
      <trkpt lat="45.08931" lon="5.54162">
        <ele>1332.5</ele>
        <time>2022-08-12T10:26:40.000Z</time>
      </trkpt>
      <trkpt lat="45.08932" lon="5.54162">
        <ele>1332.7</ele>
        <time>2022-08-12T10:26:41.000Z</time>
      </trkpt>
      <trkpt lat="45.08933" lon="5.54161">
        <ele>1332.8</ele>
        <time>2022-08-12T10:26:42.000Z</time>
      </trkpt>
      <trkpt lat="45.08934" lon="5.54161">
        <ele>1332.9</ele>
        <time>2022-08-12T10:26:43.000Z</time>
      </trkpt>
      <trkpt lat="45.08934" lon="5.5416">
        <ele>1333</ele>
        <time>2022-08-12T10:26:44.000Z</time>
      </trkpt>
      <trkpt lat="45.08934" lon="5.54158">
        <ele>1333.2</ele>
        <time>2022-08-12T10:26:45.000Z</time>
      </trkpt>
      <trkpt lat="45.08934" lon="5.54157">
        <ele>1333.3</ele>
        <time>2022-08-12T10:26:46.000Z</time>
      </trkpt>
      <trkpt lat="45.08934" lon="5.54155">
        <ele>1333.5</ele>
        <time>2022-08-12T10:26:48.000Z</time>
      </trkpt>
      <trkpt lat="45.08934" lon="5.54153">
        <ele>1333.7</ele>
        <time>2022-08-12T10:26:49.000Z</time>
      </trkpt>
      <trkpt lat="45.08932" lon="5.54147">
        <ele>1334.2</ele>
        <time>2022-08-12T10:26:52.000Z</time>
      </trkpt>
      <trkpt lat="45.08932" lon="5.54146">
        <ele>1334.3</ele>
        <time>2022-08-12T10:26:53.000Z</time>
      </trkpt>
      <trkpt lat="45.08932" lon="5.54144">
        <ele>1334.5</ele>
        <time>2022-08-12T10:26:54.000Z</time>
      </trkpt>
      <trkpt lat="45.08932" lon="5.5414">
        <ele>1335</ele>
        <time>2022-08-12T10:26:56.000Z</time>
      </trkpt>
      <trkpt lat="45.08932" lon="5.54139">
        <ele>1335.1</ele>
        <time>2022-08-12T10:26:57.000Z</time>
      </trkpt>
      <trkpt lat="45.08931" lon="5.54138">
        <ele>1335.2</ele>
        <time>2022-08-12T10:26:58.000Z</time>
      </trkpt>
      <trkpt lat="45.0893" lon="5.54133">
        <ele>1335.6</ele>
        <time>2022-08-12T10:27:00.000Z</time>
      </trkpt>
      <trkpt lat="45.0893" lon="5.54131">
        <ele>1335.8</ele>
        <time>2022-08-12T10:27:01.000Z</time>
      </trkpt>
      <trkpt lat="45.08929" lon="5.5413">
        <ele>1335.9</ele>
        <time>2022-08-12T10:27:02.000Z</time>
      </trkpt>
      <trkpt lat="45.08929" lon="5.54128">
        <ele>1336.1</ele>
        <time>2022-08-12T10:27:03.000Z</time>
      </trkpt>
      <trkpt lat="45.08931" lon="5.54121">
        <ele>1337</ele>
        <time>2022-08-12T10:27:06.000Z</time>
      </trkpt>
      <trkpt lat="45.08931" lon="5.54119">
        <ele>1337.2</ele>
        <time>2022-08-12T10:27:07.000Z</time>
      </trkpt>
      <trkpt lat="45.08931" lon="5.54114">
        <ele>1337.8</ele>
        <time>2022-08-12T10:27:09.000Z</time>
      </trkpt>
      <trkpt lat="45.08932" lon="5.54112">
        <ele>1338.1</ele>
        <time>2022-08-12T10:27:10.000Z</time>
      </trkpt>
      <trkpt lat="45.08933" lon="5.5411">
        <ele>1338.4</ele>
        <time>2022-08-12T10:27:11.000Z</time>
      </trkpt>
      <trkpt lat="45.08933" lon="5.54108">
        <ele>1338.6</ele>
        <time>2022-08-12T10:27:12.000Z</time>
      </trkpt>
      <trkpt lat="45.08933" lon="5.54107">
        <ele>1338.8</ele>
        <time>2022-08-12T10:27:13.000Z</time>
      </trkpt>
      <trkpt lat="45.08932" lon="5.54105">
        <ele>1338.9</ele>
        <time>2022-08-12T10:27:14.000Z</time>
      </trkpt>
      <trkpt lat="45.08931" lon="5.54103">
        <ele>1338.9</ele>
        <time>2022-08-12T10:27:15.000Z</time>
      </trkpt>
      <trkpt lat="45.08929" lon="5.54101">
        <ele>1338.9</ele>
        <time>2022-08-12T10:27:16.000Z</time>
      </trkpt>
      <trkpt lat="45.08929" lon="5.54099">
        <ele>1339.1</ele>
        <time>2022-08-12T10:27:17.000Z</time>
      </trkpt>
      <trkpt lat="45.0893" lon="5.54097">
        <ele>1339.5</ele>
        <time>2022-08-12T10:27:18.000Z</time>
      </trkpt>
      <trkpt lat="45.08931" lon="5.54095">
        <ele>1339.8</ele>
        <time>2022-08-12T10:27:19.000Z</time>
      </trkpt>
      <trkpt lat="45.08931" lon="5.54092">
        <ele>1340.1</ele>
        <time>2022-08-12T10:27:22.000Z</time>
      </trkpt>
      <trkpt lat="45.08931" lon="5.5409">
        <ele>1340.2</ele>
        <time>2022-08-12T10:27:23.000Z</time>
      </trkpt>
      <trkpt lat="45.08931" lon="5.54086">
        <ele>1340.8</ele>
        <time>2022-08-12T10:27:25.000Z</time>
      </trkpt>
      <trkpt lat="45.08932" lon="5.54085">
        <ele>1341</ele>
        <time>2022-08-12T10:27:26.000Z</time>
      </trkpt>
      <trkpt lat="45.08933" lon="5.54085">
        <ele>1341.2</ele>
        <time>2022-08-12T10:27:28.000Z</time>
      </trkpt>
      <trkpt lat="45.08934" lon="5.54085">
        <ele>1341.3</ele>
        <time>2022-08-12T10:27:30.000Z</time>
      </trkpt>
      <trkpt lat="45.08935" lon="5.54086">
        <ele>1341.4</ele>
        <time>2022-08-12T10:27:31.000Z</time>
      </trkpt>
      <trkpt lat="45.08936" lon="5.54085">
        <ele>1341.6</ele>
        <time>2022-08-12T10:27:32.000Z</time>
      </trkpt>
      <trkpt lat="45.08938" lon="5.54085">
        <ele>1341.9</ele>
        <time>2022-08-12T10:27:33.000Z</time>
      </trkpt>
      <trkpt lat="45.08939" lon="5.54085">
        <ele>1342</ele>
        <time>2022-08-12T10:27:35.000Z</time>
      </trkpt>
      <trkpt lat="45.08938" lon="5.54085">
        <ele>1341.9</ele>
        <time>2022-08-12T10:27:53.000Z</time>
      </trkpt>
      <trkpt lat="45.08936" lon="5.54085">
        <ele>1341.7</ele>
        <time>2022-08-12T10:27:54.000Z</time>
      </trkpt>
      <trkpt lat="45.08935" lon="5.54085">
        <ele>1341.5</ele>
        <time>2022-08-12T10:27:57.000Z</time>
      </trkpt>
      <trkpt lat="45.08936" lon="5.54086">
        <ele>1341.6</ele>
        <time>2022-08-12T10:27:58.000Z</time>
      </trkpt>
      <trkpt lat="45.08937" lon="5.54086">
        <ele>1341.6</ele>
        <time>2022-08-12T10:27:59.000Z</time>
      </trkpt>
      <trkpt lat="45.08936" lon="5.54086">
        <ele>1341.6</ele>
        <time>2022-08-12T10:28:04.000Z</time>
      </trkpt>
      <trkpt lat="45.08936" lon="5.54085">
        <ele>1341.6</ele>
        <time>2022-08-12T10:28:08.000Z</time>
      </trkpt>
      <trkpt lat="45.08938" lon="5.54086">
        <ele>1341.7</ele>
        <time>2022-08-12T10:28:40.000Z</time>
      </trkpt>
      <trkpt lat="45.08938" lon="5.54087">
        <ele>1341.6</ele>
        <time>2022-08-12T10:28:54.000Z</time>
      </trkpt>
      <trkpt lat="45.08939" lon="5.54085">
        <ele>1342.1</ele>
        <time>2022-08-12T10:29:08.000Z</time>
      </trkpt>
      <trkpt lat="45.08941" lon="5.54085">
        <ele>1342.3</ele>
        <time>2022-08-12T10:29:09.000Z</time>
      </trkpt>
      <trkpt lat="45.08943" lon="5.54083">
        <ele>1342.8</ele>
        <time>2022-08-12T10:29:11.000Z</time>
      </trkpt>
      <trkpt lat="45.08944" lon="5.54081">
        <ele>1343.2</ele>
        <time>2022-08-12T10:29:12.000Z</time>
      </trkpt>
      <trkpt lat="45.08946" lon="5.5408">
        <ele>1343.4</ele>
        <time>2022-08-12T10:29:13.000Z</time>
      </trkpt>
      <trkpt lat="45.08947" lon="5.5408">
        <ele>1343.5</ele>
        <time>2022-08-12T10:29:14.000Z</time>
      </trkpt>
      <trkpt lat="45.08948" lon="5.54079">
        <ele>1343.7</ele>
        <time>2022-08-12T10:29:15.000Z</time>
      </trkpt>
      <trkpt lat="45.08949" lon="5.54077">
        <ele>1343.9</ele>
        <time>2022-08-12T10:29:16.000Z</time>
      </trkpt>
      <trkpt lat="45.08945" lon="5.54065">
        <ele>1345</ele>
        <time>2022-08-12T10:29:21.000Z</time>
      </trkpt>
      <trkpt lat="45.08945" lon="5.54063">
        <ele>1345.2</ele>
        <time>2022-08-12T10:29:22.000Z</time>
      </trkpt>
      <trkpt lat="45.08947" lon="5.54061">
        <ele>1345.5</ele>
        <time>2022-08-12T10:29:23.000Z</time>
      </trkpt>
      <trkpt lat="45.08949" lon="5.5406">
        <ele>1345.8</ele>
        <time>2022-08-12T10:29:24.000Z</time>
      </trkpt>
      <trkpt lat="45.08952" lon="5.54056">
        <ele>1346.4</ele>
        <time>2022-08-12T10:29:26.000Z</time>
      </trkpt>
      <trkpt lat="45.08951" lon="5.54055">
        <ele>1346.5</ele>
        <time>2022-08-12T10:29:27.000Z</time>
      </trkpt>
      <trkpt lat="45.0895" lon="5.54053">
        <ele>1346.8</ele>
        <time>2022-08-12T10:29:28.000Z</time>
      </trkpt>
      <trkpt lat="45.08948" lon="5.54051">
        <ele>1346.9</ele>
        <time>2022-08-12T10:29:29.000Z</time>
      </trkpt>
      <trkpt lat="45.08947" lon="5.54049">
        <ele>1347.2</ele>
        <time>2022-08-12T10:29:30.000Z</time>
      </trkpt>
      <trkpt lat="45.08947" lon="5.54047">
        <ele>1347.5</ele>
        <time>2022-08-12T10:29:31.000Z</time>
      </trkpt>
      <trkpt lat="45.08947" lon="5.54045">
        <ele>1347.7</ele>
        <time>2022-08-12T10:29:32.000Z</time>
      </trkpt>
      <trkpt lat="45.08946" lon="5.54043">
        <ele>1347.9</ele>
        <time>2022-08-12T10:29:33.000Z</time>
      </trkpt>
      <trkpt lat="45.08945" lon="5.54042">
        <ele>1348</ele>
        <time>2022-08-12T10:29:34.000Z</time>
      </trkpt>
      <trkpt lat="45.08946" lon="5.54042">
        <ele>1348</ele>
        <time>2022-08-12T10:29:35.000Z</time>
      </trkpt>
      <trkpt lat="45.08945" lon="5.54041">
        <ele>1348.1</ele>
        <time>2022-08-12T10:29:36.000Z</time>
      </trkpt>
      <trkpt lat="45.08945" lon="5.5404">
        <ele>1348.4</ele>
        <time>2022-08-12T10:29:37.000Z</time>
      </trkpt>
      <trkpt lat="45.08946" lon="5.54038">
        <ele>1348.6</ele>
        <time>2022-08-12T10:29:38.000Z</time>
      </trkpt>
      <trkpt lat="45.08946" lon="5.54036">
        <ele>1348.9</ele>
        <time>2022-08-12T10:29:39.000Z</time>
      </trkpt>
      <trkpt lat="45.08947" lon="5.54035">
        <ele>1349.1</ele>
        <time>2022-08-12T10:29:40.000Z</time>
      </trkpt>
      <trkpt lat="45.08947" lon="5.54034">
        <ele>1349.3</ele>
        <time>2022-08-12T10:29:41.000Z</time>
      </trkpt>
      <trkpt lat="45.08947" lon="5.54033">
        <ele>1349.4</ele>
        <time>2022-08-12T10:29:42.000Z</time>
      </trkpt>
      <trkpt lat="45.08947" lon="5.54034">
        <ele>1349.3</ele>
        <time>2022-08-12T10:29:44.000Z</time>
      </trkpt>
      <trkpt lat="45.08945" lon="5.54034">
        <ele>1349.2</ele>
        <time>2022-08-12T10:29:45.000Z</time>
      </trkpt>
      <trkpt lat="45.08945" lon="5.54033">
        <ele>1349.3</ele>
        <time>2022-08-12T10:29:46.000Z</time>
      </trkpt>
      <trkpt lat="45.08944" lon="5.54032">
        <ele>1349.2</ele>
        <time>2022-08-12T10:29:47.000Z</time>
      </trkpt>
      <trkpt lat="45.08943" lon="5.54032">
        <ele>1349</ele>
        <time>2022-08-12T10:29:48.000Z</time>
      </trkpt>
      <trkpt lat="45.08942" lon="5.54033">
        <ele>1348.8</ele>
        <time>2022-08-12T10:29:49.000Z</time>
      </trkpt>
      <trkpt lat="45.08941" lon="5.54033">
        <ele>1348.5</ele>
        <time>2022-08-12T10:29:50.000Z</time>
      </trkpt>
      <trkpt lat="45.0894" lon="5.54032">
        <ele>1348.3</ele>
        <time>2022-08-12T10:29:51.000Z</time>
      </trkpt>
      <trkpt lat="45.08938" lon="5.54032">
        <ele>1347.9</ele>
        <time>2022-08-12T10:29:52.000Z</time>
      </trkpt>
      <trkpt lat="45.08937" lon="5.54032">
        <ele>1347.5</ele>
        <time>2022-08-12T10:29:53.000Z</time>
      </trkpt>
      <trkpt lat="45.08935" lon="5.54033">
        <ele>1347.2</ele>
        <time>2022-08-12T10:29:54.000Z</time>
      </trkpt>
      <trkpt lat="45.08934" lon="5.54033">
        <ele>1346.9</ele>
        <time>2022-08-12T10:29:55.000Z</time>
      </trkpt>
      <trkpt lat="45.08933" lon="5.54033">
        <ele>1346.4</ele>
        <time>2022-08-12T10:29:57.000Z</time>
      </trkpt>
      <trkpt lat="45.08932" lon="5.54033">
        <ele>1346.3</ele>
        <time>2022-08-12T10:29:58.000Z</time>
      </trkpt>
      <trkpt lat="45.08931" lon="5.54033">
        <ele>1346.2</ele>
        <time>2022-08-12T10:29:59.000Z</time>
      </trkpt>
      <trkpt lat="45.0893" lon="5.54032">
        <ele>1346</ele>
        <time>2022-08-12T10:30:00.000Z</time>
      </trkpt>
      <trkpt lat="45.08929" lon="5.54031">
        <ele>1345.9</ele>
        <time>2022-08-12T10:30:01.000Z</time>
      </trkpt>
      <trkpt lat="45.08929" lon="5.54029">
        <ele>1346</ele>
        <time>2022-08-12T10:30:02.000Z</time>
      </trkpt>
      <trkpt lat="45.08928" lon="5.54028">
        <ele>1345.9</ele>
        <time>2022-08-12T10:30:03.000Z</time>
      </trkpt>
      <trkpt lat="45.08927" lon="5.54027">
        <ele>1345.6</ele>
        <time>2022-08-12T10:30:04.000Z</time>
      </trkpt>
      <trkpt lat="45.08927" lon="5.54025">
        <ele>1345.5</ele>
        <time>2022-08-12T10:30:05.000Z</time>
      </trkpt>
      <trkpt lat="45.08926" lon="5.54024">
        <ele>1345.5</ele>
        <time>2022-08-12T10:30:06.000Z</time>
      </trkpt>
      <trkpt lat="45.08926" lon="5.54023">
        <ele>1345.4</ele>
        <time>2022-08-12T10:30:07.000Z</time>
      </trkpt>
      <trkpt lat="45.08926" lon="5.54021">
        <ele>1345.3</ele>
        <time>2022-08-12T10:30:08.000Z</time>
      </trkpt>
      <trkpt lat="45.08926" lon="5.5402">
        <ele>1345.3</ele>
        <time>2022-08-12T10:30:09.000Z</time>
      </trkpt>
      <trkpt lat="45.08926" lon="5.54019">
        <ele>1345.4</ele>
        <time>2022-08-12T10:30:11.000Z</time>
      </trkpt>
      <trkpt lat="45.08927" lon="5.54018">
        <ele>1345.6</ele>
        <time>2022-08-12T10:30:12.000Z</time>
      </trkpt>
      <trkpt lat="45.08927" lon="5.54017">
        <ele>1345.8</ele>
        <time>2022-08-12T10:30:14.000Z</time>
      </trkpt>
      <trkpt lat="45.08928" lon="5.54016">
        <ele>1346</ele>
        <time>2022-08-12T10:30:15.000Z</time>
      </trkpt>
      <trkpt lat="45.08929" lon="5.54014">
        <ele>1346.3</ele>
        <time>2022-08-12T10:30:16.000Z</time>
      </trkpt>
      <trkpt lat="45.08929" lon="5.54013">
        <ele>1346.4</ele>
        <time>2022-08-12T10:30:17.000Z</time>
      </trkpt>
      <trkpt lat="45.0893" lon="5.54013">
        <ele>1346.6</ele>
        <time>2022-08-12T10:30:18.000Z</time>
      </trkpt>
      <trkpt lat="45.08931" lon="5.54012">
        <ele>1347</ele>
        <time>2022-08-12T10:30:19.000Z</time>
      </trkpt>
      <trkpt lat="45.08932" lon="5.5401">
        <ele>1347.3</ele>
        <time>2022-08-12T10:30:20.000Z</time>
      </trkpt>
      <trkpt lat="45.08933" lon="5.54008">
        <ele>1347.6</ele>
        <time>2022-08-12T10:30:21.000Z</time>
      </trkpt>
      <trkpt lat="45.08934" lon="5.54007">
        <ele>1347.9</ele>
        <time>2022-08-12T10:30:22.000Z</time>
      </trkpt>
      <trkpt lat="45.08935" lon="5.54006">
        <ele>1348.2</ele>
        <time>2022-08-12T10:30:23.000Z</time>
      </trkpt>
      <trkpt lat="45.08935" lon="5.54004">
        <ele>1348.6</ele>
        <time>2022-08-12T10:30:24.000Z</time>
      </trkpt>
      <trkpt lat="45.08936" lon="5.54003">
        <ele>1348.9</ele>
        <time>2022-08-12T10:30:25.000Z</time>
      </trkpt>
      <trkpt lat="45.08937" lon="5.54002">
        <ele>1349.3</ele>
        <time>2022-08-12T10:30:26.000Z</time>
      </trkpt>
      <trkpt lat="45.08938" lon="5.54">
        <ele>1349.6</ele>
        <time>2022-08-12T10:30:27.000Z</time>
      </trkpt>
      <trkpt lat="45.08938" lon="5.53998">
        <ele>1349.7</ele>
        <time>2022-08-12T10:30:28.000Z</time>
      </trkpt>
      <trkpt lat="45.08938" lon="5.53997">
        <ele>1349.6</ele>
        <time>2022-08-12T10:30:29.000Z</time>
      </trkpt>
      <trkpt lat="45.08938" lon="5.53994">
        <ele>1349.4</ele>
        <time>2022-08-12T10:30:30.000Z</time>
      </trkpt>
      <trkpt lat="45.08939" lon="5.53992">
        <ele>1349.5</ele>
        <time>2022-08-12T10:30:31.000Z</time>
      </trkpt>
      <trkpt lat="45.0894" lon="5.5399">
        <ele>1349.9</ele>
        <time>2022-08-12T10:30:32.000Z</time>
      </trkpt>
      <trkpt lat="45.08941" lon="5.53989">
        <ele>1350.4</ele>
        <time>2022-08-12T10:30:33.000Z</time>
      </trkpt>
      <trkpt lat="45.08942" lon="5.53988">
        <ele>1350.7</ele>
        <time>2022-08-12T10:30:34.000Z</time>
      </trkpt>
      <trkpt lat="45.08943" lon="5.53987">
        <ele>1351.1</ele>
        <time>2022-08-12T10:30:35.000Z</time>
      </trkpt>
      <trkpt lat="45.08945" lon="5.53988">
        <ele>1351.6</ele>
        <time>2022-08-12T10:30:36.000Z</time>
      </trkpt>
      <trkpt lat="45.08946" lon="5.53988">
        <ele>1352</ele>
        <time>2022-08-12T10:30:37.000Z</time>
      </trkpt>
      <trkpt lat="45.08947" lon="5.53987">
        <ele>1352</ele>
        <time>2022-08-12T10:30:38.000Z</time>
      </trkpt>
      <trkpt lat="45.08947" lon="5.53985">
        <ele>1352.1</ele>
        <time>2022-08-12T10:30:39.000Z</time>
      </trkpt>
      <trkpt lat="45.08948" lon="5.53984">
        <ele>1352.1</ele>
        <time>2022-08-12T10:30:40.000Z</time>
      </trkpt>
      <trkpt lat="45.08949" lon="5.53983">
        <ele>1352.3</ele>
        <time>2022-08-12T10:30:41.000Z</time>
      </trkpt>
      <trkpt lat="45.0895" lon="5.53982">
        <ele>1352.6</ele>
        <time>2022-08-12T10:30:42.000Z</time>
      </trkpt>
      <trkpt lat="45.08951" lon="5.53982">
        <ele>1352.7</ele>
        <time>2022-08-12T10:30:43.000Z</time>
      </trkpt>
      <trkpt lat="45.08951" lon="5.53981">
        <ele>1352.8</ele>
        <time>2022-08-12T10:30:44.000Z</time>
      </trkpt>
      <trkpt lat="45.08952" lon="5.5398">
        <ele>1352.9</ele>
        <time>2022-08-12T10:30:45.000Z</time>
      </trkpt>
      <trkpt lat="45.08953" lon="5.5398">
        <ele>1353.1</ele>
        <time>2022-08-12T10:30:46.000Z</time>
      </trkpt>
      <trkpt lat="45.08953" lon="5.53979">
        <ele>1353.3</ele>
        <time>2022-08-12T10:30:47.000Z</time>
      </trkpt>
      <trkpt lat="45.08954" lon="5.53978">
        <ele>1353.5</ele>
        <time>2022-08-12T10:30:48.000Z</time>
      </trkpt>
      <trkpt lat="45.08955" lon="5.53977">
        <ele>1353.6</ele>
        <time>2022-08-12T10:30:49.000Z</time>
      </trkpt>
      <trkpt lat="45.08956" lon="5.53976">
        <ele>1353.9</ele>
        <time>2022-08-12T10:30:50.000Z</time>
      </trkpt>
      <trkpt lat="45.08957" lon="5.53974">
        <ele>1354.1</ele>
        <time>2022-08-12T10:30:51.000Z</time>
      </trkpt>
      <trkpt lat="45.08958" lon="5.53973">
        <ele>1354.5</ele>
        <time>2022-08-12T10:30:53.000Z</time>
      </trkpt>
      <trkpt lat="45.0896" lon="5.53973">
        <ele>1354.8</ele>
        <time>2022-08-12T10:30:54.000Z</time>
      </trkpt>
      <trkpt lat="45.08961" lon="5.53972">
        <ele>1355.1</ele>
        <time>2022-08-12T10:30:55.000Z</time>
      </trkpt>
      <trkpt lat="45.08962" lon="5.53972">
        <ele>1355.5</ele>
        <time>2022-08-12T10:30:56.000Z</time>
      </trkpt>
      <trkpt lat="45.08963" lon="5.53971">
        <ele>1355.7</ele>
        <time>2022-08-12T10:30:57.000Z</time>
      </trkpt>
      <trkpt lat="45.08964" lon="5.5397">
        <ele>1355.8</ele>
        <time>2022-08-12T10:30:58.000Z</time>
      </trkpt>
      <trkpt lat="45.08965" lon="5.53969">
        <ele>1355.9</ele>
        <time>2022-08-12T10:30:59.000Z</time>
      </trkpt>
      <trkpt lat="45.08966" lon="5.53968">
        <ele>1356.1</ele>
        <time>2022-08-12T10:31:00.000Z</time>
      </trkpt>
      <trkpt lat="45.08967" lon="5.53967">
        <ele>1356.3</ele>
        <time>2022-08-12T10:31:01.000Z</time>
      </trkpt>
      <trkpt lat="45.08968" lon="5.53966">
        <ele>1356.5</ele>
        <time>2022-08-12T10:31:02.000Z</time>
      </trkpt>
      <trkpt lat="45.08969" lon="5.53965">
        <ele>1356.8</ele>
        <time>2022-08-12T10:31:03.000Z</time>
      </trkpt>
      <trkpt lat="45.0897" lon="5.53964">
        <ele>1357.1</ele>
        <time>2022-08-12T10:31:04.000Z</time>
      </trkpt>
      <trkpt lat="45.08972" lon="5.53963">
        <ele>1357.5</ele>
        <time>2022-08-12T10:31:05.000Z</time>
      </trkpt>
      <trkpt lat="45.08973" lon="5.53962">
        <ele>1357.7</ele>
        <time>2022-08-12T10:31:06.000Z</time>
      </trkpt>
      <trkpt lat="45.08974" lon="5.53961">
        <ele>1357.8</ele>
        <time>2022-08-12T10:31:07.000Z</time>
      </trkpt>
      <trkpt lat="45.08974" lon="5.5396">
        <ele>1357.9</ele>
        <time>2022-08-12T10:31:08.000Z</time>
      </trkpt>
      <trkpt lat="45.08976" lon="5.5396">
        <ele>1358.1</ele>
        <time>2022-08-12T10:31:09.000Z</time>
      </trkpt>
      <trkpt lat="45.08977" lon="5.53959">
        <ele>1358.2</ele>
        <time>2022-08-12T10:31:10.000Z</time>
      </trkpt>
      <trkpt lat="45.08977" lon="5.53958">
        <ele>1358.3</ele>
        <time>2022-08-12T10:31:11.000Z</time>
      </trkpt>
      <trkpt lat="45.08978" lon="5.53957">
        <ele>1358.5</ele>
        <time>2022-08-12T10:31:12.000Z</time>
      </trkpt>
      <trkpt lat="45.08979" lon="5.53957">
        <ele>1358.6</ele>
        <time>2022-08-12T10:31:13.000Z</time>
      </trkpt>
      <trkpt lat="45.0898" lon="5.53956">
        <ele>1358.8</ele>
        <time>2022-08-12T10:31:14.000Z</time>
      </trkpt>
      <trkpt lat="45.08982" lon="5.53954">
        <ele>1359</ele>
        <time>2022-08-12T10:31:15.000Z</time>
      </trkpt>
      <trkpt lat="45.08983" lon="5.53954">
        <ele>1359.3</ele>
        <time>2022-08-12T10:31:16.000Z</time>
      </trkpt>
      <trkpt lat="45.08984" lon="5.53952">
        <ele>1359.6</ele>
        <time>2022-08-12T10:31:17.000Z</time>
      </trkpt>
      <trkpt lat="45.08986" lon="5.53952">
        <ele>1359.8</ele>
        <time>2022-08-12T10:31:18.000Z</time>
      </trkpt>
      <trkpt lat="45.08987" lon="5.53951">
        <ele>1360</ele>
        <time>2022-08-12T10:31:19.000Z</time>
      </trkpt>
      <trkpt lat="45.08988" lon="5.5395">
        <ele>1360.3</ele>
        <time>2022-08-12T10:31:20.000Z</time>
      </trkpt>
      <trkpt lat="45.08989" lon="5.5395">
        <ele>1360.5</ele>
        <time>2022-08-12T10:31:21.000Z</time>
      </trkpt>
      <trkpt lat="45.0899" lon="5.53949">
        <ele>1360.6</ele>
        <time>2022-08-12T10:31:22.000Z</time>
      </trkpt>
      <trkpt lat="45.08991" lon="5.53949">
        <ele>1360.8</ele>
        <time>2022-08-12T10:31:23.000Z</time>
      </trkpt>
      <trkpt lat="45.08992" lon="5.53948">
        <ele>1361.1</ele>
        <time>2022-08-12T10:31:24.000Z</time>
      </trkpt>
      <trkpt lat="45.08993" lon="5.53948">
        <ele>1361.3</ele>
        <time>2022-08-12T10:31:25.000Z</time>
      </trkpt>
      <trkpt lat="45.08994" lon="5.53947">
        <ele>1361.5</ele>
        <time>2022-08-12T10:31:26.000Z</time>
      </trkpt>
      <trkpt lat="45.08994" lon="5.53946">
        <ele>1361.7</ele>
        <time>2022-08-12T10:31:27.000Z</time>
      </trkpt>
      <trkpt lat="45.08996" lon="5.53945">
        <ele>1362</ele>
        <time>2022-08-12T10:31:28.000Z</time>
      </trkpt>
      <trkpt lat="45.08997" lon="5.53944">
        <ele>1362.3</ele>
        <time>2022-08-12T10:31:29.000Z</time>
      </trkpt>
      <trkpt lat="45.08998" lon="5.53943">
        <ele>1362.5</ele>
        <time>2022-08-12T10:31:30.000Z</time>
      </trkpt>
      <trkpt lat="45.09002" lon="5.53941">
        <ele>1363.1</ele>
        <time>2022-08-12T10:31:33.000Z</time>
      </trkpt>
      <trkpt lat="45.09004" lon="5.53939">
        <ele>1363.3</ele>
        <time>2022-08-12T10:31:35.000Z</time>
      </trkpt>
      <trkpt lat="45.09005" lon="5.53939">
        <ele>1363.4</ele>
        <time>2022-08-12T10:31:36.000Z</time>
      </trkpt>
      <trkpt lat="45.09008" lon="5.53936">
        <ele>1363.7</ele>
        <time>2022-08-12T10:31:39.000Z</time>
      </trkpt>
      <trkpt lat="45.09009" lon="5.53935">
        <ele>1363.9</ele>
        <time>2022-08-12T10:31:40.000Z</time>
      </trkpt>
      <trkpt lat="45.09011" lon="5.53935">
        <ele>1364.1</ele>
        <time>2022-08-12T10:31:41.000Z</time>
      </trkpt>
      <trkpt lat="45.09015" lon="5.53933">
        <ele>1364.7</ele>
        <time>2022-08-12T10:31:44.000Z</time>
      </trkpt>
      <trkpt lat="45.09017" lon="5.53932">
        <ele>1364.9</ele>
        <time>2022-08-12T10:31:45.000Z</time>
      </trkpt>
      <trkpt lat="45.09019" lon="5.5393">
        <ele>1365.2</ele>
        <time>2022-08-12T10:31:46.000Z</time>
      </trkpt>
      <trkpt lat="45.0902" lon="5.5393">
        <ele>1365.4</ele>
        <time>2022-08-12T10:31:47.000Z</time>
      </trkpt>
      <trkpt lat="45.09022" lon="5.53929">
        <ele>1365.7</ele>
        <time>2022-08-12T10:31:48.000Z</time>
      </trkpt>
      <trkpt lat="45.09023" lon="5.53928">
        <ele>1365.9</ele>
        <time>2022-08-12T10:31:51.000Z</time>
      </trkpt>
      <trkpt lat="45.09024" lon="5.53927">
        <ele>1366.1</ele>
        <time>2022-08-12T10:31:52.000Z</time>
      </trkpt>
      <trkpt lat="45.09025" lon="5.53925">
        <ele>1366.2</ele>
        <time>2022-08-12T10:31:53.000Z</time>
      </trkpt>
      <trkpt lat="45.09025" lon="5.53924">
        <ele>1366.3</ele>
        <time>2022-08-12T10:31:54.000Z</time>
      </trkpt>
      <trkpt lat="45.09026" lon="5.53924">
        <ele>1366.4</ele>
        <time>2022-08-12T10:31:55.000Z</time>
      </trkpt>
      <trkpt lat="45.09026" lon="5.53923">
        <ele>1366.5</ele>
        <time>2022-08-12T10:31:56.000Z</time>
      </trkpt>
      <trkpt lat="45.09027" lon="5.53923">
        <ele>1366.7</ele>
        <time>2022-08-12T10:31:57.000Z</time>
      </trkpt>
      <trkpt lat="45.09027" lon="5.53922">
        <ele>1366.7</ele>
        <time>2022-08-12T10:31:58.000Z</time>
      </trkpt>
      <trkpt lat="45.09028" lon="5.53921">
        <ele>1366.8</ele>
        <time>2022-08-12T10:31:59.000Z</time>
      </trkpt>
      <trkpt lat="45.09028" lon="5.5392">
        <ele>1366.9</ele>
        <time>2022-08-12T10:32:00.000Z</time>
      </trkpt>
      <trkpt lat="45.09029" lon="5.53918">
        <ele>1367</ele>
        <time>2022-08-12T10:32:01.000Z</time>
      </trkpt>
      <trkpt lat="45.09029" lon="5.53916">
        <ele>1367</ele>
        <time>2022-08-12T10:32:02.000Z</time>
      </trkpt>
      <trkpt lat="45.0903" lon="5.53914">
        <ele>1367</ele>
        <time>2022-08-12T10:32:03.000Z</time>
      </trkpt>
      <trkpt lat="45.09031" lon="5.53912">
        <ele>1367</ele>
        <time>2022-08-12T10:32:04.000Z</time>
      </trkpt>
      <trkpt lat="45.09032" lon="5.53912">
        <ele>1367</ele>
        <time>2022-08-12T10:32:05.000Z</time>
      </trkpt>
      <trkpt lat="45.09033" lon="5.53911">
        <ele>1367.1</ele>
        <time>2022-08-12T10:32:06.000Z</time>
      </trkpt>
      <trkpt lat="45.09035" lon="5.5391">
        <ele>1367.1</ele>
        <time>2022-08-12T10:32:07.000Z</time>
      </trkpt>
      <trkpt lat="45.09036" lon="5.53909">
        <ele>1367.2</ele>
        <time>2022-08-12T10:32:08.000Z</time>
      </trkpt>
      <trkpt lat="45.09037" lon="5.53908">
        <ele>1367.3</ele>
        <time>2022-08-12T10:32:09.000Z</time>
      </trkpt>
      <trkpt lat="45.09039" lon="5.53908">
        <ele>1367.3</ele>
        <time>2022-08-12T10:32:10.000Z</time>
      </trkpt>
      <trkpt lat="45.0904" lon="5.53907">
        <ele>1367.4</ele>
        <time>2022-08-12T10:32:11.000Z</time>
      </trkpt>
      <trkpt lat="45.09041" lon="5.53907">
        <ele>1367.5</ele>
        <time>2022-08-12T10:32:12.000Z</time>
      </trkpt>
      <trkpt lat="45.09042" lon="5.53906">
        <ele>1367.5</ele>
        <time>2022-08-12T10:32:13.000Z</time>
      </trkpt>
      <trkpt lat="45.09044" lon="5.53904">
        <ele>1367.7</ele>
        <time>2022-08-12T10:32:14.000Z</time>
      </trkpt>
      <trkpt lat="45.09046" lon="5.53901">
        <ele>1367.8</ele>
        <time>2022-08-12T10:32:15.000Z</time>
      </trkpt>
      <trkpt lat="45.09048" lon="5.539">
        <ele>1368</ele>
        <time>2022-08-12T10:32:16.000Z</time>
      </trkpt>
      <trkpt lat="45.09049" lon="5.53897">
        <ele>1368.1</ele>
        <time>2022-08-12T10:32:17.000Z</time>
      </trkpt>
      <trkpt lat="45.09053" lon="5.5389">
        <ele>1368.7</ele>
        <time>2022-08-12T10:32:22.000Z</time>
      </trkpt>
      <trkpt lat="45.09054" lon="5.53889">
        <ele>1368.8</ele>
        <time>2022-08-12T10:32:23.000Z</time>
      </trkpt>
      <trkpt lat="45.09055" lon="5.53888">
        <ele>1368.9</ele>
        <time>2022-08-12T10:32:24.000Z</time>
      </trkpt>
      <trkpt lat="45.09057" lon="5.53886">
        <ele>1369</ele>
        <time>2022-08-12T10:32:25.000Z</time>
      </trkpt>
      <trkpt lat="45.09059" lon="5.53885">
        <ele>1369</ele>
        <time>2022-08-12T10:32:26.000Z</time>
      </trkpt>
      <trkpt lat="45.09059" lon="5.53883">
        <ele>1369</ele>
        <time>2022-08-12T10:32:27.000Z</time>
      </trkpt>
      <trkpt lat="45.09061" lon="5.53879">
        <ele>1368.9</ele>
        <time>2022-08-12T10:32:29.000Z</time>
      </trkpt>
      <trkpt lat="45.09062" lon="5.53876">
        <ele>1368.9</ele>
        <time>2022-08-12T10:32:30.000Z</time>
      </trkpt>
      <trkpt lat="45.09062" lon="5.53874">
        <ele>1368.9</ele>
        <time>2022-08-12T10:32:31.000Z</time>
      </trkpt>
      <trkpt lat="45.09063" lon="5.53872">
        <ele>1368.9</ele>
        <time>2022-08-12T10:32:32.000Z</time>
      </trkpt>
      <trkpt lat="45.09064" lon="5.5387">
        <ele>1368.9</ele>
        <time>2022-08-12T10:32:33.000Z</time>
      </trkpt>
      <trkpt lat="45.09066" lon="5.53868">
        <ele>1368.9</ele>
        <time>2022-08-12T10:32:34.000Z</time>
      </trkpt>
      <trkpt lat="45.09073" lon="5.53856">
        <ele>1369</ele>
        <time>2022-08-12T10:32:39.000Z</time>
      </trkpt>
      <trkpt lat="45.09075" lon="5.53854">
        <ele>1369</ele>
        <time>2022-08-12T10:32:40.000Z</time>
      </trkpt>
      <trkpt lat="45.09077" lon="5.53851">
        <ele>1369.1</ele>
        <time>2022-08-12T10:32:41.000Z</time>
      </trkpt>
      <trkpt lat="45.09079" lon="5.53849">
        <ele>1369.1</ele>
        <time>2022-08-12T10:32:42.000Z</time>
      </trkpt>
      <trkpt lat="45.0908" lon="5.53848">
        <ele>1369.2</ele>
        <time>2022-08-12T10:32:43.000Z</time>
      </trkpt>
      <trkpt lat="45.0908" lon="5.53846">
        <ele>1369.1</ele>
        <time>2022-08-12T10:32:44.000Z</time>
      </trkpt>
      <trkpt lat="45.09081" lon="5.53846">
        <ele>1369.2</ele>
        <time>2022-08-12T10:32:45.000Z</time>
      </trkpt>
      <trkpt lat="45.09082" lon="5.53846">
        <ele>1369.3</ele>
        <time>2022-08-12T10:32:46.000Z</time>
      </trkpt>
      <trkpt lat="45.09084" lon="5.53843">
        <ele>1369.4</ele>
        <time>2022-08-12T10:32:47.000Z</time>
      </trkpt>
      <trkpt lat="45.09085" lon="5.53842">
        <ele>1369.3</ele>
        <time>2022-08-12T10:32:48.000Z</time>
      </trkpt>
      <trkpt lat="45.09087" lon="5.5384">
        <ele>1369.3</ele>
        <time>2022-08-12T10:32:49.000Z</time>
      </trkpt>
      <trkpt lat="45.09088" lon="5.53839">
        <ele>1369.3</ele>
        <time>2022-08-12T10:32:50.000Z</time>
      </trkpt>
      <trkpt lat="45.0909" lon="5.53836">
        <ele>1369.3</ele>
        <time>2022-08-12T10:32:51.000Z</time>
      </trkpt>
      <trkpt lat="45.09091" lon="5.53834">
        <ele>1369.3</ele>
        <time>2022-08-12T10:32:52.000Z</time>
      </trkpt>
      <trkpt lat="45.09095" lon="5.53829">
        <ele>1369.1</ele>
        <time>2022-08-12T10:32:55.000Z</time>
      </trkpt>
      <trkpt lat="45.09097" lon="5.53825">
        <ele>1368.9</ele>
        <time>2022-08-12T10:32:57.000Z</time>
      </trkpt>
      <trkpt lat="45.09099" lon="5.53821">
        <ele>1368.7</ele>
        <time>2022-08-12T10:32:59.000Z</time>
      </trkpt>
      <trkpt lat="45.09099" lon="5.53818">
        <ele>1368.6</ele>
        <time>2022-08-12T10:33:00.000Z</time>
      </trkpt>
      <trkpt lat="45.091" lon="5.53816">
        <ele>1368.5</ele>
        <time>2022-08-12T10:33:01.000Z</time>
      </trkpt>
      <trkpt lat="45.091" lon="5.53815">
        <ele>1368.5</ele>
        <time>2022-08-12T10:33:02.000Z</time>
      </trkpt>
      <trkpt lat="45.091" lon="5.53814">
        <ele>1368.4</ele>
        <time>2022-08-12T10:33:03.000Z</time>
      </trkpt>
      <trkpt lat="45.09101" lon="5.53813">
        <ele>1368.4</ele>
        <time>2022-08-12T10:33:04.000Z</time>
      </trkpt>
      <trkpt lat="45.09101" lon="5.53812">
        <ele>1368.3</ele>
        <time>2022-08-12T10:33:05.000Z</time>
      </trkpt>
      <trkpt lat="45.091" lon="5.5381">
        <ele>1368.1</ele>
        <time>2022-08-12T10:33:06.000Z</time>
      </trkpt>
      <trkpt lat="45.091" lon="5.53808">
        <ele>1368</ele>
        <time>2022-08-12T10:33:07.000Z</time>
      </trkpt>
      <trkpt lat="45.091" lon="5.53807">
        <ele>1367.9</ele>
        <time>2022-08-12T10:33:08.000Z</time>
      </trkpt>
      <trkpt lat="45.09103" lon="5.53803">
        <ele>1367.8</ele>
        <time>2022-08-12T10:33:11.000Z</time>
      </trkpt>
      <trkpt lat="45.09105" lon="5.53801">
        <ele>1367.7</ele>
        <time>2022-08-12T10:33:12.000Z</time>
      </trkpt>
      <trkpt lat="45.09108" lon="5.53796">
        <ele>1367.5</ele>
        <time>2022-08-12T10:33:14.000Z</time>
      </trkpt>
      <trkpt lat="45.09114" lon="5.53791">
        <ele>1367.6</ele>
        <time>2022-08-12T10:33:17.000Z</time>
      </trkpt>
      <trkpt lat="45.09115" lon="5.53789">
        <ele>1367.4</ele>
        <time>2022-08-12T10:33:18.000Z</time>
      </trkpt>
      <trkpt lat="45.09117" lon="5.53787">
        <ele>1367.3</ele>
        <time>2022-08-12T10:33:19.000Z</time>
      </trkpt>
      <trkpt lat="45.09118" lon="5.53785">
        <ele>1367.2</ele>
        <time>2022-08-12T10:33:20.000Z</time>
      </trkpt>
      <trkpt lat="45.09119" lon="5.53783">
        <ele>1367</ele>
        <time>2022-08-12T10:33:21.000Z</time>
      </trkpt>
      <trkpt lat="45.09119" lon="5.53781">
        <ele>1366.9</ele>
        <time>2022-08-12T10:33:22.000Z</time>
      </trkpt>
      <trkpt lat="45.0912" lon="5.5378">
        <ele>1366.8</ele>
        <time>2022-08-12T10:33:23.000Z</time>
      </trkpt>
      <trkpt lat="45.09122" lon="5.53778">
        <ele>1366.7</ele>
        <time>2022-08-12T10:33:24.000Z</time>
      </trkpt>
      <trkpt lat="45.09127" lon="5.53775">
        <ele>1366.9</ele>
        <time>2022-08-12T10:33:27.000Z</time>
      </trkpt>
      <trkpt lat="45.09129" lon="5.53774">
        <ele>1366.9</ele>
        <time>2022-08-12T10:33:28.000Z</time>
      </trkpt>
      <trkpt lat="45.0913" lon="5.53772">
        <ele>1366.7</ele>
        <time>2022-08-12T10:33:29.000Z</time>
      </trkpt>
      <trkpt lat="45.09131" lon="5.53768">
        <ele>1366.5</ele>
        <time>2022-08-12T10:33:30.000Z</time>
      </trkpt>
      <trkpt lat="45.09131" lon="5.53762">
        <ele>1366</ele>
        <time>2022-08-12T10:33:32.000Z</time>
      </trkpt>
      <trkpt lat="45.09132" lon="5.53759">
        <ele>1365.8</ele>
        <time>2022-08-12T10:33:33.000Z</time>
      </trkpt>
      <trkpt lat="45.09135" lon="5.53754">
        <ele>1365.8</ele>
        <time>2022-08-12T10:33:35.000Z</time>
      </trkpt>
      <trkpt lat="45.09138" lon="5.5375">
        <ele>1365.8</ele>
        <time>2022-08-12T10:33:36.000Z</time>
      </trkpt>
      <trkpt lat="45.0914" lon="5.53748">
        <ele>1365.6</ele>
        <time>2022-08-12T10:33:37.000Z</time>
      </trkpt>
      <trkpt lat="45.09142" lon="5.53746">
        <ele>1365.4</ele>
        <time>2022-08-12T10:33:38.000Z</time>
      </trkpt>
      <trkpt lat="45.09145" lon="5.53744">
        <ele>1365</ele>
        <time>2022-08-12T10:33:40.000Z</time>
      </trkpt>
      <trkpt lat="45.09153" lon="5.53737">
        <ele>1364.2</ele>
        <time>2022-08-12T10:33:44.000Z</time>
      </trkpt>
      <trkpt lat="45.09154" lon="5.53737">
        <ele>1364.1</ele>
        <time>2022-08-12T10:33:45.000Z</time>
      </trkpt>
      <trkpt lat="45.09158" lon="5.53732">
        <ele>1363.6</ele>
        <time>2022-08-12T10:33:48.000Z</time>
      </trkpt>
      <trkpt lat="45.0916" lon="5.5373">
        <ele>1363.5</ele>
        <time>2022-08-12T10:33:49.000Z</time>
      </trkpt>
      <trkpt lat="45.09162" lon="5.53727">
        <ele>1363.3</ele>
        <time>2022-08-12T10:33:51.000Z</time>
      </trkpt>
      <trkpt lat="45.09163" lon="5.53726">
        <ele>1363.1</ele>
        <time>2022-08-12T10:33:52.000Z</time>
      </trkpt>
      <trkpt lat="45.09163" lon="5.53725">
        <ele>1363</ele>
        <time>2022-08-12T10:33:53.000Z</time>
      </trkpt>
      <trkpt lat="45.09169" lon="5.53722">
        <ele>1362.7</ele>
        <time>2022-08-12T11:10:46.000Z</time>
      </trkpt>
      <trkpt lat="45.09169" lon="5.53721">
        <ele>1362.6</ele>
        <time>2022-08-12T11:10:52.000Z</time>
      </trkpt>
      <trkpt lat="45.09168" lon="5.5372">
        <ele>1362.3</ele>
        <time>2022-08-12T11:10:53.000Z</time>
      </trkpt>
      <trkpt lat="45.0917" lon="5.53715">
        <ele>1361.3</ele>
        <time>2022-08-12T11:10:55.000Z</time>
      </trkpt>
      <trkpt lat="45.0917" lon="5.53714">
        <ele>1361</ele>
        <time>2022-08-12T11:10:56.000Z</time>
      </trkpt>
      <trkpt lat="45.09167" lon="5.5371">
        <ele>1360.6</ele>
        <time>2022-08-12T11:10:58.000Z</time>
      </trkpt>
      <trkpt lat="45.09167" lon="5.53707">
        <ele>1360.2</ele>
        <time>2022-08-12T11:10:59.000Z</time>
      </trkpt>
      <trkpt lat="45.09168" lon="5.53706">
        <ele>1359.9</ele>
        <time>2022-08-12T11:11:00.000Z</time>
      </trkpt>
      <trkpt lat="45.09169" lon="5.53705">
        <ele>1359.6</ele>
        <time>2022-08-12T11:11:01.000Z</time>
      </trkpt>
      <trkpt lat="45.09171" lon="5.53702">
        <ele>1358.6</ele>
        <time>2022-08-12T11:11:04.000Z</time>
      </trkpt>
      <trkpt lat="45.09172" lon="5.537">
        <ele>1358.2</ele>
        <time>2022-08-12T11:11:05.000Z</time>
      </trkpt>
      <trkpt lat="45.09177" lon="5.53697">
        <ele>1357</ele>
        <time>2022-08-12T11:11:09.000Z</time>
      </trkpt>
      <trkpt lat="45.09178" lon="5.53698">
        <ele>1357.1</ele>
        <time>2022-08-12T11:11:10.000Z</time>
      </trkpt>
      <trkpt lat="45.09179" lon="5.537">
        <ele>1357.2</ele>
        <time>2022-08-12T11:11:11.000Z</time>
      </trkpt>
      <trkpt lat="45.09184" lon="5.53709">
        <ele>1358.2</ele>
        <time>2022-08-12T11:11:16.000Z</time>
      </trkpt>
      <trkpt lat="45.09185" lon="5.53711">
        <ele>1358.2</ele>
        <time>2022-08-12T11:11:17.000Z</time>
      </trkpt>
      <trkpt lat="45.09186" lon="5.53712">
        <ele>1358.5</ele>
        <time>2022-08-12T11:11:18.000Z</time>
      </trkpt>
      <trkpt lat="45.09181" lon="5.53715">
        <ele>1359.7</ele>
        <time>2022-08-12T11:11:19.000Z</time>
      </trkpt>
      <trkpt lat="45.09178" lon="5.53723">
        <ele>1361.4</ele>
        <time>2022-08-12T11:11:21.000Z</time>
      </trkpt>
      <trkpt lat="45.09178" lon="5.53728">
        <ele>1361.9</ele>
        <time>2022-08-12T11:11:22.000Z</time>
      </trkpt>
      <trkpt lat="45.0918" lon="5.53733">
        <ele>1362.2</ele>
        <time>2022-08-12T11:11:23.000Z</time>
      </trkpt>
      <trkpt lat="45.09186" lon="5.53744">
        <ele>1362.5</ele>
        <time>2022-08-12T11:11:25.000Z</time>
      </trkpt>
      <trkpt lat="45.09189" lon="5.53749">
        <ele>1362.7</ele>
        <time>2022-08-12T11:11:26.000Z</time>
      </trkpt>
      <trkpt lat="45.09191" lon="5.53754">
        <ele>1362.6</ele>
        <time>2022-08-12T11:11:27.000Z</time>
      </trkpt>
      <trkpt lat="45.09198" lon="5.53763">
        <ele>1361.5</ele>
        <time>2022-08-12T11:11:29.000Z</time>
      </trkpt>
      <trkpt lat="45.09205" lon="5.5377">
        <ele>1360.2</ele>
        <time>2022-08-12T11:11:31.000Z</time>
      </trkpt>
      <trkpt lat="45.09208" lon="5.53772">
        <ele>1359.7</ele>
        <time>2022-08-12T11:11:32.000Z</time>
      </trkpt>
      <trkpt lat="45.09211" lon="5.53774">
        <ele>1359.1</ele>
        <time>2022-08-12T11:11:33.000Z</time>
      </trkpt>
      <trkpt lat="45.09213" lon="5.53775">
        <ele>1358.6</ele>
        <time>2022-08-12T11:11:34.000Z</time>
      </trkpt>
      <trkpt lat="45.09215" lon="5.53776">
        <ele>1358.4</ele>
        <time>2022-08-12T11:11:35.000Z</time>
      </trkpt>
      <trkpt lat="45.09217" lon="5.5378">
        <ele>1358.1</ele>
        <time>2022-08-12T11:11:49.000Z</time>
      </trkpt>
      <trkpt lat="45.09218" lon="5.53782">
        <ele>1358</ele>
        <time>2022-08-12T11:11:50.000Z</time>
      </trkpt>
      <trkpt lat="45.09219" lon="5.53786">
        <ele>1357.8</ele>
        <time>2022-08-12T11:11:52.000Z</time>
      </trkpt>
      <trkpt lat="45.09221" lon="5.53795">
        <ele>1357.2</ele>
        <time>2022-08-12T11:11:55.000Z</time>
      </trkpt>
      <trkpt lat="45.09222" lon="5.53797">
        <ele>1357.1</ele>
        <time>2022-08-12T11:11:56.000Z</time>
      </trkpt>
      <trkpt lat="45.09221" lon="5.53797">
        <ele>1357.2</ele>
        <time>2022-08-12T11:11:57.000Z</time>
      </trkpt>
      <trkpt lat="45.09221" lon="5.53798">
        <ele>1357.2</ele>
        <time>2022-08-12T11:11:58.000Z</time>
      </trkpt>
      <trkpt lat="45.09222" lon="5.538">
        <ele>1357.1</ele>
        <time>2022-08-12T11:11:59.000Z</time>
      </trkpt>
      <trkpt lat="45.09225" lon="5.53811">
        <ele>1356.4</ele>
        <time>2022-08-12T11:12:04.000Z</time>
      </trkpt>
      <trkpt lat="45.09225" lon="5.53819">
        <ele>1356.2</ele>
        <time>2022-08-12T11:12:07.000Z</time>
      </trkpt>
      <trkpt lat="45.09224" lon="5.53821">
        <ele>1356.2</ele>
        <time>2022-08-12T11:12:08.000Z</time>
      </trkpt>
      <trkpt lat="45.09224" lon="5.53823">
        <ele>1356.2</ele>
        <time>2022-08-12T11:12:09.000Z</time>
      </trkpt>
      <trkpt lat="45.09224" lon="5.53827">
        <ele>1356.1</ele>
        <time>2022-08-12T11:12:11.000Z</time>
      </trkpt>
      <trkpt lat="45.09225" lon="5.5383">
        <ele>1355.9</ele>
        <time>2022-08-12T11:12:12.000Z</time>
      </trkpt>
      <trkpt lat="45.09229" lon="5.53835">
        <ele>1355.4</ele>
        <time>2022-08-12T11:12:13.000Z</time>
      </trkpt>
      <trkpt lat="45.0923" lon="5.5384">
        <ele>1355</ele>
        <time>2022-08-12T11:12:14.000Z</time>
      </trkpt>
      <trkpt lat="45.09231" lon="5.53846">
        <ele>1354.6</ele>
        <time>2022-08-12T11:12:15.000Z</time>
      </trkpt>
      <trkpt lat="45.09232" lon="5.5385">
        <ele>1354.4</ele>
        <time>2022-08-12T11:12:16.000Z</time>
      </trkpt>
      <trkpt lat="45.09233" lon="5.5385">
        <ele>1354.4</ele>
        <time>2022-08-12T11:12:17.000Z</time>
      </trkpt>
      <trkpt lat="45.09236" lon="5.53848">
        <ele>1354.5</ele>
        <time>2022-08-12T11:12:18.000Z</time>
      </trkpt>
      <trkpt lat="45.09242" lon="5.53844">
        <ele>1354.5</ele>
        <time>2022-08-12T11:12:21.000Z</time>
      </trkpt>
      <trkpt lat="45.09245" lon="5.53844">
        <ele>1354.5</ele>
        <time>2022-08-12T11:12:22.000Z</time>
      </trkpt>
      <trkpt lat="45.09249" lon="5.53843">
        <ele>1354.4</ele>
        <time>2022-08-12T11:12:23.000Z</time>
      </trkpt>
      <trkpt lat="45.09253" lon="5.53844">
        <ele>1354.2</ele>
        <time>2022-08-12T11:12:25.000Z</time>
      </trkpt>
      <trkpt lat="45.09255" lon="5.53846">
        <ele>1354.2</ele>
        <time>2022-08-12T11:12:26.000Z</time>
      </trkpt>
      <trkpt lat="45.09258" lon="5.53847">
        <ele>1354</ele>
        <time>2022-08-12T11:12:27.000Z</time>
      </trkpt>
      <trkpt lat="45.09262" lon="5.5385">
        <ele>1354</ele>
        <time>2022-08-12T11:12:28.000Z</time>
      </trkpt>
      <trkpt lat="45.09266" lon="5.53854">
        <ele>1354.1</ele>
        <time>2022-08-12T11:12:29.000Z</time>
      </trkpt>
      <trkpt lat="45.09272" lon="5.53859">
        <ele>1354.1</ele>
        <time>2022-08-12T11:12:30.000Z</time>
      </trkpt>
      <trkpt lat="45.09277" lon="5.53862">
        <ele>1354</ele>
        <time>2022-08-12T11:12:31.000Z</time>
      </trkpt>
      <trkpt lat="45.09281" lon="5.53874">
        <ele>1353.7</ele>
        <time>2022-08-12T11:12:33.000Z</time>
      </trkpt>
      <trkpt lat="45.09282" lon="5.53882">
        <ele>1353.7</ele>
        <time>2022-08-12T11:12:34.000Z</time>
      </trkpt>
      <trkpt lat="45.09282" lon="5.53889">
        <ele>1353.7</ele>
        <time>2022-08-12T11:12:35.000Z</time>
      </trkpt>
      <trkpt lat="45.09278" lon="5.53903">
        <ele>1353.5</ele>
        <time>2022-08-12T11:12:37.000Z</time>
      </trkpt>
      <trkpt lat="45.09275" lon="5.53908">
        <ele>1353.5</ele>
        <time>2022-08-12T11:12:38.000Z</time>
      </trkpt>
      <trkpt lat="45.09271" lon="5.53911">
        <ele>1353.6</ele>
        <time>2022-08-12T11:12:39.000Z</time>
      </trkpt>
      <trkpt lat="45.09267" lon="5.53915">
        <ele>1353.8</ele>
        <time>2022-08-12T11:12:40.000Z</time>
      </trkpt>
      <trkpt lat="45.09264" lon="5.53917">
        <ele>1354</ele>
        <time>2022-08-12T11:12:41.000Z</time>
      </trkpt>
      <trkpt lat="45.0926" lon="5.53921">
        <ele>1353.8</ele>
        <time>2022-08-12T11:12:42.000Z</time>
      </trkpt>
      <trkpt lat="45.09259" lon="5.53924">
        <ele>1353.5</ele>
        <time>2022-08-12T11:12:43.000Z</time>
      </trkpt>
      <trkpt lat="45.09259" lon="5.53929">
        <ele>1353.1</ele>
        <time>2022-08-12T11:12:44.000Z</time>
      </trkpt>
      <trkpt lat="45.09261" lon="5.53934">
        <ele>1352.4</ele>
        <time>2022-08-12T11:12:45.000Z</time>
      </trkpt>
      <trkpt lat="45.09264" lon="5.53936">
        <ele>1351.9</ele>
        <time>2022-08-12T11:12:46.000Z</time>
      </trkpt>
      <trkpt lat="45.09272" lon="5.53945">
        <ele>1350.4</ele>
        <time>2022-08-12T11:12:48.000Z</time>
      </trkpt>
      <trkpt lat="45.09272" lon="5.53948">
        <ele>1350</ele>
        <time>2022-08-12T11:12:49.000Z</time>
      </trkpt>
      <trkpt lat="45.09271" lon="5.53952">
        <ele>1349.4</ele>
        <time>2022-08-12T11:12:50.000Z</time>
      </trkpt>
      <trkpt lat="45.09271" lon="5.53957">
        <ele>1348.8</ele>
        <time>2022-08-12T11:12:51.000Z</time>
      </trkpt>
      <trkpt lat="45.09273" lon="5.53965">
        <ele>1347.3</ele>
        <time>2022-08-12T11:12:53.000Z</time>
      </trkpt>
      <trkpt lat="45.09273" lon="5.53968">
        <ele>1346.9</ele>
        <time>2022-08-12T11:12:54.000Z</time>
      </trkpt>
      <trkpt lat="45.09273" lon="5.5397">
        <ele>1346.7</ele>
        <time>2022-08-12T11:12:55.000Z</time>
      </trkpt>
      <trkpt lat="45.09272" lon="5.53971">
        <ele>1346.6</ele>
        <time>2022-08-12T11:12:56.000Z</time>
      </trkpt>
      <trkpt lat="45.09271" lon="5.53973">
        <ele>1346.4</ele>
        <time>2022-08-12T11:12:57.000Z</time>
      </trkpt>
      <trkpt lat="45.09271" lon="5.53976">
        <ele>1346</ele>
        <time>2022-08-12T11:12:58.000Z</time>
      </trkpt>
      <trkpt lat="45.09271" lon="5.53979">
        <ele>1345.4</ele>
        <time>2022-08-12T11:12:59.000Z</time>
      </trkpt>
      <trkpt lat="45.09274" lon="5.53982">
        <ele>1344.9</ele>
        <time>2022-08-12T11:13:01.000Z</time>
      </trkpt>
      <trkpt lat="45.09275" lon="5.53983">
        <ele>1344.5</ele>
        <time>2022-08-12T11:13:02.000Z</time>
      </trkpt>
      <trkpt lat="45.09275" lon="5.53986">
        <ele>1344.1</ele>
        <time>2022-08-12T11:13:03.000Z</time>
      </trkpt>
      <trkpt lat="45.09275" lon="5.5399">
        <ele>1343.6</ele>
        <time>2022-08-12T11:13:04.000Z</time>
      </trkpt>
      <trkpt lat="45.09275" lon="5.53994">
        <ele>1343</ele>
        <time>2022-08-12T11:13:05.000Z</time>
      </trkpt>
      <trkpt lat="45.09277" lon="5.54001">
        <ele>1341.9</ele>
        <time>2022-08-12T11:13:07.000Z</time>
      </trkpt>
      <trkpt lat="45.09279" lon="5.54002">
        <ele>1341.7</ele>
        <time>2022-08-12T11:13:08.000Z</time>
      </trkpt>
      <trkpt lat="45.09281" lon="5.54003">
        <ele>1341.5</ele>
        <time>2022-08-12T11:13:09.000Z</time>
      </trkpt>
      <trkpt lat="45.09284" lon="5.54005">
        <ele>1341</ele>
        <time>2022-08-12T11:13:10.000Z</time>
      </trkpt>
      <trkpt lat="45.09285" lon="5.54008">
        <ele>1340.5</ele>
        <time>2022-08-12T11:13:11.000Z</time>
      </trkpt>
      <trkpt lat="45.09285" lon="5.54011">
        <ele>1340</ele>
        <time>2022-08-12T11:13:12.000Z</time>
      </trkpt>
      <trkpt lat="45.09286" lon="5.54015">
        <ele>1339.3</ele>
        <time>2022-08-12T11:13:13.000Z</time>
      </trkpt>
      <trkpt lat="45.09291" lon="5.5402">
        <ele>1338.3</ele>
        <time>2022-08-12T11:13:15.000Z</time>
      </trkpt>
      <trkpt lat="45.09295" lon="5.54022">
        <ele>1337.8</ele>
        <time>2022-08-12T11:13:16.000Z</time>
      </trkpt>
      <trkpt lat="45.09302" lon="5.54026">
        <ele>1336.6</ele>
        <time>2022-08-12T11:13:18.000Z</time>
      </trkpt>
      <trkpt lat="45.09306" lon="5.54031">
        <ele>1335.6</ele>
        <time>2022-08-12T11:13:19.000Z</time>
      </trkpt>
      <trkpt lat="45.09309" lon="5.54036">
        <ele>1334.7</ele>
        <time>2022-08-12T11:13:20.000Z</time>
      </trkpt>
      <trkpt lat="45.09311" lon="5.54041">
        <ele>1333.8</ele>
        <time>2022-08-12T11:13:21.000Z</time>
      </trkpt>
      <trkpt lat="45.09313" lon="5.54045">
        <ele>1333</ele>
        <time>2022-08-12T11:13:22.000Z</time>
      </trkpt>
      <trkpt lat="45.09316" lon="5.54049">
        <ele>1332.3</ele>
        <time>2022-08-12T11:13:23.000Z</time>
      </trkpt>
      <trkpt lat="45.09318" lon="5.54053">
        <ele>1331.5</ele>
        <time>2022-08-12T11:13:24.000Z</time>
      </trkpt>
      <trkpt lat="45.09319" lon="5.54059">
        <ele>1330.3</ele>
        <time>2022-08-12T11:13:25.000Z</time>
      </trkpt>
      <trkpt lat="45.09322" lon="5.54065">
        <ele>1329</ele>
        <time>2022-08-12T11:13:26.000Z</time>
      </trkpt>
      <trkpt lat="45.09323" lon="5.5407">
        <ele>1328</ele>
        <time>2022-08-12T11:13:27.000Z</time>
      </trkpt>
      <trkpt lat="45.09325" lon="5.54074">
        <ele>1327</ele>
        <time>2022-08-12T11:13:28.000Z</time>
      </trkpt>
      <trkpt lat="45.09327" lon="5.54081">
        <ele>1325.8</ele>
        <time>2022-08-12T11:13:29.000Z</time>
      </trkpt>
      <trkpt lat="45.09327" lon="5.54086">
        <ele>1324.8</ele>
        <time>2022-08-12T11:13:30.000Z</time>
      </trkpt>
      <trkpt lat="45.09328" lon="5.5409">
        <ele>1324</ele>
        <time>2022-08-12T11:13:31.000Z</time>
      </trkpt>
      <trkpt lat="45.09329" lon="5.54092">
        <ele>1323.5</ele>
        <time>2022-08-12T11:13:32.000Z</time>
      </trkpt>
      <trkpt lat="45.09332" lon="5.54094">
        <ele>1323.1</ele>
        <time>2022-08-12T11:13:33.000Z</time>
      </trkpt>
      <trkpt lat="45.09335" lon="5.54095">
        <ele>1322.8</ele>
        <time>2022-08-12T11:13:34.000Z</time>
      </trkpt>
      <trkpt lat="45.09341" lon="5.54096">
        <ele>1322.4</ele>
        <time>2022-08-12T11:13:36.000Z</time>
      </trkpt>
      <trkpt lat="45.09344" lon="5.54097">
        <ele>1322.2</ele>
        <time>2022-08-12T11:13:37.000Z</time>
      </trkpt>
      <trkpt lat="45.09347" lon="5.54097">
        <ele>1322.1</ele>
        <time>2022-08-12T11:13:38.000Z</time>
      </trkpt>
      <trkpt lat="45.0935" lon="5.54097">
        <ele>1322</ele>
        <time>2022-08-12T11:13:39.000Z</time>
      </trkpt>
      <trkpt lat="45.09358" lon="5.54096">
        <ele>1321.9</ele>
        <time>2022-08-12T11:13:40.000Z</time>
      </trkpt>
      <trkpt lat="45.09359" lon="5.54095">
        <ele>1321.9</ele>
        <time>2022-08-12T11:13:41.000Z</time>
      </trkpt>
      <trkpt lat="45.0936" lon="5.54095">
        <ele>1321.9</ele>
        <time>2022-08-12T11:13:42.000Z</time>
      </trkpt>
      <trkpt lat="45.09357" lon="5.54097">
        <ele>1321.7</ele>
        <time>2022-08-12T11:14:16.000Z</time>
      </trkpt>
      <trkpt lat="45.09355" lon="5.54098">
        <ele>1321.5</ele>
        <time>2022-08-12T11:14:18.000Z</time>
      </trkpt>
      <trkpt lat="45.09352" lon="5.54098">
        <ele>1321.6</ele>
        <time>2022-08-12T11:14:19.000Z</time>
      </trkpt>
      <trkpt lat="45.09354" lon="5.54099">
        <ele>1321.5</ele>
        <time>2022-08-12T11:14:29.000Z</time>
      </trkpt>
      <trkpt lat="45.09356" lon="5.54101">
        <ele>1321</ele>
        <time>2022-08-12T11:14:30.000Z</time>
      </trkpt>
      <trkpt lat="45.09358" lon="5.54105">
        <ele>1320.3</ele>
        <time>2022-08-12T11:14:31.000Z</time>
      </trkpt>
      <trkpt lat="45.09359" lon="5.54108">
        <ele>1319.6</ele>
        <time>2022-08-12T11:14:32.000Z</time>
      </trkpt>
      <trkpt lat="45.09361" lon="5.54113">
        <ele>1318.7</ele>
        <time>2022-08-12T11:14:33.000Z</time>
      </trkpt>
      <trkpt lat="45.09363" lon="5.54116">
        <ele>1317.9</ele>
        <time>2022-08-12T11:14:34.000Z</time>
      </trkpt>
      <trkpt lat="45.09369" lon="5.54122">
        <ele>1316.4</ele>
        <time>2022-08-12T11:14:36.000Z</time>
      </trkpt>
      <trkpt lat="45.09373" lon="5.54125">
        <ele>1315.6</ele>
        <time>2022-08-12T11:14:37.000Z</time>
      </trkpt>
      <trkpt lat="45.09378" lon="5.54129">
        <ele>1314.6</ele>
        <time>2022-08-12T11:14:38.000Z</time>
      </trkpt>
      <trkpt lat="45.0938" lon="5.54133">
        <ele>1313.6</ele>
        <time>2022-08-12T11:14:39.000Z</time>
      </trkpt>
      <trkpt lat="45.09383" lon="5.5414">
        <ele>1311.9</ele>
        <time>2022-08-12T11:14:40.000Z</time>
      </trkpt>
      <trkpt lat="45.09386" lon="5.54146">
        <ele>1310.4</ele>
        <time>2022-08-12T11:14:41.000Z</time>
      </trkpt>
      <trkpt lat="45.0939" lon="5.54151">
        <ele>1309</ele>
        <time>2022-08-12T11:14:42.000Z</time>
      </trkpt>
      <trkpt lat="45.09393" lon="5.54156">
        <ele>1307.7</ele>
        <time>2022-08-12T11:14:43.000Z</time>
      </trkpt>
      <trkpt lat="45.09396" lon="5.54161">
        <ele>1306.4</ele>
        <time>2022-08-12T11:14:44.000Z</time>
      </trkpt>
      <trkpt lat="45.09399" lon="5.54165">
        <ele>1305.4</ele>
        <time>2022-08-12T11:14:45.000Z</time>
      </trkpt>
      <trkpt lat="45.09401" lon="5.54168">
        <ele>1304.7</ele>
        <time>2022-08-12T11:14:46.000Z</time>
      </trkpt>
      <trkpt lat="45.09403" lon="5.5417">
        <ele>1304.3</ele>
        <time>2022-08-12T11:14:47.000Z</time>
      </trkpt>
      <trkpt lat="45.09406" lon="5.54172">
        <ele>1303.9</ele>
        <time>2022-08-12T11:14:48.000Z</time>
      </trkpt>
      <trkpt lat="45.09409" lon="5.54174">
        <ele>1303.5</ele>
        <time>2022-08-12T11:14:49.000Z</time>
      </trkpt>
      <trkpt lat="45.09414" lon="5.54177">
        <ele>1302.9</ele>
        <time>2022-08-12T11:14:50.000Z</time>
      </trkpt>
      <trkpt lat="45.0942" lon="5.54179">
        <ele>1302.2</ele>
        <time>2022-08-12T11:14:51.000Z</time>
      </trkpt>
      <trkpt lat="45.09426" lon="5.54182">
        <ele>1301.3</ele>
        <time>2022-08-12T11:14:52.000Z</time>
      </trkpt>
      <trkpt lat="45.09434" lon="5.54185">
        <ele>1300.2</ele>
        <time>2022-08-12T11:14:53.000Z</time>
      </trkpt>
      <trkpt lat="45.0944" lon="5.5419">
        <ele>1298.9</ele>
        <time>2022-08-12T11:14:54.000Z</time>
      </trkpt>
      <trkpt lat="45.0945" lon="5.54198">
        <ele>1296.9</ele>
        <time>2022-08-12T11:14:56.000Z</time>
      </trkpt>
      <trkpt lat="45.09453" lon="5.54201">
        <ele>1295.9</ele>
        <time>2022-08-12T11:14:57.000Z</time>
      </trkpt>
      <trkpt lat="45.09456" lon="5.54205">
        <ele>1294.9</ele>
        <time>2022-08-12T11:14:58.000Z</time>
      </trkpt>
      <trkpt lat="45.09461" lon="5.54206">
        <ele>1294.2</ele>
        <time>2022-08-12T11:14:59.000Z</time>
      </trkpt>
      <trkpt lat="45.0947" lon="5.54207">
        <ele>1293.3</ele>
        <time>2022-08-12T11:15:01.000Z</time>
      </trkpt>
      <trkpt lat="45.09474" lon="5.5421">
        <ele>1292.6</ele>
        <time>2022-08-12T11:15:02.000Z</time>
      </trkpt>
      <trkpt lat="45.09479" lon="5.5421">
        <ele>1292.4</ele>
        <time>2022-08-12T11:15:03.000Z</time>
      </trkpt>
      <trkpt lat="45.09483" lon="5.54209">
        <ele>1292.3</ele>
        <time>2022-08-12T11:15:04.000Z</time>
      </trkpt>
      <trkpt lat="45.0949" lon="5.5421">
        <ele>1291.8</ele>
        <time>2022-08-12T11:15:05.000Z</time>
      </trkpt>
      <trkpt lat="45.09493" lon="5.54212">
        <ele>1291.2</ele>
        <time>2022-08-12T11:15:06.000Z</time>
      </trkpt>
      <trkpt lat="45.09497" lon="5.54215">
        <ele>1290.5</ele>
        <time>2022-08-12T11:15:07.000Z</time>
      </trkpt>
      <trkpt lat="45.09501" lon="5.54217">
        <ele>1290</ele>
        <time>2022-08-12T11:15:08.000Z</time>
      </trkpt>
      <trkpt lat="45.09506" lon="5.54219">
        <ele>1289.3</ele>
        <time>2022-08-12T11:15:10.000Z</time>
      </trkpt>
      <trkpt lat="45.09511" lon="5.54225">
        <ele>1288.2</ele>
        <time>2022-08-12T11:15:12.000Z</time>
      </trkpt>
      <trkpt lat="45.09511" lon="5.54228">
        <ele>1287.7</ele>
        <time>2022-08-12T11:15:13.000Z</time>
      </trkpt>
      <trkpt lat="45.09511" lon="5.54231">
        <ele>1287.2</ele>
        <time>2022-08-12T11:15:14.000Z</time>
      </trkpt>
      <trkpt lat="45.09511" lon="5.54235">
        <ele>1286.5</ele>
        <time>2022-08-12T11:15:15.000Z</time>
      </trkpt>
      <trkpt lat="45.09509" lon="5.5424">
        <ele>1285.8</ele>
        <time>2022-08-12T11:15:16.000Z</time>
      </trkpt>
      <trkpt lat="45.09508" lon="5.54243">
        <ele>1285.2</ele>
        <time>2022-08-12T11:15:17.000Z</time>
      </trkpt>
      <trkpt lat="45.09506" lon="5.54246">
        <ele>1284.6</ele>
        <time>2022-08-12T11:15:18.000Z</time>
      </trkpt>
      <trkpt lat="45.09506" lon="5.5425">
        <ele>1284</ele>
        <time>2022-08-12T11:15:19.000Z</time>
      </trkpt>
      <trkpt lat="45.09507" lon="5.54254">
        <ele>1283.3</ele>
        <time>2022-08-12T11:15:20.000Z</time>
      </trkpt>
      <trkpt lat="45.09509" lon="5.54258">
        <ele>1282.8</ele>
        <time>2022-08-12T11:15:21.000Z</time>
      </trkpt>
      <trkpt lat="45.09512" lon="5.5426">
        <ele>1282.5</ele>
        <time>2022-08-12T11:15:22.000Z</time>
      </trkpt>
      <trkpt lat="45.09514" lon="5.54262">
        <ele>1282.1</ele>
        <time>2022-08-12T11:15:23.000Z</time>
      </trkpt>
      <trkpt lat="45.09515" lon="5.54264">
        <ele>1281.8</ele>
        <time>2022-08-12T11:15:24.000Z</time>
      </trkpt>
      <trkpt lat="45.09514" lon="5.54266">
        <ele>1281.5</ele>
        <time>2022-08-12T11:15:25.000Z</time>
      </trkpt>
      <trkpt lat="45.09513" lon="5.5427">
        <ele>1280.8</ele>
        <time>2022-08-12T11:15:26.000Z</time>
      </trkpt>
      <trkpt lat="45.09513" lon="5.54273">
        <ele>1280.3</ele>
        <time>2022-08-12T11:15:27.000Z</time>
      </trkpt>
      <trkpt lat="45.09513" lon="5.54276">
        <ele>1279.8</ele>
        <time>2022-08-12T11:15:28.000Z</time>
      </trkpt>
      <trkpt lat="45.09513" lon="5.54279">
        <ele>1279.4</ele>
        <time>2022-08-12T11:15:29.000Z</time>
      </trkpt>
      <trkpt lat="45.09513" lon="5.5428">
        <ele>1279.1</ele>
        <time>2022-08-12T11:15:30.000Z</time>
      </trkpt>
      <trkpt lat="45.09515" lon="5.5428">
        <ele>1279</ele>
        <time>2022-08-12T11:15:31.000Z</time>
      </trkpt>
      <trkpt lat="45.09515" lon="5.54282">
        <ele>1278.7</ele>
        <time>2022-08-12T11:15:32.000Z</time>
      </trkpt>
      <trkpt lat="45.09516" lon="5.54283">
        <ele>1278.4</ele>
        <time>2022-08-12T11:15:34.000Z</time>
      </trkpt>
      <trkpt lat="45.09517" lon="5.54285">
        <ele>1278</ele>
        <time>2022-08-12T11:15:35.000Z</time>
      </trkpt>
      <trkpt lat="45.09519" lon="5.54287">
        <ele>1277.5</ele>
        <time>2022-08-12T11:15:36.000Z</time>
      </trkpt>
      <trkpt lat="45.09522" lon="5.54289">
        <ele>1277.1</ele>
        <time>2022-08-12T11:15:37.000Z</time>
      </trkpt>
      <trkpt lat="45.09526" lon="5.54291">
        <ele>1276.7</ele>
        <time>2022-08-12T11:15:38.000Z</time>
      </trkpt>
      <trkpt lat="45.0953" lon="5.54293">
        <ele>1276.3</ele>
        <time>2022-08-12T11:15:39.000Z</time>
      </trkpt>
      <trkpt lat="45.09538" lon="5.54295">
        <ele>1275.8</ele>
        <time>2022-08-12T11:15:41.000Z</time>
      </trkpt>
      <trkpt lat="45.09541" lon="5.54296">
        <ele>1275.7</ele>
        <time>2022-08-12T11:15:42.000Z</time>
      </trkpt>
      <trkpt lat="45.09544" lon="5.54297">
        <ele>1275.6</ele>
        <time>2022-08-12T11:15:43.000Z</time>
      </trkpt>
      <trkpt lat="45.09547" lon="5.54297">
        <ele>1275.5</ele>
        <time>2022-08-12T11:15:44.000Z</time>
      </trkpt>
      <trkpt lat="45.0955" lon="5.54299">
        <ele>1275.2</ele>
        <time>2022-08-12T11:15:45.000Z</time>
      </trkpt>
      <trkpt lat="45.09553" lon="5.543">
        <ele>1274.9</ele>
        <time>2022-08-12T11:15:46.000Z</time>
      </trkpt>
      <trkpt lat="45.09556" lon="5.54303">
        <ele>1274.5</ele>
        <time>2022-08-12T11:15:47.000Z</time>
      </trkpt>
      <trkpt lat="45.09557" lon="5.54305">
        <ele>1274.1</ele>
        <time>2022-08-12T11:15:48.000Z</time>
      </trkpt>
      <trkpt lat="45.09559" lon="5.54307">
        <ele>1273.6</ele>
        <time>2022-08-12T11:15:49.000Z</time>
      </trkpt>
      <trkpt lat="45.0956" lon="5.54309">
        <ele>1273.2</ele>
        <time>2022-08-12T11:15:50.000Z</time>
      </trkpt>
      <trkpt lat="45.09561" lon="5.54313">
        <ele>1272.4</ele>
        <time>2022-08-12T11:15:51.000Z</time>
      </trkpt>
      <trkpt lat="45.09562" lon="5.54315">
        <ele>1271.9</ele>
        <time>2022-08-12T11:15:52.000Z</time>
      </trkpt>
      <trkpt lat="45.09564" lon="5.54319">
        <ele>1271.1</ele>
        <time>2022-08-12T11:15:53.000Z</time>
      </trkpt>
      <trkpt lat="45.09567" lon="5.54322">
        <ele>1270.4</ele>
        <time>2022-08-12T11:15:54.000Z</time>
      </trkpt>
      <trkpt lat="45.09569" lon="5.54324">
        <ele>1269.9</ele>
        <time>2022-08-12T11:15:55.000Z</time>
      </trkpt>
      <trkpt lat="45.09572" lon="5.54326">
        <ele>1269.5</ele>
        <time>2022-08-12T11:15:56.000Z</time>
      </trkpt>
      <trkpt lat="45.09575" lon="5.54328">
        <ele>1269.2</ele>
        <time>2022-08-12T11:15:57.000Z</time>
      </trkpt>
      <trkpt lat="45.09578" lon="5.54329">
        <ele>1269</ele>
        <time>2022-08-12T11:15:58.000Z</time>
      </trkpt>
      <trkpt lat="45.09582" lon="5.54329">
        <ele>1269</ele>
        <time>2022-08-12T11:15:59.000Z</time>
      </trkpt>
      <trkpt lat="45.09588" lon="5.54332">
        <ele>1268.2</ele>
        <time>2022-08-12T11:16:01.000Z</time>
      </trkpt>
      <trkpt lat="45.09591" lon="5.54334">
        <ele>1267.9</ele>
        <time>2022-08-12T11:16:02.000Z</time>
      </trkpt>
      <trkpt lat="45.09596" lon="5.54336">
        <ele>1267.4</ele>
        <time>2022-08-12T11:16:03.000Z</time>
      </trkpt>
      <trkpt lat="45.09599" lon="5.54338">
        <ele>1267.1</ele>
        <time>2022-08-12T11:16:04.000Z</time>
      </trkpt>
      <trkpt lat="45.09605" lon="5.54339">
        <ele>1266.9</ele>
        <time>2022-08-12T11:16:05.000Z</time>
      </trkpt>
      <trkpt lat="45.0961" lon="5.54341">
        <ele>1266.4</ele>
        <time>2022-08-12T11:16:06.000Z</time>
      </trkpt>
      <trkpt lat="45.09619" lon="5.54344">
        <ele>1265.3</ele>
        <time>2022-08-12T11:16:08.000Z</time>
      </trkpt>
      <trkpt lat="45.09621" lon="5.54345">
        <ele>1265</ele>
        <time>2022-08-12T11:16:09.000Z</time>
      </trkpt>
      <trkpt lat="45.09623" lon="5.54348">
        <ele>1264.4</ele>
        <time>2022-08-12T11:16:10.000Z</time>
      </trkpt>
      <trkpt lat="45.09625" lon="5.54351">
        <ele>1263.6</ele>
        <time>2022-08-12T11:16:11.000Z</time>
      </trkpt>
      <trkpt lat="45.09626" lon="5.54356">
        <ele>1262.5</ele>
        <time>2022-08-12T11:16:12.000Z</time>
      </trkpt>
      <trkpt lat="45.09627" lon="5.54362">
        <ele>1261.2</ele>
        <time>2022-08-12T11:16:13.000Z</time>
      </trkpt>
      <trkpt lat="45.0963" lon="5.54365">
        <ele>1260.5</ele>
        <time>2022-08-12T11:16:14.000Z</time>
      </trkpt>
      <trkpt lat="45.09632" lon="5.54367">
        <ele>1259.9</ele>
        <time>2022-08-12T11:16:15.000Z</time>
      </trkpt>
      <trkpt lat="45.09635" lon="5.54369">
        <ele>1259.5</ele>
        <time>2022-08-12T11:16:16.000Z</time>
      </trkpt>
      <trkpt lat="45.09638" lon="5.54369">
        <ele>1259.3</ele>
        <time>2022-08-12T11:16:17.000Z</time>
      </trkpt>
      <trkpt lat="45.09639" lon="5.54371">
        <ele>1258.8</ele>
        <time>2022-08-12T11:16:18.000Z</time>
      </trkpt>
      <trkpt lat="45.0964" lon="5.54373">
        <ele>1258.3</ele>
        <time>2022-08-12T11:16:19.000Z</time>
      </trkpt>
      <trkpt lat="45.09641" lon="5.54375">
        <ele>1257.8</ele>
        <time>2022-08-12T11:16:20.000Z</time>
      </trkpt>
      <trkpt lat="45.0964" lon="5.54378">
        <ele>1257.2</ele>
        <time>2022-08-12T11:16:21.000Z</time>
      </trkpt>
      <trkpt lat="45.09635" lon="5.54386">
        <ele>1255.8</ele>
        <time>2022-08-12T11:16:23.000Z</time>
      </trkpt>
      <trkpt lat="45.09635" lon="5.54388">
        <ele>1255.4</ele>
        <time>2022-08-12T11:16:24.000Z</time>
      </trkpt>
      <trkpt lat="45.09636" lon="5.5439">
        <ele>1254.8</ele>
        <time>2022-08-12T11:16:25.000Z</time>
      </trkpt>
      <trkpt lat="45.09638" lon="5.54393">
        <ele>1254.1</ele>
        <time>2022-08-12T11:16:26.000Z</time>
      </trkpt>
      <trkpt lat="45.09639" lon="5.54395">
        <ele>1253.5</ele>
        <time>2022-08-12T11:16:27.000Z</time>
      </trkpt>
      <trkpt lat="45.09641" lon="5.54397">
        <ele>1252.9</ele>
        <time>2022-08-12T11:16:28.000Z</time>
      </trkpt>
      <trkpt lat="45.09645" lon="5.54403">
        <ele>1251.2</ele>
        <time>2022-08-12T11:16:31.000Z</time>
      </trkpt>
      <trkpt lat="45.09646" lon="5.54405">
        <ele>1250.7</ele>
        <time>2022-08-12T11:16:32.000Z</time>
      </trkpt>
      <trkpt lat="45.09647" lon="5.54406">
        <ele>1250.4</ele>
        <time>2022-08-12T11:16:33.000Z</time>
      </trkpt>
      <trkpt lat="45.09648" lon="5.54406">
        <ele>1250.1</ele>
        <time>2022-08-12T11:16:34.000Z</time>
      </trkpt>
      <trkpt lat="45.09649" lon="5.54407">
        <ele>1249.9</ele>
        <time>2022-08-12T11:16:35.000Z</time>
      </trkpt>
      <trkpt lat="45.0965" lon="5.54407">
        <ele>1249.9</ele>
        <time>2022-08-12T11:16:36.000Z</time>
      </trkpt>
      <trkpt lat="45.09652" lon="5.54407">
        <ele>1249.9</ele>
        <time>2022-08-12T11:16:37.000Z</time>
      </trkpt>
      <trkpt lat="45.09653" lon="5.54406">
        <ele>1250</ele>
        <time>2022-08-12T11:16:38.000Z</time>
      </trkpt>
      <trkpt lat="45.09653" lon="5.54407">
        <ele>1249.7</ele>
        <time>2022-08-12T11:16:39.000Z</time>
      </trkpt>
      <trkpt lat="45.09654" lon="5.54409">
        <ele>1249.3</ele>
        <time>2022-08-12T11:16:40.000Z</time>
      </trkpt>
      <trkpt lat="45.09653" lon="5.54411">
        <ele>1248.9</ele>
        <time>2022-08-12T11:16:41.000Z</time>
      </trkpt>
      <trkpt lat="45.09651" lon="5.54413">
        <ele>1248.5</ele>
        <time>2022-08-12T11:16:49.000Z</time>
      </trkpt>
      <trkpt lat="45.09651" lon="5.54416">
        <ele>1247.8</ele>
        <time>2022-08-12T11:16:51.000Z</time>
      </trkpt>
      <trkpt lat="45.0965" lon="5.54416">
        <ele>1247.8</ele>
        <time>2022-08-12T11:16:52.000Z</time>
      </trkpt>
      <trkpt lat="45.0965" lon="5.54421">
        <ele>1246.8</ele>
        <time>2022-08-12T11:17:20.000Z</time>
      </trkpt>
      <trkpt lat="45.0965" lon="5.54423">
        <ele>1246.2</ele>
        <time>2022-08-12T11:17:21.000Z</time>
      </trkpt>
      <trkpt lat="45.09651" lon="5.54425">
        <ele>1245.8</ele>
        <time>2022-08-12T11:17:22.000Z</time>
      </trkpt>
      <trkpt lat="45.09651" lon="5.54428">
        <ele>1245.2</ele>
        <time>2022-08-12T11:17:23.000Z</time>
      </trkpt>
      <trkpt lat="45.09651" lon="5.54435">
        <ele>1243.5</ele>
        <time>2022-08-12T11:17:25.000Z</time>
      </trkpt>
      <trkpt lat="45.09652" lon="5.54445">
        <ele>1241.4</ele>
        <time>2022-08-12T11:17:27.000Z</time>
      </trkpt>
      <trkpt lat="45.09652" lon="5.5445">
        <ele>1240.2</ele>
        <time>2022-08-12T11:17:28.000Z</time>
      </trkpt>
      <trkpt lat="45.0965" lon="5.54458">
        <ele>1238.3</ele>
        <time>2022-08-12T11:17:30.000Z</time>
      </trkpt>
      <trkpt lat="45.0965" lon="5.54465">
        <ele>1236.5</ele>
        <time>2022-08-12T11:17:32.000Z</time>
      </trkpt>
      <trkpt lat="45.0965" lon="5.54468">
        <ele>1235.5</ele>
        <time>2022-08-12T11:17:33.000Z</time>
      </trkpt>
      <trkpt lat="45.09653" lon="5.54472">
        <ele>1234.5</ele>
        <time>2022-08-12T11:17:34.000Z</time>
      </trkpt>
      <trkpt lat="45.09654" lon="5.54476">
        <ele>1233.7</ele>
        <time>2022-08-12T11:17:35.000Z</time>
      </trkpt>
      <trkpt lat="45.09655" lon="5.5448">
        <ele>1232.8</ele>
        <time>2022-08-12T11:17:36.000Z</time>
      </trkpt>
      <trkpt lat="45.09655" lon="5.54484">
        <ele>1231.9</ele>
        <time>2022-08-12T11:17:37.000Z</time>
      </trkpt>
      <trkpt lat="45.09655" lon="5.54488">
        <ele>1230.9</ele>
        <time>2022-08-12T11:17:38.000Z</time>
      </trkpt>
      <trkpt lat="45.09658" lon="5.54493">
        <ele>1229.8</ele>
        <time>2022-08-12T11:17:39.000Z</time>
      </trkpt>
      <trkpt lat="45.0966" lon="5.54497">
        <ele>1228.8</ele>
        <time>2022-08-12T11:17:40.000Z</time>
      </trkpt>
      <trkpt lat="45.09661" lon="5.54502">
        <ele>1227.8</ele>
        <time>2022-08-12T11:17:41.000Z</time>
      </trkpt>
      <trkpt lat="45.09659" lon="5.54507">
        <ele>1226.7</ele>
        <time>2022-08-12T11:17:42.000Z</time>
      </trkpt>
      <trkpt lat="45.09655" lon="5.54514">
        <ele>1225.5</ele>
        <time>2022-08-12T11:17:43.000Z</time>
      </trkpt>
      <trkpt lat="45.09652" lon="5.54518">
        <ele>1224.6</ele>
        <time>2022-08-12T11:17:44.000Z</time>
      </trkpt>
      <trkpt lat="45.0965" lon="5.54521">
        <ele>1224.1</ele>
        <time>2022-08-12T11:17:45.000Z</time>
      </trkpt>
      <trkpt lat="45.09649" lon="5.54523">
        <ele>1223.7</ele>
        <time>2022-08-12T11:17:46.000Z</time>
      </trkpt>
      <trkpt lat="45.0965" lon="5.54526">
        <ele>1223</ele>
        <time>2022-08-12T11:17:47.000Z</time>
      </trkpt>
      <trkpt lat="45.09652" lon="5.54529">
        <ele>1222.3</ele>
        <time>2022-08-12T11:17:48.000Z</time>
      </trkpt>
      <trkpt lat="45.09654" lon="5.5453">
        <ele>1222.1</ele>
        <time>2022-08-12T11:17:49.000Z</time>
      </trkpt>
      <trkpt lat="45.09657" lon="5.54533">
        <ele>1221.3</ele>
        <time>2022-08-12T11:17:50.000Z</time>
      </trkpt>
      <trkpt lat="45.09661" lon="5.5454">
        <ele>1219.5</ele>
        <time>2022-08-12T11:17:51.000Z</time>
      </trkpt>
      <trkpt lat="45.09662" lon="5.54547">
        <ele>1218.1</ele>
        <time>2022-08-12T11:17:52.000Z</time>
      </trkpt>
      <trkpt lat="45.09662" lon="5.54555">
        <ele>1216.4</ele>
        <time>2022-08-12T11:17:53.000Z</time>
      </trkpt>
      <trkpt lat="45.0966" lon="5.54561">
        <ele>1214.9</ele>
        <time>2022-08-12T11:17:54.000Z</time>
      </trkpt>
      <trkpt lat="45.09661" lon="5.54565">
        <ele>1213.7</ele>
        <time>2022-08-12T11:17:55.000Z</time>
      </trkpt>
      <trkpt lat="45.09662" lon="5.54563">
        <ele>1214.3</ele>
        <time>2022-08-12T11:17:56.000Z</time>
      </trkpt>
      <trkpt lat="45.09663" lon="5.54566">
        <ele>1213.4</ele>
        <time>2022-08-12T11:17:57.000Z</time>
      </trkpt>
      <trkpt lat="45.09667" lon="5.5457">
        <ele>1212.4</ele>
        <time>2022-08-12T11:17:58.000Z</time>
      </trkpt>
      <trkpt lat="45.09669" lon="5.54575">
        <ele>1211</ele>
        <time>2022-08-12T11:17:59.000Z</time>
      </trkpt>
      <trkpt lat="45.0967" lon="5.54582">
        <ele>1209.2</ele>
        <time>2022-08-12T11:18:00.000Z</time>
      </trkpt>
      <trkpt lat="45.0967" lon="5.54587">
        <ele>1208</ele>
        <time>2022-08-12T11:18:01.000Z</time>
      </trkpt>
      <trkpt lat="45.09671" lon="5.54594">
        <ele>1206.5</ele>
        <time>2022-08-12T11:18:02.000Z</time>
      </trkpt>
      <trkpt lat="45.0967" lon="5.54601">
        <ele>1205</ele>
        <time>2022-08-12T11:18:03.000Z</time>
      </trkpt>
      <trkpt lat="45.09668" lon="5.54605">
        <ele>1204.2</ele>
        <time>2022-08-12T11:18:04.000Z</time>
      </trkpt>
      <trkpt lat="45.09665" lon="5.54609">
        <ele>1203.4</ele>
        <time>2022-08-12T11:18:05.000Z</time>
      </trkpt>
      <trkpt lat="45.09664" lon="5.54613">
        <ele>1202.7</ele>
        <time>2022-08-12T11:18:06.000Z</time>
      </trkpt>
      <trkpt lat="45.09664" lon="5.54615">
        <ele>1202</ele>
        <time>2022-08-12T11:18:07.000Z</time>
      </trkpt>
      <trkpt lat="45.09664" lon="5.54617">
        <ele>1201.6</ele>
        <time>2022-08-12T11:18:08.000Z</time>
      </trkpt>
      <trkpt lat="45.09664" lon="5.54618">
        <ele>1201.4</ele>
        <time>2022-08-12T11:18:09.000Z</time>
      </trkpt>
      <trkpt lat="45.09665" lon="5.54618">
        <ele>1201.4</ele>
        <time>2022-08-12T11:18:37.000Z</time>
      </trkpt>
      <trkpt lat="45.09666" lon="5.54619">
        <ele>1201.1</ele>
        <time>2022-08-12T11:18:38.000Z</time>
      </trkpt>
      <trkpt lat="45.09667" lon="5.54619">
        <ele>1201</ele>
        <time>2022-08-12T11:18:40.000Z</time>
      </trkpt>
      <trkpt lat="45.09675" lon="5.54616">
        <ele>1201.6</ele>
        <time>2022-08-12T11:18:46.000Z</time>
      </trkpt>
      <trkpt lat="45.09676" lon="5.54615">
        <ele>1201.7</ele>
        <time>2022-08-12T11:18:47.000Z</time>
      </trkpt>
      <trkpt lat="45.0968" lon="5.54614">
        <ele>1201.8</ele>
        <time>2022-08-12T11:18:49.000Z</time>
      </trkpt>
      <trkpt lat="45.09682" lon="5.54614">
        <ele>1201.9</ele>
        <time>2022-08-12T11:18:50.000Z</time>
      </trkpt>
      <trkpt lat="45.09684" lon="5.54612">
        <ele>1202.1</ele>
        <time>2022-08-12T11:18:51.000Z</time>
      </trkpt>
      <trkpt lat="45.09687" lon="5.54611">
        <ele>1202.2</ele>
        <time>2022-08-12T11:18:53.000Z</time>
      </trkpt>
      <trkpt lat="45.0969" lon="5.5461">
        <ele>1202.5</ele>
        <time>2022-08-12T11:18:55.000Z</time>
      </trkpt>
      <trkpt lat="45.09691" lon="5.5461">
        <ele>1202.4</ele>
        <time>2022-08-12T11:18:56.000Z</time>
      </trkpt>
      <trkpt lat="45.09692" lon="5.54611">
        <ele>1202</ele>
        <time>2022-08-12T11:18:57.000Z</time>
      </trkpt>
      <trkpt lat="45.09699" lon="5.54621">
        <ele>1199.7</ele>
        <time>2022-08-12T11:19:00.000Z</time>
      </trkpt>
      <trkpt lat="45.09699" lon="5.54624">
        <ele>1199</ele>
        <time>2022-08-12T11:19:01.000Z</time>
      </trkpt>
      <trkpt lat="45.09699" lon="5.54629">
        <ele>1198</ele>
        <time>2022-08-12T11:19:02.000Z</time>
      </trkpt>
      <trkpt lat="45.09699" lon="5.54632">
        <ele>1197.2</ele>
        <time>2022-08-12T11:19:03.000Z</time>
      </trkpt>
      <trkpt lat="45.09701" lon="5.54636">
        <ele>1196.4</ele>
        <time>2022-08-12T11:19:04.000Z</time>
      </trkpt>
      <trkpt lat="45.09705" lon="5.54639">
        <ele>1195.7</ele>
        <time>2022-08-12T11:19:05.000Z</time>
      </trkpt>
      <trkpt lat="45.09713" lon="5.54649">
        <ele>1193.3</ele>
        <time>2022-08-12T11:19:08.000Z</time>
      </trkpt>
      <trkpt lat="45.09714" lon="5.54653">
        <ele>1192.7</ele>
        <time>2022-08-12T11:19:09.000Z</time>
      </trkpt>
      <trkpt lat="45.09715" lon="5.54656">
        <ele>1192.1</ele>
        <time>2022-08-12T11:19:10.000Z</time>
      </trkpt>
      <trkpt lat="45.09718" lon="5.54659">
        <ele>1191.4</ele>
        <time>2022-08-12T11:19:11.000Z</time>
      </trkpt>
      <trkpt lat="45.0972" lon="5.54663">
        <ele>1190.7</ele>
        <time>2022-08-12T11:19:12.000Z</time>
      </trkpt>
      <trkpt lat="45.09723" lon="5.54667">
        <ele>1189.9</ele>
        <time>2022-08-12T11:19:13.000Z</time>
      </trkpt>
      <trkpt lat="45.09725" lon="5.54671">
        <ele>1189</ele>
        <time>2022-08-12T11:19:14.000Z</time>
      </trkpt>
      <trkpt lat="45.09728" lon="5.54672">
        <ele>1188.7</ele>
        <time>2022-08-12T11:19:15.000Z</time>
      </trkpt>
      <trkpt lat="45.09731" lon="5.54672">
        <ele>1188.4</ele>
        <time>2022-08-12T11:19:16.000Z</time>
      </trkpt>
      <trkpt lat="45.09735" lon="5.54674">
        <ele>1188</ele>
        <time>2022-08-12T11:19:17.000Z</time>
      </trkpt>
      <trkpt lat="45.09738" lon="5.54678">
        <ele>1187</ele>
        <time>2022-08-12T11:19:18.000Z</time>
      </trkpt>
      <trkpt lat="45.09739" lon="5.54683">
        <ele>1185.9</ele>
        <time>2022-08-12T11:19:19.000Z</time>
      </trkpt>
      <trkpt lat="45.09742" lon="5.54694">
        <ele>1183.3</ele>
        <time>2022-08-12T11:19:20.000Z</time>
      </trkpt>
      <trkpt lat="45.09744" lon="5.54697">
        <ele>1182.8</ele>
        <time>2022-08-12T11:19:22.000Z</time>
      </trkpt>
      <trkpt lat="45.09748" lon="5.54698">
        <ele>1182.4</ele>
        <time>2022-08-12T11:19:23.000Z</time>
      </trkpt>
      <trkpt lat="45.09751" lon="5.54698">
        <ele>1182.3</ele>
        <time>2022-08-12T11:19:24.000Z</time>
      </trkpt>
      <trkpt lat="45.09753" lon="5.54697">
        <ele>1182.3</ele>
        <time>2022-08-12T11:19:25.000Z</time>
      </trkpt>
      <trkpt lat="45.09755" lon="5.54697">
        <ele>1182.1</ele>
        <time>2022-08-12T11:19:26.000Z</time>
      </trkpt>
      <trkpt lat="45.09757" lon="5.54699">
        <ele>1181.6</ele>
        <time>2022-08-12T11:19:27.000Z</time>
      </trkpt>
      <trkpt lat="45.09761" lon="5.54702">
        <ele>1180.9</ele>
        <time>2022-08-12T11:19:28.000Z</time>
      </trkpt>
      <trkpt lat="45.09763" lon="5.54704">
        <ele>1180.2</ele>
        <time>2022-08-12T11:19:29.000Z</time>
      </trkpt>
      <trkpt lat="45.09766" lon="5.54706">
        <ele>1179.7</ele>
        <time>2022-08-12T11:19:30.000Z</time>
      </trkpt>
      <trkpt lat="45.09768" lon="5.54709">
        <ele>1179</ele>
        <time>2022-08-12T11:19:31.000Z</time>
      </trkpt>
      <trkpt lat="45.09769" lon="5.54713">
        <ele>1178.3</ele>
        <time>2022-08-12T11:19:32.000Z</time>
      </trkpt>
      <trkpt lat="45.09769" lon="5.54716">
        <ele>1177.8</ele>
        <time>2022-08-12T11:19:33.000Z</time>
      </trkpt>
      <trkpt lat="45.09768" lon="5.54721">
        <ele>1176.9</ele>
        <time>2022-08-12T11:19:34.000Z</time>
      </trkpt>
      <trkpt lat="45.09771" lon="5.54724">
        <ele>1176.2</ele>
        <time>2022-08-12T11:19:35.000Z</time>
      </trkpt>
      <trkpt lat="45.09775" lon="5.54728">
        <ele>1175.1</ele>
        <time>2022-08-12T11:19:36.000Z</time>
      </trkpt>
      <trkpt lat="45.09778" lon="5.5473">
        <ele>1174.4</ele>
        <time>2022-08-12T11:19:37.000Z</time>
      </trkpt>
      <trkpt lat="45.09779" lon="5.54732">
        <ele>1174</ele>
        <time>2022-08-12T11:19:38.000Z</time>
      </trkpt>
      <trkpt lat="45.09781" lon="5.54735">
        <ele>1173.3</ele>
        <time>2022-08-12T11:19:39.000Z</time>
      </trkpt>
      <trkpt lat="45.09782" lon="5.54736">
        <ele>1172.9</ele>
        <time>2022-08-12T11:19:40.000Z</time>
      </trkpt>
      <trkpt lat="45.09784" lon="5.54738">
        <ele>1172.3</ele>
        <time>2022-08-12T11:19:41.000Z</time>
      </trkpt>
      <trkpt lat="45.09786" lon="5.54738">
        <ele>1172</ele>
        <time>2022-08-12T11:19:42.000Z</time>
      </trkpt>
      <trkpt lat="45.09788" lon="5.54738">
        <ele>1171.7</ele>
        <time>2022-08-12T11:19:43.000Z</time>
      </trkpt>
      <trkpt lat="45.0979" lon="5.54738">
        <ele>1171.4</ele>
        <time>2022-08-12T11:19:44.000Z</time>
      </trkpt>
      <trkpt lat="45.09793" lon="5.5474">
        <ele>1170.7</ele>
        <time>2022-08-12T11:19:46.000Z</time>
      </trkpt>
      <trkpt lat="45.09795" lon="5.54742">
        <ele>1170</ele>
        <time>2022-08-12T11:19:47.000Z</time>
      </trkpt>
      <trkpt lat="45.09797" lon="5.54744">
        <ele>1169.3</ele>
        <time>2022-08-12T11:19:48.000Z</time>
      </trkpt>
      <trkpt lat="45.09798" lon="5.54747">
        <ele>1168.6</ele>
        <time>2022-08-12T11:19:49.000Z</time>
      </trkpt>
      <trkpt lat="45.09799" lon="5.5475">
        <ele>1168</ele>
        <time>2022-08-12T11:19:50.000Z</time>
      </trkpt>
      <trkpt lat="45.09799" lon="5.54752">
        <ele>1167.6</ele>
        <time>2022-08-12T11:19:51.000Z</time>
      </trkpt>
      <trkpt lat="45.09799" lon="5.54754">
        <ele>1167.1</ele>
        <time>2022-08-12T11:19:52.000Z</time>
      </trkpt>
      <trkpt lat="45.098" lon="5.54756">
        <ele>1166.5</ele>
        <time>2022-08-12T11:19:53.000Z</time>
      </trkpt>
      <trkpt lat="45.098" lon="5.54758">
        <ele>1166.1</ele>
        <time>2022-08-12T11:19:54.000Z</time>
      </trkpt>
      <trkpt lat="45.098" lon="5.54761">
        <ele>1165.5</ele>
        <time>2022-08-12T11:19:55.000Z</time>
      </trkpt>
      <trkpt lat="45.098" lon="5.54763">
        <ele>1165</ele>
        <time>2022-08-12T11:19:56.000Z</time>
      </trkpt>
      <trkpt lat="45.098" lon="5.54765">
        <ele>1164.5</ele>
        <time>2022-08-12T11:19:57.000Z</time>
      </trkpt>
      <trkpt lat="45.09801" lon="5.54768">
        <ele>1163.8</ele>
        <time>2022-08-12T11:19:58.000Z</time>
      </trkpt>
      <trkpt lat="45.09802" lon="5.54771">
        <ele>1162.9</ele>
        <time>2022-08-12T11:19:59.000Z</time>
      </trkpt>
      <trkpt lat="45.09803" lon="5.54774">
        <ele>1162.1</ele>
        <time>2022-08-12T11:20:00.000Z</time>
      </trkpt>
      <trkpt lat="45.09802" lon="5.54777">
        <ele>1161.7</ele>
        <time>2022-08-12T11:20:01.000Z</time>
      </trkpt>
      <trkpt lat="45.09799" lon="5.54781">
        <ele>1161.1</ele>
        <time>2022-08-12T11:20:03.000Z</time>
      </trkpt>
      <trkpt lat="45.09794" lon="5.54784">
        <ele>1161</ele>
        <time>2022-08-12T11:20:05.000Z</time>
      </trkpt>
      <trkpt lat="45.09792" lon="5.54785">
        <ele>1161</ele>
        <time>2022-08-12T11:20:06.000Z</time>
      </trkpt>
      <trkpt lat="45.09791" lon="5.54786">
        <ele>1160.9</ele>
        <time>2022-08-12T11:20:07.000Z</time>
      </trkpt>
      <trkpt lat="45.0979" lon="5.54788">
        <ele>1160.9</ele>
        <time>2022-08-12T11:20:14.000Z</time>
      </trkpt>
      <trkpt lat="45.09789" lon="5.54789">
        <ele>1160.6</ele>
        <time>2022-08-12T11:20:15.000Z</time>
      </trkpt>
      <trkpt lat="45.09787" lon="5.54791">
        <ele>1160.5</ele>
        <time>2022-08-12T11:20:16.000Z</time>
      </trkpt>
      <trkpt lat="45.09784" lon="5.54794">
        <ele>1160.5</ele>
        <time>2022-08-12T11:20:18.000Z</time>
      </trkpt>
      <trkpt lat="45.0978" lon="5.54798">
        <ele>1160.4</ele>
        <time>2022-08-12T11:20:21.000Z</time>
      </trkpt>
      <trkpt lat="45.09778" lon="5.54799">
        <ele>1160.3</ele>
        <time>2022-08-12T11:20:22.000Z</time>
      </trkpt>
      <trkpt lat="45.09775" lon="5.54802">
        <ele>1159.9</ele>
        <time>2022-08-12T11:20:24.000Z</time>
      </trkpt>
      <trkpt lat="45.09771" lon="5.54807">
        <ele>1158.9</ele>
        <time>2022-08-12T11:20:26.000Z</time>
      </trkpt>
      <trkpt lat="45.09767" lon="5.54811">
        <ele>1157.9</ele>
        <time>2022-08-12T11:20:28.000Z</time>
      </trkpt>
      <trkpt lat="45.09767" lon="5.54812">
        <ele>1157.5</ele>
        <time>2022-08-12T11:20:29.000Z</time>
      </trkpt>
      <trkpt lat="45.09767" lon="5.54813">
        <ele>1157.3</ele>
        <time>2022-08-12T11:20:30.000Z</time>
      </trkpt>
      <trkpt lat="45.09768" lon="5.54812">
        <ele>1157.3</ele>
        <time>2022-08-12T11:20:33.000Z</time>
      </trkpt>
      <trkpt lat="45.09769" lon="5.54812">
        <ele>1157.4</ele>
        <time>2022-08-12T11:20:34.000Z</time>
      </trkpt>
      <trkpt lat="45.09769" lon="5.54813">
        <ele>1157.2</ele>
        <time>2022-08-12T11:20:35.000Z</time>
      </trkpt>
      <trkpt lat="45.09769" lon="5.54814">
        <ele>1156.7</ele>
        <time>2022-08-12T11:20:38.000Z</time>
      </trkpt>
      <trkpt lat="45.09768" lon="5.54817">
        <ele>1155.9</ele>
        <time>2022-08-12T11:20:41.000Z</time>
      </trkpt>
      <trkpt lat="45.09765" lon="5.54818">
        <ele>1155.8</ele>
        <time>2022-08-12T11:20:54.000Z</time>
      </trkpt>
      <trkpt lat="45.09764" lon="5.54819">
        <ele>1155.6</ele>
        <time>2022-08-12T11:20:55.000Z</time>
      </trkpt>
      <trkpt lat="45.09759" lon="5.54822">
        <ele>1155.2</ele>
        <time>2022-08-12T11:20:57.000Z</time>
      </trkpt>
      <trkpt lat="45.09757" lon="5.54823">
        <ele>1154.9</ele>
        <time>2022-08-12T11:20:58.000Z</time>
      </trkpt>
      <trkpt lat="45.09753" lon="5.54826">
        <ele>1154.6</ele>
        <time>2022-08-12T11:21:00.000Z</time>
      </trkpt>
      <trkpt lat="45.09746" lon="5.54831">
        <ele>1153.8</ele>
        <time>2022-08-12T11:21:02.000Z</time>
      </trkpt>
      <trkpt lat="45.09741" lon="5.54834">
        <ele>1153.3</ele>
        <time>2022-08-12T11:21:03.000Z</time>
      </trkpt>
      <trkpt lat="45.09733" lon="5.54839">
        <ele>1152.2</ele>
        <time>2022-08-12T11:21:05.000Z</time>
      </trkpt>
      <trkpt lat="45.09731" lon="5.54842">
        <ele>1151.5</ele>
        <time>2022-08-12T11:21:06.000Z</time>
      </trkpt>
      <trkpt lat="45.09728" lon="5.54844">
        <ele>1150.9</ele>
        <time>2022-08-12T11:21:07.000Z</time>
      </trkpt>
      <trkpt lat="45.09727" lon="5.54847">
        <ele>1150.2</ele>
        <time>2022-08-12T11:21:08.000Z</time>
      </trkpt>
      <trkpt lat="45.09725" lon="5.5485">
        <ele>1149.7</ele>
        <time>2022-08-12T11:21:09.000Z</time>
      </trkpt>
      <trkpt lat="45.09724" lon="5.54853">
        <ele>1149</ele>
        <time>2022-08-12T11:21:10.000Z</time>
      </trkpt>
      <trkpt lat="45.09722" lon="5.54855">
        <ele>1148.6</ele>
        <time>2022-08-12T11:21:11.000Z</time>
      </trkpt>
      <trkpt lat="45.0972" lon="5.54857">
        <ele>1148.2</ele>
        <time>2022-08-12T11:21:12.000Z</time>
      </trkpt>
      <trkpt lat="45.09712" lon="5.54864">
        <ele>1146.6</ele>
        <time>2022-08-12T11:21:15.000Z</time>
      </trkpt>
      <trkpt lat="45.09706" lon="5.54869">
        <ele>1145.5</ele>
        <time>2022-08-12T11:21:17.000Z</time>
      </trkpt>
      <trkpt lat="45.09704" lon="5.5487">
        <ele>1145.2</ele>
        <time>2022-08-12T11:21:18.000Z</time>
      </trkpt>
      <trkpt lat="45.09703" lon="5.54872">
        <ele>1144.7</ele>
        <time>2022-08-12T11:21:19.000Z</time>
      </trkpt>
      <trkpt lat="45.09703" lon="5.54876">
        <ele>1143.7</ele>
        <time>2022-08-12T11:21:20.000Z</time>
      </trkpt>
      <trkpt lat="45.09702" lon="5.54879">
        <ele>1142.9</ele>
        <time>2022-08-12T11:21:21.000Z</time>
      </trkpt>
      <trkpt lat="45.09702" lon="5.5488">
        <ele>1142.8</ele>
        <time>2022-08-12T11:21:22.000Z</time>
      </trkpt>
      <trkpt lat="45.09703" lon="5.54881">
        <ele>1142.3</ele>
        <time>2022-08-12T11:21:24.000Z</time>
      </trkpt>
      <trkpt lat="45.09704" lon="5.54883">
        <ele>1141.8</ele>
        <time>2022-08-12T11:21:25.000Z</time>
      </trkpt>
      <trkpt lat="45.09704" lon="5.54886">
        <ele>1141.2</ele>
        <time>2022-08-12T11:21:26.000Z</time>
      </trkpt>
      <trkpt lat="45.09705" lon="5.54888">
        <ele>1140.6</ele>
        <time>2022-08-12T11:21:27.000Z</time>
      </trkpt>
      <trkpt lat="45.09705" lon="5.54889">
        <ele>1140.2</ele>
        <time>2022-08-12T11:21:28.000Z</time>
      </trkpt>
      <trkpt lat="45.09707" lon="5.54888">
        <ele>1140.2</ele>
        <time>2022-08-12T11:21:29.000Z</time>
      </trkpt>
      <trkpt lat="45.09709" lon="5.54888">
        <ele>1140.2</ele>
        <time>2022-08-12T11:21:30.000Z</time>
      </trkpt>
      <trkpt lat="45.09712" lon="5.54887">
        <ele>1140.2</ele>
        <time>2022-08-12T11:21:32.000Z</time>
      </trkpt>
      <trkpt lat="45.09715" lon="5.54887">
        <ele>1140.1</ele>
        <time>2022-08-12T11:21:33.000Z</time>
      </trkpt>
      <trkpt lat="45.09718" lon="5.54885">
        <ele>1140.3</ele>
        <time>2022-08-12T11:21:34.000Z</time>
      </trkpt>
      <trkpt lat="45.09722" lon="5.54884">
        <ele>1140.5</ele>
        <time>2022-08-12T11:21:35.000Z</time>
      </trkpt>
      <trkpt lat="45.09728" lon="5.54882">
        <ele>1140.5</ele>
        <time>2022-08-12T11:21:37.000Z</time>
      </trkpt>
      <trkpt lat="45.0973" lon="5.54884">
        <ele>1139.9</ele>
        <time>2022-08-12T11:21:38.000Z</time>
      </trkpt>
      <trkpt lat="45.09732" lon="5.54887">
        <ele>1138.9</ele>
        <time>2022-08-12T11:21:39.000Z</time>
      </trkpt>
      <trkpt lat="45.09733" lon="5.5489">
        <ele>1137.9</ele>
        <time>2022-08-12T11:21:40.000Z</time>
      </trkpt>
      <trkpt lat="45.09733" lon="5.54894">
        <ele>1136.7</ele>
        <time>2022-08-12T11:21:41.000Z</time>
      </trkpt>
      <trkpt lat="45.09732" lon="5.54903">
        <ele>1134</ele>
        <time>2022-08-12T11:21:43.000Z</time>
      </trkpt>
      <trkpt lat="45.09731" lon="5.54909">
        <ele>1132.2</ele>
        <time>2022-08-12T11:21:44.000Z</time>
      </trkpt>
      <trkpt lat="45.09731" lon="5.54915">
        <ele>1130.5</ele>
        <time>2022-08-12T11:21:45.000Z</time>
      </trkpt>
      <trkpt lat="45.09729" lon="5.54921">
        <ele>1129.1</ele>
        <time>2022-08-12T11:21:46.000Z</time>
      </trkpt>
      <trkpt lat="45.09728" lon="5.54926">
        <ele>1128.2</ele>
        <time>2022-08-12T11:21:47.000Z</time>
      </trkpt>
      <trkpt lat="45.09726" lon="5.54929">
        <ele>1127.5</ele>
        <time>2022-08-12T11:21:48.000Z</time>
      </trkpt>
      <trkpt lat="45.09724" lon="5.54933">
        <ele>1126.7</ele>
        <time>2022-08-12T11:21:49.000Z</time>
      </trkpt>
      <trkpt lat="45.09724" lon="5.54936">
        <ele>1126</ele>
        <time>2022-08-12T11:21:50.000Z</time>
      </trkpt>
      <trkpt lat="45.09723" lon="5.54939">
        <ele>1125.3</ele>
        <time>2022-08-12T11:21:51.000Z</time>
      </trkpt>
      <trkpt lat="45.09722" lon="5.54943">
        <ele>1124.4</ele>
        <time>2022-08-12T11:21:52.000Z</time>
      </trkpt>
      <trkpt lat="45.09721" lon="5.54949">
        <ele>1122.8</ele>
        <time>2022-08-12T11:21:53.000Z</time>
      </trkpt>
      <trkpt lat="45.09719" lon="5.54954">
        <ele>1121.2</ele>
        <time>2022-08-12T11:21:54.000Z</time>
      </trkpt>
      <trkpt lat="45.09718" lon="5.5496">
        <ele>1119.6</ele>
        <time>2022-08-12T11:21:56.000Z</time>
      </trkpt>
      <trkpt lat="45.09719" lon="5.54961">
        <ele>1119.4</ele>
        <time>2022-08-12T11:21:57.000Z</time>
      </trkpt>
      <trkpt lat="45.0972" lon="5.54961">
        <ele>1119.4</ele>
        <time>2022-08-12T11:21:58.000Z</time>
      </trkpt>
      <trkpt lat="45.09722" lon="5.5496">
        <ele>1119.5</ele>
        <time>2022-08-12T11:21:59.000Z</time>
      </trkpt>
      <trkpt lat="45.09728" lon="5.5496">
        <ele>1119</ele>
        <time>2022-08-12T11:22:01.000Z</time>
      </trkpt>
      <trkpt lat="45.0973" lon="5.54962">
        <ele>1118.1</ele>
        <time>2022-08-12T11:22:02.000Z</time>
      </trkpt>
      <trkpt lat="45.09732" lon="5.5497">
        <ele>1115.6</ele>
        <time>2022-08-12T11:22:04.000Z</time>
      </trkpt>
      <trkpt lat="45.09733" lon="5.54975">
        <ele>1114.3</ele>
        <time>2022-08-12T11:22:05.000Z</time>
      </trkpt>
      <trkpt lat="45.09734" lon="5.54978">
        <ele>1113.4</ele>
        <time>2022-08-12T11:22:06.000Z</time>
      </trkpt>
      <trkpt lat="45.09734" lon="5.5498">
        <ele>1113.1</ele>
        <time>2022-08-12T11:22:07.000Z</time>
      </trkpt>
      <trkpt lat="45.09736" lon="5.54979">
        <ele>1113.2</ele>
        <time>2022-08-12T11:22:08.000Z</time>
      </trkpt>
      <trkpt lat="45.09738" lon="5.54976">
        <ele>1113.4</ele>
        <time>2022-08-12T11:22:09.000Z</time>
      </trkpt>
      <trkpt lat="45.09742" lon="5.54973">
        <ele>1113.7</ele>
        <time>2022-08-12T11:22:10.000Z</time>
      </trkpt>
      <trkpt lat="45.09746" lon="5.5497">
        <ele>1114.2</ele>
        <time>2022-08-12T11:22:11.000Z</time>
      </trkpt>
      <trkpt lat="45.0975" lon="5.54967">
        <ele>1114.6</ele>
        <time>2022-08-12T11:22:12.000Z</time>
      </trkpt>
      <trkpt lat="45.09754" lon="5.54965">
        <ele>1114.4</ele>
        <time>2022-08-12T11:22:13.000Z</time>
      </trkpt>
      <trkpt lat="45.09759" lon="5.54966">
        <ele>1113.4</ele>
        <time>2022-08-12T11:22:14.000Z</time>
      </trkpt>
      <trkpt lat="45.09764" lon="5.54968">
        <ele>1112.2</ele>
        <time>2022-08-12T11:22:15.000Z</time>
      </trkpt>
      <trkpt lat="45.09767" lon="5.54971">
        <ele>1110.9</ele>
        <time>2022-08-12T11:22:16.000Z</time>
      </trkpt>
      <trkpt lat="45.09771" lon="5.54973">
        <ele>1109.8</ele>
        <time>2022-08-12T11:22:17.000Z</time>
      </trkpt>
      <trkpt lat="45.09773" lon="5.54975">
        <ele>1109.1</ele>
        <time>2022-08-12T11:22:18.000Z</time>
      </trkpt>
      <trkpt lat="45.09774" lon="5.54977">
        <ele>1108.6</ele>
        <time>2022-08-12T11:22:19.000Z</time>
      </trkpt>
      <trkpt lat="45.09776" lon="5.54978">
        <ele>1108.2</ele>
        <time>2022-08-12T11:22:20.000Z</time>
      </trkpt>
      <trkpt lat="45.09777" lon="5.54977">
        <ele>1107.9</ele>
        <time>2022-08-12T11:22:21.000Z</time>
      </trkpt>
      <trkpt lat="45.09778" lon="5.54978">
        <ele>1107.9</ele>
        <time>2022-08-12T11:22:22.000Z</time>
      </trkpt>
      <trkpt lat="45.09778" lon="5.54979">
        <ele>1107.6</ele>
        <time>2022-08-12T11:22:23.000Z</time>
      </trkpt>
      <trkpt lat="45.09779" lon="5.54981">
        <ele>1106.9</ele>
        <time>2022-08-12T11:22:24.000Z</time>
      </trkpt>
      <trkpt lat="45.09779" lon="5.54982">
        <ele>1106.7</ele>
        <time>2022-08-12T11:22:25.000Z</time>
      </trkpt>
      <trkpt lat="45.09779" lon="5.54983">
        <ele>1106.6</ele>
        <time>2022-08-12T11:22:26.000Z</time>
      </trkpt>
      <trkpt lat="45.09778" lon="5.54984">
        <ele>1106.4</ele>
        <time>2022-08-12T11:22:27.000Z</time>
      </trkpt>
      <trkpt lat="45.09777" lon="5.54985">
        <ele>1106.3</ele>
        <time>2022-08-12T11:22:28.000Z</time>
      </trkpt>
      <trkpt lat="45.09774" lon="5.54987">
        <ele>1106.2</ele>
        <time>2022-08-12T11:22:30.000Z</time>
      </trkpt>
      <trkpt lat="45.0977" lon="5.5499">
        <ele>1106.2</ele>
        <time>2022-08-12T11:22:31.000Z</time>
      </trkpt>
      <trkpt lat="45.09768" lon="5.54992">
        <ele>1106.1</ele>
        <time>2022-08-12T11:22:32.000Z</time>
      </trkpt>
      <trkpt lat="45.09767" lon="5.54995">
        <ele>1105.7</ele>
        <time>2022-08-12T11:22:33.000Z</time>
      </trkpt>
      <trkpt lat="45.09766" lon="5.54999">
        <ele>1104.9</ele>
        <time>2022-08-12T11:22:34.000Z</time>
      </trkpt>
      <trkpt lat="45.09765" lon="5.55004">
        <ele>1104</ele>
        <time>2022-08-12T11:22:35.000Z</time>
      </trkpt>
      <trkpt lat="45.09764" lon="5.55007">
        <ele>1103.4</ele>
        <time>2022-08-12T11:22:36.000Z</time>
      </trkpt>
      <trkpt lat="45.09764" lon="5.5501">
        <ele>1102.9</ele>
        <time>2022-08-12T11:22:37.000Z</time>
      </trkpt>
      <trkpt lat="45.09766" lon="5.55012">
        <ele>1102.1</ele>
        <time>2022-08-12T11:22:38.000Z</time>
      </trkpt>
      <trkpt lat="45.09769" lon="5.55015">
        <ele>1101.1</ele>
        <time>2022-08-12T11:22:39.000Z</time>
      </trkpt>
      <trkpt lat="45.09773" lon="5.55017">
        <ele>1100.1</ele>
        <time>2022-08-12T11:22:40.000Z</time>
      </trkpt>
      <trkpt lat="45.09778" lon="5.5502">
        <ele>1098.8</ele>
        <time>2022-08-12T11:22:41.000Z</time>
      </trkpt>
      <trkpt lat="45.09783" lon="5.55021">
        <ele>1097.6</ele>
        <time>2022-08-12T11:22:42.000Z</time>
      </trkpt>
      <trkpt lat="45.09787" lon="5.55022">
        <ele>1096.9</ele>
        <time>2022-08-12T11:22:43.000Z</time>
      </trkpt>
      <trkpt lat="45.09788" lon="5.55023">
        <ele>1096.4</ele>
        <time>2022-08-12T11:22:44.000Z</time>
      </trkpt>
      <trkpt lat="45.0979" lon="5.55023">
        <ele>1096.1</ele>
        <time>2022-08-12T11:22:45.000Z</time>
      </trkpt>
      <trkpt lat="45.09791" lon="5.55023">
        <ele>1096</ele>
        <time>2022-08-12T11:22:46.000Z</time>
      </trkpt>
      <trkpt lat="45.09791" lon="5.55024">
        <ele>1095.7</ele>
        <time>2022-08-12T11:22:47.000Z</time>
      </trkpt>
      <trkpt lat="45.09792" lon="5.55026">
        <ele>1095.2</ele>
        <time>2022-08-12T11:22:48.000Z</time>
      </trkpt>
      <trkpt lat="45.09793" lon="5.55029">
        <ele>1094.7</ele>
        <time>2022-08-12T11:22:49.000Z</time>
      </trkpt>
      <trkpt lat="45.09793" lon="5.55031">
        <ele>1094.2</ele>
        <time>2022-08-12T11:22:50.000Z</time>
      </trkpt>
      <trkpt lat="45.09792" lon="5.55034">
        <ele>1093.9</ele>
        <time>2022-08-12T11:22:51.000Z</time>
      </trkpt>
      <trkpt lat="45.09788" lon="5.55037">
        <ele>1093.8</ele>
        <time>2022-08-12T11:22:52.000Z</time>
      </trkpt>
      <trkpt lat="45.09783" lon="5.55042">
        <ele>1093.6</ele>
        <time>2022-08-12T11:22:54.000Z</time>
      </trkpt>
      <trkpt lat="45.09782" lon="5.55046">
        <ele>1093.1</ele>
        <time>2022-08-12T11:22:55.000Z</time>
      </trkpt>
      <trkpt lat="45.09781" lon="5.5505">
        <ele>1092.4</ele>
        <time>2022-08-12T11:22:56.000Z</time>
      </trkpt>
      <trkpt lat="45.0978" lon="5.55055">
        <ele>1091.8</ele>
        <time>2022-08-12T11:22:57.000Z</time>
      </trkpt>
      <trkpt lat="45.09778" lon="5.55066">
        <ele>1090.1</ele>
        <time>2022-08-12T11:22:58.000Z</time>
      </trkpt>
      <trkpt lat="45.09775" lon="5.55073">
        <ele>1089.1</ele>
        <time>2022-08-12T11:22:59.000Z</time>
      </trkpt>
      <trkpt lat="45.09774" lon="5.55083">
        <ele>1087.5</ele>
        <time>2022-08-12T11:23:00.000Z</time>
      </trkpt>
      <trkpt lat="45.09772" lon="5.55089">
        <ele>1086.6</ele>
        <time>2022-08-12T11:23:01.000Z</time>
      </trkpt>
      <trkpt lat="45.09772" lon="5.55094">
        <ele>1085.7</ele>
        <time>2022-08-12T11:23:02.000Z</time>
      </trkpt>
      <trkpt lat="45.09773" lon="5.55098">
        <ele>1085</ele>
        <time>2022-08-12T11:23:03.000Z</time>
      </trkpt>
      <trkpt lat="45.09772" lon="5.55102">
        <ele>1084.3</ele>
        <time>2022-08-12T11:23:04.000Z</time>
      </trkpt>
      <trkpt lat="45.09773" lon="5.55109">
        <ele>1082.8</ele>
        <time>2022-08-12T11:23:06.000Z</time>
      </trkpt>
      <trkpt lat="45.09772" lon="5.55119">
        <ele>1080.9</ele>
        <time>2022-08-12T11:23:08.000Z</time>
      </trkpt>
      <trkpt lat="45.09771" lon="5.55124">
        <ele>1080.1</ele>
        <time>2022-08-12T11:23:09.000Z</time>
      </trkpt>
      <trkpt lat="45.09771" lon="5.55126">
        <ele>1079.6</ele>
        <time>2022-08-12T11:23:10.000Z</time>
      </trkpt>
      <trkpt lat="45.09771" lon="5.55128">
        <ele>1079.3</ele>
        <time>2022-08-12T11:23:11.000Z</time>
      </trkpt>
      <trkpt lat="45.09772" lon="5.55128">
        <ele>1079.1</ele>
        <time>2022-08-12T11:23:12.000Z</time>
      </trkpt>
      <trkpt lat="45.09773" lon="5.55128">
        <ele>1079</ele>
        <time>2022-08-12T11:23:14.000Z</time>
      </trkpt>
      <trkpt lat="45.09775" lon="5.55129">
        <ele>1078.4</ele>
        <time>2022-08-12T11:23:16.000Z</time>
      </trkpt>
      <trkpt lat="45.09776" lon="5.55132">
        <ele>1077.8</ele>
        <time>2022-08-12T11:23:17.000Z</time>
      </trkpt>
      <trkpt lat="45.09776" lon="5.55135">
        <ele>1076.9</ele>
        <time>2022-08-12T11:23:18.000Z</time>
      </trkpt>
      <trkpt lat="45.09776" lon="5.55138">
        <ele>1076.4</ele>
        <time>2022-08-12T11:23:19.000Z</time>
      </trkpt>
      <trkpt lat="45.09775" lon="5.5514">
        <ele>1076</ele>
        <time>2022-08-12T11:23:20.000Z</time>
      </trkpt>
      <trkpt lat="45.09774" lon="5.55143">
        <ele>1075.7</ele>
        <time>2022-08-12T11:23:21.000Z</time>
      </trkpt>
      <trkpt lat="45.09772" lon="5.55146">
        <ele>1075.3</ele>
        <time>2022-08-12T11:23:22.000Z</time>
      </trkpt>
      <trkpt lat="45.09771" lon="5.55151">
        <ele>1074.4</ele>
        <time>2022-08-12T11:23:23.000Z</time>
      </trkpt>
      <trkpt lat="45.09768" lon="5.55156">
        <ele>1073.7</ele>
        <time>2022-08-12T11:23:24.000Z</time>
      </trkpt>
      <trkpt lat="45.09763" lon="5.55165">
        <ele>1072.6</ele>
        <time>2022-08-12T11:23:26.000Z</time>
      </trkpt>
      <trkpt lat="45.09763" lon="5.55168">
        <ele>1071.8</ele>
        <time>2022-08-12T11:23:27.000Z</time>
      </trkpt>
      <trkpt lat="45.09764" lon="5.5517">
        <ele>1071.3</ele>
        <time>2022-08-12T11:23:28.000Z</time>
      </trkpt>
      <trkpt lat="45.09765" lon="5.55173">
        <ele>1070.6</ele>
        <time>2022-08-12T11:23:29.000Z</time>
      </trkpt>
      <trkpt lat="45.09767" lon="5.55174">
        <ele>1070.2</ele>
        <time>2022-08-12T11:23:30.000Z</time>
      </trkpt>
      <trkpt lat="45.09768" lon="5.55174">
        <ele>1070.1</ele>
        <time>2022-08-12T11:23:31.000Z</time>
      </trkpt>
      <trkpt lat="45.09771" lon="5.55171">
        <ele>1070.2</ele>
        <time>2022-08-12T11:23:33.000Z</time>
      </trkpt>
      <trkpt lat="45.09771" lon="5.55173">
        <ele>1069.8</ele>
        <time>2022-08-12T11:23:34.000Z</time>
      </trkpt>
      <trkpt lat="45.09772" lon="5.55173">
        <ele>1069.7</ele>
        <time>2022-08-12T11:23:35.000Z</time>
      </trkpt>
      <trkpt lat="45.09772" lon="5.55174">
        <ele>1069.5</ele>
        <time>2022-08-12T11:23:37.000Z</time>
      </trkpt>
      <trkpt lat="45.09771" lon="5.55178">
        <ele>1068.7</ele>
        <time>2022-08-12T11:23:38.000Z</time>
      </trkpt>
      <trkpt lat="45.0977" lon="5.55184">
        <ele>1067.8</ele>
        <time>2022-08-12T11:23:39.000Z</time>
      </trkpt>
      <trkpt lat="45.09769" lon="5.55188">
        <ele>1067.1</ele>
        <time>2022-08-12T11:23:40.000Z</time>
      </trkpt>
      <trkpt lat="45.09771" lon="5.55193">
        <ele>1066.1</ele>
        <time>2022-08-12T11:23:41.000Z</time>
      </trkpt>
      <trkpt lat="45.09773" lon="5.55196">
        <ele>1065.2</ele>
        <time>2022-08-12T11:23:42.000Z</time>
      </trkpt>
      <trkpt lat="45.09775" lon="5.55198">
        <ele>1064.6</ele>
        <time>2022-08-12T11:23:43.000Z</time>
      </trkpt>
      <trkpt lat="45.09776" lon="5.55199">
        <ele>1064.1</ele>
        <time>2022-08-12T11:23:44.000Z</time>
      </trkpt>
      <trkpt lat="45.09778" lon="5.552">
        <ele>1063.9</ele>
        <time>2022-08-12T11:23:45.000Z</time>
      </trkpt>
      <trkpt lat="45.0978" lon="5.552">
        <ele>1063.5</ele>
        <time>2022-08-12T11:23:46.000Z</time>
      </trkpt>
      <trkpt lat="45.09782" lon="5.55198">
        <ele>1063.2</ele>
        <time>2022-08-12T11:23:47.000Z</time>
      </trkpt>
      <trkpt lat="45.09785" lon="5.55197">
        <ele>1063</ele>
        <time>2022-08-12T11:23:48.000Z</time>
      </trkpt>
      <trkpt lat="45.09788" lon="5.55197">
        <ele>1062.2</ele>
        <time>2022-08-12T11:23:49.000Z</time>
      </trkpt>
      <trkpt lat="45.09789" lon="5.55202">
        <ele>1061</ele>
        <time>2022-08-12T11:23:50.000Z</time>
      </trkpt>
      <trkpt lat="45.09793" lon="5.55216">
        <ele>1057.3</ele>
        <time>2022-08-12T11:23:53.000Z</time>
      </trkpt>
      <trkpt lat="45.09796" lon="5.55219">
        <ele>1056.5</ele>
        <time>2022-08-12T11:23:54.000Z</time>
      </trkpt>
      <trkpt lat="45.09797" lon="5.55221">
        <ele>1055.8</ele>
        <time>2022-08-12T11:23:55.000Z</time>
      </trkpt>
      <trkpt lat="45.09799" lon="5.55222">
        <ele>1055.2</ele>
        <time>2022-08-12T11:23:56.000Z</time>
      </trkpt>
      <trkpt lat="45.09801" lon="5.55224">
        <ele>1054.5</ele>
        <time>2022-08-12T11:23:57.000Z</time>
      </trkpt>
      <trkpt lat="45.09802" lon="5.55225">
        <ele>1054</ele>
        <time>2022-08-12T11:23:58.000Z</time>
      </trkpt>
      <trkpt lat="45.09805" lon="5.55229">
        <ele>1052.8</ele>
        <time>2022-08-12T11:23:59.000Z</time>
      </trkpt>
      <trkpt lat="45.09809" lon="5.55233">
        <ele>1051.3</ele>
        <time>2022-08-12T11:24:00.000Z</time>
      </trkpt>
      <trkpt lat="45.09809" lon="5.55235">
        <ele>1051</ele>
        <time>2022-08-12T11:24:01.000Z</time>
      </trkpt>
      <trkpt lat="45.09808" lon="5.55237">
        <ele>1050.8</ele>
        <time>2022-08-12T11:24:02.000Z</time>
      </trkpt>
      <trkpt lat="45.09807" lon="5.5524">
        <ele>1050.5</ele>
        <time>2022-08-12T11:24:03.000Z</time>
      </trkpt>
      <trkpt lat="45.09807" lon="5.55245">
        <ele>1049.7</ele>
        <time>2022-08-12T11:24:04.000Z</time>
      </trkpt>
      <trkpt lat="45.09806" lon="5.55248">
        <ele>1049.2</ele>
        <time>2022-08-12T11:24:05.000Z</time>
      </trkpt>
      <trkpt lat="45.09805" lon="5.55252">
        <ele>1048.8</ele>
        <time>2022-08-12T11:24:06.000Z</time>
      </trkpt>
      <trkpt lat="45.09801" lon="5.55256">
        <ele>1048.5</ele>
        <time>2022-08-12T11:24:08.000Z</time>
      </trkpt>
      <trkpt lat="45.09799" lon="5.55258">
        <ele>1048.5</ele>
        <time>2022-08-12T11:24:09.000Z</time>
      </trkpt>
      <trkpt lat="45.09798" lon="5.55259">
        <ele>1048.6</ele>
        <time>2022-08-12T11:24:10.000Z</time>
      </trkpt>
      <trkpt lat="45.09795" lon="5.5526">
        <ele>1048.7</ele>
        <time>2022-08-12T11:24:11.000Z</time>
      </trkpt>
      <trkpt lat="45.09794" lon="5.55261">
        <ele>1048.6</ele>
        <time>2022-08-12T11:24:12.000Z</time>
      </trkpt>
      <trkpt lat="45.09794" lon="5.55267">
        <ele>1047.6</ele>
        <time>2022-08-12T11:24:14.000Z</time>
      </trkpt>
      <trkpt lat="45.09794" lon="5.5527">
        <ele>1047</ele>
        <time>2022-08-12T11:24:15.000Z</time>
      </trkpt>
      <trkpt lat="45.09795" lon="5.55273">
        <ele>1046.4</ele>
        <time>2022-08-12T11:24:16.000Z</time>
      </trkpt>
      <trkpt lat="45.09796" lon="5.55276">
        <ele>1045.7</ele>
        <time>2022-08-12T11:24:17.000Z</time>
      </trkpt>
      <trkpt lat="45.09797" lon="5.55279">
        <ele>1044.9</ele>
        <time>2022-08-12T11:24:18.000Z</time>
      </trkpt>
      <trkpt lat="45.09798" lon="5.55283">
        <ele>1044.3</ele>
        <time>2022-08-12T11:24:19.000Z</time>
      </trkpt>
      <trkpt lat="45.09797" lon="5.55286">
        <ele>1043.7</ele>
        <time>2022-08-12T11:24:20.000Z</time>
      </trkpt>
      <trkpt lat="45.09796" lon="5.5529">
        <ele>1043.2</ele>
        <time>2022-08-12T11:24:21.000Z</time>
      </trkpt>
      <trkpt lat="45.09795" lon="5.55293">
        <ele>1042.8</ele>
        <time>2022-08-12T11:24:22.000Z</time>
      </trkpt>
      <trkpt lat="45.09795" lon="5.55295">
        <ele>1042.4</ele>
        <time>2022-08-12T11:24:23.000Z</time>
      </trkpt>
      <trkpt lat="45.09794" lon="5.55298">
        <ele>1042.1</ele>
        <time>2022-08-12T11:24:24.000Z</time>
      </trkpt>
      <trkpt lat="45.09793" lon="5.55298">
        <ele>1042.1</ele>
        <time>2022-08-12T11:24:25.000Z</time>
      </trkpt>
      <trkpt lat="45.09793" lon="5.55299">
        <ele>1042.1</ele>
        <time>2022-08-12T11:24:26.000Z</time>
      </trkpt>
      <trkpt lat="45.09794" lon="5.55297">
        <ele>1042.2</ele>
        <time>2022-08-12T11:24:36.000Z</time>
      </trkpt>
      <trkpt lat="45.09794" lon="5.55296">
        <ele>1042.4</ele>
        <time>2022-08-12T11:24:44.000Z</time>
      </trkpt>
      <trkpt lat="45.09791" lon="5.553">
        <ele>1042.1</ele>
        <time>2022-08-12T11:25:02.000Z</time>
      </trkpt>
      <trkpt lat="45.0979" lon="5.55303">
        <ele>1041.7</ele>
        <time>2022-08-12T11:25:03.000Z</time>
      </trkpt>
      <trkpt lat="45.09789" lon="5.55307">
        <ele>1041.1</ele>
        <time>2022-08-12T11:25:04.000Z</time>
      </trkpt>
      <trkpt lat="45.09788" lon="5.55311">
        <ele>1040.4</ele>
        <time>2022-08-12T11:25:05.000Z</time>
      </trkpt>
      <trkpt lat="45.09787" lon="5.55315">
        <ele>1039.8</ele>
        <time>2022-08-12T11:25:06.000Z</time>
      </trkpt>
      <trkpt lat="45.09786" lon="5.55319">
        <ele>1039.1</ele>
        <time>2022-08-12T11:25:07.000Z</time>
      </trkpt>
      <trkpt lat="45.09785" lon="5.55324">
        <ele>1038.2</ele>
        <time>2022-08-12T11:25:08.000Z</time>
      </trkpt>
      <trkpt lat="45.09785" lon="5.55327">
        <ele>1037.5</ele>
        <time>2022-08-12T11:25:09.000Z</time>
      </trkpt>
      <trkpt lat="45.09784" lon="5.55331">
        <ele>1036.8</ele>
        <time>2022-08-12T11:25:10.000Z</time>
      </trkpt>
      <trkpt lat="45.09783" lon="5.55335">
        <ele>1036</ele>
        <time>2022-08-12T11:25:11.000Z</time>
      </trkpt>
      <trkpt lat="45.09784" lon="5.55339">
        <ele>1035.1</ele>
        <time>2022-08-12T11:25:12.000Z</time>
      </trkpt>
      <trkpt lat="45.09783" lon="5.55345">
        <ele>1033.9</ele>
        <time>2022-08-12T11:25:13.000Z</time>
      </trkpt>
      <trkpt lat="45.09783" lon="5.55352">
        <ele>1032.4</ele>
        <time>2022-08-12T11:25:14.000Z</time>
      </trkpt>
      <trkpt lat="45.09783" lon="5.5536">
        <ele>1030.9</ele>
        <time>2022-08-12T11:25:15.000Z</time>
      </trkpt>
      <trkpt lat="45.09782" lon="5.55367">
        <ele>1029.8</ele>
        <time>2022-08-12T11:25:16.000Z</time>
      </trkpt>
      <trkpt lat="45.09782" lon="5.55374">
        <ele>1028.8</ele>
        <time>2022-08-12T11:25:17.000Z</time>
      </trkpt>
      <trkpt lat="45.09782" lon="5.55379">
        <ele>1028.1</ele>
        <time>2022-08-12T11:25:18.000Z</time>
      </trkpt>
      <trkpt lat="45.09782" lon="5.55382">
        <ele>1027.7</ele>
        <time>2022-08-12T11:25:19.000Z</time>
      </trkpt>
      <trkpt lat="45.09782" lon="5.55383">
        <ele>1027.5</ele>
        <time>2022-08-12T11:25:20.000Z</time>
      </trkpt>
      <trkpt lat="45.09783" lon="5.55385">
        <ele>1027.2</ele>
        <time>2022-08-12T11:25:21.000Z</time>
      </trkpt>
      <trkpt lat="45.09783" lon="5.55388">
        <ele>1026.8</ele>
        <time>2022-08-12T11:25:22.000Z</time>
      </trkpt>
      <trkpt lat="45.09783" lon="5.55391">
        <ele>1026.3</ele>
        <time>2022-08-12T11:25:23.000Z</time>
      </trkpt>
      <trkpt lat="45.09785" lon="5.55399">
        <ele>1025</ele>
        <time>2022-08-12T11:25:26.000Z</time>
      </trkpt>
      <trkpt lat="45.09785" lon="5.55401">
        <ele>1024.7</ele>
        <time>2022-08-12T11:25:27.000Z</time>
      </trkpt>
      <trkpt lat="45.09786" lon="5.55404">
        <ele>1024.2</ele>
        <time>2022-08-12T11:25:28.000Z</time>
      </trkpt>
      <trkpt lat="45.09788" lon="5.55408">
        <ele>1023.6</ele>
        <time>2022-08-12T11:25:29.000Z</time>
      </trkpt>
      <trkpt lat="45.09791" lon="5.55415">
        <ele>1022.3</ele>
        <time>2022-08-12T11:25:31.000Z</time>
      </trkpt>
      <trkpt lat="45.09796" lon="5.55423">
        <ele>1021.1</ele>
        <time>2022-08-12T11:25:33.000Z</time>
      </trkpt>
      <trkpt lat="45.09798" lon="5.55426">
        <ele>1020.6</ele>
        <time>2022-08-12T11:25:34.000Z</time>
      </trkpt>
      <trkpt lat="45.09802" lon="5.55433">
        <ele>1019.6</ele>
        <time>2022-08-12T11:25:36.000Z</time>
      </trkpt>
      <trkpt lat="45.0981" lon="5.55443">
        <ele>1017.9</ele>
        <time>2022-08-12T11:25:39.000Z</time>
      </trkpt>
      <trkpt lat="45.09814" lon="5.55445">
        <ele>1017.4</ele>
        <time>2022-08-12T11:25:40.000Z</time>
      </trkpt>
      <trkpt lat="45.09817" lon="5.55446">
        <ele>1017</ele>
        <time>2022-08-12T11:25:41.000Z</time>
      </trkpt>
      <trkpt lat="45.09823" lon="5.55447">
        <ele>1016.5</ele>
        <time>2022-08-12T11:25:42.000Z</time>
      </trkpt>
      <trkpt lat="45.09829" lon="5.55446">
        <ele>1016.1</ele>
        <time>2022-08-12T11:25:43.000Z</time>
      </trkpt>
      <trkpt lat="45.09835" lon="5.55446">
        <ele>1015.8</ele>
        <time>2022-08-12T11:25:44.000Z</time>
      </trkpt>
      <trkpt lat="45.0984" lon="5.55448">
        <ele>1015.9</ele>
        <time>2022-08-12T11:25:45.000Z</time>
      </trkpt>
      <trkpt lat="45.09846" lon="5.55453">
        <ele>1015.7</ele>
        <time>2022-08-12T11:25:46.000Z</time>
      </trkpt>
      <trkpt lat="45.0985" lon="5.55459">
        <ele>1015.3</ele>
        <time>2022-08-12T11:25:47.000Z</time>
      </trkpt>
      <trkpt lat="45.09853" lon="5.55465">
        <ele>1015</ele>
        <time>2022-08-12T11:25:48.000Z</time>
      </trkpt>
      <trkpt lat="45.09858" lon="5.55475">
        <ele>1014.7</ele>
        <time>2022-08-12T11:25:49.000Z</time>
      </trkpt>
      <trkpt lat="45.09861" lon="5.55483">
        <ele>1014.6</ele>
        <time>2022-08-12T11:25:50.000Z</time>
      </trkpt>
      <trkpt lat="45.09863" lon="5.55491">
        <ele>1014.6</ele>
        <time>2022-08-12T11:25:51.000Z</time>
      </trkpt>
      <trkpt lat="45.09868" lon="5.5551">
        <ele>1014.4</ele>
        <time>2022-08-12T11:25:53.000Z</time>
      </trkpt>
      <trkpt lat="45.0987" lon="5.55518">
        <ele>1014.1</ele>
        <time>2022-08-12T11:25:54.000Z</time>
      </trkpt>
      <trkpt lat="45.0987" lon="5.55549">
        <ele>1013.3</ele>
        <time>2022-08-12T11:25:57.000Z</time>
      </trkpt>
      <trkpt lat="45.09867" lon="5.55597">
        <ele>1011.8</ele>
        <time>2022-08-12T11:26:02.000Z</time>
      </trkpt>
      <trkpt lat="45.09867" lon="5.55617">
        <ele>1010.7</ele>
        <time>2022-08-12T11:26:04.000Z</time>
      </trkpt>
      <trkpt lat="45.09866" lon="5.55627">
        <ele>1010</ele>
        <time>2022-08-12T11:26:05.000Z</time>
      </trkpt>
      <trkpt lat="45.09865" lon="5.55633">
        <ele>1009.5</ele>
        <time>2022-08-12T11:26:06.000Z</time>
      </trkpt>
      <trkpt lat="45.09863" lon="5.55641">
        <ele>1008.7</ele>
        <time>2022-08-12T11:26:07.000Z</time>
      </trkpt>
      <trkpt lat="45.09862" lon="5.55645">
        <ele>1007.8</ele>
        <time>2022-08-12T11:26:08.000Z</time>
      </trkpt>
      <trkpt lat="45.09861" lon="5.55649">
        <ele>1007.1</ele>
        <time>2022-08-12T11:26:09.000Z</time>
      </trkpt>
      <trkpt lat="45.09862" lon="5.55654">
        <ele>1006.3</ele>
        <time>2022-08-12T11:26:10.000Z</time>
      </trkpt>
      <trkpt lat="45.09864" lon="5.55658">
        <ele>1005.5</ele>
        <time>2022-08-12T11:26:11.000Z</time>
      </trkpt>
      <trkpt lat="45.09867" lon="5.55663">
        <ele>1004.5</ele>
        <time>2022-08-12T11:26:12.000Z</time>
      </trkpt>
      <trkpt lat="45.0987" lon="5.55668">
        <ele>1003.4</ele>
        <time>2022-08-12T11:26:13.000Z</time>
      </trkpt>
      <trkpt lat="45.09874" lon="5.55673">
        <ele>1002.3</ele>
        <time>2022-08-12T11:26:14.000Z</time>
      </trkpt>
      <trkpt lat="45.09876" lon="5.55679">
        <ele>1001.1</ele>
        <time>2022-08-12T11:26:15.000Z</time>
      </trkpt>
      <trkpt lat="45.09877" lon="5.55685">
        <ele>999.8</ele>
        <time>2022-08-12T11:26:16.000Z</time>
      </trkpt>
      <trkpt lat="45.09876" lon="5.55691">
        <ele>998.7</ele>
        <time>2022-08-12T11:26:17.000Z</time>
      </trkpt>
      <trkpt lat="45.09873" lon="5.557">
        <ele>997.1</ele>
        <time>2022-08-12T11:26:18.000Z</time>
      </trkpt>
      <trkpt lat="45.09869" lon="5.55708">
        <ele>995.9</ele>
        <time>2022-08-12T11:26:19.000Z</time>
      </trkpt>
      <trkpt lat="45.09865" lon="5.55716">
        <ele>994.9</ele>
        <time>2022-08-12T11:26:20.000Z</time>
      </trkpt>
      <trkpt lat="45.0986" lon="5.55722">
        <ele>994</ele>
        <time>2022-08-12T11:26:21.000Z</time>
      </trkpt>
      <trkpt lat="45.09853" lon="5.55727">
        <ele>992.8</ele>
        <time>2022-08-12T11:26:22.000Z</time>
      </trkpt>
      <trkpt lat="45.09847" lon="5.55731">
        <ele>991.9</ele>
        <time>2022-08-12T11:26:23.000Z</time>
      </trkpt>
      <trkpt lat="45.09842" lon="5.55733">
        <ele>991.3</ele>
        <time>2022-08-12T11:26:24.000Z</time>
      </trkpt>
      <trkpt lat="45.09835" lon="5.55737">
        <ele>990.4</ele>
        <time>2022-08-12T11:26:25.000Z</time>
      </trkpt>
      <trkpt lat="45.09831" lon="5.5574">
        <ele>989.7</ele>
        <time>2022-08-12T11:26:26.000Z</time>
      </trkpt>
      <trkpt lat="45.09827" lon="5.55746">
        <ele>988.2</ele>
        <time>2022-08-12T11:26:27.000Z</time>
      </trkpt>
      <trkpt lat="45.09826" lon="5.55754">
        <ele>987</ele>
        <time>2022-08-12T11:26:28.000Z</time>
      </trkpt>
      <trkpt lat="45.09828" lon="5.55762">
        <ele>986.2</ele>
        <time>2022-08-12T11:26:29.000Z</time>
      </trkpt>
      <trkpt lat="45.09831" lon="5.55768">
        <ele>985.8</ele>
        <time>2022-08-12T11:26:30.000Z</time>
      </trkpt>
      <trkpt lat="45.09836" lon="5.55775">
        <ele>985.4</ele>
        <time>2022-08-12T11:26:31.000Z</time>
      </trkpt>
      <trkpt lat="45.09841" lon="5.55781">
        <ele>985</ele>
        <time>2022-08-12T11:26:32.000Z</time>
      </trkpt>
      <trkpt lat="45.09846" lon="5.55787">
        <ele>984.8</ele>
        <time>2022-08-12T11:26:33.000Z</time>
      </trkpt>
      <trkpt lat="45.09851" lon="5.55792">
        <ele>984.6</ele>
        <time>2022-08-12T11:26:34.000Z</time>
      </trkpt>
      <trkpt lat="45.09855" lon="5.55794">
        <ele>984.6</ele>
        <time>2022-08-12T11:26:35.000Z</time>
      </trkpt>
      <trkpt lat="45.09859" lon="5.55796">
        <ele>984.6</ele>
        <time>2022-08-12T11:26:36.000Z</time>
      </trkpt>
      <trkpt lat="45.09863" lon="5.55798">
        <ele>984.5</ele>
        <time>2022-08-12T11:26:37.000Z</time>
      </trkpt>
      <trkpt lat="45.09864" lon="5.55801">
        <ele>984.2</ele>
        <time>2022-08-12T11:26:38.000Z</time>
      </trkpt>
      <trkpt lat="45.09864" lon="5.55802">
        <ele>984.2</ele>
        <time>2022-08-12T11:26:39.000Z</time>
      </trkpt>
      <trkpt lat="45.09865" lon="5.55803">
        <ele>984</ele>
        <time>2022-08-12T11:26:50.000Z</time>
      </trkpt>
      <trkpt lat="45.09866" lon="5.55811">
        <ele>983.4</ele>
        <time>2022-08-12T11:26:53.000Z</time>
      </trkpt>
      <trkpt lat="45.09873" lon="5.55819">
        <ele>982.8</ele>
        <time>2022-08-12T11:26:56.000Z</time>
      </trkpt>
      <trkpt lat="45.09876" lon="5.55821">
        <ele>982.7</ele>
        <time>2022-08-12T11:26:57.000Z</time>
      </trkpt>
      <trkpt lat="45.0988" lon="5.55823">
        <ele>982.5</ele>
        <time>2022-08-12T11:26:58.000Z</time>
      </trkpt>
      <trkpt lat="45.09883" lon="5.55825">
        <ele>982.4</ele>
        <time>2022-08-12T11:26:59.000Z</time>
      </trkpt>
      <trkpt lat="45.09888" lon="5.55828">
        <ele>982.2</ele>
        <time>2022-08-12T11:27:00.000Z</time>
      </trkpt>
      <trkpt lat="45.09908" lon="5.55838">
        <ele>981.8</ele>
        <time>2022-08-12T11:27:05.000Z</time>
      </trkpt>
      <trkpt lat="45.09936" lon="5.55859">
        <ele>982.5</ele>
        <time>2022-08-12T11:27:12.000Z</time>
      </trkpt>
      <trkpt lat="45.09962" lon="5.55887">
        <ele>982.5</ele>
        <time>2022-08-12T11:27:19.000Z</time>
      </trkpt>
      <trkpt lat="45.09969" lon="5.55896">
        <ele>982.3</ele>
        <time>2022-08-12T11:27:21.000Z</time>
      </trkpt>
      <trkpt lat="45.09975" lon="5.55904">
        <ele>982.3</ele>
        <time>2022-08-12T11:27:23.000Z</time>
      </trkpt>
      <trkpt lat="45.09978" lon="5.55907">
        <ele>982.4</ele>
        <time>2022-08-12T11:27:24.000Z</time>
      </trkpt>
      <trkpt lat="45.09981" lon="5.55911">
        <ele>982.4</ele>
        <time>2022-08-12T11:27:25.000Z</time>
      </trkpt>
      <trkpt lat="45.09985" lon="5.55915">
        <ele>982.5</ele>
        <time>2022-08-12T11:27:26.000Z</time>
      </trkpt>
      <trkpt lat="45.09988" lon="5.5592">
        <ele>982.6</ele>
        <time>2022-08-12T11:27:27.000Z</time>
      </trkpt>
      <trkpt lat="45.09994" lon="5.55927">
        <ele>982.8</ele>
        <time>2022-08-12T11:27:29.000Z</time>
      </trkpt>
      <trkpt lat="45.09997" lon="5.55931">
        <ele>982.8</ele>
        <time>2022-08-12T11:27:30.000Z</time>
      </trkpt>
      <trkpt lat="45.1" lon="5.55935">
        <ele>982.7</ele>
        <time>2022-08-12T11:27:31.000Z</time>
      </trkpt>
      <trkpt lat="45.10016" lon="5.55957">
        <ele>983</ele>
        <time>2022-08-12T11:27:36.000Z</time>
      </trkpt>
      <trkpt lat="45.10019" lon="5.55961">
        <ele>983.1</ele>
        <time>2022-08-12T11:27:37.000Z</time>
      </trkpt>
      <trkpt lat="45.10022" lon="5.55964">
        <ele>983.1</ele>
        <time>2022-08-12T11:27:38.000Z</time>
      </trkpt>
      <trkpt lat="45.10031" lon="5.55977">
        <ele>983.1</ele>
        <time>2022-08-12T11:27:41.000Z</time>
      </trkpt>
      <trkpt lat="45.1004" lon="5.55988">
        <ele>983.1</ele>
        <time>2022-08-12T11:27:44.000Z</time>
      </trkpt>
      <trkpt lat="45.10043" lon="5.55993">
        <ele>983.2</ele>
        <time>2022-08-12T11:27:45.000Z</time>
      </trkpt>
      <trkpt lat="45.10046" lon="5.55996">
        <ele>983.3</ele>
        <time>2022-08-12T11:27:46.000Z</time>
      </trkpt>
      <trkpt lat="45.10052" lon="5.56002">
        <ele>983.5</ele>
        <time>2022-08-12T11:27:48.000Z</time>
      </trkpt>
      <trkpt lat="45.10055" lon="5.56004">
        <ele>983.7</ele>
        <time>2022-08-12T11:27:49.000Z</time>
      </trkpt>
      <trkpt lat="45.10059" lon="5.56006">
        <ele>983.7</ele>
        <time>2022-08-12T11:27:50.000Z</time>
      </trkpt>
      <trkpt lat="45.10062" lon="5.56009">
        <ele>983.7</ele>
        <time>2022-08-12T11:27:51.000Z</time>
      </trkpt>
      <trkpt lat="45.10065" lon="5.56012">
        <ele>983.7</ele>
        <time>2022-08-12T11:27:52.000Z</time>
      </trkpt>
      <trkpt lat="45.10068" lon="5.56014">
        <ele>983.6</ele>
        <time>2022-08-12T11:27:53.000Z</time>
      </trkpt>
      <trkpt lat="45.1007" lon="5.56016">
        <ele>983.6</ele>
        <time>2022-08-12T11:27:54.000Z</time>
      </trkpt>
      <trkpt lat="45.10074" lon="5.56019">
        <ele>983.5</ele>
        <time>2022-08-12T11:27:55.000Z</time>
      </trkpt>
      <trkpt lat="45.10088" lon="5.56028">
        <ele>983.4</ele>
        <time>2022-08-12T11:27:59.000Z</time>
      </trkpt>
      <trkpt lat="45.10103" lon="5.56039">
        <ele>983.7</ele>
        <time>2022-08-12T11:28:03.000Z</time>
      </trkpt>
      <trkpt lat="45.10124" lon="5.56053">
        <ele>983.3</ele>
        <time>2022-08-12T11:28:09.000Z</time>
      </trkpt>
      <trkpt lat="45.10127" lon="5.56055">
        <ele>983.3</ele>
        <time>2022-08-12T11:28:10.000Z</time>
      </trkpt>
      <trkpt lat="45.1013" lon="5.56057">
        <ele>983.3</ele>
        <time>2022-08-12T11:28:11.000Z</time>
      </trkpt>
      <trkpt lat="45.10133" lon="5.56059">
        <ele>983.4</ele>
        <time>2022-08-12T11:28:12.000Z</time>
      </trkpt>
      <trkpt lat="45.10136" lon="5.56061">
        <ele>983.4</ele>
        <time>2022-08-12T11:28:13.000Z</time>
      </trkpt>
      <trkpt lat="45.10139" lon="5.56063">
        <ele>983.5</ele>
        <time>2022-08-12T11:28:14.000Z</time>
      </trkpt>
      <trkpt lat="45.10143" lon="5.56065">
        <ele>983.6</ele>
        <time>2022-08-12T11:28:15.000Z</time>
      </trkpt>
      <trkpt lat="45.10146" lon="5.56068">
        <ele>983.6</ele>
        <time>2022-08-12T11:28:16.000Z</time>
      </trkpt>
      <trkpt lat="45.10149" lon="5.5607">
        <ele>983.6</ele>
        <time>2022-08-12T11:28:17.000Z</time>
      </trkpt>
      <trkpt lat="45.10152" lon="5.56073">
        <ele>983.6</ele>
        <time>2022-08-12T11:28:18.000Z</time>
      </trkpt>
      <trkpt lat="45.10154" lon="5.56074">
        <ele>983.6</ele>
        <time>2022-08-12T11:28:19.000Z</time>
      </trkpt>
      <trkpt lat="45.10157" lon="5.56076">
        <ele>983.5</ele>
        <time>2022-08-12T11:28:20.000Z</time>
      </trkpt>
      <trkpt lat="45.10159" lon="5.56077">
        <ele>983.5</ele>
        <time>2022-08-12T11:28:21.000Z</time>
      </trkpt>
      <trkpt lat="45.10161" lon="5.56078">
        <ele>983.5</ele>
        <time>2022-08-12T11:28:22.000Z</time>
      </trkpt>
      <trkpt lat="45.1017" lon="5.56084">
        <ele>983.4</ele>
        <time>2022-08-12T11:28:25.000Z</time>
      </trkpt>
      <trkpt lat="45.10173" lon="5.56085">
        <ele>983.6</ele>
        <time>2022-08-12T11:28:26.000Z</time>
      </trkpt>
      <trkpt lat="45.10176" lon="5.56086">
        <ele>983.8</ele>
        <time>2022-08-12T11:28:27.000Z</time>
      </trkpt>
      <trkpt lat="45.10179" lon="5.56087">
        <ele>984.1</ele>
        <time>2022-08-12T11:28:28.000Z</time>
      </trkpt>
      <trkpt lat="45.10182" lon="5.56087">
        <ele>984.4</ele>
        <time>2022-08-12T11:28:29.000Z</time>
      </trkpt>
      <trkpt lat="45.10185" lon="5.56088">
        <ele>984.6</ele>
        <time>2022-08-12T11:28:30.000Z</time>
      </trkpt>
      <trkpt lat="45.10192" lon="5.56088">
        <ele>985.3</ele>
        <time>2022-08-12T11:28:33.000Z</time>
      </trkpt>
      <trkpt lat="45.10193" lon="5.56087">
        <ele>985.4</ele>
        <time>2022-08-12T11:28:34.000Z</time>
      </trkpt>
      <trkpt lat="45.10194" lon="5.56087">
        <ele>985.5</ele>
        <time>2022-08-12T11:28:35.000Z</time>
      </trkpt>
      <trkpt lat="45.10195" lon="5.56087">
        <ele>985.7</ele>
        <time>2022-08-12T11:28:36.000Z</time>
      </trkpt>
      <trkpt lat="45.10196" lon="5.56086">
        <ele>985.8</ele>
        <time>2022-08-12T11:28:37.000Z</time>
      </trkpt>
      <trkpt lat="45.10197" lon="5.56087">
        <ele>986</ele>
        <time>2022-08-12T11:28:38.000Z</time>
      </trkpt>
      <trkpt lat="45.10201" lon="5.56084">
        <ele>986.7</ele>
        <time>2022-08-12T11:28:41.000Z</time>
      </trkpt>
      <trkpt lat="45.10202" lon="5.56083">
        <ele>986.9</ele>
        <time>2022-08-12T11:28:42.000Z</time>
      </trkpt>
      <trkpt lat="45.10204" lon="5.56082">
        <ele>987.2</ele>
        <time>2022-08-12T11:28:43.000Z</time>
      </trkpt>
      <trkpt lat="45.10205" lon="5.56082">
        <ele>987.3</ele>
        <time>2022-08-12T11:28:44.000Z</time>
      </trkpt>
      <trkpt lat="45.10205" lon="5.56083">
        <ele>987.2</ele>
        <time>2022-08-12T11:28:45.000Z</time>
      </trkpt>
      <trkpt lat="45.10206" lon="5.56083">
        <ele>987.2</ele>
        <time>2022-08-12T11:28:46.000Z</time>
      </trkpt>
      <trkpt lat="45.10207" lon="5.56084">
        <ele>987.3</ele>
        <time>2022-08-12T11:28:47.000Z</time>
      </trkpt>
      <trkpt lat="45.10209" lon="5.56084">
        <ele>987.4</ele>
        <time>2022-08-12T11:28:48.000Z</time>
      </trkpt>
      <trkpt lat="45.1021" lon="5.56084">
        <ele>987.6</ele>
        <time>2022-08-12T11:28:49.000Z</time>
      </trkpt>
      <trkpt lat="45.10211" lon="5.56084">
        <ele>987.7</ele>
        <time>2022-08-12T11:28:50.000Z</time>
      </trkpt>
      <trkpt lat="45.10213" lon="5.56084">
        <ele>987.9</ele>
        <time>2022-08-12T11:28:51.000Z</time>
      </trkpt>
      <trkpt lat="45.10214" lon="5.56084">
        <ele>988.1</ele>
        <time>2022-08-12T11:28:52.000Z</time>
      </trkpt>
      <trkpt lat="45.10215" lon="5.56083">
        <ele>988.2</ele>
        <time>2022-08-12T11:28:53.000Z</time>
      </trkpt>
      <trkpt lat="45.10216" lon="5.56083">
        <ele>988.3</ele>
        <time>2022-08-12T11:28:54.000Z</time>
      </trkpt>
      <trkpt lat="45.10217" lon="5.56084">
        <ele>988.4</ele>
        <time>2022-08-12T11:28:55.000Z</time>
      </trkpt>
      <trkpt lat="45.10218" lon="5.56084">
        <ele>988.6</ele>
        <time>2022-08-12T11:28:56.000Z</time>
      </trkpt>
      <trkpt lat="45.10219" lon="5.56084">
        <ele>988.6</ele>
        <time>2022-08-12T11:28:57.000Z</time>
      </trkpt>
      <trkpt lat="45.10221" lon="5.56084">
        <ele>988.7</ele>
        <time>2022-08-12T11:28:58.000Z</time>
      </trkpt>
      <trkpt lat="45.10222" lon="5.56085">
        <ele>988.7</ele>
        <time>2022-08-12T11:28:59.000Z</time>
      </trkpt>
      <trkpt lat="45.10222" lon="5.56086">
        <ele>988.6</ele>
        <time>2022-08-12T11:29:00.000Z</time>
      </trkpt>
      <trkpt lat="45.10223" lon="5.56086">
        <ele>988.6</ele>
        <time>2022-08-12T11:29:01.000Z</time>
      </trkpt>
      <trkpt lat="45.10224" lon="5.56086">
        <ele>988.7</ele>
        <time>2022-08-12T11:29:02.000Z</time>
      </trkpt>
      <trkpt lat="45.10226" lon="5.56086">
        <ele>988.8</ele>
        <time>2022-08-12T11:29:03.000Z</time>
      </trkpt>
      <trkpt lat="45.10227" lon="5.56086">
        <ele>988.8</ele>
        <time>2022-08-12T11:29:04.000Z</time>
      </trkpt>
      <trkpt lat="45.10228" lon="5.56086">
        <ele>988.8</ele>
        <time>2022-08-12T11:29:05.000Z</time>
      </trkpt>
      <trkpt lat="45.10229" lon="5.56086">
        <ele>988.9</ele>
        <time>2022-08-12T11:29:07.000Z</time>
      </trkpt>
      <trkpt lat="45.1023" lon="5.56085">
        <ele>989.1</ele>
        <time>2022-08-12T11:29:08.000Z</time>
      </trkpt>
      <trkpt lat="45.10232" lon="5.56084">
        <ele>989.3</ele>
        <time>2022-08-12T11:29:09.000Z</time>
      </trkpt>
      <trkpt lat="45.10233" lon="5.56083">
        <ele>989.5</ele>
        <time>2022-08-12T11:29:10.000Z</time>
      </trkpt>
      <trkpt lat="45.10234" lon="5.56081">
        <ele>989.8</ele>
        <time>2022-08-12T11:29:11.000Z</time>
      </trkpt>
      <trkpt lat="45.10235" lon="5.56081">
        <ele>989.9</ele>
        <time>2022-08-12T11:29:12.000Z</time>
      </trkpt>
      <trkpt lat="45.10236" lon="5.56081">
        <ele>989.9</ele>
        <time>2022-08-12T11:29:14.000Z</time>
      </trkpt>
      <trkpt lat="45.10237" lon="5.56081">
        <ele>990</ele>
        <time>2022-08-12T11:29:15.000Z</time>
      </trkpt>
      <trkpt lat="45.10237" lon="5.5608">
        <ele>990</ele>
        <time>2022-08-12T11:29:16.000Z</time>
      </trkpt>
      <trkpt lat="45.10238" lon="5.56079">
        <ele>990.2</ele>
        <time>2022-08-12T11:29:17.000Z</time>
      </trkpt>
      <trkpt lat="45.10239" lon="5.56078">
        <ele>990.4</ele>
        <time>2022-08-12T11:29:18.000Z</time>
      </trkpt>
      <trkpt lat="45.10241" lon="5.56077">
        <ele>990.6</ele>
        <time>2022-08-12T11:29:19.000Z</time>
      </trkpt>
      <trkpt lat="45.10243" lon="5.56077">
        <ele>990.7</ele>
        <time>2022-08-12T11:29:20.000Z</time>
      </trkpt>
      <trkpt lat="45.10244" lon="5.56076">
        <ele>990.9</ele>
        <time>2022-08-12T11:29:21.000Z</time>
      </trkpt>
      <trkpt lat="45.10246" lon="5.56075">
        <ele>991</ele>
        <time>2022-08-12T11:29:22.000Z</time>
      </trkpt>
      <trkpt lat="45.10247" lon="5.56075">
        <ele>991.1</ele>
        <time>2022-08-12T11:29:23.000Z</time>
      </trkpt>
      <trkpt lat="45.10248" lon="5.56075">
        <ele>991.1</ele>
        <time>2022-08-12T11:29:24.000Z</time>
      </trkpt>
      <trkpt lat="45.10249" lon="5.56075">
        <ele>991.2</ele>
        <time>2022-08-12T11:29:25.000Z</time>
      </trkpt>
      <trkpt lat="45.1025" lon="5.56074">
        <ele>991.3</ele>
        <time>2022-08-12T11:29:26.000Z</time>
      </trkpt>
      <trkpt lat="45.1025" lon="5.56073">
        <ele>991.5</ele>
        <time>2022-08-12T11:29:27.000Z</time>
      </trkpt>
      <trkpt lat="45.10251" lon="5.56073">
        <ele>991.7</ele>
        <time>2022-08-12T11:29:28.000Z</time>
      </trkpt>
      <trkpt lat="45.10252" lon="5.56072">
        <ele>991.8</ele>
        <time>2022-08-12T11:29:29.000Z</time>
      </trkpt>
      <trkpt lat="45.10252" lon="5.56071">
        <ele>992.1</ele>
        <time>2022-08-12T11:29:30.000Z</time>
      </trkpt>
      <trkpt lat="45.10253" lon="5.56069">
        <ele>992.3</ele>
        <time>2022-08-12T11:29:31.000Z</time>
      </trkpt>
      <trkpt lat="45.10253" lon="5.56068">
        <ele>992.6</ele>
        <time>2022-08-12T11:29:32.000Z</time>
      </trkpt>
      <trkpt lat="45.10254" lon="5.56067">
        <ele>992.8</ele>
        <time>2022-08-12T11:29:33.000Z</time>
      </trkpt>
      <trkpt lat="45.10255" lon="5.56066">
        <ele>993.1</ele>
        <time>2022-08-12T11:29:34.000Z</time>
      </trkpt>
      <trkpt lat="45.10255" lon="5.56065">
        <ele>993.2</ele>
        <time>2022-08-12T11:29:35.000Z</time>
      </trkpt>
      <trkpt lat="45.10255" lon="5.56063">
        <ele>993.4</ele>
        <time>2022-08-12T11:29:37.000Z</time>
      </trkpt>
      <trkpt lat="45.10254" lon="5.56062">
        <ele>993.6</ele>
        <time>2022-08-12T11:29:38.000Z</time>
      </trkpt>
      <trkpt lat="45.10254" lon="5.5606">
        <ele>993.8</ele>
        <time>2022-08-12T11:29:39.000Z</time>
      </trkpt>
      <trkpt lat="45.10254" lon="5.56059">
        <ele>994</ele>
        <time>2022-08-12T11:29:40.000Z</time>
      </trkpt>
      <trkpt lat="45.10254" lon="5.56057">
        <ele>994.3</ele>
        <time>2022-08-12T11:29:41.000Z</time>
      </trkpt>
      <trkpt lat="45.10255" lon="5.56055">
        <ele>994.6</ele>
        <time>2022-08-12T11:29:42.000Z</time>
      </trkpt>
      <trkpt lat="45.10255" lon="5.56054">
        <ele>994.7</ele>
        <time>2022-08-12T11:29:43.000Z</time>
      </trkpt>
      <trkpt lat="45.10255" lon="5.56053">
        <ele>994.9</ele>
        <time>2022-08-12T11:29:44.000Z</time>
      </trkpt>
      <trkpt lat="45.10255" lon="5.56051">
        <ele>995.1</ele>
        <time>2022-08-12T11:29:45.000Z</time>
      </trkpt>
      <trkpt lat="45.10255" lon="5.5605">
        <ele>995.4</ele>
        <time>2022-08-12T11:29:46.000Z</time>
      </trkpt>
      <trkpt lat="45.10254" lon="5.56048">
        <ele>995.5</ele>
        <time>2022-08-12T11:29:47.000Z</time>
      </trkpt>
      <trkpt lat="45.10254" lon="5.56047">
        <ele>995.7</ele>
        <time>2022-08-12T11:29:48.000Z</time>
      </trkpt>
      <trkpt lat="45.10253" lon="5.56045">
        <ele>995.9</ele>
        <time>2022-08-12T11:29:49.000Z</time>
      </trkpt>
      <trkpt lat="45.10253" lon="5.56043">
        <ele>996.1</ele>
        <time>2022-08-12T11:29:50.000Z</time>
      </trkpt>
      <trkpt lat="45.10253" lon="5.56041">
        <ele>996.4</ele>
        <time>2022-08-12T11:29:51.000Z</time>
      </trkpt>
      <trkpt lat="45.10253" lon="5.56039">
        <ele>996.7</ele>
        <time>2022-08-12T11:29:52.000Z</time>
      </trkpt>
      <trkpt lat="45.10253" lon="5.56038">
        <ele>996.9</ele>
        <time>2022-08-12T11:29:53.000Z</time>
      </trkpt>
      <trkpt lat="45.10253" lon="5.56036">
        <ele>997.1</ele>
        <time>2022-08-12T11:29:54.000Z</time>
      </trkpt>
      <trkpt lat="45.10253" lon="5.56035">
        <ele>997.3</ele>
        <time>2022-08-12T11:29:55.000Z</time>
      </trkpt>
      <trkpt lat="45.10253" lon="5.56034">
        <ele>997.5</ele>
        <time>2022-08-12T11:29:56.000Z</time>
      </trkpt>
      <trkpt lat="45.10253" lon="5.56032">
        <ele>997.7</ele>
        <time>2022-08-12T11:29:57.000Z</time>
      </trkpt>
      <trkpt lat="45.10253" lon="5.56031">
        <ele>997.8</ele>
        <time>2022-08-12T11:29:58.000Z</time>
      </trkpt>
      <trkpt lat="45.10252" lon="5.5603">
        <ele>998</ele>
        <time>2022-08-12T11:29:59.000Z</time>
      </trkpt>
      <trkpt lat="45.10252" lon="5.56029">
        <ele>998</ele>
        <time>2022-08-12T11:30:00.000Z</time>
      </trkpt>
      <trkpt lat="45.10251" lon="5.56028">
        <ele>998</ele>
        <time>2022-08-12T11:30:02.000Z</time>
      </trkpt>
      <trkpt lat="45.1025" lon="5.56028">
        <ele>998</ele>
        <time>2022-08-12T11:30:03.000Z</time>
      </trkpt>
      <trkpt lat="45.10249" lon="5.56027">
        <ele>998.1</ele>
        <time>2022-08-12T11:30:04.000Z</time>
      </trkpt>
      <trkpt lat="45.10249" lon="5.56026">
        <ele>998.2</ele>
        <time>2022-08-12T11:30:05.000Z</time>
      </trkpt>
      <trkpt lat="45.10249" lon="5.56025">
        <ele>998.3</ele>
        <time>2022-08-12T11:30:06.000Z</time>
      </trkpt>
      <trkpt lat="45.10249" lon="5.56023">
        <ele>998.6</ele>
        <time>2022-08-12T11:30:07.000Z</time>
      </trkpt>
      <trkpt lat="45.10249" lon="5.56021">
        <ele>998.7</ele>
        <time>2022-08-12T11:30:08.000Z</time>
      </trkpt>
      <trkpt lat="45.10248" lon="5.5602">
        <ele>998.9</ele>
        <time>2022-08-12T11:30:09.000Z</time>
      </trkpt>
      <trkpt lat="45.10247" lon="5.56019">
        <ele>999</ele>
        <time>2022-08-12T11:30:10.000Z</time>
      </trkpt>
      <trkpt lat="45.10246" lon="5.56018">
        <ele>999</ele>
        <time>2022-08-12T11:30:11.000Z</time>
      </trkpt>
      <trkpt lat="45.10245" lon="5.56018">
        <ele>999</ele>
        <time>2022-08-12T11:30:12.000Z</time>
      </trkpt>
      <trkpt lat="45.10244" lon="5.56017">
        <ele>999.1</ele>
        <time>2022-08-12T11:30:13.000Z</time>
      </trkpt>
      <trkpt lat="45.10244" lon="5.56016">
        <ele>999.3</ele>
        <time>2022-08-12T11:30:14.000Z</time>
      </trkpt>
      <trkpt lat="45.10244" lon="5.56014">
        <ele>999.4</ele>
        <time>2022-08-12T11:30:15.000Z</time>
      </trkpt>
      <trkpt lat="45.10243" lon="5.56013">
        <ele>999.6</ele>
        <time>2022-08-12T11:30:16.000Z</time>
      </trkpt>
      <trkpt lat="45.10242" lon="5.56012">
        <ele>999.7</ele>
        <time>2022-08-12T11:30:17.000Z</time>
      </trkpt>
      <trkpt lat="45.1024" lon="5.56011">
        <ele>999.8</ele>
        <time>2022-08-12T11:30:18.000Z</time>
      </trkpt>
      <trkpt lat="45.10239" lon="5.56011">
        <ele>999.8</ele>
        <time>2022-08-12T11:30:19.000Z</time>
      </trkpt>
      <trkpt lat="45.10238" lon="5.56011">
        <ele>999.8</ele>
        <time>2022-08-12T11:30:20.000Z</time>
      </trkpt>
      <trkpt lat="45.10237" lon="5.5601">
        <ele>999.9</ele>
        <time>2022-08-12T11:30:21.000Z</time>
      </trkpt>
      <trkpt lat="45.10236" lon="5.5601">
        <ele>1000</ele>
        <time>2022-08-12T11:30:22.000Z</time>
      </trkpt>
      <trkpt lat="45.10236" lon="5.56008">
        <ele>1000.1</ele>
        <time>2022-08-12T11:30:23.000Z</time>
      </trkpt>
      <trkpt lat="45.10235" lon="5.56008">
        <ele>1000.2</ele>
        <time>2022-08-12T11:30:24.000Z</time>
      </trkpt>
      <trkpt lat="45.10234" lon="5.56007">
        <ele>1000.3</ele>
        <time>2022-08-12T11:30:25.000Z</time>
      </trkpt>
      <trkpt lat="45.10234" lon="5.56006">
        <ele>1000.4</ele>
        <time>2022-08-12T11:30:26.000Z</time>
      </trkpt>
      <trkpt lat="45.10233" lon="5.56005">
        <ele>1000.4</ele>
        <time>2022-08-12T11:30:27.000Z</time>
      </trkpt>
      <trkpt lat="45.10232" lon="5.56005">
        <ele>1000.5</ele>
        <time>2022-08-12T11:30:28.000Z</time>
      </trkpt>
      <trkpt lat="45.10231" lon="5.56003">
        <ele>1000.6</ele>
        <time>2022-08-12T11:30:29.000Z</time>
      </trkpt>
      <trkpt lat="45.1023" lon="5.56003">
        <ele>1000.7</ele>
        <time>2022-08-12T11:30:31.000Z</time>
      </trkpt>
      <trkpt lat="45.10228" lon="5.56003">
        <ele>1000.7</ele>
        <time>2022-08-12T11:30:32.000Z</time>
      </trkpt>
      <trkpt lat="45.10228" lon="5.56002">
        <ele>1000.8</ele>
        <time>2022-08-12T11:30:33.000Z</time>
      </trkpt>
      <trkpt lat="45.10227" lon="5.56002">
        <ele>1000.8</ele>
        <time>2022-08-12T11:30:34.000Z</time>
      </trkpt>
      <trkpt lat="45.10226" lon="5.56001">
        <ele>1000.9</ele>
        <time>2022-08-12T11:30:35.000Z</time>
      </trkpt>
      <trkpt lat="45.10225" lon="5.56">
        <ele>1001</ele>
        <time>2022-08-12T11:30:36.000Z</time>
      </trkpt>
      <trkpt lat="45.10225" lon="5.55999">
        <ele>1001.2</ele>
        <time>2022-08-12T11:30:37.000Z</time>
      </trkpt>
      <trkpt lat="45.10225" lon="5.55997">
        <ele>1001.4</ele>
        <time>2022-08-12T11:30:38.000Z</time>
      </trkpt>
      <trkpt lat="45.10225" lon="5.55995">
        <ele>1001.7</ele>
        <time>2022-08-12T11:30:39.000Z</time>
      </trkpt>
      <trkpt lat="45.10226" lon="5.55993">
        <ele>1001.9</ele>
        <time>2022-08-12T11:30:40.000Z</time>
      </trkpt>
      <trkpt lat="45.10226" lon="5.55992">
        <ele>1002</ele>
        <time>2022-08-12T11:30:41.000Z</time>
      </trkpt>
      <trkpt lat="45.10226" lon="5.55991">
        <ele>1002.2</ele>
        <time>2022-08-12T11:30:42.000Z</time>
      </trkpt>
      <trkpt lat="45.10227" lon="5.5599">
        <ele>1002.4</ele>
        <time>2022-08-12T11:30:43.000Z</time>
      </trkpt>
      <trkpt lat="45.10226" lon="5.55988">
        <ele>1002.6</ele>
        <time>2022-08-12T11:30:44.000Z</time>
      </trkpt>
      <trkpt lat="45.10226" lon="5.55987">
        <ele>1002.8</ele>
        <time>2022-08-12T11:30:45.000Z</time>
      </trkpt>
      <trkpt lat="45.10225" lon="5.55986">
        <ele>1002.9</ele>
        <time>2022-08-12T11:30:46.000Z</time>
      </trkpt>
      <trkpt lat="45.10224" lon="5.55985">
        <ele>1003</ele>
        <time>2022-08-12T11:30:47.000Z</time>
      </trkpt>
      <trkpt lat="45.10224" lon="5.55983">
        <ele>1003.3</ele>
        <time>2022-08-12T11:30:48.000Z</time>
      </trkpt>
      <trkpt lat="45.10224" lon="5.55981">
        <ele>1003.6</ele>
        <time>2022-08-12T11:30:49.000Z</time>
      </trkpt>
      <trkpt lat="45.10225" lon="5.5598">
        <ele>1003.8</ele>
        <time>2022-08-12T11:30:50.000Z</time>
      </trkpt>
      <trkpt lat="45.10225" lon="5.55978">
        <ele>1004</ele>
        <time>2022-08-12T11:30:51.000Z</time>
      </trkpt>
      <trkpt lat="45.10226" lon="5.55977">
        <ele>1004.1</ele>
        <time>2022-08-12T11:30:52.000Z</time>
      </trkpt>
      <trkpt lat="45.10225" lon="5.55976">
        <ele>1004.3</ele>
        <time>2022-08-12T11:30:53.000Z</time>
      </trkpt>
      <trkpt lat="45.10225" lon="5.55975">
        <ele>1004.4</ele>
        <time>2022-08-12T11:30:54.000Z</time>
      </trkpt>
      <trkpt lat="45.10224" lon="5.55974">
        <ele>1004.6</ele>
        <time>2022-08-12T11:30:55.000Z</time>
      </trkpt>
      <trkpt lat="45.10224" lon="5.55973">
        <ele>1004.8</ele>
        <time>2022-08-12T11:30:56.000Z</time>
      </trkpt>
      <trkpt lat="45.10223" lon="5.55971">
        <ele>1005.1</ele>
        <time>2022-08-12T11:30:57.000Z</time>
      </trkpt>
      <trkpt lat="45.10224" lon="5.5597">
        <ele>1005.2</ele>
        <time>2022-08-12T11:30:58.000Z</time>
      </trkpt>
      <trkpt lat="45.10224" lon="5.55968">
        <ele>1005.4</ele>
        <time>2022-08-12T11:30:59.000Z</time>
      </trkpt>
      <trkpt lat="45.10224" lon="5.55967">
        <ele>1005.7</ele>
        <time>2022-08-12T11:31:00.000Z</time>
      </trkpt>
      <trkpt lat="45.10224" lon="5.55965">
        <ele>1005.8</ele>
        <time>2022-08-12T11:31:01.000Z</time>
      </trkpt>
      <trkpt lat="45.10225" lon="5.55964">
        <ele>1006</ele>
        <time>2022-08-12T11:31:02.000Z</time>
      </trkpt>
      <trkpt lat="45.10224" lon="5.55962">
        <ele>1006.3</ele>
        <time>2022-08-12T11:31:03.000Z</time>
      </trkpt>
      <trkpt lat="45.10224" lon="5.55961">
        <ele>1006.6</ele>
        <time>2022-08-12T11:31:04.000Z</time>
      </trkpt>
      <trkpt lat="45.10224" lon="5.55959">
        <ele>1006.8</ele>
        <time>2022-08-12T11:31:05.000Z</time>
      </trkpt>
      <trkpt lat="45.10223" lon="5.55958">
        <ele>1007</ele>
        <time>2022-08-12T11:31:06.000Z</time>
      </trkpt>
      <trkpt lat="45.10223" lon="5.55956">
        <ele>1007.2</ele>
        <time>2022-08-12T11:31:07.000Z</time>
      </trkpt>
      <trkpt lat="45.10223" lon="5.55955">
        <ele>1007.4</ele>
        <time>2022-08-12T11:31:08.000Z</time>
      </trkpt>
      <trkpt lat="45.10223" lon="5.55953">
        <ele>1007.7</ele>
        <time>2022-08-12T11:31:09.000Z</time>
      </trkpt>
      <trkpt lat="45.10223" lon="5.55952">
        <ele>1007.8</ele>
        <time>2022-08-12T11:31:10.000Z</time>
      </trkpt>
      <trkpt lat="45.10223" lon="5.5595">
        <ele>1008.1</ele>
        <time>2022-08-12T11:31:11.000Z</time>
      </trkpt>
      <trkpt lat="45.10223" lon="5.55949">
        <ele>1008.3</ele>
        <time>2022-08-12T11:31:12.000Z</time>
      </trkpt>
      <trkpt lat="45.10223" lon="5.55947">
        <ele>1008.5</ele>
        <time>2022-08-12T11:31:13.000Z</time>
      </trkpt>
      <trkpt lat="45.10223" lon="5.55945">
        <ele>1008.8</ele>
        <time>2022-08-12T11:31:14.000Z</time>
      </trkpt>
      <trkpt lat="45.10224" lon="5.55943">
        <ele>1009</ele>
        <time>2022-08-12T11:31:15.000Z</time>
      </trkpt>
      <trkpt lat="45.10225" lon="5.55942">
        <ele>1009.1</ele>
        <time>2022-08-12T11:31:16.000Z</time>
      </trkpt>
      <trkpt lat="45.10226" lon="5.55942">
        <ele>1009.2</ele>
        <time>2022-08-12T11:31:17.000Z</time>
      </trkpt>
      <trkpt lat="45.10227" lon="5.55941">
        <ele>1009.2</ele>
        <time>2022-08-12T11:31:18.000Z</time>
      </trkpt>
      <trkpt lat="45.10228" lon="5.55941">
        <ele>1009.3</ele>
        <time>2022-08-12T11:31:19.000Z</time>
      </trkpt>
      <trkpt lat="45.10229" lon="5.5594">
        <ele>1009.4</ele>
        <time>2022-08-12T11:31:20.000Z</time>
      </trkpt>
      <trkpt lat="45.1023" lon="5.55939">
        <ele>1009.4</ele>
        <time>2022-08-12T11:31:21.000Z</time>
      </trkpt>
      <trkpt lat="45.10231" lon="5.55938">
        <ele>1009.4</ele>
        <time>2022-08-12T11:31:22.000Z</time>
      </trkpt>
      <trkpt lat="45.10232" lon="5.55937">
        <ele>1009.5</ele>
        <time>2022-08-12T11:31:23.000Z</time>
      </trkpt>
      <trkpt lat="45.10233" lon="5.55937">
        <ele>1009.6</ele>
        <time>2022-08-12T11:31:24.000Z</time>
      </trkpt>
      <trkpt lat="45.10234" lon="5.55936">
        <ele>1009.7</ele>
        <time>2022-08-12T11:31:25.000Z</time>
      </trkpt>
      <trkpt lat="45.10234" lon="5.55935">
        <ele>1009.8</ele>
        <time>2022-08-12T11:31:26.000Z</time>
      </trkpt>
      <trkpt lat="45.10235" lon="5.55934">
        <ele>1009.9</ele>
        <time>2022-08-12T11:31:27.000Z</time>
      </trkpt>
      <trkpt lat="45.10236" lon="5.55933">
        <ele>1010.1</ele>
        <time>2022-08-12T11:31:28.000Z</time>
      </trkpt>
      <trkpt lat="45.10236" lon="5.55932">
        <ele>1010.3</ele>
        <time>2022-08-12T11:31:29.000Z</time>
      </trkpt>
      <trkpt lat="45.10237" lon="5.5593">
        <ele>1010.5</ele>
        <time>2022-08-12T11:31:30.000Z</time>
      </trkpt>
      <trkpt lat="45.10238" lon="5.55929">
        <ele>1010.6</ele>
        <time>2022-08-12T11:31:31.000Z</time>
      </trkpt>
      <trkpt lat="45.10239" lon="5.55928">
        <ele>1010.8</ele>
        <time>2022-08-12T11:31:32.000Z</time>
      </trkpt>
      <trkpt lat="45.1024" lon="5.55927">
        <ele>1010.8</ele>
        <time>2022-08-12T11:31:33.000Z</time>
      </trkpt>
      <trkpt lat="45.10242" lon="5.55926">
        <ele>1010.9</ele>
        <time>2022-08-12T11:31:35.000Z</time>
      </trkpt>
      <trkpt lat="45.10244" lon="5.55925">
        <ele>1011</ele>
        <time>2022-08-12T11:31:36.000Z</time>
      </trkpt>
      <trkpt lat="45.10245" lon="5.55924">
        <ele>1011.1</ele>
        <time>2022-08-12T11:31:37.000Z</time>
      </trkpt>
      <trkpt lat="45.10246" lon="5.55922">
        <ele>1011.3</ele>
        <time>2022-08-12T11:31:38.000Z</time>
      </trkpt>
      <trkpt lat="45.10246" lon="5.55921">
        <ele>1011.5</ele>
        <time>2022-08-12T11:31:39.000Z</time>
      </trkpt>
      <trkpt lat="45.10247" lon="5.5592">
        <ele>1011.6</ele>
        <time>2022-08-12T11:31:40.000Z</time>
      </trkpt>
      <trkpt lat="45.10248" lon="5.55919">
        <ele>1011.8</ele>
        <time>2022-08-12T11:31:41.000Z</time>
      </trkpt>
      <trkpt lat="45.10249" lon="5.55917">
        <ele>1011.9</ele>
        <time>2022-08-12T11:31:42.000Z</time>
      </trkpt>
      <trkpt lat="45.1025" lon="5.55916">
        <ele>1012</ele>
        <time>2022-08-12T11:31:43.000Z</time>
      </trkpt>
      <trkpt lat="45.10252" lon="5.55915">
        <ele>1012.1</ele>
        <time>2022-08-12T11:31:44.000Z</time>
      </trkpt>
      <trkpt lat="45.10253" lon="5.55912">
        <ele>1012.2</ele>
        <time>2022-08-12T11:31:45.000Z</time>
      </trkpt>
      <trkpt lat="45.10254" lon="5.5591">
        <ele>1012.5</ele>
        <time>2022-08-12T11:31:46.000Z</time>
      </trkpt>
      <trkpt lat="45.10254" lon="5.55908">
        <ele>1012.7</ele>
        <time>2022-08-12T11:31:47.000Z</time>
      </trkpt>
      <trkpt lat="45.10256" lon="5.55906">
        <ele>1012.8</ele>
        <time>2022-08-12T11:31:48.000Z</time>
      </trkpt>
      <trkpt lat="45.10257" lon="5.55905">
        <ele>1012.9</ele>
        <time>2022-08-12T11:31:49.000Z</time>
      </trkpt>
      <trkpt lat="45.10258" lon="5.55903">
        <ele>1013.1</ele>
        <time>2022-08-12T11:31:50.000Z</time>
      </trkpt>
      <trkpt lat="45.10258" lon="5.55901">
        <ele>1013.3</ele>
        <time>2022-08-12T11:31:51.000Z</time>
      </trkpt>
      <trkpt lat="45.10259" lon="5.55898">
        <ele>1013.6</ele>
        <time>2022-08-12T11:31:52.000Z</time>
      </trkpt>
      <trkpt lat="45.10264" lon="5.55883">
        <ele>1015</ele>
        <time>2022-08-12T11:31:58.000Z</time>
      </trkpt>
      <trkpt lat="45.10272" lon="5.55868">
        <ele>1015.8</ele>
        <time>2022-08-12T11:32:04.000Z</time>
      </trkpt>
      <trkpt lat="45.10276" lon="5.55862">
        <ele>1016.1</ele>
        <time>2022-08-12T11:32:07.000Z</time>
      </trkpt>
      <trkpt lat="45.1028" lon="5.55856">
        <ele>1016.2</ele>
        <time>2022-08-12T11:32:10.000Z</time>
      </trkpt>
      <trkpt lat="45.10281" lon="5.55854">
        <ele>1016.2</ele>
        <time>2022-08-12T11:32:11.000Z</time>
      </trkpt>
      <trkpt lat="45.10282" lon="5.55852">
        <ele>1016.3</ele>
        <time>2022-08-12T11:32:12.000Z</time>
      </trkpt>
      <trkpt lat="45.10282" lon="5.55849">
        <ele>1016.4</ele>
        <time>2022-08-12T11:32:13.000Z</time>
      </trkpt>
      <trkpt lat="45.10284" lon="5.55847">
        <ele>1016.4</ele>
        <time>2022-08-12T11:32:14.000Z</time>
      </trkpt>
      <trkpt lat="45.10285" lon="5.55846">
        <ele>1016.3</ele>
        <time>2022-08-12T11:32:15.000Z</time>
      </trkpt>
      <trkpt lat="45.10287" lon="5.55845">
        <ele>1016.2</ele>
        <time>2022-08-12T11:32:16.000Z</time>
      </trkpt>
      <trkpt lat="45.10289" lon="5.55842">
        <ele>1016.1</ele>
        <time>2022-08-12T11:32:18.000Z</time>
      </trkpt>
      <trkpt lat="45.10291" lon="5.55841">
        <ele>1016.1</ele>
        <time>2022-08-12T11:32:19.000Z</time>
      </trkpt>
      <trkpt lat="45.10292" lon="5.5584">
        <ele>1016</ele>
        <time>2022-08-12T11:32:20.000Z</time>
      </trkpt>
      <trkpt lat="45.10293" lon="5.55838">
        <ele>1016.1</ele>
        <time>2022-08-12T11:32:21.000Z</time>
      </trkpt>
      <trkpt lat="45.10293" lon="5.55837">
        <ele>1016.1</ele>
        <time>2022-08-12T11:32:22.000Z</time>
      </trkpt>
      <trkpt lat="45.10292" lon="5.55838">
        <ele>1016.2</ele>
        <time>2022-08-12T11:32:29.000Z</time>
      </trkpt>
      <trkpt lat="45.1029" lon="5.55839">
        <ele>1016.2</ele>
        <time>2022-08-12T11:32:31.000Z</time>
      </trkpt>
      <trkpt lat="45.1029" lon="5.5584">
        <ele>1016.3</ele>
        <time>2022-08-12T11:32:32.000Z</time>
      </trkpt>
      <trkpt lat="45.10289" lon="5.5584">
        <ele>1016.3</ele>
        <time>2022-08-12T11:32:43.000Z</time>
      </trkpt>
      <trkpt lat="45.10292" lon="5.55839">
        <ele>1016.1</ele>
        <time>2022-08-12T11:34:39.000Z</time>
      </trkpt>
      <trkpt lat="45.10292" lon="5.55838">
        <ele>1016.2</ele>
        <time>2022-08-12T11:34:40.000Z</time>
      </trkpt>
      <trkpt lat="45.10297" lon="5.5583">
        <ele>1016.3</ele>
        <time>2022-08-12T11:34:47.000Z</time>
      </trkpt>
      <trkpt lat="45.10298" lon="5.55828">
        <ele>1016.4</ele>
        <time>2022-08-12T11:34:48.000Z</time>
      </trkpt>
      <trkpt lat="45.10299" lon="5.55823">
        <ele>1016.6</ele>
        <time>2022-08-12T11:34:50.000Z</time>
      </trkpt>
      <trkpt lat="45.103" lon="5.5582">
        <ele>1016.9</ele>
        <time>2022-08-12T11:34:52.000Z</time>
      </trkpt>
      <trkpt lat="45.103" lon="5.55818">
        <ele>1017</ele>
        <time>2022-08-12T11:34:53.000Z</time>
      </trkpt>
      <trkpt lat="45.10301" lon="5.55817">
        <ele>1017.1</ele>
        <time>2022-08-12T11:34:54.000Z</time>
      </trkpt>
      <trkpt lat="45.10302" lon="5.55812">
        <ele>1017.5</ele>
        <time>2022-08-12T11:34:56.000Z</time>
      </trkpt>
      <trkpt lat="45.10308" lon="5.55796">
        <ele>1018.5</ele>
        <time>2022-08-12T11:35:03.000Z</time>
      </trkpt>
      <trkpt lat="45.1031" lon="5.55789">
        <ele>1019</ele>
        <time>2022-08-12T11:35:06.000Z</time>
      </trkpt>
      <trkpt lat="45.10311" lon="5.55779">
        <ele>1019.7</ele>
        <time>2022-08-12T11:35:10.000Z</time>
      </trkpt>
      <trkpt lat="45.10313" lon="5.55772">
        <ele>1019.9</ele>
        <time>2022-08-12T11:35:13.000Z</time>
      </trkpt>
      <trkpt lat="45.10314" lon="5.55768">
        <ele>1020.1</ele>
        <time>2022-08-12T11:35:15.000Z</time>
      </trkpt>
      <trkpt lat="45.10315" lon="5.55758">
        <ele>1020.4</ele>
        <time>2022-08-12T11:35:19.000Z</time>
      </trkpt>
      <trkpt lat="45.10315" lon="5.55755">
        <ele>1020.5</ele>
        <time>2022-08-12T11:35:20.000Z</time>
      </trkpt>
      <trkpt lat="45.10316" lon="5.55752">
        <ele>1020.6</ele>
        <time>2022-08-12T11:35:21.000Z</time>
      </trkpt>
      <trkpt lat="45.10316" lon="5.55749">
        <ele>1020.6</ele>
        <time>2022-08-12T11:35:22.000Z</time>
      </trkpt>
      <trkpt lat="45.10316" lon="5.55746">
        <ele>1020.6</ele>
        <time>2022-08-12T11:35:23.000Z</time>
      </trkpt>
      <trkpt lat="45.10316" lon="5.55743">
        <ele>1020.6</ele>
        <time>2022-08-12T11:35:24.000Z</time>
      </trkpt>
      <trkpt lat="45.10316" lon="5.5574">
        <ele>1020.6</ele>
        <time>2022-08-12T11:35:25.000Z</time>
      </trkpt>
      <trkpt lat="45.10316" lon="5.55737">
        <ele>1020.6</ele>
        <time>2022-08-12T11:35:26.000Z</time>
      </trkpt>
      <trkpt lat="45.10316" lon="5.55734">
        <ele>1020.6</ele>
        <time>2022-08-12T11:35:27.000Z</time>
      </trkpt>
      <trkpt lat="45.10316" lon="5.55731">
        <ele>1020.6</ele>
        <time>2022-08-12T11:35:28.000Z</time>
      </trkpt>
      <trkpt lat="45.10316" lon="5.55729">
        <ele>1020.6</ele>
        <time>2022-08-12T11:35:29.000Z</time>
      </trkpt>
      <trkpt lat="45.10316" lon="5.55726">
        <ele>1020.6</ele>
        <time>2022-08-12T11:35:30.000Z</time>
      </trkpt>
      <trkpt lat="45.10317" lon="5.55724">
        <ele>1020.6</ele>
        <time>2022-08-12T11:35:31.000Z</time>
      </trkpt>
      <trkpt lat="45.10319" lon="5.55711">
        <ele>1020.7</ele>
        <time>2022-08-12T11:35:36.000Z</time>
      </trkpt>
      <trkpt lat="45.10324" lon="5.55688">
        <ele>1020.8</ele>
        <time>2022-08-12T11:35:44.000Z</time>
      </trkpt>
      <trkpt lat="45.10327" lon="5.55683">
        <ele>1020.8</ele>
        <time>2022-08-12T11:35:46.000Z</time>
      </trkpt>
      <trkpt lat="45.10339" lon="5.55673">
        <ele>1020.6</ele>
        <time>2022-08-12T11:35:50.000Z</time>
      </trkpt>
      <trkpt lat="45.10344" lon="5.55672">
        <ele>1020.4</ele>
        <time>2022-08-12T11:35:51.000Z</time>
      </trkpt>
      <trkpt lat="45.10349" lon="5.55673">
        <ele>1020.2</ele>
        <time>2022-08-12T11:35:52.000Z</time>
      </trkpt>
      <trkpt lat="45.10355" lon="5.55674">
        <ele>1020</ele>
        <time>2022-08-12T11:35:53.000Z</time>
      </trkpt>
      <trkpt lat="45.1036" lon="5.55676">
        <ele>1019.7</ele>
        <time>2022-08-12T11:35:54.000Z</time>
      </trkpt>
      <trkpt lat="45.10365" lon="5.55679">
        <ele>1019.9</ele>
        <time>2022-08-12T11:35:55.000Z</time>
      </trkpt>
      <trkpt lat="45.1037" lon="5.55682">
        <ele>1020.1</ele>
        <time>2022-08-12T11:35:56.000Z</time>
      </trkpt>
      <trkpt lat="45.10375" lon="5.55685">
        <ele>1020.3</ele>
        <time>2022-08-12T11:35:57.000Z</time>
      </trkpt>
      <trkpt lat="45.10379" lon="5.55689">
        <ele>1020.5</ele>
        <time>2022-08-12T11:35:58.000Z</time>
      </trkpt>
      <trkpt lat="45.10382" lon="5.55692">
        <ele>1020.6</ele>
        <time>2022-08-12T11:35:59.000Z</time>
      </trkpt>
      <trkpt lat="45.10385" lon="5.55695">
        <ele>1020.7</ele>
        <time>2022-08-12T11:36:00.000Z</time>
      </trkpt>
      <trkpt lat="45.10388" lon="5.55698">
        <ele>1020.7</ele>
        <time>2022-08-12T11:36:01.000Z</time>
      </trkpt>
      <trkpt lat="45.10391" lon="5.557">
        <ele>1020.9</ele>
        <time>2022-08-12T11:36:02.000Z</time>
      </trkpt>
      <trkpt lat="45.10393" lon="5.55702">
        <ele>1021</ele>
        <time>2022-08-12T11:36:03.000Z</time>
      </trkpt>
      <trkpt lat="45.10394" lon="5.55704">
        <ele>1021.1</ele>
        <time>2022-08-12T11:36:04.000Z</time>
      </trkpt>
      <trkpt lat="45.10396" lon="5.55705">
        <ele>1021.3</ele>
        <time>2022-08-12T11:36:05.000Z</time>
      </trkpt>
      <trkpt lat="45.10397" lon="5.55706">
        <ele>1021.4</ele>
        <time>2022-08-12T11:36:06.000Z</time>
      </trkpt>
      <trkpt lat="45.10399" lon="5.55707">
        <ele>1021.5</ele>
        <time>2022-08-12T11:36:07.000Z</time>
      </trkpt>
      <trkpt lat="45.104" lon="5.55708">
        <ele>1021.6</ele>
        <time>2022-08-12T11:36:08.000Z</time>
      </trkpt>
      <trkpt lat="45.10401" lon="5.55709">
        <ele>1021.7</ele>
        <time>2022-08-12T11:36:09.000Z</time>
      </trkpt>
      <trkpt lat="45.10402" lon="5.5571">
        <ele>1021.8</ele>
        <time>2022-08-12T11:36:10.000Z</time>
      </trkpt>
      <trkpt lat="45.10405" lon="5.55711">
        <ele>1022.1</ele>
        <time>2022-08-12T11:36:12.000Z</time>
      </trkpt>
      <trkpt lat="45.10406" lon="5.55712">
        <ele>1022.2</ele>
        <time>2022-08-12T11:36:13.000Z</time>
      </trkpt>
      <trkpt lat="45.10407" lon="5.55713">
        <ele>1022.3</ele>
        <time>2022-08-12T11:36:14.000Z</time>
      </trkpt>
      <trkpt lat="45.10408" lon="5.55713">
        <ele>1022.4</ele>
        <time>2022-08-12T11:36:15.000Z</time>
      </trkpt>
      <trkpt lat="45.10409" lon="5.55714">
        <ele>1022.6</ele>
        <time>2022-08-12T11:36:16.000Z</time>
      </trkpt>
      <trkpt lat="45.10411" lon="5.55714">
        <ele>1022.8</ele>
        <time>2022-08-12T11:36:17.000Z</time>
      </trkpt>
      <trkpt lat="45.10412" lon="5.55714">
        <ele>1022.9</ele>
        <time>2022-08-12T11:36:18.000Z</time>
      </trkpt>
      <trkpt lat="45.10413" lon="5.55715">
        <ele>1023.1</ele>
        <time>2022-08-12T11:36:19.000Z</time>
      </trkpt>
      <trkpt lat="45.10415" lon="5.55716">
        <ele>1023.2</ele>
        <time>2022-08-12T11:36:20.000Z</time>
      </trkpt>
      <trkpt lat="45.10416" lon="5.55717">
        <ele>1023.4</ele>
        <time>2022-08-12T11:36:21.000Z</time>
      </trkpt>
      <trkpt lat="45.10418" lon="5.55717">
        <ele>1023.5</ele>
        <time>2022-08-12T11:36:22.000Z</time>
      </trkpt>
      <trkpt lat="45.10419" lon="5.55718">
        <ele>1023.6</ele>
        <time>2022-08-12T11:36:23.000Z</time>
      </trkpt>
      <trkpt lat="45.10421" lon="5.55719">
        <ele>1023.7</ele>
        <time>2022-08-12T11:36:24.000Z</time>
      </trkpt>
      <trkpt lat="45.10422" lon="5.55719">
        <ele>1023.9</ele>
        <time>2022-08-12T11:36:25.000Z</time>
      </trkpt>
      <trkpt lat="45.10424" lon="5.5572">
        <ele>1024</ele>
        <time>2022-08-12T11:36:26.000Z</time>
      </trkpt>
      <trkpt lat="45.10426" lon="5.5572">
        <ele>1024.2</ele>
        <time>2022-08-12T11:36:27.000Z</time>
      </trkpt>
      <trkpt lat="45.10427" lon="5.55721">
        <ele>1024.2</ele>
        <time>2022-08-12T11:36:28.000Z</time>
      </trkpt>
      <trkpt lat="45.10429" lon="5.55722">
        <ele>1024.3</ele>
        <time>2022-08-12T11:36:29.000Z</time>
      </trkpt>
      <trkpt lat="45.1043" lon="5.55722">
        <ele>1024.5</ele>
        <time>2022-08-12T11:36:30.000Z</time>
      </trkpt>
      <trkpt lat="45.10432" lon="5.55722">
        <ele>1024.7</ele>
        <time>2022-08-12T11:36:31.000Z</time>
      </trkpt>
      <trkpt lat="45.10433" lon="5.55722">
        <ele>1024.8</ele>
        <time>2022-08-12T11:36:32.000Z</time>
      </trkpt>
      <trkpt lat="45.10435" lon="5.55722">
        <ele>1025</ele>
        <time>2022-08-12T11:36:33.000Z</time>
      </trkpt>
      <trkpt lat="45.10437" lon="5.55721">
        <ele>1025.3</ele>
        <time>2022-08-12T11:36:34.000Z</time>
      </trkpt>
      <trkpt lat="45.10438" lon="5.5572">
        <ele>1025.6</ele>
        <time>2022-08-12T11:36:35.000Z</time>
      </trkpt>
      <trkpt lat="45.1044" lon="5.5572">
        <ele>1025.8</ele>
        <time>2022-08-12T11:36:36.000Z</time>
      </trkpt>
      <trkpt lat="45.10441" lon="5.55719">
        <ele>1026.1</ele>
        <time>2022-08-12T11:36:37.000Z</time>
      </trkpt>
      <trkpt lat="45.10443" lon="5.55719">
        <ele>1026.3</ele>
        <time>2022-08-12T11:36:38.000Z</time>
      </trkpt>
      <trkpt lat="45.10444" lon="5.55718">
        <ele>1026.5</ele>
        <time>2022-08-12T11:36:39.000Z</time>
      </trkpt>
      <trkpt lat="45.10446" lon="5.55718">
        <ele>1026.6</ele>
        <time>2022-08-12T11:36:40.000Z</time>
      </trkpt>
      <trkpt lat="45.10447" lon="5.55718">
        <ele>1026.7</ele>
        <time>2022-08-12T11:36:41.000Z</time>
      </trkpt>
      <trkpt lat="45.10449" lon="5.55718">
        <ele>1026.8</ele>
        <time>2022-08-12T11:36:42.000Z</time>
      </trkpt>
      <trkpt lat="45.1045" lon="5.55719">
        <ele>1026.8</ele>
        <time>2022-08-12T11:36:43.000Z</time>
      </trkpt>
      <trkpt lat="45.10451" lon="5.55719">
        <ele>1026.8</ele>
        <time>2022-08-12T11:36:44.000Z</time>
      </trkpt>
      <trkpt lat="45.10453" lon="5.55718">
        <ele>1026.9</ele>
        <time>2022-08-12T11:36:45.000Z</time>
      </trkpt>
      <trkpt lat="45.10455" lon="5.55718">
        <ele>1027</ele>
        <time>2022-08-12T11:36:46.000Z</time>
      </trkpt>
      <trkpt lat="45.10456" lon="5.55718">
        <ele>1027.1</ele>
        <time>2022-08-12T11:36:47.000Z</time>
      </trkpt>
      <trkpt lat="45.10458" lon="5.55717">
        <ele>1027.2</ele>
        <time>2022-08-12T11:36:48.000Z</time>
      </trkpt>
      <trkpt lat="45.10459" lon="5.55717">
        <ele>1027.4</ele>
        <time>2022-08-12T11:36:49.000Z</time>
      </trkpt>
      <trkpt lat="45.10461" lon="5.55716">
        <ele>1027.5</ele>
        <time>2022-08-12T11:36:50.000Z</time>
      </trkpt>
      <trkpt lat="45.10462" lon="5.55716">
        <ele>1027.7</ele>
        <time>2022-08-12T11:36:51.000Z</time>
      </trkpt>
      <trkpt lat="45.10464" lon="5.55715">
        <ele>1027.9</ele>
        <time>2022-08-12T11:36:52.000Z</time>
      </trkpt>
      <trkpt lat="45.10465" lon="5.55714">
        <ele>1028.1</ele>
        <time>2022-08-12T11:36:53.000Z</time>
      </trkpt>
      <trkpt lat="45.10467" lon="5.55714">
        <ele>1028.1</ele>
        <time>2022-08-12T11:36:54.000Z</time>
      </trkpt>
      <trkpt lat="45.10468" lon="5.55714">
        <ele>1028.2</ele>
        <time>2022-08-12T11:36:55.000Z</time>
      </trkpt>
      <trkpt lat="45.1047" lon="5.55714">
        <ele>1028.4</ele>
        <time>2022-08-12T11:36:56.000Z</time>
      </trkpt>
      <trkpt lat="45.10471" lon="5.55713">
        <ele>1028.5</ele>
        <time>2022-08-12T11:36:57.000Z</time>
      </trkpt>
      <trkpt lat="45.10472" lon="5.55712">
        <ele>1028.8</ele>
        <time>2022-08-12T11:36:58.000Z</time>
      </trkpt>
      <trkpt lat="45.10473" lon="5.55712">
        <ele>1028.9</ele>
        <time>2022-08-12T11:36:59.000Z</time>
      </trkpt>
      <trkpt lat="45.10475" lon="5.55711">
        <ele>1029</ele>
        <time>2022-08-12T11:37:00.000Z</time>
      </trkpt>
      <trkpt lat="45.10476" lon="5.5571">
        <ele>1029.3</ele>
        <time>2022-08-12T11:37:01.000Z</time>
      </trkpt>
      <trkpt lat="45.10477" lon="5.55709">
        <ele>1029.4</ele>
        <time>2022-08-12T11:37:02.000Z</time>
      </trkpt>
      <trkpt lat="45.10479" lon="5.55708">
        <ele>1029.6</ele>
        <time>2022-08-12T11:37:03.000Z</time>
      </trkpt>
      <trkpt lat="45.1048" lon="5.55707">
        <ele>1029.9</ele>
        <time>2022-08-12T11:37:04.000Z</time>
      </trkpt>
      <trkpt lat="45.10481" lon="5.55705">
        <ele>1030.2</ele>
        <time>2022-08-12T11:37:05.000Z</time>
      </trkpt>
      <trkpt lat="45.10482" lon="5.55705">
        <ele>1030.4</ele>
        <time>2022-08-12T11:37:06.000Z</time>
      </trkpt>
      <trkpt lat="45.10483" lon="5.55704">
        <ele>1030.4</ele>
        <time>2022-08-12T11:37:07.000Z</time>
      </trkpt>
      <trkpt lat="45.10484" lon="5.55704">
        <ele>1030.7</ele>
        <time>2022-08-12T11:37:08.000Z</time>
      </trkpt>
      <trkpt lat="45.10486" lon="5.55703">
        <ele>1030.9</ele>
        <time>2022-08-12T11:37:09.000Z</time>
      </trkpt>
      <trkpt lat="45.10487" lon="5.55702">
        <ele>1031.1</ele>
        <time>2022-08-12T11:37:10.000Z</time>
      </trkpt>
      <trkpt lat="45.10488" lon="5.55701">
        <ele>1031.2</ele>
        <time>2022-08-12T11:37:11.000Z</time>
      </trkpt>
      <trkpt lat="45.1049" lon="5.55701">
        <ele>1031.3</ele>
        <time>2022-08-12T11:37:12.000Z</time>
      </trkpt>
      <trkpt lat="45.10491" lon="5.557">
        <ele>1031.5</ele>
        <time>2022-08-12T11:37:13.000Z</time>
      </trkpt>
      <trkpt lat="45.10492" lon="5.55699">
        <ele>1031.7</ele>
        <time>2022-08-12T11:37:14.000Z</time>
      </trkpt>
      <trkpt lat="45.10493" lon="5.55699">
        <ele>1031.8</ele>
        <time>2022-08-12T11:37:15.000Z</time>
      </trkpt>
      <trkpt lat="45.10494" lon="5.55698">
        <ele>1032.1</ele>
        <time>2022-08-12T11:37:16.000Z</time>
      </trkpt>
      <trkpt lat="45.10496" lon="5.55697">
        <ele>1032.3</ele>
        <time>2022-08-12T11:37:17.000Z</time>
      </trkpt>
      <trkpt lat="45.10498" lon="5.55696">
        <ele>1032.6</ele>
        <time>2022-08-12T11:37:18.000Z</time>
      </trkpt>
      <trkpt lat="45.10499" lon="5.55695">
        <ele>1032.9</ele>
        <time>2022-08-12T11:37:19.000Z</time>
      </trkpt>
      <trkpt lat="45.105" lon="5.55693">
        <ele>1033.2</ele>
        <time>2022-08-12T11:37:20.000Z</time>
      </trkpt>
      <trkpt lat="45.10501" lon="5.55692">
        <ele>1033.5</ele>
        <time>2022-08-12T11:37:21.000Z</time>
      </trkpt>
      <trkpt lat="45.10502" lon="5.5569">
        <ele>1033.7</ele>
        <time>2022-08-12T11:37:22.000Z</time>
      </trkpt>
      <trkpt lat="45.10503" lon="5.5569">
        <ele>1033.9</ele>
        <time>2022-08-12T11:37:23.000Z</time>
      </trkpt>
      <trkpt lat="45.10504" lon="5.55689">
        <ele>1034.1</ele>
        <time>2022-08-12T11:37:24.000Z</time>
      </trkpt>
      <trkpt lat="45.10505" lon="5.55687">
        <ele>1034.4</ele>
        <time>2022-08-12T11:37:25.000Z</time>
      </trkpt>
      <trkpt lat="45.10506" lon="5.55686">
        <ele>1034.7</ele>
        <time>2022-08-12T11:37:26.000Z</time>
      </trkpt>
      <trkpt lat="45.10507" lon="5.55685">
        <ele>1034.9</ele>
        <time>2022-08-12T11:37:27.000Z</time>
      </trkpt>
      <trkpt lat="45.10508" lon="5.55684">
        <ele>1035.2</ele>
        <time>2022-08-12T11:37:28.000Z</time>
      </trkpt>
      <trkpt lat="45.1051" lon="5.55683">
        <ele>1035.4</ele>
        <time>2022-08-12T11:37:29.000Z</time>
      </trkpt>
      <trkpt lat="45.10511" lon="5.55682">
        <ele>1035.5</ele>
        <time>2022-08-12T11:37:30.000Z</time>
      </trkpt>
      <trkpt lat="45.10512" lon="5.55681">
        <ele>1035.8</ele>
        <time>2022-08-12T11:37:31.000Z</time>
      </trkpt>
      <trkpt lat="45.10512" lon="5.55679">
        <ele>1036.1</ele>
        <time>2022-08-12T11:37:32.000Z</time>
      </trkpt>
      <trkpt lat="45.10513" lon="5.55677">
        <ele>1036.4</ele>
        <time>2022-08-12T11:37:33.000Z</time>
      </trkpt>
      <trkpt lat="45.10513" lon="5.55675">
        <ele>1036.7</ele>
        <time>2022-08-12T11:37:34.000Z</time>
      </trkpt>
      <trkpt lat="45.10514" lon="5.55674">
        <ele>1037</ele>
        <time>2022-08-12T11:37:35.000Z</time>
      </trkpt>
      <trkpt lat="45.10514" lon="5.55673">
        <ele>1037.2</ele>
        <time>2022-08-12T11:37:36.000Z</time>
      </trkpt>
      <trkpt lat="45.10515" lon="5.55672">
        <ele>1037.4</ele>
        <time>2022-08-12T11:37:37.000Z</time>
      </trkpt>
      <trkpt lat="45.10517" lon="5.55671">
        <ele>1037.5</ele>
        <time>2022-08-12T11:37:38.000Z</time>
      </trkpt>
      <trkpt lat="45.10518" lon="5.55671">
        <ele>1037.6</ele>
        <time>2022-08-12T11:37:39.000Z</time>
      </trkpt>
      <trkpt lat="45.10519" lon="5.55671">
        <ele>1037.7</ele>
        <time>2022-08-12T11:37:40.000Z</time>
      </trkpt>
      <trkpt lat="45.1052" lon="5.55671">
        <ele>1037.9</ele>
        <time>2022-08-12T11:37:41.000Z</time>
      </trkpt>
      <trkpt lat="45.10521" lon="5.5567">
        <ele>1038.1</ele>
        <time>2022-08-12T11:37:42.000Z</time>
      </trkpt>
      <trkpt lat="45.10523" lon="5.55669">
        <ele>1038.3</ele>
        <time>2022-08-12T11:37:43.000Z</time>
      </trkpt>
      <trkpt lat="45.10523" lon="5.55667">
        <ele>1038.6</ele>
        <time>2022-08-12T11:37:44.000Z</time>
      </trkpt>
      <trkpt lat="45.10524" lon="5.55666">
        <ele>1038.8</ele>
        <time>2022-08-12T11:37:45.000Z</time>
      </trkpt>
      <trkpt lat="45.10525" lon="5.55665">
        <ele>1039</ele>
        <time>2022-08-12T11:37:46.000Z</time>
      </trkpt>
      <trkpt lat="45.10526" lon="5.55664">
        <ele>1039.1</ele>
        <time>2022-08-12T11:37:47.000Z</time>
      </trkpt>
      <trkpt lat="45.10527" lon="5.55663">
        <ele>1039.3</ele>
        <time>2022-08-12T11:37:48.000Z</time>
      </trkpt>
      <trkpt lat="45.10528" lon="5.55664">
        <ele>1039.4</ele>
        <time>2022-08-12T11:37:49.000Z</time>
      </trkpt>
      <trkpt lat="45.10529" lon="5.55663">
        <ele>1039.5</ele>
        <time>2022-08-12T11:37:50.000Z</time>
      </trkpt>
      <trkpt lat="45.10531" lon="5.55663">
        <ele>1039.7</ele>
        <time>2022-08-12T11:37:51.000Z</time>
      </trkpt>
      <trkpt lat="45.10532" lon="5.55663">
        <ele>1039.9</ele>
        <time>2022-08-12T11:37:52.000Z</time>
      </trkpt>
      <trkpt lat="45.10533" lon="5.55663">
        <ele>1040.1</ele>
        <time>2022-08-12T11:37:53.000Z</time>
      </trkpt>
      <trkpt lat="45.10535" lon="5.55663">
        <ele>1040.2</ele>
        <time>2022-08-12T11:37:54.000Z</time>
      </trkpt>
      <trkpt lat="45.10536" lon="5.55662">
        <ele>1040.4</ele>
        <time>2022-08-12T11:37:55.000Z</time>
      </trkpt>
      <trkpt lat="45.10537" lon="5.55662">
        <ele>1040.6</ele>
        <time>2022-08-12T11:37:56.000Z</time>
      </trkpt>
      <trkpt lat="45.10538" lon="5.55662">
        <ele>1040.7</ele>
        <time>2022-08-12T11:37:57.000Z</time>
      </trkpt>
      <trkpt lat="45.10539" lon="5.55663">
        <ele>1040.7</ele>
        <time>2022-08-12T11:37:58.000Z</time>
      </trkpt>
      <trkpt lat="45.1054" lon="5.55664">
        <ele>1040.7</ele>
        <time>2022-08-12T11:37:59.000Z</time>
      </trkpt>
      <trkpt lat="45.10541" lon="5.55664">
        <ele>1040.7</ele>
        <time>2022-08-12T11:38:00.000Z</time>
      </trkpt>
      <trkpt lat="45.10543" lon="5.55665">
        <ele>1040.8</ele>
        <time>2022-08-12T11:38:01.000Z</time>
      </trkpt>
      <trkpt lat="45.10544" lon="5.55666">
        <ele>1040.8</ele>
        <time>2022-08-12T11:38:02.000Z</time>
      </trkpt>
      <trkpt lat="45.10545" lon="5.55667">
        <ele>1040.9</ele>
        <time>2022-08-12T11:38:03.000Z</time>
      </trkpt>
      <trkpt lat="45.10546" lon="5.55667">
        <ele>1040.9</ele>
        <time>2022-08-12T11:38:04.000Z</time>
      </trkpt>
      <trkpt lat="45.10547" lon="5.55668">
        <ele>1041</ele>
        <time>2022-08-12T11:38:05.000Z</time>
      </trkpt>
      <trkpt lat="45.10548" lon="5.55668">
        <ele>1041</ele>
        <time>2022-08-12T11:38:06.000Z</time>
      </trkpt>
      <trkpt lat="45.10549" lon="5.55669">
        <ele>1041.1</ele>
        <time>2022-08-12T11:38:07.000Z</time>
      </trkpt>
      <trkpt lat="45.10551" lon="5.55669">
        <ele>1041.2</ele>
        <time>2022-08-12T11:38:08.000Z</time>
      </trkpt>
      <trkpt lat="45.10552" lon="5.55669">
        <ele>1041.3</ele>
        <time>2022-08-12T11:38:09.000Z</time>
      </trkpt>
      <trkpt lat="45.10553" lon="5.5567">
        <ele>1041.3</ele>
        <time>2022-08-12T11:38:10.000Z</time>
      </trkpt>
      <trkpt lat="45.10554" lon="5.55671">
        <ele>1041.4</ele>
        <time>2022-08-12T11:38:12.000Z</time>
      </trkpt>
      <trkpt lat="45.10555" lon="5.55671">
        <ele>1041.4</ele>
        <time>2022-08-12T11:38:13.000Z</time>
      </trkpt>
      <trkpt lat="45.10556" lon="5.55672">
        <ele>1041.5</ele>
        <time>2022-08-12T11:38:14.000Z</time>
      </trkpt>
      <trkpt lat="45.10557" lon="5.55674">
        <ele>1041.6</ele>
        <time>2022-08-12T11:38:15.000Z</time>
      </trkpt>
      <trkpt lat="45.10558" lon="5.55675">
        <ele>1041.7</ele>
        <time>2022-08-12T11:38:16.000Z</time>
      </trkpt>
      <trkpt lat="45.10559" lon="5.55675">
        <ele>1041.8</ele>
        <time>2022-08-12T11:38:17.000Z</time>
      </trkpt>
      <trkpt lat="45.10561" lon="5.55676">
        <ele>1042</ele>
        <time>2022-08-12T11:38:18.000Z</time>
      </trkpt>
      <trkpt lat="45.10562" lon="5.55676">
        <ele>1042.2</ele>
        <time>2022-08-12T11:38:19.000Z</time>
      </trkpt>
      <trkpt lat="45.10563" lon="5.55676">
        <ele>1042.4</ele>
        <time>2022-08-12T11:38:20.000Z</time>
      </trkpt>
      <trkpt lat="45.10564" lon="5.55677">
        <ele>1042.5</ele>
        <time>2022-08-12T11:38:21.000Z</time>
      </trkpt>
      <trkpt lat="45.10565" lon="5.55677">
        <ele>1042.6</ele>
        <time>2022-08-12T11:38:22.000Z</time>
      </trkpt>
      <trkpt lat="45.10566" lon="5.55677">
        <ele>1042.8</ele>
        <time>2022-08-12T11:38:23.000Z</time>
      </trkpt>
      <trkpt lat="45.10567" lon="5.55677">
        <ele>1043</ele>
        <time>2022-08-12T11:38:24.000Z</time>
      </trkpt>
      <trkpt lat="45.10568" lon="5.55677">
        <ele>1043.2</ele>
        <time>2022-08-12T11:38:25.000Z</time>
      </trkpt>
      <trkpt lat="45.10569" lon="5.55677">
        <ele>1043.4</ele>
        <time>2022-08-12T11:38:26.000Z</time>
      </trkpt>
      <trkpt lat="45.1057" lon="5.55678">
        <ele>1043.6</ele>
        <time>2022-08-12T11:38:27.000Z</time>
      </trkpt>
      <trkpt lat="45.10571" lon="5.55677">
        <ele>1043.8</ele>
        <time>2022-08-12T11:38:28.000Z</time>
      </trkpt>
      <trkpt lat="45.10572" lon="5.55677">
        <ele>1044</ele>
        <time>2022-08-12T11:38:29.000Z</time>
      </trkpt>
      <trkpt lat="45.10573" lon="5.55677">
        <ele>1044.3</ele>
        <time>2022-08-12T11:38:30.000Z</time>
      </trkpt>
      <trkpt lat="45.10574" lon="5.55676">
        <ele>1044.5</ele>
        <time>2022-08-12T11:38:31.000Z</time>
      </trkpt>
      <trkpt lat="45.10574" lon="5.55675">
        <ele>1044.8</ele>
        <time>2022-08-12T11:38:32.000Z</time>
      </trkpt>
      <trkpt lat="45.10575" lon="5.55674">
        <ele>1045.1</ele>
        <time>2022-08-12T11:38:33.000Z</time>
      </trkpt>
      <trkpt lat="45.10575" lon="5.55672">
        <ele>1045.4</ele>
        <time>2022-08-12T11:38:34.000Z</time>
      </trkpt>
      <trkpt lat="45.10576" lon="5.55671">
        <ele>1045.7</ele>
        <time>2022-08-12T11:38:35.000Z</time>
      </trkpt>
      <trkpt lat="45.10576" lon="5.55669">
        <ele>1046</ele>
        <time>2022-08-12T11:38:36.000Z</time>
      </trkpt>
      <trkpt lat="45.10576" lon="5.55667">
        <ele>1046.3</ele>
        <time>2022-08-12T11:38:37.000Z</time>
      </trkpt>
      <trkpt lat="45.10576" lon="5.55666">
        <ele>1046.6</ele>
        <time>2022-08-12T11:38:38.000Z</time>
      </trkpt>
      <trkpt lat="45.10576" lon="5.55664">
        <ele>1046.8</ele>
        <time>2022-08-12T11:38:39.000Z</time>
      </trkpt>
      <trkpt lat="45.10576" lon="5.55662">
        <ele>1047.1</ele>
        <time>2022-08-12T11:38:40.000Z</time>
      </trkpt>
      <trkpt lat="45.10576" lon="5.5566">
        <ele>1047.2</ele>
        <time>2022-08-12T11:38:41.000Z</time>
      </trkpt>
      <trkpt lat="45.10576" lon="5.55658">
        <ele>1047.3</ele>
        <time>2022-08-12T11:38:42.000Z</time>
      </trkpt>
      <trkpt lat="45.10575" lon="5.55657">
        <ele>1047.4</ele>
        <time>2022-08-12T11:38:43.000Z</time>
      </trkpt>
      <trkpt lat="45.10575" lon="5.55655">
        <ele>1047.5</ele>
        <time>2022-08-12T11:38:44.000Z</time>
      </trkpt>
      <trkpt lat="45.10574" lon="5.55653">
        <ele>1047.6</ele>
        <time>2022-08-12T11:38:45.000Z</time>
      </trkpt>
      <trkpt lat="45.10574" lon="5.55652">
        <ele>1047.7</ele>
        <time>2022-08-12T11:38:46.000Z</time>
      </trkpt>
      <trkpt lat="45.10573" lon="5.5565">
        <ele>1047.8</ele>
        <time>2022-08-12T11:38:47.000Z</time>
      </trkpt>
      <trkpt lat="45.10572" lon="5.55648">
        <ele>1047.9</ele>
        <time>2022-08-12T11:38:48.000Z</time>
      </trkpt>
      <trkpt lat="45.10572" lon="5.55646">
        <ele>1048.1</ele>
        <time>2022-08-12T11:38:49.000Z</time>
      </trkpt>
      <trkpt lat="45.10572" lon="5.55645">
        <ele>1048.2</ele>
        <time>2022-08-12T11:38:50.000Z</time>
      </trkpt>
      <trkpt lat="45.10571" lon="5.55644">
        <ele>1048.2</ele>
        <time>2022-08-12T11:38:51.000Z</time>
      </trkpt>
      <trkpt lat="45.10571" lon="5.55642">
        <ele>1048.4</ele>
        <time>2022-08-12T11:38:52.000Z</time>
      </trkpt>
      <trkpt lat="45.10571" lon="5.55641">
        <ele>1048.5</ele>
        <time>2022-08-12T11:38:53.000Z</time>
      </trkpt>
      <trkpt lat="45.10571" lon="5.55639">
        <ele>1048.7</ele>
        <time>2022-08-12T11:38:54.000Z</time>
      </trkpt>
      <trkpt lat="45.10571" lon="5.55637">
        <ele>1049</ele>
        <time>2022-08-12T11:38:55.000Z</time>
      </trkpt>
      <trkpt lat="45.10571" lon="5.55636">
        <ele>1049.2</ele>
        <time>2022-08-12T11:38:56.000Z</time>
      </trkpt>
      <trkpt lat="45.10571" lon="5.55634">
        <ele>1049.5</ele>
        <time>2022-08-12T11:38:57.000Z</time>
      </trkpt>
      <trkpt lat="45.10572" lon="5.55632">
        <ele>1049.8</ele>
        <time>2022-08-12T11:38:58.000Z</time>
      </trkpt>
      <trkpt lat="45.10572" lon="5.5563">
        <ele>1050</ele>
        <time>2022-08-12T11:38:59.000Z</time>
      </trkpt>
      <trkpt lat="45.10572" lon="5.55628">
        <ele>1050.3</ele>
        <time>2022-08-12T11:39:00.000Z</time>
      </trkpt>
      <trkpt lat="45.10573" lon="5.55626">
        <ele>1050.6</ele>
        <time>2022-08-12T11:39:01.000Z</time>
      </trkpt>
      <trkpt lat="45.10573" lon="5.55625">
        <ele>1050.9</ele>
        <time>2022-08-12T11:39:02.000Z</time>
      </trkpt>
      <trkpt lat="45.10573" lon="5.55623">
        <ele>1051.1</ele>
        <time>2022-08-12T11:39:03.000Z</time>
      </trkpt>
      <trkpt lat="45.10573" lon="5.55621">
        <ele>1051.3</ele>
        <time>2022-08-12T11:39:04.000Z</time>
      </trkpt>
      <trkpt lat="45.10573" lon="5.55619">
        <ele>1051.6</ele>
        <time>2022-08-12T11:39:05.000Z</time>
      </trkpt>
      <trkpt lat="45.10574" lon="5.55618">
        <ele>1051.8</ele>
        <time>2022-08-12T11:39:06.000Z</time>
      </trkpt>
      <trkpt lat="45.10573" lon="5.55616">
        <ele>1052</ele>
        <time>2022-08-12T11:39:07.000Z</time>
      </trkpt>
      <trkpt lat="45.10574" lon="5.55614">
        <ele>1052.2</ele>
        <time>2022-08-12T11:39:08.000Z</time>
      </trkpt>
      <trkpt lat="45.10574" lon="5.55613">
        <ele>1052.4</ele>
        <time>2022-08-12T11:39:09.000Z</time>
      </trkpt>
      <trkpt lat="45.10574" lon="5.55612">
        <ele>1052.6</ele>
        <time>2022-08-12T11:39:10.000Z</time>
      </trkpt>
      <trkpt lat="45.10575" lon="5.55611">
        <ele>1052.8</ele>
        <time>2022-08-12T11:39:11.000Z</time>
      </trkpt>
      <trkpt lat="45.10575" lon="5.55609">
        <ele>1053.2</ele>
        <time>2022-08-12T11:39:12.000Z</time>
      </trkpt>
      <trkpt lat="45.10575" lon="5.55608">
        <ele>1053.4</ele>
        <time>2022-08-12T11:39:13.000Z</time>
      </trkpt>
      <trkpt lat="45.10575" lon="5.55606">
        <ele>1053.7</ele>
        <time>2022-08-12T11:39:14.000Z</time>
      </trkpt>
      <trkpt lat="45.10575" lon="5.55604">
        <ele>1054.1</ele>
        <time>2022-08-12T11:39:15.000Z</time>
      </trkpt>
      <trkpt lat="45.10576" lon="5.55603">
        <ele>1054.4</ele>
        <time>2022-08-12T11:39:16.000Z</time>
      </trkpt>
      <trkpt lat="45.10576" lon="5.55602">
        <ele>1054.6</ele>
        <time>2022-08-12T11:39:17.000Z</time>
      </trkpt>
      <trkpt lat="45.10576" lon="5.55601">
        <ele>1054.8</ele>
        <time>2022-08-12T11:39:18.000Z</time>
      </trkpt>
      <trkpt lat="45.10576" lon="5.55599">
        <ele>1055.1</ele>
        <time>2022-08-12T11:39:19.000Z</time>
      </trkpt>
      <trkpt lat="45.10576" lon="5.55597">
        <ele>1055.5</ele>
        <time>2022-08-12T11:39:20.000Z</time>
      </trkpt>
      <trkpt lat="45.10576" lon="5.55596">
        <ele>1055.6</ele>
        <time>2022-08-12T11:39:21.000Z</time>
      </trkpt>
      <trkpt lat="45.10575" lon="5.55595">
        <ele>1055.7</ele>
        <time>2022-08-12T11:39:22.000Z</time>
      </trkpt>
      <trkpt lat="45.10575" lon="5.55594">
        <ele>1055.8</ele>
        <time>2022-08-12T11:39:23.000Z</time>
      </trkpt>
      <trkpt lat="45.10575" lon="5.55592">
        <ele>1056.1</ele>
        <time>2022-08-12T11:39:24.000Z</time>
      </trkpt>
      <trkpt lat="45.10575" lon="5.55591">
        <ele>1056.4</ele>
        <time>2022-08-12T11:39:26.000Z</time>
      </trkpt>
      <trkpt lat="45.10575" lon="5.55589">
        <ele>1056.8</ele>
        <time>2022-08-12T11:39:27.000Z</time>
      </trkpt>
      <trkpt lat="45.10575" lon="5.55588">
        <ele>1057</ele>
        <time>2022-08-12T11:39:28.000Z</time>
      </trkpt>
      <trkpt lat="45.10575" lon="5.55586">
        <ele>1057.2</ele>
        <time>2022-08-12T11:39:29.000Z</time>
      </trkpt>
      <trkpt lat="45.10575" lon="5.55585">
        <ele>1057.5</ele>
        <time>2022-08-12T11:39:30.000Z</time>
      </trkpt>
      <trkpt lat="45.10575" lon="5.55584">
        <ele>1057.7</ele>
        <time>2022-08-12T11:39:31.000Z</time>
      </trkpt>
      <trkpt lat="45.10575" lon="5.55582">
        <ele>1058.1</ele>
        <time>2022-08-12T11:39:32.000Z</time>
      </trkpt>
      <trkpt lat="45.10576" lon="5.5558">
        <ele>1058.4</ele>
        <time>2022-08-12T11:39:33.000Z</time>
      </trkpt>
      <trkpt lat="45.10576" lon="5.55578">
        <ele>1058.6</ele>
        <time>2022-08-12T11:39:34.000Z</time>
      </trkpt>
      <trkpt lat="45.10576" lon="5.55577">
        <ele>1058.9</ele>
        <time>2022-08-12T11:39:35.000Z</time>
      </trkpt>
      <trkpt lat="45.10576" lon="5.55575">
        <ele>1059.1</ele>
        <time>2022-08-12T11:39:36.000Z</time>
      </trkpt>
      <trkpt lat="45.10575" lon="5.55573">
        <ele>1059.4</ele>
        <time>2022-08-12T11:39:37.000Z</time>
      </trkpt>
      <trkpt lat="45.10575" lon="5.55571">
        <ele>1059.6</ele>
        <time>2022-08-12T11:39:38.000Z</time>
      </trkpt>
      <trkpt lat="45.10575" lon="5.55569">
        <ele>1059.9</ele>
        <time>2022-08-12T11:39:39.000Z</time>
      </trkpt>
      <trkpt lat="45.10575" lon="5.55567">
        <ele>1060.1</ele>
        <time>2022-08-12T11:39:40.000Z</time>
      </trkpt>
      <trkpt lat="45.10575" lon="5.55565">
        <ele>1060.3</ele>
        <time>2022-08-12T11:39:41.000Z</time>
      </trkpt>
      <trkpt lat="45.10574" lon="5.55563">
        <ele>1060.5</ele>
        <time>2022-08-12T11:39:42.000Z</time>
      </trkpt>
      <trkpt lat="45.10573" lon="5.55561">
        <ele>1060.7</ele>
        <time>2022-08-12T11:39:43.000Z</time>
      </trkpt>
      <trkpt lat="45.10574" lon="5.55559">
        <ele>1061</ele>
        <time>2022-08-12T11:39:44.000Z</time>
      </trkpt>
      <trkpt lat="45.10574" lon="5.55558">
        <ele>1061.3</ele>
        <time>2022-08-12T11:39:45.000Z</time>
      </trkpt>
      <trkpt lat="45.10574" lon="5.55557">
        <ele>1061.4</ele>
        <time>2022-08-12T11:39:46.000Z</time>
      </trkpt>
      <trkpt lat="45.10573" lon="5.55555">
        <ele>1061.6</ele>
        <time>2022-08-12T11:39:47.000Z</time>
      </trkpt>
      <trkpt lat="45.10573" lon="5.55554">
        <ele>1061.8</ele>
        <time>2022-08-12T11:39:48.000Z</time>
      </trkpt>
      <trkpt lat="45.10574" lon="5.55552">
        <ele>1062.1</ele>
        <time>2022-08-12T11:39:49.000Z</time>
      </trkpt>
      <trkpt lat="45.10574" lon="5.5555">
        <ele>1062.3</ele>
        <time>2022-08-12T11:39:50.000Z</time>
      </trkpt>
      <trkpt lat="45.10575" lon="5.55549">
        <ele>1062.7</ele>
        <time>2022-08-12T11:39:51.000Z</time>
      </trkpt>
      <trkpt lat="45.10576" lon="5.55547">
        <ele>1063</ele>
        <time>2022-08-12T11:39:52.000Z</time>
      </trkpt>
      <trkpt lat="45.10577" lon="5.55546">
        <ele>1063.3</ele>
        <time>2022-08-12T11:39:53.000Z</time>
      </trkpt>
      <trkpt lat="45.10577" lon="5.55545">
        <ele>1063.6</ele>
        <time>2022-08-12T11:39:54.000Z</time>
      </trkpt>
      <trkpt lat="45.10578" lon="5.55545">
        <ele>1063.7</ele>
        <time>2022-08-12T11:39:55.000Z</time>
      </trkpt>
      <trkpt lat="45.10579" lon="5.55544">
        <ele>1064</ele>
        <time>2022-08-12T11:39:56.000Z</time>
      </trkpt>
      <trkpt lat="45.10581" lon="5.55544">
        <ele>1064.2</ele>
        <time>2022-08-12T11:39:57.000Z</time>
      </trkpt>
      <trkpt lat="45.10582" lon="5.55544">
        <ele>1064.4</ele>
        <time>2022-08-12T11:39:58.000Z</time>
      </trkpt>
      <trkpt lat="45.10583" lon="5.55545">
        <ele>1064.6</ele>
        <time>2022-08-12T11:39:59.000Z</time>
      </trkpt>
      <trkpt lat="45.10585" lon="5.55546">
        <ele>1064.7</ele>
        <time>2022-08-12T11:40:00.000Z</time>
      </trkpt>
      <trkpt lat="45.10586" lon="5.55547">
        <ele>1064.6</ele>
        <time>2022-08-12T11:40:01.000Z</time>
      </trkpt>
      <trkpt lat="45.10586" lon="5.55549">
        <ele>1064.4</ele>
        <time>2022-08-12T11:40:02.000Z</time>
      </trkpt>
      <trkpt lat="45.10586" lon="5.55552">
        <ele>1064.1</ele>
        <time>2022-08-12T11:40:03.000Z</time>
      </trkpt>
      <trkpt lat="45.10586" lon="5.55554">
        <ele>1063.8</ele>
        <time>2022-08-12T11:40:04.000Z</time>
      </trkpt>
      <trkpt lat="45.10587" lon="5.55555">
        <ele>1063.6</ele>
        <time>2022-08-12T11:40:05.000Z</time>
      </trkpt>
      <trkpt lat="45.10587" lon="5.55558">
        <ele>1063.4</ele>
        <time>2022-08-12T11:40:06.000Z</time>
      </trkpt>
      <trkpt lat="45.10587" lon="5.5556">
        <ele>1063.1</ele>
        <time>2022-08-12T11:40:07.000Z</time>
      </trkpt>
      <trkpt lat="45.10587" lon="5.55562">
        <ele>1062.7</ele>
        <time>2022-08-12T11:40:08.000Z</time>
      </trkpt>
      <trkpt lat="45.10587" lon="5.55564">
        <ele>1062.4</ele>
        <time>2022-08-12T11:40:09.000Z</time>
      </trkpt>
      <trkpt lat="45.10587" lon="5.55566">
        <ele>1062.1</ele>
        <time>2022-08-12T11:40:10.000Z</time>
      </trkpt>
      <trkpt lat="45.10587" lon="5.55572">
        <ele>1061.3</ele>
        <time>2022-08-12T11:40:13.000Z</time>
      </trkpt>
      <trkpt lat="45.10588" lon="5.55574">
        <ele>1061.2</ele>
        <time>2022-08-12T11:40:14.000Z</time>
      </trkpt>
      <trkpt lat="45.10588" lon="5.55576">
        <ele>1060.9</ele>
        <time>2022-08-12T11:40:15.000Z</time>
      </trkpt>
      <trkpt lat="45.10591" lon="5.55582">
        <ele>1060.5</ele>
        <time>2022-08-12T11:40:18.000Z</time>
      </trkpt>
      <trkpt lat="45.10593" lon="5.55588">
        <ele>1060</ele>
        <time>2022-08-12T11:40:21.000Z</time>
      </trkpt>
      <trkpt lat="45.10595" lon="5.55592">
        <ele>1059.7</ele>
        <time>2022-08-12T11:40:24.000Z</time>
      </trkpt>
      <trkpt lat="45.10596" lon="5.55594">
        <ele>1059.6</ele>
        <time>2022-08-12T11:40:25.000Z</time>
      </trkpt>
      <trkpt lat="45.10597" lon="5.55595">
        <ele>1059.5</ele>
        <time>2022-08-12T11:40:26.000Z</time>
      </trkpt>
      <trkpt lat="45.10597" lon="5.55596">
        <ele>1059.4</ele>
        <time>2022-08-12T11:40:27.000Z</time>
      </trkpt>
      <trkpt lat="45.10599" lon="5.55597">
        <ele>1059.5</ele>
        <time>2022-08-12T11:40:28.000Z</time>
      </trkpt>
      <trkpt lat="45.106" lon="5.55599">
        <ele>1059.5</ele>
        <time>2022-08-12T11:40:29.000Z</time>
      </trkpt>
      <trkpt lat="45.10601" lon="5.556">
        <ele>1059.5</ele>
        <time>2022-08-12T11:40:30.000Z</time>
      </trkpt>
      <trkpt lat="45.10602" lon="5.55601">
        <ele>1059.5</ele>
        <time>2022-08-12T11:40:31.000Z</time>
      </trkpt>
      <trkpt lat="45.10602" lon="5.55602">
        <ele>1059.5</ele>
        <time>2022-08-12T11:40:32.000Z</time>
      </trkpt>
      <trkpt lat="45.10605" lon="5.55604">
        <ele>1059.7</ele>
        <time>2022-08-12T11:40:34.000Z</time>
      </trkpt>
      <trkpt lat="45.10607" lon="5.55605">
        <ele>1060</ele>
        <time>2022-08-12T11:40:35.000Z</time>
      </trkpt>
      <trkpt lat="45.10609" lon="5.55605">
        <ele>1060.3</ele>
        <time>2022-08-12T11:40:36.000Z</time>
      </trkpt>
      <trkpt lat="45.1061" lon="5.55606">
        <ele>1060.5</ele>
        <time>2022-08-12T11:40:37.000Z</time>
      </trkpt>
      <trkpt lat="45.10611" lon="5.55607">
        <ele>1060.7</ele>
        <time>2022-08-12T11:40:38.000Z</time>
      </trkpt>
      <trkpt lat="45.10612" lon="5.55607">
        <ele>1060.7</ele>
        <time>2022-08-12T11:40:39.000Z</time>
      </trkpt>
      <trkpt lat="45.10614" lon="5.55608">
        <ele>1060.9</ele>
        <time>2022-08-12T11:40:40.000Z</time>
      </trkpt>
      <trkpt lat="45.10616" lon="5.55608">
        <ele>1061.1</ele>
        <time>2022-08-12T11:40:41.000Z</time>
      </trkpt>
      <trkpt lat="45.10617" lon="5.55609">
        <ele>1061.2</ele>
        <time>2022-08-12T11:40:42.000Z</time>
      </trkpt>
      <trkpt lat="45.10618" lon="5.5561">
        <ele>1061.3</ele>
        <time>2022-08-12T11:40:43.000Z</time>
      </trkpt>
      <trkpt lat="45.1062" lon="5.5561">
        <ele>1061.4</ele>
        <time>2022-08-12T11:40:44.000Z</time>
      </trkpt>
      <trkpt lat="45.1062" lon="5.55611">
        <ele>1061.4</ele>
        <time>2022-08-12T11:40:45.000Z</time>
      </trkpt>
      <trkpt lat="45.10622" lon="5.55611">
        <ele>1061.6</ele>
        <time>2022-08-12T11:40:46.000Z</time>
      </trkpt>
      <trkpt lat="45.10624" lon="5.55612">
        <ele>1061.7</ele>
        <time>2022-08-12T11:40:47.000Z</time>
      </trkpt>
      <trkpt lat="45.10625" lon="5.55613">
        <ele>1061.7</ele>
        <time>2022-08-12T11:40:48.000Z</time>
      </trkpt>
      <trkpt lat="45.10626" lon="5.55613">
        <ele>1061.8</ele>
        <time>2022-08-12T11:40:49.000Z</time>
      </trkpt>
      <trkpt lat="45.10627" lon="5.55614">
        <ele>1061.9</ele>
        <time>2022-08-12T11:40:50.000Z</time>
      </trkpt>
      <trkpt lat="45.10628" lon="5.55615">
        <ele>1061.9</ele>
        <time>2022-08-12T11:40:51.000Z</time>
      </trkpt>
      <trkpt lat="45.1063" lon="5.55615">
        <ele>1062.1</ele>
        <time>2022-08-12T11:40:52.000Z</time>
      </trkpt>
      <trkpt lat="45.10632" lon="5.55616">
        <ele>1062.2</ele>
        <time>2022-08-12T11:40:53.000Z</time>
      </trkpt>
      <trkpt lat="45.10634" lon="5.55615">
        <ele>1062.7</ele>
        <time>2022-08-12T11:40:54.000Z</time>
      </trkpt>
      <trkpt lat="45.10636" lon="5.55614">
        <ele>1063.1</ele>
        <time>2022-08-12T11:40:55.000Z</time>
      </trkpt>
      <trkpt lat="45.10638" lon="5.55614">
        <ele>1063.2</ele>
        <time>2022-08-12T11:40:56.000Z</time>
      </trkpt>
      <trkpt lat="45.10639" lon="5.55616">
        <ele>1063.2</ele>
        <time>2022-08-12T11:40:57.000Z</time>
      </trkpt>
      <trkpt lat="45.10641" lon="5.55617">
        <ele>1063.2</ele>
        <time>2022-08-12T11:40:58.000Z</time>
      </trkpt>
      <trkpt lat="45.10643" lon="5.55618">
        <ele>1063.2</ele>
        <time>2022-08-12T11:40:59.000Z</time>
      </trkpt>
      <trkpt lat="45.10645" lon="5.5562">
        <ele>1063.1</ele>
        <time>2022-08-12T11:41:00.000Z</time>
      </trkpt>
      <trkpt lat="45.10647" lon="5.55621">
        <ele>1063.1</ele>
        <time>2022-08-12T11:41:01.000Z</time>
      </trkpt>
      <trkpt lat="45.10649" lon="5.55622">
        <ele>1063.2</ele>
        <time>2022-08-12T11:41:02.000Z</time>
      </trkpt>
      <trkpt lat="45.1065" lon="5.55623">
        <ele>1063.1</ele>
        <time>2022-08-12T11:41:03.000Z</time>
      </trkpt>
      <trkpt lat="45.10651" lon="5.55624">
        <ele>1063.1</ele>
        <time>2022-08-12T11:41:04.000Z</time>
      </trkpt>
      <trkpt lat="45.10653" lon="5.55624">
        <ele>1063.3</ele>
        <time>2022-08-12T11:41:05.000Z</time>
      </trkpt>
      <trkpt lat="45.10654" lon="5.55624">
        <ele>1063.3</ele>
        <time>2022-08-12T11:41:06.000Z</time>
      </trkpt>
      <trkpt lat="45.10657" lon="5.55624">
        <ele>1063.5</ele>
        <time>2022-08-12T11:41:07.000Z</time>
      </trkpt>
      <trkpt lat="45.10659" lon="5.55624">
        <ele>1063.8</ele>
        <time>2022-08-12T11:41:08.000Z</time>
      </trkpt>
      <trkpt lat="45.1066" lon="5.55624">
        <ele>1063.9</ele>
        <time>2022-08-12T11:41:09.000Z</time>
      </trkpt>
      <trkpt lat="45.10661" lon="5.55625">
        <ele>1063.9</ele>
        <time>2022-08-12T11:41:10.000Z</time>
      </trkpt>
      <trkpt lat="45.10663" lon="5.55626">
        <ele>1064</ele>
        <time>2022-08-12T11:41:11.000Z</time>
      </trkpt>
      <trkpt lat="45.10665" lon="5.55626">
        <ele>1064.1</ele>
        <time>2022-08-12T11:41:12.000Z</time>
      </trkpt>
      <trkpt lat="45.10667" lon="5.55627">
        <ele>1064.1</ele>
        <time>2022-08-12T11:41:13.000Z</time>
      </trkpt>
      <trkpt lat="45.10669" lon="5.55628">
        <ele>1064.2</ele>
        <time>2022-08-12T11:41:14.000Z</time>
      </trkpt>
      <trkpt lat="45.10671" lon="5.55627">
        <ele>1064.5</ele>
        <time>2022-08-12T11:41:15.000Z</time>
      </trkpt>
      <trkpt lat="45.10672" lon="5.55627">
        <ele>1064.7</ele>
        <time>2022-08-12T11:41:16.000Z</time>
      </trkpt>
      <trkpt lat="45.10673" lon="5.55626">
        <ele>1065</ele>
        <time>2022-08-12T11:41:17.000Z</time>
      </trkpt>
      <trkpt lat="45.10675" lon="5.55625">
        <ele>1065.4</ele>
        <time>2022-08-12T11:41:18.000Z</time>
      </trkpt>
      <trkpt lat="45.10676" lon="5.55623">
        <ele>1065.8</ele>
        <time>2022-08-12T11:41:19.000Z</time>
      </trkpt>
      <trkpt lat="45.10677" lon="5.55622">
        <ele>1066.1</ele>
        <time>2022-08-12T11:41:20.000Z</time>
      </trkpt>
      <trkpt lat="45.10679" lon="5.55621">
        <ele>1066.5</ele>
        <time>2022-08-12T11:41:21.000Z</time>
      </trkpt>
      <trkpt lat="45.1068" lon="5.5562">
        <ele>1066.9</ele>
        <time>2022-08-12T11:41:22.000Z</time>
      </trkpt>
      <trkpt lat="45.10681" lon="5.55619">
        <ele>1067.1</ele>
        <time>2022-08-12T11:41:23.000Z</time>
      </trkpt>
      <trkpt lat="45.10682" lon="5.55619">
        <ele>1067.3</ele>
        <time>2022-08-12T11:41:24.000Z</time>
      </trkpt>
      <trkpt lat="45.10684" lon="5.55618">
        <ele>1067.7</ele>
        <time>2022-08-12T11:41:25.000Z</time>
      </trkpt>
      <trkpt lat="45.10685" lon="5.55617">
        <ele>1068</ele>
        <time>2022-08-12T11:41:26.000Z</time>
      </trkpt>
      <trkpt lat="45.10686" lon="5.55616">
        <ele>1068.2</ele>
        <time>2022-08-12T11:41:27.000Z</time>
      </trkpt>
      <trkpt lat="45.10687" lon="5.55615">
        <ele>1068.5</ele>
        <time>2022-08-12T11:41:28.000Z</time>
      </trkpt>
      <trkpt lat="45.10689" lon="5.55614">
        <ele>1068.8</ele>
        <time>2022-08-12T11:41:29.000Z</time>
      </trkpt>
      <trkpt lat="45.1069" lon="5.55614">
        <ele>1069</ele>
        <time>2022-08-12T11:41:30.000Z</time>
      </trkpt>
      <trkpt lat="45.10692" lon="5.55613">
        <ele>1069.4</ele>
        <time>2022-08-12T11:41:31.000Z</time>
      </trkpt>
      <trkpt lat="45.10693" lon="5.55612">
        <ele>1069.7</ele>
        <time>2022-08-12T11:41:32.000Z</time>
      </trkpt>
      <trkpt lat="45.10693" lon="5.5561">
        <ele>1070.1</ele>
        <time>2022-08-12T11:41:33.000Z</time>
      </trkpt>
      <trkpt lat="45.10694" lon="5.55608">
        <ele>1070.3</ele>
        <time>2022-08-12T11:41:34.000Z</time>
      </trkpt>
      <trkpt lat="45.10694" lon="5.55607">
        <ele>1070.6</ele>
        <time>2022-08-12T11:41:35.000Z</time>
      </trkpt>
      <trkpt lat="45.10695" lon="5.55606">
        <ele>1070.9</ele>
        <time>2022-08-12T11:41:36.000Z</time>
      </trkpt>
      <trkpt lat="45.10696" lon="5.55604">
        <ele>1071.1</ele>
        <time>2022-08-12T11:41:37.000Z</time>
      </trkpt>
      <trkpt lat="45.10697" lon="5.55603">
        <ele>1071.4</ele>
        <time>2022-08-12T11:41:38.000Z</time>
      </trkpt>
      <trkpt lat="45.10697" lon="5.55602">
        <ele>1071.6</ele>
        <time>2022-08-12T11:41:39.000Z</time>
      </trkpt>
      <trkpt lat="45.10698" lon="5.556">
        <ele>1071.9</ele>
        <time>2022-08-12T11:41:40.000Z</time>
      </trkpt>
      <trkpt lat="45.10698" lon="5.55598">
        <ele>1072.2</ele>
        <time>2022-08-12T11:41:41.000Z</time>
      </trkpt>
      <trkpt lat="45.10699" lon="5.55597">
        <ele>1072.4</ele>
        <time>2022-08-12T11:41:42.000Z</time>
      </trkpt>
      <trkpt lat="45.107" lon="5.55595">
        <ele>1072.8</ele>
        <time>2022-08-12T11:41:43.000Z</time>
      </trkpt>
      <trkpt lat="45.10701" lon="5.55594">
        <ele>1073</ele>
        <time>2022-08-12T11:41:44.000Z</time>
      </trkpt>
      <trkpt lat="45.10702" lon="5.55592">
        <ele>1073.3</ele>
        <time>2022-08-12T11:41:45.000Z</time>
      </trkpt>
      <trkpt lat="45.10703" lon="5.55591">
        <ele>1073.5</ele>
        <time>2022-08-12T11:41:46.000Z</time>
      </trkpt>
      <trkpt lat="45.10703" lon="5.5559">
        <ele>1073.7</ele>
        <time>2022-08-12T11:41:47.000Z</time>
      </trkpt>
      <trkpt lat="45.10703" lon="5.55589">
        <ele>1073.9</ele>
        <time>2022-08-12T11:41:48.000Z</time>
      </trkpt>
      <trkpt lat="45.10704" lon="5.55588">
        <ele>1074</ele>
        <time>2022-08-12T11:41:49.000Z</time>
      </trkpt>
      <trkpt lat="45.10704" lon="5.55587">
        <ele>1074.2</ele>
        <time>2022-08-12T11:41:50.000Z</time>
      </trkpt>
      <trkpt lat="45.10705" lon="5.55585">
        <ele>1074.5</ele>
        <time>2022-08-12T11:41:51.000Z</time>
      </trkpt>
      <trkpt lat="45.10706" lon="5.55583">
        <ele>1074.8</ele>
        <time>2022-08-12T11:41:52.000Z</time>
      </trkpt>
      <trkpt lat="45.10707" lon="5.55582">
        <ele>1075.1</ele>
        <time>2022-08-12T11:41:53.000Z</time>
      </trkpt>
      <trkpt lat="45.10708" lon="5.55581">
        <ele>1075.3</ele>
        <time>2022-08-12T11:41:54.000Z</time>
      </trkpt>
      <trkpt lat="45.10709" lon="5.5558">
        <ele>1075.6</ele>
        <time>2022-08-12T11:41:55.000Z</time>
      </trkpt>
      <trkpt lat="45.1071" lon="5.55578">
        <ele>1075.9</ele>
        <time>2022-08-12T11:41:56.000Z</time>
      </trkpt>
      <trkpt lat="45.10711" lon="5.55577">
        <ele>1076.1</ele>
        <time>2022-08-12T11:41:57.000Z</time>
      </trkpt>
      <trkpt lat="45.10713" lon="5.55576">
        <ele>1076.4</ele>
        <time>2022-08-12T11:41:58.000Z</time>
      </trkpt>
      <trkpt lat="45.10714" lon="5.55575">
        <ele>1076.6</ele>
        <time>2022-08-12T11:41:59.000Z</time>
      </trkpt>
      <trkpt lat="45.10715" lon="5.55574">
        <ele>1076.8</ele>
        <time>2022-08-12T11:42:00.000Z</time>
      </trkpt>
      <trkpt lat="45.10716" lon="5.55573">
        <ele>1077</ele>
        <time>2022-08-12T11:42:01.000Z</time>
      </trkpt>
      <trkpt lat="45.10718" lon="5.55573">
        <ele>1077.2</ele>
        <time>2022-08-12T11:42:02.000Z</time>
      </trkpt>
      <trkpt lat="45.10719" lon="5.55573">
        <ele>1077.3</ele>
        <time>2022-08-12T11:42:03.000Z</time>
      </trkpt>
      <trkpt lat="45.1072" lon="5.55573">
        <ele>1077.3</ele>
        <time>2022-08-12T11:42:05.000Z</time>
      </trkpt>
      <trkpt lat="45.10722" lon="5.55573">
        <ele>1077.5</ele>
        <time>2022-08-12T11:42:06.000Z</time>
      </trkpt>
      <trkpt lat="45.10724" lon="5.55573">
        <ele>1077.6</ele>
        <time>2022-08-12T11:42:07.000Z</time>
      </trkpt>
      <trkpt lat="45.10725" lon="5.55573">
        <ele>1077.7</ele>
        <time>2022-08-12T11:42:08.000Z</time>
      </trkpt>
      <trkpt lat="45.10727" lon="5.55574">
        <ele>1077.8</ele>
        <time>2022-08-12T11:42:09.000Z</time>
      </trkpt>
      <trkpt lat="45.10729" lon="5.55574">
        <ele>1078</ele>
        <time>2022-08-12T11:42:10.000Z</time>
      </trkpt>
      <trkpt lat="45.1073" lon="5.55575">
        <ele>1078</ele>
        <time>2022-08-12T11:42:11.000Z</time>
      </trkpt>
      <trkpt lat="45.10731" lon="5.55576">
        <ele>1077.9</ele>
        <time>2022-08-12T11:42:12.000Z</time>
      </trkpt>
      <trkpt lat="45.10732" lon="5.55577">
        <ele>1078</ele>
        <time>2022-08-12T11:42:13.000Z</time>
      </trkpt>
      <trkpt lat="45.10734" lon="5.55577">
        <ele>1078</ele>
        <time>2022-08-12T11:42:14.000Z</time>
      </trkpt>
      <trkpt lat="45.10735" lon="5.55578">
        <ele>1078</ele>
        <time>2022-08-12T11:42:15.000Z</time>
      </trkpt>
      <trkpt lat="45.10735" lon="5.5558">
        <ele>1077.9</ele>
        <time>2022-08-12T11:42:16.000Z</time>
      </trkpt>
      <trkpt lat="45.10736" lon="5.55582">
        <ele>1077.7</ele>
        <time>2022-08-12T11:42:17.000Z</time>
      </trkpt>
      <trkpt lat="45.10736" lon="5.55583">
        <ele>1077.5</ele>
        <time>2022-08-12T11:42:18.000Z</time>
      </trkpt>
      <trkpt lat="45.10737" lon="5.55584">
        <ele>1077.5</ele>
        <time>2022-08-12T11:42:19.000Z</time>
      </trkpt>
      <trkpt lat="45.10738" lon="5.55585">
        <ele>1077.5</ele>
        <time>2022-08-12T11:42:20.000Z</time>
      </trkpt>
      <trkpt lat="45.10739" lon="5.55585">
        <ele>1077.6</ele>
        <time>2022-08-12T11:42:21.000Z</time>
      </trkpt>
      <trkpt lat="45.1074" lon="5.55585">
        <ele>1077.7</ele>
        <time>2022-08-12T11:42:22.000Z</time>
      </trkpt>
      <trkpt lat="45.10741" lon="5.55585">
        <ele>1077.7</ele>
        <time>2022-08-12T11:42:23.000Z</time>
      </trkpt>
      <trkpt lat="45.10742" lon="5.55586">
        <ele>1077.8</ele>
        <time>2022-08-12T11:42:24.000Z</time>
      </trkpt>
      <trkpt lat="45.10744" lon="5.55587">
        <ele>1077.8</ele>
        <time>2022-08-12T11:42:25.000Z</time>
      </trkpt>
      <trkpt lat="45.10745" lon="5.55588">
        <ele>1077.9</ele>
        <time>2022-08-12T11:42:26.000Z</time>
      </trkpt>
      <trkpt lat="45.10746" lon="5.55588">
        <ele>1077.8</ele>
        <time>2022-08-12T11:42:27.000Z</time>
      </trkpt>
      <trkpt lat="45.10747" lon="5.55589">
        <ele>1077.9</ele>
        <time>2022-08-12T11:42:28.000Z</time>
      </trkpt>
      <trkpt lat="45.10748" lon="5.55589">
        <ele>1078</ele>
        <time>2022-08-12T11:42:29.000Z</time>
      </trkpt>
      <trkpt lat="45.1075" lon="5.55589">
        <ele>1078.1</ele>
        <time>2022-08-12T11:42:30.000Z</time>
      </trkpt>
      <trkpt lat="45.10751" lon="5.55589">
        <ele>1078.2</ele>
        <time>2022-08-12T11:42:31.000Z</time>
      </trkpt>
      <trkpt lat="45.10751" lon="5.5559">
        <ele>1078.2</ele>
        <time>2022-08-12T11:42:32.000Z</time>
      </trkpt>
      <trkpt lat="45.10753" lon="5.55591">
        <ele>1078.2</ele>
        <time>2022-08-12T11:42:33.000Z</time>
      </trkpt>
      <trkpt lat="45.10754" lon="5.55592">
        <ele>1078.3</ele>
        <time>2022-08-12T11:42:34.000Z</time>
      </trkpt>
      <trkpt lat="45.10755" lon="5.55592">
        <ele>1078.3</ele>
        <time>2022-08-12T11:42:36.000Z</time>
      </trkpt>
      <trkpt lat="45.10756" lon="5.55592">
        <ele>1078.5</ele>
        <time>2022-08-12T11:42:37.000Z</time>
      </trkpt>
      <trkpt lat="45.10758" lon="5.55592">
        <ele>1078.6</ele>
        <time>2022-08-12T11:42:38.000Z</time>
      </trkpt>
      <trkpt lat="45.10759" lon="5.55593">
        <ele>1078.7</ele>
        <time>2022-08-12T11:42:39.000Z</time>
      </trkpt>
      <trkpt lat="45.1076" lon="5.55593">
        <ele>1078.8</ele>
        <time>2022-08-12T11:42:40.000Z</time>
      </trkpt>
      <trkpt lat="45.10762" lon="5.55593">
        <ele>1079.1</ele>
        <time>2022-08-12T11:42:41.000Z</time>
      </trkpt>
      <trkpt lat="45.10763" lon="5.55593">
        <ele>1079.2</ele>
        <time>2022-08-12T11:42:42.000Z</time>
      </trkpt>
      <trkpt lat="45.10764" lon="5.55593">
        <ele>1079.3</ele>
        <time>2022-08-12T11:42:43.000Z</time>
      </trkpt>
      <trkpt lat="45.10765" lon="5.55594">
        <ele>1079.4</ele>
        <time>2022-08-12T11:42:44.000Z</time>
      </trkpt>
      <trkpt lat="45.10767" lon="5.55594">
        <ele>1079.5</ele>
        <time>2022-08-12T11:42:45.000Z</time>
      </trkpt>
      <trkpt lat="45.10768" lon="5.55594">
        <ele>1079.7</ele>
        <time>2022-08-12T11:42:46.000Z</time>
      </trkpt>
      <trkpt lat="45.10769" lon="5.55595">
        <ele>1079.7</ele>
        <time>2022-08-12T11:42:47.000Z</time>
      </trkpt>
      <trkpt lat="45.1077" lon="5.55595">
        <ele>1079.8</ele>
        <time>2022-08-12T11:42:48.000Z</time>
      </trkpt>
      <trkpt lat="45.10771" lon="5.55595">
        <ele>1079.9</ele>
        <time>2022-08-12T11:42:49.000Z</time>
      </trkpt>
      <trkpt lat="45.10772" lon="5.55596">
        <ele>1080</ele>
        <time>2022-08-12T11:42:50.000Z</time>
      </trkpt>
      <trkpt lat="45.10774" lon="5.55597">
        <ele>1080</ele>
        <time>2022-08-12T11:42:51.000Z</time>
      </trkpt>
      <trkpt lat="45.10775" lon="5.55598">
        <ele>1080.1</ele>
        <time>2022-08-12T11:42:52.000Z</time>
      </trkpt>
      <trkpt lat="45.10777" lon="5.55599">
        <ele>1080.2</ele>
        <time>2022-08-12T11:42:53.000Z</time>
      </trkpt>
      <trkpt lat="45.10778" lon="5.55599">
        <ele>1080.3</ele>
        <time>2022-08-12T11:42:54.000Z</time>
      </trkpt>
      <trkpt lat="45.10779" lon="5.55598">
        <ele>1080.4</ele>
        <time>2022-08-12T11:42:55.000Z</time>
      </trkpt>
      <trkpt lat="45.1078" lon="5.55597">
        <ele>1080.6</ele>
        <time>2022-08-12T11:42:56.000Z</time>
      </trkpt>
      <trkpt lat="45.10781" lon="5.55597">
        <ele>1080.6</ele>
        <time>2022-08-12T11:42:57.000Z</time>
      </trkpt>
      <trkpt lat="45.10782" lon="5.55597">
        <ele>1080.7</ele>
        <time>2022-08-12T11:42:58.000Z</time>
      </trkpt>
      <trkpt lat="45.10783" lon="5.55597">
        <ele>1080.7</ele>
        <time>2022-08-12T11:42:59.000Z</time>
      </trkpt>
      <trkpt lat="45.10785" lon="5.55598">
        <ele>1080.7</ele>
        <time>2022-08-12T11:43:00.000Z</time>
      </trkpt>
      <trkpt lat="45.10786" lon="5.55598">
        <ele>1080.7</ele>
        <time>2022-08-12T11:43:01.000Z</time>
      </trkpt>
      <trkpt lat="45.10788" lon="5.55598">
        <ele>1080.8</ele>
        <time>2022-08-12T11:43:02.000Z</time>
      </trkpt>
      <trkpt lat="45.10789" lon="5.55597">
        <ele>1080.9</ele>
        <time>2022-08-12T11:43:03.000Z</time>
      </trkpt>
      <trkpt lat="45.1079" lon="5.55597">
        <ele>1081</ele>
        <time>2022-08-12T11:43:04.000Z</time>
      </trkpt>
      <trkpt lat="45.10791" lon="5.55596">
        <ele>1081.1</ele>
        <time>2022-08-12T11:43:05.000Z</time>
      </trkpt>
      <trkpt lat="45.10793" lon="5.55596">
        <ele>1081.2</ele>
        <time>2022-08-12T11:43:06.000Z</time>
      </trkpt>
      <trkpt lat="45.10794" lon="5.55597">
        <ele>1081.1</ele>
        <time>2022-08-12T11:43:07.000Z</time>
      </trkpt>
      <trkpt lat="45.10795" lon="5.55597">
        <ele>1081.2</ele>
        <time>2022-08-12T11:43:08.000Z</time>
      </trkpt>
      <trkpt lat="45.10797" lon="5.55597">
        <ele>1081.2</ele>
        <time>2022-08-12T11:43:09.000Z</time>
      </trkpt>
      <trkpt lat="45.10798" lon="5.55597">
        <ele>1081.3</ele>
        <time>2022-08-12T11:43:10.000Z</time>
      </trkpt>
      <trkpt lat="45.10799" lon="5.55597">
        <ele>1081.3</ele>
        <time>2022-08-12T11:43:11.000Z</time>
      </trkpt>
      <trkpt lat="45.10801" lon="5.55598">
        <ele>1081.2</ele>
        <time>2022-08-12T11:43:12.000Z</time>
      </trkpt>
      <trkpt lat="45.10802" lon="5.55598">
        <ele>1081.2</ele>
        <time>2022-08-12T11:43:13.000Z</time>
      </trkpt>
      <trkpt lat="45.10804" lon="5.55598">
        <ele>1081.3</ele>
        <time>2022-08-12T11:43:14.000Z</time>
      </trkpt>
      <trkpt lat="45.10806" lon="5.55597">
        <ele>1081.5</ele>
        <time>2022-08-12T11:43:15.000Z</time>
      </trkpt>
      <trkpt lat="45.10808" lon="5.55596">
        <ele>1081.6</ele>
        <time>2022-08-12T11:43:16.000Z</time>
      </trkpt>
      <trkpt lat="45.10809" lon="5.55596">
        <ele>1081.7</ele>
        <time>2022-08-12T11:43:17.000Z</time>
      </trkpt>
      <trkpt lat="45.10811" lon="5.55595">
        <ele>1081.8</ele>
        <time>2022-08-12T11:43:18.000Z</time>
      </trkpt>
      <trkpt lat="45.10813" lon="5.55595">
        <ele>1081.9</ele>
        <time>2022-08-12T11:43:19.000Z</time>
      </trkpt>
      <trkpt lat="45.10815" lon="5.55594">
        <ele>1082</ele>
        <time>2022-08-12T11:43:20.000Z</time>
      </trkpt>
      <trkpt lat="45.10816" lon="5.55593">
        <ele>1082.2</ele>
        <time>2022-08-12T11:43:21.000Z</time>
      </trkpt>
      <trkpt lat="45.10818" lon="5.55592">
        <ele>1082.4</ele>
        <time>2022-08-12T11:43:22.000Z</time>
      </trkpt>
      <trkpt lat="45.10819" lon="5.55591">
        <ele>1082.5</ele>
        <time>2022-08-12T11:43:23.000Z</time>
      </trkpt>
      <trkpt lat="45.10821" lon="5.5559">
        <ele>1082.7</ele>
        <time>2022-08-12T11:43:24.000Z</time>
      </trkpt>
      <trkpt lat="45.10823" lon="5.55589">
        <ele>1083</ele>
        <time>2022-08-12T11:43:25.000Z</time>
      </trkpt>
      <trkpt lat="45.10824" lon="5.55588">
        <ele>1083.1</ele>
        <time>2022-08-12T11:43:26.000Z</time>
      </trkpt>
      <trkpt lat="45.10831" lon="5.55585">
        <ele>1083.7</ele>
        <time>2022-08-12T11:43:30.000Z</time>
      </trkpt>
      <trkpt lat="45.10833" lon="5.55584">
        <ele>1083.9</ele>
        <time>2022-08-12T11:43:31.000Z</time>
      </trkpt>
      <trkpt lat="45.10835" lon="5.55584">
        <ele>1083.9</ele>
        <time>2022-08-12T11:43:32.000Z</time>
      </trkpt>
      <trkpt lat="45.10836" lon="5.55583">
        <ele>1084.1</ele>
        <time>2022-08-12T11:43:33.000Z</time>
      </trkpt>
      <trkpt lat="45.10839" lon="5.55581">
        <ele>1084.5</ele>
        <time>2022-08-12T11:43:35.000Z</time>
      </trkpt>
      <trkpt lat="45.1084" lon="5.5558">
        <ele>1084.6</ele>
        <time>2022-08-12T11:43:36.000Z</time>
      </trkpt>
      <trkpt lat="45.10841" lon="5.55579">
        <ele>1084.8</ele>
        <time>2022-08-12T11:43:37.000Z</time>
      </trkpt>
      <trkpt lat="45.10842" lon="5.55577">
        <ele>1085.1</ele>
        <time>2022-08-12T11:43:38.000Z</time>
      </trkpt>
      <trkpt lat="45.10843" lon="5.55576">
        <ele>1085.4</ele>
        <time>2022-08-12T11:43:39.000Z</time>
      </trkpt>
      <trkpt lat="45.10844" lon="5.55574">
        <ele>1085.7</ele>
        <time>2022-08-12T11:43:40.000Z</time>
      </trkpt>
      <trkpt lat="45.10845" lon="5.55573">
        <ele>1085.9</ele>
        <time>2022-08-12T11:43:41.000Z</time>
      </trkpt>
      <trkpt lat="45.10847" lon="5.55572">
        <ele>1086.1</ele>
        <time>2022-08-12T11:43:42.000Z</time>
      </trkpt>
      <trkpt lat="45.10848" lon="5.55571">
        <ele>1086.2</ele>
        <time>2022-08-12T11:43:43.000Z</time>
      </trkpt>
      <trkpt lat="45.10849" lon="5.5557">
        <ele>1086.4</ele>
        <time>2022-08-12T11:43:44.000Z</time>
      </trkpt>
      <trkpt lat="45.1085" lon="5.55569">
        <ele>1086.6</ele>
        <time>2022-08-12T11:43:45.000Z</time>
      </trkpt>
      <trkpt lat="45.10851" lon="5.55567">
        <ele>1086.9</ele>
        <time>2022-08-12T11:43:46.000Z</time>
      </trkpt>
      <trkpt lat="45.10852" lon="5.55566">
        <ele>1087.1</ele>
        <time>2022-08-12T11:43:47.000Z</time>
      </trkpt>
      <trkpt lat="45.10853" lon="5.55564">
        <ele>1087.4</ele>
        <time>2022-08-12T11:43:48.000Z</time>
      </trkpt>
      <trkpt lat="45.10854" lon="5.55563">
        <ele>1087.7</ele>
        <time>2022-08-12T11:43:49.000Z</time>
      </trkpt>
      <trkpt lat="45.10855" lon="5.55561">
        <ele>1088.1</ele>
        <time>2022-08-12T11:43:50.000Z</time>
      </trkpt>
      <trkpt lat="45.10856" lon="5.55558">
        <ele>1088.5</ele>
        <time>2022-08-12T11:43:51.000Z</time>
      </trkpt>
      <trkpt lat="45.10857" lon="5.55557">
        <ele>1088.8</ele>
        <time>2022-08-12T11:43:52.000Z</time>
      </trkpt>
      <trkpt lat="45.10859" lon="5.55555">
        <ele>1089.1</ele>
        <time>2022-08-12T11:43:53.000Z</time>
      </trkpt>
      <trkpt lat="45.1086" lon="5.55553">
        <ele>1089.4</ele>
        <time>2022-08-12T11:43:54.000Z</time>
      </trkpt>
      <trkpt lat="45.10862" lon="5.55552">
        <ele>1089.7</ele>
        <time>2022-08-12T11:43:55.000Z</time>
      </trkpt>
      <trkpt lat="45.10863" lon="5.5555">
        <ele>1090</ele>
        <time>2022-08-12T11:43:56.000Z</time>
      </trkpt>
      <trkpt lat="45.10865" lon="5.55549">
        <ele>1090.3</ele>
        <time>2022-08-12T11:43:57.000Z</time>
      </trkpt>
      <trkpt lat="45.10866" lon="5.55547">
        <ele>1090.6</ele>
        <time>2022-08-12T11:43:58.000Z</time>
      </trkpt>
      <trkpt lat="45.10868" lon="5.55546">
        <ele>1090.9</ele>
        <time>2022-08-12T11:43:59.000Z</time>
      </trkpt>
      <trkpt lat="45.1087" lon="5.55544">
        <ele>1091.2</ele>
        <time>2022-08-12T11:44:00.000Z</time>
      </trkpt>
      <trkpt lat="45.10871" lon="5.55543">
        <ele>1091.5</ele>
        <time>2022-08-12T11:44:01.000Z</time>
      </trkpt>
      <trkpt lat="45.10873" lon="5.55541">
        <ele>1091.8</ele>
        <time>2022-08-12T11:44:02.000Z</time>
      </trkpt>
      <trkpt lat="45.10875" lon="5.5554">
        <ele>1092.1</ele>
        <time>2022-08-12T11:44:03.000Z</time>
      </trkpt>
      <trkpt lat="45.10877" lon="5.55539">
        <ele>1092.2</ele>
        <time>2022-08-12T11:44:04.000Z</time>
      </trkpt>
      <trkpt lat="45.10879" lon="5.55538">
        <ele>1092.4</ele>
        <time>2022-08-12T11:44:05.000Z</time>
      </trkpt>
      <trkpt lat="45.10881" lon="5.55538">
        <ele>1092.5</ele>
        <time>2022-08-12T11:44:06.000Z</time>
      </trkpt>
      <trkpt lat="45.10883" lon="5.55538">
        <ele>1092.4</ele>
        <time>2022-08-12T11:44:07.000Z</time>
      </trkpt>
      <trkpt lat="45.10885" lon="5.55539">
        <ele>1092.3</ele>
        <time>2022-08-12T11:44:08.000Z</time>
      </trkpt>
      <trkpt lat="45.10887" lon="5.5554">
        <ele>1092.3</ele>
        <time>2022-08-12T11:44:09.000Z</time>
      </trkpt>
      <trkpt lat="45.10888" lon="5.5554">
        <ele>1092.3</ele>
        <time>2022-08-12T11:44:10.000Z</time>
      </trkpt>
      <trkpt lat="45.10892" lon="5.55542">
        <ele>1092.1</ele>
        <time>2022-08-12T11:44:12.000Z</time>
      </trkpt>
      <trkpt lat="45.10893" lon="5.55543">
        <ele>1091.9</ele>
        <time>2022-08-12T11:44:13.000Z</time>
      </trkpt>
      <trkpt lat="45.10895" lon="5.55545">
        <ele>1091.8</ele>
        <time>2022-08-12T11:44:14.000Z</time>
      </trkpt>
      <trkpt lat="45.10896" lon="5.55546">
        <ele>1091.7</ele>
        <time>2022-08-12T11:44:15.000Z</time>
      </trkpt>
      <trkpt lat="45.10897" lon="5.55547">
        <ele>1091.5</ele>
        <time>2022-08-12T11:44:16.000Z</time>
      </trkpt>
      <trkpt lat="45.10898" lon="5.55549">
        <ele>1091.3</ele>
        <time>2022-08-12T11:44:17.000Z</time>
      </trkpt>
      <trkpt lat="45.10899" lon="5.5555">
        <ele>1091.1</ele>
        <time>2022-08-12T11:44:18.000Z</time>
      </trkpt>
      <trkpt lat="45.10901" lon="5.55551">
        <ele>1091</ele>
        <time>2022-08-12T11:44:19.000Z</time>
      </trkpt>
      <trkpt lat="45.10906" lon="5.55555">
        <ele>1090.7</ele>
        <time>2022-08-12T11:44:23.000Z</time>
      </trkpt>
      <trkpt lat="45.10908" lon="5.55556">
        <ele>1090.6</ele>
        <time>2022-08-12T11:44:24.000Z</time>
      </trkpt>
      <trkpt lat="45.1091" lon="5.55559">
        <ele>1090.3</ele>
        <time>2022-08-12T11:44:26.000Z</time>
      </trkpt>
      <trkpt lat="45.10912" lon="5.5556">
        <ele>1090.2</ele>
        <time>2022-08-12T11:44:27.000Z</time>
      </trkpt>
      <trkpt lat="45.10913" lon="5.55561">
        <ele>1090.2</ele>
        <time>2022-08-12T11:44:28.000Z</time>
      </trkpt>
      <trkpt lat="45.10914" lon="5.55562">
        <ele>1090.2</ele>
        <time>2022-08-12T11:44:29.000Z</time>
      </trkpt>
      <trkpt lat="45.10915" lon="5.55562">
        <ele>1090.2</ele>
        <time>2022-08-12T11:44:30.000Z</time>
      </trkpt>
      <trkpt lat="45.10916" lon="5.55563">
        <ele>1090.1</ele>
        <time>2022-08-12T11:44:31.000Z</time>
      </trkpt>
      <trkpt lat="45.10919" lon="5.55564">
        <ele>1090.3</ele>
        <time>2022-08-12T11:44:33.000Z</time>
      </trkpt>
      <trkpt lat="45.1092" lon="5.55564">
        <ele>1090.3</ele>
        <time>2022-08-12T11:44:34.000Z</time>
      </trkpt>
      <trkpt lat="45.10921" lon="5.55564">
        <ele>1090.4</ele>
        <time>2022-08-12T11:44:35.000Z</time>
      </trkpt>
      <trkpt lat="45.10922" lon="5.55564">
        <ele>1090.5</ele>
        <time>2022-08-12T11:44:36.000Z</time>
      </trkpt>
      <trkpt lat="45.10923" lon="5.55565">
        <ele>1090.5</ele>
        <time>2022-08-12T11:44:37.000Z</time>
      </trkpt>
      <trkpt lat="45.10924" lon="5.55565">
        <ele>1090.6</ele>
        <time>2022-08-12T11:44:38.000Z</time>
      </trkpt>
      <trkpt lat="45.10925" lon="5.55564">
        <ele>1090.8</ele>
        <time>2022-08-12T11:44:39.000Z</time>
      </trkpt>
      <trkpt lat="45.10926" lon="5.55563">
        <ele>1090.9</ele>
        <time>2022-08-12T11:44:40.000Z</time>
      </trkpt>
      <trkpt lat="45.10927" lon="5.55562">
        <ele>1091.1</ele>
        <time>2022-08-12T11:44:41.000Z</time>
      </trkpt>
      <trkpt lat="45.10928" lon="5.55561">
        <ele>1091.3</ele>
        <time>2022-08-12T11:44:42.000Z</time>
      </trkpt>
      <trkpt lat="45.10929" lon="5.5556">
        <ele>1091.5</ele>
        <time>2022-08-12T11:44:43.000Z</time>
      </trkpt>
      <trkpt lat="45.1093" lon="5.55559">
        <ele>1091.6</ele>
        <time>2022-08-12T11:44:44.000Z</time>
      </trkpt>
      <trkpt lat="45.10931" lon="5.55558">
        <ele>1091.8</ele>
        <time>2022-08-12T11:44:45.000Z</time>
      </trkpt>
      <trkpt lat="45.10932" lon="5.55556">
        <ele>1092</ele>
        <time>2022-08-12T11:44:46.000Z</time>
      </trkpt>
      <trkpt lat="45.10932" lon="5.55555">
        <ele>1092.2</ele>
        <time>2022-08-12T11:44:47.000Z</time>
      </trkpt>
      <trkpt lat="45.10932" lon="5.55553">
        <ele>1092.4</ele>
        <time>2022-08-12T11:44:48.000Z</time>
      </trkpt>
      <trkpt lat="45.10931" lon="5.55552">
        <ele>1092.5</ele>
        <time>2022-08-12T11:44:49.000Z</time>
      </trkpt>
      <trkpt lat="45.10931" lon="5.5555">
        <ele>1092.8</ele>
        <time>2022-08-12T11:44:50.000Z</time>
      </trkpt>
      <trkpt lat="45.1093" lon="5.55548">
        <ele>1093.1</ele>
        <time>2022-08-12T11:44:51.000Z</time>
      </trkpt>
      <trkpt lat="45.1093" lon="5.55546">
        <ele>1093.3</ele>
        <time>2022-08-12T11:44:52.000Z</time>
      </trkpt>
      <trkpt lat="45.10929" lon="5.55544">
        <ele>1093.5</ele>
        <time>2022-08-12T11:44:53.000Z</time>
      </trkpt>
      <trkpt lat="45.10928" lon="5.55543">
        <ele>1093.6</ele>
        <time>2022-08-12T11:44:54.000Z</time>
      </trkpt>
      <trkpt lat="45.10928" lon="5.55542">
        <ele>1093.8</ele>
        <time>2022-08-12T11:44:55.000Z</time>
      </trkpt>
      <trkpt lat="45.10927" lon="5.5554">
        <ele>1094</ele>
        <time>2022-08-12T11:44:56.000Z</time>
      </trkpt>
      <trkpt lat="45.10927" lon="5.55538">
        <ele>1094.2</ele>
        <time>2022-08-12T11:44:57.000Z</time>
      </trkpt>
      <trkpt lat="45.10926" lon="5.55537">
        <ele>1094.4</ele>
        <time>2022-08-12T11:44:58.000Z</time>
      </trkpt>
      <trkpt lat="45.10925" lon="5.55535">
        <ele>1094.6</ele>
        <time>2022-08-12T11:44:59.000Z</time>
      </trkpt>
      <trkpt lat="45.10925" lon="5.55533">
        <ele>1094.8</ele>
        <time>2022-08-12T11:45:00.000Z</time>
      </trkpt>
      <trkpt lat="45.10924" lon="5.55532">
        <ele>1095</ele>
        <time>2022-08-12T11:45:01.000Z</time>
      </trkpt>
      <trkpt lat="45.10924" lon="5.5553">
        <ele>1095.2</ele>
        <time>2022-08-12T11:45:02.000Z</time>
      </trkpt>
      <trkpt lat="45.10923" lon="5.55529">
        <ele>1095.4</ele>
        <time>2022-08-12T11:45:03.000Z</time>
      </trkpt>
      <trkpt lat="45.10923" lon="5.55527">
        <ele>1095.6</ele>
        <time>2022-08-12T11:45:04.000Z</time>
      </trkpt>
      <trkpt lat="45.10923" lon="5.55525">
        <ele>1095.8</ele>
        <time>2022-08-12T11:45:05.000Z</time>
      </trkpt>
      <trkpt lat="45.10922" lon="5.55523">
        <ele>1096</ele>
        <time>2022-08-12T11:45:06.000Z</time>
      </trkpt>
      <trkpt lat="45.10922" lon="5.55522">
        <ele>1096.2</ele>
        <time>2022-08-12T11:45:07.000Z</time>
      </trkpt>
      <trkpt lat="45.10922" lon="5.55521">
        <ele>1096.4</ele>
        <time>2022-08-12T11:45:08.000Z</time>
      </trkpt>
      <trkpt lat="45.10921" lon="5.5552">
        <ele>1096.5</ele>
        <time>2022-08-12T11:45:09.000Z</time>
      </trkpt>
      <trkpt lat="45.10921" lon="5.55518">
        <ele>1096.7</ele>
        <time>2022-08-12T11:45:10.000Z</time>
      </trkpt>
      <trkpt lat="45.1092" lon="5.55517">
        <ele>1096.8</ele>
        <time>2022-08-12T11:45:11.000Z</time>
      </trkpt>
      <trkpt lat="45.1092" lon="5.55515">
        <ele>1097</ele>
        <time>2022-08-12T11:45:12.000Z</time>
      </trkpt>
      <trkpt lat="45.10919" lon="5.55514">
        <ele>1097.2</ele>
        <time>2022-08-12T11:45:13.000Z</time>
      </trkpt>
      <trkpt lat="45.1092" lon="5.55512">
        <ele>1097.5</ele>
        <time>2022-08-12T11:45:14.000Z</time>
      </trkpt>
      <trkpt lat="45.1092" lon="5.55511">
        <ele>1097.7</ele>
        <time>2022-08-12T11:45:15.000Z</time>
      </trkpt>
      <trkpt lat="45.10921" lon="5.55509">
        <ele>1098</ele>
        <time>2022-08-12T11:45:16.000Z</time>
      </trkpt>
      <trkpt lat="45.10922" lon="5.55508">
        <ele>1098.2</ele>
        <time>2022-08-12T11:45:17.000Z</time>
      </trkpt>
      <trkpt lat="45.10923" lon="5.55507">
        <ele>1098.4</ele>
        <time>2022-08-12T11:45:18.000Z</time>
      </trkpt>
      <trkpt lat="45.10924" lon="5.55507">
        <ele>1098.5</ele>
        <time>2022-08-12T11:45:19.000Z</time>
      </trkpt>
      <trkpt lat="45.10924" lon="5.55506">
        <ele>1098.6</ele>
        <time>2022-08-12T11:45:20.000Z</time>
      </trkpt>
      <trkpt lat="45.10926" lon="5.55506">
        <ele>1098.8</ele>
        <time>2022-08-12T11:45:21.000Z</time>
      </trkpt>
      <trkpt lat="45.10927" lon="5.55505">
        <ele>1099</ele>
        <time>2022-08-12T11:45:22.000Z</time>
      </trkpt>
      <trkpt lat="45.10928" lon="5.55505">
        <ele>1099.1</ele>
        <time>2022-08-12T11:45:23.000Z</time>
      </trkpt>
      <trkpt lat="45.10929" lon="5.55504">
        <ele>1099.3</ele>
        <time>2022-08-12T11:45:24.000Z</time>
      </trkpt>
      <trkpt lat="45.10931" lon="5.55504">
        <ele>1099.4</ele>
        <time>2022-08-12T11:45:25.000Z</time>
      </trkpt>
      <trkpt lat="45.10932" lon="5.55504">
        <ele>1099.5</ele>
        <time>2022-08-12T11:45:26.000Z</time>
      </trkpt>
      <trkpt lat="45.10934" lon="5.55504">
        <ele>1099.6</ele>
        <time>2022-08-12T11:45:27.000Z</time>
      </trkpt>
      <trkpt lat="45.10935" lon="5.55505">
        <ele>1099.6</ele>
        <time>2022-08-12T11:45:28.000Z</time>
      </trkpt>
      <trkpt lat="45.10936" lon="5.55505">
        <ele>1099.6</ele>
        <time>2022-08-12T11:45:29.000Z</time>
      </trkpt>
      <trkpt lat="45.10937" lon="5.55506">
        <ele>1099.6</ele>
        <time>2022-08-12T11:45:30.000Z</time>
      </trkpt>
      <trkpt lat="45.10938" lon="5.55506">
        <ele>1099.7</ele>
        <time>2022-08-12T11:45:31.000Z</time>
      </trkpt>
      <trkpt lat="45.10939" lon="5.55506">
        <ele>1099.8</ele>
        <time>2022-08-12T11:45:32.000Z</time>
      </trkpt>
      <trkpt lat="45.1094" lon="5.55505">
        <ele>1099.9</ele>
        <time>2022-08-12T11:45:33.000Z</time>
      </trkpt>
      <trkpt lat="45.10941" lon="5.55505">
        <ele>1100.1</ele>
        <time>2022-08-12T11:45:34.000Z</time>
      </trkpt>
      <trkpt lat="45.10943" lon="5.55504">
        <ele>1100.3</ele>
        <time>2022-08-12T11:45:35.000Z</time>
      </trkpt>
      <trkpt lat="45.10944" lon="5.55503">
        <ele>1100.5</ele>
        <time>2022-08-12T11:45:36.000Z</time>
      </trkpt>
      <trkpt lat="45.10945" lon="5.55503">
        <ele>1100.6</ele>
        <time>2022-08-12T11:45:37.000Z</time>
      </trkpt>
      <trkpt lat="45.10946" lon="5.55502">
        <ele>1100.8</ele>
        <time>2022-08-12T11:45:38.000Z</time>
      </trkpt>
      <trkpt lat="45.10947" lon="5.55501">
        <ele>1101</ele>
        <time>2022-08-12T11:45:39.000Z</time>
      </trkpt>
      <trkpt lat="45.10948" lon="5.55501">
        <ele>1101.2</ele>
        <time>2022-08-12T11:45:40.000Z</time>
      </trkpt>
      <trkpt lat="45.10949" lon="5.555">
        <ele>1101.3</ele>
        <time>2022-08-12T11:45:41.000Z</time>
      </trkpt>
      <trkpt lat="45.10951" lon="5.555">
        <ele>1101.5</ele>
        <time>2022-08-12T11:45:42.000Z</time>
      </trkpt>
      <trkpt lat="45.10952" lon="5.55499">
        <ele>1101.7</ele>
        <time>2022-08-12T11:45:43.000Z</time>
      </trkpt>
      <trkpt lat="45.10953" lon="5.55498">
        <ele>1101.8</ele>
        <time>2022-08-12T11:45:44.000Z</time>
      </trkpt>
      <trkpt lat="45.10954" lon="5.55498">
        <ele>1102</ele>
        <time>2022-08-12T11:45:45.000Z</time>
      </trkpt>
      <trkpt lat="45.10955" lon="5.55497">
        <ele>1102.2</ele>
        <time>2022-08-12T11:45:46.000Z</time>
      </trkpt>
      <trkpt lat="45.10956" lon="5.55497">
        <ele>1102.4</ele>
        <time>2022-08-12T11:45:47.000Z</time>
      </trkpt>
      <trkpt lat="45.10957" lon="5.55496">
        <ele>1102.5</ele>
        <time>2022-08-12T11:45:48.000Z</time>
      </trkpt>
      <trkpt lat="45.10959" lon="5.55496">
        <ele>1102.7</ele>
        <time>2022-08-12T11:45:49.000Z</time>
      </trkpt>
      <trkpt lat="45.1096" lon="5.55495">
        <ele>1102.9</ele>
        <time>2022-08-12T11:45:50.000Z</time>
      </trkpt>
      <trkpt lat="45.10961" lon="5.55495">
        <ele>1103.1</ele>
        <time>2022-08-12T11:45:51.000Z</time>
      </trkpt>
      <trkpt lat="45.10962" lon="5.55494">
        <ele>1103.3</ele>
        <time>2022-08-12T11:45:52.000Z</time>
      </trkpt>
      <trkpt lat="45.10964" lon="5.55494">
        <ele>1103.4</ele>
        <time>2022-08-12T11:45:53.000Z</time>
      </trkpt>
      <trkpt lat="45.10965" lon="5.55493">
        <ele>1103.6</ele>
        <time>2022-08-12T11:45:54.000Z</time>
      </trkpt>
      <trkpt lat="45.10966" lon="5.55493">
        <ele>1103.8</ele>
        <time>2022-08-12T11:45:55.000Z</time>
      </trkpt>
      <trkpt lat="45.10967" lon="5.55492">
        <ele>1103.9</ele>
        <time>2022-08-12T11:45:56.000Z</time>
      </trkpt>
      <trkpt lat="45.10968" lon="5.55492">
        <ele>1104.1</ele>
        <time>2022-08-12T11:45:57.000Z</time>
      </trkpt>
      <trkpt lat="45.10969" lon="5.55492">
        <ele>1104.2</ele>
        <time>2022-08-12T11:45:58.000Z</time>
      </trkpt>
      <trkpt lat="45.1097" lon="5.55492">
        <ele>1104.2</ele>
        <time>2022-08-12T11:45:59.000Z</time>
      </trkpt>
      <trkpt lat="45.10971" lon="5.55492">
        <ele>1104.3</ele>
        <time>2022-08-12T11:46:00.000Z</time>
      </trkpt>
      <trkpt lat="45.10972" lon="5.55492">
        <ele>1104.4</ele>
        <time>2022-08-12T11:46:01.000Z</time>
      </trkpt>
      <trkpt lat="45.10974" lon="5.55491">
        <ele>1104.7</ele>
        <time>2022-08-12T11:46:02.000Z</time>
      </trkpt>
      <trkpt lat="45.10975" lon="5.5549">
        <ele>1105</ele>
        <time>2022-08-12T11:46:03.000Z</time>
      </trkpt>
      <trkpt lat="45.10976" lon="5.5549">
        <ele>1105.2</ele>
        <time>2022-08-12T11:46:04.000Z</time>
      </trkpt>
      <trkpt lat="45.10977" lon="5.5549">
        <ele>1105.4</ele>
        <time>2022-08-12T11:46:05.000Z</time>
      </trkpt>
      <trkpt lat="45.10979" lon="5.5549">
        <ele>1105.6</ele>
        <time>2022-08-12T11:46:06.000Z</time>
      </trkpt>
      <trkpt lat="45.1098" lon="5.55489">
        <ele>1105.8</ele>
        <time>2022-08-12T11:46:07.000Z</time>
      </trkpt>
      <trkpt lat="45.10982" lon="5.55489">
        <ele>1105.9</ele>
        <time>2022-08-12T11:46:08.000Z</time>
      </trkpt>
      <trkpt lat="45.10984" lon="5.55489">
        <ele>1106.2</ele>
        <time>2022-08-12T11:46:10.000Z</time>
      </trkpt>
      <trkpt lat="45.10986" lon="5.55487">
        <ele>1106.7</ele>
        <time>2022-08-12T11:46:12.000Z</time>
      </trkpt>
      <trkpt lat="45.10987" lon="5.55487">
        <ele>1107</ele>
        <time>2022-08-12T11:46:13.000Z</time>
      </trkpt>
      <trkpt lat="45.10988" lon="5.55486">
        <ele>1107.3</ele>
        <time>2022-08-12T11:46:14.000Z</time>
      </trkpt>
      <trkpt lat="45.10989" lon="5.55485">
        <ele>1107.5</ele>
        <time>2022-08-12T11:46:15.000Z</time>
      </trkpt>
      <trkpt lat="45.1099" lon="5.55485">
        <ele>1107.7</ele>
        <time>2022-08-12T11:46:16.000Z</time>
      </trkpt>
      <trkpt lat="45.10992" lon="5.55485">
        <ele>1107.9</ele>
        <time>2022-08-12T11:46:17.000Z</time>
      </trkpt>
      <trkpt lat="45.10993" lon="5.55484">
        <ele>1108</ele>
        <time>2022-08-12T11:46:18.000Z</time>
      </trkpt>
      <trkpt lat="45.10994" lon="5.55484">
        <ele>1108.2</ele>
        <time>2022-08-12T11:46:19.000Z</time>
      </trkpt>
      <trkpt lat="45.10996" lon="5.55484">
        <ele>1108.5</ele>
        <time>2022-08-12T11:46:20.000Z</time>
      </trkpt>
      <trkpt lat="45.10997" lon="5.55483">
        <ele>1108.7</ele>
        <time>2022-08-12T11:46:21.000Z</time>
      </trkpt>
      <trkpt lat="45.10998" lon="5.55483">
        <ele>1108.9</ele>
        <time>2022-08-12T11:46:22.000Z</time>
      </trkpt>
      <trkpt lat="45.10999" lon="5.55482">
        <ele>1109.2</ele>
        <time>2022-08-12T11:46:23.000Z</time>
      </trkpt>
      <trkpt lat="45.11" lon="5.55481">
        <ele>1109.4</ele>
        <time>2022-08-12T11:46:24.000Z</time>
      </trkpt>
      <trkpt lat="45.11001" lon="5.55481">
        <ele>1109.7</ele>
        <time>2022-08-12T11:46:25.000Z</time>
      </trkpt>
      <trkpt lat="45.11003" lon="5.55481">
        <ele>1109.9</ele>
        <time>2022-08-12T11:46:26.000Z</time>
      </trkpt>
      <trkpt lat="45.11004" lon="5.55481">
        <ele>1110.1</ele>
        <time>2022-08-12T11:46:27.000Z</time>
      </trkpt>
      <trkpt lat="45.11005" lon="5.55481">
        <ele>1110.2</ele>
        <time>2022-08-12T11:46:28.000Z</time>
      </trkpt>
      <trkpt lat="45.11006" lon="5.55481">
        <ele>1110.5</ele>
        <time>2022-08-12T11:46:29.000Z</time>
      </trkpt>
      <trkpt lat="45.11007" lon="5.55481">
        <ele>1110.8</ele>
        <time>2022-08-12T11:46:30.000Z</time>
      </trkpt>
      <trkpt lat="45.11008" lon="5.5548">
        <ele>1111.1</ele>
        <time>2022-08-12T11:46:31.000Z</time>
      </trkpt>
      <trkpt lat="45.11009" lon="5.5548">
        <ele>1111.4</ele>
        <time>2022-08-12T11:46:32.000Z</time>
      </trkpt>
      <trkpt lat="45.1101" lon="5.55479">
        <ele>1111.7</ele>
        <time>2022-08-12T11:46:33.000Z</time>
      </trkpt>
      <trkpt lat="45.11011" lon="5.55479">
        <ele>1112</ele>
        <time>2022-08-12T11:46:34.000Z</time>
      </trkpt>
      <trkpt lat="45.11013" lon="5.55479">
        <ele>1112.3</ele>
        <time>2022-08-12T11:46:35.000Z</time>
      </trkpt>
      <trkpt lat="45.11014" lon="5.55479">
        <ele>1112.5</ele>
        <time>2022-08-12T11:46:36.000Z</time>
      </trkpt>
      <trkpt lat="45.11016" lon="5.55479">
        <ele>1112.7</ele>
        <time>2022-08-12T11:46:37.000Z</time>
      </trkpt>
      <trkpt lat="45.11017" lon="5.55479">
        <ele>1112.9</ele>
        <time>2022-08-12T11:46:38.000Z</time>
      </trkpt>
      <trkpt lat="45.11018" lon="5.5548">
        <ele>1113.1</ele>
        <time>2022-08-12T11:46:39.000Z</time>
      </trkpt>
      <trkpt lat="45.11019" lon="5.5548">
        <ele>1113.2</ele>
        <time>2022-08-12T11:46:40.000Z</time>
      </trkpt>
      <trkpt lat="45.1102" lon="5.55481">
        <ele>1113.3</ele>
        <time>2022-08-12T11:46:41.000Z</time>
      </trkpt>
      <trkpt lat="45.11022" lon="5.55482">
        <ele>1113.3</ele>
        <time>2022-08-12T11:46:42.000Z</time>
      </trkpt>
      <trkpt lat="45.11023" lon="5.55484">
        <ele>1113.3</ele>
        <time>2022-08-12T11:46:43.000Z</time>
      </trkpt>
      <trkpt lat="45.11024" lon="5.55485">
        <ele>1113.4</ele>
        <time>2022-08-12T11:46:44.000Z</time>
      </trkpt>
      <trkpt lat="45.11025" lon="5.55486">
        <ele>1113.5</ele>
        <time>2022-08-12T11:46:45.000Z</time>
      </trkpt>
      <trkpt lat="45.11026" lon="5.55487">
        <ele>1113.6</ele>
        <time>2022-08-12T11:46:46.000Z</time>
      </trkpt>
      <trkpt lat="45.11027" lon="5.55488">
        <ele>1113.5</ele>
        <time>2022-08-12T11:46:47.000Z</time>
      </trkpt>
      <trkpt lat="45.11027" lon="5.55489">
        <ele>1113.5</ele>
        <time>2022-08-12T11:46:48.000Z</time>
      </trkpt>
      <trkpt lat="45.11028" lon="5.5549">
        <ele>1113.4</ele>
        <time>2022-08-12T11:46:49.000Z</time>
      </trkpt>
      <trkpt lat="45.11029" lon="5.55491">
        <ele>1113.6</ele>
        <time>2022-08-12T11:46:50.000Z</time>
      </trkpt>
      <trkpt lat="45.1103" lon="5.55492">
        <ele>1113.7</ele>
        <time>2022-08-12T11:46:51.000Z</time>
      </trkpt>
      <trkpt lat="45.11031" lon="5.55493">
        <ele>1113.7</ele>
        <time>2022-08-12T11:46:52.000Z</time>
      </trkpt>
      <trkpt lat="45.11032" lon="5.55494">
        <ele>1113.8</ele>
        <time>2022-08-12T11:46:53.000Z</time>
      </trkpt>
      <trkpt lat="45.11033" lon="5.55495">
        <ele>1113.9</ele>
        <time>2022-08-12T11:46:54.000Z</time>
      </trkpt>
      <trkpt lat="45.11034" lon="5.55496">
        <ele>1113.8</ele>
        <time>2022-08-12T11:46:55.000Z</time>
      </trkpt>
      <trkpt lat="45.11034" lon="5.55497">
        <ele>1113.7</ele>
        <time>2022-08-12T11:46:56.000Z</time>
      </trkpt>
      <trkpt lat="45.11034" lon="5.55498">
        <ele>1113.7</ele>
        <time>2022-08-12T11:46:57.000Z</time>
      </trkpt>
      <trkpt lat="45.11035" lon="5.55499">
        <ele>1113.6</ele>
        <time>2022-08-12T11:46:58.000Z</time>
      </trkpt>
      <trkpt lat="45.11036" lon="5.555">
        <ele>1113.6</ele>
        <time>2022-08-12T11:47:00.000Z</time>
      </trkpt>
      <trkpt lat="45.11036" lon="5.55501">
        <ele>1113.7</ele>
        <time>2022-08-12T11:47:01.000Z</time>
      </trkpt>
      <trkpt lat="45.11037" lon="5.55503">
        <ele>1113.7</ele>
        <time>2022-08-12T11:47:02.000Z</time>
      </trkpt>
      <trkpt lat="45.11038" lon="5.55505">
        <ele>1113.8</ele>
        <time>2022-08-12T11:47:03.000Z</time>
      </trkpt>
      <trkpt lat="45.11039" lon="5.55506">
        <ele>1113.9</ele>
        <time>2022-08-12T11:47:04.000Z</time>
      </trkpt>
      <trkpt lat="45.1104" lon="5.55508">
        <ele>1114</ele>
        <time>2022-08-12T11:47:05.000Z</time>
      </trkpt>
      <trkpt lat="45.11041" lon="5.55508">
        <ele>1114.2</ele>
        <time>2022-08-12T11:47:06.000Z</time>
      </trkpt>
      <trkpt lat="45.11043" lon="5.55509">
        <ele>1114.4</ele>
        <time>2022-08-12T11:47:07.000Z</time>
      </trkpt>
      <trkpt lat="45.11044" lon="5.55509">
        <ele>1114.8</ele>
        <time>2022-08-12T11:47:08.000Z</time>
      </trkpt>
      <trkpt lat="45.11045" lon="5.55509">
        <ele>1115</ele>
        <time>2022-08-12T11:47:09.000Z</time>
      </trkpt>
      <trkpt lat="45.11047" lon="5.5551">
        <ele>1115.2</ele>
        <time>2022-08-12T11:47:10.000Z</time>
      </trkpt>
      <trkpt lat="45.11048" lon="5.55511">
        <ele>1115.5</ele>
        <time>2022-08-12T11:47:11.000Z</time>
      </trkpt>
      <trkpt lat="45.11049" lon="5.55512">
        <ele>1115.7</ele>
        <time>2022-08-12T11:47:12.000Z</time>
      </trkpt>
      <trkpt lat="45.1105" lon="5.55512">
        <ele>1115.9</ele>
        <time>2022-08-12T11:47:13.000Z</time>
      </trkpt>
      <trkpt lat="45.11052" lon="5.55513">
        <ele>1116.2</ele>
        <time>2022-08-12T11:47:14.000Z</time>
      </trkpt>
      <trkpt lat="45.11053" lon="5.55513">
        <ele>1116.5</ele>
        <time>2022-08-12T11:47:15.000Z</time>
      </trkpt>
      <trkpt lat="45.11054" lon="5.55514">
        <ele>1116.7</ele>
        <time>2022-08-12T11:47:16.000Z</time>
      </trkpt>
      <trkpt lat="45.11056" lon="5.55515">
        <ele>1116.9</ele>
        <time>2022-08-12T11:47:17.000Z</time>
      </trkpt>
      <trkpt lat="45.11057" lon="5.55516">
        <ele>1117.1</ele>
        <time>2022-08-12T11:47:18.000Z</time>
      </trkpt>
      <trkpt lat="45.11058" lon="5.55516">
        <ele>1117.3</ele>
        <time>2022-08-12T11:47:19.000Z</time>
      </trkpt>
      <trkpt lat="45.11059" lon="5.55517">
        <ele>1117.6</ele>
        <time>2022-08-12T11:47:20.000Z</time>
      </trkpt>
      <trkpt lat="45.1106" lon="5.55517">
        <ele>1117.8</ele>
        <time>2022-08-12T11:47:21.000Z</time>
      </trkpt>
      <trkpt lat="45.11062" lon="5.55518">
        <ele>1118.1</ele>
        <time>2022-08-12T11:47:22.000Z</time>
      </trkpt>
      <trkpt lat="45.11063" lon="5.55518">
        <ele>1118.3</ele>
        <time>2022-08-12T11:47:23.000Z</time>
      </trkpt>
      <trkpt lat="45.11064" lon="5.55517">
        <ele>1118.5</ele>
        <time>2022-08-12T11:47:24.000Z</time>
      </trkpt>
      <trkpt lat="45.11065" lon="5.55517">
        <ele>1118.9</ele>
        <time>2022-08-12T11:47:26.000Z</time>
      </trkpt>
      <trkpt lat="45.11066" lon="5.55515">
        <ele>1119.1</ele>
        <time>2022-08-12T11:47:27.000Z</time>
      </trkpt>
      <trkpt lat="45.11067" lon="5.55514">
        <ele>1119.4</ele>
        <time>2022-08-12T11:47:28.000Z</time>
      </trkpt>
      <trkpt lat="45.11067" lon="5.55513">
        <ele>1119.6</ele>
        <time>2022-08-12T11:47:29.000Z</time>
      </trkpt>
      <trkpt lat="45.11068" lon="5.55512">
        <ele>1119.8</ele>
        <time>2022-08-12T11:47:30.000Z</time>
      </trkpt>
      <trkpt lat="45.11068" lon="5.55511">
        <ele>1120</ele>
        <time>2022-08-12T11:47:31.000Z</time>
      </trkpt>
      <trkpt lat="45.11069" lon="5.5551">
        <ele>1120.2</ele>
        <time>2022-08-12T11:47:32.000Z</time>
      </trkpt>
      <trkpt lat="45.1107" lon="5.5551">
        <ele>1120.4</ele>
        <time>2022-08-12T11:47:33.000Z</time>
      </trkpt>
      <trkpt lat="45.11071" lon="5.55508">
        <ele>1120.7</ele>
        <time>2022-08-12T11:47:34.000Z</time>
      </trkpt>
      <trkpt lat="45.11072" lon="5.55508">
        <ele>1121</ele>
        <time>2022-08-12T11:47:35.000Z</time>
      </trkpt>
      <trkpt lat="45.11073" lon="5.55507">
        <ele>1121.3</ele>
        <time>2022-08-12T11:47:36.000Z</time>
      </trkpt>
      <trkpt lat="45.11075" lon="5.55507">
        <ele>1121.6</ele>
        <time>2022-08-12T11:47:37.000Z</time>
      </trkpt>
      <trkpt lat="45.11076" lon="5.55506">
        <ele>1121.9</ele>
        <time>2022-08-12T11:47:38.000Z</time>
      </trkpt>
      <trkpt lat="45.11077" lon="5.55506">
        <ele>1122.2</ele>
        <time>2022-08-12T11:47:39.000Z</time>
      </trkpt>
      <trkpt lat="45.11078" lon="5.55505">
        <ele>1122.5</ele>
        <time>2022-08-12T11:47:40.000Z</time>
      </trkpt>
      <trkpt lat="45.1108" lon="5.55506">
        <ele>1122.8</ele>
        <time>2022-08-12T11:47:41.000Z</time>
      </trkpt>
      <trkpt lat="45.11081" lon="5.55505">
        <ele>1123.1</ele>
        <time>2022-08-12T11:47:42.000Z</time>
      </trkpt>
      <trkpt lat="45.11082" lon="5.55505">
        <ele>1123.4</ele>
        <time>2022-08-12T11:47:43.000Z</time>
      </trkpt>
      <trkpt lat="45.11083" lon="5.55505">
        <ele>1123.7</ele>
        <time>2022-08-12T11:47:44.000Z</time>
      </trkpt>
      <trkpt lat="45.11085" lon="5.55505">
        <ele>1123.9</ele>
        <time>2022-08-12T11:47:45.000Z</time>
      </trkpt>
      <trkpt lat="45.11086" lon="5.55505">
        <ele>1124.1</ele>
        <time>2022-08-12T11:47:46.000Z</time>
      </trkpt>
      <trkpt lat="45.11087" lon="5.55506">
        <ele>1124.3</ele>
        <time>2022-08-12T11:47:47.000Z</time>
      </trkpt>
      <trkpt lat="45.11089" lon="5.55506">
        <ele>1124.5</ele>
        <time>2022-08-12T11:47:48.000Z</time>
      </trkpt>
      <trkpt lat="45.1109" lon="5.55506">
        <ele>1124.7</ele>
        <time>2022-08-12T11:47:49.000Z</time>
      </trkpt>
      <trkpt lat="45.11091" lon="5.55506">
        <ele>1124.9</ele>
        <time>2022-08-12T11:47:50.000Z</time>
      </trkpt>
      <trkpt lat="45.11092" lon="5.55506">
        <ele>1125.1</ele>
        <time>2022-08-12T11:47:51.000Z</time>
      </trkpt>
      <trkpt lat="45.11094" lon="5.55506">
        <ele>1125.4</ele>
        <time>2022-08-12T11:47:52.000Z</time>
      </trkpt>
      <trkpt lat="45.11095" lon="5.55507">
        <ele>1125.5</ele>
        <time>2022-08-12T11:47:53.000Z</time>
      </trkpt>
      <trkpt lat="45.11096" lon="5.55507">
        <ele>1125.7</ele>
        <time>2022-08-12T11:47:54.000Z</time>
      </trkpt>
      <trkpt lat="45.11097" lon="5.55508">
        <ele>1125.8</ele>
        <time>2022-08-12T11:47:55.000Z</time>
      </trkpt>
      <trkpt lat="45.11099" lon="5.55509">
        <ele>1126</ele>
        <time>2022-08-12T11:47:56.000Z</time>
      </trkpt>
      <trkpt lat="45.111" lon="5.55509">
        <ele>1126</ele>
        <time>2022-08-12T11:47:57.000Z</time>
      </trkpt>
      <trkpt lat="45.111" lon="5.5551">
        <ele>1126.1</ele>
        <time>2022-08-12T11:47:58.000Z</time>
      </trkpt>
      <trkpt lat="45.11101" lon="5.55511">
        <ele>1126.2</ele>
        <time>2022-08-12T11:47:59.000Z</time>
      </trkpt>
      <trkpt lat="45.11102" lon="5.55512">
        <ele>1126.2</ele>
        <time>2022-08-12T11:48:00.000Z</time>
      </trkpt>
      <trkpt lat="45.11103" lon="5.55513">
        <ele>1126.3</ele>
        <time>2022-08-12T11:48:01.000Z</time>
      </trkpt>
      <trkpt lat="45.11104" lon="5.55514">
        <ele>1126.3</ele>
        <time>2022-08-12T11:48:02.000Z</time>
      </trkpt>
      <trkpt lat="45.11105" lon="5.55515">
        <ele>1126.4</ele>
        <time>2022-08-12T11:48:03.000Z</time>
      </trkpt>
      <trkpt lat="45.11106" lon="5.55516">
        <ele>1126.5</ele>
        <time>2022-08-12T11:48:04.000Z</time>
      </trkpt>
      <trkpt lat="45.11108" lon="5.55517">
        <ele>1126.6</ele>
        <time>2022-08-12T11:48:05.000Z</time>
      </trkpt>
      <trkpt lat="45.11109" lon="5.55518">
        <ele>1126.6</ele>
        <time>2022-08-12T11:48:06.000Z</time>
      </trkpt>
      <trkpt lat="45.11109" lon="5.55519">
        <ele>1126.7</ele>
        <time>2022-08-12T11:48:07.000Z</time>
      </trkpt>
      <trkpt lat="45.1111" lon="5.5552">
        <ele>1126.7</ele>
        <time>2022-08-12T11:48:08.000Z</time>
      </trkpt>
      <trkpt lat="45.11111" lon="5.55521">
        <ele>1126.8</ele>
        <time>2022-08-12T11:48:09.000Z</time>
      </trkpt>
      <trkpt lat="45.11113" lon="5.55522">
        <ele>1126.8</ele>
        <time>2022-08-12T11:48:10.000Z</time>
      </trkpt>
      <trkpt lat="45.11114" lon="5.55523">
        <ele>1126.9</ele>
        <time>2022-08-12T11:48:11.000Z</time>
      </trkpt>
      <trkpt lat="45.11115" lon="5.55524">
        <ele>1127</ele>
        <time>2022-08-12T11:48:12.000Z</time>
      </trkpt>
      <trkpt lat="45.11116" lon="5.55525">
        <ele>1127.1</ele>
        <time>2022-08-12T11:48:13.000Z</time>
      </trkpt>
      <trkpt lat="45.11118" lon="5.55526">
        <ele>1127.2</ele>
        <time>2022-08-12T11:48:14.000Z</time>
      </trkpt>
      <trkpt lat="45.11119" lon="5.55526">
        <ele>1127.3</ele>
        <time>2022-08-12T11:48:15.000Z</time>
      </trkpt>
      <trkpt lat="45.11121" lon="5.55528">
        <ele>1127.4</ele>
        <time>2022-08-12T11:48:16.000Z</time>
      </trkpt>
      <trkpt lat="45.11122" lon="5.55529">
        <ele>1127.4</ele>
        <time>2022-08-12T11:48:17.000Z</time>
      </trkpt>
      <trkpt lat="45.11123" lon="5.5553">
        <ele>1127.5</ele>
        <time>2022-08-12T11:48:18.000Z</time>
      </trkpt>
      <trkpt lat="45.11125" lon="5.55531">
        <ele>1127.6</ele>
        <time>2022-08-12T11:48:19.000Z</time>
      </trkpt>
      <trkpt lat="45.11126" lon="5.55531">
        <ele>1127.7</ele>
        <time>2022-08-12T11:48:20.000Z</time>
      </trkpt>
      <trkpt lat="45.11128" lon="5.55532">
        <ele>1127.9</ele>
        <time>2022-08-12T11:48:21.000Z</time>
      </trkpt>
      <trkpt lat="45.11129" lon="5.55533">
        <ele>1127.9</ele>
        <time>2022-08-12T11:48:22.000Z</time>
      </trkpt>
      <trkpt lat="45.11131" lon="5.55534">
        <ele>1128</ele>
        <time>2022-08-12T11:48:23.000Z</time>
      </trkpt>
      <trkpt lat="45.11133" lon="5.55535">
        <ele>1128.1</ele>
        <time>2022-08-12T11:48:24.000Z</time>
      </trkpt>
      <trkpt lat="45.11134" lon="5.55537">
        <ele>1128</ele>
        <time>2022-08-12T11:48:25.000Z</time>
      </trkpt>
      <trkpt lat="45.11136" lon="5.5554">
        <ele>1127.9</ele>
        <time>2022-08-12T11:48:26.000Z</time>
      </trkpt>
      <trkpt lat="45.11138" lon="5.55542">
        <ele>1127.9</ele>
        <time>2022-08-12T11:48:27.000Z</time>
      </trkpt>
      <trkpt lat="45.1114" lon="5.55544">
        <ele>1127.8</ele>
        <time>2022-08-12T11:48:28.000Z</time>
      </trkpt>
      <trkpt lat="45.11141" lon="5.55545">
        <ele>1127.8</ele>
        <time>2022-08-12T11:48:29.000Z</time>
      </trkpt>
      <trkpt lat="45.11143" lon="5.55547">
        <ele>1127.7</ele>
        <time>2022-08-12T11:48:30.000Z</time>
      </trkpt>
      <trkpt lat="45.1115" lon="5.55553">
        <ele>1127.5</ele>
        <time>2022-08-12T11:48:34.000Z</time>
      </trkpt>
      <trkpt lat="45.11155" lon="5.55559">
        <ele>1127.2</ele>
        <time>2022-08-12T11:48:37.000Z</time>
      </trkpt>
      <trkpt lat="45.11156" lon="5.55561">
        <ele>1127.1</ele>
        <time>2022-08-12T11:48:38.000Z</time>
      </trkpt>
      <trkpt lat="45.11158" lon="5.55563">
        <ele>1127</ele>
        <time>2022-08-12T11:48:39.000Z</time>
      </trkpt>
      <trkpt lat="45.11164" lon="5.55567">
        <ele>1127.1</ele>
        <time>2022-08-12T11:48:42.000Z</time>
      </trkpt>
      <trkpt lat="45.11166" lon="5.55568">
        <ele>1127.1</ele>
        <time>2022-08-12T11:48:43.000Z</time>
      </trkpt>
      <trkpt lat="45.11167" lon="5.55569">
        <ele>1127.2</ele>
        <time>2022-08-12T11:48:44.000Z</time>
      </trkpt>
      <trkpt lat="45.11169" lon="5.5557">
        <ele>1127.1</ele>
        <time>2022-08-12T11:48:45.000Z</time>
      </trkpt>
      <trkpt lat="45.1117" lon="5.55571">
        <ele>1127.1</ele>
        <time>2022-08-12T11:48:46.000Z</time>
      </trkpt>
      <trkpt lat="45.11172" lon="5.55571">
        <ele>1127.1</ele>
        <time>2022-08-12T11:48:47.000Z</time>
      </trkpt>
      <trkpt lat="45.11174" lon="5.55572">
        <ele>1127.1</ele>
        <time>2022-08-12T11:48:49.000Z</time>
      </trkpt>
      <trkpt lat="45.11175" lon="5.55573">
        <ele>1127.1</ele>
        <time>2022-08-12T11:48:50.000Z</time>
      </trkpt>
      <trkpt lat="45.11176" lon="5.55574">
        <ele>1127</ele>
        <time>2022-08-12T11:48:51.000Z</time>
      </trkpt>
      <trkpt lat="45.11177" lon="5.55575">
        <ele>1127</ele>
        <time>2022-08-12T11:48:52.000Z</time>
      </trkpt>
      <trkpt lat="45.11178" lon="5.55575">
        <ele>1127</ele>
        <time>2022-08-12T11:48:53.000Z</time>
      </trkpt>
      <trkpt lat="45.11179" lon="5.55573">
        <ele>1127.3</ele>
        <time>2022-08-12T11:49:19.000Z</time>
      </trkpt>
      <trkpt lat="45.11181" lon="5.55578">
        <ele>1126.8</ele>
        <time>2022-08-12T11:49:33.000Z</time>
      </trkpt>
      <trkpt lat="45.11183" lon="5.55581">
        <ele>1126.5</ele>
        <time>2022-08-12T11:49:34.000Z</time>
      </trkpt>
      <trkpt lat="45.11186" lon="5.55585">
        <ele>1126.3</ele>
        <time>2022-08-12T11:49:35.000Z</time>
      </trkpt>
      <trkpt lat="45.1119" lon="5.55588">
        <ele>1126.2</ele>
        <time>2022-08-12T11:49:36.000Z</time>
      </trkpt>
      <trkpt lat="45.112" lon="5.55595">
        <ele>1125.5</ele>
        <time>2022-08-12T11:49:39.000Z</time>
      </trkpt>
      <trkpt lat="45.11203" lon="5.55597">
        <ele>1125.2</ele>
        <time>2022-08-12T11:49:40.000Z</time>
      </trkpt>
      <trkpt lat="45.1121" lon="5.55602">
        <ele>1124.4</ele>
        <time>2022-08-12T11:49:42.000Z</time>
      </trkpt>
      <trkpt lat="45.11213" lon="5.55604">
        <ele>1124.1</ele>
        <time>2022-08-12T11:49:43.000Z</time>
      </trkpt>
      <trkpt lat="45.11216" lon="5.55605">
        <ele>1123.9</ele>
        <time>2022-08-12T11:49:44.000Z</time>
      </trkpt>
      <trkpt lat="45.11219" lon="5.55607">
        <ele>1123.6</ele>
        <time>2022-08-12T11:49:45.000Z</time>
      </trkpt>
      <trkpt lat="45.11221" lon="5.55609">
        <ele>1123.3</ele>
        <time>2022-08-12T11:49:46.000Z</time>
      </trkpt>
      <trkpt lat="45.11223" lon="5.55611">
        <ele>1122.9</ele>
        <time>2022-08-12T11:49:47.000Z</time>
      </trkpt>
      <trkpt lat="45.11225" lon="5.55612">
        <ele>1122.5</ele>
        <time>2022-08-12T11:49:48.000Z</time>
      </trkpt>
      <trkpt lat="45.11227" lon="5.55614">
        <ele>1122.1</ele>
        <time>2022-08-12T11:49:49.000Z</time>
      </trkpt>
      <trkpt lat="45.11228" lon="5.55616">
        <ele>1121.7</ele>
        <time>2022-08-12T11:49:50.000Z</time>
      </trkpt>
      <trkpt lat="45.1123" lon="5.55619">
        <ele>1121.1</ele>
        <time>2022-08-12T11:49:51.000Z</time>
      </trkpt>
      <trkpt lat="45.11231" lon="5.55622">
        <ele>1120.4</ele>
        <time>2022-08-12T11:49:52.000Z</time>
      </trkpt>
      <trkpt lat="45.11235" lon="5.5563">
        <ele>1118.9</ele>
        <time>2022-08-12T11:49:54.000Z</time>
      </trkpt>
      <trkpt lat="45.11237" lon="5.55634">
        <ele>1118.1</ele>
        <time>2022-08-12T11:49:55.000Z</time>
      </trkpt>
      <trkpt lat="45.11241" lon="5.55644">
        <ele>1116.3</ele>
        <time>2022-08-12T11:49:57.000Z</time>
      </trkpt>
      <trkpt lat="45.11242" lon="5.55649">
        <ele>1115.4</ele>
        <time>2022-08-12T11:49:58.000Z</time>
      </trkpt>
      <trkpt lat="45.11244" lon="5.55652">
        <ele>1114.7</ele>
        <time>2022-08-12T11:49:59.000Z</time>
      </trkpt>
      <trkpt lat="45.11246" lon="5.55655">
        <ele>1114.1</ele>
        <time>2022-08-12T11:50:00.000Z</time>
      </trkpt>
      <trkpt lat="45.11249" lon="5.55655">
        <ele>1113.8</ele>
        <time>2022-08-12T11:50:01.000Z</time>
      </trkpt>
      <trkpt lat="45.11253" lon="5.55653">
        <ele>1114.1</ele>
        <time>2022-08-12T11:50:02.000Z</time>
      </trkpt>
      <trkpt lat="45.11262" lon="5.55646">
        <ele>1115.3</ele>
        <time>2022-08-12T11:50:04.000Z</time>
      </trkpt>
      <trkpt lat="45.11272" lon="5.55644">
        <ele>1115.7</ele>
        <time>2022-08-12T11:50:06.000Z</time>
      </trkpt>
      <trkpt lat="45.11277" lon="5.55646">
        <ele>1115.7</ele>
        <time>2022-08-12T11:50:07.000Z</time>
      </trkpt>
      <trkpt lat="45.1128" lon="5.5565">
        <ele>1116.1</ele>
        <time>2022-08-12T11:50:08.000Z</time>
      </trkpt>
      <trkpt lat="45.11283" lon="5.55652">
        <ele>1116.5</ele>
        <time>2022-08-12T11:50:09.000Z</time>
      </trkpt>
      <trkpt lat="45.11285" lon="5.55655">
        <ele>1116.8</ele>
        <time>2022-08-12T11:50:10.000Z</time>
      </trkpt>
      <trkpt lat="45.11287" lon="5.55657">
        <ele>1117</ele>
        <time>2022-08-12T11:50:11.000Z</time>
      </trkpt>
      <trkpt lat="45.11287" lon="5.55659">
        <ele>1117</ele>
        <time>2022-08-12T11:50:12.000Z</time>
      </trkpt>
      <trkpt lat="45.11288" lon="5.55661">
        <ele>1117.1</ele>
        <time>2022-08-12T11:50:13.000Z</time>
      </trkpt>
      <trkpt lat="45.1129" lon="5.55662">
        <ele>1117.3</ele>
        <time>2022-08-12T11:50:14.000Z</time>
      </trkpt>
      <trkpt lat="45.11291" lon="5.55663">
        <ele>1117.5</ele>
        <time>2022-08-12T11:50:15.000Z</time>
      </trkpt>
      <trkpt lat="45.11292" lon="5.55664">
        <ele>1117.6</ele>
        <time>2022-08-12T11:50:16.000Z</time>
      </trkpt>
      <trkpt lat="45.11292" lon="5.55665">
        <ele>1117.6</ele>
        <time>2022-08-12T11:50:17.000Z</time>
      </trkpt>
      <trkpt lat="45.11293" lon="5.55666">
        <ele>1117.7</ele>
        <time>2022-08-12T11:50:18.000Z</time>
      </trkpt>
      <trkpt lat="45.11294" lon="5.55668">
        <ele>1117.9</ele>
        <time>2022-08-12T11:50:19.000Z</time>
      </trkpt>
      <trkpt lat="45.11295" lon="5.55669">
        <ele>1118</ele>
        <time>2022-08-12T11:50:20.000Z</time>
      </trkpt>
      <trkpt lat="45.11295" lon="5.55671">
        <ele>1118.1</ele>
        <time>2022-08-12T11:50:21.000Z</time>
      </trkpt>
      <trkpt lat="45.11296" lon="5.55672">
        <ele>1118.3</ele>
        <time>2022-08-12T11:50:22.000Z</time>
      </trkpt>
      <trkpt lat="45.11297" lon="5.55674">
        <ele>1118.4</ele>
        <time>2022-08-12T11:50:23.000Z</time>
      </trkpt>
      <trkpt lat="45.11297" lon="5.55676">
        <ele>1118.5</ele>
        <time>2022-08-12T11:50:24.000Z</time>
      </trkpt>
      <trkpt lat="45.11298" lon="5.55677">
        <ele>1118.6</ele>
        <time>2022-08-12T11:50:25.000Z</time>
      </trkpt>
      <trkpt lat="45.11299" lon="5.55679">
        <ele>1118.8</ele>
        <time>2022-08-12T11:50:26.000Z</time>
      </trkpt>
      <trkpt lat="45.11299" lon="5.5568">
        <ele>1118.8</ele>
        <time>2022-08-12T11:50:27.000Z</time>
      </trkpt>
      <trkpt lat="45.113" lon="5.55682">
        <ele>1119</ele>
        <time>2022-08-12T11:50:29.000Z</time>
      </trkpt>
      <trkpt lat="45.11302" lon="5.55685">
        <ele>1119.3</ele>
        <time>2022-08-12T11:50:31.000Z</time>
      </trkpt>
      <trkpt lat="45.11303" lon="5.55687">
        <ele>1119.5</ele>
        <time>2022-08-12T11:50:32.000Z</time>
      </trkpt>
      <trkpt lat="45.11303" lon="5.55688">
        <ele>1119.6</ele>
        <time>2022-08-12T11:50:33.000Z</time>
      </trkpt>
      <trkpt lat="45.11304" lon="5.55693">
        <ele>1119.8</ele>
        <time>2022-08-12T11:50:37.000Z</time>
      </trkpt>
      <trkpt lat="45.11305" lon="5.55694">
        <ele>1119.9</ele>
        <time>2022-08-12T11:50:38.000Z</time>
      </trkpt>
      <trkpt lat="45.11305" lon="5.55695">
        <ele>1120</ele>
        <time>2022-08-12T11:50:39.000Z</time>
      </trkpt>
      <trkpt lat="45.11306" lon="5.55697">
        <ele>1120</ele>
        <time>2022-08-12T11:50:40.000Z</time>
      </trkpt>
      <trkpt lat="45.11306" lon="5.55698">
        <ele>1120.1</ele>
        <time>2022-08-12T11:50:41.000Z</time>
      </trkpt>
      <trkpt lat="45.11307" lon="5.557">
        <ele>1120.2</ele>
        <time>2022-08-12T11:50:42.000Z</time>
      </trkpt>
      <trkpt lat="45.11308" lon="5.55701">
        <ele>1120.4</ele>
        <time>2022-08-12T11:50:43.000Z</time>
      </trkpt>
      <trkpt lat="45.11308" lon="5.55703">
        <ele>1120.5</ele>
        <time>2022-08-12T11:50:44.000Z</time>
      </trkpt>
      <trkpt lat="45.11309" lon="5.55705">
        <ele>1120.6</ele>
        <time>2022-08-12T11:50:45.000Z</time>
      </trkpt>
      <trkpt lat="45.11309" lon="5.55707">
        <ele>1120.7</ele>
        <time>2022-08-12T11:50:46.000Z</time>
      </trkpt>
      <trkpt lat="45.1131" lon="5.55708">
        <ele>1120.8</ele>
        <time>2022-08-12T11:50:47.000Z</time>
      </trkpt>
      <trkpt lat="45.1131" lon="5.5571">
        <ele>1120.8</ele>
        <time>2022-08-12T11:50:48.000Z</time>
      </trkpt>
      <trkpt lat="45.11311" lon="5.55711">
        <ele>1120.9</ele>
        <time>2022-08-12T11:50:49.000Z</time>
      </trkpt>
      <trkpt lat="45.11311" lon="5.55713">
        <ele>1121</ele>
        <time>2022-08-12T11:50:50.000Z</time>
      </trkpt>
      <trkpt lat="45.11311" lon="5.55714">
        <ele>1121.1</ele>
        <time>2022-08-12T11:50:51.000Z</time>
      </trkpt>
      <trkpt lat="45.11312" lon="5.55716">
        <ele>1121.2</ele>
        <time>2022-08-12T11:50:52.000Z</time>
      </trkpt>
      <trkpt lat="45.11313" lon="5.55718">
        <ele>1121.3</ele>
        <time>2022-08-12T11:50:53.000Z</time>
      </trkpt>
      <trkpt lat="45.11313" lon="5.5572">
        <ele>1121.3</ele>
        <time>2022-08-12T11:50:54.000Z</time>
      </trkpt>
      <trkpt lat="45.11313" lon="5.55722">
        <ele>1121.4</ele>
        <time>2022-08-12T11:50:55.000Z</time>
      </trkpt>
      <trkpt lat="45.11314" lon="5.55724">
        <ele>1121.5</ele>
        <time>2022-08-12T11:50:56.000Z</time>
      </trkpt>
      <trkpt lat="45.11314" lon="5.55725">
        <ele>1121.5</ele>
        <time>2022-08-12T11:50:57.000Z</time>
      </trkpt>
      <trkpt lat="45.11314" lon="5.55727">
        <ele>1121.5</ele>
        <time>2022-08-12T11:50:58.000Z</time>
      </trkpt>
      <trkpt lat="45.11314" lon="5.55728">
        <ele>1121.6</ele>
        <time>2022-08-12T11:50:59.000Z</time>
      </trkpt>
      <trkpt lat="45.11315" lon="5.5573">
        <ele>1121.6</ele>
        <time>2022-08-12T11:51:00.000Z</time>
      </trkpt>
      <trkpt lat="45.11315" lon="5.55732">
        <ele>1121.7</ele>
        <time>2022-08-12T11:51:01.000Z</time>
      </trkpt>
      <trkpt lat="45.11315" lon="5.55733">
        <ele>1121.8</ele>
        <time>2022-08-12T11:51:02.000Z</time>
      </trkpt>
      <trkpt lat="45.11316" lon="5.55735">
        <ele>1121.9</ele>
        <time>2022-08-12T11:51:03.000Z</time>
      </trkpt>
      <trkpt lat="45.11317" lon="5.55737">
        <ele>1122</ele>
        <time>2022-08-12T11:51:04.000Z</time>
      </trkpt>
      <trkpt lat="45.11318" lon="5.55739">
        <ele>1122.2</ele>
        <time>2022-08-12T11:51:05.000Z</time>
      </trkpt>
      <trkpt lat="45.11318" lon="5.5574">
        <ele>1122.3</ele>
        <time>2022-08-12T11:51:06.000Z</time>
      </trkpt>
      <trkpt lat="45.11319" lon="5.55742">
        <ele>1122.5</ele>
        <time>2022-08-12T11:51:07.000Z</time>
      </trkpt>
      <trkpt lat="45.1132" lon="5.55743">
        <ele>1122.6</ele>
        <time>2022-08-12T11:51:08.000Z</time>
      </trkpt>
      <trkpt lat="45.1132" lon="5.55744">
        <ele>1122.7</ele>
        <time>2022-08-12T11:51:09.000Z</time>
      </trkpt>
      <trkpt lat="45.11325" lon="5.55755">
        <ele>1123.5</ele>
        <time>2022-08-12T11:51:15.000Z</time>
      </trkpt>
      <trkpt lat="45.11326" lon="5.55756">
        <ele>1123.6</ele>
        <time>2022-08-12T11:51:16.000Z</time>
      </trkpt>
      <trkpt lat="45.11327" lon="5.55758">
        <ele>1123.8</ele>
        <time>2022-08-12T11:51:17.000Z</time>
      </trkpt>
      <trkpt lat="45.11333" lon="5.55765">
        <ele>1124.9</ele>
        <time>2022-08-12T11:51:23.000Z</time>
      </trkpt>
      <trkpt lat="45.11334" lon="5.55766">
        <ele>1125</ele>
        <time>2022-08-12T11:51:24.000Z</time>
      </trkpt>
      <trkpt lat="45.11335" lon="5.55766">
        <ele>1125.1</ele>
        <time>2022-08-12T11:51:25.000Z</time>
      </trkpt>
      <trkpt lat="45.11336" lon="5.55767">
        <ele>1125.2</ele>
        <time>2022-08-12T11:51:26.000Z</time>
      </trkpt>
      <trkpt lat="45.11337" lon="5.55769">
        <ele>1125.3</ele>
        <time>2022-08-12T11:51:27.000Z</time>
      </trkpt>
      <trkpt lat="45.11338" lon="5.5577">
        <ele>1125.4</ele>
        <time>2022-08-12T11:51:28.000Z</time>
      </trkpt>
      <trkpt lat="45.1134" lon="5.55771">
        <ele>1125.5</ele>
        <time>2022-08-12T11:51:29.000Z</time>
      </trkpt>
      <trkpt lat="45.11341" lon="5.55772">
        <ele>1125.5</ele>
        <time>2022-08-12T11:51:30.000Z</time>
      </trkpt>
      <trkpt lat="45.11342" lon="5.55773">
        <ele>1125.6</ele>
        <time>2022-08-12T11:51:31.000Z</time>
      </trkpt>
      <trkpt lat="45.11343" lon="5.55774">
        <ele>1125.7</ele>
        <time>2022-08-12T11:51:32.000Z</time>
      </trkpt>
      <trkpt lat="45.11345" lon="5.55775">
        <ele>1125.8</ele>
        <time>2022-08-12T11:51:33.000Z</time>
      </trkpt>
      <trkpt lat="45.11346" lon="5.55777">
        <ele>1125.9</ele>
        <time>2022-08-12T11:51:34.000Z</time>
      </trkpt>
      <trkpt lat="45.11347" lon="5.55778">
        <ele>1126</ele>
        <time>2022-08-12T11:51:35.000Z</time>
      </trkpt>
      <trkpt lat="45.11349" lon="5.55779">
        <ele>1126</ele>
        <time>2022-08-12T11:51:36.000Z</time>
      </trkpt>
      <trkpt lat="45.1135" lon="5.55781">
        <ele>1125.9</ele>
        <time>2022-08-12T11:51:37.000Z</time>
      </trkpt>
      <trkpt lat="45.11351" lon="5.55783">
        <ele>1125.9</ele>
        <time>2022-08-12T11:51:38.000Z</time>
      </trkpt>
      <trkpt lat="45.11352" lon="5.55785">
        <ele>1125.9</ele>
        <time>2022-08-12T11:51:39.000Z</time>
      </trkpt>
      <trkpt lat="45.11353" lon="5.55786">
        <ele>1125.8</ele>
        <time>2022-08-12T11:51:40.000Z</time>
      </trkpt>
      <trkpt lat="45.11355" lon="5.55788">
        <ele>1125.8</ele>
        <time>2022-08-12T11:51:41.000Z</time>
      </trkpt>
      <trkpt lat="45.11356" lon="5.5579">
        <ele>1125.8</ele>
        <time>2022-08-12T11:51:42.000Z</time>
      </trkpt>
      <trkpt lat="45.11358" lon="5.55792">
        <ele>1125.8</ele>
        <time>2022-08-12T11:51:43.000Z</time>
      </trkpt>
      <trkpt lat="45.11359" lon="5.55793">
        <ele>1125.7</ele>
        <time>2022-08-12T11:51:44.000Z</time>
      </trkpt>
      <trkpt lat="45.1136" lon="5.55795">
        <ele>1125.7</ele>
        <time>2022-08-12T11:51:45.000Z</time>
      </trkpt>
      <trkpt lat="45.11361" lon="5.55797">
        <ele>1125.6</ele>
        <time>2022-08-12T11:51:46.000Z</time>
      </trkpt>
      <trkpt lat="45.11363" lon="5.55798">
        <ele>1125.5</ele>
        <time>2022-08-12T11:51:47.000Z</time>
      </trkpt>
      <trkpt lat="45.11364" lon="5.558">
        <ele>1125.4</ele>
        <time>2022-08-12T11:51:48.000Z</time>
      </trkpt>
      <trkpt lat="45.11366" lon="5.55801">
        <ele>1125.4</ele>
        <time>2022-08-12T11:51:49.000Z</time>
      </trkpt>
      <trkpt lat="45.11368" lon="5.55801">
        <ele>1125.3</ele>
        <time>2022-08-12T11:51:50.000Z</time>
      </trkpt>
      <trkpt lat="45.11369" lon="5.55802">
        <ele>1125.2</ele>
        <time>2022-08-12T11:51:51.000Z</time>
      </trkpt>
      <trkpt lat="45.11371" lon="5.55804">
        <ele>1125.1</ele>
        <time>2022-08-12T11:51:52.000Z</time>
      </trkpt>
      <trkpt lat="45.11378" lon="5.55809">
        <ele>1124.6</ele>
        <time>2022-08-12T11:51:57.000Z</time>
      </trkpt>
      <trkpt lat="45.11382" lon="5.55811">
        <ele>1124.4</ele>
        <time>2022-08-12T11:51:59.000Z</time>
      </trkpt>
      <trkpt lat="45.11384" lon="5.55814">
        <ele>1124.1</ele>
        <time>2022-08-12T11:52:00.000Z</time>
      </trkpt>
      <trkpt lat="45.11387" lon="5.55816">
        <ele>1123.9</ele>
        <time>2022-08-12T11:52:01.000Z</time>
      </trkpt>
      <trkpt lat="45.11391" lon="5.55818">
        <ele>1123.5</ele>
        <time>2022-08-12T11:52:02.000Z</time>
      </trkpt>
      <trkpt lat="45.11402" lon="5.55826">
        <ele>1122.3</ele>
        <time>2022-08-12T11:52:06.000Z</time>
      </trkpt>
      <trkpt lat="45.11404" lon="5.55827">
        <ele>1122.1</ele>
        <time>2022-08-12T11:52:07.000Z</time>
      </trkpt>
      <trkpt lat="45.11405" lon="5.55829">
        <ele>1121.9</ele>
        <time>2022-08-12T11:52:08.000Z</time>
      </trkpt>
      <trkpt lat="45.11407" lon="5.55829">
        <ele>1121.8</ele>
        <time>2022-08-12T11:52:09.000Z</time>
      </trkpt>
      <trkpt lat="45.11409" lon="5.55829">
        <ele>1121.7</ele>
        <time>2022-08-12T11:52:10.000Z</time>
      </trkpt>
      <trkpt lat="45.11411" lon="5.5583">
        <ele>1121.6</ele>
        <time>2022-08-12T11:52:11.000Z</time>
      </trkpt>
      <trkpt lat="45.11414" lon="5.5583">
        <ele>1121.4</ele>
        <time>2022-08-12T11:52:49.000Z</time>
      </trkpt>
      <trkpt lat="45.11415" lon="5.55832">
        <ele>1121.1</ele>
        <time>2022-08-12T11:52:50.000Z</time>
      </trkpt>
      <trkpt lat="45.11417" lon="5.55836">
        <ele>1120.6</ele>
        <time>2022-08-12T11:52:51.000Z</time>
      </trkpt>
      <trkpt lat="45.11421" lon="5.5584">
        <ele>1120</ele>
        <time>2022-08-12T11:52:52.000Z</time>
      </trkpt>
      <trkpt lat="45.11425" lon="5.55845">
        <ele>1119.3</ele>
        <time>2022-08-12T11:52:53.000Z</time>
      </trkpt>
      <trkpt lat="45.11428" lon="5.5585">
        <ele>1118.6</ele>
        <time>2022-08-12T11:52:54.000Z</time>
      </trkpt>
      <trkpt lat="45.11432" lon="5.55859">
        <ele>1117.3</ele>
        <time>2022-08-12T11:52:56.000Z</time>
      </trkpt>
      <trkpt lat="45.11432" lon="5.55865">
        <ele>1116.5</ele>
        <time>2022-08-12T11:52:57.000Z</time>
      </trkpt>
      <trkpt lat="45.11433" lon="5.55872">
        <ele>1115.5</ele>
        <time>2022-08-12T11:52:58.000Z</time>
      </trkpt>
      <trkpt lat="45.11432" lon="5.5588">
        <ele>1114.3</ele>
        <time>2022-08-12T11:52:59.000Z</time>
      </trkpt>
      <trkpt lat="45.11431" lon="5.55888">
        <ele>1113.1</ele>
        <time>2022-08-12T11:53:00.000Z</time>
      </trkpt>
      <trkpt lat="45.11429" lon="5.55905">
        <ele>1111.2</ele>
        <time>2022-08-12T11:53:02.000Z</time>
      </trkpt>
      <trkpt lat="45.11427" lon="5.55912">
        <ele>1110.3</ele>
        <time>2022-08-12T11:53:03.000Z</time>
      </trkpt>
      <trkpt lat="45.11424" lon="5.55917">
        <ele>1109.5</ele>
        <time>2022-08-12T11:53:04.000Z</time>
      </trkpt>
      <trkpt lat="45.11422" lon="5.55921">
        <ele>1109.2</ele>
        <time>2022-08-12T11:53:05.000Z</time>
      </trkpt>
      <trkpt lat="45.1142" lon="5.55924">
        <ele>1109</ele>
        <time>2022-08-12T11:53:06.000Z</time>
      </trkpt>
      <trkpt lat="45.11418" lon="5.55927">
        <ele>1108.7</ele>
        <time>2022-08-12T11:53:07.000Z</time>
      </trkpt>
      <trkpt lat="45.11416" lon="5.5593">
        <ele>1108.4</ele>
        <time>2022-08-12T11:53:08.000Z</time>
      </trkpt>
      <trkpt lat="45.11414" lon="5.55933">
        <ele>1108.2</ele>
        <time>2022-08-12T11:53:09.000Z</time>
      </trkpt>
      <trkpt lat="45.11412" lon="5.55939">
        <ele>1107.9</ele>
        <time>2022-08-12T11:53:10.000Z</time>
      </trkpt>
      <trkpt lat="45.11409" lon="5.55945">
        <ele>1107.5</ele>
        <time>2022-08-12T11:53:11.000Z</time>
      </trkpt>
      <trkpt lat="45.11407" lon="5.55951">
        <ele>1107.6</ele>
        <time>2022-08-12T11:53:12.000Z</time>
      </trkpt>
      <trkpt lat="45.11404" lon="5.55957">
        <ele>1107.5</ele>
        <time>2022-08-12T11:53:13.000Z</time>
      </trkpt>
      <trkpt lat="45.11399" lon="5.55964">
        <ele>1107.4</ele>
        <time>2022-08-12T11:53:14.000Z</time>
      </trkpt>
      <trkpt lat="45.11394" lon="5.55971">
        <ele>1107.3</ele>
        <time>2022-08-12T11:53:15.000Z</time>
      </trkpt>
      <trkpt lat="45.11388" lon="5.55977">
        <ele>1107.3</ele>
        <time>2022-08-12T11:53:16.000Z</time>
      </trkpt>
      <trkpt lat="45.11383" lon="5.55981">
        <ele>1107</ele>
        <time>2022-08-12T11:53:17.000Z</time>
      </trkpt>
      <trkpt lat="45.11379" lon="5.55983">
        <ele>1106.9</ele>
        <time>2022-08-12T11:53:18.000Z</time>
      </trkpt>
      <trkpt lat="45.11377" lon="5.55986">
        <ele>1106.9</ele>
        <time>2022-08-12T11:53:19.000Z</time>
      </trkpt>
      <trkpt lat="45.11375" lon="5.55986">
        <ele>1106.8</ele>
        <time>2022-08-12T11:53:20.000Z</time>
      </trkpt>
      <trkpt lat="45.11374" lon="5.55987">
        <ele>1106.8</ele>
        <time>2022-08-12T11:53:21.000Z</time>
      </trkpt>
      <trkpt lat="45.11373" lon="5.55987">
        <ele>1106.7</ele>
        <time>2022-08-12T11:53:22.000Z</time>
      </trkpt>
      <trkpt lat="45.11372" lon="5.55989">
        <ele>1106.7</ele>
        <time>2022-08-12T11:53:23.000Z</time>
      </trkpt>
      <trkpt lat="45.11371" lon="5.55989">
        <ele>1106.7</ele>
        <time>2022-08-12T11:53:24.000Z</time>
      </trkpt>
      <trkpt lat="45.1137" lon="5.5599">
        <ele>1106.7</ele>
        <time>2022-08-12T11:53:25.000Z</time>
      </trkpt>
      <trkpt lat="45.11369" lon="5.55991">
        <ele>1106.7</ele>
        <time>2022-08-12T11:53:26.000Z</time>
      </trkpt>
      <trkpt lat="45.11368" lon="5.55991">
        <ele>1106.6</ele>
        <time>2022-08-12T11:53:27.000Z</time>
      </trkpt>
      <trkpt lat="45.11367" lon="5.55992">
        <ele>1106.6</ele>
        <time>2022-08-12T11:53:28.000Z</time>
      </trkpt>
      <trkpt lat="45.11366" lon="5.55992">
        <ele>1106.5</ele>
        <time>2022-08-12T11:53:29.000Z</time>
      </trkpt>
      <trkpt lat="45.11364" lon="5.55992">
        <ele>1106.4</ele>
        <time>2022-08-12T11:53:30.000Z</time>
      </trkpt>
      <trkpt lat="45.11363" lon="5.55992">
        <ele>1106.3</ele>
        <time>2022-08-12T11:53:31.000Z</time>
      </trkpt>
      <trkpt lat="45.11362" lon="5.55992">
        <ele>1106.2</ele>
        <time>2022-08-12T11:53:32.000Z</time>
      </trkpt>
      <trkpt lat="45.11361" lon="5.55991">
        <ele>1106.1</ele>
        <time>2022-08-12T11:53:33.000Z</time>
      </trkpt>
      <trkpt lat="45.1136" lon="5.55991">
        <ele>1106</ele>
        <time>2022-08-12T11:53:35.000Z</time>
      </trkpt>
      <trkpt lat="45.11358" lon="5.5599">
        <ele>1105.9</ele>
        <time>2022-08-12T11:53:36.000Z</time>
      </trkpt>
      <trkpt lat="45.11356" lon="5.55991">
        <ele>1105.8</ele>
        <time>2022-08-12T11:53:37.000Z</time>
      </trkpt>
      <trkpt lat="45.11353" lon="5.55991">
        <ele>1105.7</ele>
        <time>2022-08-12T11:53:39.000Z</time>
      </trkpt>
      <trkpt lat="45.11352" lon="5.55991">
        <ele>1105.7</ele>
        <time>2022-08-12T11:53:40.000Z</time>
      </trkpt>
      <trkpt lat="45.11351" lon="5.55991">
        <ele>1105.7</ele>
        <time>2022-08-12T11:53:41.000Z</time>
      </trkpt>
      <trkpt lat="45.1135" lon="5.55991">
        <ele>1105.6</ele>
        <time>2022-08-12T11:53:42.000Z</time>
      </trkpt>
      <trkpt lat="45.11348" lon="5.5599">
        <ele>1105.4</ele>
        <time>2022-08-12T11:53:43.000Z</time>
      </trkpt>
      <trkpt lat="45.11347" lon="5.55989">
        <ele>1105.3</ele>
        <time>2022-08-12T11:53:44.000Z</time>
      </trkpt>
      <trkpt lat="45.11346" lon="5.55989">
        <ele>1105.3</ele>
        <time>2022-08-12T11:53:45.000Z</time>
      </trkpt>
      <trkpt lat="45.11344" lon="5.5599">
        <ele>1105.3</ele>
        <time>2022-08-12T11:53:46.000Z</time>
      </trkpt>
      <trkpt lat="45.11342" lon="5.5599">
        <ele>1105.3</ele>
        <time>2022-08-12T11:53:47.000Z</time>
      </trkpt>
      <trkpt lat="45.11341" lon="5.55991">
        <ele>1105.3</ele>
        <time>2022-08-12T11:53:48.000Z</time>
      </trkpt>
      <trkpt lat="45.1134" lon="5.55991">
        <ele>1105.2</ele>
        <time>2022-08-12T11:53:49.000Z</time>
      </trkpt>
      <trkpt lat="45.11339" lon="5.55991">
        <ele>1105.2</ele>
        <time>2022-08-12T11:53:50.000Z</time>
      </trkpt>
      <trkpt lat="45.11338" lon="5.55991">
        <ele>1105.2</ele>
        <time>2022-08-12T11:53:51.000Z</time>
      </trkpt>
      <trkpt lat="45.11336" lon="5.55991">
        <ele>1105.1</ele>
        <time>2022-08-12T11:53:53.000Z</time>
      </trkpt>
      <trkpt lat="45.11334" lon="5.55991">
        <ele>1105</ele>
        <time>2022-08-12T11:53:54.000Z</time>
      </trkpt>
      <trkpt lat="45.11333" lon="5.55991">
        <ele>1105</ele>
        <time>2022-08-12T11:53:55.000Z</time>
      </trkpt>
      <trkpt lat="45.11331" lon="5.55991">
        <ele>1105.1</ele>
        <time>2022-08-12T11:53:56.000Z</time>
      </trkpt>
      <trkpt lat="45.11329" lon="5.55992">
        <ele>1105.2</ele>
        <time>2022-08-12T11:53:58.000Z</time>
      </trkpt>
      <trkpt lat="45.11328" lon="5.55991">
        <ele>1105.2</ele>
        <time>2022-08-12T11:53:59.000Z</time>
      </trkpt>
      <trkpt lat="45.11327" lon="5.55991">
        <ele>1105.3</ele>
        <time>2022-08-12T11:54:01.000Z</time>
      </trkpt>
      <trkpt lat="45.11326" lon="5.55992">
        <ele>1105.4</ele>
        <time>2022-08-12T11:54:02.000Z</time>
      </trkpt>
      <trkpt lat="45.11325" lon="5.55992">
        <ele>1105.4</ele>
        <time>2022-08-12T11:54:03.000Z</time>
      </trkpt>
      <trkpt lat="45.11323" lon="5.55991">
        <ele>1105.4</ele>
        <time>2022-08-12T11:54:05.000Z</time>
      </trkpt>
      <trkpt lat="45.11322" lon="5.55992">
        <ele>1105.6</ele>
        <time>2022-08-12T11:54:06.000Z</time>
      </trkpt>
      <trkpt lat="45.11321" lon="5.55995">
        <ele>1105.9</ele>
        <time>2022-08-12T11:54:07.000Z</time>
      </trkpt>
      <trkpt lat="45.11319" lon="5.55996">
        <ele>1106.1</ele>
        <time>2022-08-12T11:54:08.000Z</time>
      </trkpt>
      <trkpt lat="45.11317" lon="5.55997">
        <ele>1106.2</ele>
        <time>2022-08-12T11:54:09.000Z</time>
      </trkpt>
      <trkpt lat="45.11316" lon="5.55998">
        <ele>1106.4</ele>
        <time>2022-08-12T11:54:10.000Z</time>
      </trkpt>
      <trkpt lat="45.11316" lon="5.56">
        <ele>1106.6</ele>
        <time>2022-08-12T11:54:11.000Z</time>
      </trkpt>
      <trkpt lat="45.11316" lon="5.56002">
        <ele>1106.8</ele>
        <time>2022-08-12T11:54:12.000Z</time>
      </trkpt>
      <trkpt lat="45.11316" lon="5.56004">
        <ele>1106.9</ele>
        <time>2022-08-12T11:54:13.000Z</time>
      </trkpt>
      <trkpt lat="45.11315" lon="5.56005">
        <ele>1107.1</ele>
        <time>2022-08-12T11:54:15.000Z</time>
      </trkpt>
      <trkpt lat="45.11315" lon="5.56007">
        <ele>1107.2</ele>
        <time>2022-08-12T11:54:16.000Z</time>
      </trkpt>
      <trkpt lat="45.11315" lon="5.56008">
        <ele>1107.3</ele>
        <time>2022-08-12T11:54:17.000Z</time>
      </trkpt>
      <trkpt lat="45.11314" lon="5.56008">
        <ele>1107.4</ele>
        <time>2022-08-12T11:54:18.000Z</time>
      </trkpt>
      <trkpt lat="45.11313" lon="5.5601">
        <ele>1107.5</ele>
        <time>2022-08-12T11:54:19.000Z</time>
      </trkpt>
      <trkpt lat="45.11313" lon="5.56011">
        <ele>1107.6</ele>
        <time>2022-08-12T11:54:20.000Z</time>
      </trkpt>
      <trkpt lat="45.11314" lon="5.56012">
        <ele>1107.7</ele>
        <time>2022-08-12T11:54:21.000Z</time>
      </trkpt>
      <trkpt lat="45.11314" lon="5.56013">
        <ele>1107.8</ele>
        <time>2022-08-12T11:54:22.000Z</time>
      </trkpt>
      <trkpt lat="45.11314" lon="5.56014">
        <ele>1107.8</ele>
        <time>2022-08-12T11:54:23.000Z</time>
      </trkpt>
      <trkpt lat="45.11315" lon="5.56014">
        <ele>1107.8</ele>
        <time>2022-08-12T11:54:24.000Z</time>
      </trkpt>
      <trkpt lat="45.11316" lon="5.56014">
        <ele>1107.8</ele>
        <time>2022-08-12T11:54:25.000Z</time>
      </trkpt>
      <trkpt lat="45.11317" lon="5.56014">
        <ele>1107.8</ele>
        <time>2022-08-12T11:54:26.000Z</time>
      </trkpt>
      <trkpt lat="45.11319" lon="5.56015">
        <ele>1107.9</ele>
        <time>2022-08-12T11:54:27.000Z</time>
      </trkpt>
      <trkpt lat="45.1132" lon="5.56016">
        <ele>1107.9</ele>
        <time>2022-08-12T11:54:28.000Z</time>
      </trkpt>
      <trkpt lat="45.11321" lon="5.56017">
        <ele>1108</ele>
        <time>2022-08-12T11:54:29.000Z</time>
      </trkpt>
      <trkpt lat="45.11322" lon="5.56018">
        <ele>1108.1</ele>
        <time>2022-08-12T11:54:30.000Z</time>
      </trkpt>
      <trkpt lat="45.11323" lon="5.56018">
        <ele>1108.1</ele>
        <time>2022-08-12T11:54:31.000Z</time>
      </trkpt>
      <trkpt lat="45.11325" lon="5.56019">
        <ele>1108.1</ele>
        <time>2022-08-12T11:54:32.000Z</time>
      </trkpt>
      <trkpt lat="45.11326" lon="5.5602">
        <ele>1108.2</ele>
        <time>2022-08-12T11:54:33.000Z</time>
      </trkpt>
      <trkpt lat="45.11327" lon="5.56021">
        <ele>1108.3</ele>
        <time>2022-08-12T11:54:34.000Z</time>
      </trkpt>
      <trkpt lat="45.11328" lon="5.56021">
        <ele>1108.3</ele>
        <time>2022-08-12T11:54:35.000Z</time>
      </trkpt>
      <trkpt lat="45.1133" lon="5.56021">
        <ele>1108.3</ele>
        <time>2022-08-12T11:54:36.000Z</time>
      </trkpt>
      <trkpt lat="45.11332" lon="5.56022">
        <ele>1108.4</ele>
        <time>2022-08-12T11:54:37.000Z</time>
      </trkpt>
      <trkpt lat="45.11333" lon="5.56024">
        <ele>1108.5</ele>
        <time>2022-08-12T11:54:38.000Z</time>
      </trkpt>
      <trkpt lat="45.11334" lon="5.56025">
        <ele>1108.7</ele>
        <time>2022-08-12T11:54:39.000Z</time>
      </trkpt>
      <trkpt lat="45.11335" lon="5.56026">
        <ele>1108.9</ele>
        <time>2022-08-12T11:54:40.000Z</time>
      </trkpt>
      <trkpt lat="45.11337" lon="5.56028">
        <ele>1109.1</ele>
        <time>2022-08-12T11:54:41.000Z</time>
      </trkpt>
      <trkpt lat="45.11338" lon="5.56029">
        <ele>1109.3</ele>
        <time>2022-08-12T11:54:42.000Z</time>
      </trkpt>
      <trkpt lat="45.11339" lon="5.56031">
        <ele>1109.5</ele>
        <time>2022-08-12T11:54:43.000Z</time>
      </trkpt>
      <trkpt lat="45.1134" lon="5.56032">
        <ele>1109.7</ele>
        <time>2022-08-12T11:54:44.000Z</time>
      </trkpt>
      <trkpt lat="45.11343" lon="5.56031">
        <ele>1109.7</ele>
        <time>2022-08-12T11:54:45.000Z</time>
      </trkpt>
      <trkpt lat="45.11344" lon="5.56031">
        <ele>1109.7</ele>
        <time>2022-08-12T11:54:46.000Z</time>
      </trkpt>
      <trkpt lat="45.11346" lon="5.56032">
        <ele>1109.9</ele>
        <time>2022-08-12T11:54:47.000Z</time>
      </trkpt>
      <trkpt lat="45.11346" lon="5.56033">
        <ele>1110</ele>
        <time>2022-08-12T11:54:48.000Z</time>
      </trkpt>
      <trkpt lat="45.11347" lon="5.56033">
        <ele>1110.1</ele>
        <time>2022-08-12T11:54:49.000Z</time>
      </trkpt>
      <trkpt lat="45.11356" lon="5.56033">
        <ele>1110.4</ele>
        <time>2022-08-12T11:54:56.000Z</time>
      </trkpt>
      <trkpt lat="45.11358" lon="5.56034">
        <ele>1110.6</ele>
        <time>2022-08-12T11:54:58.000Z</time>
      </trkpt>
      <trkpt lat="45.11359" lon="5.56035">
        <ele>1110.7</ele>
        <time>2022-08-12T11:54:59.000Z</time>
      </trkpt>
      <trkpt lat="45.1136" lon="5.56035">
        <ele>1110.7</ele>
        <time>2022-08-12T11:55:00.000Z</time>
      </trkpt>
      <trkpt lat="45.11361" lon="5.56035">
        <ele>1110.8</ele>
        <time>2022-08-12T11:55:01.000Z</time>
      </trkpt>
      <trkpt lat="45.11363" lon="5.56035">
        <ele>1110.9</ele>
        <time>2022-08-12T11:55:02.000Z</time>
      </trkpt>
      <trkpt lat="45.11365" lon="5.56035">
        <ele>1111</ele>
        <time>2022-08-12T11:55:03.000Z</time>
      </trkpt>
      <trkpt lat="45.11366" lon="5.56035">
        <ele>1111.2</ele>
        <time>2022-08-12T11:55:04.000Z</time>
      </trkpt>
      <trkpt lat="45.11367" lon="5.56035">
        <ele>1111.2</ele>
        <time>2022-08-12T11:55:05.000Z</time>
      </trkpt>
      <trkpt lat="45.11368" lon="5.56036">
        <ele>1111.4</ele>
        <time>2022-08-12T11:55:06.000Z</time>
      </trkpt>
      <trkpt lat="45.11369" lon="5.56037">
        <ele>1111.6</ele>
        <time>2022-08-12T11:55:07.000Z</time>
      </trkpt>
      <trkpt lat="45.1137" lon="5.56038">
        <ele>1111.8</ele>
        <time>2022-08-12T11:55:08.000Z</time>
      </trkpt>
      <trkpt lat="45.11372" lon="5.56039">
        <ele>1112</ele>
        <time>2022-08-12T11:55:09.000Z</time>
      </trkpt>
      <trkpt lat="45.11373" lon="5.56039">
        <ele>1112.1</ele>
        <time>2022-08-12T11:55:10.000Z</time>
      </trkpt>
      <trkpt lat="45.11374" lon="5.5604">
        <ele>1112.3</ele>
        <time>2022-08-12T11:55:11.000Z</time>
      </trkpt>
      <trkpt lat="45.11376" lon="5.56041">
        <ele>1112.5</ele>
        <time>2022-08-12T11:55:12.000Z</time>
      </trkpt>
      <trkpt lat="45.11378" lon="5.56041">
        <ele>1112.6</ele>
        <time>2022-08-12T11:55:14.000Z</time>
      </trkpt>
      <trkpt lat="45.11379" lon="5.56042">
        <ele>1112.8</ele>
        <time>2022-08-12T11:55:15.000Z</time>
      </trkpt>
      <trkpt lat="45.11381" lon="5.56043">
        <ele>1113</ele>
        <time>2022-08-12T11:55:16.000Z</time>
      </trkpt>
      <trkpt lat="45.11381" lon="5.56042">
        <ele>1113</ele>
        <time>2022-08-12T11:55:17.000Z</time>
      </trkpt>
      <trkpt lat="45.11382" lon="5.56043">
        <ele>1113.1</ele>
        <time>2022-08-12T11:55:18.000Z</time>
      </trkpt>
      <trkpt lat="45.11383" lon="5.56043">
        <ele>1113.2</ele>
        <time>2022-08-12T11:55:19.000Z</time>
      </trkpt>
      <trkpt lat="45.11384" lon="5.56043">
        <ele>1113.3</ele>
        <time>2022-08-12T11:55:20.000Z</time>
      </trkpt>
      <trkpt lat="45.11386" lon="5.56042">
        <ele>1113.4</ele>
        <time>2022-08-12T11:55:21.000Z</time>
      </trkpt>
      <trkpt lat="45.11387" lon="5.56042">
        <ele>1113.4</ele>
        <time>2022-08-12T11:55:22.000Z</time>
      </trkpt>
      <trkpt lat="45.11388" lon="5.56042">
        <ele>1113.5</ele>
        <time>2022-08-12T11:55:23.000Z</time>
      </trkpt>
      <trkpt lat="45.11389" lon="5.56042">
        <ele>1113.6</ele>
        <time>2022-08-12T11:55:25.000Z</time>
      </trkpt>
      <trkpt lat="45.1139" lon="5.56043">
        <ele>1113.7</ele>
        <time>2022-08-12T11:55:26.000Z</time>
      </trkpt>
      <trkpt lat="45.11391" lon="5.56042">
        <ele>1113.7</ele>
        <time>2022-08-12T11:55:27.000Z</time>
      </trkpt>
      <trkpt lat="45.11392" lon="5.56042">
        <ele>1113.8</ele>
        <time>2022-08-12T11:55:28.000Z</time>
      </trkpt>
      <trkpt lat="45.11393" lon="5.56043">
        <ele>1113.9</ele>
        <time>2022-08-12T11:55:29.000Z</time>
      </trkpt>
      <trkpt lat="45.11395" lon="5.56044">
        <ele>1114.2</ele>
        <time>2022-08-12T11:55:30.000Z</time>
      </trkpt>
      <trkpt lat="45.11396" lon="5.56044">
        <ele>1114.3</ele>
        <time>2022-08-12T11:55:31.000Z</time>
      </trkpt>
      <trkpt lat="45.11397" lon="5.56045">
        <ele>1114.5</ele>
        <time>2022-08-12T11:55:32.000Z</time>
      </trkpt>
      <trkpt lat="45.11398" lon="5.56045">
        <ele>1114.6</ele>
        <time>2022-08-12T11:55:33.000Z</time>
      </trkpt>
      <trkpt lat="45.11399" lon="5.56045">
        <ele>1114.7</ele>
        <time>2022-08-12T11:55:34.000Z</time>
      </trkpt>
      <trkpt lat="45.11401" lon="5.56046">
        <ele>1114.8</ele>
        <time>2022-08-12T11:55:35.000Z</time>
      </trkpt>
      <trkpt lat="45.11402" lon="5.56045">
        <ele>1114.8</ele>
        <time>2022-08-12T11:55:36.000Z</time>
      </trkpt>
      <trkpt lat="45.11403" lon="5.56045">
        <ele>1114.9</ele>
        <time>2022-08-12T11:55:37.000Z</time>
      </trkpt>
      <trkpt lat="45.11404" lon="5.56045">
        <ele>1115</ele>
        <time>2022-08-12T11:55:38.000Z</time>
      </trkpt>
      <trkpt lat="45.11405" lon="5.56045">
        <ele>1115.1</ele>
        <time>2022-08-12T11:55:39.000Z</time>
      </trkpt>
      <trkpt lat="45.11407" lon="5.56046">
        <ele>1115.3</ele>
        <time>2022-08-12T11:55:40.000Z</time>
      </trkpt>
      <trkpt lat="45.11408" lon="5.56047">
        <ele>1115.4</ele>
        <time>2022-08-12T11:55:41.000Z</time>
      </trkpt>
      <trkpt lat="45.11409" lon="5.56048">
        <ele>1115.6</ele>
        <time>2022-08-12T11:55:42.000Z</time>
      </trkpt>
      <trkpt lat="45.1141" lon="5.56049">
        <ele>1115.8</ele>
        <time>2022-08-12T11:55:43.000Z</time>
      </trkpt>
      <trkpt lat="45.11412" lon="5.56049">
        <ele>1116</ele>
        <time>2022-08-12T11:55:44.000Z</time>
      </trkpt>
      <trkpt lat="45.11413" lon="5.5605">
        <ele>1116.1</ele>
        <time>2022-08-12T11:55:45.000Z</time>
      </trkpt>
      <trkpt lat="45.11413" lon="5.56051">
        <ele>1116.3</ele>
        <time>2022-08-12T11:55:46.000Z</time>
      </trkpt>
      <trkpt lat="45.11414" lon="5.56052">
        <ele>1116.4</ele>
        <time>2022-08-12T11:55:47.000Z</time>
      </trkpt>
      <trkpt lat="45.11415" lon="5.56052">
        <ele>1116.5</ele>
        <time>2022-08-12T11:55:48.000Z</time>
      </trkpt>
      <trkpt lat="45.11417" lon="5.56053">
        <ele>1116.7</ele>
        <time>2022-08-12T11:55:49.000Z</time>
      </trkpt>
      <trkpt lat="45.11418" lon="5.56053">
        <ele>1116.8</ele>
        <time>2022-08-12T11:55:50.000Z</time>
      </trkpt>
      <trkpt lat="45.11419" lon="5.56054">
        <ele>1116.9</ele>
        <time>2022-08-12T11:55:51.000Z</time>
      </trkpt>
      <trkpt lat="45.1142" lon="5.56055">
        <ele>1117</ele>
        <time>2022-08-12T11:55:52.000Z</time>
      </trkpt>
      <trkpt lat="45.11421" lon="5.56056">
        <ele>1117.2</ele>
        <time>2022-08-12T11:55:53.000Z</time>
      </trkpt>
      <trkpt lat="45.11421" lon="5.56058">
        <ele>1117.3</ele>
        <time>2022-08-12T11:55:54.000Z</time>
      </trkpt>
      <trkpt lat="45.11423" lon="5.56059">
        <ele>1117.5</ele>
        <time>2022-08-12T11:55:55.000Z</time>
      </trkpt>
      <trkpt lat="45.11424" lon="5.56061">
        <ele>1117.7</ele>
        <time>2022-08-12T11:55:56.000Z</time>
      </trkpt>
      <trkpt lat="45.11425" lon="5.56063">
        <ele>1117.9</ele>
        <time>2022-08-12T11:55:57.000Z</time>
      </trkpt>
      <trkpt lat="45.11426" lon="5.56064">
        <ele>1117.9</ele>
        <time>2022-08-12T11:55:58.000Z</time>
      </trkpt>
      <trkpt lat="45.11427" lon="5.56064">
        <ele>1118</ele>
        <time>2022-08-12T11:56:00.000Z</time>
      </trkpt>
      <trkpt lat="45.11428" lon="5.56064">
        <ele>1118</ele>
        <time>2022-08-12T11:56:01.000Z</time>
      </trkpt>
      <trkpt lat="45.11429" lon="5.56065">
        <ele>1118.1</ele>
        <time>2022-08-12T11:56:02.000Z</time>
      </trkpt>
      <trkpt lat="45.1143" lon="5.56065">
        <ele>1118.1</ele>
        <time>2022-08-12T11:56:03.000Z</time>
      </trkpt>
      <trkpt lat="45.1143" lon="5.56066">
        <ele>1118.2</ele>
        <time>2022-08-12T11:56:04.000Z</time>
      </trkpt>
      <trkpt lat="45.11431" lon="5.56067">
        <ele>1118.4</ele>
        <time>2022-08-12T11:56:05.000Z</time>
      </trkpt>
      <trkpt lat="45.11432" lon="5.5607">
        <ele>1118.6</ele>
        <time>2022-08-12T11:56:06.000Z</time>
      </trkpt>
      <trkpt lat="45.11434" lon="5.56071">
        <ele>1118.7</ele>
        <time>2022-08-12T11:56:07.000Z</time>
      </trkpt>
      <trkpt lat="45.11435" lon="5.56072">
        <ele>1118.8</ele>
        <time>2022-08-12T11:56:08.000Z</time>
      </trkpt>
      <trkpt lat="45.11436" lon="5.56073">
        <ele>1118.9</ele>
        <time>2022-08-12T11:56:09.000Z</time>
      </trkpt>
      <trkpt lat="45.11438" lon="5.56074">
        <ele>1119.1</ele>
        <time>2022-08-12T11:56:10.000Z</time>
      </trkpt>
      <trkpt lat="45.1144" lon="5.56074">
        <ele>1119.1</ele>
        <time>2022-08-12T11:56:11.000Z</time>
      </trkpt>
      <trkpt lat="45.11441" lon="5.56074">
        <ele>1119.2</ele>
        <time>2022-08-12T11:56:12.000Z</time>
      </trkpt>
      <trkpt lat="45.11442" lon="5.56076">
        <ele>1119.3</ele>
        <time>2022-08-12T11:56:13.000Z</time>
      </trkpt>
      <trkpt lat="45.11443" lon="5.56076">
        <ele>1119.4</ele>
        <time>2022-08-12T11:56:14.000Z</time>
      </trkpt>
      <trkpt lat="45.11444" lon="5.56077">
        <ele>1119.5</ele>
        <time>2022-08-12T11:56:15.000Z</time>
      </trkpt>
      <trkpt lat="45.11446" lon="5.56078">
        <ele>1119.6</ele>
        <time>2022-08-12T11:56:16.000Z</time>
      </trkpt>
      <trkpt lat="45.11447" lon="5.56078">
        <ele>1119.7</ele>
        <time>2022-08-12T11:56:17.000Z</time>
      </trkpt>
      <trkpt lat="45.11449" lon="5.56078">
        <ele>1119.7</ele>
        <time>2022-08-12T11:56:18.000Z</time>
      </trkpt>
      <trkpt lat="45.1145" lon="5.56078">
        <ele>1119.8</ele>
        <time>2022-08-12T11:56:20.000Z</time>
      </trkpt>
      <trkpt lat="45.11451" lon="5.56079">
        <ele>1119.9</ele>
        <time>2022-08-12T11:56:21.000Z</time>
      </trkpt>
      <trkpt lat="45.11452" lon="5.5608">
        <ele>1120</ele>
        <time>2022-08-12T11:56:22.000Z</time>
      </trkpt>
      <trkpt lat="45.11454" lon="5.56083">
        <ele>1120.3</ele>
        <time>2022-08-12T11:56:23.000Z</time>
      </trkpt>
      <trkpt lat="45.11455" lon="5.56084">
        <ele>1120.4</ele>
        <time>2022-08-12T11:56:24.000Z</time>
      </trkpt>
      <trkpt lat="45.11456" lon="5.56085">
        <ele>1120.5</ele>
        <time>2022-08-12T11:56:25.000Z</time>
      </trkpt>
      <trkpt lat="45.11458" lon="5.56087">
        <ele>1120.7</ele>
        <time>2022-08-12T11:56:26.000Z</time>
      </trkpt>
      <trkpt lat="45.11459" lon="5.56088">
        <ele>1120.8</ele>
        <time>2022-08-12T11:56:27.000Z</time>
      </trkpt>
      <trkpt lat="45.11459" lon="5.56089">
        <ele>1120.9</ele>
        <time>2022-08-12T11:56:28.000Z</time>
      </trkpt>
      <trkpt lat="45.1146" lon="5.56089">
        <ele>1121</ele>
        <time>2022-08-12T11:56:29.000Z</time>
      </trkpt>
      <trkpt lat="45.11462" lon="5.5609">
        <ele>1121.1</ele>
        <time>2022-08-12T11:56:30.000Z</time>
      </trkpt>
      <trkpt lat="45.11463" lon="5.5609">
        <ele>1121.2</ele>
        <time>2022-08-12T11:56:31.000Z</time>
      </trkpt>
      <trkpt lat="45.11464" lon="5.5609">
        <ele>1121.2</ele>
        <time>2022-08-12T11:56:32.000Z</time>
      </trkpt>
      <trkpt lat="45.11466" lon="5.56091">
        <ele>1121.3</ele>
        <time>2022-08-12T11:56:33.000Z</time>
      </trkpt>
      <trkpt lat="45.11467" lon="5.56091">
        <ele>1121.4</ele>
        <time>2022-08-12T11:56:34.000Z</time>
      </trkpt>
      <trkpt lat="45.11468" lon="5.56092">
        <ele>1121.4</ele>
        <time>2022-08-12T11:56:35.000Z</time>
      </trkpt>
      <trkpt lat="45.1147" lon="5.56092">
        <ele>1121.5</ele>
        <time>2022-08-12T11:56:38.000Z</time>
      </trkpt>
      <trkpt lat="45.11471" lon="5.56092">
        <ele>1121.6</ele>
        <time>2022-08-12T11:56:39.000Z</time>
      </trkpt>
      <trkpt lat="45.11472" lon="5.56092">
        <ele>1121.6</ele>
        <time>2022-08-12T11:56:40.000Z</time>
      </trkpt>
      <trkpt lat="45.11473" lon="5.56093">
        <ele>1121.7</ele>
        <time>2022-08-12T11:56:41.000Z</time>
      </trkpt>
      <trkpt lat="45.11476" lon="5.56095">
        <ele>1122</ele>
        <time>2022-08-12T11:56:43.000Z</time>
      </trkpt>
      <trkpt lat="45.11478" lon="5.56096">
        <ele>1122.1</ele>
        <time>2022-08-12T11:56:44.000Z</time>
      </trkpt>
      <trkpt lat="45.1148" lon="5.56097">
        <ele>1122.2</ele>
        <time>2022-08-12T11:56:45.000Z</time>
      </trkpt>
      <trkpt lat="45.11481" lon="5.56098">
        <ele>1122.4</ele>
        <time>2022-08-12T11:56:46.000Z</time>
      </trkpt>
      <trkpt lat="45.11484" lon="5.56099">
        <ele>1122.5</ele>
        <time>2022-08-12T11:56:47.000Z</time>
      </trkpt>
      <trkpt lat="45.11486" lon="5.561">
        <ele>1122.7</ele>
        <time>2022-08-12T11:56:48.000Z</time>
      </trkpt>
      <trkpt lat="45.11487" lon="5.56101">
        <ele>1122.8</ele>
        <time>2022-08-12T11:56:49.000Z</time>
      </trkpt>
      <trkpt lat="45.11488" lon="5.56102">
        <ele>1123</ele>
        <time>2022-08-12T11:56:50.000Z</time>
      </trkpt>
      <trkpt lat="45.1149" lon="5.56104">
        <ele>1123.1</ele>
        <time>2022-08-12T11:56:51.000Z</time>
      </trkpt>
      <trkpt lat="45.11493" lon="5.56105">
        <ele>1123.3</ele>
        <time>2022-08-12T11:56:53.000Z</time>
      </trkpt>
      <trkpt lat="45.11494" lon="5.56106">
        <ele>1123.4</ele>
        <time>2022-08-12T11:56:54.000Z</time>
      </trkpt>
      <trkpt lat="45.11495" lon="5.56107">
        <ele>1123.5</ele>
        <time>2022-08-12T11:56:55.000Z</time>
      </trkpt>
      <trkpt lat="45.11497" lon="5.56108">
        <ele>1123.7</ele>
        <time>2022-08-12T11:56:56.000Z</time>
      </trkpt>
      <trkpt lat="45.11499" lon="5.5611">
        <ele>1123.8</ele>
        <time>2022-08-12T11:56:57.000Z</time>
      </trkpt>
      <trkpt lat="45.115" lon="5.56111">
        <ele>1124</ele>
        <time>2022-08-12T11:56:58.000Z</time>
      </trkpt>
      <trkpt lat="45.11501" lon="5.56111">
        <ele>1124.1</ele>
        <time>2022-08-12T11:56:59.000Z</time>
      </trkpt>
      <trkpt lat="45.11502" lon="5.56112">
        <ele>1124.2</ele>
        <time>2022-08-12T11:57:00.000Z</time>
      </trkpt>
      <trkpt lat="45.11505" lon="5.56113">
        <ele>1124.7</ele>
        <time>2022-08-12T11:57:02.000Z</time>
      </trkpt>
      <trkpt lat="45.11507" lon="5.56116">
        <ele>1125.1</ele>
        <time>2022-08-12T11:57:04.000Z</time>
      </trkpt>
      <trkpt lat="45.11507" lon="5.56118">
        <ele>1125.3</ele>
        <time>2022-08-12T11:57:05.000Z</time>
      </trkpt>
      <trkpt lat="45.11508" lon="5.5612">
        <ele>1125.5</ele>
        <time>2022-08-12T11:57:06.000Z</time>
      </trkpt>
      <trkpt lat="45.11509" lon="5.56121">
        <ele>1125.7</ele>
        <time>2022-08-12T11:57:07.000Z</time>
      </trkpt>
      <trkpt lat="45.11511" lon="5.56122">
        <ele>1126</ele>
        <time>2022-08-12T11:57:08.000Z</time>
      </trkpt>
      <trkpt lat="45.11513" lon="5.56123">
        <ele>1126.2</ele>
        <time>2022-08-12T11:57:09.000Z</time>
      </trkpt>
      <trkpt lat="45.11514" lon="5.56126">
        <ele>1126.5</ele>
        <time>2022-08-12T11:57:10.000Z</time>
      </trkpt>
      <trkpt lat="45.11515" lon="5.56128">
        <ele>1126.8</ele>
        <time>2022-08-12T11:57:11.000Z</time>
      </trkpt>
      <trkpt lat="45.11516" lon="5.5613">
        <ele>1127.1</ele>
        <time>2022-08-12T11:57:12.000Z</time>
      </trkpt>
      <trkpt lat="45.11517" lon="5.56132">
        <ele>1127.3</ele>
        <time>2022-08-12T11:57:13.000Z</time>
      </trkpt>
      <trkpt lat="45.11518" lon="5.56133">
        <ele>1127.5</ele>
        <time>2022-08-12T11:57:14.000Z</time>
      </trkpt>
      <trkpt lat="45.11519" lon="5.56134">
        <ele>1127.7</ele>
        <time>2022-08-12T11:57:15.000Z</time>
      </trkpt>
      <trkpt lat="45.11519" lon="5.56136">
        <ele>1127.9</ele>
        <time>2022-08-12T11:57:16.000Z</time>
      </trkpt>
      <trkpt lat="45.11521" lon="5.56141">
        <ele>1128.3</ele>
        <time>2022-08-12T11:57:18.000Z</time>
      </trkpt>
      <trkpt lat="45.11522" lon="5.56142">
        <ele>1128.4</ele>
        <time>2022-08-12T11:57:19.000Z</time>
      </trkpt>
      <trkpt lat="45.11523" lon="5.56143">
        <ele>1128.6</ele>
        <time>2022-08-12T11:57:20.000Z</time>
      </trkpt>
      <trkpt lat="45.11524" lon="5.56143">
        <ele>1128.8</ele>
        <time>2022-08-12T11:57:21.000Z</time>
      </trkpt>
      <trkpt lat="45.11525" lon="5.56144">
        <ele>1129</ele>
        <time>2022-08-12T11:57:22.000Z</time>
      </trkpt>
      <trkpt lat="45.11527" lon="5.56147">
        <ele>1129.2</ele>
        <time>2022-08-12T11:57:24.000Z</time>
      </trkpt>
      <trkpt lat="45.11529" lon="5.56149">
        <ele>1129.5</ele>
        <time>2022-08-12T11:57:25.000Z</time>
      </trkpt>
      <trkpt lat="45.1153" lon="5.5615">
        <ele>1129.7</ele>
        <time>2022-08-12T11:57:26.000Z</time>
      </trkpt>
      <trkpt lat="45.11531" lon="5.56152">
        <ele>1129.9</ele>
        <time>2022-08-12T11:57:27.000Z</time>
      </trkpt>
      <trkpt lat="45.11533" lon="5.56153">
        <ele>1130.2</ele>
        <time>2022-08-12T11:57:28.000Z</time>
      </trkpt>
      <trkpt lat="45.11535" lon="5.56155">
        <ele>1130.5</ele>
        <time>2022-08-12T11:57:29.000Z</time>
      </trkpt>
      <trkpt lat="45.11544" lon="5.56159">
        <ele>1131.9</ele>
        <time>2022-08-12T11:57:34.000Z</time>
      </trkpt>
      <trkpt lat="45.11549" lon="5.56162">
        <ele>1132.7</ele>
        <time>2022-08-12T11:57:38.000Z</time>
      </trkpt>
      <trkpt lat="45.1155" lon="5.56162">
        <ele>1132.9</ele>
        <time>2022-08-12T11:57:39.000Z</time>
      </trkpt>
      <trkpt lat="45.11551" lon="5.56163">
        <ele>1133.2</ele>
        <time>2022-08-12T11:57:40.000Z</time>
      </trkpt>
      <trkpt lat="45.11553" lon="5.56164">
        <ele>1133.5</ele>
        <time>2022-08-12T11:57:41.000Z</time>
      </trkpt>
      <trkpt lat="45.11554" lon="5.56164">
        <ele>1133.7</ele>
        <time>2022-08-12T11:57:42.000Z</time>
      </trkpt>
      <trkpt lat="45.11556" lon="5.56165">
        <ele>1133.9</ele>
        <time>2022-08-12T11:57:43.000Z</time>
      </trkpt>
      <trkpt lat="45.11557" lon="5.56166">
        <ele>1134.1</ele>
        <time>2022-08-12T11:57:44.000Z</time>
      </trkpt>
      <trkpt lat="45.11558" lon="5.56166">
        <ele>1134.2</ele>
        <time>2022-08-12T11:57:45.000Z</time>
      </trkpt>
      <trkpt lat="45.1156" lon="5.56166">
        <ele>1134.4</ele>
        <time>2022-08-12T11:57:46.000Z</time>
      </trkpt>
      <trkpt lat="45.11563" lon="5.56167">
        <ele>1134.8</ele>
        <time>2022-08-12T11:57:48.000Z</time>
      </trkpt>
      <trkpt lat="45.11564" lon="5.56167">
        <ele>1134.9</ele>
        <time>2022-08-12T11:57:49.000Z</time>
      </trkpt>
      <trkpt lat="45.11565" lon="5.56168">
        <ele>1135</ele>
        <time>2022-08-12T11:57:50.000Z</time>
      </trkpt>
      <trkpt lat="45.11569" lon="5.56169">
        <ele>1135.4</ele>
        <time>2022-08-12T11:57:53.000Z</time>
      </trkpt>
      <trkpt lat="45.1157" lon="5.5617">
        <ele>1135.5</ele>
        <time>2022-08-12T11:57:54.000Z</time>
      </trkpt>
      <trkpt lat="45.11571" lon="5.5617">
        <ele>1135.6</ele>
        <time>2022-08-12T11:57:55.000Z</time>
      </trkpt>
      <trkpt lat="45.11572" lon="5.5617">
        <ele>1135.8</ele>
        <time>2022-08-12T11:57:56.000Z</time>
      </trkpt>
      <trkpt lat="45.11573" lon="5.5617">
        <ele>1135.9</ele>
        <time>2022-08-12T11:57:57.000Z</time>
      </trkpt>
      <trkpt lat="45.11574" lon="5.5617">
        <ele>1136</ele>
        <time>2022-08-12T11:57:58.000Z</time>
      </trkpt>
      <trkpt lat="45.11576" lon="5.5617">
        <ele>1136.1</ele>
        <time>2022-08-12T11:57:59.000Z</time>
      </trkpt>
      <trkpt lat="45.11577" lon="5.5617">
        <ele>1136.3</ele>
        <time>2022-08-12T11:58:00.000Z</time>
      </trkpt>
      <trkpt lat="45.11578" lon="5.56171">
        <ele>1136.4</ele>
        <time>2022-08-12T11:58:01.000Z</time>
      </trkpt>
      <trkpt lat="45.11579" lon="5.56171">
        <ele>1136.5</ele>
        <time>2022-08-12T11:58:02.000Z</time>
      </trkpt>
      <trkpt lat="45.1158" lon="5.56172">
        <ele>1136.7</ele>
        <time>2022-08-12T11:58:03.000Z</time>
      </trkpt>
      <trkpt lat="45.11582" lon="5.56172">
        <ele>1136.8</ele>
        <time>2022-08-12T11:58:04.000Z</time>
      </trkpt>
      <trkpt lat="45.11583" lon="5.56172">
        <ele>1137</ele>
        <time>2022-08-12T11:58:05.000Z</time>
      </trkpt>
      <trkpt lat="45.11584" lon="5.56173">
        <ele>1137.1</ele>
        <time>2022-08-12T11:58:06.000Z</time>
      </trkpt>
      <trkpt lat="45.11585" lon="5.56173">
        <ele>1137.2</ele>
        <time>2022-08-12T11:58:07.000Z</time>
      </trkpt>
      <trkpt lat="45.11587" lon="5.56173">
        <ele>1137.3</ele>
        <time>2022-08-12T11:58:08.000Z</time>
      </trkpt>
      <trkpt lat="45.11589" lon="5.56173">
        <ele>1137.4</ele>
        <time>2022-08-12T11:58:10.000Z</time>
      </trkpt>
      <trkpt lat="45.1159" lon="5.56173">
        <ele>1137.5</ele>
        <time>2022-08-12T11:58:11.000Z</time>
      </trkpt>
      <trkpt lat="45.11591" lon="5.56174">
        <ele>1137.6</ele>
        <time>2022-08-12T11:58:12.000Z</time>
      </trkpt>
      <trkpt lat="45.11592" lon="5.56174">
        <ele>1137.7</ele>
        <time>2022-08-12T11:58:13.000Z</time>
      </trkpt>
      <trkpt lat="45.11594" lon="5.56174">
        <ele>1137.8</ele>
        <time>2022-08-12T11:58:14.000Z</time>
      </trkpt>
      <trkpt lat="45.11595" lon="5.56174">
        <ele>1137.9</ele>
        <time>2022-08-12T11:58:15.000Z</time>
      </trkpt>
      <trkpt lat="45.11596" lon="5.56175">
        <ele>1138.1</ele>
        <time>2022-08-12T11:58:16.000Z</time>
      </trkpt>
      <trkpt lat="45.11598" lon="5.56175">
        <ele>1138.2</ele>
        <time>2022-08-12T11:58:17.000Z</time>
      </trkpt>
      <trkpt lat="45.11599" lon="5.56176">
        <ele>1138.3</ele>
        <time>2022-08-12T11:58:18.000Z</time>
      </trkpt>
      <trkpt lat="45.116" lon="5.56177">
        <ele>1138.4</ele>
        <time>2022-08-12T11:58:19.000Z</time>
      </trkpt>
      <trkpt lat="45.11601" lon="5.56177">
        <ele>1138.5</ele>
        <time>2022-08-12T11:58:20.000Z</time>
      </trkpt>
      <trkpt lat="45.11603" lon="5.56178">
        <ele>1138.7</ele>
        <time>2022-08-12T11:58:21.000Z</time>
      </trkpt>
      <trkpt lat="45.11604" lon="5.56178">
        <ele>1138.8</ele>
        <time>2022-08-12T11:58:22.000Z</time>
      </trkpt>
      <trkpt lat="45.11605" lon="5.56178">
        <ele>1138.9</ele>
        <time>2022-08-12T11:58:23.000Z</time>
      </trkpt>
      <trkpt lat="45.11606" lon="5.56179">
        <ele>1138.9</ele>
        <time>2022-08-12T11:58:24.000Z</time>
      </trkpt>
      <trkpt lat="45.11607" lon="5.56179">
        <ele>1139.1</ele>
        <time>2022-08-12T11:58:25.000Z</time>
      </trkpt>
      <trkpt lat="45.11608" lon="5.56179">
        <ele>1139.2</ele>
        <time>2022-08-12T11:58:26.000Z</time>
      </trkpt>
      <trkpt lat="45.11609" lon="5.56179">
        <ele>1139.3</ele>
        <time>2022-08-12T11:58:27.000Z</time>
      </trkpt>
      <trkpt lat="45.1161" lon="5.5618">
        <ele>1139.4</ele>
        <time>2022-08-12T11:58:28.000Z</time>
      </trkpt>
      <trkpt lat="45.11611" lon="5.5618">
        <ele>1139.5</ele>
        <time>2022-08-12T11:58:29.000Z</time>
      </trkpt>
      <trkpt lat="45.11612" lon="5.5618">
        <ele>1139.6</ele>
        <time>2022-08-12T11:58:30.000Z</time>
      </trkpt>
      <trkpt lat="45.11613" lon="5.5618">
        <ele>1139.6</ele>
        <time>2022-08-12T11:58:31.000Z</time>
      </trkpt>
      <trkpt lat="45.11615" lon="5.5618">
        <ele>1139.7</ele>
        <time>2022-08-12T11:58:32.000Z</time>
      </trkpt>
      <trkpt lat="45.11616" lon="5.5618">
        <ele>1139.8</ele>
        <time>2022-08-12T11:58:33.000Z</time>
      </trkpt>
      <trkpt lat="45.11617" lon="5.5618">
        <ele>1139.9</ele>
        <time>2022-08-12T11:58:34.000Z</time>
      </trkpt>
      <trkpt lat="45.11618" lon="5.5618">
        <ele>1139.9</ele>
        <time>2022-08-12T11:58:35.000Z</time>
      </trkpt>
      <trkpt lat="45.11619" lon="5.5618">
        <ele>1140</ele>
        <time>2022-08-12T11:58:36.000Z</time>
      </trkpt>
      <trkpt lat="45.1162" lon="5.5618">
        <ele>1140.1</ele>
        <time>2022-08-12T11:58:37.000Z</time>
      </trkpt>
      <trkpt lat="45.11621" lon="5.5618">
        <ele>1140.2</ele>
        <time>2022-08-12T11:58:38.000Z</time>
      </trkpt>
      <trkpt lat="45.11623" lon="5.5618">
        <ele>1140.3</ele>
        <time>2022-08-12T11:58:39.000Z</time>
      </trkpt>
      <trkpt lat="45.11624" lon="5.5618">
        <ele>1140.4</ele>
        <time>2022-08-12T11:58:40.000Z</time>
      </trkpt>
      <trkpt lat="45.11625" lon="5.5618">
        <ele>1140.5</ele>
        <time>2022-08-12T11:58:41.000Z</time>
      </trkpt>
      <trkpt lat="45.11627" lon="5.5618">
        <ele>1140.6</ele>
        <time>2022-08-12T11:58:43.000Z</time>
      </trkpt>
      <trkpt lat="45.11629" lon="5.5618">
        <ele>1140.8</ele>
        <time>2022-08-12T11:58:44.000Z</time>
      </trkpt>
      <trkpt lat="45.1164" lon="5.56178">
        <ele>1141.5</ele>
        <time>2022-08-12T11:58:52.000Z</time>
      </trkpt>
      <trkpt lat="45.11641" lon="5.56178">
        <ele>1141.6</ele>
        <time>2022-08-12T11:58:53.000Z</time>
      </trkpt>
      <trkpt lat="45.11642" lon="5.56177">
        <ele>1141.7</ele>
        <time>2022-08-12T11:58:54.000Z</time>
      </trkpt>
      <trkpt lat="45.11653" lon="5.56175">
        <ele>1142.6</ele>
        <time>2022-08-12T11:59:02.000Z</time>
      </trkpt>
      <trkpt lat="45.11654" lon="5.56174">
        <ele>1142.7</ele>
        <time>2022-08-12T11:59:03.000Z</time>
      </trkpt>
      <trkpt lat="45.11655" lon="5.56174">
        <ele>1142.8</ele>
        <time>2022-08-12T11:59:04.000Z</time>
      </trkpt>
      <trkpt lat="45.11656" lon="5.56174">
        <ele>1143</ele>
        <time>2022-08-12T11:59:05.000Z</time>
      </trkpt>
      <trkpt lat="45.11658" lon="5.56174">
        <ele>1143.1</ele>
        <time>2022-08-12T11:59:06.000Z</time>
      </trkpt>
      <trkpt lat="45.11658" lon="5.56175">
        <ele>1143.2</ele>
        <time>2022-08-12T11:59:07.000Z</time>
      </trkpt>
      <trkpt lat="45.11659" lon="5.56175">
        <ele>1143.3</ele>
        <time>2022-08-12T11:59:08.000Z</time>
      </trkpt>
      <trkpt lat="45.1166" lon="5.56176">
        <ele>1143.4</ele>
        <time>2022-08-12T11:59:09.000Z</time>
      </trkpt>
      <trkpt lat="45.11661" lon="5.56175">
        <ele>1143.4</ele>
        <time>2022-08-12T11:59:10.000Z</time>
      </trkpt>
      <trkpt lat="45.11662" lon="5.56174">
        <ele>1143.5</ele>
        <time>2022-08-12T11:59:11.000Z</time>
      </trkpt>
      <trkpt lat="45.11663" lon="5.56173">
        <ele>1143.6</ele>
        <time>2022-08-12T11:59:12.000Z</time>
      </trkpt>
      <trkpt lat="45.11664" lon="5.56172">
        <ele>1143.7</ele>
        <time>2022-08-12T11:59:13.000Z</time>
      </trkpt>
      <trkpt lat="45.11664" lon="5.56171">
        <ele>1143.7</ele>
        <time>2022-08-12T11:59:14.000Z</time>
      </trkpt>
      <trkpt lat="45.11665" lon="5.5617">
        <ele>1143.8</ele>
        <time>2022-08-12T11:59:15.000Z</time>
      </trkpt>
      <trkpt lat="45.11665" lon="5.56168">
        <ele>1143.9</ele>
        <time>2022-08-12T11:59:17.000Z</time>
      </trkpt>
      <trkpt lat="45.11666" lon="5.56167">
        <ele>1143.9</ele>
        <time>2022-08-12T11:59:18.000Z</time>
      </trkpt>
      <trkpt lat="45.11667" lon="5.56165">
        <ele>1144</ele>
        <time>2022-08-12T11:59:19.000Z</time>
      </trkpt>
      <trkpt lat="45.11668" lon="5.56162">
        <ele>1144.2</ele>
        <time>2022-08-12T11:59:20.000Z</time>
      </trkpt>
      <trkpt lat="45.11669" lon="5.5616">
        <ele>1144.3</ele>
        <time>2022-08-12T11:59:22.000Z</time>
      </trkpt>
      <trkpt lat="45.1167" lon="5.56158">
        <ele>1144.4</ele>
        <time>2022-08-12T11:59:23.000Z</time>
      </trkpt>
      <trkpt lat="45.11671" lon="5.56155">
        <ele>1144.6</ele>
        <time>2022-08-12T11:59:25.000Z</time>
      </trkpt>
      <trkpt lat="45.11672" lon="5.56153">
        <ele>1144.7</ele>
        <time>2022-08-12T11:59:27.000Z</time>
      </trkpt>
      <trkpt lat="45.11679" lon="5.56145">
        <ele>1145.7</ele>
        <time>2022-08-12T11:59:33.000Z</time>
      </trkpt>
      <trkpt lat="45.11681" lon="5.56144">
        <ele>1146</ele>
        <time>2022-08-12T11:59:35.000Z</time>
      </trkpt>
      <trkpt lat="45.11682" lon="5.56142">
        <ele>1146.1</ele>
        <time>2022-08-12T11:59:36.000Z</time>
      </trkpt>
      <trkpt lat="45.11682" lon="5.5614">
        <ele>1146.2</ele>
        <time>2022-08-12T11:59:37.000Z</time>
      </trkpt>
      <trkpt lat="45.11683" lon="5.56139">
        <ele>1146.3</ele>
        <time>2022-08-12T11:59:38.000Z</time>
      </trkpt>
      <trkpt lat="45.11683" lon="5.56137">
        <ele>1146.4</ele>
        <time>2022-08-12T11:59:39.000Z</time>
      </trkpt>
      <trkpt lat="45.11684" lon="5.56136">
        <ele>1146.6</ele>
        <time>2022-08-12T11:59:40.000Z</time>
      </trkpt>
      <trkpt lat="45.11686" lon="5.56134">
        <ele>1146.7</ele>
        <time>2022-08-12T11:59:41.000Z</time>
      </trkpt>
      <trkpt lat="45.11687" lon="5.56133">
        <ele>1146.9</ele>
        <time>2022-08-12T11:59:42.000Z</time>
      </trkpt>
      <trkpt lat="45.11688" lon="5.56132">
        <ele>1147.1</ele>
        <time>2022-08-12T11:59:43.000Z</time>
      </trkpt>
      <trkpt lat="45.1169" lon="5.56131">
        <ele>1147.3</ele>
        <time>2022-08-12T11:59:44.000Z</time>
      </trkpt>
      <trkpt lat="45.1169" lon="5.5613">
        <ele>1147.4</ele>
        <time>2022-08-12T11:59:45.000Z</time>
      </trkpt>
      <trkpt lat="45.11691" lon="5.56129">
        <ele>1147.6</ele>
        <time>2022-08-12T11:59:46.000Z</time>
      </trkpt>
      <trkpt lat="45.11693" lon="5.56127">
        <ele>1147.7</ele>
        <time>2022-08-12T11:59:47.000Z</time>
      </trkpt>
      <trkpt lat="45.11694" lon="5.56127">
        <ele>1147.9</ele>
        <time>2022-08-12T11:59:48.000Z</time>
      </trkpt>
      <trkpt lat="45.11695" lon="5.56126">
        <ele>1148</ele>
        <time>2022-08-12T11:59:49.000Z</time>
      </trkpt>
      <trkpt lat="45.11696" lon="5.56125">
        <ele>1148.2</ele>
        <time>2022-08-12T11:59:50.000Z</time>
      </trkpt>
      <trkpt lat="45.11696" lon="5.56123">
        <ele>1148.3</ele>
        <time>2022-08-12T11:59:51.000Z</time>
      </trkpt>
      <trkpt lat="45.11697" lon="5.56122">
        <ele>1148.4</ele>
        <time>2022-08-12T11:59:52.000Z</time>
      </trkpt>
      <trkpt lat="45.11699" lon="5.5612">
        <ele>1148.6</ele>
        <time>2022-08-12T11:59:54.000Z</time>
      </trkpt>
      <trkpt lat="45.11699" lon="5.56119">
        <ele>1148.7</ele>
        <time>2022-08-12T11:59:55.000Z</time>
      </trkpt>
      <trkpt lat="45.117" lon="5.56118">
        <ele>1148.8</ele>
        <time>2022-08-12T11:59:56.000Z</time>
      </trkpt>
      <trkpt lat="45.117" lon="5.56117">
        <ele>1148.9</ele>
        <time>2022-08-12T11:59:57.000Z</time>
      </trkpt>
      <trkpt lat="45.11701" lon="5.56117">
        <ele>1149</ele>
        <time>2022-08-12T11:59:58.000Z</time>
      </trkpt>
      <trkpt lat="45.11702" lon="5.56116">
        <ele>1149.1</ele>
        <time>2022-08-12T11:59:59.000Z</time>
      </trkpt>
      <trkpt lat="45.11703" lon="5.56115">
        <ele>1149.3</ele>
        <time>2022-08-12T12:00:00.000Z</time>
      </trkpt>
      <trkpt lat="45.11704" lon="5.56114">
        <ele>1149.4</ele>
        <time>2022-08-12T12:00:01.000Z</time>
      </trkpt>
      <trkpt lat="45.11706" lon="5.56114">
        <ele>1149.6</ele>
        <time>2022-08-12T12:00:02.000Z</time>
      </trkpt>
      <trkpt lat="45.11707" lon="5.56113">
        <ele>1149.8</ele>
        <time>2022-08-12T12:00:03.000Z</time>
      </trkpt>
      <trkpt lat="45.11708" lon="5.56113">
        <ele>1150</ele>
        <time>2022-08-12T12:00:04.000Z</time>
      </trkpt>
      <trkpt lat="45.11709" lon="5.56112">
        <ele>1150.1</ele>
        <time>2022-08-12T12:00:05.000Z</time>
      </trkpt>
      <trkpt lat="45.11709" lon="5.56111">
        <ele>1150.1</ele>
        <time>2022-08-12T12:00:06.000Z</time>
      </trkpt>
      <trkpt lat="45.1171" lon="5.5611">
        <ele>1150.3</ele>
        <time>2022-08-12T12:00:07.000Z</time>
      </trkpt>
      <trkpt lat="45.11711" lon="5.56108">
        <ele>1150.4</ele>
        <time>2022-08-12T12:00:08.000Z</time>
      </trkpt>
      <trkpt lat="45.11711" lon="5.56107">
        <ele>1150.4</ele>
        <time>2022-08-12T12:00:09.000Z</time>
      </trkpt>
      <trkpt lat="45.11712" lon="5.56106">
        <ele>1150.6</ele>
        <time>2022-08-12T12:00:10.000Z</time>
      </trkpt>
      <trkpt lat="45.11713" lon="5.56105">
        <ele>1150.7</ele>
        <time>2022-08-12T12:00:11.000Z</time>
      </trkpt>
      <trkpt lat="45.11714" lon="5.56104">
        <ele>1150.9</ele>
        <time>2022-08-12T12:00:12.000Z</time>
      </trkpt>
      <trkpt lat="45.11715" lon="5.56103">
        <ele>1151</ele>
        <time>2022-08-12T12:00:13.000Z</time>
      </trkpt>
      <trkpt lat="45.11716" lon="5.56102">
        <ele>1151.1</ele>
        <time>2022-08-12T12:00:14.000Z</time>
      </trkpt>
      <trkpt lat="45.11717" lon="5.56102">
        <ele>1151.2</ele>
        <time>2022-08-12T12:00:15.000Z</time>
      </trkpt>
      <trkpt lat="45.11718" lon="5.56101">
        <ele>1151.4</ele>
        <time>2022-08-12T12:00:16.000Z</time>
      </trkpt>
      <trkpt lat="45.11719" lon="5.561">
        <ele>1151.6</ele>
        <time>2022-08-12T12:00:17.000Z</time>
      </trkpt>
      <trkpt lat="45.1172" lon="5.56099">
        <ele>1151.7</ele>
        <time>2022-08-12T12:00:18.000Z</time>
      </trkpt>
      <trkpt lat="45.11722" lon="5.56097">
        <ele>1151.9</ele>
        <time>2022-08-12T12:00:19.000Z</time>
      </trkpt>
      <trkpt lat="45.11723" lon="5.56097">
        <ele>1152.1</ele>
        <time>2022-08-12T12:00:20.000Z</time>
      </trkpt>
      <trkpt lat="45.11723" lon="5.56096">
        <ele>1152.2</ele>
        <time>2022-08-12T12:00:21.000Z</time>
      </trkpt>
      <trkpt lat="45.11725" lon="5.56094">
        <ele>1152.4</ele>
        <time>2022-08-12T12:00:22.000Z</time>
      </trkpt>
      <trkpt lat="45.11726" lon="5.56093">
        <ele>1152.7</ele>
        <time>2022-08-12T12:00:23.000Z</time>
      </trkpt>
      <trkpt lat="45.11727" lon="5.56092">
        <ele>1152.9</ele>
        <time>2022-08-12T12:00:24.000Z</time>
      </trkpt>
      <trkpt lat="45.11728" lon="5.56091">
        <ele>1153</ele>
        <time>2022-08-12T12:00:25.000Z</time>
      </trkpt>
      <trkpt lat="45.11729" lon="5.5609">
        <ele>1153.2</ele>
        <time>2022-08-12T12:00:26.000Z</time>
      </trkpt>
      <trkpt lat="45.1173" lon="5.56089">
        <ele>1153.3</ele>
        <time>2022-08-12T12:00:27.000Z</time>
      </trkpt>
      <trkpt lat="45.11731" lon="5.56087">
        <ele>1153.5</ele>
        <time>2022-08-12T12:00:28.000Z</time>
      </trkpt>
      <trkpt lat="45.11732" lon="5.56086">
        <ele>1153.7</ele>
        <time>2022-08-12T12:00:29.000Z</time>
      </trkpt>
      <trkpt lat="45.11733" lon="5.56085">
        <ele>1153.9</ele>
        <time>2022-08-12T12:00:30.000Z</time>
      </trkpt>
      <trkpt lat="45.11734" lon="5.56085">
        <ele>1154.1</ele>
        <time>2022-08-12T12:00:31.000Z</time>
      </trkpt>
      <trkpt lat="45.11735" lon="5.56084">
        <ele>1154.3</ele>
        <time>2022-08-12T12:00:32.000Z</time>
      </trkpt>
      <trkpt lat="45.11736" lon="5.56083">
        <ele>1154.4</ele>
        <time>2022-08-12T12:00:33.000Z</time>
      </trkpt>
      <trkpt lat="45.11737" lon="5.56082">
        <ele>1154.7</ele>
        <time>2022-08-12T12:00:34.000Z</time>
      </trkpt>
      <trkpt lat="45.11738" lon="5.56081">
        <ele>1154.9</ele>
        <time>2022-08-12T12:00:35.000Z</time>
      </trkpt>
      <trkpt lat="45.11739" lon="5.5608">
        <ele>1155.1</ele>
        <time>2022-08-12T12:00:36.000Z</time>
      </trkpt>
      <trkpt lat="45.1174" lon="5.56079">
        <ele>1155.3</ele>
        <time>2022-08-12T12:00:37.000Z</time>
      </trkpt>
      <trkpt lat="45.11742" lon="5.56078">
        <ele>1155.5</ele>
        <time>2022-08-12T12:00:38.000Z</time>
      </trkpt>
      <trkpt lat="45.11743" lon="5.56077">
        <ele>1155.8</ele>
        <time>2022-08-12T12:00:39.000Z</time>
      </trkpt>
      <trkpt lat="45.11744" lon="5.56076">
        <ele>1156</ele>
        <time>2022-08-12T12:00:40.000Z</time>
      </trkpt>
      <trkpt lat="45.11745" lon="5.56075">
        <ele>1156.2</ele>
        <time>2022-08-12T12:00:41.000Z</time>
      </trkpt>
      <trkpt lat="45.11747" lon="5.56075">
        <ele>1156.4</ele>
        <time>2022-08-12T12:00:42.000Z</time>
      </trkpt>
      <trkpt lat="45.11748" lon="5.56074">
        <ele>1156.6</ele>
        <time>2022-08-12T12:00:43.000Z</time>
      </trkpt>
      <trkpt lat="45.11749" lon="5.56073">
        <ele>1156.8</ele>
        <time>2022-08-12T12:00:44.000Z</time>
      </trkpt>
      <trkpt lat="45.1175" lon="5.56073">
        <ele>1157</ele>
        <time>2022-08-12T12:00:45.000Z</time>
      </trkpt>
      <trkpt lat="45.11751" lon="5.56073">
        <ele>1157.2</ele>
        <time>2022-08-12T12:00:46.000Z</time>
      </trkpt>
      <trkpt lat="45.11752" lon="5.56072">
        <ele>1157.3</ele>
        <time>2022-08-12T12:00:47.000Z</time>
      </trkpt>
      <trkpt lat="45.11753" lon="5.5607">
        <ele>1157.4</ele>
        <time>2022-08-12T12:00:48.000Z</time>
      </trkpt>
      <trkpt lat="45.11754" lon="5.56069">
        <ele>1157.5</ele>
        <time>2022-08-12T12:00:49.000Z</time>
      </trkpt>
      <trkpt lat="45.11754" lon="5.56068">
        <ele>1157.6</ele>
        <time>2022-08-12T12:00:50.000Z</time>
      </trkpt>
      <trkpt lat="45.11756" lon="5.56068">
        <ele>1157.8</ele>
        <time>2022-08-12T12:00:51.000Z</time>
      </trkpt>
      <trkpt lat="45.11757" lon="5.56068">
        <ele>1158</ele>
        <time>2022-08-12T12:00:52.000Z</time>
      </trkpt>
      <trkpt lat="45.11758" lon="5.56067">
        <ele>1158.1</ele>
        <time>2022-08-12T12:00:53.000Z</time>
      </trkpt>
      <trkpt lat="45.11758" lon="5.56066">
        <ele>1158.2</ele>
        <time>2022-08-12T12:00:54.000Z</time>
      </trkpt>
      <trkpt lat="45.11759" lon="5.56065">
        <ele>1158.4</ele>
        <time>2022-08-12T12:00:55.000Z</time>
      </trkpt>
      <trkpt lat="45.1176" lon="5.56064">
        <ele>1158.5</ele>
        <time>2022-08-12T12:00:56.000Z</time>
      </trkpt>
      <trkpt lat="45.11761" lon="5.56063">
        <ele>1158.6</ele>
        <time>2022-08-12T12:00:57.000Z</time>
      </trkpt>
      <trkpt lat="45.11762" lon="5.56062">
        <ele>1158.7</ele>
        <time>2022-08-12T12:00:58.000Z</time>
      </trkpt>
      <trkpt lat="45.11763" lon="5.56062">
        <ele>1158.9</ele>
        <time>2022-08-12T12:00:59.000Z</time>
      </trkpt>
      <trkpt lat="45.11764" lon="5.56061">
        <ele>1159</ele>
        <time>2022-08-12T12:01:00.000Z</time>
      </trkpt>
      <trkpt lat="45.11765" lon="5.56059">
        <ele>1159.2</ele>
        <time>2022-08-12T12:01:01.000Z</time>
      </trkpt>
      <trkpt lat="45.11766" lon="5.56059">
        <ele>1159.3</ele>
        <time>2022-08-12T12:01:02.000Z</time>
      </trkpt>
      <trkpt lat="45.11767" lon="5.56058">
        <ele>1159.5</ele>
        <time>2022-08-12T12:01:03.000Z</time>
      </trkpt>
      <trkpt lat="45.11768" lon="5.56057">
        <ele>1159.6</ele>
        <time>2022-08-12T12:01:04.000Z</time>
      </trkpt>
      <trkpt lat="45.11769" lon="5.56057">
        <ele>1159.7</ele>
        <time>2022-08-12T12:01:05.000Z</time>
      </trkpt>
      <trkpt lat="45.1177" lon="5.56056">
        <ele>1159.8</ele>
        <time>2022-08-12T12:01:06.000Z</time>
      </trkpt>
      <trkpt lat="45.11771" lon="5.56055">
        <ele>1160</ele>
        <time>2022-08-12T12:01:07.000Z</time>
      </trkpt>
      <trkpt lat="45.11772" lon="5.56055">
        <ele>1160.2</ele>
        <time>2022-08-12T12:01:08.000Z</time>
      </trkpt>
      <trkpt lat="45.11773" lon="5.56054">
        <ele>1160.3</ele>
        <time>2022-08-12T12:01:09.000Z</time>
      </trkpt>
      <trkpt lat="45.11774" lon="5.56054">
        <ele>1160.4</ele>
        <time>2022-08-12T12:01:10.000Z</time>
      </trkpt>
      <trkpt lat="45.11775" lon="5.56053">
        <ele>1160.5</ele>
        <time>2022-08-12T12:01:11.000Z</time>
      </trkpt>
      <trkpt lat="45.11776" lon="5.56052">
        <ele>1160.7</ele>
        <time>2022-08-12T12:01:13.000Z</time>
      </trkpt>
      <trkpt lat="45.11777" lon="5.56051">
        <ele>1160.9</ele>
        <time>2022-08-12T12:01:14.000Z</time>
      </trkpt>
      <trkpt lat="45.11778" lon="5.56049">
        <ele>1161</ele>
        <time>2022-08-12T12:01:16.000Z</time>
      </trkpt>
      <trkpt lat="45.11779" lon="5.56048">
        <ele>1161.1</ele>
        <time>2022-08-12T12:01:17.000Z</time>
      </trkpt>
      <trkpt lat="45.1178" lon="5.56047">
        <ele>1161.3</ele>
        <time>2022-08-12T12:01:18.000Z</time>
      </trkpt>
      <trkpt lat="45.11781" lon="5.56047">
        <ele>1161.4</ele>
        <time>2022-08-12T12:01:19.000Z</time>
      </trkpt>
      <trkpt lat="45.11782" lon="5.56046">
        <ele>1161.6</ele>
        <time>2022-08-12T12:01:20.000Z</time>
      </trkpt>
      <trkpt lat="45.11783" lon="5.56046">
        <ele>1161.8</ele>
        <time>2022-08-12T12:01:21.000Z</time>
      </trkpt>
      <trkpt lat="45.11784" lon="5.56045">
        <ele>1161.9</ele>
        <time>2022-08-12T12:01:22.000Z</time>
      </trkpt>
      <trkpt lat="45.11785" lon="5.56045">
        <ele>1162</ele>
        <time>2022-08-12T12:01:23.000Z</time>
      </trkpt>
      <trkpt lat="45.11786" lon="5.56044">
        <ele>1162.2</ele>
        <time>2022-08-12T12:01:24.000Z</time>
      </trkpt>
      <trkpt lat="45.11787" lon="5.56044">
        <ele>1162.3</ele>
        <time>2022-08-12T12:01:25.000Z</time>
      </trkpt>
      <trkpt lat="45.11788" lon="5.56044">
        <ele>1162.5</ele>
        <time>2022-08-12T12:01:26.000Z</time>
      </trkpt>
      <trkpt lat="45.11789" lon="5.56043">
        <ele>1162.6</ele>
        <time>2022-08-12T12:01:27.000Z</time>
      </trkpt>
      <trkpt lat="45.11789" lon="5.56042">
        <ele>1162.7</ele>
        <time>2022-08-12T12:01:28.000Z</time>
      </trkpt>
      <trkpt lat="45.1179" lon="5.56041">
        <ele>1162.8</ele>
        <time>2022-08-12T12:01:29.000Z</time>
      </trkpt>
      <trkpt lat="45.11791" lon="5.5604">
        <ele>1163</ele>
        <time>2022-08-12T12:01:30.000Z</time>
      </trkpt>
      <trkpt lat="45.11792" lon="5.5604">
        <ele>1163.1</ele>
        <time>2022-08-12T12:01:31.000Z</time>
      </trkpt>
      <trkpt lat="45.11793" lon="5.56039">
        <ele>1163.2</ele>
        <time>2022-08-12T12:01:32.000Z</time>
      </trkpt>
      <trkpt lat="45.11794" lon="5.56039">
        <ele>1163.4</ele>
        <time>2022-08-12T12:01:33.000Z</time>
      </trkpt>
      <trkpt lat="45.11795" lon="5.56038">
        <ele>1163.5</ele>
        <time>2022-08-12T12:01:34.000Z</time>
      </trkpt>
      <trkpt lat="45.11796" lon="5.56037">
        <ele>1163.6</ele>
        <time>2022-08-12T12:01:35.000Z</time>
      </trkpt>
      <trkpt lat="45.11797" lon="5.56036">
        <ele>1163.8</ele>
        <time>2022-08-12T12:01:36.000Z</time>
      </trkpt>
      <trkpt lat="45.11798" lon="5.56036">
        <ele>1164</ele>
        <time>2022-08-12T12:01:37.000Z</time>
      </trkpt>
      <trkpt lat="45.11799" lon="5.56036">
        <ele>1164.1</ele>
        <time>2022-08-12T12:01:38.000Z</time>
      </trkpt>
      <trkpt lat="45.11801" lon="5.56036">
        <ele>1164.3</ele>
        <time>2022-08-12T12:01:39.000Z</time>
      </trkpt>
      <trkpt lat="45.11802" lon="5.56036">
        <ele>1164.5</ele>
        <time>2022-08-12T12:01:40.000Z</time>
      </trkpt>
      <trkpt lat="45.11803" lon="5.56036">
        <ele>1164.7</ele>
        <time>2022-08-12T12:01:41.000Z</time>
      </trkpt>
      <trkpt lat="45.11804" lon="5.56036">
        <ele>1164.8</ele>
        <time>2022-08-12T12:01:42.000Z</time>
      </trkpt>
      <trkpt lat="45.11806" lon="5.56036">
        <ele>1165</ele>
        <time>2022-08-12T12:01:43.000Z</time>
      </trkpt>
      <trkpt lat="45.11807" lon="5.56035">
        <ele>1165.2</ele>
        <time>2022-08-12T12:01:44.000Z</time>
      </trkpt>
      <trkpt lat="45.11808" lon="5.56035">
        <ele>1165.3</ele>
        <time>2022-08-12T12:01:45.000Z</time>
      </trkpt>
      <trkpt lat="45.1181" lon="5.56035">
        <ele>1165.6</ele>
        <time>2022-08-12T12:01:46.000Z</time>
      </trkpt>
      <trkpt lat="45.11811" lon="5.56035">
        <ele>1165.7</ele>
        <time>2022-08-12T12:01:47.000Z</time>
      </trkpt>
      <trkpt lat="45.11812" lon="5.56035">
        <ele>1165.9</ele>
        <time>2022-08-12T12:01:48.000Z</time>
      </trkpt>
      <trkpt lat="45.11813" lon="5.56035">
        <ele>1166</ele>
        <time>2022-08-12T12:01:49.000Z</time>
      </trkpt>
      <trkpt lat="45.11814" lon="5.56034">
        <ele>1166.1</ele>
        <time>2022-08-12T12:01:50.000Z</time>
      </trkpt>
      <trkpt lat="45.11815" lon="5.56034">
        <ele>1166.3</ele>
        <time>2022-08-12T12:01:51.000Z</time>
      </trkpt>
      <trkpt lat="45.11816" lon="5.56034">
        <ele>1166.5</ele>
        <time>2022-08-12T12:01:52.000Z</time>
      </trkpt>
      <trkpt lat="45.11817" lon="5.56033">
        <ele>1166.6</ele>
        <time>2022-08-12T12:01:53.000Z</time>
      </trkpt>
      <trkpt lat="45.11819" lon="5.56032">
        <ele>1166.8</ele>
        <time>2022-08-12T12:01:54.000Z</time>
      </trkpt>
      <trkpt lat="45.1182" lon="5.56031">
        <ele>1167</ele>
        <time>2022-08-12T12:01:55.000Z</time>
      </trkpt>
      <trkpt lat="45.11821" lon="5.56031">
        <ele>1167.2</ele>
        <time>2022-08-12T12:01:56.000Z</time>
      </trkpt>
      <trkpt lat="45.11822" lon="5.5603">
        <ele>1167.3</ele>
        <time>2022-08-12T12:01:57.000Z</time>
      </trkpt>
      <trkpt lat="45.11823" lon="5.5603">
        <ele>1167.5</ele>
        <time>2022-08-12T12:01:58.000Z</time>
      </trkpt>
      <trkpt lat="45.11824" lon="5.5603">
        <ele>1167.6</ele>
        <time>2022-08-12T12:01:59.000Z</time>
      </trkpt>
      <trkpt lat="45.11825" lon="5.56029">
        <ele>1167.8</ele>
        <time>2022-08-12T12:02:00.000Z</time>
      </trkpt>
      <trkpt lat="45.11826" lon="5.56029">
        <ele>1167.9</ele>
        <time>2022-08-12T12:02:01.000Z</time>
      </trkpt>
      <trkpt lat="45.11827" lon="5.5603">
        <ele>1168</ele>
        <time>2022-08-12T12:02:02.000Z</time>
      </trkpt>
      <trkpt lat="45.11828" lon="5.56029">
        <ele>1168.2</ele>
        <time>2022-08-12T12:02:03.000Z</time>
      </trkpt>
      <trkpt lat="45.11829" lon="5.56029">
        <ele>1168.4</ele>
        <time>2022-08-12T12:02:04.000Z</time>
      </trkpt>
      <trkpt lat="45.1183" lon="5.56028">
        <ele>1168.5</ele>
        <time>2022-08-12T12:02:05.000Z</time>
      </trkpt>
      <trkpt lat="45.11831" lon="5.56028">
        <ele>1168.7</ele>
        <time>2022-08-12T12:02:06.000Z</time>
      </trkpt>
      <trkpt lat="45.11832" lon="5.56028">
        <ele>1168.9</ele>
        <time>2022-08-12T12:02:07.000Z</time>
      </trkpt>
      <trkpt lat="45.11834" lon="5.56027">
        <ele>1169</ele>
        <time>2022-08-12T12:02:08.000Z</time>
      </trkpt>
      <trkpt lat="45.11835" lon="5.56027">
        <ele>1169.2</ele>
        <time>2022-08-12T12:02:09.000Z</time>
      </trkpt>
      <trkpt lat="45.11836" lon="5.56027">
        <ele>1169.3</ele>
        <time>2022-08-12T12:02:10.000Z</time>
      </trkpt>
      <trkpt lat="45.11837" lon="5.56026">
        <ele>1169.4</ele>
        <time>2022-08-12T12:02:11.000Z</time>
      </trkpt>
      <trkpt lat="45.11838" lon="5.56026">
        <ele>1169.5</ele>
        <time>2022-08-12T12:02:12.000Z</time>
      </trkpt>
      <trkpt lat="45.11839" lon="5.56026">
        <ele>1169.7</ele>
        <time>2022-08-12T12:02:13.000Z</time>
      </trkpt>
      <trkpt lat="45.1184" lon="5.56026">
        <ele>1169.8</ele>
        <time>2022-08-12T12:02:14.000Z</time>
      </trkpt>
      <trkpt lat="45.11841" lon="5.56025">
        <ele>1169.9</ele>
        <time>2022-08-12T12:02:15.000Z</time>
      </trkpt>
      <trkpt lat="45.11843" lon="5.56024">
        <ele>1170.1</ele>
        <time>2022-08-12T12:02:16.000Z</time>
      </trkpt>
      <trkpt lat="45.11844" lon="5.56023">
        <ele>1170.2</ele>
        <time>2022-08-12T12:02:17.000Z</time>
      </trkpt>
      <trkpt lat="45.11845" lon="5.56023">
        <ele>1170.4</ele>
        <time>2022-08-12T12:02:18.000Z</time>
      </trkpt>
      <trkpt lat="45.11846" lon="5.56023">
        <ele>1170.5</ele>
        <time>2022-08-12T12:02:19.000Z</time>
      </trkpt>
      <trkpt lat="45.11847" lon="5.56023">
        <ele>1170.6</ele>
        <time>2022-08-12T12:02:20.000Z</time>
      </trkpt>
      <trkpt lat="45.11848" lon="5.56023">
        <ele>1170.7</ele>
        <time>2022-08-12T12:02:21.000Z</time>
      </trkpt>
      <trkpt lat="45.11849" lon="5.56023">
        <ele>1170.8</ele>
        <time>2022-08-12T12:02:22.000Z</time>
      </trkpt>
      <trkpt lat="45.1185" lon="5.56022">
        <ele>1171</ele>
        <time>2022-08-12T12:02:23.000Z</time>
      </trkpt>
      <trkpt lat="45.11852" lon="5.56022">
        <ele>1171.1</ele>
        <time>2022-08-12T12:02:24.000Z</time>
      </trkpt>
      <trkpt lat="45.11853" lon="5.56023">
        <ele>1171.2</ele>
        <time>2022-08-12T12:02:25.000Z</time>
      </trkpt>
      <trkpt lat="45.11854" lon="5.56023">
        <ele>1171.4</ele>
        <time>2022-08-12T12:02:26.000Z</time>
      </trkpt>
      <trkpt lat="45.11855" lon="5.56023">
        <ele>1171.5</ele>
        <time>2022-08-12T12:02:27.000Z</time>
      </trkpt>
      <trkpt lat="45.11856" lon="5.56022">
        <ele>1171.6</ele>
        <time>2022-08-12T12:02:28.000Z</time>
      </trkpt>
      <trkpt lat="45.11857" lon="5.56022">
        <ele>1171.8</ele>
        <time>2022-08-12T12:02:29.000Z</time>
      </trkpt>
      <trkpt lat="45.11859" lon="5.56022">
        <ele>1171.9</ele>
        <time>2022-08-12T12:02:30.000Z</time>
      </trkpt>
      <trkpt lat="45.1186" lon="5.56022">
        <ele>1172.1</ele>
        <time>2022-08-12T12:02:31.000Z</time>
      </trkpt>
      <trkpt lat="45.11862" lon="5.56022">
        <ele>1172.3</ele>
        <time>2022-08-12T12:02:32.000Z</time>
      </trkpt>
      <trkpt lat="45.11863" lon="5.56021">
        <ele>1172.4</ele>
        <time>2022-08-12T12:02:33.000Z</time>
      </trkpt>
      <trkpt lat="45.11864" lon="5.5602">
        <ele>1172.6</ele>
        <time>2022-08-12T12:02:34.000Z</time>
      </trkpt>
      <trkpt lat="45.11864" lon="5.56019">
        <ele>1172.7</ele>
        <time>2022-08-12T12:02:35.000Z</time>
      </trkpt>
      <trkpt lat="45.11865" lon="5.56019">
        <ele>1172.8</ele>
        <time>2022-08-12T12:02:36.000Z</time>
      </trkpt>
      <trkpt lat="45.11867" lon="5.56018">
        <ele>1173</ele>
        <time>2022-08-12T12:02:37.000Z</time>
      </trkpt>
      <trkpt lat="45.11868" lon="5.56018">
        <ele>1173.2</ele>
        <time>2022-08-12T12:02:38.000Z</time>
      </trkpt>
      <trkpt lat="45.11869" lon="5.56017">
        <ele>1173.4</ele>
        <time>2022-08-12T12:02:39.000Z</time>
      </trkpt>
      <trkpt lat="45.1187" lon="5.56016">
        <ele>1173.6</ele>
        <time>2022-08-12T12:02:40.000Z</time>
      </trkpt>
      <trkpt lat="45.11872" lon="5.56015">
        <ele>1173.7</ele>
        <time>2022-08-12T12:02:41.000Z</time>
      </trkpt>
      <trkpt lat="45.11873" lon="5.56015">
        <ele>1174</ele>
        <time>2022-08-12T12:02:42.000Z</time>
      </trkpt>
      <trkpt lat="45.11874" lon="5.56014">
        <ele>1174.1</ele>
        <time>2022-08-12T12:02:43.000Z</time>
      </trkpt>
      <trkpt lat="45.11876" lon="5.56014">
        <ele>1174.3</ele>
        <time>2022-08-12T12:02:45.000Z</time>
      </trkpt>
      <trkpt lat="45.11877" lon="5.56014">
        <ele>1174.4</ele>
        <time>2022-08-12T12:02:46.000Z</time>
      </trkpt>
      <trkpt lat="45.11878" lon="5.56014">
        <ele>1174.6</ele>
        <time>2022-08-12T12:02:47.000Z</time>
      </trkpt>
      <trkpt lat="45.11879" lon="5.56014">
        <ele>1174.7</ele>
        <time>2022-08-12T12:02:48.000Z</time>
      </trkpt>
      <trkpt lat="45.1188" lon="5.56014">
        <ele>1174.8</ele>
        <time>2022-08-12T12:02:49.000Z</time>
      </trkpt>
      <trkpt lat="45.11881" lon="5.56013">
        <ele>1175.1</ele>
        <time>2022-08-12T12:02:50.000Z</time>
      </trkpt>
      <trkpt lat="45.11882" lon="5.56013">
        <ele>1175.2</ele>
        <time>2022-08-12T12:02:51.000Z</time>
      </trkpt>
      <trkpt lat="45.11883" lon="5.56012">
        <ele>1175.4</ele>
        <time>2022-08-12T12:02:52.000Z</time>
      </trkpt>
      <trkpt lat="45.11885" lon="5.56012">
        <ele>1175.6</ele>
        <time>2022-08-12T12:02:53.000Z</time>
      </trkpt>
      <trkpt lat="45.11886" lon="5.56011">
        <ele>1175.8</ele>
        <time>2022-08-12T12:02:54.000Z</time>
      </trkpt>
      <trkpt lat="45.11887" lon="5.56011">
        <ele>1176</ele>
        <time>2022-08-12T12:02:55.000Z</time>
      </trkpt>
      <trkpt lat="45.11888" lon="5.56011">
        <ele>1176.1</ele>
        <time>2022-08-12T12:02:56.000Z</time>
      </trkpt>
      <trkpt lat="45.11889" lon="5.56011">
        <ele>1176.2</ele>
        <time>2022-08-12T12:02:57.000Z</time>
      </trkpt>
      <trkpt lat="45.1189" lon="5.5601">
        <ele>1176.4</ele>
        <time>2022-08-12T12:02:58.000Z</time>
      </trkpt>
      <trkpt lat="45.11892" lon="5.5601">
        <ele>1176.6</ele>
        <time>2022-08-12T12:02:59.000Z</time>
      </trkpt>
      <trkpt lat="45.11893" lon="5.56009">
        <ele>1176.7</ele>
        <time>2022-08-12T12:03:00.000Z</time>
      </trkpt>
      <trkpt lat="45.11895" lon="5.56008">
        <ele>1176.9</ele>
        <time>2022-08-12T12:03:01.000Z</time>
      </trkpt>
      <trkpt lat="45.11897" lon="5.56008">
        <ele>1177.2</ele>
        <time>2022-08-12T12:03:03.000Z</time>
      </trkpt>
      <trkpt lat="45.11898" lon="5.56008">
        <ele>1177.3</ele>
        <time>2022-08-12T12:03:04.000Z</time>
      </trkpt>
      <trkpt lat="45.119" lon="5.56007">
        <ele>1177.5</ele>
        <time>2022-08-12T12:03:06.000Z</time>
      </trkpt>
      <trkpt lat="45.119" lon="5.56006">
        <ele>1177.7</ele>
        <time>2022-08-12T12:03:07.000Z</time>
      </trkpt>
      <trkpt lat="45.11901" lon="5.56006">
        <ele>1177.9</ele>
        <time>2022-08-12T12:03:08.000Z</time>
      </trkpt>
      <trkpt lat="45.11902" lon="5.56005">
        <ele>1178</ele>
        <time>2022-08-12T12:03:09.000Z</time>
      </trkpt>
      <trkpt lat="45.11904" lon="5.56005">
        <ele>1178.2</ele>
        <time>2022-08-12T12:03:10.000Z</time>
      </trkpt>
      <trkpt lat="45.11905" lon="5.56004">
        <ele>1178.3</ele>
        <time>2022-08-12T12:03:11.000Z</time>
      </trkpt>
      <trkpt lat="45.11906" lon="5.56003">
        <ele>1178.6</ele>
        <time>2022-08-12T12:03:12.000Z</time>
      </trkpt>
      <trkpt lat="45.11907" lon="5.56003">
        <ele>1178.7</ele>
        <time>2022-08-12T12:03:13.000Z</time>
      </trkpt>
      <trkpt lat="45.11908" lon="5.56002">
        <ele>1178.9</ele>
        <time>2022-08-12T12:03:14.000Z</time>
      </trkpt>
      <trkpt lat="45.11909" lon="5.56001">
        <ele>1179.1</ele>
        <time>2022-08-12T12:03:15.000Z</time>
      </trkpt>
      <trkpt lat="45.1191" lon="5.56">
        <ele>1179.3</ele>
        <time>2022-08-12T12:03:16.000Z</time>
      </trkpt>
      <trkpt lat="45.11911" lon="5.55999">
        <ele>1179.5</ele>
        <time>2022-08-12T12:03:17.000Z</time>
      </trkpt>
      <trkpt lat="45.11912" lon="5.55998">
        <ele>1179.6</ele>
        <time>2022-08-12T12:03:18.000Z</time>
      </trkpt>
      <trkpt lat="45.11913" lon="5.55998">
        <ele>1179.7</ele>
        <time>2022-08-12T12:03:19.000Z</time>
      </trkpt>
      <trkpt lat="45.11914" lon="5.55997">
        <ele>1179.8</ele>
        <time>2022-08-12T12:03:20.000Z</time>
      </trkpt>
      <trkpt lat="45.11915" lon="5.55997">
        <ele>1180</ele>
        <time>2022-08-12T12:03:21.000Z</time>
      </trkpt>
      <trkpt lat="45.11917" lon="5.55996">
        <ele>1180.2</ele>
        <time>2022-08-12T12:03:22.000Z</time>
      </trkpt>
      <trkpt lat="45.11918" lon="5.55995">
        <ele>1180.2</ele>
        <time>2022-08-12T12:03:23.000Z</time>
      </trkpt>
      <trkpt lat="45.11919" lon="5.55995">
        <ele>1180.3</ele>
        <time>2022-08-12T12:03:24.000Z</time>
      </trkpt>
      <trkpt lat="45.11919" lon="5.55994">
        <ele>1180.3</ele>
        <time>2022-08-12T12:03:25.000Z</time>
      </trkpt>
      <trkpt lat="45.1192" lon="5.55993">
        <ele>1180.4</ele>
        <time>2022-08-12T12:03:26.000Z</time>
      </trkpt>
      <trkpt lat="45.11921" lon="5.55993">
        <ele>1180.5</ele>
        <time>2022-08-12T12:03:27.000Z</time>
      </trkpt>
      <trkpt lat="45.11922" lon="5.55993">
        <ele>1180.5</ele>
        <time>2022-08-12T12:03:28.000Z</time>
      </trkpt>
      <trkpt lat="45.11923" lon="5.55992">
        <ele>1180.6</ele>
        <time>2022-08-12T12:03:29.000Z</time>
      </trkpt>
      <trkpt lat="45.11924" lon="5.55992">
        <ele>1180.6</ele>
        <time>2022-08-12T12:03:30.000Z</time>
      </trkpt>
      <trkpt lat="45.11925" lon="5.55991">
        <ele>1180.7</ele>
        <time>2022-08-12T12:03:31.000Z</time>
      </trkpt>
      <trkpt lat="45.11927" lon="5.55991">
        <ele>1180.8</ele>
        <time>2022-08-12T12:03:32.000Z</time>
      </trkpt>
      <trkpt lat="45.11928" lon="5.5599">
        <ele>1180.9</ele>
        <time>2022-08-12T12:03:33.000Z</time>
      </trkpt>
      <trkpt lat="45.11929" lon="5.5599">
        <ele>1181</ele>
        <time>2022-08-12T12:03:34.000Z</time>
      </trkpt>
      <trkpt lat="45.1193" lon="5.55989">
        <ele>1181</ele>
        <time>2022-08-12T12:03:35.000Z</time>
      </trkpt>
      <trkpt lat="45.11931" lon="5.55988">
        <ele>1181.2</ele>
        <time>2022-08-12T12:03:36.000Z</time>
      </trkpt>
      <trkpt lat="45.11937" lon="5.55986">
        <ele>1181.6</ele>
        <time>2022-08-12T12:03:41.000Z</time>
      </trkpt>
      <trkpt lat="45.11939" lon="5.55983">
        <ele>1181.9</ele>
        <time>2022-08-12T12:03:44.000Z</time>
      </trkpt>
      <trkpt lat="45.1194" lon="5.55982">
        <ele>1182</ele>
        <time>2022-08-12T12:03:45.000Z</time>
      </trkpt>
      <trkpt lat="45.11941" lon="5.55981">
        <ele>1182.1</ele>
        <time>2022-08-12T12:03:46.000Z</time>
      </trkpt>
      <trkpt lat="45.11945" lon="5.55976">
        <ele>1182.8</ele>
        <time>2022-08-12T12:03:50.000Z</time>
      </trkpt>
      <trkpt lat="45.11948" lon="5.55973">
        <ele>1183.1</ele>
        <time>2022-08-12T12:03:53.000Z</time>
      </trkpt>
      <trkpt lat="45.11949" lon="5.55973">
        <ele>1183.1</ele>
        <time>2022-08-12T12:03:54.000Z</time>
      </trkpt>
      <trkpt lat="45.1195" lon="5.55972">
        <ele>1183.2</ele>
        <time>2022-08-12T12:03:55.000Z</time>
      </trkpt>
      <trkpt lat="45.11952" lon="5.55971">
        <ele>1183.3</ele>
        <time>2022-08-12T12:03:56.000Z</time>
      </trkpt>
      <trkpt lat="45.11953" lon="5.5597">
        <ele>1183.4</ele>
        <time>2022-08-12T12:03:57.000Z</time>
      </trkpt>
      <trkpt lat="45.11953" lon="5.55969">
        <ele>1183.5</ele>
        <time>2022-08-12T12:03:58.000Z</time>
      </trkpt>
      <trkpt lat="45.11954" lon="5.55969">
        <ele>1183.5</ele>
        <time>2022-08-12T12:03:59.000Z</time>
      </trkpt>
      <trkpt lat="45.11956" lon="5.55968">
        <ele>1183.6</ele>
        <time>2022-08-12T12:04:00.000Z</time>
      </trkpt>
      <trkpt lat="45.11957" lon="5.55968">
        <ele>1183.7</ele>
        <time>2022-08-12T12:04:01.000Z</time>
      </trkpt>
      <trkpt lat="45.11958" lon="5.55968">
        <ele>1183.7</ele>
        <time>2022-08-12T12:04:02.000Z</time>
      </trkpt>
      <trkpt lat="45.11959" lon="5.55967">
        <ele>1183.8</ele>
        <time>2022-08-12T12:04:03.000Z</time>
      </trkpt>
      <trkpt lat="45.1196" lon="5.55967">
        <ele>1183.9</ele>
        <time>2022-08-12T12:04:04.000Z</time>
      </trkpt>
      <trkpt lat="45.11961" lon="5.55966">
        <ele>1184</ele>
        <time>2022-08-12T12:04:05.000Z</time>
      </trkpt>
      <trkpt lat="45.11962" lon="5.55966">
        <ele>1184</ele>
        <time>2022-08-12T12:04:06.000Z</time>
      </trkpt>
      <trkpt lat="45.11963" lon="5.55965">
        <ele>1184.1</ele>
        <time>2022-08-12T12:04:07.000Z</time>
      </trkpt>
      <trkpt lat="45.11965" lon="5.55964">
        <ele>1184.2</ele>
        <time>2022-08-12T12:04:08.000Z</time>
      </trkpt>
      <trkpt lat="45.11966" lon="5.55964">
        <ele>1184.3</ele>
        <time>2022-08-12T12:04:09.000Z</time>
      </trkpt>
      <trkpt lat="45.11967" lon="5.55964">
        <ele>1184.4</ele>
        <time>2022-08-12T12:04:10.000Z</time>
      </trkpt>
      <trkpt lat="45.11968" lon="5.55963">
        <ele>1184.5</ele>
        <time>2022-08-12T12:04:11.000Z</time>
      </trkpt>
      <trkpt lat="45.1197" lon="5.55963">
        <ele>1184.5</ele>
        <time>2022-08-12T12:04:12.000Z</time>
      </trkpt>
      <trkpt lat="45.11971" lon="5.55963">
        <ele>1184.6</ele>
        <time>2022-08-12T12:04:13.000Z</time>
      </trkpt>
      <trkpt lat="45.11972" lon="5.55962">
        <ele>1184.7</ele>
        <time>2022-08-12T12:04:14.000Z</time>
      </trkpt>
      <trkpt lat="45.11973" lon="5.5596">
        <ele>1184.9</ele>
        <time>2022-08-12T12:04:15.000Z</time>
      </trkpt>
      <trkpt lat="45.11975" lon="5.55959">
        <ele>1185</ele>
        <time>2022-08-12T12:04:16.000Z</time>
      </trkpt>
      <trkpt lat="45.11976" lon="5.55959">
        <ele>1185.1</ele>
        <time>2022-08-12T12:04:17.000Z</time>
      </trkpt>
      <trkpt lat="45.11977" lon="5.55958">
        <ele>1185.2</ele>
        <time>2022-08-12T12:04:18.000Z</time>
      </trkpt>
      <trkpt lat="45.11978" lon="5.55957">
        <ele>1185.3</ele>
        <time>2022-08-12T12:04:19.000Z</time>
      </trkpt>
      <trkpt lat="45.11979" lon="5.55956">
        <ele>1185.4</ele>
        <time>2022-08-12T12:04:20.000Z</time>
      </trkpt>
      <trkpt lat="45.1198" lon="5.55955">
        <ele>1185.5</ele>
        <time>2022-08-12T12:04:21.000Z</time>
      </trkpt>
      <trkpt lat="45.11981" lon="5.55954">
        <ele>1185.7</ele>
        <time>2022-08-12T12:04:22.000Z</time>
      </trkpt>
      <trkpt lat="45.11982" lon="5.55953">
        <ele>1185.7</ele>
        <time>2022-08-12T12:04:23.000Z</time>
      </trkpt>
      <trkpt lat="45.11983" lon="5.55952">
        <ele>1185.8</ele>
        <time>2022-08-12T12:04:24.000Z</time>
      </trkpt>
      <trkpt lat="45.11985" lon="5.55951">
        <ele>1186</ele>
        <time>2022-08-12T12:04:25.000Z</time>
      </trkpt>
      <trkpt lat="45.11986" lon="5.55949">
        <ele>1186.2</ele>
        <time>2022-08-12T12:04:26.000Z</time>
      </trkpt>
      <trkpt lat="45.11987" lon="5.55948">
        <ele>1186.3</ele>
        <time>2022-08-12T12:04:27.000Z</time>
      </trkpt>
      <trkpt lat="45.11991" lon="5.55945">
        <ele>1186.7</ele>
        <time>2022-08-12T12:04:30.000Z</time>
      </trkpt>
      <trkpt lat="45.11993" lon="5.55944">
        <ele>1186.8</ele>
        <time>2022-08-12T12:04:31.000Z</time>
      </trkpt>
      <trkpt lat="45.11994" lon="5.55943">
        <ele>1186.9</ele>
        <time>2022-08-12T12:04:32.000Z</time>
      </trkpt>
      <trkpt lat="45.11994" lon="5.55942">
        <ele>1187</ele>
        <time>2022-08-12T12:04:33.000Z</time>
      </trkpt>
      <trkpt lat="45.11996" lon="5.55941">
        <ele>1187.1</ele>
        <time>2022-08-12T12:04:34.000Z</time>
      </trkpt>
      <trkpt lat="45.11997" lon="5.5594">
        <ele>1187.2</ele>
        <time>2022-08-12T12:04:35.000Z</time>
      </trkpt>
      <trkpt lat="45.11998" lon="5.5594">
        <ele>1187.3</ele>
        <time>2022-08-12T12:04:36.000Z</time>
      </trkpt>
      <trkpt lat="45.12" lon="5.55939">
        <ele>1187.4</ele>
        <time>2022-08-12T12:04:37.000Z</time>
      </trkpt>
      <trkpt lat="45.12001" lon="5.55938">
        <ele>1187.5</ele>
        <time>2022-08-12T12:04:38.000Z</time>
      </trkpt>
      <trkpt lat="45.12002" lon="5.55937">
        <ele>1187.5</ele>
        <time>2022-08-12T12:04:39.000Z</time>
      </trkpt>
      <trkpt lat="45.12003" lon="5.55936">
        <ele>1187.6</ele>
        <time>2022-08-12T12:04:40.000Z</time>
      </trkpt>
      <trkpt lat="45.12005" lon="5.55934">
        <ele>1187.7</ele>
        <time>2022-08-12T12:04:41.000Z</time>
      </trkpt>
      <trkpt lat="45.1201" lon="5.5593">
        <ele>1188.1</ele>
        <time>2022-08-12T12:04:45.000Z</time>
      </trkpt>
      <trkpt lat="45.12013" lon="5.55927">
        <ele>1188.2</ele>
        <time>2022-08-12T12:04:47.000Z</time>
      </trkpt>
      <trkpt lat="45.12019" lon="5.55923">
        <ele>1188.5</ele>
        <time>2022-08-12T12:04:52.000Z</time>
      </trkpt>
      <trkpt lat="45.1202" lon="5.55922">
        <ele>1188.6</ele>
        <time>2022-08-12T12:04:53.000Z</time>
      </trkpt>
      <trkpt lat="45.12021" lon="5.55921">
        <ele>1188.7</ele>
        <time>2022-08-12T12:04:54.000Z</time>
      </trkpt>
      <trkpt lat="45.12022" lon="5.55921">
        <ele>1188.7</ele>
        <time>2022-08-12T12:04:55.000Z</time>
      </trkpt>
      <trkpt lat="45.12023" lon="5.5592">
        <ele>1188.8</ele>
        <time>2022-08-12T12:04:56.000Z</time>
      </trkpt>
      <trkpt lat="45.12024" lon="5.55919">
        <ele>1188.9</ele>
        <time>2022-08-12T12:04:57.000Z</time>
      </trkpt>
      <trkpt lat="45.12026" lon="5.55917">
        <ele>1189</ele>
        <time>2022-08-12T12:04:58.000Z</time>
      </trkpt>
      <trkpt lat="45.12027" lon="5.55916">
        <ele>1189.1</ele>
        <time>2022-08-12T12:04:59.000Z</time>
      </trkpt>
      <trkpt lat="45.12027" lon="5.55915">
        <ele>1189.2</ele>
        <time>2022-08-12T12:05:00.000Z</time>
      </trkpt>
      <trkpt lat="45.12028" lon="5.55914">
        <ele>1189.3</ele>
        <time>2022-08-12T12:05:01.000Z</time>
      </trkpt>
      <trkpt lat="45.1203" lon="5.55911">
        <ele>1189.5</ele>
        <time>2022-08-12T12:05:03.000Z</time>
      </trkpt>
      <trkpt lat="45.12034" lon="5.55906">
        <ele>1189.9</ele>
        <time>2022-08-12T12:05:07.000Z</time>
      </trkpt>
      <trkpt lat="45.12034" lon="5.55905">
        <ele>1190</ele>
        <time>2022-08-12T12:05:08.000Z</time>
      </trkpt>
      <trkpt lat="45.12035" lon="5.55904">
        <ele>1190.1</ele>
        <time>2022-08-12T12:05:09.000Z</time>
      </trkpt>
      <trkpt lat="45.12035" lon="5.55903">
        <ele>1190.2</ele>
        <time>2022-08-12T12:05:10.000Z</time>
      </trkpt>
      <trkpt lat="45.12036" lon="5.55901">
        <ele>1190.3</ele>
        <time>2022-08-12T12:05:11.000Z</time>
      </trkpt>
      <trkpt lat="45.12037" lon="5.559">
        <ele>1190.5</ele>
        <time>2022-08-12T12:05:12.000Z</time>
      </trkpt>
      <trkpt lat="45.12038" lon="5.55898">
        <ele>1190.7</ele>
        <time>2022-08-12T12:05:13.000Z</time>
      </trkpt>
      <trkpt lat="45.1204" lon="5.55896">
        <ele>1190.8</ele>
        <time>2022-08-12T12:05:14.000Z</time>
      </trkpt>
      <trkpt lat="45.12041" lon="5.55894">
        <ele>1191</ele>
        <time>2022-08-12T12:05:15.000Z</time>
      </trkpt>
      <trkpt lat="45.12042" lon="5.55892">
        <ele>1191.2</ele>
        <time>2022-08-12T12:05:16.000Z</time>
      </trkpt>
      <trkpt lat="45.12042" lon="5.5589">
        <ele>1191.4</ele>
        <time>2022-08-12T12:05:17.000Z</time>
      </trkpt>
      <trkpt lat="45.12043" lon="5.55888">
        <ele>1191.5</ele>
        <time>2022-08-12T12:05:18.000Z</time>
      </trkpt>
      <trkpt lat="45.12044" lon="5.55885">
        <ele>1191.8</ele>
        <time>2022-08-12T12:05:19.000Z</time>
      </trkpt>
      <trkpt lat="45.12045" lon="5.55883">
        <ele>1192</ele>
        <time>2022-08-12T12:05:20.000Z</time>
      </trkpt>
      <trkpt lat="45.12046" lon="5.55878">
        <ele>1192.4</ele>
        <time>2022-08-12T12:05:22.000Z</time>
      </trkpt>
      <trkpt lat="45.12046" lon="5.55875">
        <ele>1192.7</ele>
        <time>2022-08-12T12:05:23.000Z</time>
      </trkpt>
      <trkpt lat="45.12046" lon="5.55872">
        <ele>1192.9</ele>
        <time>2022-08-12T12:05:24.000Z</time>
      </trkpt>
      <trkpt lat="45.12046" lon="5.55864">
        <ele>1193.7</ele>
        <time>2022-08-12T12:05:27.000Z</time>
      </trkpt>
      <trkpt lat="45.12046" lon="5.55862">
        <ele>1193.9</ele>
        <time>2022-08-12T12:05:28.000Z</time>
      </trkpt>
      <trkpt lat="45.12046" lon="5.55859">
        <ele>1194.1</ele>
        <time>2022-08-12T12:05:29.000Z</time>
      </trkpt>
      <trkpt lat="45.12046" lon="5.55857">
        <ele>1194.3</ele>
        <time>2022-08-12T12:05:30.000Z</time>
      </trkpt>
      <trkpt lat="45.12046" lon="5.55854">
        <ele>1194.4</ele>
        <time>2022-08-12T12:05:31.000Z</time>
      </trkpt>
      <trkpt lat="45.12046" lon="5.55851">
        <ele>1194.6</ele>
        <time>2022-08-12T12:05:32.000Z</time>
      </trkpt>
      <trkpt lat="45.12046" lon="5.55849">
        <ele>1194.7</ele>
        <time>2022-08-12T12:05:33.000Z</time>
      </trkpt>
      <trkpt lat="45.12047" lon="5.55847">
        <ele>1194.9</ele>
        <time>2022-08-12T12:05:34.000Z</time>
      </trkpt>
      <trkpt lat="45.12048" lon="5.55845">
        <ele>1195</ele>
        <time>2022-08-12T12:05:35.000Z</time>
      </trkpt>
      <trkpt lat="45.12049" lon="5.55844">
        <ele>1195.1</ele>
        <time>2022-08-12T12:05:36.000Z</time>
      </trkpt>
      <trkpt lat="45.12049" lon="5.55841">
        <ele>1195.3</ele>
        <time>2022-08-12T12:05:37.000Z</time>
      </trkpt>
      <trkpt lat="45.12049" lon="5.55839">
        <ele>1195.4</ele>
        <time>2022-08-12T12:05:38.000Z</time>
      </trkpt>
      <trkpt lat="45.1205" lon="5.55837">
        <ele>1195.5</ele>
        <time>2022-08-12T12:05:39.000Z</time>
      </trkpt>
      <trkpt lat="45.1205" lon="5.55835">
        <ele>1195.7</ele>
        <time>2022-08-12T12:05:40.000Z</time>
      </trkpt>
      <trkpt lat="45.1205" lon="5.55833">
        <ele>1195.8</ele>
        <time>2022-08-12T12:05:41.000Z</time>
      </trkpt>
      <trkpt lat="45.1205" lon="5.55831">
        <ele>1195.9</ele>
        <time>2022-08-12T12:05:42.000Z</time>
      </trkpt>
      <trkpt lat="45.12051" lon="5.55828">
        <ele>1196</ele>
        <time>2022-08-12T12:05:43.000Z</time>
      </trkpt>
      <trkpt lat="45.12051" lon="5.55826">
        <ele>1196.1</ele>
        <time>2022-08-12T12:05:44.000Z</time>
      </trkpt>
      <trkpt lat="45.12052" lon="5.55824">
        <ele>1196.2</ele>
        <time>2022-08-12T12:05:45.000Z</time>
      </trkpt>
      <trkpt lat="45.12052" lon="5.55821">
        <ele>1196.3</ele>
        <time>2022-08-12T12:05:46.000Z</time>
      </trkpt>
      <trkpt lat="45.12053" lon="5.55819">
        <ele>1196.4</ele>
        <time>2022-08-12T12:05:47.000Z</time>
      </trkpt>
      <trkpt lat="45.12053" lon="5.55817">
        <ele>1196.5</ele>
        <time>2022-08-12T12:05:48.000Z</time>
      </trkpt>
      <trkpt lat="45.12054" lon="5.55815">
        <ele>1196.6</ele>
        <time>2022-08-12T12:05:49.000Z</time>
      </trkpt>
      <trkpt lat="45.12055" lon="5.55812">
        <ele>1196.7</ele>
        <time>2022-08-12T12:05:50.000Z</time>
      </trkpt>
      <trkpt lat="45.12055" lon="5.5581">
        <ele>1196.8</ele>
        <time>2022-08-12T12:05:51.000Z</time>
      </trkpt>
      <trkpt lat="45.12055" lon="5.55807">
        <ele>1196.9</ele>
        <time>2022-08-12T12:05:52.000Z</time>
      </trkpt>
      <trkpt lat="45.12056" lon="5.55805">
        <ele>1197</ele>
        <time>2022-08-12T12:05:53.000Z</time>
      </trkpt>
      <trkpt lat="45.12057" lon="5.55803">
        <ele>1197</ele>
        <time>2022-08-12T12:05:54.000Z</time>
      </trkpt>
      <trkpt lat="45.12057" lon="5.55799">
        <ele>1197.1</ele>
        <time>2022-08-12T12:05:56.000Z</time>
      </trkpt>
      <trkpt lat="45.12057" lon="5.55797">
        <ele>1197.2</ele>
        <time>2022-08-12T12:05:57.000Z</time>
      </trkpt>
      <trkpt lat="45.12056" lon="5.55796">
        <ele>1197.2</ele>
        <time>2022-08-12T12:05:58.000Z</time>
      </trkpt>
      <trkpt lat="45.12055" lon="5.55795">
        <ele>1197.4</ele>
        <time>2022-08-12T12:06:03.000Z</time>
      </trkpt>
      <trkpt lat="45.12055" lon="5.55797">
        <ele>1197.3</ele>
        <time>2022-08-12T12:06:10.000Z</time>
      </trkpt>
      <trkpt lat="45.12055" lon="5.55798">
        <ele>1197.2</ele>
        <time>2022-08-12T12:06:11.000Z</time>
      </trkpt>
      <trkpt lat="45.12054" lon="5.55799">
        <ele>1197.2</ele>
        <time>2022-08-12T12:06:12.000Z</time>
      </trkpt>
      <trkpt lat="45.12052" lon="5.55801">
        <ele>1197.1</ele>
        <time>2022-08-12T12:06:29.000Z</time>
      </trkpt>
      <trkpt lat="45.12052" lon="5.55802">
        <ele>1197</ele>
        <time>2022-08-12T12:06:31.000Z</time>
      </trkpt>
      <trkpt lat="45.12051" lon="5.55802">
        <ele>1197</ele>
        <time>2022-08-12T12:06:32.000Z</time>
      </trkpt>
      <trkpt lat="45.12056" lon="5.55802">
        <ele>1197</ele>
        <time>2022-08-12T12:31:53.000Z</time>
      </trkpt>
      <trkpt lat="45.12055" lon="5.55803">
        <ele>1197.1</ele>
        <time>2022-08-12T12:31:54.000Z</time>
      </trkpt>
      <trkpt lat="45.12054" lon="5.55803">
        <ele>1197</ele>
        <time>2022-08-12T12:31:55.000Z</time>
      </trkpt>
      <trkpt lat="45.12051" lon="5.558">
        <ele>1197.1</ele>
        <time>2022-08-12T12:31:57.000Z</time>
      </trkpt>
      <trkpt lat="45.12048" lon="5.55796">
        <ele>1197.2</ele>
        <time>2022-08-12T12:31:59.000Z</time>
      </trkpt>
      <trkpt lat="45.12047" lon="5.55794">
        <ele>1197.2</ele>
        <time>2022-08-12T12:32:00.000Z</time>
      </trkpt>
      <trkpt lat="45.12046" lon="5.55793">
        <ele>1197.2</ele>
        <time>2022-08-12T12:32:01.000Z</time>
      </trkpt>
      <trkpt lat="45.12043" lon="5.5579">
        <ele>1197.4</ele>
        <time>2022-08-12T12:32:03.000Z</time>
      </trkpt>
      <trkpt lat="45.1204" lon="5.55785">
        <ele>1197.6</ele>
        <time>2022-08-12T12:32:06.000Z</time>
      </trkpt>
      <trkpt lat="45.12039" lon="5.55784">
        <ele>1197.6</ele>
        <time>2022-08-12T12:32:07.000Z</time>
      </trkpt>
      <trkpt lat="45.12038" lon="5.55784">
        <ele>1197.6</ele>
        <time>2022-08-12T12:32:08.000Z</time>
      </trkpt>
      <trkpt lat="45.12037" lon="5.55783">
        <ele>1197.7</ele>
        <time>2022-08-12T12:32:09.000Z</time>
      </trkpt>
      <trkpt lat="45.12036" lon="5.55783">
        <ele>1197.7</ele>
        <time>2022-08-12T12:32:10.000Z</time>
      </trkpt>
      <trkpt lat="45.12035" lon="5.55782">
        <ele>1197.7</ele>
        <time>2022-08-12T12:32:11.000Z</time>
      </trkpt>
      <trkpt lat="45.12034" lon="5.55781">
        <ele>1197.8</ele>
        <time>2022-08-12T12:32:12.000Z</time>
      </trkpt>
      <trkpt lat="45.12034" lon="5.55779">
        <ele>1197.9</ele>
        <time>2022-08-12T12:32:13.000Z</time>
      </trkpt>
      <trkpt lat="45.12032" lon="5.55774">
        <ele>1198.1</ele>
        <time>2022-08-12T12:32:16.000Z</time>
      </trkpt>
      <trkpt lat="45.1203" lon="5.55772">
        <ele>1198.2</ele>
        <time>2022-08-12T12:32:18.000Z</time>
      </trkpt>
      <trkpt lat="45.12029" lon="5.55771">
        <ele>1198.2</ele>
        <time>2022-08-12T12:32:19.000Z</time>
      </trkpt>
      <trkpt lat="45.12025" lon="5.55764">
        <ele>1198.3</ele>
        <time>2022-08-12T12:32:23.000Z</time>
      </trkpt>
      <trkpt lat="45.12023" lon="5.55761">
        <ele>1198.3</ele>
        <time>2022-08-12T12:32:25.000Z</time>
      </trkpt>
      <trkpt lat="45.12022" lon="5.5576">
        <ele>1198.3</ele>
        <time>2022-08-12T12:32:26.000Z</time>
      </trkpt>
      <trkpt lat="45.12021" lon="5.55758">
        <ele>1198.3</ele>
        <time>2022-08-12T12:32:28.000Z</time>
      </trkpt>
      <trkpt lat="45.1202" lon="5.55757">
        <ele>1198.3</ele>
        <time>2022-08-12T12:32:29.000Z</time>
      </trkpt>
      <trkpt lat="45.12018" lon="5.55754">
        <ele>1198.4</ele>
        <time>2022-08-12T12:32:31.000Z</time>
      </trkpt>
      <trkpt lat="45.12016" lon="5.55752">
        <ele>1198.4</ele>
        <time>2022-08-12T12:32:33.000Z</time>
      </trkpt>
      <trkpt lat="45.12015" lon="5.55751">
        <ele>1198.5</ele>
        <time>2022-08-12T12:32:34.000Z</time>
      </trkpt>
      <trkpt lat="45.12013" lon="5.55749">
        <ele>1198.5</ele>
        <time>2022-08-12T12:32:36.000Z</time>
      </trkpt>
      <trkpt lat="45.12001" lon="5.55735">
        <ele>1199.1</ele>
        <time>2022-08-12T12:32:46.000Z</time>
      </trkpt>
      <trkpt lat="45.11996" lon="5.5573">
        <ele>1199.3</ele>
        <time>2022-08-12T12:32:50.000Z</time>
      </trkpt>
      <trkpt lat="45.11992" lon="5.55726">
        <ele>1199.4</ele>
        <time>2022-08-12T12:32:53.000Z</time>
      </trkpt>
      <trkpt lat="45.11991" lon="5.55725">
        <ele>1199.5</ele>
        <time>2022-08-12T12:32:54.000Z</time>
      </trkpt>
      <trkpt lat="45.1199" lon="5.55724">
        <ele>1199.5</ele>
        <time>2022-08-12T12:32:55.000Z</time>
      </trkpt>
      <trkpt lat="45.11989" lon="5.55722">
        <ele>1199.6</ele>
        <time>2022-08-12T12:32:56.000Z</time>
      </trkpt>
      <trkpt lat="45.11987" lon="5.55718">
        <ele>1199.9</ele>
        <time>2022-08-12T12:32:59.000Z</time>
      </trkpt>
      <trkpt lat="45.11986" lon="5.55718">
        <ele>1199.9</ele>
        <time>2022-08-12T12:33:00.000Z</time>
      </trkpt>
      <trkpt lat="45.11986" lon="5.55717">
        <ele>1199.9</ele>
        <time>2022-08-12T12:33:02.000Z</time>
      </trkpt>
      <trkpt lat="45.11984" lon="5.55715">
        <ele>1200.1</ele>
        <time>2022-08-12T12:33:05.000Z</time>
      </trkpt>
      <trkpt lat="45.11983" lon="5.55715">
        <ele>1200.1</ele>
        <time>2022-08-12T12:33:06.000Z</time>
      </trkpt>
      <trkpt lat="45.11982" lon="5.55714">
        <ele>1200.2</ele>
        <time>2022-08-12T12:33:07.000Z</time>
      </trkpt>
      <trkpt lat="45.11981" lon="5.55713">
        <ele>1200.2</ele>
        <time>2022-08-12T12:33:08.000Z</time>
      </trkpt>
      <trkpt lat="45.1198" lon="5.55713">
        <ele>1200.2</ele>
        <time>2022-08-12T12:33:10.000Z</time>
      </trkpt>
      <trkpt lat="45.11979" lon="5.55712">
        <ele>1200.2</ele>
        <time>2022-08-12T12:33:11.000Z</time>
      </trkpt>
      <trkpt lat="45.11978" lon="5.55711">
        <ele>1200.4</ele>
        <time>2022-08-12T12:33:12.000Z</time>
      </trkpt>
      <trkpt lat="45.11976" lon="5.5571">
        <ele>1200.5</ele>
        <time>2022-08-12T12:33:13.000Z</time>
      </trkpt>
      <trkpt lat="45.11974" lon="5.55708">
        <ele>1200.6</ele>
        <time>2022-08-12T12:33:14.000Z</time>
      </trkpt>
      <trkpt lat="45.11972" lon="5.55707">
        <ele>1200.6</ele>
        <time>2022-08-12T12:33:15.000Z</time>
      </trkpt>
      <trkpt lat="45.11971" lon="5.55706">
        <ele>1200.6</ele>
        <time>2022-08-12T12:33:16.000Z</time>
      </trkpt>
      <trkpt lat="45.11967" lon="5.55702">
        <ele>1200.8</ele>
        <time>2022-08-12T12:33:18.000Z</time>
      </trkpt>
      <trkpt lat="45.11966" lon="5.55699">
        <ele>1201.1</ele>
        <time>2022-08-12T12:33:20.000Z</time>
      </trkpt>
      <trkpt lat="45.11965" lon="5.55697">
        <ele>1201.2</ele>
        <time>2022-08-12T12:33:21.000Z</time>
      </trkpt>
      <trkpt lat="45.11965" lon="5.55696">
        <ele>1201.3</ele>
        <time>2022-08-12T12:33:22.000Z</time>
      </trkpt>
      <trkpt lat="45.11965" lon="5.55695">
        <ele>1201.4</ele>
        <time>2022-08-12T12:33:23.000Z</time>
      </trkpt>
      <trkpt lat="45.11964" lon="5.55692">
        <ele>1201.6</ele>
        <time>2022-08-12T12:33:24.000Z</time>
      </trkpt>
      <trkpt lat="45.11963" lon="5.5569">
        <ele>1201.7</ele>
        <time>2022-08-12T12:33:25.000Z</time>
      </trkpt>
      <trkpt lat="45.11962" lon="5.55687">
        <ele>1201.9</ele>
        <time>2022-08-12T12:33:26.000Z</time>
      </trkpt>
      <trkpt lat="45.11961" lon="5.55679">
        <ele>1202.5</ele>
        <time>2022-08-12T12:33:29.000Z</time>
      </trkpt>
      <trkpt lat="45.11962" lon="5.55678">
        <ele>1202.7</ele>
        <time>2022-08-12T12:33:30.000Z</time>
      </trkpt>
      <trkpt lat="45.11963" lon="5.55676">
        <ele>1202.8</ele>
        <time>2022-08-12T12:33:31.000Z</time>
      </trkpt>
      <trkpt lat="45.11963" lon="5.55675">
        <ele>1203</ele>
        <time>2022-08-12T12:33:32.000Z</time>
      </trkpt>
      <trkpt lat="45.11963" lon="5.55672">
        <ele>1203.2</ele>
        <time>2022-08-12T12:33:33.000Z</time>
      </trkpt>
      <trkpt lat="45.11963" lon="5.55671">
        <ele>1203.3</ele>
        <time>2022-08-12T12:33:34.000Z</time>
      </trkpt>
      <trkpt lat="45.11963" lon="5.55669">
        <ele>1203.4</ele>
        <time>2022-08-12T12:33:35.000Z</time>
      </trkpt>
      <trkpt lat="45.11963" lon="5.55668">
        <ele>1203.6</ele>
        <time>2022-08-12T12:33:36.000Z</time>
      </trkpt>
      <trkpt lat="45.11963" lon="5.55666">
        <ele>1203.7</ele>
        <time>2022-08-12T12:33:37.000Z</time>
      </trkpt>
      <trkpt lat="45.11962" lon="5.55665">
        <ele>1203.8</ele>
        <time>2022-08-12T12:33:38.000Z</time>
      </trkpt>
      <trkpt lat="45.11961" lon="5.55663">
        <ele>1203.9</ele>
        <time>2022-08-12T12:33:39.000Z</time>
      </trkpt>
      <trkpt lat="45.11961" lon="5.55662">
        <ele>1203.9</ele>
        <time>2022-08-12T12:33:40.000Z</time>
      </trkpt>
      <trkpt lat="45.1196" lon="5.55661">
        <ele>1204</ele>
        <time>2022-08-12T12:33:41.000Z</time>
      </trkpt>
      <trkpt lat="45.1196" lon="5.5566">
        <ele>1204</ele>
        <time>2022-08-12T12:33:42.000Z</time>
      </trkpt>
      <trkpt lat="45.11959" lon="5.55659">
        <ele>1204.1</ele>
        <time>2022-08-12T12:33:43.000Z</time>
      </trkpt>
      <trkpt lat="45.11958" lon="5.55657">
        <ele>1204.2</ele>
        <time>2022-08-12T12:33:44.000Z</time>
      </trkpt>
      <trkpt lat="45.11956" lon="5.55654">
        <ele>1204.3</ele>
        <time>2022-08-12T12:33:45.000Z</time>
      </trkpt>
      <trkpt lat="45.11955" lon="5.55653">
        <ele>1204.4</ele>
        <time>2022-08-12T12:33:46.000Z</time>
      </trkpt>
      <trkpt lat="45.11953" lon="5.55651">
        <ele>1204.4</ele>
        <time>2022-08-12T12:33:47.000Z</time>
      </trkpt>
      <trkpt lat="45.11952" lon="5.55649">
        <ele>1204.5</ele>
        <time>2022-08-12T12:33:48.000Z</time>
      </trkpt>
      <trkpt lat="45.11952" lon="5.55648">
        <ele>1204.6</ele>
        <time>2022-08-12T12:33:49.000Z</time>
      </trkpt>
      <trkpt lat="45.11952" lon="5.55646">
        <ele>1204.8</ele>
        <time>2022-08-12T12:33:51.000Z</time>
      </trkpt>
      <trkpt lat="45.11952" lon="5.55644">
        <ele>1204.9</ele>
        <time>2022-08-12T12:33:52.000Z</time>
      </trkpt>
      <trkpt lat="45.11951" lon="5.55641">
        <ele>1205.1</ele>
        <time>2022-08-12T12:33:53.000Z</time>
      </trkpt>
      <trkpt lat="45.1195" lon="5.5564">
        <ele>1205.2</ele>
        <time>2022-08-12T12:33:54.000Z</time>
      </trkpt>
      <trkpt lat="45.1195" lon="5.55638">
        <ele>1205.2</ele>
        <time>2022-08-12T12:33:55.000Z</time>
      </trkpt>
      <trkpt lat="45.11949" lon="5.55636">
        <ele>1205.4</ele>
        <time>2022-08-12T12:33:56.000Z</time>
      </trkpt>
      <trkpt lat="45.11948" lon="5.55633">
        <ele>1205.6</ele>
        <time>2022-08-12T12:33:57.000Z</time>
      </trkpt>
      <trkpt lat="45.11945" lon="5.55629">
        <ele>1205.7</ele>
        <time>2022-08-12T12:33:58.000Z</time>
      </trkpt>
      <trkpt lat="45.11941" lon="5.55617">
        <ele>1206.2</ele>
        <time>2022-08-12T12:34:03.000Z</time>
      </trkpt>
      <trkpt lat="45.11941" lon="5.55614">
        <ele>1206.3</ele>
        <time>2022-08-12T12:34:04.000Z</time>
      </trkpt>
      <trkpt lat="45.1194" lon="5.55611">
        <ele>1206.6</ele>
        <time>2022-08-12T12:34:06.000Z</time>
      </trkpt>
      <trkpt lat="45.11941" lon="5.5561">
        <ele>1206.8</ele>
        <time>2022-08-12T12:34:07.000Z</time>
      </trkpt>
      <trkpt lat="45.1194" lon="5.55608">
        <ele>1207</ele>
        <time>2022-08-12T12:34:08.000Z</time>
      </trkpt>
      <trkpt lat="45.11939" lon="5.55605">
        <ele>1207.2</ele>
        <time>2022-08-12T12:34:09.000Z</time>
      </trkpt>
      <trkpt lat="45.11938" lon="5.55603">
        <ele>1207.4</ele>
        <time>2022-08-12T12:34:10.000Z</time>
      </trkpt>
      <trkpt lat="45.11937" lon="5.55601">
        <ele>1207.5</ele>
        <time>2022-08-12T12:34:11.000Z</time>
      </trkpt>
      <trkpt lat="45.11934" lon="5.55598">
        <ele>1207.6</ele>
        <time>2022-08-12T12:34:12.000Z</time>
      </trkpt>
      <trkpt lat="45.11933" lon="5.55597">
        <ele>1207.6</ele>
        <time>2022-08-12T12:34:13.000Z</time>
      </trkpt>
      <trkpt lat="45.11933" lon="5.55596">
        <ele>1207.8</ele>
        <time>2022-08-12T12:34:14.000Z</time>
      </trkpt>
      <trkpt lat="45.11933" lon="5.55595">
        <ele>1207.8</ele>
        <time>2022-08-12T12:34:15.000Z</time>
      </trkpt>
      <trkpt lat="45.11932" lon="5.55593">
        <ele>1207.9</ele>
        <time>2022-08-12T12:34:17.000Z</time>
      </trkpt>
      <trkpt lat="45.11932" lon="5.55592">
        <ele>1208.1</ele>
        <time>2022-08-12T12:34:18.000Z</time>
      </trkpt>
      <trkpt lat="45.1193" lon="5.55588">
        <ele>1208.3</ele>
        <time>2022-08-12T12:34:20.000Z</time>
      </trkpt>
      <trkpt lat="45.11926" lon="5.55582">
        <ele>1208.5</ele>
        <time>2022-08-12T12:34:23.000Z</time>
      </trkpt>
      <trkpt lat="45.11925" lon="5.5558">
        <ele>1208.6</ele>
        <time>2022-08-12T12:34:26.000Z</time>
      </trkpt>
      <trkpt lat="45.11925" lon="5.55579">
        <ele>1208.7</ele>
        <time>2022-08-12T12:34:28.000Z</time>
      </trkpt>
      <trkpt lat="45.11924" lon="5.55577">
        <ele>1208.9</ele>
        <time>2022-08-12T12:34:30.000Z</time>
      </trkpt>
      <trkpt lat="45.11921" lon="5.55574">
        <ele>1208.9</ele>
        <time>2022-08-12T12:34:32.000Z</time>
      </trkpt>
      <trkpt lat="45.1192" lon="5.55572">
        <ele>1209.1</ele>
        <time>2022-08-12T12:34:33.000Z</time>
      </trkpt>
      <trkpt lat="45.1192" lon="5.5557">
        <ele>1209.3</ele>
        <time>2022-08-12T12:34:34.000Z</time>
      </trkpt>
      <trkpt lat="45.1192" lon="5.55569">
        <ele>1209.4</ele>
        <time>2022-08-12T12:34:35.000Z</time>
      </trkpt>
      <trkpt lat="45.11919" lon="5.55568">
        <ele>1209.5</ele>
        <time>2022-08-12T12:34:36.000Z</time>
      </trkpt>
      <trkpt lat="45.11917" lon="5.55566">
        <ele>1209.6</ele>
        <time>2022-08-12T12:34:37.000Z</time>
      </trkpt>
      <trkpt lat="45.11916" lon="5.55564">
        <ele>1209.7</ele>
        <time>2022-08-12T12:34:38.000Z</time>
      </trkpt>
      <trkpt lat="45.11915" lon="5.55563">
        <ele>1209.7</ele>
        <time>2022-08-12T12:34:39.000Z</time>
      </trkpt>
      <trkpt lat="45.11914" lon="5.55562">
        <ele>1209.8</ele>
        <time>2022-08-12T12:34:40.000Z</time>
      </trkpt>
      <trkpt lat="45.11914" lon="5.5556">
        <ele>1210</ele>
        <time>2022-08-12T12:34:41.000Z</time>
      </trkpt>
      <trkpt lat="45.11914" lon="5.55559">
        <ele>1210.2</ele>
        <time>2022-08-12T12:34:42.000Z</time>
      </trkpt>
      <trkpt lat="45.11913" lon="5.55557">
        <ele>1210.2</ele>
        <time>2022-08-12T12:34:43.000Z</time>
      </trkpt>
      <trkpt lat="45.1191" lon="5.55547">
        <ele>1211</ele>
        <time>2022-08-12T12:34:47.000Z</time>
      </trkpt>
      <trkpt lat="45.11909" lon="5.55545">
        <ele>1211.1</ele>
        <time>2022-08-12T12:34:49.000Z</time>
      </trkpt>
      <trkpt lat="45.11909" lon="5.55542">
        <ele>1211.4</ele>
        <time>2022-08-12T12:34:50.000Z</time>
      </trkpt>
      <trkpt lat="45.11908" lon="5.55538">
        <ele>1211.6</ele>
        <time>2022-08-12T12:34:51.000Z</time>
      </trkpt>
      <trkpt lat="45.11904" lon="5.55532">
        <ele>1211.8</ele>
        <time>2022-08-12T12:34:54.000Z</time>
      </trkpt>
      <trkpt lat="45.11903" lon="5.55531">
        <ele>1211.8</ele>
        <time>2022-08-12T12:34:55.000Z</time>
      </trkpt>
      <trkpt lat="45.11903" lon="5.5553">
        <ele>1211.8</ele>
        <time>2022-08-12T12:34:56.000Z</time>
      </trkpt>
      <trkpt lat="45.11904" lon="5.55528">
        <ele>1212.2</ele>
        <time>2022-08-12T12:34:58.000Z</time>
      </trkpt>
      <trkpt lat="45.11905" lon="5.55527">
        <ele>1212.4</ele>
        <time>2022-08-12T12:34:59.000Z</time>
      </trkpt>
      <trkpt lat="45.11904" lon="5.55525">
        <ele>1212.4</ele>
        <time>2022-08-12T12:35:00.000Z</time>
      </trkpt>
      <trkpt lat="45.11902" lon="5.55523">
        <ele>1212.4</ele>
        <time>2022-08-12T12:35:01.000Z</time>
      </trkpt>
      <trkpt lat="45.119" lon="5.5552">
        <ele>1212.5</ele>
        <time>2022-08-12T12:35:02.000Z</time>
      </trkpt>
      <trkpt lat="45.119" lon="5.55519">
        <ele>1212.5</ele>
        <time>2022-08-12T12:35:03.000Z</time>
      </trkpt>
      <trkpt lat="45.11899" lon="5.55517">
        <ele>1212.6</ele>
        <time>2022-08-12T12:35:04.000Z</time>
      </trkpt>
      <trkpt lat="45.11898" lon="5.55516">
        <ele>1212.6</ele>
        <time>2022-08-12T12:35:05.000Z</time>
      </trkpt>
      <trkpt lat="45.11898" lon="5.55513">
        <ele>1212.8</ele>
        <time>2022-08-12T12:35:06.000Z</time>
      </trkpt>
      <trkpt lat="45.11898" lon="5.55511">
        <ele>1213</ele>
        <time>2022-08-12T12:35:07.000Z</time>
      </trkpt>
      <trkpt lat="45.11898" lon="5.5551">
        <ele>1213.2</ele>
        <time>2022-08-12T12:35:08.000Z</time>
      </trkpt>
      <trkpt lat="45.11898" lon="5.55509">
        <ele>1213.4</ele>
        <time>2022-08-12T12:35:09.000Z</time>
      </trkpt>
      <trkpt lat="45.11898" lon="5.55507">
        <ele>1213.5</ele>
        <time>2022-08-12T12:35:10.000Z</time>
      </trkpt>
      <trkpt lat="45.11898" lon="5.55506">
        <ele>1213.6</ele>
        <time>2022-08-12T12:35:11.000Z</time>
      </trkpt>
      <trkpt lat="45.11896" lon="5.55503">
        <ele>1213.7</ele>
        <time>2022-08-12T12:35:12.000Z</time>
      </trkpt>
      <trkpt lat="45.11895" lon="5.55501">
        <ele>1213.8</ele>
        <time>2022-08-12T12:35:13.000Z</time>
      </trkpt>
      <trkpt lat="45.11895" lon="5.555">
        <ele>1213.9</ele>
        <time>2022-08-12T12:35:15.000Z</time>
      </trkpt>
      <trkpt lat="45.11895" lon="5.55499">
        <ele>1214</ele>
        <time>2022-08-12T12:35:16.000Z</time>
      </trkpt>
      <trkpt lat="45.11895" lon="5.55498">
        <ele>1214.3</ele>
        <time>2022-08-12T12:35:17.000Z</time>
      </trkpt>
      <trkpt lat="45.11895" lon="5.55495">
        <ele>1214.6</ele>
        <time>2022-08-12T12:35:18.000Z</time>
      </trkpt>
      <trkpt lat="45.11894" lon="5.55494">
        <ele>1214.9</ele>
        <time>2022-08-12T12:35:19.000Z</time>
      </trkpt>
      <trkpt lat="45.11894" lon="5.55493">
        <ele>1215</ele>
        <time>2022-08-12T12:35:20.000Z</time>
      </trkpt>
      <trkpt lat="45.11893" lon="5.55492">
        <ele>1215.1</ele>
        <time>2022-08-12T12:35:21.000Z</time>
      </trkpt>
      <trkpt lat="45.11892" lon="5.55491">
        <ele>1215.2</ele>
        <time>2022-08-12T12:35:23.000Z</time>
      </trkpt>
      <trkpt lat="45.11892" lon="5.5549">
        <ele>1215.2</ele>
        <time>2022-08-12T12:35:24.000Z</time>
      </trkpt>
      <trkpt lat="45.11892" lon="5.55489">
        <ele>1215.4</ele>
        <time>2022-08-12T12:35:26.000Z</time>
      </trkpt>
      <trkpt lat="45.11891" lon="5.55487">
        <ele>1215.7</ele>
        <time>2022-08-12T12:35:27.000Z</time>
      </trkpt>
      <trkpt lat="45.11892" lon="5.55486">
        <ele>1216</ele>
        <time>2022-08-12T12:35:28.000Z</time>
      </trkpt>
      <trkpt lat="45.11892" lon="5.55484">
        <ele>1216.3</ele>
        <time>2022-08-12T12:35:29.000Z</time>
      </trkpt>
      <trkpt lat="45.11892" lon="5.55483">
        <ele>1216.5</ele>
        <time>2022-08-12T12:35:30.000Z</time>
      </trkpt>
      <trkpt lat="45.11892" lon="5.55482">
        <ele>1216.8</ele>
        <time>2022-08-12T12:35:32.000Z</time>
      </trkpt>
      <trkpt lat="45.11891" lon="5.55479">
        <ele>1217</ele>
        <time>2022-08-12T12:35:33.000Z</time>
      </trkpt>
      <trkpt lat="45.1189" lon="5.55479">
        <ele>1217</ele>
        <time>2022-08-12T12:35:34.000Z</time>
      </trkpt>
      <trkpt lat="45.11889" lon="5.55477">
        <ele>1217.1</ele>
        <time>2022-08-12T12:35:35.000Z</time>
      </trkpt>
      <trkpt lat="45.11889" lon="5.55475">
        <ele>1217.5</ele>
        <time>2022-08-12T12:35:36.000Z</time>
      </trkpt>
      <trkpt lat="45.11887" lon="5.55473">
        <ele>1217.6</ele>
        <time>2022-08-12T12:35:37.000Z</time>
      </trkpt>
      <trkpt lat="45.11886" lon="5.5547">
        <ele>1217.8</ele>
        <time>2022-08-12T12:35:38.000Z</time>
      </trkpt>
      <trkpt lat="45.11885" lon="5.55469">
        <ele>1217.8</ele>
        <time>2022-08-12T12:35:39.000Z</time>
      </trkpt>
      <trkpt lat="45.11884" lon="5.55467">
        <ele>1217.9</ele>
        <time>2022-08-12T12:35:40.000Z</time>
      </trkpt>
      <trkpt lat="45.11884" lon="5.55465">
        <ele>1218.1</ele>
        <time>2022-08-12T12:35:41.000Z</time>
      </trkpt>
      <trkpt lat="45.11883" lon="5.55464">
        <ele>1218.2</ele>
        <time>2022-08-12T12:35:42.000Z</time>
      </trkpt>
      <trkpt lat="45.11883" lon="5.55462">
        <ele>1218.4</ele>
        <time>2022-08-12T12:35:43.000Z</time>
      </trkpt>
      <trkpt lat="45.11882" lon="5.5546">
        <ele>1218.6</ele>
        <time>2022-08-12T12:35:44.000Z</time>
      </trkpt>
      <trkpt lat="45.11881" lon="5.55459">
        <ele>1218.5</ele>
        <time>2022-08-12T12:35:45.000Z</time>
      </trkpt>
      <trkpt lat="45.1188" lon="5.55457">
        <ele>1218.5</ele>
        <time>2022-08-12T12:35:46.000Z</time>
      </trkpt>
      <trkpt lat="45.11878" lon="5.55456">
        <ele>1218.4</ele>
        <time>2022-08-12T12:35:47.000Z</time>
      </trkpt>
      <trkpt lat="45.11877" lon="5.55455">
        <ele>1218.3</ele>
        <time>2022-08-12T12:35:48.000Z</time>
      </trkpt>
      <trkpt lat="45.11876" lon="5.55453">
        <ele>1218.5</ele>
        <time>2022-08-12T12:35:49.000Z</time>
      </trkpt>
      <trkpt lat="45.11875" lon="5.55451">
        <ele>1218.6</ele>
        <time>2022-08-12T12:35:50.000Z</time>
      </trkpt>
      <trkpt lat="45.11875" lon="5.5545">
        <ele>1218.6</ele>
        <time>2022-08-12T12:35:51.000Z</time>
      </trkpt>
      <trkpt lat="45.11874" lon="5.55449">
        <ele>1218.6</ele>
        <time>2022-08-12T12:35:52.000Z</time>
      </trkpt>
      <trkpt lat="45.11873" lon="5.55448">
        <ele>1218.7</ele>
        <time>2022-08-12T12:35:53.000Z</time>
      </trkpt>
      <trkpt lat="45.11872" lon="5.55446">
        <ele>1218.8</ele>
        <time>2022-08-12T12:35:54.000Z</time>
      </trkpt>
      <trkpt lat="45.11871" lon="5.55445">
        <ele>1218.8</ele>
        <time>2022-08-12T12:35:55.000Z</time>
      </trkpt>
      <trkpt lat="45.11871" lon="5.55444">
        <ele>1218.9</ele>
        <time>2022-08-12T12:35:56.000Z</time>
      </trkpt>
      <trkpt lat="45.11869" lon="5.55441">
        <ele>1219.1</ele>
        <time>2022-08-12T12:35:57.000Z</time>
      </trkpt>
      <trkpt lat="45.11869" lon="5.55438">
        <ele>1219.5</ele>
        <time>2022-08-12T12:35:58.000Z</time>
      </trkpt>
      <trkpt lat="45.11867" lon="5.55436">
        <ele>1219.6</ele>
        <time>2022-08-12T12:35:59.000Z</time>
      </trkpt>
      <trkpt lat="45.11866" lon="5.55434">
        <ele>1219.8</ele>
        <time>2022-08-12T12:36:00.000Z</time>
      </trkpt>
      <trkpt lat="45.11865" lon="5.55432">
        <ele>1219.9</ele>
        <time>2022-08-12T12:36:01.000Z</time>
      </trkpt>
      <trkpt lat="45.11864" lon="5.5543">
        <ele>1220.1</ele>
        <time>2022-08-12T12:36:02.000Z</time>
      </trkpt>
      <trkpt lat="45.11863" lon="5.55428">
        <ele>1220.3</ele>
        <time>2022-08-12T12:36:03.000Z</time>
      </trkpt>
      <trkpt lat="45.11862" lon="5.55427">
        <ele>1220.4</ele>
        <time>2022-08-12T12:36:04.000Z</time>
      </trkpt>
      <trkpt lat="45.11861" lon="5.55425">
        <ele>1220.4</ele>
        <time>2022-08-12T12:36:05.000Z</time>
      </trkpt>
      <trkpt lat="45.1186" lon="5.55424">
        <ele>1220.4</ele>
        <time>2022-08-12T12:36:06.000Z</time>
      </trkpt>
      <trkpt lat="45.11859" lon="5.55423">
        <ele>1220.5</ele>
        <time>2022-08-12T12:36:07.000Z</time>
      </trkpt>
      <trkpt lat="45.11858" lon="5.55421">
        <ele>1220.5</ele>
        <time>2022-08-12T12:36:08.000Z</time>
      </trkpt>
      <trkpt lat="45.11857" lon="5.5542">
        <ele>1220.5</ele>
        <time>2022-08-12T12:36:09.000Z</time>
      </trkpt>
      <trkpt lat="45.11856" lon="5.55418">
        <ele>1220.5</ele>
        <time>2022-08-12T12:36:10.000Z</time>
      </trkpt>
      <trkpt lat="45.11855" lon="5.55417">
        <ele>1220.4</ele>
        <time>2022-08-12T12:36:11.000Z</time>
      </trkpt>
      <trkpt lat="45.11854" lon="5.55416">
        <ele>1220.4</ele>
        <time>2022-08-12T12:36:12.000Z</time>
      </trkpt>
      <trkpt lat="45.11853" lon="5.55415">
        <ele>1220.4</ele>
        <time>2022-08-12T12:36:13.000Z</time>
      </trkpt>
      <trkpt lat="45.11853" lon="5.55414">
        <ele>1220.2</ele>
        <time>2022-08-12T12:36:14.000Z</time>
      </trkpt>
      <trkpt lat="45.11852" lon="5.55414">
        <ele>1220.1</ele>
        <time>2022-08-12T12:36:15.000Z</time>
      </trkpt>
      <trkpt lat="45.11851" lon="5.55413">
        <ele>1220.1</ele>
        <time>2022-08-12T12:36:16.000Z</time>
      </trkpt>
      <trkpt lat="45.1185" lon="5.55411">
        <ele>1220</ele>
        <time>2022-08-12T12:36:17.000Z</time>
      </trkpt>
      <trkpt lat="45.11849" lon="5.55409">
        <ele>1220</ele>
        <time>2022-08-12T12:36:18.000Z</time>
      </trkpt>
      <trkpt lat="45.11848" lon="5.55408">
        <ele>1219.9</ele>
        <time>2022-08-12T12:36:19.000Z</time>
      </trkpt>
      <trkpt lat="45.11846" lon="5.55406">
        <ele>1219.8</ele>
        <time>2022-08-12T12:36:20.000Z</time>
      </trkpt>
      <trkpt lat="45.11844" lon="5.55404">
        <ele>1219.5</ele>
        <time>2022-08-12T12:36:21.000Z</time>
      </trkpt>
      <trkpt lat="45.11843" lon="5.55402">
        <ele>1219.5</ele>
        <time>2022-08-12T12:36:22.000Z</time>
      </trkpt>
      <trkpt lat="45.11841" lon="5.554">
        <ele>1219.4</ele>
        <time>2022-08-12T12:36:23.000Z</time>
      </trkpt>
      <trkpt lat="45.1184" lon="5.55398">
        <ele>1219.3</ele>
        <time>2022-08-12T12:36:24.000Z</time>
      </trkpt>
      <trkpt lat="45.11839" lon="5.55398">
        <ele>1219.1</ele>
        <time>2022-08-12T12:36:25.000Z</time>
      </trkpt>
      <trkpt lat="45.11838" lon="5.55397">
        <ele>1218.9</ele>
        <time>2022-08-12T12:36:26.000Z</time>
      </trkpt>
      <trkpt lat="45.11837" lon="5.55396">
        <ele>1218.8</ele>
        <time>2022-08-12T12:36:27.000Z</time>
      </trkpt>
      <trkpt lat="45.11836" lon="5.55394">
        <ele>1218.8</ele>
        <time>2022-08-12T12:36:28.000Z</time>
      </trkpt>
      <trkpt lat="45.11834" lon="5.55391">
        <ele>1219</ele>
        <time>2022-08-12T12:36:30.000Z</time>
      </trkpt>
      <trkpt lat="45.11833" lon="5.55389">
        <ele>1219</ele>
        <time>2022-08-12T12:36:31.000Z</time>
      </trkpt>
      <trkpt lat="45.11832" lon="5.55387">
        <ele>1219</ele>
        <time>2022-08-12T12:36:32.000Z</time>
      </trkpt>
      <trkpt lat="45.11829" lon="5.55384">
        <ele>1218.9</ele>
        <time>2022-08-12T12:36:34.000Z</time>
      </trkpt>
      <trkpt lat="45.11828" lon="5.55382">
        <ele>1218.9</ele>
        <time>2022-08-12T12:36:35.000Z</time>
      </trkpt>
      <trkpt lat="45.11824" lon="5.55377">
        <ele>1218.6</ele>
        <time>2022-08-12T12:36:39.000Z</time>
      </trkpt>
      <trkpt lat="45.11823" lon="5.55377">
        <ele>1218.4</ele>
        <time>2022-08-12T12:36:40.000Z</time>
      </trkpt>
      <trkpt lat="45.11821" lon="5.55375">
        <ele>1218.2</ele>
        <time>2022-08-12T12:36:41.000Z</time>
      </trkpt>
      <trkpt lat="45.1182" lon="5.55374">
        <ele>1218.1</ele>
        <time>2022-08-12T12:36:42.000Z</time>
      </trkpt>
      <trkpt lat="45.11819" lon="5.55373">
        <ele>1218</ele>
        <time>2022-08-12T12:36:43.000Z</time>
      </trkpt>
      <trkpt lat="45.11818" lon="5.55371">
        <ele>1218.1</ele>
        <time>2022-08-12T12:36:44.000Z</time>
      </trkpt>
      <trkpt lat="45.11817" lon="5.55369">
        <ele>1218.1</ele>
        <time>2022-08-12T12:36:45.000Z</time>
      </trkpt>
      <trkpt lat="45.11816" lon="5.55367">
        <ele>1218.1</ele>
        <time>2022-08-12T12:36:46.000Z</time>
      </trkpt>
      <trkpt lat="45.11815" lon="5.55365">
        <ele>1218.2</ele>
        <time>2022-08-12T12:36:47.000Z</time>
      </trkpt>
      <trkpt lat="45.11815" lon="5.55364">
        <ele>1218.2</ele>
        <time>2022-08-12T12:36:48.000Z</time>
      </trkpt>
      <trkpt lat="45.11808" lon="5.55344">
        <ele>1219.7</ele>
        <time>2022-08-12T12:36:54.000Z</time>
      </trkpt>
      <trkpt lat="45.11806" lon="5.55327">
        <ele>1222</ele>
        <time>2022-08-12T12:36:57.000Z</time>
      </trkpt>
      <trkpt lat="45.11805" lon="5.55323">
        <ele>1222.5</ele>
        <time>2022-08-12T12:36:58.000Z</time>
      </trkpt>
      <trkpt lat="45.11805" lon="5.55319">
        <ele>1222.9</ele>
        <time>2022-08-12T12:36:59.000Z</time>
      </trkpt>
      <trkpt lat="45.11804" lon="5.55315">
        <ele>1223.4</ele>
        <time>2022-08-12T12:37:00.000Z</time>
      </trkpt>
      <trkpt lat="45.11804" lon="5.5531">
        <ele>1224.1</ele>
        <time>2022-08-12T12:37:01.000Z</time>
      </trkpt>
      <trkpt lat="45.11805" lon="5.55308">
        <ele>1224.5</ele>
        <time>2022-08-12T12:37:02.000Z</time>
      </trkpt>
      <trkpt lat="45.11805" lon="5.55306">
        <ele>1224.8</ele>
        <time>2022-08-12T12:37:03.000Z</time>
      </trkpt>
      <trkpt lat="45.11805" lon="5.55304">
        <ele>1225.2</ele>
        <time>2022-08-12T12:37:04.000Z</time>
      </trkpt>
      <trkpt lat="45.11806" lon="5.55302">
        <ele>1225.7</ele>
        <time>2022-08-12T12:37:05.000Z</time>
      </trkpt>
      <trkpt lat="45.11806" lon="5.55297">
        <ele>1226.3</ele>
        <time>2022-08-12T12:37:06.000Z</time>
      </trkpt>
      <trkpt lat="45.11806" lon="5.55293">
        <ele>1226.9</ele>
        <time>2022-08-12T12:37:07.000Z</time>
      </trkpt>
      <trkpt lat="45.11803" lon="5.55281">
        <ele>1228.2</ele>
        <time>2022-08-12T12:37:09.000Z</time>
      </trkpt>
      <trkpt lat="45.118" lon="5.55273">
        <ele>1228.9</ele>
        <time>2022-08-12T12:37:10.000Z</time>
      </trkpt>
      <trkpt lat="45.11798" lon="5.55262">
        <ele>1230</ele>
        <time>2022-08-12T12:37:11.000Z</time>
      </trkpt>
      <trkpt lat="45.11796" lon="5.55252">
        <ele>1231.1</ele>
        <time>2022-08-12T12:37:12.000Z</time>
      </trkpt>
      <trkpt lat="45.11795" lon="5.55244">
        <ele>1231.9</ele>
        <time>2022-08-12T12:37:13.000Z</time>
      </trkpt>
      <trkpt lat="45.11794" lon="5.55239">
        <ele>1232.3</ele>
        <time>2022-08-12T12:37:14.000Z</time>
      </trkpt>
      <trkpt lat="45.11794" lon="5.55235">
        <ele>1232.7</ele>
        <time>2022-08-12T12:37:15.000Z</time>
      </trkpt>
      <trkpt lat="45.11794" lon="5.55231">
        <ele>1233.1</ele>
        <time>2022-08-12T12:37:16.000Z</time>
      </trkpt>
      <trkpt lat="45.11795" lon="5.55229">
        <ele>1233.4</ele>
        <time>2022-08-12T12:37:17.000Z</time>
      </trkpt>
      <trkpt lat="45.11792" lon="5.55225">
        <ele>1233.7</ele>
        <time>2022-08-12T12:37:18.000Z</time>
      </trkpt>
      <trkpt lat="45.11789" lon="5.55224">
        <ele>1233.8</ele>
        <time>2022-08-12T12:37:19.000Z</time>
      </trkpt>
      <trkpt lat="45.11788" lon="5.55224">
        <ele>1233.8</ele>
        <time>2022-08-12T12:37:20.000Z</time>
      </trkpt>
      <trkpt lat="45.11786" lon="5.55225">
        <ele>1233.7</ele>
        <time>2022-08-12T12:37:21.000Z</time>
      </trkpt>
      <trkpt lat="45.11785" lon="5.55224">
        <ele>1233.7</ele>
        <time>2022-08-12T12:37:22.000Z</time>
      </trkpt>
      <trkpt lat="45.11784" lon="5.55224">
        <ele>1233.8</ele>
        <time>2022-08-12T12:37:23.000Z</time>
      </trkpt>
      <trkpt lat="45.11784" lon="5.55225">
        <ele>1233.7</ele>
        <time>2022-08-12T12:37:24.000Z</time>
      </trkpt>
      <trkpt lat="45.11783" lon="5.55225">
        <ele>1233.6</ele>
        <time>2022-08-12T12:37:25.000Z</time>
      </trkpt>
      <trkpt lat="45.11782" lon="5.55226">
        <ele>1233.5</ele>
        <time>2022-08-12T12:37:26.000Z</time>
      </trkpt>
      <trkpt lat="45.1178" lon="5.55227">
        <ele>1233.4</ele>
        <time>2022-08-12T12:37:27.000Z</time>
      </trkpt>
      <trkpt lat="45.11779" lon="5.55228">
        <ele>1233.2</ele>
        <time>2022-08-12T12:37:28.000Z</time>
      </trkpt>
      <trkpt lat="45.11778" lon="5.55229">
        <ele>1233</ele>
        <time>2022-08-12T12:37:29.000Z</time>
      </trkpt>
      <trkpt lat="45.11776" lon="5.5523">
        <ele>1233</ele>
        <time>2022-08-12T12:37:30.000Z</time>
      </trkpt>
      <trkpt lat="45.11775" lon="5.5523">
        <ele>1233.1</ele>
        <time>2022-08-12T12:37:31.000Z</time>
      </trkpt>
      <trkpt lat="45.11774" lon="5.55231">
        <ele>1233.1</ele>
        <time>2022-08-12T12:37:32.000Z</time>
      </trkpt>
      <trkpt lat="45.11772" lon="5.55232">
        <ele>1233</ele>
        <time>2022-08-12T12:37:33.000Z</time>
      </trkpt>
      <trkpt lat="45.11771" lon="5.55233">
        <ele>1233</ele>
        <time>2022-08-12T12:37:34.000Z</time>
      </trkpt>
      <trkpt lat="45.11769" lon="5.55233">
        <ele>1233</ele>
        <time>2022-08-12T12:37:35.000Z</time>
      </trkpt>
      <trkpt lat="45.11768" lon="5.55234">
        <ele>1233</ele>
        <time>2022-08-12T12:37:36.000Z</time>
      </trkpt>
      <trkpt lat="45.11768" lon="5.55235">
        <ele>1232.9</ele>
        <time>2022-08-12T12:37:37.000Z</time>
      </trkpt>
      <trkpt lat="45.11767" lon="5.55236">
        <ele>1232.9</ele>
        <time>2022-08-12T12:37:38.000Z</time>
      </trkpt>
      <trkpt lat="45.11766" lon="5.55237">
        <ele>1232.8</ele>
        <time>2022-08-12T12:37:39.000Z</time>
      </trkpt>
      <trkpt lat="45.11765" lon="5.55237">
        <ele>1232.7</ele>
        <time>2022-08-12T12:37:40.000Z</time>
      </trkpt>
      <trkpt lat="45.11765" lon="5.55238">
        <ele>1232.7</ele>
        <time>2022-08-12T12:37:41.000Z</time>
      </trkpt>
      <trkpt lat="45.11765" lon="5.55239">
        <ele>1232.5</ele>
        <time>2022-08-12T12:37:42.000Z</time>
      </trkpt>
      <trkpt lat="45.11764" lon="5.5524">
        <ele>1232.4</ele>
        <time>2022-08-12T12:37:43.000Z</time>
      </trkpt>
      <trkpt lat="45.11764" lon="5.55241">
        <ele>1232.3</ele>
        <time>2022-08-12T12:37:44.000Z</time>
      </trkpt>
      <trkpt lat="45.11763" lon="5.55242">
        <ele>1232.2</ele>
        <time>2022-08-12T12:37:45.000Z</time>
      </trkpt>
      <trkpt lat="45.11761" lon="5.55244">
        <ele>1232</ele>
        <time>2022-08-12T12:37:46.000Z</time>
      </trkpt>
      <trkpt lat="45.1176" lon="5.55246">
        <ele>1231.9</ele>
        <time>2022-08-12T12:37:47.000Z</time>
      </trkpt>
      <trkpt lat="45.11758" lon="5.55248">
        <ele>1231.7</ele>
        <time>2022-08-12T12:37:48.000Z</time>
      </trkpt>
      <trkpt lat="45.11756" lon="5.5525">
        <ele>1231.5</ele>
        <time>2022-08-12T12:37:49.000Z</time>
      </trkpt>
      <trkpt lat="45.11755" lon="5.55251">
        <ele>1231.4</ele>
        <time>2022-08-12T12:37:50.000Z</time>
      </trkpt>
      <trkpt lat="45.11753" lon="5.55253">
        <ele>1231.2</ele>
        <time>2022-08-12T12:37:51.000Z</time>
      </trkpt>
      <trkpt lat="45.11752" lon="5.55256">
        <ele>1230.7</ele>
        <time>2022-08-12T12:38:05.000Z</time>
      </trkpt>
      <trkpt lat="45.11752" lon="5.55258">
        <ele>1230.5</ele>
        <time>2022-08-12T12:38:06.000Z</time>
      </trkpt>
      <trkpt lat="45.11751" lon="5.55259">
        <ele>1230.3</ele>
        <time>2022-08-12T12:38:07.000Z</time>
      </trkpt>
      <trkpt lat="45.1175" lon="5.5526">
        <ele>1230.2</ele>
        <time>2022-08-12T12:38:08.000Z</time>
      </trkpt>
      <trkpt lat="45.11748" lon="5.55261">
        <ele>1230.2</ele>
        <time>2022-08-12T12:38:09.000Z</time>
      </trkpt>
      <trkpt lat="45.11747" lon="5.55261">
        <ele>1230.2</ele>
        <time>2022-08-12T12:38:10.000Z</time>
      </trkpt>
      <trkpt lat="45.11744" lon="5.55262">
        <ele>1230.2</ele>
        <time>2022-08-12T12:38:11.000Z</time>
      </trkpt>
      <trkpt lat="45.11743" lon="5.55263">
        <ele>1230.1</ele>
        <time>2022-08-12T12:38:12.000Z</time>
      </trkpt>
      <trkpt lat="45.11741" lon="5.55264">
        <ele>1230.1</ele>
        <time>2022-08-12T12:38:13.000Z</time>
      </trkpt>
      <trkpt lat="45.11738" lon="5.55265">
        <ele>1230.2</ele>
        <time>2022-08-12T12:38:14.000Z</time>
      </trkpt>
      <trkpt lat="45.11736" lon="5.55264">
        <ele>1230.5</ele>
        <time>2022-08-12T12:38:15.000Z</time>
      </trkpt>
      <trkpt lat="45.11732" lon="5.55263">
        <ele>1230.9</ele>
        <time>2022-08-12T12:38:16.000Z</time>
      </trkpt>
      <trkpt lat="45.11727" lon="5.55263">
        <ele>1231.3</ele>
        <time>2022-08-12T12:38:17.000Z</time>
      </trkpt>
      <trkpt lat="45.11721" lon="5.55265">
        <ele>1231.3</ele>
        <time>2022-08-12T12:38:19.000Z</time>
      </trkpt>
      <trkpt lat="45.11713" lon="5.55265">
        <ele>1231.5</ele>
        <time>2022-08-12T12:38:21.000Z</time>
      </trkpt>
      <trkpt lat="45.11705" lon="5.55263">
        <ele>1232</ele>
        <time>2022-08-12T12:38:23.000Z</time>
      </trkpt>
      <trkpt lat="45.11696" lon="5.55261">
        <ele>1232.4</ele>
        <time>2022-08-12T12:38:25.000Z</time>
      </trkpt>
      <trkpt lat="45.11691" lon="5.55261">
        <ele>1232.2</ele>
        <time>2022-08-12T12:38:26.000Z</time>
      </trkpt>
      <trkpt lat="45.11687" lon="5.5526">
        <ele>1231.9</ele>
        <time>2022-08-12T12:38:27.000Z</time>
      </trkpt>
      <trkpt lat="45.11682" lon="5.55258">
        <ele>1231.9</ele>
        <time>2022-08-12T12:38:28.000Z</time>
      </trkpt>
      <trkpt lat="45.11678" lon="5.55254">
        <ele>1232</ele>
        <time>2022-08-12T12:38:29.000Z</time>
      </trkpt>
      <trkpt lat="45.11675" lon="5.55251">
        <ele>1232.4</ele>
        <time>2022-08-12T12:38:30.000Z</time>
      </trkpt>
      <trkpt lat="45.11671" lon="5.55247">
        <ele>1232.7</ele>
        <time>2022-08-12T12:38:31.000Z</time>
      </trkpt>
      <trkpt lat="45.11668" lon="5.55242">
        <ele>1233.2</ele>
        <time>2022-08-12T12:38:32.000Z</time>
      </trkpt>
      <trkpt lat="45.11666" lon="5.55238">
        <ele>1233.6</ele>
        <time>2022-08-12T12:38:33.000Z</time>
      </trkpt>
      <trkpt lat="45.11664" lon="5.55235">
        <ele>1233.9</ele>
        <time>2022-08-12T12:38:34.000Z</time>
      </trkpt>
      <trkpt lat="45.11663" lon="5.55232">
        <ele>1234.1</ele>
        <time>2022-08-12T12:38:35.000Z</time>
      </trkpt>
      <trkpt lat="45.11661" lon="5.5523">
        <ele>1234.2</ele>
        <time>2022-08-12T12:38:36.000Z</time>
      </trkpt>
      <trkpt lat="45.1166" lon="5.55228">
        <ele>1234.4</ele>
        <time>2022-08-12T12:38:37.000Z</time>
      </trkpt>
      <trkpt lat="45.11659" lon="5.55226">
        <ele>1234.5</ele>
        <time>2022-08-12T12:38:38.000Z</time>
      </trkpt>
      <trkpt lat="45.11658" lon="5.55225">
        <ele>1234.6</ele>
        <time>2022-08-12T12:38:39.000Z</time>
      </trkpt>
      <trkpt lat="45.11656" lon="5.55222">
        <ele>1234.8</ele>
        <time>2022-08-12T12:38:40.000Z</time>
      </trkpt>
      <trkpt lat="45.11655" lon="5.5522">
        <ele>1235.1</ele>
        <time>2022-08-12T12:38:41.000Z</time>
      </trkpt>
      <trkpt lat="45.11654" lon="5.55218">
        <ele>1235.4</ele>
        <time>2022-08-12T12:38:42.000Z</time>
      </trkpt>
      <trkpt lat="45.11654" lon="5.55217">
        <ele>1235.5</ele>
        <time>2022-08-12T12:38:43.000Z</time>
      </trkpt>
      <trkpt lat="45.11653" lon="5.55215">
        <ele>1235.6</ele>
        <time>2022-08-12T12:38:44.000Z</time>
      </trkpt>
      <trkpt lat="45.11652" lon="5.55214">
        <ele>1235.7</ele>
        <time>2022-08-12T12:38:45.000Z</time>
      </trkpt>
      <trkpt lat="45.11652" lon="5.55212">
        <ele>1236</ele>
        <time>2022-08-12T12:38:46.000Z</time>
      </trkpt>
      <trkpt lat="45.11651" lon="5.5521">
        <ele>1236.3</ele>
        <time>2022-08-12T12:38:47.000Z</time>
      </trkpt>
      <trkpt lat="45.11651" lon="5.55209">
        <ele>1236.5</ele>
        <time>2022-08-12T12:38:48.000Z</time>
      </trkpt>
      <trkpt lat="45.1165" lon="5.55207">
        <ele>1236.7</ele>
        <time>2022-08-12T12:38:49.000Z</time>
      </trkpt>
      <trkpt lat="45.11649" lon="5.55206">
        <ele>1236.8</ele>
        <time>2022-08-12T12:38:50.000Z</time>
      </trkpt>
      <trkpt lat="45.11648" lon="5.55204">
        <ele>1237</ele>
        <time>2022-08-12T12:38:51.000Z</time>
      </trkpt>
      <trkpt lat="45.11647" lon="5.55203">
        <ele>1237.1</ele>
        <time>2022-08-12T12:38:52.000Z</time>
      </trkpt>
      <trkpt lat="45.11646" lon="5.55202">
        <ele>1237.3</ele>
        <time>2022-08-12T12:38:55.000Z</time>
      </trkpt>
      <trkpt lat="45.11646" lon="5.55201">
        <ele>1237.3</ele>
        <time>2022-08-12T12:38:56.000Z</time>
      </trkpt>
      <trkpt lat="45.11646" lon="5.552">
        <ele>1237.5</ele>
        <time>2022-08-12T12:38:59.000Z</time>
      </trkpt>
      <trkpt lat="45.11645" lon="5.55199">
        <ele>1237.7</ele>
        <time>2022-08-12T12:39:00.000Z</time>
      </trkpt>
      <trkpt lat="45.11645" lon="5.55198">
        <ele>1237.8</ele>
        <time>2022-08-12T12:39:01.000Z</time>
      </trkpt>
      <trkpt lat="45.11645" lon="5.55197">
        <ele>1238</ele>
        <time>2022-08-12T12:39:03.000Z</time>
      </trkpt>
      <trkpt lat="45.11644" lon="5.55194">
        <ele>1238.5</ele>
        <time>2022-08-12T12:39:05.000Z</time>
      </trkpt>
      <trkpt lat="45.11644" lon="5.55192">
        <ele>1238.7</ele>
        <time>2022-08-12T12:39:06.000Z</time>
      </trkpt>
      <trkpt lat="45.11643" lon="5.5519">
        <ele>1238.9</ele>
        <time>2022-08-12T12:39:07.000Z</time>
      </trkpt>
      <trkpt lat="45.11642" lon="5.55187">
        <ele>1239</ele>
        <time>2022-08-12T12:39:08.000Z</time>
      </trkpt>
      <trkpt lat="45.11641" lon="5.55185">
        <ele>1239.2</ele>
        <time>2022-08-12T12:39:09.000Z</time>
      </trkpt>
      <trkpt lat="45.11641" lon="5.55183">
        <ele>1239.3</ele>
        <time>2022-08-12T12:39:10.000Z</time>
      </trkpt>
      <trkpt lat="45.1164" lon="5.55181">
        <ele>1239.5</ele>
        <time>2022-08-12T12:39:11.000Z</time>
      </trkpt>
      <trkpt lat="45.1164" lon="5.55179">
        <ele>1239.7</ele>
        <time>2022-08-12T12:39:12.000Z</time>
      </trkpt>
      <trkpt lat="45.11639" lon="5.55177">
        <ele>1239.9</ele>
        <time>2022-08-12T12:39:13.000Z</time>
      </trkpt>
      <trkpt lat="45.11637" lon="5.55176">
        <ele>1239.8</ele>
        <time>2022-08-12T12:39:15.000Z</time>
      </trkpt>
      <trkpt lat="45.11636" lon="5.55175">
        <ele>1239.8</ele>
        <time>2022-08-12T12:39:16.000Z</time>
      </trkpt>
      <trkpt lat="45.11636" lon="5.55173">
        <ele>1240</ele>
        <time>2022-08-12T12:39:17.000Z</time>
      </trkpt>
      <trkpt lat="45.11635" lon="5.5517">
        <ele>1240.3</ele>
        <time>2022-08-12T12:39:18.000Z</time>
      </trkpt>
      <trkpt lat="45.11635" lon="5.55169">
        <ele>1240.4</ele>
        <time>2022-08-12T12:39:19.000Z</time>
      </trkpt>
      <trkpt lat="45.11635" lon="5.55166">
        <ele>1240.6</ele>
        <time>2022-08-12T12:39:20.000Z</time>
      </trkpt>
      <trkpt lat="45.11635" lon="5.55164">
        <ele>1240.9</ele>
        <time>2022-08-12T12:39:22.000Z</time>
      </trkpt>
      <trkpt lat="45.11634" lon="5.55162">
        <ele>1241.2</ele>
        <time>2022-08-12T12:39:23.000Z</time>
      </trkpt>
      <trkpt lat="45.11634" lon="5.5516">
        <ele>1241.4</ele>
        <time>2022-08-12T12:39:24.000Z</time>
      </trkpt>
      <trkpt lat="45.11633" lon="5.55157">
        <ele>1241.8</ele>
        <time>2022-08-12T12:39:25.000Z</time>
      </trkpt>
      <trkpt lat="45.11633" lon="5.55155">
        <ele>1242.1</ele>
        <time>2022-08-12T12:39:26.000Z</time>
      </trkpt>
      <trkpt lat="45.11633" lon="5.55154">
        <ele>1242.2</ele>
        <time>2022-08-12T12:39:27.000Z</time>
      </trkpt>
      <trkpt lat="45.11633" lon="5.55152">
        <ele>1242.4</ele>
        <time>2022-08-12T12:39:28.000Z</time>
      </trkpt>
      <trkpt lat="45.11633" lon="5.55151">
        <ele>1242.6</ele>
        <time>2022-08-12T12:39:29.000Z</time>
      </trkpt>
      <trkpt lat="45.11631" lon="5.5515">
        <ele>1242.6</ele>
        <time>2022-08-12T12:39:30.000Z</time>
      </trkpt>
      <trkpt lat="45.11631" lon="5.55149">
        <ele>1242.7</ele>
        <time>2022-08-12T12:39:31.000Z</time>
      </trkpt>
      <trkpt lat="45.11631" lon="5.55148">
        <ele>1242.8</ele>
        <time>2022-08-12T12:39:35.000Z</time>
      </trkpt>
      <trkpt lat="45.1163" lon="5.55146">
        <ele>1243</ele>
        <time>2022-08-12T12:39:36.000Z</time>
      </trkpt>
      <trkpt lat="45.1163" lon="5.55145">
        <ele>1243.1</ele>
        <time>2022-08-12T12:39:39.000Z</time>
      </trkpt>
      <trkpt lat="45.1163" lon="5.55144">
        <ele>1243.2</ele>
        <time>2022-08-12T12:39:40.000Z</time>
      </trkpt>
      <trkpt lat="45.1163" lon="5.55143">
        <ele>1243.4</ele>
        <time>2022-08-12T12:39:42.000Z</time>
      </trkpt>
      <trkpt lat="45.1163" lon="5.55142">
        <ele>1243.6</ele>
        <time>2022-08-12T12:39:43.000Z</time>
      </trkpt>
      <trkpt lat="45.1163" lon="5.5514">
        <ele>1243.8</ele>
        <time>2022-08-12T12:39:44.000Z</time>
      </trkpt>
      <trkpt lat="45.1163" lon="5.55139">
        <ele>1244</ele>
        <time>2022-08-12T12:39:45.000Z</time>
      </trkpt>
      <trkpt lat="45.11629" lon="5.55138">
        <ele>1244.1</ele>
        <time>2022-08-12T12:39:48.000Z</time>
      </trkpt>
      <trkpt lat="45.11628" lon="5.55136">
        <ele>1244.1</ele>
        <time>2022-08-12T12:39:49.000Z</time>
      </trkpt>
      <trkpt lat="45.11626" lon="5.55134">
        <ele>1244.1</ele>
        <time>2022-08-12T12:39:50.000Z</time>
      </trkpt>
      <trkpt lat="45.11626" lon="5.55132">
        <ele>1244.1</ele>
        <time>2022-08-12T12:39:51.000Z</time>
      </trkpt>
      <trkpt lat="45.11625" lon="5.5513">
        <ele>1244.4</ele>
        <time>2022-08-12T12:39:52.000Z</time>
      </trkpt>
      <trkpt lat="45.11625" lon="5.55128">
        <ele>1244.5</ele>
        <time>2022-08-12T12:39:53.000Z</time>
      </trkpt>
      <trkpt lat="45.11625" lon="5.55127">
        <ele>1244.6</ele>
        <time>2022-08-12T12:39:54.000Z</time>
      </trkpt>
      <trkpt lat="45.11624" lon="5.55124">
        <ele>1244.7</ele>
        <time>2022-08-12T12:39:55.000Z</time>
      </trkpt>
      <trkpt lat="45.11624" lon="5.55123">
        <ele>1244.8</ele>
        <time>2022-08-12T12:39:57.000Z</time>
      </trkpt>
      <trkpt lat="45.11624" lon="5.55122">
        <ele>1244.9</ele>
        <time>2022-08-12T12:39:58.000Z</time>
      </trkpt>
      <trkpt lat="45.11623" lon="5.5512">
        <ele>1245</ele>
        <time>2022-08-12T12:39:59.000Z</time>
      </trkpt>
      <trkpt lat="45.11623" lon="5.55118">
        <ele>1245.1</ele>
        <time>2022-08-12T12:40:00.000Z</time>
      </trkpt>
      <trkpt lat="45.11623" lon="5.55116">
        <ele>1245.2</ele>
        <time>2022-08-12T12:40:01.000Z</time>
      </trkpt>
      <trkpt lat="45.11623" lon="5.55115">
        <ele>1245.3</ele>
        <time>2022-08-12T12:40:02.000Z</time>
      </trkpt>
      <trkpt lat="45.11622" lon="5.55114">
        <ele>1245.4</ele>
        <time>2022-08-12T12:40:03.000Z</time>
      </trkpt>
      <trkpt lat="45.11621" lon="5.55112">
        <ele>1245.3</ele>
        <time>2022-08-12T12:40:04.000Z</time>
      </trkpt>
      <trkpt lat="45.1162" lon="5.5511">
        <ele>1245.4</ele>
        <time>2022-08-12T12:40:05.000Z</time>
      </trkpt>
      <trkpt lat="45.1162" lon="5.55108">
        <ele>1245.6</ele>
        <time>2022-08-12T12:40:06.000Z</time>
      </trkpt>
      <trkpt lat="45.1162" lon="5.55106">
        <ele>1245.7</ele>
        <time>2022-08-12T12:40:07.000Z</time>
      </trkpt>
      <trkpt lat="45.11619" lon="5.55103">
        <ele>1245.9</ele>
        <time>2022-08-12T12:40:08.000Z</time>
      </trkpt>
      <trkpt lat="45.11619" lon="5.55101">
        <ele>1246.1</ele>
        <time>2022-08-12T12:40:09.000Z</time>
      </trkpt>
      <trkpt lat="45.11619" lon="5.55099">
        <ele>1246.2</ele>
        <time>2022-08-12T12:40:10.000Z</time>
      </trkpt>
      <trkpt lat="45.11619" lon="5.55098">
        <ele>1246.4</ele>
        <time>2022-08-12T12:40:11.000Z</time>
      </trkpt>
      <trkpt lat="45.11619" lon="5.55097">
        <ele>1246.5</ele>
        <time>2022-08-12T12:40:12.000Z</time>
      </trkpt>
      <trkpt lat="45.11618" lon="5.55094">
        <ele>1246.7</ele>
        <time>2022-08-12T12:40:13.000Z</time>
      </trkpt>
      <trkpt lat="45.11618" lon="5.55093">
        <ele>1246.8</ele>
        <time>2022-08-12T12:40:14.000Z</time>
      </trkpt>
      <trkpt lat="45.11618" lon="5.55091">
        <ele>1246.9</ele>
        <time>2022-08-12T12:40:15.000Z</time>
      </trkpt>
      <trkpt lat="45.11618" lon="5.5509">
        <ele>1247.1</ele>
        <time>2022-08-12T12:40:16.000Z</time>
      </trkpt>
      <trkpt lat="45.11618" lon="5.55089">
        <ele>1247.2</ele>
        <time>2022-08-12T12:40:17.000Z</time>
      </trkpt>
      <trkpt lat="45.11618" lon="5.55087">
        <ele>1247.3</ele>
        <time>2022-08-12T12:40:20.000Z</time>
      </trkpt>
      <trkpt lat="45.11618" lon="5.55084">
        <ele>1247.6</ele>
        <time>2022-08-12T12:40:21.000Z</time>
      </trkpt>
      <trkpt lat="45.11617" lon="5.55082">
        <ele>1247.7</ele>
        <time>2022-08-12T12:40:22.000Z</time>
      </trkpt>
      <trkpt lat="45.11617" lon="5.5508">
        <ele>1247.9</ele>
        <time>2022-08-12T12:40:23.000Z</time>
      </trkpt>
      <trkpt lat="45.11617" lon="5.55077">
        <ele>1248.1</ele>
        <time>2022-08-12T12:40:24.000Z</time>
      </trkpt>
      <trkpt lat="45.11617" lon="5.55075">
        <ele>1248.3</ele>
        <time>2022-08-12T12:40:25.000Z</time>
      </trkpt>
      <trkpt lat="45.11616" lon="5.55073">
        <ele>1248.4</ele>
        <time>2022-08-12T12:40:26.000Z</time>
      </trkpt>
      <trkpt lat="45.11616" lon="5.55071">
        <ele>1248.4</ele>
        <time>2022-08-12T12:40:27.000Z</time>
      </trkpt>
      <trkpt lat="45.11615" lon="5.55069">
        <ele>1248.5</ele>
        <time>2022-08-12T12:40:28.000Z</time>
      </trkpt>
      <trkpt lat="45.11615" lon="5.55067">
        <ele>1248.6</ele>
        <time>2022-08-12T12:40:29.000Z</time>
      </trkpt>
      <trkpt lat="45.11615" lon="5.55065">
        <ele>1248.7</ele>
        <time>2022-08-12T12:40:30.000Z</time>
      </trkpt>
      <trkpt lat="45.11616" lon="5.55064">
        <ele>1248.8</ele>
        <time>2022-08-12T12:40:31.000Z</time>
      </trkpt>
      <trkpt lat="45.11616" lon="5.55063">
        <ele>1248.9</ele>
        <time>2022-08-12T12:40:32.000Z</time>
      </trkpt>
      <trkpt lat="45.11616" lon="5.55061">
        <ele>1249.1</ele>
        <time>2022-08-12T12:40:33.000Z</time>
      </trkpt>
      <trkpt lat="45.11616" lon="5.55059">
        <ele>1249.3</ele>
        <time>2022-08-12T12:40:34.000Z</time>
      </trkpt>
      <trkpt lat="45.11616" lon="5.55056">
        <ele>1249.5</ele>
        <time>2022-08-12T12:40:35.000Z</time>
      </trkpt>
      <trkpt lat="45.11616" lon="5.55055">
        <ele>1249.5</ele>
        <time>2022-08-12T12:40:37.000Z</time>
      </trkpt>
      <trkpt lat="45.11614" lon="5.55053">
        <ele>1249.5</ele>
        <time>2022-08-12T12:40:38.000Z</time>
      </trkpt>
      <trkpt lat="45.11613" lon="5.55052">
        <ele>1249.5</ele>
        <time>2022-08-12T12:40:39.000Z</time>
      </trkpt>
      <trkpt lat="45.11613" lon="5.5505">
        <ele>1249.6</ele>
        <time>2022-08-12T12:40:40.000Z</time>
      </trkpt>
      <trkpt lat="45.11612" lon="5.55048">
        <ele>1249.7</ele>
        <time>2022-08-12T12:40:41.000Z</time>
      </trkpt>
      <trkpt lat="45.11612" lon="5.55046">
        <ele>1249.8</ele>
        <time>2022-08-12T12:40:42.000Z</time>
      </trkpt>
      <trkpt lat="45.11612" lon="5.55044">
        <ele>1249.9</ele>
        <time>2022-08-12T12:40:43.000Z</time>
      </trkpt>
      <trkpt lat="45.11612" lon="5.55042">
        <ele>1250.1</ele>
        <time>2022-08-12T12:40:44.000Z</time>
      </trkpt>
      <trkpt lat="45.11612" lon="5.5504">
        <ele>1250.2</ele>
        <time>2022-08-12T12:40:45.000Z</time>
      </trkpt>
      <trkpt lat="45.11612" lon="5.55039">
        <ele>1250.3</ele>
        <time>2022-08-12T12:40:46.000Z</time>
      </trkpt>
      <trkpt lat="45.11612" lon="5.55037">
        <ele>1250.5</ele>
        <time>2022-08-12T12:40:47.000Z</time>
      </trkpt>
      <trkpt lat="45.11613" lon="5.55035">
        <ele>1250.6</ele>
        <time>2022-08-12T12:40:48.000Z</time>
      </trkpt>
      <trkpt lat="45.11613" lon="5.55034">
        <ele>1250.7</ele>
        <time>2022-08-12T12:40:49.000Z</time>
      </trkpt>
      <trkpt lat="45.11613" lon="5.55033">
        <ele>1250.8</ele>
        <time>2022-08-12T12:40:50.000Z</time>
      </trkpt>
      <trkpt lat="45.11613" lon="5.55032">
        <ele>1250.9</ele>
        <time>2022-08-12T12:40:51.000Z</time>
      </trkpt>
      <trkpt lat="45.11613" lon="5.55031">
        <ele>1251</ele>
        <time>2022-08-12T12:40:52.000Z</time>
      </trkpt>
      <trkpt lat="45.11613" lon="5.55029">
        <ele>1251.1</ele>
        <time>2022-08-12T12:40:53.000Z</time>
      </trkpt>
      <trkpt lat="45.11613" lon="5.55028">
        <ele>1251.2</ele>
        <time>2022-08-12T12:40:54.000Z</time>
      </trkpt>
      <trkpt lat="45.11612" lon="5.55025">
        <ele>1251.3</ele>
        <time>2022-08-12T12:40:55.000Z</time>
      </trkpt>
      <trkpt lat="45.11611" lon="5.55023">
        <ele>1251.3</ele>
        <time>2022-08-12T12:40:56.000Z</time>
      </trkpt>
      <trkpt lat="45.11611" lon="5.5502">
        <ele>1251.5</ele>
        <time>2022-08-12T12:40:57.000Z</time>
      </trkpt>
      <trkpt lat="45.1161" lon="5.55018">
        <ele>1251.6</ele>
        <time>2022-08-12T12:40:58.000Z</time>
      </trkpt>
      <trkpt lat="45.1161" lon="5.55015">
        <ele>1251.8</ele>
        <time>2022-08-12T12:40:59.000Z</time>
      </trkpt>
      <trkpt lat="45.1161" lon="5.55012">
        <ele>1252</ele>
        <time>2022-08-12T12:41:00.000Z</time>
      </trkpt>
      <trkpt lat="45.11609" lon="5.5501">
        <ele>1252.1</ele>
        <time>2022-08-12T12:41:01.000Z</time>
      </trkpt>
      <trkpt lat="45.11608" lon="5.55008">
        <ele>1252.2</ele>
        <time>2022-08-12T12:41:02.000Z</time>
      </trkpt>
      <trkpt lat="45.11606" lon="5.55005">
        <ele>1252.2</ele>
        <time>2022-08-12T12:41:03.000Z</time>
      </trkpt>
      <trkpt lat="45.11605" lon="5.55003">
        <ele>1252.3</ele>
        <time>2022-08-12T12:41:04.000Z</time>
      </trkpt>
      <trkpt lat="45.11604" lon="5.55001">
        <ele>1252.4</ele>
        <time>2022-08-12T12:41:05.000Z</time>
      </trkpt>
      <trkpt lat="45.11603" lon="5.54997">
        <ele>1252.6</ele>
        <time>2022-08-12T12:41:07.000Z</time>
      </trkpt>
      <trkpt lat="45.11602" lon="5.54995">
        <ele>1252.7</ele>
        <time>2022-08-12T12:41:08.000Z</time>
      </trkpt>
      <trkpt lat="45.11602" lon="5.54993">
        <ele>1252.8</ele>
        <time>2022-08-12T12:41:09.000Z</time>
      </trkpt>
      <trkpt lat="45.11602" lon="5.54991">
        <ele>1253</ele>
        <time>2022-08-12T12:41:11.000Z</time>
      </trkpt>
      <trkpt lat="45.11601" lon="5.54988">
        <ele>1253.1</ele>
        <time>2022-08-12T12:41:12.000Z</time>
      </trkpt>
      <trkpt lat="45.11601" lon="5.54986">
        <ele>1253.3</ele>
        <time>2022-08-12T12:41:13.000Z</time>
      </trkpt>
      <trkpt lat="45.11602" lon="5.54985">
        <ele>1253.4</ele>
        <time>2022-08-12T12:41:14.000Z</time>
      </trkpt>
      <trkpt lat="45.11602" lon="5.54982">
        <ele>1253.6</ele>
        <time>2022-08-12T12:41:15.000Z</time>
      </trkpt>
      <trkpt lat="45.11601" lon="5.5498">
        <ele>1253.7</ele>
        <time>2022-08-12T12:41:16.000Z</time>
      </trkpt>
      <trkpt lat="45.11601" lon="5.54978">
        <ele>1253.8</ele>
        <time>2022-08-12T12:41:17.000Z</time>
      </trkpt>
      <trkpt lat="45.116" lon="5.54976">
        <ele>1253.9</ele>
        <time>2022-08-12T12:41:18.000Z</time>
      </trkpt>
      <trkpt lat="45.11599" lon="5.54974">
        <ele>1254</ele>
        <time>2022-08-12T12:41:19.000Z</time>
      </trkpt>
      <trkpt lat="45.11598" lon="5.54971">
        <ele>1254.1</ele>
        <time>2022-08-12T12:41:20.000Z</time>
      </trkpt>
      <trkpt lat="45.11598" lon="5.5497">
        <ele>1254.2</ele>
        <time>2022-08-12T12:41:21.000Z</time>
      </trkpt>
      <trkpt lat="45.11598" lon="5.54969">
        <ele>1254.2</ele>
        <time>2022-08-12T12:41:22.000Z</time>
      </trkpt>
      <trkpt lat="45.11598" lon="5.54968">
        <ele>1254.3</ele>
        <time>2022-08-12T12:41:23.000Z</time>
      </trkpt>
      <trkpt lat="45.11598" lon="5.54966">
        <ele>1254.4</ele>
        <time>2022-08-12T12:41:24.000Z</time>
      </trkpt>
      <trkpt lat="45.11598" lon="5.54965">
        <ele>1254.4</ele>
        <time>2022-08-12T12:41:25.000Z</time>
      </trkpt>
      <trkpt lat="45.11597" lon="5.54964">
        <ele>1254.4</ele>
        <time>2022-08-12T12:41:26.000Z</time>
      </trkpt>
      <trkpt lat="45.11596" lon="5.54962">
        <ele>1254.5</ele>
        <time>2022-08-12T12:41:27.000Z</time>
      </trkpt>
      <trkpt lat="45.11596" lon="5.54961">
        <ele>1254.5</ele>
        <time>2022-08-12T12:41:28.000Z</time>
      </trkpt>
      <trkpt lat="45.11595" lon="5.54959">
        <ele>1254.6</ele>
        <time>2022-08-12T12:41:29.000Z</time>
      </trkpt>
      <trkpt lat="45.11594" lon="5.54957">
        <ele>1254.7</ele>
        <time>2022-08-12T12:41:30.000Z</time>
      </trkpt>
      <trkpt lat="45.11594" lon="5.54956">
        <ele>1254.7</ele>
        <time>2022-08-12T12:41:31.000Z</time>
      </trkpt>
      <trkpt lat="45.11594" lon="5.54955">
        <ele>1254.8</ele>
        <time>2022-08-12T12:41:32.000Z</time>
      </trkpt>
      <trkpt lat="45.11594" lon="5.54954">
        <ele>1254.9</ele>
        <time>2022-08-12T12:41:33.000Z</time>
      </trkpt>
      <trkpt lat="45.11594" lon="5.54952">
        <ele>1254.9</ele>
        <time>2022-08-12T12:41:34.000Z</time>
      </trkpt>
      <trkpt lat="45.11595" lon="5.54952">
        <ele>1255</ele>
        <time>2022-08-12T12:41:35.000Z</time>
      </trkpt>
      <trkpt lat="45.11595" lon="5.5495">
        <ele>1255.1</ele>
        <time>2022-08-12T12:41:36.000Z</time>
      </trkpt>
      <trkpt lat="45.11595" lon="5.54949">
        <ele>1255.2</ele>
        <time>2022-08-12T12:41:37.000Z</time>
      </trkpt>
      <trkpt lat="45.11595" lon="5.54948">
        <ele>1255.3</ele>
        <time>2022-08-12T12:41:38.000Z</time>
      </trkpt>
      <trkpt lat="45.11596" lon="5.54947">
        <ele>1255.3</ele>
        <time>2022-08-12T12:41:39.000Z</time>
      </trkpt>
      <trkpt lat="45.11596" lon="5.54946">
        <ele>1255.4</ele>
        <time>2022-08-12T12:41:40.000Z</time>
      </trkpt>
      <trkpt lat="45.11596" lon="5.54945">
        <ele>1255.4</ele>
        <time>2022-08-12T12:41:41.000Z</time>
      </trkpt>
      <trkpt lat="45.11597" lon="5.54944">
        <ele>1255.5</ele>
        <time>2022-08-12T12:41:42.000Z</time>
      </trkpt>
      <trkpt lat="45.11597" lon="5.54943">
        <ele>1255.5</ele>
        <time>2022-08-12T12:41:43.000Z</time>
      </trkpt>
      <trkpt lat="45.11597" lon="5.54942">
        <ele>1255.5</ele>
        <time>2022-08-12T12:41:44.000Z</time>
      </trkpt>
      <trkpt lat="45.11597" lon="5.54941">
        <ele>1255.5</ele>
        <time>2022-08-12T12:41:45.000Z</time>
      </trkpt>
      <trkpt lat="45.11596" lon="5.54939">
        <ele>1255.6</ele>
        <time>2022-08-12T12:41:46.000Z</time>
      </trkpt>
      <trkpt lat="45.11596" lon="5.54938">
        <ele>1255.6</ele>
        <time>2022-08-12T12:41:47.000Z</time>
      </trkpt>
      <trkpt lat="45.11596" lon="5.54936">
        <ele>1255.6</ele>
        <time>2022-08-12T12:41:48.000Z</time>
      </trkpt>
      <trkpt lat="45.11596" lon="5.54934">
        <ele>1255.7</ele>
        <time>2022-08-12T12:41:49.000Z</time>
      </trkpt>
      <trkpt lat="45.11596" lon="5.54931">
        <ele>1255.7</ele>
        <time>2022-08-12T12:41:50.000Z</time>
      </trkpt>
      <trkpt lat="45.11596" lon="5.5493">
        <ele>1255.7</ele>
        <time>2022-08-12T12:41:51.000Z</time>
      </trkpt>
      <trkpt lat="45.11596" lon="5.54929">
        <ele>1255.8</ele>
        <time>2022-08-12T12:41:52.000Z</time>
      </trkpt>
      <trkpt lat="45.11596" lon="5.54928">
        <ele>1255.8</ele>
        <time>2022-08-12T12:41:53.000Z</time>
      </trkpt>
      <trkpt lat="45.11597" lon="5.54927">
        <ele>1255.8</ele>
        <time>2022-08-12T12:41:54.000Z</time>
      </trkpt>
      <trkpt lat="45.11598" lon="5.54925">
        <ele>1255.9</ele>
        <time>2022-08-12T12:41:55.000Z</time>
      </trkpt>
      <trkpt lat="45.11598" lon="5.54923">
        <ele>1255.9</ele>
        <time>2022-08-12T12:41:56.000Z</time>
      </trkpt>
      <trkpt lat="45.11599" lon="5.54921">
        <ele>1255.9</ele>
        <time>2022-08-12T12:41:57.000Z</time>
      </trkpt>
      <trkpt lat="45.116" lon="5.5492">
        <ele>1256</ele>
        <time>2022-08-12T12:41:58.000Z</time>
      </trkpt>
      <trkpt lat="45.116" lon="5.54918">
        <ele>1256</ele>
        <time>2022-08-12T12:41:59.000Z</time>
      </trkpt>
      <trkpt lat="45.11601" lon="5.54916">
        <ele>1256</ele>
        <time>2022-08-12T12:42:00.000Z</time>
      </trkpt>
      <trkpt lat="45.11601" lon="5.54915">
        <ele>1256</ele>
        <time>2022-08-12T12:42:01.000Z</time>
      </trkpt>
      <trkpt lat="45.11602" lon="5.54913">
        <ele>1255.9</ele>
        <time>2022-08-12T12:42:02.000Z</time>
      </trkpt>
      <trkpt lat="45.11602" lon="5.54912">
        <ele>1255.9</ele>
        <time>2022-08-12T12:42:03.000Z</time>
      </trkpt>
      <trkpt lat="45.11603" lon="5.54909">
        <ele>1255.8</ele>
        <time>2022-08-12T12:42:04.000Z</time>
      </trkpt>
      <trkpt lat="45.11603" lon="5.54907">
        <ele>1255.8</ele>
        <time>2022-08-12T12:42:05.000Z</time>
      </trkpt>
      <trkpt lat="45.11603" lon="5.54906">
        <ele>1255.7</ele>
        <time>2022-08-12T12:42:06.000Z</time>
      </trkpt>
      <trkpt lat="45.11604" lon="5.54905">
        <ele>1255.7</ele>
        <time>2022-08-12T12:42:07.000Z</time>
      </trkpt>
      <trkpt lat="45.11604" lon="5.54904">
        <ele>1255.6</ele>
        <time>2022-08-12T12:42:08.000Z</time>
      </trkpt>
      <trkpt lat="45.11604" lon="5.54902">
        <ele>1255.6</ele>
        <time>2022-08-12T12:42:09.000Z</time>
      </trkpt>
      <trkpt lat="45.11602" lon="5.54899">
        <ele>1255.6</ele>
        <time>2022-08-12T12:42:10.000Z</time>
      </trkpt>
      <trkpt lat="45.11601" lon="5.54897">
        <ele>1255.6</ele>
        <time>2022-08-12T12:42:11.000Z</time>
      </trkpt>
      <trkpt lat="45.11599" lon="5.54895">
        <ele>1255.6</ele>
        <time>2022-08-12T12:42:12.000Z</time>
      </trkpt>
      <trkpt lat="45.11598" lon="5.54893">
        <ele>1255.6</ele>
        <time>2022-08-12T12:42:13.000Z</time>
      </trkpt>
      <trkpt lat="45.11596" lon="5.54891">
        <ele>1255.6</ele>
        <time>2022-08-12T12:42:14.000Z</time>
      </trkpt>
      <trkpt lat="45.11596" lon="5.54889">
        <ele>1255.6</ele>
        <time>2022-08-12T12:42:15.000Z</time>
      </trkpt>
      <trkpt lat="45.11597" lon="5.54887">
        <ele>1255.4</ele>
        <time>2022-08-12T12:42:17.000Z</time>
      </trkpt>
      <trkpt lat="45.11596" lon="5.54885">
        <ele>1255.4</ele>
        <time>2022-08-12T12:42:18.000Z</time>
      </trkpt>
      <trkpt lat="45.11594" lon="5.54883">
        <ele>1255.3</ele>
        <time>2022-08-12T12:42:19.000Z</time>
      </trkpt>
      <trkpt lat="45.11593" lon="5.54881">
        <ele>1255.3</ele>
        <time>2022-08-12T12:42:20.000Z</time>
      </trkpt>
      <trkpt lat="45.11591" lon="5.54878">
        <ele>1255.2</ele>
        <time>2022-08-12T12:42:22.000Z</time>
      </trkpt>
      <trkpt lat="45.1159" lon="5.54877">
        <ele>1255.2</ele>
        <time>2022-08-12T12:42:23.000Z</time>
      </trkpt>
      <trkpt lat="45.11588" lon="5.54877">
        <ele>1255.3</ele>
        <time>2022-08-12T12:42:24.000Z</time>
      </trkpt>
      <trkpt lat="45.11587" lon="5.54876">
        <ele>1255.4</ele>
        <time>2022-08-12T12:42:25.000Z</time>
      </trkpt>
      <trkpt lat="45.11585" lon="5.54875">
        <ele>1255.4</ele>
        <time>2022-08-12T12:42:26.000Z</time>
      </trkpt>
      <trkpt lat="45.1158" lon="5.54873">
        <ele>1255.6</ele>
        <time>2022-08-12T12:42:29.000Z</time>
      </trkpt>
      <trkpt lat="45.11576" lon="5.54872">
        <ele>1255.8</ele>
        <time>2022-08-12T12:42:31.000Z</time>
      </trkpt>
      <trkpt lat="45.11572" lon="5.54869">
        <ele>1256</ele>
        <time>2022-08-12T12:42:35.000Z</time>
      </trkpt>
      <trkpt lat="45.1157" lon="5.54868">
        <ele>1256.1</ele>
        <time>2022-08-12T12:42:36.000Z</time>
      </trkpt>
      <trkpt lat="45.1157" lon="5.54867">
        <ele>1256.1</ele>
        <time>2022-08-12T12:42:37.000Z</time>
      </trkpt>
      <trkpt lat="45.11568" lon="5.54865">
        <ele>1256.2</ele>
        <time>2022-08-12T12:42:38.000Z</time>
      </trkpt>
      <trkpt lat="45.11562" lon="5.54854">
        <ele>1256.4</ele>
        <time>2022-08-12T12:42:43.000Z</time>
      </trkpt>
      <trkpt lat="45.11562" lon="5.54851">
        <ele>1256.4</ele>
        <time>2022-08-12T12:42:44.000Z</time>
      </trkpt>
      <trkpt lat="45.11562" lon="5.54849">
        <ele>1256.4</ele>
        <time>2022-08-12T12:42:45.000Z</time>
      </trkpt>
      <trkpt lat="45.11561" lon="5.54848">
        <ele>1256.4</ele>
        <time>2022-08-12T12:42:46.000Z</time>
      </trkpt>
      <trkpt lat="45.1156" lon="5.54846">
        <ele>1256.4</ele>
        <time>2022-08-12T12:42:47.000Z</time>
      </trkpt>
      <trkpt lat="45.11559" lon="5.54843">
        <ele>1256.6</ele>
        <time>2022-08-12T12:42:48.000Z</time>
      </trkpt>
      <trkpt lat="45.11558" lon="5.54842">
        <ele>1256.7</ele>
        <time>2022-08-12T12:42:49.000Z</time>
      </trkpt>
      <trkpt lat="45.11557" lon="5.5484">
        <ele>1256.9</ele>
        <time>2022-08-12T12:42:50.000Z</time>
      </trkpt>
      <trkpt lat="45.11556" lon="5.54841">
        <ele>1257</ele>
        <time>2022-08-12T12:42:51.000Z</time>
      </trkpt>
      <trkpt lat="45.11555" lon="5.54841">
        <ele>1257.1</ele>
        <time>2022-08-12T12:42:52.000Z</time>
      </trkpt>
      <trkpt lat="45.11554" lon="5.54841">
        <ele>1257.1</ele>
        <time>2022-08-12T12:42:53.000Z</time>
      </trkpt>
      <trkpt lat="45.11553" lon="5.54841">
        <ele>1257.1</ele>
        <time>2022-08-12T12:42:54.000Z</time>
      </trkpt>
      <trkpt lat="45.11551" lon="5.54841">
        <ele>1257.3</ele>
        <time>2022-08-12T12:42:55.000Z</time>
      </trkpt>
      <trkpt lat="45.1155" lon="5.54841">
        <ele>1257.4</ele>
        <time>2022-08-12T12:42:56.000Z</time>
      </trkpt>
      <trkpt lat="45.11548" lon="5.54842">
        <ele>1257.5</ele>
        <time>2022-08-12T12:42:57.000Z</time>
      </trkpt>
      <trkpt lat="45.11546" lon="5.5484">
        <ele>1257.6</ele>
        <time>2022-08-12T12:42:58.000Z</time>
      </trkpt>
      <trkpt lat="45.11545" lon="5.54839">
        <ele>1257.7</ele>
        <time>2022-08-12T12:42:59.000Z</time>
      </trkpt>
      <trkpt lat="45.11544" lon="5.54838">
        <ele>1257.7</ele>
        <time>2022-08-12T12:43:01.000Z</time>
      </trkpt>
      <trkpt lat="45.11544" lon="5.54837">
        <ele>1257.8</ele>
        <time>2022-08-12T12:43:02.000Z</time>
      </trkpt>
      <trkpt lat="45.11543" lon="5.54835">
        <ele>1257.9</ele>
        <time>2022-08-12T12:43:03.000Z</time>
      </trkpt>
      <trkpt lat="45.11542" lon="5.54833">
        <ele>1257.9</ele>
        <time>2022-08-12T12:43:04.000Z</time>
      </trkpt>
      <trkpt lat="45.11541" lon="5.54831">
        <ele>1257.9</ele>
        <time>2022-08-12T12:43:06.000Z</time>
      </trkpt>
      <trkpt lat="45.1154" lon="5.5483">
        <ele>1257.9</ele>
        <time>2022-08-12T12:43:07.000Z</time>
      </trkpt>
      <trkpt lat="45.1154" lon="5.54829">
        <ele>1257.9</ele>
        <time>2022-08-12T12:43:14.000Z</time>
      </trkpt>
      <trkpt lat="45.11541" lon="5.54829">
        <ele>1257.9</ele>
        <time>2022-08-12T12:43:15.000Z</time>
      </trkpt>
      <trkpt lat="45.1154" lon="5.54828">
        <ele>1257.9</ele>
        <time>2022-08-12T12:43:16.000Z</time>
      </trkpt>
      <trkpt lat="45.1154" lon="5.54827">
        <ele>1257.8</ele>
        <time>2022-08-12T12:43:17.000Z</time>
      </trkpt>
      <trkpt lat="45.1154" lon="5.54826">
        <ele>1257.7</ele>
        <time>2022-08-12T12:43:18.000Z</time>
      </trkpt>
      <trkpt lat="45.1154" lon="5.54825">
        <ele>1257.7</ele>
        <time>2022-08-12T12:43:19.000Z</time>
      </trkpt>
      <trkpt lat="45.11538" lon="5.54823">
        <ele>1257.7</ele>
        <time>2022-08-12T12:43:22.000Z</time>
      </trkpt>
      <trkpt lat="45.11536" lon="5.54821">
        <ele>1257.8</ele>
        <time>2022-08-12T12:43:24.000Z</time>
      </trkpt>
      <trkpt lat="45.11534" lon="5.54821">
        <ele>1258</ele>
        <time>2022-08-12T12:43:25.000Z</time>
      </trkpt>
      <trkpt lat="45.11533" lon="5.54821">
        <ele>1258.1</ele>
        <time>2022-08-12T12:43:26.000Z</time>
      </trkpt>
      <trkpt lat="45.11531" lon="5.54821">
        <ele>1258.2</ele>
        <time>2022-08-12T12:43:27.000Z</time>
      </trkpt>
      <trkpt lat="45.1153" lon="5.5482">
        <ele>1258.3</ele>
        <time>2022-08-12T12:43:28.000Z</time>
      </trkpt>
      <trkpt lat="45.11525" lon="5.54819">
        <ele>1258.6</ele>
        <time>2022-08-12T12:43:31.000Z</time>
      </trkpt>
      <trkpt lat="45.11523" lon="5.54818">
        <ele>1258.7</ele>
        <time>2022-08-12T12:43:32.000Z</time>
      </trkpt>
      <trkpt lat="45.11521" lon="5.54817">
        <ele>1258.8</ele>
        <time>2022-08-12T12:43:33.000Z</time>
      </trkpt>
      <trkpt lat="45.1152" lon="5.54817">
        <ele>1258.8</ele>
        <time>2022-08-12T12:43:34.000Z</time>
      </trkpt>
      <trkpt lat="45.11519" lon="5.54816">
        <ele>1258.9</ele>
        <time>2022-08-12T12:43:35.000Z</time>
      </trkpt>
      <trkpt lat="45.11517" lon="5.54816">
        <ele>1259</ele>
        <time>2022-08-12T12:43:36.000Z</time>
      </trkpt>
      <trkpt lat="45.11515" lon="5.54816">
        <ele>1259.1</ele>
        <time>2022-08-12T12:43:37.000Z</time>
      </trkpt>
      <trkpt lat="45.11514" lon="5.54815">
        <ele>1259.2</ele>
        <time>2022-08-12T12:43:39.000Z</time>
      </trkpt>
      <trkpt lat="45.11512" lon="5.54814">
        <ele>1259.3</ele>
        <time>2022-08-12T12:43:40.000Z</time>
      </trkpt>
      <trkpt lat="45.1151" lon="5.54813">
        <ele>1259.4</ele>
        <time>2022-08-12T12:43:41.000Z</time>
      </trkpt>
      <trkpt lat="45.11509" lon="5.54813">
        <ele>1259.4</ele>
        <time>2022-08-12T12:43:42.000Z</time>
      </trkpt>
      <trkpt lat="45.11508" lon="5.54812">
        <ele>1259.5</ele>
        <time>2022-08-12T12:43:43.000Z</time>
      </trkpt>
      <trkpt lat="45.11507" lon="5.54812">
        <ele>1259.6</ele>
        <time>2022-08-12T12:43:44.000Z</time>
      </trkpt>
      <trkpt lat="45.11505" lon="5.54813">
        <ele>1259.7</ele>
        <time>2022-08-12T12:43:45.000Z</time>
      </trkpt>
      <trkpt lat="45.11503" lon="5.54813">
        <ele>1259.8</ele>
        <time>2022-08-12T12:43:46.000Z</time>
      </trkpt>
      <trkpt lat="45.11502" lon="5.54814">
        <ele>1259.9</ele>
        <time>2022-08-12T12:43:48.000Z</time>
      </trkpt>
      <trkpt lat="45.115" lon="5.54814">
        <ele>1260</ele>
        <time>2022-08-12T12:43:49.000Z</time>
      </trkpt>
      <trkpt lat="45.11499" lon="5.54813">
        <ele>1260</ele>
        <time>2022-08-12T12:43:50.000Z</time>
      </trkpt>
      <trkpt lat="45.11497" lon="5.54812">
        <ele>1260.1</ele>
        <time>2022-08-12T12:43:51.000Z</time>
      </trkpt>
      <trkpt lat="45.11496" lon="5.54812">
        <ele>1260.1</ele>
        <time>2022-08-12T12:43:52.000Z</time>
      </trkpt>
      <trkpt lat="45.11494" lon="5.54812">
        <ele>1260.1</ele>
        <time>2022-08-12T12:43:53.000Z</time>
      </trkpt>
      <trkpt lat="45.11493" lon="5.54811">
        <ele>1260.1</ele>
        <time>2022-08-12T12:43:54.000Z</time>
      </trkpt>
      <trkpt lat="45.11492" lon="5.5481">
        <ele>1260.2</ele>
        <time>2022-08-12T12:43:55.000Z</time>
      </trkpt>
      <trkpt lat="45.11491" lon="5.5481">
        <ele>1260.2</ele>
        <time>2022-08-12T12:43:56.000Z</time>
      </trkpt>
      <trkpt lat="45.11489" lon="5.54809">
        <ele>1260.3</ele>
        <time>2022-08-12T12:43:57.000Z</time>
      </trkpt>
      <trkpt lat="45.11488" lon="5.54808">
        <ele>1260.4</ele>
        <time>2022-08-12T12:43:58.000Z</time>
      </trkpt>
      <trkpt lat="45.11487" lon="5.54807">
        <ele>1260.4</ele>
        <time>2022-08-12T12:43:59.000Z</time>
      </trkpt>
      <trkpt lat="45.11486" lon="5.54806">
        <ele>1260.5</ele>
        <time>2022-08-12T12:44:00.000Z</time>
      </trkpt>
      <trkpt lat="45.11485" lon="5.54805">
        <ele>1260.5</ele>
        <time>2022-08-12T12:44:01.000Z</time>
      </trkpt>
      <trkpt lat="45.11483" lon="5.54801">
        <ele>1260.7</ele>
        <time>2022-08-12T12:44:04.000Z</time>
      </trkpt>
      <trkpt lat="45.11482" lon="5.548">
        <ele>1260.8</ele>
        <time>2022-08-12T12:44:05.000Z</time>
      </trkpt>
      <trkpt lat="45.1148" lon="5.54798">
        <ele>1260.9</ele>
        <time>2022-08-12T12:44:07.000Z</time>
      </trkpt>
      <trkpt lat="45.11478" lon="5.54797">
        <ele>1261</ele>
        <time>2022-08-12T12:44:08.000Z</time>
      </trkpt>
      <trkpt lat="45.11477" lon="5.54796">
        <ele>1261.1</ele>
        <time>2022-08-12T12:44:09.000Z</time>
      </trkpt>
      <trkpt lat="45.11474" lon="5.5479">
        <ele>1261.5</ele>
        <time>2022-08-12T12:44:12.000Z</time>
      </trkpt>
      <trkpt lat="45.11472" lon="5.54789">
        <ele>1261.6</ele>
        <time>2022-08-12T12:44:13.000Z</time>
      </trkpt>
      <trkpt lat="45.11469" lon="5.54787">
        <ele>1261.7</ele>
        <time>2022-08-12T12:44:15.000Z</time>
      </trkpt>
      <trkpt lat="45.11467" lon="5.54788">
        <ele>1261.6</ele>
        <time>2022-08-12T12:44:16.000Z</time>
      </trkpt>
      <trkpt lat="45.11465" lon="5.54787">
        <ele>1261.7</ele>
        <time>2022-08-12T12:44:17.000Z</time>
      </trkpt>
      <trkpt lat="45.11463" lon="5.54786">
        <ele>1261.7</ele>
        <time>2022-08-12T12:44:18.000Z</time>
      </trkpt>
      <trkpt lat="45.11461" lon="5.54787">
        <ele>1261.7</ele>
        <time>2022-08-12T12:44:19.000Z</time>
      </trkpt>
      <trkpt lat="45.11458" lon="5.5479">
        <ele>1261.6</ele>
        <time>2022-08-12T12:44:21.000Z</time>
      </trkpt>
      <trkpt lat="45.11455" lon="5.54792">
        <ele>1261.5</ele>
        <time>2022-08-12T12:44:22.000Z</time>
      </trkpt>
      <trkpt lat="45.11453" lon="5.54793">
        <ele>1261.4</ele>
        <time>2022-08-12T12:44:23.000Z</time>
      </trkpt>
      <trkpt lat="45.11446" lon="5.54796">
        <ele>1261.3</ele>
        <time>2022-08-12T12:44:26.000Z</time>
      </trkpt>
      <trkpt lat="45.1144" lon="5.54797">
        <ele>1261.3</ele>
        <time>2022-08-12T12:44:28.000Z</time>
      </trkpt>
      <trkpt lat="45.11435" lon="5.54796">
        <ele>1261.4</ele>
        <time>2022-08-12T12:44:30.000Z</time>
      </trkpt>
      <trkpt lat="45.11433" lon="5.54795">
        <ele>1261.6</ele>
        <time>2022-08-12T12:44:31.000Z</time>
      </trkpt>
      <trkpt lat="45.11432" lon="5.54792">
        <ele>1261.7</ele>
        <time>2022-08-12T12:44:32.000Z</time>
      </trkpt>
      <trkpt lat="45.1143" lon="5.5479">
        <ele>1261.9</ele>
        <time>2022-08-12T12:44:33.000Z</time>
      </trkpt>
      <trkpt lat="45.11429" lon="5.54787">
        <ele>1262</ele>
        <time>2022-08-12T12:44:34.000Z</time>
      </trkpt>
      <trkpt lat="45.11428" lon="5.54785">
        <ele>1262.2</ele>
        <time>2022-08-12T12:44:35.000Z</time>
      </trkpt>
      <trkpt lat="45.11426" lon="5.54783">
        <ele>1262.3</ele>
        <time>2022-08-12T12:44:36.000Z</time>
      </trkpt>
      <trkpt lat="45.11424" lon="5.54781">
        <ele>1262.5</ele>
        <time>2022-08-12T12:44:37.000Z</time>
      </trkpt>
      <trkpt lat="45.11422" lon="5.54781">
        <ele>1262.6</ele>
        <time>2022-08-12T12:44:38.000Z</time>
      </trkpt>
      <trkpt lat="45.1142" lon="5.54782">
        <ele>1262.6</ele>
        <time>2022-08-12T12:44:39.000Z</time>
      </trkpt>
      <trkpt lat="45.11416" lon="5.54787">
        <ele>1262.4</ele>
        <time>2022-08-12T12:44:41.000Z</time>
      </trkpt>
      <trkpt lat="45.11409" lon="5.54787">
        <ele>1262.5</ele>
        <time>2022-08-12T12:44:43.000Z</time>
      </trkpt>
      <trkpt lat="45.11406" lon="5.54786">
        <ele>1262.5</ele>
        <time>2022-08-12T12:44:44.000Z</time>
      </trkpt>
      <trkpt lat="45.11403" lon="5.54785">
        <ele>1262.6</ele>
        <time>2022-08-12T12:44:45.000Z</time>
      </trkpt>
      <trkpt lat="45.114" lon="5.54783">
        <ele>1262.7</ele>
        <time>2022-08-12T12:44:46.000Z</time>
      </trkpt>
      <trkpt lat="45.11395" lon="5.54781">
        <ele>1262.9</ele>
        <time>2022-08-12T12:44:48.000Z</time>
      </trkpt>
      <trkpt lat="45.11392" lon="5.54778">
        <ele>1263</ele>
        <time>2022-08-12T12:44:50.000Z</time>
      </trkpt>
      <trkpt lat="45.11392" lon="5.54776">
        <ele>1263</ele>
        <time>2022-08-12T12:44:51.000Z</time>
      </trkpt>
      <trkpt lat="45.11391" lon="5.54775">
        <ele>1262.9</ele>
        <time>2022-08-12T12:44:52.000Z</time>
      </trkpt>
      <trkpt lat="45.1139" lon="5.54774">
        <ele>1262.9</ele>
        <time>2022-08-12T12:44:53.000Z</time>
      </trkpt>
      <trkpt lat="45.11389" lon="5.54774">
        <ele>1262.9</ele>
        <time>2022-08-12T12:44:54.000Z</time>
      </trkpt>
      <trkpt lat="45.11388" lon="5.54774">
        <ele>1262.8</ele>
        <time>2022-08-12T12:44:55.000Z</time>
      </trkpt>
      <trkpt lat="45.11386" lon="5.5477">
        <ele>1262.6</ele>
        <time>2022-08-12T12:47:16.000Z</time>
      </trkpt>
      <trkpt lat="45.11384" lon="5.54768">
        <ele>1262.5</ele>
        <time>2022-08-12T12:47:17.000Z</time>
      </trkpt>
      <trkpt lat="45.11373" lon="5.54765">
        <ele>1261.9</ele>
        <time>2022-08-12T12:47:21.000Z</time>
      </trkpt>
      <trkpt lat="45.11367" lon="5.54763">
        <ele>1261.7</ele>
        <time>2022-08-12T12:47:23.000Z</time>
      </trkpt>
      <trkpt lat="45.11358" lon="5.54758">
        <ele>1261.1</ele>
        <time>2022-08-12T12:47:26.000Z</time>
      </trkpt>
      <trkpt lat="45.11353" lon="5.54756">
        <ele>1260.9</ele>
        <time>2022-08-12T12:47:27.000Z</time>
      </trkpt>
      <trkpt lat="45.11344" lon="5.54756">
        <ele>1260.6</ele>
        <time>2022-08-12T12:47:30.000Z</time>
      </trkpt>
      <trkpt lat="45.11341" lon="5.5476">
        <ele>1260.6</ele>
        <time>2022-08-12T12:47:31.000Z</time>
      </trkpt>
      <trkpt lat="45.11338" lon="5.54762">
        <ele>1260.6</ele>
        <time>2022-08-12T12:47:32.000Z</time>
      </trkpt>
      <trkpt lat="45.11336" lon="5.54763">
        <ele>1260.6</ele>
        <time>2022-08-12T12:47:33.000Z</time>
      </trkpt>
      <trkpt lat="45.11332" lon="5.54765">
        <ele>1260.5</ele>
        <time>2022-08-12T12:47:34.000Z</time>
      </trkpt>
      <trkpt lat="45.11328" lon="5.54765">
        <ele>1260.3</ele>
        <time>2022-08-12T12:47:35.000Z</time>
      </trkpt>
      <trkpt lat="45.11325" lon="5.54765">
        <ele>1260.1</ele>
        <time>2022-08-12T12:47:36.000Z</time>
      </trkpt>
      <trkpt lat="45.1131" lon="5.54767">
        <ele>1259.5</ele>
        <time>2022-08-12T12:47:40.000Z</time>
      </trkpt>
      <trkpt lat="45.11308" lon="5.54765">
        <ele>1259.2</ele>
        <time>2022-08-12T12:47:41.000Z</time>
      </trkpt>
      <trkpt lat="45.11306" lon="5.54762">
        <ele>1258.9</ele>
        <time>2022-08-12T12:47:42.000Z</time>
      </trkpt>
      <trkpt lat="45.11305" lon="5.54758">
        <ele>1258.6</ele>
        <time>2022-08-12T12:47:43.000Z</time>
      </trkpt>
      <trkpt lat="45.11302" lon="5.54756">
        <ele>1258.2</ele>
        <time>2022-08-12T12:47:44.000Z</time>
      </trkpt>
      <trkpt lat="45.11298" lon="5.54755">
        <ele>1257.9</ele>
        <time>2022-08-12T12:47:45.000Z</time>
      </trkpt>
      <trkpt lat="45.11294" lon="5.54755">
        <ele>1257.6</ele>
        <time>2022-08-12T12:47:46.000Z</time>
      </trkpt>
      <trkpt lat="45.1129" lon="5.54753">
        <ele>1257.2</ele>
        <time>2022-08-12T12:47:47.000Z</time>
      </trkpt>
      <trkpt lat="45.11286" lon="5.54751">
        <ele>1256.6</ele>
        <time>2022-08-12T12:47:48.000Z</time>
      </trkpt>
      <trkpt lat="45.11279" lon="5.54747">
        <ele>1255.6</ele>
        <time>2022-08-12T12:47:49.000Z</time>
      </trkpt>
      <trkpt lat="45.11273" lon="5.54746">
        <ele>1254.7</ele>
        <time>2022-08-12T12:47:50.000Z</time>
      </trkpt>
      <trkpt lat="45.11265" lon="5.54746">
        <ele>1254.3</ele>
        <time>2022-08-12T12:47:51.000Z</time>
      </trkpt>
      <trkpt lat="45.11258" lon="5.54748">
        <ele>1254</ele>
        <time>2022-08-12T12:47:52.000Z</time>
      </trkpt>
      <trkpt lat="45.11251" lon="5.54748">
        <ele>1253.7</ele>
        <time>2022-08-12T12:47:53.000Z</time>
      </trkpt>
      <trkpt lat="45.11245" lon="5.54749">
        <ele>1253.2</ele>
        <time>2022-08-12T12:47:54.000Z</time>
      </trkpt>
      <trkpt lat="45.11238" lon="5.5475">
        <ele>1252.8</ele>
        <time>2022-08-12T12:47:55.000Z</time>
      </trkpt>
      <trkpt lat="45.11234" lon="5.54752">
        <ele>1252.6</ele>
        <time>2022-08-12T12:47:56.000Z</time>
      </trkpt>
      <trkpt lat="45.11232" lon="5.54755">
        <ele>1252.8</ele>
        <time>2022-08-12T12:47:57.000Z</time>
      </trkpt>
      <trkpt lat="45.11231" lon="5.54758">
        <ele>1253.1</ele>
        <time>2022-08-12T12:47:58.000Z</time>
      </trkpt>
      <trkpt lat="45.1123" lon="5.54761">
        <ele>1253.5</ele>
        <time>2022-08-12T12:47:59.000Z</time>
      </trkpt>
      <trkpt lat="45.11229" lon="5.54764">
        <ele>1253.7</ele>
        <time>2022-08-12T12:48:00.000Z</time>
      </trkpt>
      <trkpt lat="45.11227" lon="5.54764">
        <ele>1253.6</ele>
        <time>2022-08-12T12:48:01.000Z</time>
      </trkpt>
      <trkpt lat="45.11225" lon="5.54765">
        <ele>1253.4</ele>
        <time>2022-08-12T12:48:02.000Z</time>
      </trkpt>
      <trkpt lat="45.11211" lon="5.54769">
        <ele>1252.6</ele>
        <time>2022-08-12T12:48:06.000Z</time>
      </trkpt>
      <trkpt lat="45.11208" lon="5.54773">
        <ele>1252.8</ele>
        <time>2022-08-12T12:48:07.000Z</time>
      </trkpt>
      <trkpt lat="45.11206" lon="5.54775">
        <ele>1252.9</ele>
        <time>2022-08-12T12:48:08.000Z</time>
      </trkpt>
      <trkpt lat="45.11204" lon="5.54776">
        <ele>1252.8</ele>
        <time>2022-08-12T12:48:09.000Z</time>
      </trkpt>
      <trkpt lat="45.11203" lon="5.54776">
        <ele>1252.7</ele>
        <time>2022-08-12T12:48:10.000Z</time>
      </trkpt>
      <trkpt lat="45.11201" lon="5.54776">
        <ele>1252.5</ele>
        <time>2022-08-12T12:48:12.000Z</time>
      </trkpt>
      <trkpt lat="45.11199" lon="5.54776">
        <ele>1252.3</ele>
        <time>2022-08-12T12:48:13.000Z</time>
      </trkpt>
      <trkpt lat="45.11197" lon="5.54776">
        <ele>1252.1</ele>
        <time>2022-08-12T12:48:14.000Z</time>
      </trkpt>
      <trkpt lat="45.11196" lon="5.54775">
        <ele>1251.9</ele>
        <time>2022-08-12T12:48:15.000Z</time>
      </trkpt>
      <trkpt lat="45.11194" lon="5.54774">
        <ele>1251.6</ele>
        <time>2022-08-12T12:48:16.000Z</time>
      </trkpt>
      <trkpt lat="45.11192" lon="5.54773">
        <ele>1251.3</ele>
        <time>2022-08-12T12:48:17.000Z</time>
      </trkpt>
      <trkpt lat="45.11173" lon="5.54768">
        <ele>1249.4</ele>
        <time>2022-08-12T12:48:22.000Z</time>
      </trkpt>
      <trkpt lat="45.1117" lon="5.54768">
        <ele>1249.2</ele>
        <time>2022-08-12T12:48:23.000Z</time>
      </trkpt>
      <trkpt lat="45.11168" lon="5.54767">
        <ele>1248.9</ele>
        <time>2022-08-12T12:48:24.000Z</time>
      </trkpt>
      <trkpt lat="45.11165" lon="5.54766">
        <ele>1248.7</ele>
        <time>2022-08-12T12:48:25.000Z</time>
      </trkpt>
      <trkpt lat="45.11161" lon="5.54764">
        <ele>1248.3</ele>
        <time>2022-08-12T12:48:26.000Z</time>
      </trkpt>
      <trkpt lat="45.11153" lon="5.54758">
        <ele>1247.4</ele>
        <time>2022-08-12T12:48:28.000Z</time>
      </trkpt>
      <trkpt lat="45.11149" lon="5.54754">
        <ele>1246.8</ele>
        <time>2022-08-12T12:48:29.000Z</time>
      </trkpt>
      <trkpt lat="45.11145" lon="5.54749">
        <ele>1246</ele>
        <time>2022-08-12T12:48:30.000Z</time>
      </trkpt>
      <trkpt lat="45.11141" lon="5.54743">
        <ele>1245.1</ele>
        <time>2022-08-12T12:48:31.000Z</time>
      </trkpt>
      <trkpt lat="45.11135" lon="5.54739">
        <ele>1244.3</ele>
        <time>2022-08-12T12:48:32.000Z</time>
      </trkpt>
      <trkpt lat="45.11129" lon="5.54735">
        <ele>1243.7</ele>
        <time>2022-08-12T12:48:33.000Z</time>
      </trkpt>
      <trkpt lat="45.11124" lon="5.54734">
        <ele>1243.4</ele>
        <time>2022-08-12T12:48:34.000Z</time>
      </trkpt>
      <trkpt lat="45.11121" lon="5.54736">
        <ele>1243.7</ele>
        <time>2022-08-12T12:48:35.000Z</time>
      </trkpt>
      <trkpt lat="45.1112" lon="5.54737">
        <ele>1243.8</ele>
        <time>2022-08-12T12:48:36.000Z</time>
      </trkpt>
      <trkpt lat="45.11119" lon="5.54739">
        <ele>1244.1</ele>
        <time>2022-08-12T12:48:37.000Z</time>
      </trkpt>
      <trkpt lat="45.11118" lon="5.5474">
        <ele>1244.3</ele>
        <time>2022-08-12T12:48:38.000Z</time>
      </trkpt>
      <trkpt lat="45.11118" lon="5.54742">
        <ele>1244.6</ele>
        <time>2022-08-12T12:48:39.000Z</time>
      </trkpt>
      <trkpt lat="45.11116" lon="5.54744">
        <ele>1244.9</ele>
        <time>2022-08-12T12:48:40.000Z</time>
      </trkpt>
      <trkpt lat="45.11115" lon="5.54745">
        <ele>1245.1</ele>
        <time>2022-08-12T12:48:41.000Z</time>
      </trkpt>
      <trkpt lat="45.11113" lon="5.54745">
        <ele>1245.1</ele>
        <time>2022-08-12T12:48:42.000Z</time>
      </trkpt>
      <trkpt lat="45.11112" lon="5.54744">
        <ele>1245</ele>
        <time>2022-08-12T12:48:43.000Z</time>
      </trkpt>
      <trkpt lat="45.1111" lon="5.54743">
        <ele>1244.7</ele>
        <time>2022-08-12T12:48:44.000Z</time>
      </trkpt>
      <trkpt lat="45.11109" lon="5.54743">
        <ele>1244.6</ele>
        <time>2022-08-12T12:48:45.000Z</time>
      </trkpt>
      <trkpt lat="45.11108" lon="5.54742">
        <ele>1244.5</ele>
        <time>2022-08-12T12:48:46.000Z</time>
      </trkpt>
      <trkpt lat="45.11107" lon="5.54742">
        <ele>1244.5</ele>
        <time>2022-08-12T12:48:47.000Z</time>
      </trkpt>
      <trkpt lat="45.11104" lon="5.54742">
        <ele>1244.3</ele>
        <time>2022-08-12T12:48:49.000Z</time>
      </trkpt>
      <trkpt lat="45.11102" lon="5.54741">
        <ele>1244.2</ele>
        <time>2022-08-12T12:48:50.000Z</time>
      </trkpt>
      <trkpt lat="45.111" lon="5.54741">
        <ele>1244.1</ele>
        <time>2022-08-12T12:48:51.000Z</time>
      </trkpt>
      <trkpt lat="45.11098" lon="5.54742">
        <ele>1244.2</ele>
        <time>2022-08-12T12:48:52.000Z</time>
      </trkpt>
      <trkpt lat="45.11096" lon="5.54743">
        <ele>1244.3</ele>
        <time>2022-08-12T12:48:53.000Z</time>
      </trkpt>
      <trkpt lat="45.11094" lon="5.54745">
        <ele>1244.6</ele>
        <time>2022-08-12T12:48:54.000Z</time>
      </trkpt>
      <trkpt lat="45.11092" lon="5.54747">
        <ele>1244.8</ele>
        <time>2022-08-12T12:48:55.000Z</time>
      </trkpt>
      <trkpt lat="45.1109" lon="5.54748">
        <ele>1244.9</ele>
        <time>2022-08-12T12:48:56.000Z</time>
      </trkpt>
      <trkpt lat="45.11084" lon="5.54747">
        <ele>1244.6</ele>
        <time>2022-08-12T12:48:58.000Z</time>
      </trkpt>
      <trkpt lat="45.1108" lon="5.54749">
        <ele>1244.7</ele>
        <time>2022-08-12T12:48:59.000Z</time>
      </trkpt>
      <trkpt lat="45.11075" lon="5.54752">
        <ele>1244.8</ele>
        <time>2022-08-12T12:49:01.000Z</time>
      </trkpt>
      <trkpt lat="45.11073" lon="5.54752">
        <ele>1244.8</ele>
        <time>2022-08-12T12:49:02.000Z</time>
      </trkpt>
      <trkpt lat="45.1107" lon="5.54751">
        <ele>1244.6</ele>
        <time>2022-08-12T12:49:03.000Z</time>
      </trkpt>
      <trkpt lat="45.11068" lon="5.54751">
        <ele>1244.5</ele>
        <time>2022-08-12T12:49:04.000Z</time>
      </trkpt>
      <trkpt lat="45.11065" lon="5.54749">
        <ele>1244.1</ele>
        <time>2022-08-12T12:49:05.000Z</time>
      </trkpt>
      <trkpt lat="45.11061" lon="5.54746">
        <ele>1243.5</ele>
        <time>2022-08-12T12:49:06.000Z</time>
      </trkpt>
      <trkpt lat="45.11057" lon="5.54745">
        <ele>1243.1</ele>
        <time>2022-08-12T12:49:07.000Z</time>
      </trkpt>
      <trkpt lat="45.11054" lon="5.54744">
        <ele>1242.9</ele>
        <time>2022-08-12T12:49:08.000Z</time>
      </trkpt>
      <trkpt lat="45.11051" lon="5.54746">
        <ele>1243</ele>
        <time>2022-08-12T12:49:09.000Z</time>
      </trkpt>
      <trkpt lat="45.11048" lon="5.54748">
        <ele>1243.1</ele>
        <time>2022-08-12T12:49:10.000Z</time>
      </trkpt>
      <trkpt lat="45.11045" lon="5.54748">
        <ele>1242.9</ele>
        <time>2022-08-12T12:49:11.000Z</time>
      </trkpt>
      <trkpt lat="45.11027" lon="5.54754">
        <ele>1242.3</ele>
        <time>2022-08-12T12:49:16.000Z</time>
      </trkpt>
      <trkpt lat="45.11025" lon="5.54756">
        <ele>1242.3</ele>
        <time>2022-08-12T12:49:17.000Z</time>
      </trkpt>
      <trkpt lat="45.11022" lon="5.54756">
        <ele>1242.2</ele>
        <time>2022-08-12T12:49:18.000Z</time>
      </trkpt>
      <trkpt lat="45.11018" lon="5.54755">
        <ele>1242</ele>
        <time>2022-08-12T12:49:19.000Z</time>
      </trkpt>
      <trkpt lat="45.11014" lon="5.54753">
        <ele>1241.7</ele>
        <time>2022-08-12T12:49:20.000Z</time>
      </trkpt>
      <trkpt lat="45.1101" lon="5.54753">
        <ele>1241.6</ele>
        <time>2022-08-12T12:49:21.000Z</time>
      </trkpt>
      <trkpt lat="45.11007" lon="5.54753">
        <ele>1241.4</ele>
        <time>2022-08-12T12:49:22.000Z</time>
      </trkpt>
      <trkpt lat="45.10994" lon="5.54749">
        <ele>1240.8</ele>
        <time>2022-08-12T12:49:25.000Z</time>
      </trkpt>
      <trkpt lat="45.1099" lon="5.54747">
        <ele>1240.5</ele>
        <time>2022-08-12T12:49:26.000Z</time>
      </trkpt>
      <trkpt lat="45.10973" lon="5.54746">
        <ele>1240.4</ele>
        <time>2022-08-12T12:49:29.000Z</time>
      </trkpt>
      <trkpt lat="45.1097" lon="5.54747">
        <ele>1240.5</ele>
        <time>2022-08-12T12:49:30.000Z</time>
      </trkpt>
      <trkpt lat="45.10968" lon="5.54747">
        <ele>1240.4</ele>
        <time>2022-08-12T12:49:31.000Z</time>
      </trkpt>
      <trkpt lat="45.10962" lon="5.54747">
        <ele>1240.3</ele>
        <time>2022-08-12T12:49:33.000Z</time>
      </trkpt>
      <trkpt lat="45.10959" lon="5.54745">
        <ele>1239.9</ele>
        <time>2022-08-12T12:49:34.000Z</time>
      </trkpt>
      <trkpt lat="45.10955" lon="5.54742">
        <ele>1239.5</ele>
        <time>2022-08-12T12:49:35.000Z</time>
      </trkpt>
      <trkpt lat="45.10947" lon="5.54738">
        <ele>1238.7</ele>
        <time>2022-08-12T12:49:37.000Z</time>
      </trkpt>
      <trkpt lat="45.10943" lon="5.54735">
        <ele>1238.4</ele>
        <time>2022-08-12T12:49:38.000Z</time>
      </trkpt>
      <trkpt lat="45.10934" lon="5.54731">
        <ele>1237.5</ele>
        <time>2022-08-12T12:49:40.000Z</time>
      </trkpt>
      <trkpt lat="45.1093" lon="5.54729">
        <ele>1237.2</ele>
        <time>2022-08-12T12:49:41.000Z</time>
      </trkpt>
      <trkpt lat="45.10927" lon="5.5473">
        <ele>1237.2</ele>
        <time>2022-08-12T12:49:42.000Z</time>
      </trkpt>
      <trkpt lat="45.10925" lon="5.54731">
        <ele>1237.3</ele>
        <time>2022-08-12T12:49:43.000Z</time>
      </trkpt>
      <trkpt lat="45.10924" lon="5.54733">
        <ele>1237.4</ele>
        <time>2022-08-12T12:49:44.000Z</time>
      </trkpt>
      <trkpt lat="45.10922" lon="5.54734">
        <ele>1237.5</ele>
        <time>2022-08-12T12:49:45.000Z</time>
      </trkpt>
      <trkpt lat="45.10922" lon="5.54735">
        <ele>1237.6</ele>
        <time>2022-08-12T12:49:46.000Z</time>
      </trkpt>
      <trkpt lat="45.10921" lon="5.54735">
        <ele>1237.5</ele>
        <time>2022-08-12T12:49:49.000Z</time>
      </trkpt>
      <trkpt lat="45.10918" lon="5.54734">
        <ele>1237.4</ele>
        <time>2022-08-12T12:49:52.000Z</time>
      </trkpt>
      <trkpt lat="45.10913" lon="5.54736">
        <ele>1237.2</ele>
        <time>2022-08-12T12:49:54.000Z</time>
      </trkpt>
      <trkpt lat="45.1091" lon="5.54736">
        <ele>1237.2</ele>
        <time>2022-08-12T12:49:55.000Z</time>
      </trkpt>
      <trkpt lat="45.10905" lon="5.54738">
        <ele>1237.1</ele>
        <time>2022-08-12T12:49:57.000Z</time>
      </trkpt>
      <trkpt lat="45.109" lon="5.54739">
        <ele>1237</ele>
        <time>2022-08-12T12:49:59.000Z</time>
      </trkpt>
      <trkpt lat="45.10897" lon="5.54738">
        <ele>1236.7</ele>
        <time>2022-08-12T12:50:00.000Z</time>
      </trkpt>
      <trkpt lat="45.10895" lon="5.54737">
        <ele>1236.5</ele>
        <time>2022-08-12T12:50:01.000Z</time>
      </trkpt>
      <trkpt lat="45.10883" lon="5.54738">
        <ele>1235.7</ele>
        <time>2022-08-12T12:50:06.000Z</time>
      </trkpt>
      <trkpt lat="45.10881" lon="5.54739">
        <ele>1235.7</ele>
        <time>2022-08-12T12:50:07.000Z</time>
      </trkpt>
      <trkpt lat="45.10873" lon="5.54742">
        <ele>1235.3</ele>
        <time>2022-08-12T12:50:10.000Z</time>
      </trkpt>
      <trkpt lat="45.10859" lon="5.54741">
        <ele>1233.8</ele>
        <time>2022-08-12T12:50:14.000Z</time>
      </trkpt>
      <trkpt lat="45.10855" lon="5.54738">
        <ele>1232.9</ele>
        <time>2022-08-12T12:50:16.000Z</time>
      </trkpt>
      <trkpt lat="45.10854" lon="5.54736">
        <ele>1232.6</ele>
        <time>2022-08-12T12:50:17.000Z</time>
      </trkpt>
      <trkpt lat="45.10853" lon="5.54734">
        <ele>1232.3</ele>
        <time>2022-08-12T12:50:18.000Z</time>
      </trkpt>
      <trkpt lat="45.10853" lon="5.54732">
        <ele>1232</ele>
        <time>2022-08-12T12:50:19.000Z</time>
      </trkpt>
      <trkpt lat="45.10853" lon="5.54729">
        <ele>1231.7</ele>
        <time>2022-08-12T12:50:20.000Z</time>
      </trkpt>
      <trkpt lat="45.10852" lon="5.54727">
        <ele>1231.3</ele>
        <time>2022-08-12T12:50:21.000Z</time>
      </trkpt>
      <trkpt lat="45.1085" lon="5.54726">
        <ele>1230.8</ele>
        <time>2022-08-12T12:50:22.000Z</time>
      </trkpt>
      <trkpt lat="45.10846" lon="5.54725">
        <ele>1230.2</ele>
        <time>2022-08-12T12:50:23.000Z</time>
      </trkpt>
      <trkpt lat="45.10838" lon="5.54723">
        <ele>1228.8</ele>
        <time>2022-08-12T12:50:25.000Z</time>
      </trkpt>
      <trkpt lat="45.10834" lon="5.54721">
        <ele>1227.9</ele>
        <time>2022-08-12T12:50:26.000Z</time>
      </trkpt>
      <trkpt lat="45.10829" lon="5.5472">
        <ele>1227.1</ele>
        <time>2022-08-12T12:50:27.000Z</time>
      </trkpt>
      <trkpt lat="45.10824" lon="5.5472">
        <ele>1226.5</ele>
        <time>2022-08-12T12:50:28.000Z</time>
      </trkpt>
      <trkpt lat="45.10819" lon="5.54722">
        <ele>1226.4</ele>
        <time>2022-08-12T12:50:29.000Z</time>
      </trkpt>
      <trkpt lat="45.10814" lon="5.54724">
        <ele>1226.1</ele>
        <time>2022-08-12T12:50:30.000Z</time>
      </trkpt>
      <trkpt lat="45.10809" lon="5.54726">
        <ele>1226</ele>
        <time>2022-08-12T12:50:31.000Z</time>
      </trkpt>
      <trkpt lat="45.10804" lon="5.54729">
        <ele>1225.8</ele>
        <time>2022-08-12T12:50:32.000Z</time>
      </trkpt>
      <trkpt lat="45.108" lon="5.54728">
        <ele>1225.5</ele>
        <time>2022-08-12T12:50:33.000Z</time>
      </trkpt>
      <trkpt lat="45.10796" lon="5.54726">
        <ele>1224.9</ele>
        <time>2022-08-12T12:50:34.000Z</time>
      </trkpt>
      <trkpt lat="45.10794" lon="5.54722">
        <ele>1224.1</ele>
        <time>2022-08-12T12:50:35.000Z</time>
      </trkpt>
      <trkpt lat="45.10791" lon="5.54718">
        <ele>1223.1</ele>
        <time>2022-08-12T12:50:36.000Z</time>
      </trkpt>
      <trkpt lat="45.1079" lon="5.54715">
        <ele>1222.4</ele>
        <time>2022-08-12T12:50:37.000Z</time>
      </trkpt>
      <trkpt lat="45.10788" lon="5.54714">
        <ele>1222</ele>
        <time>2022-08-12T12:50:38.000Z</time>
      </trkpt>
      <trkpt lat="45.10786" lon="5.54713">
        <ele>1221.6</ele>
        <time>2022-08-12T12:50:39.000Z</time>
      </trkpt>
      <trkpt lat="45.10783" lon="5.54711">
        <ele>1220.9</ele>
        <time>2022-08-12T12:50:40.000Z</time>
      </trkpt>
      <trkpt lat="45.1078" lon="5.54708">
        <ele>1220.2</ele>
        <time>2022-08-12T12:50:41.000Z</time>
      </trkpt>
      <trkpt lat="45.10776" lon="5.54707">
        <ele>1219.6</ele>
        <time>2022-08-12T12:50:43.000Z</time>
      </trkpt>
      <trkpt lat="45.10775" lon="5.54706">
        <ele>1219.4</ele>
        <time>2022-08-12T12:50:44.000Z</time>
      </trkpt>
      <trkpt lat="45.10775" lon="5.54705">
        <ele>1219.1</ele>
        <time>2022-08-12T12:50:45.000Z</time>
      </trkpt>
      <trkpt lat="45.10775" lon="5.54704">
        <ele>1219</ele>
        <time>2022-08-12T12:50:46.000Z</time>
      </trkpt>
      <trkpt lat="45.10772" lon="5.54703">
        <ele>1218.5</ele>
        <time>2022-08-12T12:50:49.000Z</time>
      </trkpt>
      <trkpt lat="45.1077" lon="5.54701">
        <ele>1218.1</ele>
        <time>2022-08-12T12:50:50.000Z</time>
      </trkpt>
      <trkpt lat="45.10768" lon="5.547">
        <ele>1217.7</ele>
        <time>2022-08-12T12:50:51.000Z</time>
      </trkpt>
      <trkpt lat="45.10766" lon="5.54699">
        <ele>1217.6</ele>
        <time>2022-08-12T12:50:52.000Z</time>
      </trkpt>
      <trkpt lat="45.10763" lon="5.54699">
        <ele>1217.4</ele>
        <time>2022-08-12T12:50:53.000Z</time>
      </trkpt>
      <trkpt lat="45.10756" lon="5.54697">
        <ele>1216.6</ele>
        <time>2022-08-12T12:50:55.000Z</time>
      </trkpt>
      <trkpt lat="45.10751" lon="5.54695">
        <ele>1216.2</ele>
        <time>2022-08-12T12:50:57.000Z</time>
      </trkpt>
      <trkpt lat="45.1075" lon="5.54695">
        <ele>1216</ele>
        <time>2022-08-12T12:50:59.000Z</time>
      </trkpt>
      <trkpt lat="45.10748" lon="5.54693">
        <ele>1215.8</ele>
        <time>2022-08-12T12:51:00.000Z</time>
      </trkpt>
      <trkpt lat="45.10746" lon="5.54692">
        <ele>1215.6</ele>
        <time>2022-08-12T12:51:01.000Z</time>
      </trkpt>
      <trkpt lat="45.10744" lon="5.54692">
        <ele>1215.4</ele>
        <time>2022-08-12T12:51:02.000Z</time>
      </trkpt>
      <trkpt lat="45.10742" lon="5.5469">
        <ele>1215.1</ele>
        <time>2022-08-12T12:51:03.000Z</time>
      </trkpt>
      <trkpt lat="45.10733" lon="5.54685">
        <ele>1214.2</ele>
        <time>2022-08-12T12:51:06.000Z</time>
      </trkpt>
      <trkpt lat="45.10728" lon="5.54682">
        <ele>1213.6</ele>
        <time>2022-08-12T12:51:08.000Z</time>
      </trkpt>
      <trkpt lat="45.10726" lon="5.54679">
        <ele>1213.1</ele>
        <time>2022-08-12T12:51:09.000Z</time>
      </trkpt>
      <trkpt lat="45.10723" lon="5.54675">
        <ele>1212.4</ele>
        <time>2022-08-12T12:51:10.000Z</time>
      </trkpt>
      <trkpt lat="45.10722" lon="5.5467">
        <ele>1211.6</ele>
        <time>2022-08-12T12:51:11.000Z</time>
      </trkpt>
      <trkpt lat="45.10721" lon="5.54663">
        <ele>1210.4</ele>
        <time>2022-08-12T12:51:12.000Z</time>
      </trkpt>
      <trkpt lat="45.1072" lon="5.54659">
        <ele>1209.7</ele>
        <time>2022-08-12T12:51:13.000Z</time>
      </trkpt>
      <trkpt lat="45.10716" lon="5.54656">
        <ele>1209.3</ele>
        <time>2022-08-12T12:51:14.000Z</time>
      </trkpt>
      <trkpt lat="45.10711" lon="5.54653">
        <ele>1209.2</ele>
        <time>2022-08-12T12:51:15.000Z</time>
      </trkpt>
      <trkpt lat="45.10708" lon="5.54652">
        <ele>1209.2</ele>
        <time>2022-08-12T12:51:16.000Z</time>
      </trkpt>
      <trkpt lat="45.10705" lon="5.54651">
        <ele>1209.3</ele>
        <time>2022-08-12T12:51:17.000Z</time>
      </trkpt>
      <trkpt lat="45.10702" lon="5.5465">
        <ele>1209.3</ele>
        <time>2022-08-12T12:51:18.000Z</time>
      </trkpt>
      <trkpt lat="45.107" lon="5.54649">
        <ele>1209.4</ele>
        <time>2022-08-12T12:51:19.000Z</time>
      </trkpt>
      <trkpt lat="45.10688" lon="5.54643">
        <ele>1209.5</ele>
        <time>2022-08-12T12:51:24.000Z</time>
      </trkpt>
      <trkpt lat="45.10686" lon="5.54642">
        <ele>1209.5</ele>
        <time>2022-08-12T12:51:25.000Z</time>
      </trkpt>
      <trkpt lat="45.10684" lon="5.54641">
        <ele>1209.5</ele>
        <time>2022-08-12T12:51:26.000Z</time>
      </trkpt>
      <trkpt lat="45.10672" lon="5.54638">
        <ele>1209.7</ele>
        <time>2022-08-12T12:51:31.000Z</time>
      </trkpt>
      <trkpt lat="45.10671" lon="5.54637">
        <ele>1209.7</ele>
        <time>2022-08-12T12:51:32.000Z</time>
      </trkpt>
      <trkpt lat="45.1067" lon="5.54635">
        <ele>1209.6</ele>
        <time>2022-08-12T12:51:33.000Z</time>
      </trkpt>
      <trkpt lat="45.10668" lon="5.54631">
        <ele>1209.4</ele>
        <time>2022-08-12T12:51:34.000Z</time>
      </trkpt>
      <trkpt lat="45.10664" lon="5.54624">
        <ele>1209</ele>
        <time>2022-08-12T12:51:37.000Z</time>
      </trkpt>
      <trkpt lat="45.10663" lon="5.54623">
        <ele>1208.9</ele>
        <time>2022-08-12T12:51:38.000Z</time>
      </trkpt>
      <trkpt lat="45.1066" lon="5.54621">
        <ele>1208.9</ele>
        <time>2022-08-12T12:51:39.000Z</time>
      </trkpt>
      <trkpt lat="45.10657" lon="5.5462">
        <ele>1208.8</ele>
        <time>2022-08-12T12:51:40.000Z</time>
      </trkpt>
      <trkpt lat="45.10653" lon="5.5462">
        <ele>1208.9</ele>
        <time>2022-08-12T12:51:42.000Z</time>
      </trkpt>
      <trkpt lat="45.10651" lon="5.54619">
        <ele>1209</ele>
        <time>2022-08-12T12:51:43.000Z</time>
      </trkpt>
      <trkpt lat="45.10649" lon="5.54619">
        <ele>1209</ele>
        <time>2022-08-12T12:51:44.000Z</time>
      </trkpt>
      <trkpt lat="45.10649" lon="5.54618">
        <ele>1209</ele>
        <time>2022-08-12T12:51:45.000Z</time>
      </trkpt>
      <trkpt lat="45.10648" lon="5.54617">
        <ele>1208.9</ele>
        <time>2022-08-12T12:51:48.000Z</time>
      </trkpt>
      <trkpt lat="45.10648" lon="5.54615">
        <ele>1208.9</ele>
        <time>2022-08-12T12:51:49.000Z</time>
      </trkpt>
      <trkpt lat="45.10647" lon="5.54612">
        <ele>1208.7</ele>
        <time>2022-08-12T12:51:51.000Z</time>
      </trkpt>
      <trkpt lat="45.10646" lon="5.54611">
        <ele>1208.7</ele>
        <time>2022-08-12T12:51:52.000Z</time>
      </trkpt>
      <trkpt lat="45.10645" lon="5.54608">
        <ele>1208.7</ele>
        <time>2022-08-12T12:51:53.000Z</time>
      </trkpt>
      <trkpt lat="45.10645" lon="5.54605">
        <ele>1208.6</ele>
        <time>2022-08-12T12:51:54.000Z</time>
      </trkpt>
      <trkpt lat="45.10645" lon="5.546">
        <ele>1208.4</ele>
        <time>2022-08-12T12:51:56.000Z</time>
      </trkpt>
      <trkpt lat="45.10645" lon="5.54598">
        <ele>1208.3</ele>
        <time>2022-08-12T12:51:57.000Z</time>
      </trkpt>
      <trkpt lat="45.10645" lon="5.54596">
        <ele>1208.2</ele>
        <time>2022-08-12T12:51:58.000Z</time>
      </trkpt>
      <trkpt lat="45.10643" lon="5.54593">
        <ele>1208.2</ele>
        <time>2022-08-12T12:51:59.000Z</time>
      </trkpt>
      <trkpt lat="45.10642" lon="5.54591">
        <ele>1208.2</ele>
        <time>2022-08-12T12:52:00.000Z</time>
      </trkpt>
      <trkpt lat="45.10641" lon="5.5459">
        <ele>1208.1</ele>
        <time>2022-08-12T12:52:01.000Z</time>
      </trkpt>
      <trkpt lat="45.1064" lon="5.54588">
        <ele>1208.1</ele>
        <time>2022-08-12T12:52:02.000Z</time>
      </trkpt>
      <trkpt lat="45.10635" lon="5.54579">
        <ele>1208.1</ele>
        <time>2022-08-12T12:52:06.000Z</time>
      </trkpt>
      <trkpt lat="45.10633" lon="5.54577">
        <ele>1208.2</ele>
        <time>2022-08-12T12:52:07.000Z</time>
      </trkpt>
      <trkpt lat="45.10632" lon="5.54576">
        <ele>1208.3</ele>
        <time>2022-08-12T12:52:08.000Z</time>
      </trkpt>
      <trkpt lat="45.1063" lon="5.54574">
        <ele>1208.3</ele>
        <time>2022-08-12T12:52:09.000Z</time>
      </trkpt>
      <trkpt lat="45.1063" lon="5.54572">
        <ele>1208.3</ele>
        <time>2022-08-12T12:52:10.000Z</time>
      </trkpt>
      <trkpt lat="45.1063" lon="5.5457">
        <ele>1208.3</ele>
        <time>2022-08-12T12:52:11.000Z</time>
      </trkpt>
      <trkpt lat="45.10631" lon="5.54568">
        <ele>1208.3</ele>
        <time>2022-08-12T12:52:12.000Z</time>
      </trkpt>
      <trkpt lat="45.10631" lon="5.54566">
        <ele>1208.3</ele>
        <time>2022-08-12T12:52:13.000Z</time>
      </trkpt>
      <trkpt lat="45.10631" lon="5.54563">
        <ele>1208.3</ele>
        <time>2022-08-12T12:52:14.000Z</time>
      </trkpt>
      <trkpt lat="45.10631" lon="5.5456">
        <ele>1208.3</ele>
        <time>2022-08-12T12:52:15.000Z</time>
      </trkpt>
      <trkpt lat="45.1063" lon="5.54558">
        <ele>1208.3</ele>
        <time>2022-08-12T12:52:16.000Z</time>
      </trkpt>
      <trkpt lat="45.10629" lon="5.54555">
        <ele>1208.3</ele>
        <time>2022-08-12T12:52:17.000Z</time>
      </trkpt>
      <trkpt lat="45.10629" lon="5.54552">
        <ele>1208.4</ele>
        <time>2022-08-12T12:52:18.000Z</time>
      </trkpt>
      <trkpt lat="45.10629" lon="5.5455">
        <ele>1208.4</ele>
        <time>2022-08-12T12:52:19.000Z</time>
      </trkpt>
      <trkpt lat="45.10628" lon="5.54549">
        <ele>1208.4</ele>
        <time>2022-08-12T12:52:20.000Z</time>
      </trkpt>
      <trkpt lat="45.10627" lon="5.54548">
        <ele>1208.4</ele>
        <time>2022-08-12T12:52:21.000Z</time>
      </trkpt>
      <trkpt lat="45.10625" lon="5.54546">
        <ele>1208.5</ele>
        <time>2022-08-12T12:52:22.000Z</time>
      </trkpt>
      <trkpt lat="45.10624" lon="5.54545">
        <ele>1208.5</ele>
        <time>2022-08-12T12:52:23.000Z</time>
      </trkpt>
      <trkpt lat="45.10624" lon="5.54544">
        <ele>1208.6</ele>
        <time>2022-08-12T12:52:25.000Z</time>
      </trkpt>
      <trkpt lat="45.10616" lon="5.54534">
        <ele>1208.8</ele>
        <time>2022-08-12T12:52:31.000Z</time>
      </trkpt>
      <trkpt lat="45.10614" lon="5.54533">
        <ele>1208.9</ele>
        <time>2022-08-12T12:52:32.000Z</time>
      </trkpt>
      <trkpt lat="45.10613" lon="5.54533">
        <ele>1208.9</ele>
        <time>2022-08-12T12:52:33.000Z</time>
      </trkpt>
      <trkpt lat="45.10612" lon="5.54532">
        <ele>1209</ele>
        <time>2022-08-12T12:52:34.000Z</time>
      </trkpt>
      <trkpt lat="45.10611" lon="5.5453">
        <ele>1209</ele>
        <time>2022-08-12T12:52:35.000Z</time>
      </trkpt>
      <trkpt lat="45.1061" lon="5.54528">
        <ele>1209</ele>
        <time>2022-08-12T12:52:36.000Z</time>
      </trkpt>
      <trkpt lat="45.10609" lon="5.54526">
        <ele>1209.1</ele>
        <time>2022-08-12T12:52:37.000Z</time>
      </trkpt>
      <trkpt lat="45.10609" lon="5.54524">
        <ele>1209.1</ele>
        <time>2022-08-12T12:52:38.000Z</time>
      </trkpt>
      <trkpt lat="45.10609" lon="5.54521">
        <ele>1209.2</ele>
        <time>2022-08-12T12:52:39.000Z</time>
      </trkpt>
      <trkpt lat="45.10608" lon="5.54519">
        <ele>1209.3</ele>
        <time>2022-08-12T12:52:40.000Z</time>
      </trkpt>
      <trkpt lat="45.10607" lon="5.54517">
        <ele>1209.4</ele>
        <time>2022-08-12T12:52:41.000Z</time>
      </trkpt>
      <trkpt lat="45.10605" lon="5.54515">
        <ele>1209.6</ele>
        <time>2022-08-12T12:52:42.000Z</time>
      </trkpt>
      <trkpt lat="45.10604" lon="5.54513">
        <ele>1209.7</ele>
        <time>2022-08-12T12:52:43.000Z</time>
      </trkpt>
      <trkpt lat="45.10603" lon="5.54509">
        <ele>1209.9</ele>
        <time>2022-08-12T12:52:44.000Z</time>
      </trkpt>
      <trkpt lat="45.10602" lon="5.54504">
        <ele>1210.2</ele>
        <time>2022-08-12T12:52:46.000Z</time>
      </trkpt>
      <trkpt lat="45.10603" lon="5.54499">
        <ele>1210.3</ele>
        <time>2022-08-12T12:52:48.000Z</time>
      </trkpt>
      <trkpt lat="45.10604" lon="5.54498">
        <ele>1210.3</ele>
        <time>2022-08-12T12:52:49.000Z</time>
      </trkpt>
      <trkpt lat="45.10603" lon="5.54494">
        <ele>1210.3</ele>
        <time>2022-08-12T12:52:50.000Z</time>
      </trkpt>
      <trkpt lat="45.106" lon="5.54489">
        <ele>1210.6</ele>
        <time>2022-08-12T12:52:52.000Z</time>
      </trkpt>
      <trkpt lat="45.10601" lon="5.54487">
        <ele>1210.6</ele>
        <time>2022-08-12T12:52:53.000Z</time>
      </trkpt>
      <trkpt lat="45.10601" lon="5.54485">
        <ele>1210.6</ele>
        <time>2022-08-12T12:52:54.000Z</time>
      </trkpt>
      <trkpt lat="45.10601" lon="5.54483">
        <ele>1210.6</ele>
        <time>2022-08-12T12:52:55.000Z</time>
      </trkpt>
      <trkpt lat="45.10602" lon="5.5448">
        <ele>1210.6</ele>
        <time>2022-08-12T12:52:56.000Z</time>
      </trkpt>
      <trkpt lat="45.10602" lon="5.54478">
        <ele>1210.6</ele>
        <time>2022-08-12T12:52:57.000Z</time>
      </trkpt>
      <trkpt lat="45.10601" lon="5.54477">
        <ele>1210.7</ele>
        <time>2022-08-12T12:52:58.000Z</time>
      </trkpt>
      <trkpt lat="45.106" lon="5.54477">
        <ele>1210.7</ele>
        <time>2022-08-12T12:52:59.000Z</time>
      </trkpt>
      <trkpt lat="45.10599" lon="5.54477">
        <ele>1210.8</ele>
        <time>2022-08-12T12:53:00.000Z</time>
      </trkpt>
      <trkpt lat="45.10598" lon="5.54477">
        <ele>1210.9</ele>
        <time>2022-08-12T12:53:01.000Z</time>
      </trkpt>
      <trkpt lat="45.10597" lon="5.54476">
        <ele>1210.9</ele>
        <time>2022-08-12T12:53:02.000Z</time>
      </trkpt>
      <trkpt lat="45.10597" lon="5.54475">
        <ele>1211</ele>
        <time>2022-08-12T12:53:03.000Z</time>
      </trkpt>
      <trkpt lat="45.10596" lon="5.54475">
        <ele>1211.1</ele>
        <time>2022-08-12T12:53:04.000Z</time>
      </trkpt>
      <trkpt lat="45.10595" lon="5.54475">
        <ele>1211.1</ele>
        <time>2022-08-12T12:53:05.000Z</time>
      </trkpt>
      <trkpt lat="45.10594" lon="5.54474">
        <ele>1211.2</ele>
        <time>2022-08-12T12:53:06.000Z</time>
      </trkpt>
      <trkpt lat="45.10592" lon="5.54473">
        <ele>1211.4</ele>
        <time>2022-08-12T12:53:08.000Z</time>
      </trkpt>
      <trkpt lat="45.1059" lon="5.54472">
        <ele>1211.5</ele>
        <time>2022-08-12T12:53:10.000Z</time>
      </trkpt>
      <trkpt lat="45.10589" lon="5.54469">
        <ele>1211.6</ele>
        <time>2022-08-12T12:53:12.000Z</time>
      </trkpt>
      <trkpt lat="45.10589" lon="5.54467">
        <ele>1211.6</ele>
        <time>2022-08-12T12:53:13.000Z</time>
      </trkpt>
      <trkpt lat="45.10589" lon="5.54465">
        <ele>1211.6</ele>
        <time>2022-08-12T12:53:14.000Z</time>
      </trkpt>
      <trkpt lat="45.10588" lon="5.54462">
        <ele>1211.7</ele>
        <time>2022-08-12T12:53:16.000Z</time>
      </trkpt>
      <trkpt lat="45.10588" lon="5.54461">
        <ele>1211.7</ele>
        <time>2022-08-12T12:53:17.000Z</time>
      </trkpt>
      <trkpt lat="45.10587" lon="5.54459">
        <ele>1211.7</ele>
        <time>2022-08-12T12:53:18.000Z</time>
      </trkpt>
      <trkpt lat="45.10586" lon="5.54458">
        <ele>1211.8</ele>
        <time>2022-08-12T12:53:19.000Z</time>
      </trkpt>
      <trkpt lat="45.10585" lon="5.54457">
        <ele>1211.9</ele>
        <time>2022-08-12T12:53:20.000Z</time>
      </trkpt>
      <trkpt lat="45.10584" lon="5.54453">
        <ele>1212</ele>
        <time>2022-08-12T12:53:22.000Z</time>
      </trkpt>
      <trkpt lat="45.10584" lon="5.5445">
        <ele>1212</ele>
        <time>2022-08-12T12:53:23.000Z</time>
      </trkpt>
      <trkpt lat="45.10584" lon="5.54448">
        <ele>1212</ele>
        <time>2022-08-12T12:53:24.000Z</time>
      </trkpt>
      <trkpt lat="45.10583" lon="5.54446">
        <ele>1212</ele>
        <time>2022-08-12T12:53:25.000Z</time>
      </trkpt>
      <trkpt lat="45.10582" lon="5.54444">
        <ele>1212.2</ele>
        <time>2022-08-12T12:53:26.000Z</time>
      </trkpt>
      <trkpt lat="45.10581" lon="5.54443">
        <ele>1212.3</ele>
        <time>2022-08-12T12:53:27.000Z</time>
      </trkpt>
      <trkpt lat="45.1058" lon="5.54442">
        <ele>1212.4</ele>
        <time>2022-08-12T12:53:28.000Z</time>
      </trkpt>
      <trkpt lat="45.10579" lon="5.54441">
        <ele>1212.5</ele>
        <time>2022-08-12T12:53:29.000Z</time>
      </trkpt>
      <trkpt lat="45.10575" lon="5.54432">
        <ele>1213.4</ele>
        <time>2022-08-12T12:53:34.000Z</time>
      </trkpt>
      <trkpt lat="45.10575" lon="5.5443">
        <ele>1213.4</ele>
        <time>2022-08-12T12:53:35.000Z</time>
      </trkpt>
      <trkpt lat="45.10575" lon="5.54428">
        <ele>1213.5</ele>
        <time>2022-08-12T12:53:36.000Z</time>
      </trkpt>
      <trkpt lat="45.10575" lon="5.54424">
        <ele>1213.6</ele>
        <time>2022-08-12T12:53:38.000Z</time>
      </trkpt>
      <trkpt lat="45.10574" lon="5.54422">
        <ele>1213.8</ele>
        <time>2022-08-12T12:53:39.000Z</time>
      </trkpt>
      <trkpt lat="45.10573" lon="5.5442">
        <ele>1214</ele>
        <time>2022-08-12T12:53:40.000Z</time>
      </trkpt>
      <trkpt lat="45.10569" lon="5.54415">
        <ele>1214.5</ele>
        <time>2022-08-12T12:53:43.000Z</time>
      </trkpt>
      <trkpt lat="45.10569" lon="5.54413">
        <ele>1214.6</ele>
        <time>2022-08-12T12:53:44.000Z</time>
      </trkpt>
      <trkpt lat="45.10568" lon="5.54411">
        <ele>1214.7</ele>
        <time>2022-08-12T12:53:45.000Z</time>
      </trkpt>
      <trkpt lat="45.10568" lon="5.54408">
        <ele>1214.7</ele>
        <time>2022-08-12T12:53:46.000Z</time>
      </trkpt>
      <trkpt lat="45.10567" lon="5.54406">
        <ele>1214.8</ele>
        <time>2022-08-12T12:53:47.000Z</time>
      </trkpt>
      <trkpt lat="45.1056" lon="5.54388">
        <ele>1215.5</ele>
        <time>2022-08-12T12:53:54.000Z</time>
      </trkpt>
      <trkpt lat="45.10558" lon="5.54386">
        <ele>1215.7</ele>
        <time>2022-08-12T12:53:55.000Z</time>
      </trkpt>
      <trkpt lat="45.10556" lon="5.54385">
        <ele>1215.8</ele>
        <time>2022-08-12T12:53:56.000Z</time>
      </trkpt>
      <trkpt lat="45.10553" lon="5.54383">
        <ele>1216</ele>
        <time>2022-08-12T12:53:57.000Z</time>
      </trkpt>
      <trkpt lat="45.10551" lon="5.54379">
        <ele>1216.2</ele>
        <time>2022-08-12T12:53:59.000Z</time>
      </trkpt>
      <trkpt lat="45.10548" lon="5.54373">
        <ele>1216.2</ele>
        <time>2022-08-12T12:54:00.000Z</time>
      </trkpt>
      <trkpt lat="45.10547" lon="5.5437">
        <ele>1216.2</ele>
        <time>2022-08-12T12:54:02.000Z</time>
      </trkpt>
      <trkpt lat="45.10547" lon="5.54367">
        <ele>1216.2</ele>
        <time>2022-08-12T12:54:03.000Z</time>
      </trkpt>
      <trkpt lat="45.10543" lon="5.54363">
        <ele>1216.4</ele>
        <time>2022-08-12T12:54:05.000Z</time>
      </trkpt>
      <trkpt lat="45.10539" lon="5.54364">
        <ele>1216.9</ele>
        <time>2022-08-12T12:54:06.000Z</time>
      </trkpt>
      <trkpt lat="45.10537" lon="5.54366">
        <ele>1217.1</ele>
        <time>2022-08-12T12:54:07.000Z</time>
      </trkpt>
      <trkpt lat="45.10536" lon="5.54368">
        <ele>1217.4</ele>
        <time>2022-08-12T12:54:08.000Z</time>
      </trkpt>
      <trkpt lat="45.10535" lon="5.54369">
        <ele>1217.5</ele>
        <time>2022-08-12T12:54:09.000Z</time>
      </trkpt>
      <trkpt lat="45.10533" lon="5.54368">
        <ele>1217.7</ele>
        <time>2022-08-12T12:54:10.000Z</time>
      </trkpt>
      <trkpt lat="45.10532" lon="5.54368">
        <ele>1217.8</ele>
        <time>2022-08-12T12:54:11.000Z</time>
      </trkpt>
      <trkpt lat="45.1053" lon="5.54367">
        <ele>1217.9</ele>
        <time>2022-08-12T12:54:12.000Z</time>
      </trkpt>
      <trkpt lat="45.10529" lon="5.54367">
        <ele>1218.1</ele>
        <time>2022-08-12T12:54:13.000Z</time>
      </trkpt>
      <trkpt lat="45.10528" lon="5.54367">
        <ele>1218.2</ele>
        <time>2022-08-12T12:54:14.000Z</time>
      </trkpt>
      <trkpt lat="45.10526" lon="5.54368">
        <ele>1218.4</ele>
        <time>2022-08-12T12:54:15.000Z</time>
      </trkpt>
      <trkpt lat="45.10524" lon="5.54369">
        <ele>1218.5</ele>
        <time>2022-08-12T12:54:16.000Z</time>
      </trkpt>
      <trkpt lat="45.10523" lon="5.54369">
        <ele>1218.6</ele>
        <time>2022-08-12T12:54:17.000Z</time>
      </trkpt>
      <trkpt lat="45.10522" lon="5.5437">
        <ele>1218.7</ele>
        <time>2022-08-12T12:54:18.000Z</time>
      </trkpt>
      <trkpt lat="45.1052" lon="5.5437">
        <ele>1218.8</ele>
        <time>2022-08-12T12:54:19.000Z</time>
      </trkpt>
      <trkpt lat="45.10519" lon="5.5437">
        <ele>1218.9</ele>
        <time>2022-08-12T12:54:20.000Z</time>
      </trkpt>
      <trkpt lat="45.10518" lon="5.54369">
        <ele>1218.9</ele>
        <time>2022-08-12T12:54:21.000Z</time>
      </trkpt>
      <trkpt lat="45.10516" lon="5.54366">
        <ele>1218.9</ele>
        <time>2022-08-12T12:54:22.000Z</time>
      </trkpt>
      <trkpt lat="45.10515" lon="5.54365">
        <ele>1219</ele>
        <time>2022-08-12T12:54:23.000Z</time>
      </trkpt>
      <trkpt lat="45.10513" lon="5.54364">
        <ele>1219.1</ele>
        <time>2022-08-12T12:54:24.000Z</time>
      </trkpt>
      <trkpt lat="45.1051" lon="5.54364">
        <ele>1219.3</ele>
        <time>2022-08-12T12:54:27.000Z</time>
      </trkpt>
      <trkpt lat="45.10507" lon="5.54363">
        <ele>1219.5</ele>
        <time>2022-08-12T12:54:29.000Z</time>
      </trkpt>
      <trkpt lat="45.10506" lon="5.54362">
        <ele>1219.5</ele>
        <time>2022-08-12T12:54:30.000Z</time>
      </trkpt>
      <trkpt lat="45.10505" lon="5.54362">
        <ele>1219.6</ele>
        <time>2022-08-12T12:54:31.000Z</time>
      </trkpt>
      <trkpt lat="45.10504" lon="5.54362">
        <ele>1219.7</ele>
        <time>2022-08-12T12:54:32.000Z</time>
      </trkpt>
      <trkpt lat="45.10498" lon="5.54359">
        <ele>1220.1</ele>
        <time>2022-08-12T12:54:35.000Z</time>
      </trkpt>
      <trkpt lat="45.10497" lon="5.54357">
        <ele>1220.1</ele>
        <time>2022-08-12T12:54:36.000Z</time>
      </trkpt>
      <trkpt lat="45.10496" lon="5.54356">
        <ele>1220.1</ele>
        <time>2022-08-12T12:54:37.000Z</time>
      </trkpt>
      <trkpt lat="45.10495" lon="5.54354">
        <ele>1220.2</ele>
        <time>2022-08-12T12:54:38.000Z</time>
      </trkpt>
      <trkpt lat="45.10493" lon="5.54354">
        <ele>1220.3</ele>
        <time>2022-08-12T12:54:39.000Z</time>
      </trkpt>
      <trkpt lat="45.10491" lon="5.54354">
        <ele>1220.5</ele>
        <time>2022-08-12T12:54:40.000Z</time>
      </trkpt>
      <trkpt lat="45.10489" lon="5.54354">
        <ele>1220.6</ele>
        <time>2022-08-12T12:54:41.000Z</time>
      </trkpt>
      <trkpt lat="45.10484" lon="5.54352">
        <ele>1221</ele>
        <time>2022-08-12T12:54:44.000Z</time>
      </trkpt>
      <trkpt lat="45.10483" lon="5.5435">
        <ele>1221.1</ele>
        <time>2022-08-12T12:54:45.000Z</time>
      </trkpt>
      <trkpt lat="45.10482" lon="5.54349">
        <ele>1221.2</ele>
        <time>2022-08-12T12:54:46.000Z</time>
      </trkpt>
      <trkpt lat="45.10481" lon="5.54346">
        <ele>1221.2</ele>
        <time>2022-08-12T12:54:47.000Z</time>
      </trkpt>
      <trkpt lat="45.1048" lon="5.54345">
        <ele>1221.3</ele>
        <time>2022-08-12T12:54:48.000Z</time>
      </trkpt>
      <trkpt lat="45.10478" lon="5.54342">
        <ele>1221.5</ele>
        <time>2022-08-12T12:54:50.000Z</time>
      </trkpt>
      <trkpt lat="45.10477" lon="5.54341">
        <ele>1221.5</ele>
        <time>2022-08-12T12:54:51.000Z</time>
      </trkpt>
      <trkpt lat="45.10477" lon="5.54342">
        <ele>1221.6</ele>
        <time>2022-08-12T12:54:52.000Z</time>
      </trkpt>
      <trkpt lat="45.10476" lon="5.54342">
        <ele>1221.7</ele>
        <time>2022-08-12T12:54:53.000Z</time>
      </trkpt>
      <trkpt lat="45.10474" lon="5.54342">
        <ele>1221.8</ele>
        <time>2022-08-12T12:54:54.000Z</time>
      </trkpt>
      <trkpt lat="45.10473" lon="5.54341">
        <ele>1221.9</ele>
        <time>2022-08-12T12:54:55.000Z</time>
      </trkpt>
      <trkpt lat="45.10472" lon="5.5434">
        <ele>1222</ele>
        <time>2022-08-12T12:54:56.000Z</time>
      </trkpt>
      <trkpt lat="45.10469" lon="5.54338">
        <ele>1222.2</ele>
        <time>2022-08-12T12:54:57.000Z</time>
      </trkpt>
      <trkpt lat="45.10468" lon="5.54338">
        <ele>1222.3</ele>
        <time>2022-08-12T12:54:58.000Z</time>
      </trkpt>
      <trkpt lat="45.10466" lon="5.54337">
        <ele>1222.4</ele>
        <time>2022-08-12T12:54:59.000Z</time>
      </trkpt>
      <trkpt lat="45.10462" lon="5.54337">
        <ele>1222.7</ele>
        <time>2022-08-12T12:55:01.000Z</time>
      </trkpt>
      <trkpt lat="45.10456" lon="5.54337">
        <ele>1223.2</ele>
        <time>2022-08-12T12:55:05.000Z</time>
      </trkpt>
      <trkpt lat="45.10455" lon="5.54336">
        <ele>1223.3</ele>
        <time>2022-08-12T12:55:06.000Z</time>
      </trkpt>
      <trkpt lat="45.10454" lon="5.54335">
        <ele>1223.3</ele>
        <time>2022-08-12T12:55:07.000Z</time>
      </trkpt>
      <trkpt lat="45.10452" lon="5.54331">
        <ele>1223.4</ele>
        <time>2022-08-12T12:55:08.000Z</time>
      </trkpt>
      <trkpt lat="45.10451" lon="5.54328">
        <ele>1223.5</ele>
        <time>2022-08-12T12:55:09.000Z</time>
      </trkpt>
      <trkpt lat="45.1045" lon="5.54327">
        <ele>1223.6</ele>
        <time>2022-08-12T12:55:10.000Z</time>
      </trkpt>
      <trkpt lat="45.10449" lon="5.54327">
        <ele>1223.7</ele>
        <time>2022-08-12T12:55:11.000Z</time>
      </trkpt>
      <trkpt lat="45.10448" lon="5.54327">
        <ele>1223.7</ele>
        <time>2022-08-12T12:55:12.000Z</time>
      </trkpt>
      <trkpt lat="45.10446" lon="5.54326">
        <ele>1223.8</ele>
        <time>2022-08-12T12:55:13.000Z</time>
      </trkpt>
      <trkpt lat="45.10444" lon="5.54325">
        <ele>1224</ele>
        <time>2022-08-12T12:55:14.000Z</time>
      </trkpt>
      <trkpt lat="45.10443" lon="5.54322">
        <ele>1224.1</ele>
        <time>2022-08-12T12:55:15.000Z</time>
      </trkpt>
      <trkpt lat="45.10442" lon="5.54321">
        <ele>1224.2</ele>
        <time>2022-08-12T12:55:16.000Z</time>
      </trkpt>
      <trkpt lat="45.10441" lon="5.54319">
        <ele>1224.3</ele>
        <time>2022-08-12T12:55:18.000Z</time>
      </trkpt>
      <trkpt lat="45.1044" lon="5.54318">
        <ele>1224.4</ele>
        <time>2022-08-12T12:55:19.000Z</time>
      </trkpt>
      <trkpt lat="45.10439" lon="5.54314">
        <ele>1224.5</ele>
        <time>2022-08-12T12:55:20.000Z</time>
      </trkpt>
      <trkpt lat="45.10439" lon="5.54312">
        <ele>1224.5</ele>
        <time>2022-08-12T12:55:22.000Z</time>
      </trkpt>
      <trkpt lat="45.10439" lon="5.54309">
        <ele>1224.5</ele>
        <time>2022-08-12T12:55:23.000Z</time>
      </trkpt>
      <trkpt lat="45.10439" lon="5.54306">
        <ele>1224.6</ele>
        <time>2022-08-12T12:55:24.000Z</time>
      </trkpt>
      <trkpt lat="45.10438" lon="5.54301">
        <ele>1224.6</ele>
        <time>2022-08-12T12:55:26.000Z</time>
      </trkpt>
      <trkpt lat="45.10436" lon="5.54299">
        <ele>1224.7</ele>
        <time>2022-08-12T12:55:27.000Z</time>
      </trkpt>
      <trkpt lat="45.10435" lon="5.54298">
        <ele>1224.8</ele>
        <time>2022-08-12T12:55:28.000Z</time>
      </trkpt>
      <trkpt lat="45.10434" lon="5.54297">
        <ele>1225</ele>
        <time>2022-08-12T12:55:29.000Z</time>
      </trkpt>
      <trkpt lat="45.10433" lon="5.54297">
        <ele>1225.1</ele>
        <time>2022-08-12T12:55:30.000Z</time>
      </trkpt>
      <trkpt lat="45.10432" lon="5.54295">
        <ele>1225.1</ele>
        <time>2022-08-12T12:55:31.000Z</time>
      </trkpt>
      <trkpt lat="45.10431" lon="5.54294">
        <ele>1225.2</ele>
        <time>2022-08-12T12:55:32.000Z</time>
      </trkpt>
      <trkpt lat="45.10427" lon="5.54289">
        <ele>1225.6</ele>
        <time>2022-08-12T12:55:35.000Z</time>
      </trkpt>
      <trkpt lat="45.10426" lon="5.54287">
        <ele>1225.7</ele>
        <time>2022-08-12T12:55:36.000Z</time>
      </trkpt>
      <trkpt lat="45.10427" lon="5.54285">
        <ele>1225.7</ele>
        <time>2022-08-12T12:55:37.000Z</time>
      </trkpt>
      <trkpt lat="45.10428" lon="5.54283">
        <ele>1225.5</ele>
        <time>2022-08-12T12:55:38.000Z</time>
      </trkpt>
      <trkpt lat="45.10426" lon="5.54275">
        <ele>1225.5</ele>
        <time>2022-08-12T12:55:41.000Z</time>
      </trkpt>
      <trkpt lat="45.10425" lon="5.54273">
        <ele>1225.6</ele>
        <time>2022-08-12T12:55:42.000Z</time>
      </trkpt>
      <trkpt lat="45.10423" lon="5.54272">
        <ele>1225.8</ele>
        <time>2022-08-12T12:55:43.000Z</time>
      </trkpt>
      <trkpt lat="45.10422" lon="5.5427">
        <ele>1226</ele>
        <time>2022-08-12T12:55:44.000Z</time>
      </trkpt>
      <trkpt lat="45.1042" lon="5.5427">
        <ele>1226.2</ele>
        <time>2022-08-12T12:55:45.000Z</time>
      </trkpt>
      <trkpt lat="45.10419" lon="5.5427">
        <ele>1226.4</ele>
        <time>2022-08-12T12:55:46.000Z</time>
      </trkpt>
      <trkpt lat="45.10417" lon="5.54269">
        <ele>1226.6</ele>
        <time>2022-08-12T12:55:47.000Z</time>
      </trkpt>
      <trkpt lat="45.10417" lon="5.54268">
        <ele>1226.7</ele>
        <time>2022-08-12T12:55:48.000Z</time>
      </trkpt>
      <trkpt lat="45.10416" lon="5.54267">
        <ele>1226.7</ele>
        <time>2022-08-12T12:55:49.000Z</time>
      </trkpt>
      <trkpt lat="45.10415" lon="5.54265">
        <ele>1226.8</ele>
        <time>2022-08-12T12:55:50.000Z</time>
      </trkpt>
      <trkpt lat="45.10414" lon="5.54262">
        <ele>1226.9</ele>
        <time>2022-08-12T12:55:51.000Z</time>
      </trkpt>
      <trkpt lat="45.10412" lon="5.5426">
        <ele>1227.1</ele>
        <time>2022-08-12T12:55:52.000Z</time>
      </trkpt>
      <trkpt lat="45.1041" lon="5.54259">
        <ele>1227.4</ele>
        <time>2022-08-12T12:55:53.000Z</time>
      </trkpt>
      <trkpt lat="45.10409" lon="5.54259">
        <ele>1227.5</ele>
        <time>2022-08-12T12:55:54.000Z</time>
      </trkpt>
      <trkpt lat="45.10408" lon="5.5426">
        <ele>1227.7</ele>
        <time>2022-08-12T12:55:55.000Z</time>
      </trkpt>
      <trkpt lat="45.10407" lon="5.54261">
        <ele>1227.8</ele>
        <time>2022-08-12T12:55:56.000Z</time>
      </trkpt>
      <trkpt lat="45.10406" lon="5.54262">
        <ele>1228</ele>
        <time>2022-08-12T12:55:57.000Z</time>
      </trkpt>
      <trkpt lat="45.10405" lon="5.54262">
        <ele>1228.1</ele>
        <time>2022-08-12T12:55:58.000Z</time>
      </trkpt>
      <trkpt lat="45.10404" lon="5.54264">
        <ele>1228.4</ele>
        <time>2022-08-12T12:56:00.000Z</time>
      </trkpt>
      <trkpt lat="45.10402" lon="5.54264">
        <ele>1228.7</ele>
        <time>2022-08-12T12:56:01.000Z</time>
      </trkpt>
      <trkpt lat="45.10398" lon="5.54265">
        <ele>1229.1</ele>
        <time>2022-08-12T12:56:03.000Z</time>
      </trkpt>
      <trkpt lat="45.10397" lon="5.54266">
        <ele>1229.3</ele>
        <time>2022-08-12T12:56:04.000Z</time>
      </trkpt>
      <trkpt lat="45.10395" lon="5.54266">
        <ele>1229.6</ele>
        <time>2022-08-12T12:56:05.000Z</time>
      </trkpt>
      <trkpt lat="45.10393" lon="5.54265">
        <ele>1229.9</ele>
        <time>2022-08-12T12:56:06.000Z</time>
      </trkpt>
      <trkpt lat="45.10391" lon="5.54266">
        <ele>1230.1</ele>
        <time>2022-08-12T12:56:07.000Z</time>
      </trkpt>
      <trkpt lat="45.1039" lon="5.54268">
        <ele>1230.2</ele>
        <time>2022-08-12T12:56:08.000Z</time>
      </trkpt>
      <trkpt lat="45.10388" lon="5.54268">
        <ele>1230.4</ele>
        <time>2022-08-12T12:56:09.000Z</time>
      </trkpt>
      <trkpt lat="45.10387" lon="5.54266">
        <ele>1230.6</ele>
        <time>2022-08-12T12:56:10.000Z</time>
      </trkpt>
      <trkpt lat="45.10386" lon="5.54263">
        <ele>1230.9</ele>
        <time>2022-08-12T12:56:11.000Z</time>
      </trkpt>
      <trkpt lat="45.10384" lon="5.54261">
        <ele>1231.1</ele>
        <time>2022-08-12T12:56:12.000Z</time>
      </trkpt>
      <trkpt lat="45.10387" lon="5.54259">
        <ele>1230.9</ele>
        <time>2022-08-12T12:56:13.000Z</time>
      </trkpt>
      <trkpt lat="45.10388" lon="5.54256">
        <ele>1230.9</ele>
        <time>2022-08-12T12:56:14.000Z</time>
      </trkpt>
      <trkpt lat="45.10389" lon="5.54254">
        <ele>1230.8</ele>
        <time>2022-08-12T12:56:15.000Z</time>
      </trkpt>
      <trkpt lat="45.10389" lon="5.54253">
        <ele>1230.8</ele>
        <time>2022-08-12T12:56:16.000Z</time>
      </trkpt>
      <trkpt lat="45.10389" lon="5.54251">
        <ele>1231</ele>
        <time>2022-08-12T12:56:17.000Z</time>
      </trkpt>
      <trkpt lat="45.10388" lon="5.5425">
        <ele>1231</ele>
        <time>2022-08-12T12:56:18.000Z</time>
      </trkpt>
      <trkpt lat="45.10388" lon="5.54249">
        <ele>1231.1</ele>
        <time>2022-08-12T12:56:19.000Z</time>
      </trkpt>
      <trkpt lat="45.10387" lon="5.54247">
        <ele>1231.2</ele>
        <time>2022-08-12T12:56:20.000Z</time>
      </trkpt>
      <trkpt lat="45.10386" lon="5.54246">
        <ele>1231.3</ele>
        <time>2022-08-12T12:56:21.000Z</time>
      </trkpt>
      <trkpt lat="45.10386" lon="5.54244">
        <ele>1231.4</ele>
        <time>2022-08-12T12:56:22.000Z</time>
      </trkpt>
      <trkpt lat="45.10385" lon="5.54242">
        <ele>1231.5</ele>
        <time>2022-08-12T12:56:23.000Z</time>
      </trkpt>
      <trkpt lat="45.10383" lon="5.5424">
        <ele>1231.7</ele>
        <time>2022-08-12T12:56:24.000Z</time>
      </trkpt>
      <trkpt lat="45.10382" lon="5.54238">
        <ele>1231.8</ele>
        <time>2022-08-12T12:56:25.000Z</time>
      </trkpt>
      <trkpt lat="45.10381" lon="5.54236">
        <ele>1232</ele>
        <time>2022-08-12T12:56:26.000Z</time>
      </trkpt>
      <trkpt lat="45.10378" lon="5.54235">
        <ele>1232.4</ele>
        <time>2022-08-12T12:56:28.000Z</time>
      </trkpt>
      <trkpt lat="45.10377" lon="5.54234">
        <ele>1232.5</ele>
        <time>2022-08-12T12:56:29.000Z</time>
      </trkpt>
      <trkpt lat="45.10376" lon="5.54232">
        <ele>1232.7</ele>
        <time>2022-08-12T12:56:30.000Z</time>
      </trkpt>
      <trkpt lat="45.10375" lon="5.5423">
        <ele>1232.9</ele>
        <time>2022-08-12T12:56:31.000Z</time>
      </trkpt>
      <trkpt lat="45.10374" lon="5.54231">
        <ele>1233</ele>
        <time>2022-08-12T12:56:32.000Z</time>
      </trkpt>
      <trkpt lat="45.10373" lon="5.54232">
        <ele>1233.1</ele>
        <time>2022-08-12T12:56:33.000Z</time>
      </trkpt>
      <trkpt lat="45.10373" lon="5.54233">
        <ele>1233.1</ele>
        <time>2022-08-12T12:56:34.000Z</time>
      </trkpt>
      <trkpt lat="45.10372" lon="5.54235">
        <ele>1233.1</ele>
        <time>2022-08-12T12:56:35.000Z</time>
      </trkpt>
      <trkpt lat="45.1037" lon="5.54237">
        <ele>1233.3</ele>
        <time>2022-08-12T12:56:37.000Z</time>
      </trkpt>
      <trkpt lat="45.10367" lon="5.54235">
        <ele>1233.8</ele>
        <time>2022-08-12T12:56:38.000Z</time>
      </trkpt>
      <trkpt lat="45.10364" lon="5.54234">
        <ele>1234.2</ele>
        <time>2022-08-12T12:56:39.000Z</time>
      </trkpt>
      <trkpt lat="45.10363" lon="5.54233">
        <ele>1234.4</ele>
        <time>2022-08-12T12:56:40.000Z</time>
      </trkpt>
      <trkpt lat="45.10362" lon="5.54233">
        <ele>1234.5</ele>
        <time>2022-08-12T12:56:41.000Z</time>
      </trkpt>
      <trkpt lat="45.10361" lon="5.54232">
        <ele>1234.6</ele>
        <time>2022-08-12T12:56:42.000Z</time>
      </trkpt>
      <trkpt lat="45.10361" lon="5.54231">
        <ele>1234.7</ele>
        <time>2022-08-12T12:56:43.000Z</time>
      </trkpt>
      <trkpt lat="45.1036" lon="5.5423">
        <ele>1234.8</ele>
        <time>2022-08-12T12:56:44.000Z</time>
      </trkpt>
      <trkpt lat="45.10359" lon="5.5423">
        <ele>1234.9</ele>
        <time>2022-08-12T12:56:45.000Z</time>
      </trkpt>
      <trkpt lat="45.10357" lon="5.5423">
        <ele>1235</ele>
        <time>2022-08-12T12:56:46.000Z</time>
      </trkpt>
      <trkpt lat="45.10357" lon="5.54231">
        <ele>1235</ele>
        <time>2022-08-12T12:56:47.000Z</time>
      </trkpt>
      <trkpt lat="45.10356" lon="5.54232">
        <ele>1235.1</ele>
        <time>2022-08-12T12:56:48.000Z</time>
      </trkpt>
      <trkpt lat="45.10356" lon="5.54233">
        <ele>1235.1</ele>
        <time>2022-08-12T12:56:49.000Z</time>
      </trkpt>
      <trkpt lat="45.10355" lon="5.54234">
        <ele>1235.1</ele>
        <time>2022-08-12T12:56:50.000Z</time>
      </trkpt>
      <trkpt lat="45.10354" lon="5.54235">
        <ele>1235.2</ele>
        <time>2022-08-12T12:56:51.000Z</time>
      </trkpt>
      <trkpt lat="45.10352" lon="5.54234">
        <ele>1235.3</ele>
        <time>2022-08-12T12:56:52.000Z</time>
      </trkpt>
      <trkpt lat="45.10351" lon="5.54232">
        <ele>1235.5</ele>
        <time>2022-08-12T12:56:53.000Z</time>
      </trkpt>
      <trkpt lat="45.1035" lon="5.5423">
        <ele>1235.6</ele>
        <time>2022-08-12T12:56:54.000Z</time>
      </trkpt>
      <trkpt lat="45.1035" lon="5.54229">
        <ele>1235.7</ele>
        <time>2022-08-12T12:56:55.000Z</time>
      </trkpt>
      <trkpt lat="45.10349" lon="5.54227">
        <ele>1235.8</ele>
        <time>2022-08-12T12:56:56.000Z</time>
      </trkpt>
      <trkpt lat="45.10348" lon="5.54224">
        <ele>1235.9</ele>
        <time>2022-08-12T12:56:57.000Z</time>
      </trkpt>
      <trkpt lat="45.10347" lon="5.54223">
        <ele>1236</ele>
        <time>2022-08-12T12:56:58.000Z</time>
      </trkpt>
      <trkpt lat="45.10345" lon="5.54222">
        <ele>1236.1</ele>
        <time>2022-08-12T12:56:59.000Z</time>
      </trkpt>
      <trkpt lat="45.10344" lon="5.54221">
        <ele>1236.2</ele>
        <time>2022-08-12T12:57:00.000Z</time>
      </trkpt>
      <trkpt lat="45.10343" lon="5.54221">
        <ele>1236.3</ele>
        <time>2022-08-12T12:57:01.000Z</time>
      </trkpt>
      <trkpt lat="45.10341" lon="5.54221">
        <ele>1236.4</ele>
        <time>2022-08-12T12:57:02.000Z</time>
      </trkpt>
      <trkpt lat="45.1034" lon="5.54222">
        <ele>1236.5</ele>
        <time>2022-08-12T12:57:03.000Z</time>
      </trkpt>
      <trkpt lat="45.10339" lon="5.54223">
        <ele>1236.6</ele>
        <time>2022-08-12T12:57:04.000Z</time>
      </trkpt>
      <trkpt lat="45.10338" lon="5.54224">
        <ele>1236.7</ele>
        <time>2022-08-12T12:57:05.000Z</time>
      </trkpt>
      <trkpt lat="45.10337" lon="5.54225">
        <ele>1236.7</ele>
        <time>2022-08-12T12:57:06.000Z</time>
      </trkpt>
      <trkpt lat="45.10336" lon="5.54225">
        <ele>1236.8</ele>
        <time>2022-08-12T12:57:07.000Z</time>
      </trkpt>
      <trkpt lat="45.10334" lon="5.54225">
        <ele>1236.9</ele>
        <time>2022-08-12T12:57:08.000Z</time>
      </trkpt>
      <trkpt lat="45.10332" lon="5.54226">
        <ele>1237.1</ele>
        <time>2022-08-12T12:57:09.000Z</time>
      </trkpt>
      <trkpt lat="45.1033" lon="5.54226">
        <ele>1237.2</ele>
        <time>2022-08-12T12:57:10.000Z</time>
      </trkpt>
      <trkpt lat="45.10328" lon="5.54226">
        <ele>1237.4</ele>
        <time>2022-08-12T12:57:11.000Z</time>
      </trkpt>
      <trkpt lat="45.10324" lon="5.54226">
        <ele>1237.7</ele>
        <time>2022-08-12T12:57:12.000Z</time>
      </trkpt>
      <trkpt lat="45.10322" lon="5.54228">
        <ele>1237.8</ele>
        <time>2022-08-12T12:57:13.000Z</time>
      </trkpt>
      <trkpt lat="45.10321" lon="5.54228">
        <ele>1237.9</ele>
        <time>2022-08-12T12:57:14.000Z</time>
      </trkpt>
      <trkpt lat="45.1032" lon="5.54229">
        <ele>1237.9</ele>
        <time>2022-08-12T12:57:15.000Z</time>
      </trkpt>
      <trkpt lat="45.10319" lon="5.5423">
        <ele>1238</ele>
        <time>2022-08-12T12:57:17.000Z</time>
      </trkpt>
      <trkpt lat="45.10318" lon="5.54231">
        <ele>1238.1</ele>
        <time>2022-08-12T12:57:18.000Z</time>
      </trkpt>
      <trkpt lat="45.10316" lon="5.54232">
        <ele>1238.2</ele>
        <time>2022-08-12T12:57:19.000Z</time>
      </trkpt>
      <trkpt lat="45.10315" lon="5.54233">
        <ele>1238.3</ele>
        <time>2022-08-12T12:57:20.000Z</time>
      </trkpt>
      <trkpt lat="45.10315" lon="5.54235">
        <ele>1238.3</ele>
        <time>2022-08-12T12:57:21.000Z</time>
      </trkpt>
      <trkpt lat="45.10314" lon="5.54236">
        <ele>1238.4</ele>
        <time>2022-08-12T12:57:25.000Z</time>
      </trkpt>
      <trkpt lat="45.10313" lon="5.54237">
        <ele>1238.5</ele>
        <time>2022-08-12T12:57:32.000Z</time>
      </trkpt>
      <trkpt lat="45.10311" lon="5.54239">
        <ele>1238.6</ele>
        <time>2022-08-12T12:57:33.000Z</time>
      </trkpt>
      <trkpt lat="45.10301" lon="5.54237">
        <ele>1239.1</ele>
        <time>2022-08-12T12:57:38.000Z</time>
      </trkpt>
      <trkpt lat="45.10299" lon="5.54237">
        <ele>1239.1</ele>
        <time>2022-08-12T12:57:39.000Z</time>
      </trkpt>
      <trkpt lat="45.10297" lon="5.54236">
        <ele>1239.1</ele>
        <time>2022-08-12T12:57:40.000Z</time>
      </trkpt>
      <trkpt lat="45.10296" lon="5.54236">
        <ele>1239.2</ele>
        <time>2022-08-12T12:57:41.000Z</time>
      </trkpt>
      <trkpt lat="45.10296" lon="5.54237">
        <ele>1239.2</ele>
        <time>2022-08-12T12:57:42.000Z</time>
      </trkpt>
      <trkpt lat="45.10292" lon="5.54238">
        <ele>1239.3</ele>
        <time>2022-08-12T12:57:45.000Z</time>
      </trkpt>
      <trkpt lat="45.10291" lon="5.54238">
        <ele>1239.3</ele>
        <time>2022-08-12T12:57:46.000Z</time>
      </trkpt>
      <trkpt lat="45.1029" lon="5.54239">
        <ele>1239.4</ele>
        <time>2022-08-12T12:57:47.000Z</time>
      </trkpt>
      <trkpt lat="45.10288" lon="5.54241">
        <ele>1239.4</ele>
        <time>2022-08-12T12:57:48.000Z</time>
      </trkpt>
      <trkpt lat="45.10287" lon="5.54242">
        <ele>1239.5</ele>
        <time>2022-08-12T12:57:49.000Z</time>
      </trkpt>
      <trkpt lat="45.10286" lon="5.54244">
        <ele>1239.6</ele>
        <time>2022-08-12T12:57:50.000Z</time>
      </trkpt>
      <trkpt lat="45.10285" lon="5.54246">
        <ele>1239.7</ele>
        <time>2022-08-12T12:57:51.000Z</time>
      </trkpt>
      <trkpt lat="45.10284" lon="5.54248">
        <ele>1239.7</ele>
        <time>2022-08-12T12:57:52.000Z</time>
      </trkpt>
      <trkpt lat="45.10282" lon="5.54251">
        <ele>1239.8</ele>
        <time>2022-08-12T12:57:54.000Z</time>
      </trkpt>
      <trkpt lat="45.10282" lon="5.54252">
        <ele>1239.8</ele>
        <time>2022-08-12T12:57:55.000Z</time>
      </trkpt>
      <trkpt lat="45.10282" lon="5.54254">
        <ele>1239.7</ele>
        <time>2022-08-12T12:57:56.000Z</time>
      </trkpt>
      <trkpt lat="45.10282" lon="5.54257">
        <ele>1239.6</ele>
        <time>2022-08-12T12:57:57.000Z</time>
      </trkpt>
      <trkpt lat="45.10281" lon="5.54264">
        <ele>1239.4</ele>
        <time>2022-08-12T12:58:01.000Z</time>
      </trkpt>
      <trkpt lat="45.1028" lon="5.54266">
        <ele>1239.4</ele>
        <time>2022-08-12T12:58:02.000Z</time>
      </trkpt>
      <trkpt lat="45.10279" lon="5.54267">
        <ele>1239.3</ele>
        <time>2022-08-12T12:58:03.000Z</time>
      </trkpt>
      <trkpt lat="45.10278" lon="5.54269">
        <ele>1239.3</ele>
        <time>2022-08-12T12:58:04.000Z</time>
      </trkpt>
      <trkpt lat="45.10276" lon="5.54271">
        <ele>1239.2</ele>
        <time>2022-08-12T12:58:06.000Z</time>
      </trkpt>
      <trkpt lat="45.10274" lon="5.54272">
        <ele>1239.2</ele>
        <time>2022-08-12T12:58:07.000Z</time>
      </trkpt>
      <trkpt lat="45.10273" lon="5.54273">
        <ele>1239.2</ele>
        <time>2022-08-12T12:58:08.000Z</time>
      </trkpt>
      <trkpt lat="45.10271" lon="5.54274">
        <ele>1239.1</ele>
        <time>2022-08-12T12:58:09.000Z</time>
      </trkpt>
      <trkpt lat="45.1027" lon="5.54274">
        <ele>1239.1</ele>
        <time>2022-08-12T12:58:10.000Z</time>
      </trkpt>
      <trkpt lat="45.10268" lon="5.54274">
        <ele>1239.1</ele>
        <time>2022-08-12T12:58:11.000Z</time>
      </trkpt>
      <trkpt lat="45.10267" lon="5.54273">
        <ele>1239.2</ele>
        <time>2022-08-12T12:58:12.000Z</time>
      </trkpt>
      <trkpt lat="45.10266" lon="5.54273">
        <ele>1239.2</ele>
        <time>2022-08-12T12:58:13.000Z</time>
      </trkpt>
      <trkpt lat="45.10267" lon="5.54273">
        <ele>1239.2</ele>
        <time>2022-08-12T12:58:14.000Z</time>
      </trkpt>
      <trkpt lat="45.10266" lon="5.54273">
        <ele>1239.2</ele>
        <time>2022-08-12T12:59:09.000Z</time>
      </trkpt>
      <trkpt lat="45.10266" lon="5.54272">
        <ele>1239.2</ele>
        <time>2022-08-12T12:59:14.000Z</time>
      </trkpt>
      <trkpt lat="45.10264" lon="5.54275">
        <ele>1239.1</ele>
        <time>2022-08-12T12:59:36.000Z</time>
      </trkpt>
      <trkpt lat="45.10263" lon="5.54276">
        <ele>1239.1</ele>
        <time>2022-08-12T12:59:37.000Z</time>
      </trkpt>
      <trkpt lat="45.10259" lon="5.54279">
        <ele>1238.9</ele>
        <time>2022-08-12T12:59:39.000Z</time>
      </trkpt>
      <trkpt lat="45.10256" lon="5.5428">
        <ele>1238.8</ele>
        <time>2022-08-12T12:59:40.000Z</time>
      </trkpt>
      <trkpt lat="45.10254" lon="5.54281">
        <ele>1238.8</ele>
        <time>2022-08-12T12:59:41.000Z</time>
      </trkpt>
      <trkpt lat="45.10252" lon="5.54281">
        <ele>1238.8</ele>
        <time>2022-08-12T12:59:42.000Z</time>
      </trkpt>
      <trkpt lat="45.1025" lon="5.54281">
        <ele>1238.8</ele>
        <time>2022-08-12T12:59:43.000Z</time>
      </trkpt>
      <trkpt lat="45.10244" lon="5.54281">
        <ele>1238.8</ele>
        <time>2022-08-12T12:59:45.000Z</time>
      </trkpt>
      <trkpt lat="45.1023" lon="5.5428">
        <ele>1238.8</ele>
        <time>2022-08-12T12:59:50.000Z</time>
      </trkpt>
      <trkpt lat="45.10224" lon="5.54281">
        <ele>1238.8</ele>
        <time>2022-08-12T12:59:52.000Z</time>
      </trkpt>
      <trkpt lat="45.10206" lon="5.54283">
        <ele>1239.1</ele>
        <time>2022-08-12T12:59:59.000Z</time>
      </trkpt>
      <trkpt lat="45.10201" lon="5.54281">
        <ele>1239.4</ele>
        <time>2022-08-12T13:00:01.000Z</time>
      </trkpt>
      <trkpt lat="45.10197" lon="5.5428">
        <ele>1239.6</ele>
        <time>2022-08-12T13:00:02.000Z</time>
      </trkpt>
      <trkpt lat="45.10195" lon="5.5428">
        <ele>1239.7</ele>
        <time>2022-08-12T13:00:03.000Z</time>
      </trkpt>
      <trkpt lat="45.10192" lon="5.54279">
        <ele>1239.8</ele>
        <time>2022-08-12T13:00:04.000Z</time>
      </trkpt>
      <trkpt lat="45.10189" lon="5.5428">
        <ele>1239.8</ele>
        <time>2022-08-12T13:00:05.000Z</time>
      </trkpt>
      <trkpt lat="45.1018" lon="5.54282">
        <ele>1239.5</ele>
        <time>2022-08-12T13:00:08.000Z</time>
      </trkpt>
      <trkpt lat="45.10177" lon="5.54282">
        <ele>1239.5</ele>
        <time>2022-08-12T13:00:09.000Z</time>
      </trkpt>
      <trkpt lat="45.10172" lon="5.54281">
        <ele>1239.6</ele>
        <time>2022-08-12T13:00:11.000Z</time>
      </trkpt>
      <trkpt lat="45.10165" lon="5.54279">
        <ele>1239.8</ele>
        <time>2022-08-12T13:00:13.000Z</time>
      </trkpt>
      <trkpt lat="45.10163" lon="5.54279">
        <ele>1239.8</ele>
        <time>2022-08-12T13:00:14.000Z</time>
      </trkpt>
      <trkpt lat="45.10153" lon="5.54278">
        <ele>1239.9</ele>
        <time>2022-08-12T13:00:17.000Z</time>
      </trkpt>
      <trkpt lat="45.1013" lon="5.54275">
        <ele>1239.9</ele>
        <time>2022-08-12T13:00:24.000Z</time>
      </trkpt>
      <trkpt lat="45.10113" lon="5.54275">
        <ele>1239.4</ele>
        <time>2022-08-12T13:00:29.000Z</time>
      </trkpt>
      <trkpt lat="45.10103" lon="5.54275">
        <ele>1239</ele>
        <time>2022-08-12T13:00:32.000Z</time>
      </trkpt>
      <trkpt lat="45.10079" lon="5.5427">
        <ele>1238.8</ele>
        <time>2022-08-12T13:00:39.000Z</time>
      </trkpt>
      <trkpt lat="45.10076" lon="5.54269">
        <ele>1238.9</ele>
        <time>2022-08-12T13:00:40.000Z</time>
      </trkpt>
      <trkpt lat="45.10074" lon="5.54268">
        <ele>1238.9</ele>
        <time>2022-08-12T13:00:41.000Z</time>
      </trkpt>
      <trkpt lat="45.10071" lon="5.54267">
        <ele>1239</ele>
        <time>2022-08-12T13:00:42.000Z</time>
      </trkpt>
      <trkpt lat="45.10068" lon="5.54267">
        <ele>1239</ele>
        <time>2022-08-12T13:00:43.000Z</time>
      </trkpt>
      <trkpt lat="45.10065" lon="5.54266">
        <ele>1239</ele>
        <time>2022-08-12T13:00:44.000Z</time>
      </trkpt>
      <trkpt lat="45.10061" lon="5.54264">
        <ele>1239.1</ele>
        <time>2022-08-12T13:00:46.000Z</time>
      </trkpt>
      <trkpt lat="45.10059" lon="5.54263">
        <ele>1239.1</ele>
        <time>2022-08-12T13:00:47.000Z</time>
      </trkpt>
      <trkpt lat="45.10057" lon="5.54262">
        <ele>1239.2</ele>
        <time>2022-08-12T13:00:48.000Z</time>
      </trkpt>
      <trkpt lat="45.10055" lon="5.54261">
        <ele>1239.2</ele>
        <time>2022-08-12T13:00:49.000Z</time>
      </trkpt>
      <trkpt lat="45.10054" lon="5.54261">
        <ele>1239.3</ele>
        <time>2022-08-12T13:00:50.000Z</time>
      </trkpt>
      <trkpt lat="45.10051" lon="5.5426">
        <ele>1239.6</ele>
        <time>2022-08-12T13:00:51.000Z</time>
      </trkpt>
      <trkpt lat="45.10049" lon="5.54259">
        <ele>1239.7</ele>
        <time>2022-08-12T13:00:52.000Z</time>
      </trkpt>
      <trkpt lat="45.10048" lon="5.54258">
        <ele>1239.9</ele>
        <time>2022-08-12T13:00:53.000Z</time>
      </trkpt>
      <trkpt lat="45.10046" lon="5.54257">
        <ele>1240.1</ele>
        <time>2022-08-12T13:00:54.000Z</time>
      </trkpt>
      <trkpt lat="45.10039" lon="5.54253">
        <ele>1240.9</ele>
        <time>2022-08-12T13:00:57.000Z</time>
      </trkpt>
      <trkpt lat="45.10025" lon="5.54245">
        <ele>1242.3</ele>
        <time>2022-08-12T13:01:03.000Z</time>
      </trkpt>
      <trkpt lat="45.10018" lon="5.5424">
        <ele>1242.7</ele>
        <time>2022-08-12T13:01:06.000Z</time>
      </trkpt>
      <trkpt lat="45.10009" lon="5.54239">
        <ele>1243.1</ele>
        <time>2022-08-12T13:01:10.000Z</time>
      </trkpt>
      <trkpt lat="45.10007" lon="5.54238">
        <ele>1243.2</ele>
        <time>2022-08-12T13:01:11.000Z</time>
      </trkpt>
      <trkpt lat="45.10005" lon="5.54237">
        <ele>1243.3</ele>
        <time>2022-08-12T13:01:12.000Z</time>
      </trkpt>
      <trkpt lat="45.10004" lon="5.54236">
        <ele>1243.4</ele>
        <time>2022-08-12T13:01:13.000Z</time>
      </trkpt>
      <trkpt lat="45.10002" lon="5.54235">
        <ele>1243.4</ele>
        <time>2022-08-12T13:01:14.000Z</time>
      </trkpt>
      <trkpt lat="45.10001" lon="5.54234">
        <ele>1243.6</ele>
        <time>2022-08-12T13:01:15.000Z</time>
      </trkpt>
      <trkpt lat="45.09999" lon="5.54233">
        <ele>1243.6</ele>
        <time>2022-08-12T13:01:16.000Z</time>
      </trkpt>
      <trkpt lat="45.09997" lon="5.54233">
        <ele>1243.7</ele>
        <time>2022-08-12T13:01:17.000Z</time>
      </trkpt>
      <trkpt lat="45.09995" lon="5.54232">
        <ele>1243.8</ele>
        <time>2022-08-12T13:01:18.000Z</time>
      </trkpt>
      <trkpt lat="45.09993" lon="5.54231">
        <ele>1243.9</ele>
        <time>2022-08-12T13:01:19.000Z</time>
      </trkpt>
      <trkpt lat="45.09991" lon="5.54231">
        <ele>1244</ele>
        <time>2022-08-12T13:01:20.000Z</time>
      </trkpt>
      <trkpt lat="45.09989" lon="5.54232">
        <ele>1244</ele>
        <time>2022-08-12T13:01:21.000Z</time>
      </trkpt>
      <trkpt lat="45.09988" lon="5.54232">
        <ele>1244.1</ele>
        <time>2022-08-12T13:01:22.000Z</time>
      </trkpt>
      <trkpt lat="45.09986" lon="5.54232">
        <ele>1244.2</ele>
        <time>2022-08-12T13:01:23.000Z</time>
      </trkpt>
      <trkpt lat="45.09984" lon="5.54232">
        <ele>1244.2</ele>
        <time>2022-08-12T13:01:24.000Z</time>
      </trkpt>
      <trkpt lat="45.09983" lon="5.54231">
        <ele>1244.3</ele>
        <time>2022-08-12T13:01:25.000Z</time>
      </trkpt>
      <trkpt lat="45.09982" lon="5.5423">
        <ele>1244.4</ele>
        <time>2022-08-12T13:01:26.000Z</time>
      </trkpt>
      <trkpt lat="45.0998" lon="5.54229">
        <ele>1244.5</ele>
        <time>2022-08-12T13:01:27.000Z</time>
      </trkpt>
      <trkpt lat="45.09978" lon="5.54229">
        <ele>1244.6</ele>
        <time>2022-08-12T13:01:28.000Z</time>
      </trkpt>
      <trkpt lat="45.09976" lon="5.54229">
        <ele>1244.6</ele>
        <time>2022-08-12T13:01:29.000Z</time>
      </trkpt>
      <trkpt lat="45.09974" lon="5.5423">
        <ele>1244.6</ele>
        <time>2022-08-12T13:01:30.000Z</time>
      </trkpt>
      <trkpt lat="45.09973" lon="5.54231">
        <ele>1244.7</ele>
        <time>2022-08-12T13:01:31.000Z</time>
      </trkpt>
      <trkpt lat="45.09971" lon="5.5423">
        <ele>1244.8</ele>
        <time>2022-08-12T13:01:32.000Z</time>
      </trkpt>
      <trkpt lat="45.09969" lon="5.5423">
        <ele>1244.9</ele>
        <time>2022-08-12T13:01:33.000Z</time>
      </trkpt>
      <trkpt lat="45.09967" lon="5.5423">
        <ele>1244.9</ele>
        <time>2022-08-12T13:01:34.000Z</time>
      </trkpt>
      <trkpt lat="45.09966" lon="5.5423">
        <ele>1245</ele>
        <time>2022-08-12T13:01:35.000Z</time>
      </trkpt>
      <trkpt lat="45.09964" lon="5.5423">
        <ele>1245</ele>
        <time>2022-08-12T13:01:36.000Z</time>
      </trkpt>
      <trkpt lat="45.09962" lon="5.5423">
        <ele>1245.1</ele>
        <time>2022-08-12T13:01:37.000Z</time>
      </trkpt>
      <trkpt lat="45.0996" lon="5.5423">
        <ele>1245.2</ele>
        <time>2022-08-12T13:01:38.000Z</time>
      </trkpt>
      <trkpt lat="45.09959" lon="5.54229">
        <ele>1245.2</ele>
        <time>2022-08-12T13:01:39.000Z</time>
      </trkpt>
      <trkpt lat="45.09957" lon="5.54229">
        <ele>1245.3</ele>
        <time>2022-08-12T13:01:40.000Z</time>
      </trkpt>
      <trkpt lat="45.09956" lon="5.54228">
        <ele>1245.4</ele>
        <time>2022-08-12T13:01:41.000Z</time>
      </trkpt>
      <trkpt lat="45.09954" lon="5.54228">
        <ele>1245.5</ele>
        <time>2022-08-12T13:01:42.000Z</time>
      </trkpt>
      <trkpt lat="45.09952" lon="5.54227">
        <ele>1245.5</ele>
        <time>2022-08-12T13:01:43.000Z</time>
      </trkpt>
      <trkpt lat="45.0995" lon="5.54227">
        <ele>1245.6</ele>
        <time>2022-08-12T13:01:44.000Z</time>
      </trkpt>
      <trkpt lat="45.09949" lon="5.54226">
        <ele>1245.7</ele>
        <time>2022-08-12T13:01:45.000Z</time>
      </trkpt>
      <trkpt lat="45.09948" lon="5.54226">
        <ele>1245.7</ele>
        <time>2022-08-12T13:01:46.000Z</time>
      </trkpt>
      <trkpt lat="45.09946" lon="5.54225">
        <ele>1245.8</ele>
        <time>2022-08-12T13:01:47.000Z</time>
      </trkpt>
      <trkpt lat="45.09945" lon="5.54225">
        <ele>1245.9</ele>
        <time>2022-08-12T13:01:48.000Z</time>
      </trkpt>
      <trkpt lat="45.09943" lon="5.54225">
        <ele>1246</ele>
        <time>2022-08-12T13:01:49.000Z</time>
      </trkpt>
      <trkpt lat="45.09942" lon="5.54224">
        <ele>1246</ele>
        <time>2022-08-12T13:01:50.000Z</time>
      </trkpt>
      <trkpt lat="45.0994" lon="5.54224">
        <ele>1246.1</ele>
        <time>2022-08-12T13:01:51.000Z</time>
      </trkpt>
      <trkpt lat="45.09938" lon="5.54224">
        <ele>1246.2</ele>
        <time>2022-08-12T13:01:52.000Z</time>
      </trkpt>
      <trkpt lat="45.09936" lon="5.54223">
        <ele>1246.3</ele>
        <time>2022-08-12T13:01:54.000Z</time>
      </trkpt>
      <trkpt lat="45.09934" lon="5.54223">
        <ele>1246.4</ele>
        <time>2022-08-12T13:01:55.000Z</time>
      </trkpt>
      <trkpt lat="45.09929" lon="5.54223">
        <ele>1246.5</ele>
        <time>2022-08-12T13:01:58.000Z</time>
      </trkpt>
      <trkpt lat="45.09927" lon="5.54222">
        <ele>1246.6</ele>
        <time>2022-08-12T13:01:59.000Z</time>
      </trkpt>
      <trkpt lat="45.09924" lon="5.54222">
        <ele>1246.8</ele>
        <time>2022-08-12T13:02:02.000Z</time>
      </trkpt>
      <trkpt lat="45.09922" lon="5.54222">
        <ele>1246.8</ele>
        <time>2022-08-12T13:02:03.000Z</time>
      </trkpt>
      <trkpt lat="45.09919" lon="5.54221">
        <ele>1247</ele>
        <time>2022-08-12T13:02:06.000Z</time>
      </trkpt>
      <trkpt lat="45.09918" lon="5.5422">
        <ele>1247</ele>
        <time>2022-08-12T13:02:07.000Z</time>
      </trkpt>
      <trkpt lat="45.09916" lon="5.5422">
        <ele>1247.1</ele>
        <time>2022-08-12T13:02:08.000Z</time>
      </trkpt>
      <trkpt lat="45.09911" lon="5.54218">
        <ele>1247.5</ele>
        <time>2022-08-12T13:02:12.000Z</time>
      </trkpt>
      <trkpt lat="45.0991" lon="5.54217">
        <ele>1247.6</ele>
        <time>2022-08-12T13:02:13.000Z</time>
      </trkpt>
      <trkpt lat="45.09909" lon="5.54216">
        <ele>1247.8</ele>
        <time>2022-08-12T13:02:14.000Z</time>
      </trkpt>
      <trkpt lat="45.09908" lon="5.54215">
        <ele>1247.9</ele>
        <time>2022-08-12T13:02:15.000Z</time>
      </trkpt>
      <trkpt lat="45.09906" lon="5.54215">
        <ele>1248</ele>
        <time>2022-08-12T13:02:16.000Z</time>
      </trkpt>
      <trkpt lat="45.09905" lon="5.54215">
        <ele>1248.1</ele>
        <time>2022-08-12T13:02:17.000Z</time>
      </trkpt>
      <trkpt lat="45.09904" lon="5.54215">
        <ele>1248.2</ele>
        <time>2022-08-12T13:02:18.000Z</time>
      </trkpt>
      <trkpt lat="45.09903" lon="5.54215">
        <ele>1248.3</ele>
        <time>2022-08-12T13:02:19.000Z</time>
      </trkpt>
      <trkpt lat="45.09901" lon="5.54215">
        <ele>1248.4</ele>
        <time>2022-08-12T13:02:20.000Z</time>
      </trkpt>
      <trkpt lat="45.09899" lon="5.54213">
        <ele>1248.6</ele>
        <time>2022-08-12T13:02:21.000Z</time>
      </trkpt>
      <trkpt lat="45.09898" lon="5.54212">
        <ele>1248.7</ele>
        <time>2022-08-12T13:02:22.000Z</time>
      </trkpt>
      <trkpt lat="45.09897" lon="5.54211">
        <ele>1248.8</ele>
        <time>2022-08-12T13:02:23.000Z</time>
      </trkpt>
      <trkpt lat="45.09895" lon="5.5421">
        <ele>1249</ele>
        <time>2022-08-12T13:02:24.000Z</time>
      </trkpt>
      <trkpt lat="45.09894" lon="5.5421">
        <ele>1249.1</ele>
        <time>2022-08-12T13:02:25.000Z</time>
      </trkpt>
      <trkpt lat="45.09892" lon="5.5421">
        <ele>1249.2</ele>
        <time>2022-08-12T13:02:26.000Z</time>
      </trkpt>
      <trkpt lat="45.09891" lon="5.5421">
        <ele>1249.3</ele>
        <time>2022-08-12T13:02:27.000Z</time>
      </trkpt>
      <trkpt lat="45.0989" lon="5.5421">
        <ele>1249.4</ele>
        <time>2022-08-12T13:02:28.000Z</time>
      </trkpt>
      <trkpt lat="45.09888" lon="5.5421">
        <ele>1249.5</ele>
        <time>2022-08-12T13:02:29.000Z</time>
      </trkpt>
      <trkpt lat="45.09887" lon="5.5421">
        <ele>1249.6</ele>
        <time>2022-08-12T13:02:30.000Z</time>
      </trkpt>
      <trkpt lat="45.09886" lon="5.5421">
        <ele>1249.7</ele>
        <time>2022-08-12T13:02:31.000Z</time>
      </trkpt>
      <trkpt lat="45.09885" lon="5.54209">
        <ele>1249.8</ele>
        <time>2022-08-12T13:02:32.000Z</time>
      </trkpt>
      <trkpt lat="45.09884" lon="5.54209">
        <ele>1249.9</ele>
        <time>2022-08-12T13:02:33.000Z</time>
      </trkpt>
      <trkpt lat="45.09882" lon="5.54209">
        <ele>1249.9</ele>
        <time>2022-08-12T13:02:34.000Z</time>
      </trkpt>
      <trkpt lat="45.09881" lon="5.54209">
        <ele>1250</ele>
        <time>2022-08-12T13:02:35.000Z</time>
      </trkpt>
      <trkpt lat="45.0988" lon="5.54208">
        <ele>1250.1</ele>
        <time>2022-08-12T13:02:36.000Z</time>
      </trkpt>
      <trkpt lat="45.09879" lon="5.54208">
        <ele>1250.2</ele>
        <time>2022-08-12T13:02:37.000Z</time>
      </trkpt>
      <trkpt lat="45.09877" lon="5.54208">
        <ele>1250.4</ele>
        <time>2022-08-12T13:02:39.000Z</time>
      </trkpt>
      <trkpt lat="45.09876" lon="5.54207">
        <ele>1250.5</ele>
        <time>2022-08-12T13:02:40.000Z</time>
      </trkpt>
      <trkpt lat="45.09874" lon="5.54207">
        <ele>1250.6</ele>
        <time>2022-08-12T13:02:41.000Z</time>
      </trkpt>
      <trkpt lat="45.09873" lon="5.54206">
        <ele>1250.7</ele>
        <time>2022-08-12T13:02:42.000Z</time>
      </trkpt>
      <trkpt lat="45.09872" lon="5.54206">
        <ele>1250.8</ele>
        <time>2022-08-12T13:02:43.000Z</time>
      </trkpt>
      <trkpt lat="45.09871" lon="5.54204">
        <ele>1251</ele>
        <time>2022-08-12T13:02:44.000Z</time>
      </trkpt>
      <trkpt lat="45.0987" lon="5.54204">
        <ele>1251</ele>
        <time>2022-08-12T13:02:45.000Z</time>
      </trkpt>
      <trkpt lat="45.09869" lon="5.54203">
        <ele>1251.1</ele>
        <time>2022-08-12T13:02:46.000Z</time>
      </trkpt>
      <trkpt lat="45.09867" lon="5.54203">
        <ele>1251.3</ele>
        <time>2022-08-12T13:02:47.000Z</time>
      </trkpt>
      <trkpt lat="45.09866" lon="5.54202">
        <ele>1251.4</ele>
        <time>2022-08-12T13:02:48.000Z</time>
      </trkpt>
      <trkpt lat="45.09865" lon="5.54202">
        <ele>1251.5</ele>
        <time>2022-08-12T13:02:49.000Z</time>
      </trkpt>
      <trkpt lat="45.09864" lon="5.54201">
        <ele>1251.6</ele>
        <time>2022-08-12T13:02:50.000Z</time>
      </trkpt>
      <trkpt lat="45.09862" lon="5.54201">
        <ele>1251.7</ele>
        <time>2022-08-12T13:02:51.000Z</time>
      </trkpt>
      <trkpt lat="45.09861" lon="5.54201">
        <ele>1251.7</ele>
        <time>2022-08-12T13:02:52.000Z</time>
      </trkpt>
      <trkpt lat="45.0986" lon="5.542">
        <ele>1251.9</ele>
        <time>2022-08-12T13:02:53.000Z</time>
      </trkpt>
      <trkpt lat="45.09859" lon="5.542">
        <ele>1252</ele>
        <time>2022-08-12T13:02:54.000Z</time>
      </trkpt>
      <trkpt lat="45.09858" lon="5.54201">
        <ele>1252.1</ele>
        <time>2022-08-12T13:02:55.000Z</time>
      </trkpt>
      <trkpt lat="45.09856" lon="5.542">
        <ele>1252.3</ele>
        <time>2022-08-12T13:02:56.000Z</time>
      </trkpt>
      <trkpt lat="45.09855" lon="5.542">
        <ele>1252.4</ele>
        <time>2022-08-12T13:02:57.000Z</time>
      </trkpt>
      <trkpt lat="45.09854" lon="5.542">
        <ele>1252.6</ele>
        <time>2022-08-12T13:02:58.000Z</time>
      </trkpt>
      <trkpt lat="45.09852" lon="5.542">
        <ele>1252.7</ele>
        <time>2022-08-12T13:02:59.000Z</time>
      </trkpt>
      <trkpt lat="45.09851" lon="5.542">
        <ele>1252.8</ele>
        <time>2022-08-12T13:03:00.000Z</time>
      </trkpt>
      <trkpt lat="45.0985" lon="5.542">
        <ele>1252.9</ele>
        <time>2022-08-12T13:03:01.000Z</time>
      </trkpt>
      <trkpt lat="45.09849" lon="5.542">
        <ele>1253.1</ele>
        <time>2022-08-12T13:03:02.000Z</time>
      </trkpt>
      <trkpt lat="45.09847" lon="5.54199">
        <ele>1253.3</ele>
        <time>2022-08-12T13:03:03.000Z</time>
      </trkpt>
      <trkpt lat="45.09845" lon="5.54199">
        <ele>1253.5</ele>
        <time>2022-08-12T13:03:04.000Z</time>
      </trkpt>
      <trkpt lat="45.09844" lon="5.54198">
        <ele>1253.6</ele>
        <time>2022-08-12T13:03:06.000Z</time>
      </trkpt>
      <trkpt lat="45.09843" lon="5.54198">
        <ele>1253.7</ele>
        <time>2022-08-12T13:03:07.000Z</time>
      </trkpt>
      <trkpt lat="45.09842" lon="5.54198">
        <ele>1253.9</ele>
        <time>2022-08-12T13:03:08.000Z</time>
      </trkpt>
      <trkpt lat="45.09841" lon="5.54197">
        <ele>1254</ele>
        <time>2022-08-12T13:03:09.000Z</time>
      </trkpt>
      <trkpt lat="45.0984" lon="5.54197">
        <ele>1254.1</ele>
        <time>2022-08-12T13:03:10.000Z</time>
      </trkpt>
      <trkpt lat="45.09839" lon="5.54196">
        <ele>1254.3</ele>
        <time>2022-08-12T13:03:11.000Z</time>
      </trkpt>
      <trkpt lat="45.09838" lon="5.54195">
        <ele>1254.4</ele>
        <time>2022-08-12T13:03:12.000Z</time>
      </trkpt>
      <trkpt lat="45.09836" lon="5.54194">
        <ele>1254.7</ele>
        <time>2022-08-12T13:03:14.000Z</time>
      </trkpt>
      <trkpt lat="45.09835" lon="5.54194">
        <ele>1254.8</ele>
        <time>2022-08-12T13:03:16.000Z</time>
      </trkpt>
      <trkpt lat="45.09834" lon="5.54194">
        <ele>1255</ele>
        <time>2022-08-12T13:03:17.000Z</time>
      </trkpt>
      <trkpt lat="45.09833" lon="5.54193">
        <ele>1255.3</ele>
        <time>2022-08-12T13:03:18.000Z</time>
      </trkpt>
      <trkpt lat="45.09832" lon="5.54193">
        <ele>1255.5</ele>
        <time>2022-08-12T13:03:19.000Z</time>
      </trkpt>
      <trkpt lat="45.09831" lon="5.54192">
        <ele>1255.7</ele>
        <time>2022-08-12T13:03:20.000Z</time>
      </trkpt>
      <trkpt lat="45.0983" lon="5.54192">
        <ele>1256.1</ele>
        <time>2022-08-12T13:03:21.000Z</time>
      </trkpt>
      <trkpt lat="45.09828" lon="5.54192">
        <ele>1256.3</ele>
        <time>2022-08-12T13:03:22.000Z</time>
      </trkpt>
      <trkpt lat="45.09827" lon="5.54191">
        <ele>1256.6</ele>
        <time>2022-08-12T13:03:23.000Z</time>
      </trkpt>
      <trkpt lat="45.09826" lon="5.54191">
        <ele>1257</ele>
        <time>2022-08-12T13:03:24.000Z</time>
      </trkpt>
      <trkpt lat="45.09825" lon="5.54191">
        <ele>1257.2</ele>
        <time>2022-08-12T13:03:25.000Z</time>
      </trkpt>
      <trkpt lat="45.09824" lon="5.5419">
        <ele>1257.5</ele>
        <time>2022-08-12T13:03:26.000Z</time>
      </trkpt>
      <trkpt lat="45.09823" lon="5.5419">
        <ele>1257.8</ele>
        <time>2022-08-12T13:03:27.000Z</time>
      </trkpt>
      <trkpt lat="45.09822" lon="5.5419">
        <ele>1258</ele>
        <time>2022-08-12T13:03:28.000Z</time>
      </trkpt>
      <trkpt lat="45.09821" lon="5.5419">
        <ele>1258.2</ele>
        <time>2022-08-12T13:03:29.000Z</time>
      </trkpt>
      <trkpt lat="45.0982" lon="5.5419">
        <ele>1258.5</ele>
        <time>2022-08-12T13:03:30.000Z</time>
      </trkpt>
      <trkpt lat="45.09818" lon="5.54189">
        <ele>1258.9</ele>
        <time>2022-08-12T13:03:31.000Z</time>
      </trkpt>
      <trkpt lat="45.09817" lon="5.54188">
        <ele>1259.2</ele>
        <time>2022-08-12T13:03:32.000Z</time>
      </trkpt>
      <trkpt lat="45.09815" lon="5.54187">
        <ele>1259.7</ele>
        <time>2022-08-12T13:03:33.000Z</time>
      </trkpt>
      <trkpt lat="45.09813" lon="5.54186">
        <ele>1260.1</ele>
        <time>2022-08-12T13:03:34.000Z</time>
      </trkpt>
      <trkpt lat="45.09812" lon="5.54187">
        <ele>1260.4</ele>
        <time>2022-08-12T13:03:35.000Z</time>
      </trkpt>
      <trkpt lat="45.09811" lon="5.54187">
        <ele>1260.6</ele>
        <time>2022-08-12T13:03:36.000Z</time>
      </trkpt>
      <trkpt lat="45.0981" lon="5.54188">
        <ele>1260.8</ele>
        <time>2022-08-12T13:03:37.000Z</time>
      </trkpt>
      <trkpt lat="45.09809" lon="5.54188">
        <ele>1261</ele>
        <time>2022-08-12T13:03:38.000Z</time>
      </trkpt>
      <trkpt lat="45.09807" lon="5.54189">
        <ele>1261.3</ele>
        <time>2022-08-12T13:03:39.000Z</time>
      </trkpt>
      <trkpt lat="45.09806" lon="5.54189">
        <ele>1261.6</ele>
        <time>2022-08-12T13:03:40.000Z</time>
      </trkpt>
      <trkpt lat="45.09805" lon="5.5419">
        <ele>1261.8</ele>
        <time>2022-08-12T13:03:41.000Z</time>
      </trkpt>
      <trkpt lat="45.09804" lon="5.5419">
        <ele>1261.9</ele>
        <time>2022-08-12T13:03:42.000Z</time>
      </trkpt>
      <trkpt lat="45.09803" lon="5.54191">
        <ele>1262.1</ele>
        <time>2022-08-12T13:03:43.000Z</time>
      </trkpt>
      <trkpt lat="45.09802" lon="5.5419">
        <ele>1262.5</ele>
        <time>2022-08-12T13:03:44.000Z</time>
      </trkpt>
      <trkpt lat="45.09801" lon="5.54191">
        <ele>1262.8</ele>
        <time>2022-08-12T13:03:45.000Z</time>
      </trkpt>
      <trkpt lat="45.098" lon="5.54191">
        <ele>1262.9</ele>
        <time>2022-08-12T13:03:46.000Z</time>
      </trkpt>
      <trkpt lat="45.09799" lon="5.54191">
        <ele>1263.3</ele>
        <time>2022-08-12T13:03:47.000Z</time>
      </trkpt>
      <trkpt lat="45.09798" lon="5.5419">
        <ele>1263.7</ele>
        <time>2022-08-12T13:03:48.000Z</time>
      </trkpt>
      <trkpt lat="45.09797" lon="5.5419">
        <ele>1264</ele>
        <time>2022-08-12T13:03:49.000Z</time>
      </trkpt>
      <trkpt lat="45.09795" lon="5.54189">
        <ele>1264.5</ele>
        <time>2022-08-12T13:03:50.000Z</time>
      </trkpt>
      <trkpt lat="45.09795" lon="5.54188">
        <ele>1264.8</ele>
        <time>2022-08-12T13:03:51.000Z</time>
      </trkpt>
      <trkpt lat="45.09794" lon="5.54187">
        <ele>1265.1</ele>
        <time>2022-08-12T13:03:52.000Z</time>
      </trkpt>
      <trkpt lat="45.09793" lon="5.54189">
        <ele>1265.2</ele>
        <time>2022-08-12T13:03:53.000Z</time>
      </trkpt>
      <trkpt lat="45.09792" lon="5.5419">
        <ele>1265.5</ele>
        <time>2022-08-12T13:03:54.000Z</time>
      </trkpt>
      <trkpt lat="45.09791" lon="5.5419">
        <ele>1265.7</ele>
        <time>2022-08-12T13:03:55.000Z</time>
      </trkpt>
      <trkpt lat="45.0979" lon="5.5419">
        <ele>1266</ele>
        <time>2022-08-12T13:03:56.000Z</time>
      </trkpt>
      <trkpt lat="45.09789" lon="5.5419">
        <ele>1266.2</ele>
        <time>2022-08-12T13:03:57.000Z</time>
      </trkpt>
      <trkpt lat="45.09789" lon="5.54191">
        <ele>1266.2</ele>
        <time>2022-08-12T13:03:58.000Z</time>
      </trkpt>
      <trkpt lat="45.09788" lon="5.54192">
        <ele>1266.3</ele>
        <time>2022-08-12T13:03:59.000Z</time>
      </trkpt>
      <trkpt lat="45.09788" lon="5.54193">
        <ele>1266.4</ele>
        <time>2022-08-12T13:04:00.000Z</time>
      </trkpt>
      <trkpt lat="45.09787" lon="5.54193">
        <ele>1266.6</ele>
        <time>2022-08-12T13:04:01.000Z</time>
      </trkpt>
      <trkpt lat="45.09785" lon="5.54194">
        <ele>1267</ele>
        <time>2022-08-12T13:04:02.000Z</time>
      </trkpt>
      <trkpt lat="45.09784" lon="5.54194">
        <ele>1267.2</ele>
        <time>2022-08-12T13:04:03.000Z</time>
      </trkpt>
      <trkpt lat="45.09783" lon="5.54195">
        <ele>1267.5</ele>
        <time>2022-08-12T13:04:04.000Z</time>
      </trkpt>
      <trkpt lat="45.09782" lon="5.54195">
        <ele>1267.9</ele>
        <time>2022-08-12T13:04:05.000Z</time>
      </trkpt>
      <trkpt lat="45.0978" lon="5.54195">
        <ele>1268.3</ele>
        <time>2022-08-12T13:04:06.000Z</time>
      </trkpt>
      <trkpt lat="45.09779" lon="5.54195">
        <ele>1268.6</ele>
        <time>2022-08-12T13:04:07.000Z</time>
      </trkpt>
      <trkpt lat="45.09778" lon="5.54196">
        <ele>1268.8</ele>
        <time>2022-08-12T13:04:08.000Z</time>
      </trkpt>
      <trkpt lat="45.09776" lon="5.54197">
        <ele>1269.2</ele>
        <time>2022-08-12T13:04:09.000Z</time>
      </trkpt>
      <trkpt lat="45.09775" lon="5.54197">
        <ele>1269.4</ele>
        <time>2022-08-12T13:04:10.000Z</time>
      </trkpt>
      <trkpt lat="45.09774" lon="5.54196">
        <ele>1269.8</ele>
        <time>2022-08-12T13:04:11.000Z</time>
      </trkpt>
      <trkpt lat="45.09773" lon="5.54196">
        <ele>1270</ele>
        <time>2022-08-12T13:04:12.000Z</time>
      </trkpt>
      <trkpt lat="45.09772" lon="5.54197">
        <ele>1270.2</ele>
        <time>2022-08-12T13:04:13.000Z</time>
      </trkpt>
      <trkpt lat="45.09771" lon="5.54197">
        <ele>1270.5</ele>
        <time>2022-08-12T13:04:14.000Z</time>
      </trkpt>
      <trkpt lat="45.0977" lon="5.54197">
        <ele>1270.9</ele>
        <time>2022-08-12T13:04:15.000Z</time>
      </trkpt>
      <trkpt lat="45.09769" lon="5.54197">
        <ele>1271.3</ele>
        <time>2022-08-12T13:04:16.000Z</time>
      </trkpt>
      <trkpt lat="45.09768" lon="5.54199">
        <ele>1271.3</ele>
        <time>2022-08-12T13:04:17.000Z</time>
      </trkpt>
      <trkpt lat="45.09766" lon="5.54199">
        <ele>1271.9</ele>
        <time>2022-08-12T13:04:18.000Z</time>
      </trkpt>
      <trkpt lat="45.09765" lon="5.54199">
        <ele>1272.2</ele>
        <time>2022-08-12T13:04:19.000Z</time>
      </trkpt>
      <trkpt lat="45.09763" lon="5.54199">
        <ele>1272.5</ele>
        <time>2022-08-12T13:04:20.000Z</time>
      </trkpt>
      <trkpt lat="45.09763" lon="5.542">
        <ele>1272.5</ele>
        <time>2022-08-12T13:04:21.000Z</time>
      </trkpt>
      <trkpt lat="45.09762" lon="5.54201">
        <ele>1272.7</ele>
        <time>2022-08-12T13:04:22.000Z</time>
      </trkpt>
      <trkpt lat="45.0976" lon="5.54202">
        <ele>1273.1</ele>
        <time>2022-08-12T13:04:23.000Z</time>
      </trkpt>
      <trkpt lat="45.09758" lon="5.54202">
        <ele>1273.5</ele>
        <time>2022-08-12T13:04:24.000Z</time>
      </trkpt>
      <trkpt lat="45.09757" lon="5.54203">
        <ele>1273.7</ele>
        <time>2022-08-12T13:04:25.000Z</time>
      </trkpt>
      <trkpt lat="45.09756" lon="5.54203">
        <ele>1273.8</ele>
        <time>2022-08-12T13:04:26.000Z</time>
      </trkpt>
      <trkpt lat="45.09755" lon="5.54204">
        <ele>1274.1</ele>
        <time>2022-08-12T13:04:27.000Z</time>
      </trkpt>
      <trkpt lat="45.09755" lon="5.54205">
        <ele>1274.2</ele>
        <time>2022-08-12T13:04:28.000Z</time>
      </trkpt>
      <trkpt lat="45.09754" lon="5.54206">
        <ele>1274.3</ele>
        <time>2022-08-12T13:04:29.000Z</time>
      </trkpt>
      <trkpt lat="45.09752" lon="5.54208">
        <ele>1274.4</ele>
        <time>2022-08-12T13:04:30.000Z</time>
      </trkpt>
      <trkpt lat="45.09751" lon="5.54208">
        <ele>1274.6</ele>
        <time>2022-08-12T13:04:31.000Z</time>
      </trkpt>
      <trkpt lat="45.0975" lon="5.54208">
        <ele>1275.2</ele>
        <time>2022-08-12T13:04:32.000Z</time>
      </trkpt>
      <trkpt lat="45.09749" lon="5.54208">
        <ele>1275.3</ele>
        <time>2022-08-12T13:04:33.000Z</time>
      </trkpt>
      <trkpt lat="45.09748" lon="5.54208">
        <ele>1275.4</ele>
        <time>2022-08-12T13:04:34.000Z</time>
      </trkpt>
      <trkpt lat="45.09747" lon="5.54209">
        <ele>1275.6</ele>
        <time>2022-08-12T13:04:35.000Z</time>
      </trkpt>
      <trkpt lat="45.09746" lon="5.54209">
        <ele>1275.9</ele>
        <time>2022-08-12T13:04:36.000Z</time>
      </trkpt>
      <trkpt lat="45.09745" lon="5.54209">
        <ele>1276.2</ele>
        <time>2022-08-12T13:04:37.000Z</time>
      </trkpt>
      <trkpt lat="45.09743" lon="5.54209">
        <ele>1276.5</ele>
        <time>2022-08-12T13:04:38.000Z</time>
      </trkpt>
      <trkpt lat="45.09742" lon="5.54209">
        <ele>1276.7</ele>
        <time>2022-08-12T13:04:39.000Z</time>
      </trkpt>
      <trkpt lat="45.09741" lon="5.5421">
        <ele>1276.9</ele>
        <time>2022-08-12T13:04:40.000Z</time>
      </trkpt>
      <trkpt lat="45.0974" lon="5.5421">
        <ele>1277.2</ele>
        <time>2022-08-12T13:04:41.000Z</time>
      </trkpt>
      <trkpt lat="45.09738" lon="5.54209">
        <ele>1277.6</ele>
        <time>2022-08-12T13:04:42.000Z</time>
      </trkpt>
      <trkpt lat="45.09737" lon="5.54209">
        <ele>1278.1</ele>
        <time>2022-08-12T13:04:43.000Z</time>
      </trkpt>
      <trkpt lat="45.09735" lon="5.54208">
        <ele>1278.5</ele>
        <time>2022-08-12T13:04:44.000Z</time>
      </trkpt>
      <trkpt lat="45.09734" lon="5.54208">
        <ele>1278.8</ele>
        <time>2022-08-12T13:04:45.000Z</time>
      </trkpt>
      <trkpt lat="45.09733" lon="5.54209">
        <ele>1279</ele>
        <time>2022-08-12T13:04:46.000Z</time>
      </trkpt>
      <trkpt lat="45.09732" lon="5.5421">
        <ele>1279.1</ele>
        <time>2022-08-12T13:04:47.000Z</time>
      </trkpt>
      <trkpt lat="45.09731" lon="5.54211">
        <ele>1279.1</ele>
        <time>2022-08-12T13:04:48.000Z</time>
      </trkpt>
      <trkpt lat="45.0973" lon="5.5421">
        <ele>1279.3</ele>
        <time>2022-08-12T13:04:49.000Z</time>
      </trkpt>
      <trkpt lat="45.09729" lon="5.5421">
        <ele>1279.6</ele>
        <time>2022-08-12T13:04:50.000Z</time>
      </trkpt>
      <trkpt lat="45.09728" lon="5.5421">
        <ele>1280</ele>
        <time>2022-08-12T13:04:52.000Z</time>
      </trkpt>
      <trkpt lat="45.09727" lon="5.5421">
        <ele>1280.3</ele>
        <time>2022-08-12T13:04:53.000Z</time>
      </trkpt>
      <trkpt lat="45.09726" lon="5.54211">
        <ele>1280.4</ele>
        <time>2022-08-12T13:04:54.000Z</time>
      </trkpt>
      <trkpt lat="45.09724" lon="5.54211">
        <ele>1280.8</ele>
        <time>2022-08-12T13:04:55.000Z</time>
      </trkpt>
      <trkpt lat="45.09723" lon="5.54211">
        <ele>1281</ele>
        <time>2022-08-12T13:04:56.000Z</time>
      </trkpt>
      <trkpt lat="45.09722" lon="5.54211">
        <ele>1281.2</ele>
        <time>2022-08-12T13:04:57.000Z</time>
      </trkpt>
      <trkpt lat="45.09721" lon="5.5421">
        <ele>1281.4</ele>
        <time>2022-08-12T13:04:58.000Z</time>
      </trkpt>
      <trkpt lat="45.0972" lon="5.5421">
        <ele>1281.6</ele>
        <time>2022-08-12T13:04:59.000Z</time>
      </trkpt>
      <trkpt lat="45.09719" lon="5.54211">
        <ele>1281.6</ele>
        <time>2022-08-12T13:05:00.000Z</time>
      </trkpt>
      <trkpt lat="45.09718" lon="5.54211">
        <ele>1281.7</ele>
        <time>2022-08-12T13:05:01.000Z</time>
      </trkpt>
      <trkpt lat="45.09717" lon="5.54211">
        <ele>1281.8</ele>
        <time>2022-08-12T13:05:02.000Z</time>
      </trkpt>
      <trkpt lat="45.09716" lon="5.54211">
        <ele>1281.8</ele>
        <time>2022-08-12T13:05:03.000Z</time>
      </trkpt>
      <trkpt lat="45.09715" lon="5.54212">
        <ele>1281.9</ele>
        <time>2022-08-12T13:05:04.000Z</time>
      </trkpt>
      <trkpt lat="45.09714" lon="5.54211">
        <ele>1282.1</ele>
        <time>2022-08-12T13:05:05.000Z</time>
      </trkpt>
      <trkpt lat="45.09712" lon="5.54211">
        <ele>1282.3</ele>
        <time>2022-08-12T13:05:06.000Z</time>
      </trkpt>
      <trkpt lat="45.09711" lon="5.54211">
        <ele>1282.4</ele>
        <time>2022-08-12T13:05:07.000Z</time>
      </trkpt>
      <trkpt lat="45.0971" lon="5.5421">
        <ele>1282.6</ele>
        <time>2022-08-12T13:05:08.000Z</time>
      </trkpt>
      <trkpt lat="45.09709" lon="5.5421">
        <ele>1282.8</ele>
        <time>2022-08-12T13:05:09.000Z</time>
      </trkpt>
      <trkpt lat="45.09707" lon="5.54209">
        <ele>1283</ele>
        <time>2022-08-12T13:05:10.000Z</time>
      </trkpt>
      <trkpt lat="45.09707" lon="5.54208">
        <ele>1283.2</ele>
        <time>2022-08-12T13:05:11.000Z</time>
      </trkpt>
      <trkpt lat="45.09706" lon="5.54208">
        <ele>1283.4</ele>
        <time>2022-08-12T13:05:12.000Z</time>
      </trkpt>
      <trkpt lat="45.09705" lon="5.54208">
        <ele>1283.5</ele>
        <time>2022-08-12T13:05:13.000Z</time>
      </trkpt>
      <trkpt lat="45.09704" lon="5.54208">
        <ele>1283.6</ele>
        <time>2022-08-12T13:05:14.000Z</time>
      </trkpt>
      <trkpt lat="45.09703" lon="5.54206">
        <ele>1283.8</ele>
        <time>2022-08-12T13:05:15.000Z</time>
      </trkpt>
      <trkpt lat="45.09702" lon="5.54206">
        <ele>1284</ele>
        <time>2022-08-12T13:05:16.000Z</time>
      </trkpt>
      <trkpt lat="45.09701" lon="5.54205">
        <ele>1284.1</ele>
        <time>2022-08-12T13:05:17.000Z</time>
      </trkpt>
      <trkpt lat="45.097" lon="5.54204">
        <ele>1284.3</ele>
        <time>2022-08-12T13:05:19.000Z</time>
      </trkpt>
      <trkpt lat="45.09699" lon="5.54205">
        <ele>1284.4</ele>
        <time>2022-08-12T13:05:20.000Z</time>
      </trkpt>
      <trkpt lat="45.09698" lon="5.54205">
        <ele>1284.4</ele>
        <time>2022-08-12T13:05:21.000Z</time>
      </trkpt>
      <trkpt lat="45.09697" lon="5.54206">
        <ele>1284.4</ele>
        <time>2022-08-12T13:05:22.000Z</time>
      </trkpt>
      <trkpt lat="45.09696" lon="5.54206">
        <ele>1284.6</ele>
        <time>2022-08-12T13:05:23.000Z</time>
      </trkpt>
      <trkpt lat="45.09695" lon="5.54206">
        <ele>1284.7</ele>
        <time>2022-08-12T13:05:24.000Z</time>
      </trkpt>
      <trkpt lat="45.09694" lon="5.54205">
        <ele>1284.9</ele>
        <time>2022-08-12T13:05:25.000Z</time>
      </trkpt>
      <trkpt lat="45.09693" lon="5.54204">
        <ele>1285</ele>
        <time>2022-08-12T13:05:26.000Z</time>
      </trkpt>
      <trkpt lat="45.09692" lon="5.54203">
        <ele>1285.3</ele>
        <time>2022-08-12T13:05:27.000Z</time>
      </trkpt>
      <trkpt lat="45.0969" lon="5.54202">
        <ele>1285.5</ele>
        <time>2022-08-12T13:05:28.000Z</time>
      </trkpt>
      <trkpt lat="45.09689" lon="5.542">
        <ele>1285.7</ele>
        <time>2022-08-12T13:05:29.000Z</time>
      </trkpt>
      <trkpt lat="45.09688" lon="5.542">
        <ele>1285.8</ele>
        <time>2022-08-12T13:05:30.000Z</time>
      </trkpt>
      <trkpt lat="45.09687" lon="5.542">
        <ele>1285.9</ele>
        <time>2022-08-12T13:05:33.000Z</time>
      </trkpt>
      <trkpt lat="45.09686" lon="5.542">
        <ele>1286</ele>
        <time>2022-08-12T13:05:34.000Z</time>
      </trkpt>
      <trkpt lat="45.09684" lon="5.54201">
        <ele>1286.1</ele>
        <time>2022-08-12T13:05:35.000Z</time>
      </trkpt>
      <trkpt lat="45.09683" lon="5.54201">
        <ele>1286.1</ele>
        <time>2022-08-12T13:05:36.000Z</time>
      </trkpt>
      <trkpt lat="45.09682" lon="5.54202">
        <ele>1286</ele>
        <time>2022-08-12T13:05:37.000Z</time>
      </trkpt>
      <trkpt lat="45.09682" lon="5.54203">
        <ele>1286</ele>
        <time>2022-08-12T13:05:38.000Z</time>
      </trkpt>
      <trkpt lat="45.09681" lon="5.54204">
        <ele>1286</ele>
        <time>2022-08-12T13:05:39.000Z</time>
      </trkpt>
      <trkpt lat="45.0968" lon="5.54203">
        <ele>1286.1</ele>
        <time>2022-08-12T13:05:40.000Z</time>
      </trkpt>
      <trkpt lat="45.09679" lon="5.54203">
        <ele>1286.2</ele>
        <time>2022-08-12T13:05:41.000Z</time>
      </trkpt>
      <trkpt lat="45.09677" lon="5.54203">
        <ele>1286.4</ele>
        <time>2022-08-12T13:05:42.000Z</time>
      </trkpt>
      <trkpt lat="45.09676" lon="5.54203">
        <ele>1286.4</ele>
        <time>2022-08-12T13:05:43.000Z</time>
      </trkpt>
      <trkpt lat="45.09674" lon="5.54204">
        <ele>1286.5</ele>
        <time>2022-08-12T13:05:44.000Z</time>
      </trkpt>
      <trkpt lat="45.09673" lon="5.54204">
        <ele>1286.5</ele>
        <time>2022-08-12T13:05:45.000Z</time>
      </trkpt>
      <trkpt lat="45.09671" lon="5.54204">
        <ele>1286.6</ele>
        <time>2022-08-12T13:05:46.000Z</time>
      </trkpt>
      <trkpt lat="45.0967" lon="5.54204">
        <ele>1286.7</ele>
        <time>2022-08-12T13:05:47.000Z</time>
      </trkpt>
      <trkpt lat="45.09669" lon="5.54203">
        <ele>1286.8</ele>
        <time>2022-08-12T13:05:48.000Z</time>
      </trkpt>
      <trkpt lat="45.09668" lon="5.54203">
        <ele>1286.9</ele>
        <time>2022-08-12T13:05:49.000Z</time>
      </trkpt>
      <trkpt lat="45.09666" lon="5.54204">
        <ele>1287</ele>
        <time>2022-08-12T13:05:50.000Z</time>
      </trkpt>
      <trkpt lat="45.09665" lon="5.54204">
        <ele>1287</ele>
        <time>2022-08-12T13:05:51.000Z</time>
      </trkpt>
      <trkpt lat="45.09664" lon="5.54205">
        <ele>1287</ele>
        <time>2022-08-12T13:05:52.000Z</time>
      </trkpt>
      <trkpt lat="45.09663" lon="5.54205">
        <ele>1287</ele>
        <time>2022-08-12T13:05:53.000Z</time>
      </trkpt>
      <trkpt lat="45.09662" lon="5.54205">
        <ele>1287</ele>
        <time>2022-08-12T13:05:54.000Z</time>
      </trkpt>
      <trkpt lat="45.09661" lon="5.54206">
        <ele>1287</ele>
        <time>2022-08-12T13:05:55.000Z</time>
      </trkpt>
      <trkpt lat="45.0966" lon="5.54205">
        <ele>1287.1</ele>
        <time>2022-08-12T13:05:56.000Z</time>
      </trkpt>
      <trkpt lat="45.09659" lon="5.54204">
        <ele>1287.3</ele>
        <time>2022-08-12T13:05:57.000Z</time>
      </trkpt>
      <trkpt lat="45.09657" lon="5.54203">
        <ele>1287.4</ele>
        <time>2022-08-12T13:05:58.000Z</time>
      </trkpt>
      <trkpt lat="45.09656" lon="5.54203">
        <ele>1287.5</ele>
        <time>2022-08-12T13:06:00.000Z</time>
      </trkpt>
      <trkpt lat="45.09655" lon="5.54203">
        <ele>1287.5</ele>
        <time>2022-08-12T13:06:01.000Z</time>
      </trkpt>
      <trkpt lat="45.09654" lon="5.54203">
        <ele>1287.5</ele>
        <time>2022-08-12T13:06:02.000Z</time>
      </trkpt>
      <trkpt lat="45.09653" lon="5.54202">
        <ele>1287.6</ele>
        <time>2022-08-12T13:06:03.000Z</time>
      </trkpt>
      <trkpt lat="45.09651" lon="5.54201">
        <ele>1287.8</ele>
        <time>2022-08-12T13:06:05.000Z</time>
      </trkpt>
      <trkpt lat="45.0965" lon="5.54201">
        <ele>1287.9</ele>
        <time>2022-08-12T13:06:06.000Z</time>
      </trkpt>
      <trkpt lat="45.09649" lon="5.54201">
        <ele>1288</ele>
        <time>2022-08-12T13:06:07.000Z</time>
      </trkpt>
      <trkpt lat="45.09648" lon="5.542">
        <ele>1288</ele>
        <time>2022-08-12T13:06:08.000Z</time>
      </trkpt>
      <trkpt lat="45.09647" lon="5.542">
        <ele>1288.2</ele>
        <time>2022-08-12T13:06:09.000Z</time>
      </trkpt>
      <trkpt lat="45.09646" lon="5.54199">
        <ele>1288.3</ele>
        <time>2022-08-12T13:06:10.000Z</time>
      </trkpt>
      <trkpt lat="45.09645" lon="5.54199">
        <ele>1288.3</ele>
        <time>2022-08-12T13:06:11.000Z</time>
      </trkpt>
      <trkpt lat="45.09644" lon="5.54199">
        <ele>1288.3</ele>
        <time>2022-08-12T13:06:12.000Z</time>
      </trkpt>
      <trkpt lat="45.09642" lon="5.54199">
        <ele>1288.4</ele>
        <time>2022-08-12T13:06:13.000Z</time>
      </trkpt>
      <trkpt lat="45.09641" lon="5.54199">
        <ele>1288.5</ele>
        <time>2022-08-12T13:06:14.000Z</time>
      </trkpt>
      <trkpt lat="45.09641" lon="5.54198">
        <ele>1288.6</ele>
        <time>2022-08-12T13:06:16.000Z</time>
      </trkpt>
      <trkpt lat="45.09639" lon="5.54197">
        <ele>1288.8</ele>
        <time>2022-08-12T13:06:17.000Z</time>
      </trkpt>
      <trkpt lat="45.09638" lon="5.54196">
        <ele>1288.8</ele>
        <time>2022-08-12T13:06:18.000Z</time>
      </trkpt>
      <trkpt lat="45.09635" lon="5.54196">
        <ele>1288.9</ele>
        <time>2022-08-12T13:06:19.000Z</time>
      </trkpt>
      <trkpt lat="45.09634" lon="5.54196">
        <ele>1288.8</ele>
        <time>2022-08-12T13:06:20.000Z</time>
      </trkpt>
      <trkpt lat="45.09633" lon="5.54196">
        <ele>1288.8</ele>
        <time>2022-08-12T13:06:21.000Z</time>
      </trkpt>
      <trkpt lat="45.09631" lon="5.54197">
        <ele>1288.7</ele>
        <time>2022-08-12T13:06:22.000Z</time>
      </trkpt>
      <trkpt lat="45.09629" lon="5.54197">
        <ele>1288.7</ele>
        <time>2022-08-12T13:06:24.000Z</time>
      </trkpt>
      <trkpt lat="45.09628" lon="5.54197">
        <ele>1288.7</ele>
        <time>2022-08-12T13:06:26.000Z</time>
      </trkpt>
      <trkpt lat="45.09628" lon="5.54198">
        <ele>1288.6</ele>
        <time>2022-08-12T13:06:27.000Z</time>
      </trkpt>
      <trkpt lat="45.09626" lon="5.54198">
        <ele>1288.6</ele>
        <time>2022-08-12T13:06:28.000Z</time>
      </trkpt>
      <trkpt lat="45.09625" lon="5.54198">
        <ele>1288.6</ele>
        <time>2022-08-12T13:06:29.000Z</time>
      </trkpt>
      <trkpt lat="45.09624" lon="5.54197">
        <ele>1288.7</ele>
        <time>2022-08-12T13:06:30.000Z</time>
      </trkpt>
      <trkpt lat="45.09622" lon="5.54197">
        <ele>1288.7</ele>
        <time>2022-08-12T13:06:31.000Z</time>
      </trkpt>
      <trkpt lat="45.09621" lon="5.54197">
        <ele>1288.7</ele>
        <time>2022-08-12T13:06:32.000Z</time>
      </trkpt>
      <trkpt lat="45.0962" lon="5.54197">
        <ele>1288.7</ele>
        <time>2022-08-12T13:06:33.000Z</time>
      </trkpt>
      <trkpt lat="45.0962" lon="5.54198">
        <ele>1288.7</ele>
        <time>2022-08-12T13:06:34.000Z</time>
      </trkpt>
      <trkpt lat="45.09618" lon="5.54198">
        <ele>1288.6</ele>
        <time>2022-08-12T13:06:35.000Z</time>
      </trkpt>
      <trkpt lat="45.09616" lon="5.54198">
        <ele>1288.7</ele>
        <time>2022-08-12T13:06:38.000Z</time>
      </trkpt>
      <trkpt lat="45.09616" lon="5.54196">
        <ele>1288.8</ele>
        <time>2022-08-12T13:06:39.000Z</time>
      </trkpt>
      <trkpt lat="45.09615" lon="5.54196">
        <ele>1288.9</ele>
        <time>2022-08-12T13:06:40.000Z</time>
      </trkpt>
      <trkpt lat="45.09614" lon="5.54195">
        <ele>1288.9</ele>
        <time>2022-08-12T13:06:41.000Z</time>
      </trkpt>
      <trkpt lat="45.09613" lon="5.54194">
        <ele>1289</ele>
        <time>2022-08-12T13:06:42.000Z</time>
      </trkpt>
      <trkpt lat="45.09612" lon="5.54193">
        <ele>1289.2</ele>
        <time>2022-08-12T13:06:43.000Z</time>
      </trkpt>
      <trkpt lat="45.09611" lon="5.54192">
        <ele>1289.3</ele>
        <time>2022-08-12T13:06:44.000Z</time>
      </trkpt>
      <trkpt lat="45.0961" lon="5.54192">
        <ele>1289.4</ele>
        <time>2022-08-12T13:06:45.000Z</time>
      </trkpt>
      <trkpt lat="45.09609" lon="5.54192">
        <ele>1289.4</ele>
        <time>2022-08-12T13:06:46.000Z</time>
      </trkpt>
      <trkpt lat="45.09608" lon="5.54192">
        <ele>1289.5</ele>
        <time>2022-08-12T13:06:47.000Z</time>
      </trkpt>
      <trkpt lat="45.09607" lon="5.54192">
        <ele>1289.4</ele>
        <time>2022-08-12T13:06:48.000Z</time>
      </trkpt>
      <trkpt lat="45.09606" lon="5.54193">
        <ele>1289.4</ele>
        <time>2022-08-12T13:06:49.000Z</time>
      </trkpt>
      <trkpt lat="45.09605" lon="5.54192">
        <ele>1289.5</ele>
        <time>2022-08-12T13:06:50.000Z</time>
      </trkpt>
      <trkpt lat="45.09604" lon="5.54191">
        <ele>1289.7</ele>
        <time>2022-08-12T13:06:51.000Z</time>
      </trkpt>
      <trkpt lat="45.09603" lon="5.54191">
        <ele>1289.8</ele>
        <time>2022-08-12T13:06:52.000Z</time>
      </trkpt>
      <trkpt lat="45.09602" lon="5.54191">
        <ele>1289.8</ele>
        <time>2022-08-12T13:06:53.000Z</time>
      </trkpt>
      <trkpt lat="45.09601" lon="5.5419">
        <ele>1289.9</ele>
        <time>2022-08-12T13:06:54.000Z</time>
      </trkpt>
      <trkpt lat="45.09599" lon="5.54189">
        <ele>1290.1</ele>
        <time>2022-08-12T13:06:55.000Z</time>
      </trkpt>
      <trkpt lat="45.09598" lon="5.54189">
        <ele>1290.1</ele>
        <time>2022-08-12T13:06:56.000Z</time>
      </trkpt>
      <trkpt lat="45.09597" lon="5.54189">
        <ele>1290.2</ele>
        <time>2022-08-12T13:06:57.000Z</time>
      </trkpt>
      <trkpt lat="45.09596" lon="5.54188">
        <ele>1290.3</ele>
        <time>2022-08-12T13:06:58.000Z</time>
      </trkpt>
      <trkpt lat="45.09594" lon="5.54188">
        <ele>1290.4</ele>
        <time>2022-08-12T13:06:59.000Z</time>
      </trkpt>
      <trkpt lat="45.09593" lon="5.54187">
        <ele>1290.5</ele>
        <time>2022-08-12T13:07:00.000Z</time>
      </trkpt>
      <trkpt lat="45.09592" lon="5.54186">
        <ele>1290.7</ele>
        <time>2022-08-12T13:07:01.000Z</time>
      </trkpt>
      <trkpt lat="45.09591" lon="5.54186">
        <ele>1290.8</ele>
        <time>2022-08-12T13:07:02.000Z</time>
      </trkpt>
      <trkpt lat="45.0959" lon="5.54185">
        <ele>1290.8</ele>
        <time>2022-08-12T13:07:03.000Z</time>
      </trkpt>
      <trkpt lat="45.09589" lon="5.54185">
        <ele>1290.9</ele>
        <time>2022-08-12T13:07:04.000Z</time>
      </trkpt>
      <trkpt lat="45.09588" lon="5.54185">
        <ele>1291</ele>
        <time>2022-08-12T13:07:05.000Z</time>
      </trkpt>
      <trkpt lat="45.09587" lon="5.54183">
        <ele>1291.1</ele>
        <time>2022-08-12T13:07:06.000Z</time>
      </trkpt>
      <trkpt lat="45.09586" lon="5.54182">
        <ele>1291.3</ele>
        <time>2022-08-12T13:07:07.000Z</time>
      </trkpt>
      <trkpt lat="45.09585" lon="5.54181">
        <ele>1291.4</ele>
        <time>2022-08-12T13:07:08.000Z</time>
      </trkpt>
      <trkpt lat="45.09584" lon="5.54181">
        <ele>1291.5</ele>
        <time>2022-08-12T13:07:09.000Z</time>
      </trkpt>
      <trkpt lat="45.09582" lon="5.5418">
        <ele>1291.6</ele>
        <time>2022-08-12T13:07:10.000Z</time>
      </trkpt>
      <trkpt lat="45.09581" lon="5.5418">
        <ele>1291.7</ele>
        <time>2022-08-12T13:07:11.000Z</time>
      </trkpt>
      <trkpt lat="45.09579" lon="5.54179">
        <ele>1291.9</ele>
        <time>2022-08-12T13:07:12.000Z</time>
      </trkpt>
      <trkpt lat="45.09578" lon="5.54179">
        <ele>1292</ele>
        <time>2022-08-12T13:07:14.000Z</time>
      </trkpt>
      <trkpt lat="45.09577" lon="5.54179">
        <ele>1292</ele>
        <time>2022-08-12T13:07:15.000Z</time>
      </trkpt>
      <trkpt lat="45.09575" lon="5.54179">
        <ele>1292.2</ele>
        <time>2022-08-12T13:07:16.000Z</time>
      </trkpt>
      <trkpt lat="45.09574" lon="5.54178">
        <ele>1292.2</ele>
        <time>2022-08-12T13:07:17.000Z</time>
      </trkpt>
      <trkpt lat="45.09573" lon="5.54178">
        <ele>1292.4</ele>
        <time>2022-08-12T13:07:18.000Z</time>
      </trkpt>
      <trkpt lat="45.09572" lon="5.54178">
        <ele>1292.5</ele>
        <time>2022-08-12T13:07:19.000Z</time>
      </trkpt>
      <trkpt lat="45.09571" lon="5.54177">
        <ele>1292.6</ele>
        <time>2022-08-12T13:07:20.000Z</time>
      </trkpt>
      <trkpt lat="45.0957" lon="5.54177">
        <ele>1292.7</ele>
        <time>2022-08-12T13:07:21.000Z</time>
      </trkpt>
      <trkpt lat="45.09569" lon="5.54177">
        <ele>1292.7</ele>
        <time>2022-08-12T13:07:22.000Z</time>
      </trkpt>
      <trkpt lat="45.09568" lon="5.54177">
        <ele>1292.8</ele>
        <time>2022-08-12T13:07:23.000Z</time>
      </trkpt>
      <trkpt lat="45.09567" lon="5.54177">
        <ele>1292.8</ele>
        <time>2022-08-12T13:07:24.000Z</time>
      </trkpt>
      <trkpt lat="45.09566" lon="5.54177">
        <ele>1292.9</ele>
        <time>2022-08-12T13:07:25.000Z</time>
      </trkpt>
      <trkpt lat="45.09565" lon="5.54178">
        <ele>1292.8</ele>
        <time>2022-08-12T13:07:26.000Z</time>
      </trkpt>
      <trkpt lat="45.09564" lon="5.54178">
        <ele>1292.9</ele>
        <time>2022-08-12T13:07:27.000Z</time>
      </trkpt>
      <trkpt lat="45.09563" lon="5.54178">
        <ele>1293</ele>
        <time>2022-08-12T13:07:28.000Z</time>
      </trkpt>
      <trkpt lat="45.09562" lon="5.54177">
        <ele>1293.1</ele>
        <time>2022-08-12T13:07:29.000Z</time>
      </trkpt>
      <trkpt lat="45.09561" lon="5.54177">
        <ele>1293.1</ele>
        <time>2022-08-12T13:07:30.000Z</time>
      </trkpt>
      <trkpt lat="45.0956" lon="5.54177">
        <ele>1293.2</ele>
        <time>2022-08-12T13:07:31.000Z</time>
      </trkpt>
      <trkpt lat="45.09559" lon="5.54176">
        <ele>1293.4</ele>
        <time>2022-08-12T13:07:32.000Z</time>
      </trkpt>
      <trkpt lat="45.09558" lon="5.54175">
        <ele>1293.7</ele>
        <time>2022-08-12T13:07:33.000Z</time>
      </trkpt>
      <trkpt lat="45.09557" lon="5.54174">
        <ele>1293.8</ele>
        <time>2022-08-12T13:07:34.000Z</time>
      </trkpt>
      <trkpt lat="45.09556" lon="5.54174">
        <ele>1293.9</ele>
        <time>2022-08-12T13:07:35.000Z</time>
      </trkpt>
      <trkpt lat="45.09555" lon="5.54173">
        <ele>1294</ele>
        <time>2022-08-12T13:07:36.000Z</time>
      </trkpt>
      <trkpt lat="45.09554" lon="5.54173">
        <ele>1294.2</ele>
        <time>2022-08-12T13:07:37.000Z</time>
      </trkpt>
      <trkpt lat="45.09553" lon="5.54172">
        <ele>1294.5</ele>
        <time>2022-08-12T13:07:38.000Z</time>
      </trkpt>
      <trkpt lat="45.09552" lon="5.54171">
        <ele>1294.6</ele>
        <time>2022-08-12T13:07:39.000Z</time>
      </trkpt>
      <trkpt lat="45.09551" lon="5.5417">
        <ele>1294.9</ele>
        <time>2022-08-12T13:07:40.000Z</time>
      </trkpt>
      <trkpt lat="45.09551" lon="5.54169">
        <ele>1295</ele>
        <time>2022-08-12T13:07:41.000Z</time>
      </trkpt>
      <trkpt lat="45.09549" lon="5.54169">
        <ele>1295.1</ele>
        <time>2022-08-12T13:07:42.000Z</time>
      </trkpt>
      <trkpt lat="45.09548" lon="5.54169">
        <ele>1295.2</ele>
        <time>2022-08-12T13:07:43.000Z</time>
      </trkpt>
      <trkpt lat="45.09547" lon="5.54169">
        <ele>1295.3</ele>
        <time>2022-08-12T13:07:44.000Z</time>
      </trkpt>
      <trkpt lat="45.09545" lon="5.54169">
        <ele>1295.4</ele>
        <time>2022-08-12T13:07:45.000Z</time>
      </trkpt>
      <trkpt lat="45.09544" lon="5.54168">
        <ele>1295.6</ele>
        <time>2022-08-12T13:07:47.000Z</time>
      </trkpt>
      <trkpt lat="45.09543" lon="5.54166">
        <ele>1296</ele>
        <time>2022-08-12T13:07:48.000Z</time>
      </trkpt>
      <trkpt lat="45.09542" lon="5.54165">
        <ele>1296.3</ele>
        <time>2022-08-12T13:07:49.000Z</time>
      </trkpt>
      <trkpt lat="45.09541" lon="5.54164">
        <ele>1296.6</ele>
        <time>2022-08-12T13:07:50.000Z</time>
      </trkpt>
      <trkpt lat="45.0954" lon="5.54163">
        <ele>1296.7</ele>
        <time>2022-08-12T13:07:51.000Z</time>
      </trkpt>
      <trkpt lat="45.09539" lon="5.54163">
        <ele>1296.8</ele>
        <time>2022-08-12T13:07:52.000Z</time>
      </trkpt>
      <trkpt lat="45.09538" lon="5.54163">
        <ele>1296.8</ele>
        <time>2022-08-12T13:07:53.000Z</time>
      </trkpt>
      <trkpt lat="45.09537" lon="5.54163">
        <ele>1297</ele>
        <time>2022-08-12T13:07:54.000Z</time>
      </trkpt>
      <trkpt lat="45.09536" lon="5.54162">
        <ele>1297.3</ele>
        <time>2022-08-12T13:07:55.000Z</time>
      </trkpt>
      <trkpt lat="45.09536" lon="5.54161">
        <ele>1297.4</ele>
        <time>2022-08-12T13:07:57.000Z</time>
      </trkpt>
      <trkpt lat="45.09534" lon="5.54161">
        <ele>1297.6</ele>
        <time>2022-08-12T13:07:58.000Z</time>
      </trkpt>
      <trkpt lat="45.09533" lon="5.5416">
        <ele>1297.9</ele>
        <time>2022-08-12T13:07:59.000Z</time>
      </trkpt>
      <trkpt lat="45.09532" lon="5.54159">
        <ele>1298.1</ele>
        <time>2022-08-12T13:08:00.000Z</time>
      </trkpt>
      <trkpt lat="45.09531" lon="5.54159">
        <ele>1298.1</ele>
        <time>2022-08-12T13:08:01.000Z</time>
      </trkpt>
      <trkpt lat="45.0953" lon="5.54159">
        <ele>1298.2</ele>
        <time>2022-08-12T13:08:02.000Z</time>
      </trkpt>
      <trkpt lat="45.09529" lon="5.54159">
        <ele>1298.3</ele>
        <time>2022-08-12T13:08:03.000Z</time>
      </trkpt>
      <trkpt lat="45.09528" lon="5.54158">
        <ele>1298.5</ele>
        <time>2022-08-12T13:08:04.000Z</time>
      </trkpt>
      <trkpt lat="45.09527" lon="5.54158">
        <ele>1298.6</ele>
        <time>2022-08-12T13:08:05.000Z</time>
      </trkpt>
      <trkpt lat="45.09526" lon="5.54158">
        <ele>1298.7</ele>
        <time>2022-08-12T13:08:07.000Z</time>
      </trkpt>
      <trkpt lat="45.09525" lon="5.54158">
        <ele>1298.8</ele>
        <time>2022-08-12T13:08:08.000Z</time>
      </trkpt>
      <trkpt lat="45.09524" lon="5.54157">
        <ele>1299</ele>
        <time>2022-08-12T13:08:09.000Z</time>
      </trkpt>
      <trkpt lat="45.09523" lon="5.54156">
        <ele>1299.3</ele>
        <time>2022-08-12T13:08:10.000Z</time>
      </trkpt>
      <trkpt lat="45.09522" lon="5.54154">
        <ele>1299.8</ele>
        <time>2022-08-12T13:08:11.000Z</time>
      </trkpt>
      <trkpt lat="45.09521" lon="5.54153">
        <ele>1300.1</ele>
        <time>2022-08-12T13:08:12.000Z</time>
      </trkpt>
      <trkpt lat="45.0952" lon="5.54152">
        <ele>1300.4</ele>
        <time>2022-08-12T13:08:13.000Z</time>
      </trkpt>
      <trkpt lat="45.09519" lon="5.54151">
        <ele>1300.6</ele>
        <time>2022-08-12T13:08:14.000Z</time>
      </trkpt>
      <trkpt lat="45.09518" lon="5.54151">
        <ele>1300.8</ele>
        <time>2022-08-12T13:08:15.000Z</time>
      </trkpt>
      <trkpt lat="45.09517" lon="5.5415">
        <ele>1301</ele>
        <time>2022-08-12T13:08:16.000Z</time>
      </trkpt>
      <trkpt lat="45.09516" lon="5.5415">
        <ele>1301.2</ele>
        <time>2022-08-12T13:08:17.000Z</time>
      </trkpt>
      <trkpt lat="45.09515" lon="5.54149">
        <ele>1301.4</ele>
        <time>2022-08-12T13:08:18.000Z</time>
      </trkpt>
      <trkpt lat="45.09514" lon="5.5415">
        <ele>1301.4</ele>
        <time>2022-08-12T13:08:19.000Z</time>
      </trkpt>
      <trkpt lat="45.09513" lon="5.5415">
        <ele>1301.4</ele>
        <time>2022-08-12T13:08:20.000Z</time>
      </trkpt>
      <trkpt lat="45.09512" lon="5.54151">
        <ele>1301.4</ele>
        <time>2022-08-12T13:08:21.000Z</time>
      </trkpt>
      <trkpt lat="45.0951" lon="5.54151">
        <ele>1301.5</ele>
        <time>2022-08-12T13:08:22.000Z</time>
      </trkpt>
      <trkpt lat="45.09509" lon="5.5415">
        <ele>1301.7</ele>
        <time>2022-08-12T13:08:23.000Z</time>
      </trkpt>
      <trkpt lat="45.09509" lon="5.54149">
        <ele>1301.9</ele>
        <time>2022-08-12T13:08:24.000Z</time>
      </trkpt>
      <trkpt lat="45.09508" lon="5.54149">
        <ele>1302</ele>
        <time>2022-08-12T13:08:25.000Z</time>
      </trkpt>
      <trkpt lat="45.09507" lon="5.54148">
        <ele>1302.3</ele>
        <time>2022-08-12T13:08:27.000Z</time>
      </trkpt>
      <trkpt lat="45.09505" lon="5.54147">
        <ele>1302.6</ele>
        <time>2022-08-12T13:08:28.000Z</time>
      </trkpt>
      <trkpt lat="45.09504" lon="5.54147">
        <ele>1302.9</ele>
        <time>2022-08-12T13:08:29.000Z</time>
      </trkpt>
      <trkpt lat="45.09503" lon="5.54146">
        <ele>1303.2</ele>
        <time>2022-08-12T13:08:30.000Z</time>
      </trkpt>
      <trkpt lat="45.09502" lon="5.54145">
        <ele>1303.5</ele>
        <time>2022-08-12T13:08:31.000Z</time>
      </trkpt>
      <trkpt lat="45.09501" lon="5.54144">
        <ele>1303.8</ele>
        <time>2022-08-12T13:08:32.000Z</time>
      </trkpt>
      <trkpt lat="45.095" lon="5.54143">
        <ele>1304.1</ele>
        <time>2022-08-12T13:08:33.000Z</time>
      </trkpt>
      <trkpt lat="45.09499" lon="5.54142">
        <ele>1304.4</ele>
        <time>2022-08-12T13:08:34.000Z</time>
      </trkpt>
      <trkpt lat="45.09498" lon="5.54141">
        <ele>1304.6</ele>
        <time>2022-08-12T13:08:35.000Z</time>
      </trkpt>
      <trkpt lat="45.09497" lon="5.54141">
        <ele>1304.9</ele>
        <time>2022-08-12T13:08:37.000Z</time>
      </trkpt>
      <trkpt lat="45.09496" lon="5.5414">
        <ele>1305.1</ele>
        <time>2022-08-12T13:08:38.000Z</time>
      </trkpt>
      <trkpt lat="45.09494" lon="5.54138">
        <ele>1305.6</ele>
        <time>2022-08-12T13:08:39.000Z</time>
      </trkpt>
      <trkpt lat="45.09493" lon="5.54137">
        <ele>1305.8</ele>
        <time>2022-08-12T13:08:40.000Z</time>
      </trkpt>
      <trkpt lat="45.09492" lon="5.54137">
        <ele>1305.9</ele>
        <time>2022-08-12T13:08:41.000Z</time>
      </trkpt>
      <trkpt lat="45.09491" lon="5.54137">
        <ele>1306.1</ele>
        <time>2022-08-12T13:08:42.000Z</time>
      </trkpt>
      <trkpt lat="45.0949" lon="5.54136">
        <ele>1306.3</ele>
        <time>2022-08-12T13:08:43.000Z</time>
      </trkpt>
      <trkpt lat="45.09489" lon="5.54136">
        <ele>1306.3</ele>
        <time>2022-08-12T13:08:44.000Z</time>
      </trkpt>
      <trkpt lat="45.09488" lon="5.54136">
        <ele>1306.5</ele>
        <time>2022-08-12T13:08:45.000Z</time>
      </trkpt>
      <trkpt lat="45.09487" lon="5.54135">
        <ele>1306.8</ele>
        <time>2022-08-12T13:08:46.000Z</time>
      </trkpt>
      <trkpt lat="45.09486" lon="5.54134">
        <ele>1307</ele>
        <time>2022-08-12T13:08:47.000Z</time>
      </trkpt>
      <trkpt lat="45.09485" lon="5.54133">
        <ele>1307.2</ele>
        <time>2022-08-12T13:08:48.000Z</time>
      </trkpt>
      <trkpt lat="45.09484" lon="5.54132">
        <ele>1307.6</ele>
        <time>2022-08-12T13:08:51.000Z</time>
      </trkpt>
      <trkpt lat="45.09483" lon="5.54131">
        <ele>1307.9</ele>
        <time>2022-08-12T13:08:52.000Z</time>
      </trkpt>
      <trkpt lat="45.09482" lon="5.5413">
        <ele>1308.2</ele>
        <time>2022-08-12T13:08:53.000Z</time>
      </trkpt>
      <trkpt lat="45.09481" lon="5.54129">
        <ele>1308.4</ele>
        <time>2022-08-12T13:08:54.000Z</time>
      </trkpt>
      <trkpt lat="45.0948" lon="5.54128">
        <ele>1308.7</ele>
        <time>2022-08-12T13:08:55.000Z</time>
      </trkpt>
      <trkpt lat="45.09479" lon="5.54128">
        <ele>1308.9</ele>
        <time>2022-08-12T13:08:57.000Z</time>
      </trkpt>
      <trkpt lat="45.09478" lon="5.54127">
        <ele>1309</ele>
        <time>2022-08-12T13:08:59.000Z</time>
      </trkpt>
      <trkpt lat="45.09477" lon="5.54127">
        <ele>1309.2</ele>
        <time>2022-08-12T13:09:00.000Z</time>
      </trkpt>
      <trkpt lat="45.09476" lon="5.54127">
        <ele>1309.4</ele>
        <time>2022-08-12T13:09:01.000Z</time>
      </trkpt>
      <trkpt lat="45.09475" lon="5.54125">
        <ele>1309.8</ele>
        <time>2022-08-12T13:09:02.000Z</time>
      </trkpt>
      <trkpt lat="45.09474" lon="5.54123">
        <ele>1310.3</ele>
        <time>2022-08-12T13:09:03.000Z</time>
      </trkpt>
      <trkpt lat="45.09473" lon="5.54122">
        <ele>1310.6</ele>
        <time>2022-08-12T13:09:04.000Z</time>
      </trkpt>
      <trkpt lat="45.09473" lon="5.5412">
        <ele>1311</ele>
        <time>2022-08-12T13:09:05.000Z</time>
      </trkpt>
      <trkpt lat="45.09472" lon="5.54118">
        <ele>1311.5</ele>
        <time>2022-08-12T13:09:06.000Z</time>
      </trkpt>
      <trkpt lat="45.09471" lon="5.54117">
        <ele>1311.8</ele>
        <time>2022-08-12T13:09:07.000Z</time>
      </trkpt>
      <trkpt lat="45.0947" lon="5.54117">
        <ele>1311.9</ele>
        <time>2022-08-12T13:09:08.000Z</time>
      </trkpt>
      <trkpt lat="45.0947" lon="5.54116">
        <ele>1312.1</ele>
        <time>2022-08-12T13:09:09.000Z</time>
      </trkpt>
      <trkpt lat="45.09469" lon="5.54115">
        <ele>1312.4</ele>
        <time>2022-08-12T13:09:10.000Z</time>
      </trkpt>
      <trkpt lat="45.09468" lon="5.54115">
        <ele>1312.7</ele>
        <time>2022-08-12T13:09:11.000Z</time>
      </trkpt>
      <trkpt lat="45.09467" lon="5.54114">
        <ele>1312.9</ele>
        <time>2022-08-12T13:09:12.000Z</time>
      </trkpt>
      <trkpt lat="45.09466" lon="5.54113">
        <ele>1313.3</ele>
        <time>2022-08-12T13:09:13.000Z</time>
      </trkpt>
      <trkpt lat="45.09466" lon="5.54111">
        <ele>1313.6</ele>
        <time>2022-08-12T13:09:14.000Z</time>
      </trkpt>
      <trkpt lat="45.09465" lon="5.5411">
        <ele>1313.9</ele>
        <time>2022-08-12T13:09:15.000Z</time>
      </trkpt>
      <trkpt lat="45.09464" lon="5.5411">
        <ele>1314.1</ele>
        <time>2022-08-12T13:09:16.000Z</time>
      </trkpt>
      <trkpt lat="45.09463" lon="5.5411">
        <ele>1314.2</ele>
        <time>2022-08-12T13:09:17.000Z</time>
      </trkpt>
      <trkpt lat="45.09462" lon="5.5411">
        <ele>1314.3</ele>
        <time>2022-08-12T13:09:20.000Z</time>
      </trkpt>
      <trkpt lat="45.09462" lon="5.54109">
        <ele>1314.6</ele>
        <time>2022-08-12T13:09:21.000Z</time>
      </trkpt>
      <trkpt lat="45.0946" lon="5.54109">
        <ele>1314.8</ele>
        <time>2022-08-12T13:09:22.000Z</time>
      </trkpt>
      <trkpt lat="45.09459" lon="5.54109">
        <ele>1314.9</ele>
        <time>2022-08-12T13:09:23.000Z</time>
      </trkpt>
      <trkpt lat="45.09458" lon="5.54109">
        <ele>1314.9</ele>
        <time>2022-08-12T13:09:24.000Z</time>
      </trkpt>
      <trkpt lat="45.09457" lon="5.54109">
        <ele>1315</ele>
        <time>2022-08-12T13:09:25.000Z</time>
      </trkpt>
      <trkpt lat="45.09456" lon="5.54108">
        <ele>1315.3</ele>
        <time>2022-08-12T13:09:26.000Z</time>
      </trkpt>
      <trkpt lat="45.09455" lon="5.54106">
        <ele>1315.9</ele>
        <time>2022-08-12T13:09:27.000Z</time>
      </trkpt>
      <trkpt lat="45.09454" lon="5.54104">
        <ele>1316.4</ele>
        <time>2022-08-12T13:09:28.000Z</time>
      </trkpt>
      <trkpt lat="45.09453" lon="5.54103">
        <ele>1316.6</ele>
        <time>2022-08-12T13:09:29.000Z</time>
      </trkpt>
      <trkpt lat="45.09453" lon="5.54102">
        <ele>1316.8</ele>
        <time>2022-08-12T13:09:30.000Z</time>
      </trkpt>
      <trkpt lat="45.09452" lon="5.54102">
        <ele>1317</ele>
        <time>2022-08-12T13:09:31.000Z</time>
      </trkpt>
      <trkpt lat="45.09451" lon="5.54101">
        <ele>1317.2</ele>
        <time>2022-08-12T13:09:32.000Z</time>
      </trkpt>
      <trkpt lat="45.0945" lon="5.541">
        <ele>1317.5</ele>
        <time>2022-08-12T13:09:33.000Z</time>
      </trkpt>
      <trkpt lat="45.09448" lon="5.54099">
        <ele>1317.8</ele>
        <time>2022-08-12T13:09:34.000Z</time>
      </trkpt>
      <trkpt lat="45.09447" lon="5.54098">
        <ele>1318.2</ele>
        <time>2022-08-12T13:09:35.000Z</time>
      </trkpt>
      <trkpt lat="45.09446" lon="5.54098">
        <ele>1318.3</ele>
        <time>2022-08-12T13:09:36.000Z</time>
      </trkpt>
      <trkpt lat="45.09445" lon="5.54097">
        <ele>1318.4</ele>
        <time>2022-08-12T13:09:37.000Z</time>
      </trkpt>
      <trkpt lat="45.09444" lon="5.54097">
        <ele>1318.5</ele>
        <time>2022-08-12T13:09:38.000Z</time>
      </trkpt>
      <trkpt lat="45.09443" lon="5.54097">
        <ele>1318.6</ele>
        <time>2022-08-12T13:09:39.000Z</time>
      </trkpt>
      <trkpt lat="45.09441" lon="5.54096">
        <ele>1318.8</ele>
        <time>2022-08-12T13:09:40.000Z</time>
      </trkpt>
      <trkpt lat="45.0944" lon="5.54096">
        <ele>1318.9</ele>
        <time>2022-08-12T13:09:41.000Z</time>
      </trkpt>
      <trkpt lat="45.09439" lon="5.54096">
        <ele>1319</ele>
        <time>2022-08-12T13:09:42.000Z</time>
      </trkpt>
      <trkpt lat="45.09437" lon="5.54094">
        <ele>1319.3</ele>
        <time>2022-08-12T13:09:43.000Z</time>
      </trkpt>
      <trkpt lat="45.09436" lon="5.54094">
        <ele>1319.5</ele>
        <time>2022-08-12T13:09:44.000Z</time>
      </trkpt>
      <trkpt lat="45.09435" lon="5.54093">
        <ele>1319.6</ele>
        <time>2022-08-12T13:09:45.000Z</time>
      </trkpt>
      <trkpt lat="45.09433" lon="5.54092">
        <ele>1319.8</ele>
        <time>2022-08-12T13:09:46.000Z</time>
      </trkpt>
      <trkpt lat="45.09432" lon="5.54092">
        <ele>1319.9</ele>
        <time>2022-08-12T13:09:47.000Z</time>
      </trkpt>
      <trkpt lat="45.09431" lon="5.54091">
        <ele>1320</ele>
        <time>2022-08-12T13:09:48.000Z</time>
      </trkpt>
      <trkpt lat="45.09429" lon="5.54091">
        <ele>1320.2</ele>
        <time>2022-08-12T13:09:49.000Z</time>
      </trkpt>
      <trkpt lat="45.09429" lon="5.5409">
        <ele>1320.3</ele>
        <time>2022-08-12T13:09:50.000Z</time>
      </trkpt>
      <trkpt lat="45.09428" lon="5.5409">
        <ele>1320.4</ele>
        <time>2022-08-12T13:09:51.000Z</time>
      </trkpt>
      <trkpt lat="45.09427" lon="5.54091">
        <ele>1320.3</ele>
        <time>2022-08-12T13:09:52.000Z</time>
      </trkpt>
      <trkpt lat="45.09426" lon="5.54092">
        <ele>1320.1</ele>
        <time>2022-08-12T13:09:53.000Z</time>
      </trkpt>
      <trkpt lat="45.09425" lon="5.54092">
        <ele>1320</ele>
        <time>2022-08-12T13:09:54.000Z</time>
      </trkpt>
      <trkpt lat="45.09423" lon="5.54092">
        <ele>1320.2</ele>
        <time>2022-08-12T13:09:55.000Z</time>
      </trkpt>
      <trkpt lat="45.09422" lon="5.54093">
        <ele>1320.1</ele>
        <time>2022-08-12T13:09:56.000Z</time>
      </trkpt>
      <trkpt lat="45.09421" lon="5.54094">
        <ele>1320</ele>
        <time>2022-08-12T13:09:57.000Z</time>
      </trkpt>
      <trkpt lat="45.0942" lon="5.54094">
        <ele>1319.9</ele>
        <time>2022-08-12T13:09:58.000Z</time>
      </trkpt>
      <trkpt lat="45.09419" lon="5.54094">
        <ele>1320.1</ele>
        <time>2022-08-12T13:09:59.000Z</time>
      </trkpt>
      <trkpt lat="45.09417" lon="5.54091">
        <ele>1320.6</ele>
        <time>2022-08-12T13:10:00.000Z</time>
      </trkpt>
      <trkpt lat="45.09416" lon="5.54091">
        <ele>1320.6</ele>
        <time>2022-08-12T13:10:02.000Z</time>
      </trkpt>
      <trkpt lat="45.09415" lon="5.54092">
        <ele>1320.4</ele>
        <time>2022-08-12T13:10:03.000Z</time>
      </trkpt>
      <trkpt lat="45.09413" lon="5.54094">
        <ele>1320.3</ele>
        <time>2022-08-12T13:10:05.000Z</time>
      </trkpt>
      <trkpt lat="45.09411" lon="5.54094">
        <ele>1320.2</ele>
        <time>2022-08-12T13:10:06.000Z</time>
      </trkpt>
      <trkpt lat="45.09411" lon="5.54095">
        <ele>1320.2</ele>
        <time>2022-08-12T13:10:08.000Z</time>
      </trkpt>
      <trkpt lat="45.0941" lon="5.54095">
        <ele>1320.1</ele>
        <time>2022-08-12T13:10:09.000Z</time>
      </trkpt>
      <trkpt lat="45.09406" lon="5.54095">
        <ele>1320.2</ele>
        <time>2022-08-12T13:10:11.000Z</time>
      </trkpt>
      <trkpt lat="45.09404" lon="5.54094">
        <ele>1320.5</ele>
        <time>2022-08-12T13:10:12.000Z</time>
      </trkpt>
      <trkpt lat="45.09402" lon="5.54094">
        <ele>1320.6</ele>
        <time>2022-08-12T13:10:13.000Z</time>
      </trkpt>
      <trkpt lat="45.094" lon="5.54094">
        <ele>1320.6</ele>
        <time>2022-08-12T13:10:14.000Z</time>
      </trkpt>
      <trkpt lat="45.09394" lon="5.54093">
        <ele>1321.2</ele>
        <time>2022-08-12T13:10:18.000Z</time>
      </trkpt>
      <trkpt lat="45.09391" lon="5.54093">
        <ele>1321.2</ele>
        <time>2022-08-12T13:10:20.000Z</time>
      </trkpt>
      <trkpt lat="45.09389" lon="5.54094">
        <ele>1321.2</ele>
        <time>2022-08-12T13:10:21.000Z</time>
      </trkpt>
      <trkpt lat="45.09388" lon="5.54094">
        <ele>1321.1</ele>
        <time>2022-08-12T13:10:22.000Z</time>
      </trkpt>
      <trkpt lat="45.09387" lon="5.54094">
        <ele>1321.1</ele>
        <time>2022-08-12T13:10:23.000Z</time>
      </trkpt>
      <trkpt lat="45.09386" lon="5.54093">
        <ele>1321.3</ele>
        <time>2022-08-12T13:10:24.000Z</time>
      </trkpt>
      <trkpt lat="45.09384" lon="5.54093">
        <ele>1321.4</ele>
        <time>2022-08-12T13:10:25.000Z</time>
      </trkpt>
      <trkpt lat="45.09383" lon="5.54094">
        <ele>1321.3</ele>
        <time>2022-08-12T13:10:26.000Z</time>
      </trkpt>
      <trkpt lat="45.0938" lon="5.54095">
        <ele>1321.2</ele>
        <time>2022-08-12T13:10:28.000Z</time>
      </trkpt>
      <trkpt lat="45.09379" lon="5.54095">
        <ele>1321.2</ele>
        <time>2022-08-12T13:10:29.000Z</time>
      </trkpt>
      <trkpt lat="45.09378" lon="5.54095">
        <ele>1321.2</ele>
        <time>2022-08-12T13:10:30.000Z</time>
      </trkpt>
      <trkpt lat="45.09374" lon="5.54095">
        <ele>1321.5</ele>
        <time>2022-08-12T13:10:33.000Z</time>
      </trkpt>
      <trkpt lat="45.09366" lon="5.54097">
        <ele>1321.3</ele>
        <time>2022-08-12T13:10:38.000Z</time>
      </trkpt>
      <trkpt lat="45.09365" lon="5.54098">
        <ele>1321.3</ele>
        <time>2022-08-12T13:10:39.000Z</time>
      </trkpt>
      <trkpt lat="45.09359" lon="5.54097">
        <ele>1321.6</ele>
        <time>2022-08-12T13:10:43.000Z</time>
      </trkpt>
      <trkpt lat="45.09358" lon="5.54099">
        <ele>1321.4</ele>
        <time>2022-08-12T13:10:44.000Z</time>
      </trkpt>
      <trkpt lat="45.09357" lon="5.54099">
        <ele>1321.3</ele>
        <time>2022-08-12T13:10:45.000Z</time>
      </trkpt>
      <trkpt lat="45.09356" lon="5.541">
        <ele>1321.3</ele>
        <time>2022-08-12T13:10:46.000Z</time>
      </trkpt>
      <trkpt lat="45.09352" lon="5.54098">
        <ele>1321.7</ele>
        <time>2022-08-12T13:10:50.000Z</time>
      </trkpt>
      <trkpt lat="45.09351" lon="5.54097">
        <ele>1321.9</ele>
        <time>2022-08-12T13:10:51.000Z</time>
      </trkpt>
      <trkpt lat="45.0935" lon="5.54092">
        <ele>1322.9</ele>
        <time>2022-08-12T13:11:13.000Z</time>
      </trkpt>
      <trkpt lat="45.0935" lon="5.54091">
        <ele>1323</ele>
        <time>2022-08-12T13:11:14.000Z</time>
      </trkpt>
      <trkpt lat="45.09351" lon="5.54092">
        <ele>1322.8</ele>
        <time>2022-08-12T13:11:16.000Z</time>
      </trkpt>
      <trkpt lat="45.09352" lon="5.54092">
        <ele>1322.7</ele>
        <time>2022-08-12T13:11:17.000Z</time>
      </trkpt>
      <trkpt lat="45.09353" lon="5.54092">
        <ele>1322.8</ele>
        <time>2022-08-12T13:11:18.000Z</time>
      </trkpt>
      <trkpt lat="45.09354" lon="5.54091">
        <ele>1322.8</ele>
        <time>2022-08-12T13:11:21.000Z</time>
      </trkpt>
      <trkpt lat="45.09354" lon="5.54092">
        <ele>1322.6</ele>
        <time>2022-08-12T13:11:22.000Z</time>
      </trkpt>
      <trkpt lat="45.09354" lon="5.54093">
        <ele>1322.6</ele>
        <time>2022-08-12T13:11:24.000Z</time>
      </trkpt>
      <trkpt lat="45.09356" lon="5.54093">
        <ele>1322.4</ele>
        <time>2022-08-12T13:11:36.000Z</time>
      </trkpt>
      <trkpt lat="45.09357" lon="5.54093">
        <ele>1322.5</ele>
        <time>2022-08-12T13:11:52.000Z</time>
      </trkpt>
      <trkpt lat="45.09355" lon="5.54096">
        <ele>1322</ele>
        <time>2022-08-12T13:18:49.000Z</time>
      </trkpt>
      <trkpt lat="45.09355" lon="5.54095">
        <ele>1322.1</ele>
        <time>2022-08-12T13:18:50.000Z</time>
      </trkpt>
      <trkpt lat="45.09354" lon="5.54094">
        <ele>1322.3</ele>
        <time>2022-08-12T13:18:54.000Z</time>
      </trkpt>
      <trkpt lat="45.09353" lon="5.54093">
        <ele>1322.5</ele>
        <time>2022-08-12T13:18:55.000Z</time>
      </trkpt>
      <trkpt lat="45.09352" lon="5.54092">
        <ele>1322.8</ele>
        <time>2022-08-12T13:18:56.000Z</time>
      </trkpt>
      <trkpt lat="45.09352" lon="5.54091">
        <ele>1322.9</ele>
        <time>2022-08-12T13:19:46.000Z</time>
      </trkpt>
      <trkpt lat="45.09353" lon="5.5409">
        <ele>1323</ele>
        <time>2022-08-12T13:19:47.000Z</time>
      </trkpt>
      <trkpt lat="45.09355" lon="5.54088">
        <ele>1323.3</ele>
        <time>2022-08-12T13:19:49.000Z</time>
      </trkpt>
      <trkpt lat="45.09357" lon="5.54087">
        <ele>1323.5</ele>
        <time>2022-08-12T13:19:51.000Z</time>
      </trkpt>
      <trkpt lat="45.09357" lon="5.54086">
        <ele>1323.7</ele>
        <time>2022-08-12T13:19:52.000Z</time>
      </trkpt>
      <trkpt lat="45.09357" lon="5.54085">
        <ele>1323.9</ele>
        <time>2022-08-12T13:19:53.000Z</time>
      </trkpt>
      <trkpt lat="45.09358" lon="5.54084">
        <ele>1324</ele>
        <time>2022-08-12T13:19:54.000Z</time>
      </trkpt>
      <trkpt lat="45.09358" lon="5.54083">
        <ele>1324.2</ele>
        <time>2022-08-12T13:19:55.000Z</time>
      </trkpt>
      <trkpt lat="45.09358" lon="5.54082">
        <ele>1324.4</ele>
        <time>2022-08-12T13:19:56.000Z</time>
      </trkpt>
      <trkpt lat="45.09357" lon="5.5408">
        <ele>1324.7</ele>
        <time>2022-08-12T13:19:57.000Z</time>
      </trkpt>
      <trkpt lat="45.09357" lon="5.54079">
        <ele>1325</ele>
        <time>2022-08-12T13:19:58.000Z</time>
      </trkpt>
      <trkpt lat="45.09356" lon="5.54077">
        <ele>1325.3</ele>
        <time>2022-08-12T13:19:59.000Z</time>
      </trkpt>
      <trkpt lat="45.09356" lon="5.54075">
        <ele>1325.6</ele>
        <time>2022-08-12T13:20:00.000Z</time>
      </trkpt>
      <trkpt lat="45.09356" lon="5.54073">
        <ele>1326</ele>
        <time>2022-08-12T13:20:01.000Z</time>
      </trkpt>
      <trkpt lat="45.09356" lon="5.54071">
        <ele>1326.4</ele>
        <time>2022-08-12T13:20:02.000Z</time>
      </trkpt>
      <trkpt lat="45.09356" lon="5.54069">
        <ele>1326.7</ele>
        <time>2022-08-12T13:20:03.000Z</time>
      </trkpt>
      <trkpt lat="45.09356" lon="5.54068">
        <ele>1326.9</ele>
        <time>2022-08-12T13:20:04.000Z</time>
      </trkpt>
      <trkpt lat="45.09356" lon="5.54067">
        <ele>1327.1</ele>
        <time>2022-08-12T13:20:05.000Z</time>
      </trkpt>
      <trkpt lat="45.09356" lon="5.54066">
        <ele>1327.4</ele>
        <time>2022-08-12T13:20:06.000Z</time>
      </trkpt>
      <trkpt lat="45.09356" lon="5.54064">
        <ele>1327.7</ele>
        <time>2022-08-12T13:20:07.000Z</time>
      </trkpt>
      <trkpt lat="45.09356" lon="5.54063">
        <ele>1327.9</ele>
        <time>2022-08-12T13:20:08.000Z</time>
      </trkpt>
      <trkpt lat="45.09357" lon="5.54061">
        <ele>1328.1</ele>
        <time>2022-08-12T13:20:09.000Z</time>
      </trkpt>
      <trkpt lat="45.09356" lon="5.5406">
        <ele>1328.4</ele>
        <time>2022-08-12T13:20:10.000Z</time>
      </trkpt>
      <trkpt lat="45.09356" lon="5.54058">
        <ele>1328.8</ele>
        <time>2022-08-12T13:20:11.000Z</time>
      </trkpt>
      <trkpt lat="45.09355" lon="5.54056">
        <ele>1329.1</ele>
        <time>2022-08-12T13:20:12.000Z</time>
      </trkpt>
      <trkpt lat="45.09354" lon="5.54055">
        <ele>1329.4</ele>
        <time>2022-08-12T13:20:13.000Z</time>
      </trkpt>
      <trkpt lat="45.09354" lon="5.54053">
        <ele>1329.8</ele>
        <time>2022-08-12T13:20:14.000Z</time>
      </trkpt>
      <trkpt lat="45.09354" lon="5.54051">
        <ele>1330.1</ele>
        <time>2022-08-12T13:20:15.000Z</time>
      </trkpt>
      <trkpt lat="45.09353" lon="5.54048">
        <ele>1330.6</ele>
        <time>2022-08-12T13:20:16.000Z</time>
      </trkpt>
      <trkpt lat="45.09353" lon="5.54047">
        <ele>1330.9</ele>
        <time>2022-08-12T13:20:17.000Z</time>
      </trkpt>
      <trkpt lat="45.09354" lon="5.54046">
        <ele>1331</ele>
        <time>2022-08-12T13:20:18.000Z</time>
      </trkpt>
      <trkpt lat="45.09354" lon="5.54045">
        <ele>1331.2</ele>
        <time>2022-08-12T13:20:19.000Z</time>
      </trkpt>
      <trkpt lat="45.09355" lon="5.54044">
        <ele>1331.4</ele>
        <time>2022-08-12T13:20:20.000Z</time>
      </trkpt>
      <trkpt lat="45.09355" lon="5.54043">
        <ele>1331.5</ele>
        <time>2022-08-12T13:20:21.000Z</time>
      </trkpt>
      <trkpt lat="45.09355" lon="5.54042">
        <ele>1331.7</ele>
        <time>2022-08-12T13:20:24.000Z</time>
      </trkpt>
      <trkpt lat="45.09355" lon="5.54041">
        <ele>1331.8</ele>
        <time>2022-08-12T13:20:25.000Z</time>
      </trkpt>
      <trkpt lat="45.09356" lon="5.5404">
        <ele>1332</ele>
        <time>2022-08-12T13:20:26.000Z</time>
      </trkpt>
      <trkpt lat="45.09356" lon="5.54038">
        <ele>1332.3</ele>
        <time>2022-08-12T13:20:27.000Z</time>
      </trkpt>
      <trkpt lat="45.09356" lon="5.54037">
        <ele>1332.6</ele>
        <time>2022-08-12T13:20:28.000Z</time>
      </trkpt>
      <trkpt lat="45.09356" lon="5.54036">
        <ele>1332.7</ele>
        <time>2022-08-12T13:20:29.000Z</time>
      </trkpt>
      <trkpt lat="45.09356" lon="5.54034">
        <ele>1333</ele>
        <time>2022-08-12T13:20:32.000Z</time>
      </trkpt>
      <trkpt lat="45.09356" lon="5.54033">
        <ele>1333.2</ele>
        <time>2022-08-12T13:20:33.000Z</time>
      </trkpt>
      <trkpt lat="45.09356" lon="5.54031">
        <ele>1333.6</ele>
        <time>2022-08-12T13:20:34.000Z</time>
      </trkpt>
      <trkpt lat="45.09355" lon="5.54028">
        <ele>1334.1</ele>
        <time>2022-08-12T13:20:35.000Z</time>
      </trkpt>
      <trkpt lat="45.09354" lon="5.54026">
        <ele>1334.4</ele>
        <time>2022-08-12T13:20:37.000Z</time>
      </trkpt>
      <trkpt lat="45.09354" lon="5.54025">
        <ele>1334.6</ele>
        <time>2022-08-12T13:20:38.000Z</time>
      </trkpt>
      <trkpt lat="45.09354" lon="5.54024">
        <ele>1334.7</ele>
        <time>2022-08-12T13:20:39.000Z</time>
      </trkpt>
      <trkpt lat="45.09354" lon="5.54023">
        <ele>1334.8</ele>
        <time>2022-08-12T13:20:41.000Z</time>
      </trkpt>
      <trkpt lat="45.09354" lon="5.54022">
        <ele>1335</ele>
        <time>2022-08-12T13:20:43.000Z</time>
      </trkpt>
      <trkpt lat="45.09354" lon="5.5402">
        <ele>1335.2</ele>
        <time>2022-08-12T13:20:44.000Z</time>
      </trkpt>
      <trkpt lat="45.09354" lon="5.54018">
        <ele>1335.4</ele>
        <time>2022-08-12T13:20:45.000Z</time>
      </trkpt>
      <trkpt lat="45.09354" lon="5.54016">
        <ele>1335.6</ele>
        <time>2022-08-12T13:20:46.000Z</time>
      </trkpt>
      <trkpt lat="45.09354" lon="5.54014">
        <ele>1335.9</ele>
        <time>2022-08-12T13:20:47.000Z</time>
      </trkpt>
      <trkpt lat="45.09354" lon="5.54011">
        <ele>1336.2</ele>
        <time>2022-08-12T13:20:48.000Z</time>
      </trkpt>
      <trkpt lat="45.09354" lon="5.5401">
        <ele>1336.4</ele>
        <time>2022-08-12T13:20:49.000Z</time>
      </trkpt>
      <trkpt lat="45.09354" lon="5.54008">
        <ele>1336.6</ele>
        <time>2022-08-12T13:20:50.000Z</time>
      </trkpt>
      <trkpt lat="45.09354" lon="5.54006">
        <ele>1336.9</ele>
        <time>2022-08-12T13:20:51.000Z</time>
      </trkpt>
      <trkpt lat="45.09353" lon="5.54003">
        <ele>1337.2</ele>
        <time>2022-08-12T13:20:52.000Z</time>
      </trkpt>
      <trkpt lat="45.09353" lon="5.54002">
        <ele>1337.3</ele>
        <time>2022-08-12T13:20:53.000Z</time>
      </trkpt>
      <trkpt lat="45.09354" lon="5.54001">
        <ele>1337.4</ele>
        <time>2022-08-12T13:20:55.000Z</time>
      </trkpt>
      <trkpt lat="45.09354" lon="5.54">
        <ele>1337.5</ele>
        <time>2022-08-12T13:20:56.000Z</time>
      </trkpt>
      <trkpt lat="45.09353" lon="5.53999">
        <ele>1337.7</ele>
        <time>2022-08-12T13:20:57.000Z</time>
      </trkpt>
      <trkpt lat="45.09354" lon="5.53998">
        <ele>1337.8</ele>
        <time>2022-08-12T13:20:59.000Z</time>
      </trkpt>
      <trkpt lat="45.09354" lon="5.53997">
        <ele>1338</ele>
        <time>2022-08-12T13:21:00.000Z</time>
      </trkpt>
      <trkpt lat="45.09355" lon="5.53995">
        <ele>1338.2</ele>
        <time>2022-08-12T13:21:01.000Z</time>
      </trkpt>
      <trkpt lat="45.09355" lon="5.53993">
        <ele>1338.4</ele>
        <time>2022-08-12T13:21:02.000Z</time>
      </trkpt>
      <trkpt lat="45.09357" lon="5.5399">
        <ele>1338.8</ele>
        <time>2022-08-12T13:21:03.000Z</time>
      </trkpt>
      <trkpt lat="45.09357" lon="5.53988">
        <ele>1339</ele>
        <time>2022-08-12T13:21:04.000Z</time>
      </trkpt>
      <trkpt lat="45.09358" lon="5.53986">
        <ele>1339.3</ele>
        <time>2022-08-12T13:21:05.000Z</time>
      </trkpt>
      <trkpt lat="45.09358" lon="5.53984">
        <ele>1339.5</ele>
        <time>2022-08-12T13:21:06.000Z</time>
      </trkpt>
      <trkpt lat="45.09358" lon="5.53982">
        <ele>1339.8</ele>
        <time>2022-08-12T13:21:07.000Z</time>
      </trkpt>
      <trkpt lat="45.09358" lon="5.5398">
        <ele>1340.1</ele>
        <time>2022-08-12T13:21:08.000Z</time>
      </trkpt>
      <trkpt lat="45.09358" lon="5.53978">
        <ele>1340.3</ele>
        <time>2022-08-12T13:21:11.000Z</time>
      </trkpt>
      <trkpt lat="45.09358" lon="5.53977">
        <ele>1340.5</ele>
        <time>2022-08-12T13:21:12.000Z</time>
      </trkpt>
      <trkpt lat="45.09358" lon="5.53975">
        <ele>1340.8</ele>
        <time>2022-08-12T13:21:13.000Z</time>
      </trkpt>
      <trkpt lat="45.09358" lon="5.53973">
        <ele>1341.1</ele>
        <time>2022-08-12T13:21:14.000Z</time>
      </trkpt>
      <trkpt lat="45.09359" lon="5.53971">
        <ele>1341.3</ele>
        <time>2022-08-12T13:21:15.000Z</time>
      </trkpt>
      <trkpt lat="45.09358" lon="5.53969">
        <ele>1341.5</ele>
        <time>2022-08-12T13:21:16.000Z</time>
      </trkpt>
      <trkpt lat="45.09358" lon="5.53966">
        <ele>1341.7</ele>
        <time>2022-08-12T13:21:17.000Z</time>
      </trkpt>
      <trkpt lat="45.09357" lon="5.53965">
        <ele>1341.9</ele>
        <time>2022-08-12T13:21:18.000Z</time>
      </trkpt>
      <trkpt lat="45.09357" lon="5.53963">
        <ele>1342</ele>
        <time>2022-08-12T13:21:19.000Z</time>
      </trkpt>
      <trkpt lat="45.09357" lon="5.53961">
        <ele>1342.1</ele>
        <time>2022-08-12T13:21:20.000Z</time>
      </trkpt>
      <trkpt lat="45.09357" lon="5.53959">
        <ele>1342.3</ele>
        <time>2022-08-12T13:21:21.000Z</time>
      </trkpt>
      <trkpt lat="45.09357" lon="5.53958">
        <ele>1342.4</ele>
        <time>2022-08-12T13:21:22.000Z</time>
      </trkpt>
      <trkpt lat="45.09356" lon="5.53956">
        <ele>1342.6</ele>
        <time>2022-08-12T13:21:24.000Z</time>
      </trkpt>
      <trkpt lat="45.09357" lon="5.53955">
        <ele>1342.7</ele>
        <time>2022-08-12T13:21:25.000Z</time>
      </trkpt>
      <trkpt lat="45.09356" lon="5.53954">
        <ele>1342.8</ele>
        <time>2022-08-12T13:21:26.000Z</time>
      </trkpt>
      <trkpt lat="45.09356" lon="5.53953">
        <ele>1342.9</ele>
        <time>2022-08-12T13:21:27.000Z</time>
      </trkpt>
      <trkpt lat="45.09356" lon="5.53951">
        <ele>1343</ele>
        <time>2022-08-12T13:21:28.000Z</time>
      </trkpt>
      <trkpt lat="45.09356" lon="5.5395">
        <ele>1343.2</ele>
        <time>2022-08-12T13:21:29.000Z</time>
      </trkpt>
      <trkpt lat="45.09355" lon="5.53948">
        <ele>1343.4</ele>
        <time>2022-08-12T13:21:30.000Z</time>
      </trkpt>
      <trkpt lat="45.09355" lon="5.53946">
        <ele>1343.6</ele>
        <time>2022-08-12T13:21:31.000Z</time>
      </trkpt>
      <trkpt lat="45.09355" lon="5.53945">
        <ele>1343.7</ele>
        <time>2022-08-12T13:21:32.000Z</time>
      </trkpt>
      <trkpt lat="45.09355" lon="5.53944">
        <ele>1343.7</ele>
        <time>2022-08-12T13:21:34.000Z</time>
      </trkpt>
      <trkpt lat="45.09355" lon="5.53943">
        <ele>1343.8</ele>
        <time>2022-08-12T13:21:35.000Z</time>
      </trkpt>
      <trkpt lat="45.09355" lon="5.53941">
        <ele>1344</ele>
        <time>2022-08-12T13:21:36.000Z</time>
      </trkpt>
      <trkpt lat="45.09354" lon="5.5394">
        <ele>1344.2</ele>
        <time>2022-08-12T13:21:37.000Z</time>
      </trkpt>
      <trkpt lat="45.09355" lon="5.53939">
        <ele>1344.3</ele>
        <time>2022-08-12T13:21:39.000Z</time>
      </trkpt>
      <trkpt lat="45.09354" lon="5.53936">
        <ele>1344.6</ele>
        <time>2022-08-12T13:21:40.000Z</time>
      </trkpt>
      <trkpt lat="45.09354" lon="5.53934">
        <ele>1344.9</ele>
        <time>2022-08-12T13:21:41.000Z</time>
      </trkpt>
      <trkpt lat="45.09354" lon="5.53932">
        <ele>1345.1</ele>
        <time>2022-08-12T13:21:42.000Z</time>
      </trkpt>
      <trkpt lat="45.09354" lon="5.5393">
        <ele>1345.2</ele>
        <time>2022-08-12T13:21:43.000Z</time>
      </trkpt>
      <trkpt lat="45.09354" lon="5.53929">
        <ele>1345.3</ele>
        <time>2022-08-12T13:21:44.000Z</time>
      </trkpt>
      <trkpt lat="45.09354" lon="5.53928">
        <ele>1345.4</ele>
        <time>2022-08-12T13:21:45.000Z</time>
      </trkpt>
      <trkpt lat="45.09354" lon="5.53926">
        <ele>1345.6</ele>
        <time>2022-08-12T13:21:46.000Z</time>
      </trkpt>
      <trkpt lat="45.09355" lon="5.53924">
        <ele>1345.7</ele>
        <time>2022-08-12T13:21:47.000Z</time>
      </trkpt>
      <trkpt lat="45.09355" lon="5.53922">
        <ele>1345.9</ele>
        <time>2022-08-12T13:21:48.000Z</time>
      </trkpt>
      <trkpt lat="45.09355" lon="5.5392">
        <ele>1346.1</ele>
        <time>2022-08-12T13:21:49.000Z</time>
      </trkpt>
      <trkpt lat="45.09355" lon="5.53919">
        <ele>1346.2</ele>
        <time>2022-08-12T13:21:50.000Z</time>
      </trkpt>
      <trkpt lat="45.09355" lon="5.53917">
        <ele>1346.4</ele>
        <time>2022-08-12T13:21:51.000Z</time>
      </trkpt>
      <trkpt lat="45.09355" lon="5.53916">
        <ele>1346.5</ele>
        <time>2022-08-12T13:21:52.000Z</time>
      </trkpt>
      <trkpt lat="45.09356" lon="5.53914">
        <ele>1346.5</ele>
        <time>2022-08-12T13:21:53.000Z</time>
      </trkpt>
      <trkpt lat="45.09356" lon="5.53913">
        <ele>1346.5</ele>
        <time>2022-08-12T13:21:54.000Z</time>
      </trkpt>
      <trkpt lat="45.09357" lon="5.53912">
        <ele>1346.5</ele>
        <time>2022-08-12T13:21:55.000Z</time>
      </trkpt>
      <trkpt lat="45.09358" lon="5.5391">
        <ele>1346.5</ele>
        <time>2022-08-12T13:21:56.000Z</time>
      </trkpt>
      <trkpt lat="45.09358" lon="5.53909">
        <ele>1346.5</ele>
        <time>2022-08-12T13:21:57.000Z</time>
      </trkpt>
      <trkpt lat="45.09359" lon="5.53907">
        <ele>1346.5</ele>
        <time>2022-08-12T13:21:58.000Z</time>
      </trkpt>
      <trkpt lat="45.0936" lon="5.53906">
        <ele>1346.5</ele>
        <time>2022-08-12T13:21:59.000Z</time>
      </trkpt>
      <trkpt lat="45.09359" lon="5.53905">
        <ele>1346.6</ele>
        <time>2022-08-12T13:22:00.000Z</time>
      </trkpt>
      <trkpt lat="45.09359" lon="5.53904">
        <ele>1346.6</ele>
        <time>2022-08-12T13:22:01.000Z</time>
      </trkpt>
      <trkpt lat="45.0936" lon="5.53903">
        <ele>1346.6</ele>
        <time>2022-08-12T13:22:03.000Z</time>
      </trkpt>
      <trkpt lat="45.0936" lon="5.53902">
        <ele>1346.7</ele>
        <time>2022-08-12T13:22:04.000Z</time>
      </trkpt>
      <trkpt lat="45.0936" lon="5.539">
        <ele>1346.7</ele>
        <time>2022-08-12T13:22:05.000Z</time>
      </trkpt>
      <trkpt lat="45.0936" lon="5.53899">
        <ele>1346.7</ele>
        <time>2022-08-12T13:22:06.000Z</time>
      </trkpt>
      <trkpt lat="45.0936" lon="5.53897">
        <ele>1346.8</ele>
        <time>2022-08-12T13:22:07.000Z</time>
      </trkpt>
      <trkpt lat="45.09359" lon="5.53896">
        <ele>1347</ele>
        <time>2022-08-12T13:22:08.000Z</time>
      </trkpt>
      <trkpt lat="45.09358" lon="5.53894">
        <ele>1347.1</ele>
        <time>2022-08-12T13:22:09.000Z</time>
      </trkpt>
      <trkpt lat="45.09359" lon="5.53892">
        <ele>1347.2</ele>
        <time>2022-08-12T13:22:10.000Z</time>
      </trkpt>
      <trkpt lat="45.09359" lon="5.5389">
        <ele>1347.2</ele>
        <time>2022-08-12T13:22:11.000Z</time>
      </trkpt>
      <trkpt lat="45.09359" lon="5.53888">
        <ele>1347.2</ele>
        <time>2022-08-12T13:22:12.000Z</time>
      </trkpt>
      <trkpt lat="45.09359" lon="5.53886">
        <ele>1347.2</ele>
        <time>2022-08-12T13:22:13.000Z</time>
      </trkpt>
      <trkpt lat="45.0936" lon="5.53884">
        <ele>1347.2</ele>
        <time>2022-08-12T13:22:14.000Z</time>
      </trkpt>
      <trkpt lat="45.0936" lon="5.53883">
        <ele>1347.2</ele>
        <time>2022-08-12T13:22:15.000Z</time>
      </trkpt>
      <trkpt lat="45.09359" lon="5.53879">
        <ele>1347.2</ele>
        <time>2022-08-12T13:22:16.000Z</time>
      </trkpt>
      <trkpt lat="45.0936" lon="5.53878">
        <ele>1347.2</ele>
        <time>2022-08-12T13:22:17.000Z</time>
      </trkpt>
      <trkpt lat="45.09359" lon="5.53876">
        <ele>1347.2</ele>
        <time>2022-08-12T13:22:18.000Z</time>
      </trkpt>
      <trkpt lat="45.0936" lon="5.53875">
        <ele>1347.1</ele>
        <time>2022-08-12T13:22:19.000Z</time>
      </trkpt>
      <trkpt lat="45.0936" lon="5.53873">
        <ele>1347.1</ele>
        <time>2022-08-12T13:22:20.000Z</time>
      </trkpt>
      <trkpt lat="45.0936" lon="5.53872">
        <ele>1347.1</ele>
        <time>2022-08-12T13:22:22.000Z</time>
      </trkpt>
      <trkpt lat="45.0936" lon="5.5387">
        <ele>1347.1</ele>
        <time>2022-08-12T13:22:23.000Z</time>
      </trkpt>
      <trkpt lat="45.0936" lon="5.53869">
        <ele>1347.1</ele>
        <time>2022-08-12T13:22:24.000Z</time>
      </trkpt>
      <trkpt lat="45.0936" lon="5.53868">
        <ele>1347.1</ele>
        <time>2022-08-12T13:22:25.000Z</time>
      </trkpt>
      <trkpt lat="45.0936" lon="5.53866">
        <ele>1347.1</ele>
        <time>2022-08-12T13:22:26.000Z</time>
      </trkpt>
      <trkpt lat="45.0936" lon="5.53864">
        <ele>1347.2</ele>
        <time>2022-08-12T13:22:27.000Z</time>
      </trkpt>
      <trkpt lat="45.09359" lon="5.53862">
        <ele>1347.2</ele>
        <time>2022-08-12T13:22:28.000Z</time>
      </trkpt>
      <trkpt lat="45.0936" lon="5.5386">
        <ele>1347.1</ele>
        <time>2022-08-12T13:22:29.000Z</time>
      </trkpt>
      <trkpt lat="45.09359" lon="5.53858">
        <ele>1347.1</ele>
        <time>2022-08-12T13:22:30.000Z</time>
      </trkpt>
      <trkpt lat="45.09359" lon="5.53857">
        <ele>1347</ele>
        <time>2022-08-12T13:22:31.000Z</time>
      </trkpt>
      <trkpt lat="45.09359" lon="5.53855">
        <ele>1346.9</ele>
        <time>2022-08-12T13:22:32.000Z</time>
      </trkpt>
      <trkpt lat="45.09359" lon="5.53853">
        <ele>1346.9</ele>
        <time>2022-08-12T13:22:33.000Z</time>
      </trkpt>
      <trkpt lat="45.09359" lon="5.5385">
        <ele>1346.8</ele>
        <time>2022-08-12T13:22:34.000Z</time>
      </trkpt>
      <trkpt lat="45.09359" lon="5.53848">
        <ele>1346.7</ele>
        <time>2022-08-12T13:22:35.000Z</time>
      </trkpt>
      <trkpt lat="45.09359" lon="5.53846">
        <ele>1346.6</ele>
        <time>2022-08-12T13:22:36.000Z</time>
      </trkpt>
      <trkpt lat="45.09359" lon="5.53844">
        <ele>1346.5</ele>
        <time>2022-08-12T13:22:37.000Z</time>
      </trkpt>
      <trkpt lat="45.0936" lon="5.53842">
        <ele>1346.4</ele>
        <time>2022-08-12T13:22:38.000Z</time>
      </trkpt>
      <trkpt lat="45.0936" lon="5.5384">
        <ele>1346.3</ele>
        <time>2022-08-12T13:22:39.000Z</time>
      </trkpt>
      <trkpt lat="45.0936" lon="5.53839">
        <ele>1346.3</ele>
        <time>2022-08-12T13:22:40.000Z</time>
      </trkpt>
      <trkpt lat="45.0936" lon="5.53838">
        <ele>1346.3</ele>
        <time>2022-08-12T13:22:44.000Z</time>
      </trkpt>
      <trkpt lat="45.09364" lon="5.53835">
        <ele>1345.9</ele>
        <time>2022-08-12T13:26:02.000Z</time>
      </trkpt>
      <trkpt lat="45.09364" lon="5.53837">
        <ele>1345.9</ele>
        <time>2022-08-12T13:26:03.000Z</time>
      </trkpt>
      <trkpt lat="45.09365" lon="5.53838">
        <ele>1345.9</ele>
        <time>2022-08-12T13:26:04.000Z</time>
      </trkpt>
      <trkpt lat="45.09366" lon="5.5384">
        <ele>1345.9</ele>
        <time>2022-08-12T13:26:50.000Z</time>
      </trkpt>
      <trkpt lat="45.09367" lon="5.5384">
        <ele>1345.9</ele>
        <time>2022-08-12T13:26:51.000Z</time>
      </trkpt>
      <trkpt lat="45.09367" lon="5.53841">
        <ele>1345.9</ele>
        <time>2022-08-12T13:26:52.000Z</time>
      </trkpt>
      <trkpt lat="45.09368" lon="5.5384">
        <ele>1353</ele>
      </trkpt>
      <trkpt lat="45.0937" lon="5.53839">
        <ele>1353</ele>
      </trkpt>
      <trkpt lat="45.09372" lon="5.53839">
        <ele>1352</ele>
      </trkpt>
      <trkpt lat="45.09374" lon="5.53839">
        <ele>1352</ele>
      </trkpt>
      <trkpt lat="45.09376" lon="5.53839">
        <ele>1352</ele>
      </trkpt>
      <trkpt lat="45.09378" lon="5.53839">
        <ele>1352</ele>
      </trkpt>
      <trkpt lat="45.09381" lon="5.53838">
        <ele>1352</ele>
      </trkpt>
      <trkpt lat="45.09384" lon="5.53838">
        <ele>1352</ele>
      </trkpt>
      <trkpt lat="45.09386" lon="5.53839">
        <ele>1352</ele>
      </trkpt>
      <trkpt lat="45.09388" lon="5.53837">
        <ele>1352</ele>
      </trkpt>
      <trkpt lat="45.0939" lon="5.53835">
        <ele>1352</ele>
      </trkpt>
      <trkpt lat="45.09392" lon="5.53835">
        <ele>1352</ele>
      </trkpt>
      <trkpt lat="45.09395" lon="5.53836">
        <ele>1351</ele>
      </trkpt>
      <trkpt lat="45.09397" lon="5.53838">
        <ele>1351</ele>
      </trkpt>
      <trkpt lat="45.09399" lon="5.5384">
        <ele>1351</ele>
      </trkpt>
      <trkpt lat="45.09402" lon="5.53841">
        <ele>1351</ele>
      </trkpt>
      <trkpt lat="45.09405" lon="5.5384">
        <ele>1351</ele>
      </trkpt>
      <trkpt lat="45.09408" lon="5.53837">
        <ele>1351</ele>
      </trkpt>
      <trkpt lat="45.09411" lon="5.53835">
        <ele>1351</ele>
      </trkpt>
      <trkpt lat="45.09414" lon="5.53832">
        <ele>1350</ele>
      </trkpt>
      <trkpt lat="45.09418" lon="5.53828">
        <ele>1348</ele>
      </trkpt>
      <trkpt lat="45.0942" lon="5.53824">
        <ele>1347</ele>
      </trkpt>
      <trkpt lat="45.09422" lon="5.53819">
        <ele>1346</ele>
      </trkpt>
      <trkpt lat="45.09424" lon="5.53815">
        <ele>1346</ele>
      </trkpt>
      <trkpt lat="45.09426" lon="5.5381">
        <ele>1345</ele>
      </trkpt>
      <trkpt lat="45.09427" lon="5.53807">
        <ele>1345</ele>
      </trkpt>
      <trkpt lat="45.09428" lon="5.53806">
        <ele>1345</ele>
      </trkpt>
      <trkpt lat="45.09428" lon="5.53803">
        <ele>1344</ele>
      </trkpt>
      <trkpt lat="45.09429" lon="5.53801">
        <ele>1344</ele>
      </trkpt>
      <trkpt lat="45.09431" lon="5.53799">
        <ele>1344</ele>
      </trkpt>
      <trkpt lat="45.09433" lon="5.53798">
        <ele>1344</ele>
      </trkpt>
      <trkpt lat="45.09441" lon="5.538">
        <ele>1343</ele>
      </trkpt>
      <trkpt lat="45.09441" lon="5.53803">
        <ele>1344</ele>
      </trkpt>
      <trkpt lat="45.09441" lon="5.53804">
        <ele>1344</ele>
      </trkpt>
      <trkpt lat="45.09443" lon="5.53804">
        <ele>1343</ele>
      </trkpt>
      <trkpt lat="45.09445" lon="5.53803">
        <ele>1343</ele>
      </trkpt>
      <trkpt lat="45.09447" lon="5.53801">
        <ele>1343</ele>
      </trkpt>
      <trkpt lat="45.09449" lon="5.53799">
        <ele>1343</ele>
      </trkpt>
      <trkpt lat="45.09451" lon="5.53798">
        <ele>1343</ele>
      </trkpt>
      <trkpt lat="45.09454" lon="5.53799">
        <ele>1342</ele>
      </trkpt>
      <trkpt lat="45.09456" lon="5.538">
        <ele>1342</ele>
      </trkpt>
      <trkpt lat="45.09459" lon="5.538">
        <ele>1342</ele>
      </trkpt>
      <trkpt lat="45.09462" lon="5.538">
        <ele>1342</ele>
      </trkpt>
      <trkpt lat="45.09465" lon="5.538">
        <ele>1342</ele>
      </trkpt>
      <trkpt lat="45.09467" lon="5.53802">
        <ele>1342</ele>
      </trkpt>
      <trkpt lat="45.09469" lon="5.53804">
        <ele>1342</ele>
      </trkpt>
      <trkpt lat="45.0947" lon="5.53806">
        <ele>1342</ele>
      </trkpt>
      <trkpt lat="45.09471" lon="5.53808">
        <ele>1341</ele>
      </trkpt>
      <trkpt lat="45.09473" lon="5.53809">
        <ele>1341</ele>
      </trkpt>
      <trkpt lat="45.09479" lon="5.53808">
        <ele>1341</ele>
      </trkpt>
      <trkpt lat="45.09483" lon="5.53808">
        <ele>1341</ele>
      </trkpt>
      <trkpt lat="45.09486" lon="5.53808">
        <ele>1341</ele>
      </trkpt>
      <trkpt lat="45.09489" lon="5.53808">
        <ele>1341</ele>
      </trkpt>
      <trkpt lat="45.09492" lon="5.53809">
        <ele>1340</ele>
      </trkpt>
      <trkpt lat="45.09494" lon="5.53812">
        <ele>1340</ele>
      </trkpt>
      <trkpt lat="45.09494" lon="5.53814">
        <ele>1341</ele>
      </trkpt>
      <trkpt lat="45.09495" lon="5.53816">
        <ele>1341</ele>
      </trkpt>
      <trkpt lat="45.09496" lon="5.53819">
        <ele>1340</ele>
      </trkpt>
      <trkpt lat="45.09498" lon="5.53821">
        <ele>1340</ele>
      </trkpt>
      <trkpt lat="45.09499" lon="5.53824">
        <ele>1340</ele>
      </trkpt>
      <trkpt lat="45.09501" lon="5.53826">
        <ele>1338</ele>
      </trkpt>
      <trkpt lat="45.09504" lon="5.53827">
        <ele>1338</ele>
      </trkpt>
      <trkpt lat="45.09506" lon="5.53827">
        <ele>1338</ele>
      </trkpt>
      <trkpt lat="45.09508" lon="5.53826">
        <ele>1337</ele>
      </trkpt>
      <trkpt lat="45.09511" lon="5.53824">
        <ele>1336</ele>
      </trkpt>
      <trkpt lat="45.09514" lon="5.53821">
        <ele>1335</ele>
      </trkpt>
      <trkpt lat="45.09518" lon="5.53819">
        <ele>1335</ele>
      </trkpt>
      <trkpt lat="45.09522" lon="5.53819">
        <ele>1334</ele>
      </trkpt>
      <trkpt lat="45.09525" lon="5.53821">
        <ele>1334</ele>
      </trkpt>
      <trkpt lat="45.09528" lon="5.53823">
        <ele>1334</ele>
      </trkpt>
      <trkpt lat="45.09531" lon="5.53826">
        <ele>1334</ele>
      </trkpt>
      <trkpt lat="45.09535" lon="5.53829">
        <ele>1334</ele>
      </trkpt>
      <trkpt lat="45.09537" lon="5.53832">
        <ele>1333</ele>
      </trkpt>
      <trkpt lat="45.09539" lon="5.53834">
        <ele>1338</ele>
      </trkpt>
      <trkpt lat="45.09542" lon="5.53836">
        <ele>1337</ele>
      </trkpt>
      <trkpt lat="45.09545" lon="5.53836">
        <ele>1337</ele>
      </trkpt>
      <trkpt lat="45.09547" lon="5.53837">
        <ele>1337</ele>
      </trkpt>
      <trkpt lat="45.09551" lon="5.53838">
        <ele>1337</ele>
      </trkpt>
      <trkpt lat="45.09554" lon="5.5384">
        <ele>1336</ele>
      </trkpt>
      <trkpt lat="45.09557" lon="5.53842">
        <ele>1336</ele>
      </trkpt>
      <trkpt lat="45.09559" lon="5.53843">
        <ele>1336</ele>
      </trkpt>
      <trkpt lat="45.09562" lon="5.53844">
        <ele>1336</ele>
      </trkpt>
      <trkpt lat="45.09564" lon="5.53845">
        <ele>1336</ele>
      </trkpt>
      <trkpt lat="45.09566" lon="5.53847">
        <ele>1335</ele>
      </trkpt>
      <trkpt lat="45.09568" lon="5.53848">
        <ele>1335</ele>
      </trkpt>
      <trkpt lat="45.0957" lon="5.5385">
        <ele>1335</ele>
      </trkpt>
      <trkpt lat="45.09572" lon="5.53852">
        <ele>1335</ele>
      </trkpt>
      <trkpt lat="45.09573" lon="5.53854">
        <ele>1336</ele>
      </trkpt>
      <trkpt lat="45.09575" lon="5.53857">
        <ele>1336</ele>
      </trkpt>
      <trkpt lat="45.09576" lon="5.53859">
        <ele>1336</ele>
      </trkpt>
      <trkpt lat="45.09577" lon="5.53861">
        <ele>1336</ele>
      </trkpt>
      <trkpt lat="45.09578" lon="5.53863">
        <ele>1336</ele>
      </trkpt>
      <trkpt lat="45.0958" lon="5.53865">
        <ele>1336</ele>
      </trkpt>
      <trkpt lat="45.09582" lon="5.53867">
        <ele>1336</ele>
      </trkpt>
      <trkpt lat="45.09584" lon="5.5387">
        <ele>1333</ele>
      </trkpt>
      <trkpt lat="45.09586" lon="5.53873">
        <ele>1333</ele>
      </trkpt>
      <trkpt lat="45.09588" lon="5.53877">
        <ele>1333</ele>
      </trkpt>
      <trkpt lat="45.0959" lon="5.5388">
        <ele>1333</ele>
      </trkpt>
      <trkpt lat="45.09591" lon="5.53882">
        <ele>1333</ele>
      </trkpt>
      <trkpt lat="45.09593" lon="5.53883">
        <ele>1333</ele>
      </trkpt>
      <trkpt lat="45.09595" lon="5.53884">
        <ele>1333</ele>
      </trkpt>
      <trkpt lat="45.09597" lon="5.53884">
        <ele>1333</ele>
      </trkpt>
      <trkpt lat="45.096" lon="5.53886">
        <ele>1333</ele>
      </trkpt>
      <trkpt lat="45.09602" lon="5.53888">
        <ele>1333</ele>
      </trkpt>
      <trkpt lat="45.09603" lon="5.53892">
        <ele>1333</ele>
      </trkpt>
      <trkpt lat="45.09605" lon="5.53895">
        <ele>1333</ele>
      </trkpt>
      <trkpt lat="45.09608" lon="5.53898">
        <ele>1333</ele>
      </trkpt>
      <trkpt lat="45.09611" lon="5.53899">
        <ele>1333</ele>
      </trkpt>
      <trkpt lat="45.09613" lon="5.539">
        <ele>1333</ele>
      </trkpt>
      <trkpt lat="45.09615" lon="5.539">
        <ele>1333</ele>
      </trkpt>
      <trkpt lat="45.09616" lon="5.539">
        <ele>1333</ele>
      </trkpt>
      <trkpt lat="45.09616" lon="5.53899">
        <ele>1333</ele>
      </trkpt>
      <trkpt lat="45.09617" lon="5.53898">
        <ele>1333</ele>
      </trkpt>
      <trkpt lat="45.09617" lon="5.53896">
        <ele>1333</ele>
      </trkpt>
      <trkpt lat="45.09618" lon="5.53894">
        <ele>1333</ele>
      </trkpt>
      <trkpt lat="45.0962" lon="5.53892">
        <ele>1333</ele>
      </trkpt>
      <trkpt lat="45.09621" lon="5.5389">
        <ele>1332</ele>
      </trkpt>
      <trkpt lat="45.09623" lon="5.53888">
        <ele>1332</ele>
      </trkpt>
      <trkpt lat="45.09625" lon="5.53887">
        <ele>1332</ele>
      </trkpt>
      <trkpt lat="45.09629" lon="5.53886">
        <ele>1332</ele>
      </trkpt>
      <trkpt lat="45.09632" lon="5.53885">
        <ele>1332</ele>
      </trkpt>
      <trkpt lat="45.09634" lon="5.53885">
        <ele>1332</ele>
      </trkpt>
      <trkpt lat="45.09638" lon="5.53885">
        <ele>1332</ele>
      </trkpt>
      <trkpt lat="45.0964" lon="5.53883">
        <ele>1332</ele>
      </trkpt>
      <trkpt lat="45.09642" lon="5.53882">
        <ele>1331</ele>
      </trkpt>
      <trkpt lat="45.09644" lon="5.5388">
        <ele>1331</ele>
      </trkpt>
      <trkpt lat="45.09645" lon="5.53877">
        <ele>1331</ele>
      </trkpt>
      <trkpt lat="45.09647" lon="5.53874">
        <ele>1331</ele>
      </trkpt>
      <trkpt lat="45.0965" lon="5.53871">
        <ele>1331</ele>
      </trkpt>
      <trkpt lat="45.09653" lon="5.53867">
        <ele>1331</ele>
      </trkpt>
      <trkpt lat="45.09656" lon="5.53864">
        <ele>1330</ele>
      </trkpt>
      <trkpt lat="45.09658" lon="5.53861">
        <ele>1330</ele>
      </trkpt>
      <trkpt lat="45.09662" lon="5.5386">
        <ele>1330</ele>
      </trkpt>
      <trkpt lat="45.09665" lon="5.53859">
        <ele>1330</ele>
      </trkpt>
      <trkpt lat="45.09668" lon="5.53858">
        <ele>1325</ele>
      </trkpt>
      <trkpt lat="45.09672" lon="5.53857">
        <ele>1324</ele>
      </trkpt>
      <trkpt lat="45.09676" lon="5.53856">
        <ele>1324</ele>
      </trkpt>
      <trkpt lat="45.09679" lon="5.53856">
        <ele>1324</ele>
      </trkpt>
      <trkpt lat="45.09683" lon="5.53858">
        <ele>1324</ele>
      </trkpt>
      <trkpt lat="45.09686" lon="5.53859">
        <ele>1324</ele>
      </trkpt>
      <trkpt lat="45.09688" lon="5.53861">
        <ele>1323</ele>
      </trkpt>
      <trkpt lat="45.09691" lon="5.53864">
        <ele>1323</ele>
      </trkpt>
      <trkpt lat="45.09693" lon="5.53866">
        <ele>1323</ele>
      </trkpt>
      <trkpt lat="45.09695" lon="5.53868">
        <ele>1323</ele>
      </trkpt>
      <trkpt lat="45.09698" lon="5.53869">
        <ele>1323</ele>
      </trkpt>
      <trkpt lat="45.09701" lon="5.53868">
        <ele>1322</ele>
      </trkpt>
      <trkpt lat="45.09704" lon="5.53867">
        <ele>1322</ele>
      </trkpt>
      <trkpt lat="45.09707" lon="5.53865">
        <ele>1322</ele>
      </trkpt>
      <trkpt lat="45.09711" lon="5.53864">
        <ele>1322</ele>
      </trkpt>
      <trkpt lat="45.09715" lon="5.53865">
        <ele>1321</ele>
      </trkpt>
      <trkpt lat="45.09718" lon="5.53867">
        <ele>1321</ele>
      </trkpt>
      <trkpt lat="45.09722" lon="5.53871">
        <ele>1321</ele>
      </trkpt>
      <trkpt lat="45.09724" lon="5.53874">
        <ele>1321</ele>
      </trkpt>
      <trkpt lat="45.09726" lon="5.53878">
        <ele>1321</ele>
      </trkpt>
      <trkpt lat="45.09726" lon="5.53881">
        <ele>1321</ele>
      </trkpt>
      <trkpt lat="45.09728" lon="5.53884">
        <ele>1321</ele>
      </trkpt>
      <trkpt lat="45.0973" lon="5.53886">
        <ele>1320</ele>
      </trkpt>
      <trkpt lat="45.09733" lon="5.53887">
        <ele>1320</ele>
      </trkpt>
      <trkpt lat="45.09737" lon="5.53887">
        <ele>1320</ele>
      </trkpt>
      <trkpt lat="45.0974" lon="5.53887">
        <ele>1320</ele>
      </trkpt>
      <trkpt lat="45.09744" lon="5.53887">
        <ele>1320</ele>
      </trkpt>
      <trkpt lat="45.09748" lon="5.53889">
        <ele>1320</ele>
      </trkpt>
      <trkpt lat="45.09751" lon="5.53893">
        <ele>1311</ele>
      </trkpt>
      <trkpt lat="45.09754" lon="5.53895">
        <ele>1311</ele>
      </trkpt>
      <trkpt lat="45.09758" lon="5.53897">
        <ele>1311</ele>
      </trkpt>
      <trkpt lat="45.0976" lon="5.53897">
        <ele>1311</ele>
      </trkpt>
      <trkpt lat="45.09763" lon="5.53897">
        <ele>1311</ele>
      </trkpt>
      <trkpt lat="45.09768" lon="5.53898">
        <ele>1310</ele>
      </trkpt>
      <trkpt lat="45.09773" lon="5.539">
        <ele>1310</ele>
      </trkpt>
      <trkpt lat="45.09777" lon="5.53902">
        <ele>1310</ele>
      </trkpt>
      <trkpt lat="45.0978" lon="5.53905">
        <ele>1309</ele>
      </trkpt>
      <trkpt lat="45.09784" lon="5.53906">
        <ele>1309</ele>
      </trkpt>
      <trkpt lat="45.09787" lon="5.53907">
        <ele>1308</ele>
      </trkpt>
      <trkpt lat="45.0979" lon="5.53908">
        <ele>1308</ele>
      </trkpt>
      <trkpt lat="45.09792" lon="5.5391">
        <ele>1307</ele>
      </trkpt>
      <trkpt lat="45.09795" lon="5.53912">
        <ele>1307</ele>
      </trkpt>
      <trkpt lat="45.09798" lon="5.53914">
        <ele>1307</ele>
      </trkpt>
      <trkpt lat="45.09801" lon="5.53916">
        <ele>1306</ele>
      </trkpt>
      <trkpt lat="45.09805" lon="5.53917">
        <ele>1304</ele>
      </trkpt>
      <trkpt lat="45.09808" lon="5.53919">
        <ele>1303</ele>
      </trkpt>
      <trkpt lat="45.09813" lon="5.5392">
        <ele>1303</ele>
      </trkpt>
      <trkpt lat="45.09817" lon="5.53921">
        <ele>1302</ele>
      </trkpt>
      <trkpt lat="45.09821" lon="5.53923">
        <ele>1302</ele>
      </trkpt>
      <trkpt lat="45.09826" lon="5.53924">
        <ele>1301</ele>
      </trkpt>
      <trkpt lat="45.09829" lon="5.53925">
        <ele>1301</ele>
      </trkpt>
      <trkpt lat="45.09832" lon="5.53926">
        <ele>1301</ele>
      </trkpt>
      <trkpt lat="45.09835" lon="5.53926">
        <ele>1296</ele>
      </trkpt>
      <trkpt lat="45.09839" lon="5.53926">
        <ele>1296</ele>
      </trkpt>
      <trkpt lat="45.09842" lon="5.53926">
        <ele>1295</ele>
      </trkpt>
      <trkpt lat="45.09845" lon="5.53927">
        <ele>1295</ele>
      </trkpt>
      <trkpt lat="45.09847" lon="5.53928">
        <ele>1294</ele>
      </trkpt>
      <trkpt lat="45.09849" lon="5.5393">
        <ele>1293</ele>
      </trkpt>
      <trkpt lat="45.09851" lon="5.53933">
        <ele>1293</ele>
      </trkpt>
      <trkpt lat="45.09851" lon="5.53927">
        <ele>1291.6</ele>
      </trkpt>
      <trkpt lat="45.09868" lon="5.53938">
        <ele>1286.7</ele>
      </trkpt>
      <trkpt lat="45.09869" lon="5.53966">
        <ele>1282.2</ele>
      </trkpt>
      <trkpt lat="45.09862" lon="5.53993">
        <ele>1278.3</ele>
      </trkpt>
      <trkpt lat="45.09874" lon="5.54025">
        <ele>1275</ele>
      </trkpt>
      <trkpt lat="45.09892" lon="5.54031">
        <ele>1271.4</ele>
      </trkpt>
      <trkpt lat="45.09911" lon="5.54032">
        <ele>1271.4</ele>
      </trkpt>
      <trkpt lat="45.09928" lon="5.54044">
        <ele>1266.5</ele>
      </trkpt>
      <trkpt lat="45.09949" lon="5.54052">
        <ele>1265.3</ele>
      </trkpt>
      <trkpt lat="45.09964" lon="5.54068">
        <ele>1262.7</ele>
      </trkpt>
      <trkpt lat="45.09983" lon="5.54058">
        <ele>1263</ele>
      </trkpt>
      <trkpt lat="45.10001" lon="5.54066">
        <ele>1260.6</ele>
      </trkpt>
      <trkpt lat="45.10022" lon="5.54067">
        <ele>1257.1</ele>
      </trkpt>
      <trkpt lat="45.10039" lon="5.54083">
        <ele>1257.4</ele>
      </trkpt>
      <trkpt lat="45.10059" lon="5.54097">
        <ele>1253.9</ele>
      </trkpt>
      <trkpt lat="45.10074" lon="5.54111">
        <ele>1250.3</ele>
      </trkpt>
      <trkpt lat="45.1009" lon="5.54123">
        <ele>1249.2</ele>
      </trkpt>
      <trkpt lat="45.10083" lon="5.54148">
        <ele>1255</ele>
      </trkpt>
      <trkpt lat="45.10081" lon="5.54177">
        <ele>1253</ele>
      </trkpt>
      <trkpt lat="45.10095" lon="5.54197">
        <ele>1251.6</ele>
      </trkpt>
      <trkpt lat="45.10113" lon="5.54209">
        <ele>1253.6</ele>
      </trkpt>
      <trkpt lat="45.10132" lon="5.54214">
        <ele>1252.4</ele>
      </trkpt>
      <trkpt lat="45.10149" lon="5.54199">
        <ele>1254.3</ele>
      </trkpt>
      <trkpt lat="45.10168" lon="5.54208">
        <ele>1254.9</ele>
      </trkpt>
      <trkpt lat="45.10184" lon="5.54223">
        <ele>1250.6</ele>
      </trkpt>
      <trkpt lat="45.10203" lon="5.54225">
        <ele>1247.4</ele>
      </trkpt>
      <trkpt lat="45.10214" lon="5.54197">
        <ele>1247.9</ele>
      </trkpt>
      <trkpt lat="45.10228" lon="5.54179">
        <ele>1245.4</ele>
      </trkpt>
      <trkpt lat="45.10228" lon="5.54151">
        <ele>1243.5</ele>
      </trkpt>
      <trkpt lat="45.10233" lon="5.54126">
        <ele>1241.9</ele>
      </trkpt>
      <trkpt lat="45.1025" lon="5.54114">
        <ele>1238</ele>
      </trkpt>
      <trkpt lat="45.10268" lon="5.54107">
        <ele>1239</ele>
      </trkpt>
      <trkpt lat="45.10287" lon="5.54102">
        <ele>1242.8</ele>
      </trkpt>
      <trkpt lat="45.10305" lon="5.54094">
        <ele>1244.1</ele>
      </trkpt>
      <trkpt lat="45.1031" lon="5.54066">
        <ele>1244.4</ele>
      </trkpt>
      <trkpt lat="45.10313" lon="5.54036">
        <ele>1240.1</ele>
      </trkpt>
      <trkpt lat="45.10301" lon="5.54014">
        <ele>1239.1</ele>
      </trkpt>
      <trkpt lat="45.10299" lon="5.53985">
        <ele>1236</ele>
      </trkpt>
      <trkpt lat="45.10286" lon="5.53964">
        <ele>1232.1</ele>
      </trkpt>
      <trkpt lat="45.1028" lon="5.53934">
        <ele>1227.2</ele>
      </trkpt>
      <trkpt lat="45.10281" lon="5.53907">
        <ele>1225.3</ele>
      </trkpt>
      <trkpt lat="45.10285" lon="5.53881">
        <ele>1222.6</ele>
      </trkpt>
      <trkpt lat="45.10267" lon="5.5389">
        <ele>1219.2</ele>
      </trkpt>
      <trkpt lat="45.1027" lon="5.53864">
        <ele>1217.3</ele>
      </trkpt>
      <trkpt lat="45.10265" lon="5.53835">
        <ele>1213.5</ele>
      </trkpt>
      <trkpt lat="45.10272" lon="5.53811">
        <ele>1213.2</ele>
      </trkpt>
      <trkpt lat="45.10282" lon="5.53786">
        <ele>1211.4</ele>
      </trkpt>
      <trkpt lat="45.10288" lon="5.5376">
        <ele>1205</ele>
      </trkpt>
      <trkpt lat="45.10297" lon="5.53733">
        <ele>1200.6</ele>
      </trkpt>
      <trkpt lat="45.10311" lon="5.53708">
        <ele>1197.3</ele>
      </trkpt>
      <trkpt lat="45.10319" lon="5.53681">
        <ele>1194.6</ele>
      </trkpt>
      <trkpt lat="45.1033" lon="5.53654">
        <ele>1193.2</ele>
      </trkpt>
      <trkpt lat="45.10345" lon="5.53638">
        <ele>1188.8</ele>
      </trkpt>
      <trkpt lat="45.10349" lon="5.5361">
        <ele>1183.3</ele>
      </trkpt>
      <trkpt lat="45.10349" lon="5.53581">
        <ele>1176.6</ele>
      </trkpt>
      <trkpt lat="45.10352" lon="5.53553">
        <ele>1176.8</ele>
      </trkpt>
      <trkpt lat="45.10352" lon="5.53526">
        <ele>1167.5</ele>
      </trkpt>
      <trkpt lat="45.1037" lon="5.53531">
        <ele>1158.4</ele>
      </trkpt>
      <trkpt lat="45.10376" lon="5.53503">
        <ele>1154.1</ele>
      </trkpt>
      <trkpt lat="45.10369" lon="5.53477">
        <ele>1144.6</ele>
      </trkpt>
      <trkpt lat="45.10365" lon="5.53449">
        <ele>1137.8</ele>
      </trkpt>
      <trkpt lat="45.10373" lon="5.53424">
        <ele>1136.6</ele>
      </trkpt>
      <trkpt lat="45.10386" lon="5.53407">
        <ele>1128.9</ele>
      </trkpt>
      <trkpt lat="45.10397" lon="5.53385">
        <ele>1126.1</ele>
      </trkpt>
      <trkpt lat="45.10402" lon="5.53357">
        <ele>1122.1</ele>
      </trkpt>
      <trkpt lat="45.10403" lon="5.53331">
        <ele>1125.7</ele>
      </trkpt>
      <trkpt lat="45.10404" lon="5.53304">
        <ele>1125.2</ele>
      </trkpt>
      <trkpt lat="45.10407" lon="5.53279">
        <ele>1120.7</ele>
      </trkpt>
      <trkpt lat="45.10393" lon="5.533">
        <ele>1108</ele>
      </trkpt>
      <trkpt lat="45.10377" lon="5.53316">
        <ele>1100.6</ele>
      </trkpt>
      <trkpt lat="45.10361" lon="5.53334">
        <ele>1096.3</ele>
      </trkpt>
      <trkpt lat="45.10356" lon="5.53307">
        <ele>1095.1</ele>
      </trkpt>
      <trkpt lat="45.10349" lon="5.53279">
        <ele>1092</ele>
      </trkpt>
      <trkpt lat="45.10328" lon="5.5327">
        <ele>1088.6</ele>
      </trkpt>
      <trkpt lat="45.1031" lon="5.53253">
        <ele>1090.7</ele>
      </trkpt>
      <trkpt lat="45.1029" lon="5.53241">
        <ele>1093.5</ele>
      </trkpt>
      <trkpt lat="45.10272" lon="5.53237">
        <ele>1094.6</ele>
      </trkpt>
      <trkpt lat="45.10259" lon="5.53218">
        <ele>1093.3</ele>
      </trkpt>
      <trkpt lat="45.10246" lon="5.532">
        <ele>1088.8</ele>
      </trkpt>
      <trkpt lat="45.10236" lon="5.53176">
        <ele>1085.7</ele>
      </trkpt>
      <trkpt lat="45.10242" lon="5.53145">
        <ele>1076.4</ele>
      </trkpt>
      <trkpt lat="45.10247" lon="5.53112">
        <ele>1074.8</ele>
      </trkpt>
      <trkpt lat="45.10253" lon="5.53088">
        <ele>1072.6</ele>
      </trkpt>
      <trkpt lat="45.10261" lon="5.53063">
        <ele>1071</ele>
      </trkpt>
      <trkpt lat="45.10269" lon="5.5304">
        <ele>1068.9</ele>
      </trkpt>
      <trkpt lat="45.10273" lon="5.5301">
        <ele>1074.1</ele>
      </trkpt>
      <trkpt lat="45.10284" lon="5.52989">
        <ele>1070.1</ele>
      </trkpt>
      <trkpt lat="45.10301" lon="5.52968">
        <ele>1066.6</ele>
      </trkpt>
      <trkpt lat="45.10315" lon="5.52949">
        <ele>1063.4</ele>
      </trkpt>
      <trkpt lat="45.10334" lon="5.52945">
        <ele>1059.6</ele>
        <extensions>
          <visugpx:TrkExtension xmlns:visugpx="https://www.visugpx.com/editgpx/">
            <visugpx:node>1</visugpx:node>
            </visugpx:TrkExtension>
        </extensions>
      </trkpt>
      <trkpt lat="45.10354" lon="5.52953">
        <ele>1035.4</ele>
      </trkpt>
      <trkpt lat="45.10378" lon="5.53001">
        <ele>1035.5</ele>
      </trkpt>
      <trkpt lat="45.10436" lon="5.53097">
        <ele>1037</ele>
      </trkpt>
      <trkpt lat="45.10517" lon="5.53153">
        <ele>1033.8</ele>
      </trkpt>
      <trkpt lat="45.10594" lon="5.53181">
        <ele>1028.7</ele>
      </trkpt>
      <trkpt lat="45.1062" lon="5.53188">
        <ele>1029.8</ele>
      </trkpt>
      <trkpt lat="45.10644" lon="5.5315">
        <ele>1020.9</ele>
      </trkpt>
      <trkpt lat="45.10721" lon="5.53115">
        <ele>1020.2</ele>
      </trkpt>
      <trkpt lat="45.1075" lon="5.53107">
        <ele>1019.5</ele>
      </trkpt>
      <trkpt lat="45.10813" lon="5.53103">
        <ele>1019.9</ele>
      </trkpt>
      <trkpt lat="45.1083" lon="5.53105">
        <ele>1021.1</ele>
      </trkpt>
      <trkpt lat="45.10853" lon="5.53101">
        <ele>1019.1</ele>
        <extensions>
          <visugpx:TrkExtension xmlns:visugpx="https://www.visugpx.com/editgpx/">
            <visugpx:node>2</visugpx:node>
            </visugpx:TrkExtension>
        </extensions>
      </trkpt>
      <trkpt lat="45.10869" lon="5.53102">
        <ele>1018.5</ele>
        <time>2022-08-12T13:51:47.000Z</time>
      </trkpt>
      <trkpt lat="45.10875" lon="5.53102">
        <ele>1018.1</ele>
        <time>2022-08-12T13:51:48.000Z</time>
      </trkpt>
      <trkpt lat="45.10882" lon="5.53102">
        <ele>1017.5</ele>
        <time>2022-08-12T13:51:49.000Z</time>
      </trkpt>
      <trkpt lat="45.10894" lon="5.53102">
        <ele>1016.7</ele>
        <time>2022-08-12T13:51:51.000Z</time>
      </trkpt>
      <trkpt lat="45.10923" lon="5.53109">
        <ele>1015.6</ele>
        <time>2022-08-12T13:51:56.000Z</time>
      </trkpt>
      <trkpt lat="45.10941" lon="5.53112">
        <ele>1013.5</ele>
        <time>2022-08-12T13:51:59.000Z</time>
      </trkpt>
      <trkpt lat="45.10956" lon="5.53115">
        <ele>1012.1</ele>
        <time>2022-08-12T13:52:01.000Z</time>
      </trkpt>
      <trkpt lat="45.10962" lon="5.53118">
        <ele>1011.6</ele>
        <time>2022-08-12T13:52:02.000Z</time>
      </trkpt>
      <trkpt lat="45.10968" lon="5.53122">
        <ele>1011.2</ele>
        <time>2022-08-12T13:52:03.000Z</time>
      </trkpt>
      <trkpt lat="45.10973" lon="5.53126">
        <ele>1010.9</ele>
        <time>2022-08-12T13:52:04.000Z</time>
      </trkpt>
      <trkpt lat="45.10979" lon="5.5313">
        <ele>1010.6</ele>
        <time>2022-08-12T13:52:05.000Z</time>
      </trkpt>
      <trkpt lat="45.10984" lon="5.53133">
        <ele>1010.2</ele>
        <time>2022-08-12T13:52:06.000Z</time>
      </trkpt>
      <trkpt lat="45.11005" lon="5.53139">
        <ele>1008</ele>
        <time>2022-08-12T13:52:09.000Z</time>
      </trkpt>
      <trkpt lat="45.11013" lon="5.53141">
        <ele>1006.6</ele>
        <time>2022-08-12T13:52:10.000Z</time>
      </trkpt>
      <trkpt lat="45.1102" lon="5.53142">
        <ele>1005.3</ele>
        <time>2022-08-12T13:52:11.000Z</time>
      </trkpt>
      <trkpt lat="45.11027" lon="5.53143">
        <ele>1004.1</ele>
        <time>2022-08-12T13:52:12.000Z</time>
      </trkpt>
      <trkpt lat="45.11034" lon="5.53144">
        <ele>1003</ele>
        <time>2022-08-12T13:52:13.000Z</time>
      </trkpt>
      <trkpt lat="45.1104" lon="5.53145">
        <ele>1001.8</ele>
        <time>2022-08-12T13:52:14.000Z</time>
      </trkpt>
      <trkpt lat="45.11047" lon="5.53146">
        <ele>1000.7</ele>
        <time>2022-08-12T13:52:15.000Z</time>
      </trkpt>
      <trkpt lat="45.11054" lon="5.53148">
        <ele>999.6</ele>
        <time>2022-08-12T13:52:16.000Z</time>
      </trkpt>
      <trkpt lat="45.11061" lon="5.53151">
        <ele>998.4</ele>
        <time>2022-08-12T13:52:17.000Z</time>
      </trkpt>
      <trkpt lat="45.11068" lon="5.53155">
        <ele>997.4</ele>
        <time>2022-08-12T13:52:18.000Z</time>
      </trkpt>
      <trkpt lat="45.11083" lon="5.53163">
        <ele>995.7</ele>
        <time>2022-08-12T13:52:20.000Z</time>
      </trkpt>
      <trkpt lat="45.11091" lon="5.53167">
        <ele>994.4</ele>
        <time>2022-08-12T13:52:21.000Z</time>
      </trkpt>
      <trkpt lat="45.11098" lon="5.5317">
        <ele>992.8</ele>
        <time>2022-08-12T13:52:22.000Z</time>
      </trkpt>
      <trkpt lat="45.11106" lon="5.53173">
        <ele>991.2</ele>
        <time>2022-08-12T13:52:23.000Z</time>
      </trkpt>
      <trkpt lat="45.11115" lon="5.53175">
        <ele>989.6</ele>
        <time>2022-08-12T13:52:24.000Z</time>
      </trkpt>
      <trkpt lat="45.11123" lon="5.53178">
        <ele>988.1</ele>
        <time>2022-08-12T13:52:25.000Z</time>
      </trkpt>
      <trkpt lat="45.11129" lon="5.53181">
        <ele>986.9</ele>
        <time>2022-08-12T13:52:26.000Z</time>
      </trkpt>
      <trkpt lat="45.11135" lon="5.53185">
        <ele>986</ele>
        <time>2022-08-12T13:52:27.000Z</time>
      </trkpt>
      <trkpt lat="45.1114" lon="5.53191">
        <ele>985.4</ele>
        <time>2022-08-12T13:52:28.000Z</time>
      </trkpt>
      <trkpt lat="45.11145" lon="5.53197">
        <ele>984.7</ele>
        <time>2022-08-12T13:52:29.000Z</time>
      </trkpt>
      <trkpt lat="45.11149" lon="5.53203">
        <ele>983.9</ele>
        <time>2022-08-12T13:52:30.000Z</time>
      </trkpt>
      <trkpt lat="45.11153" lon="5.53209">
        <ele>983.2</ele>
        <time>2022-08-12T13:52:31.000Z</time>
      </trkpt>
      <trkpt lat="45.11157" lon="5.53215">
        <ele>982.7</ele>
        <time>2022-08-12T13:52:32.000Z</time>
      </trkpt>
      <trkpt lat="45.1116" lon="5.53222">
        <ele>982.2</ele>
        <time>2022-08-12T13:52:33.000Z</time>
      </trkpt>
      <trkpt lat="45.11167" lon="5.53235">
        <ele>980.4</ele>
        <time>2022-08-12T13:52:35.000Z</time>
      </trkpt>
      <trkpt lat="45.11171" lon="5.5324">
        <ele>979.3</ele>
        <time>2022-08-12T13:52:36.000Z</time>
      </trkpt>
      <trkpt lat="45.11176" lon="5.53245">
        <ele>978.2</ele>
        <time>2022-08-12T13:52:37.000Z</time>
      </trkpt>
      <trkpt lat="45.1118" lon="5.5325">
        <ele>977.1</ele>
        <time>2022-08-12T13:52:38.000Z</time>
      </trkpt>
      <trkpt lat="45.11185" lon="5.53253">
        <ele>975.5</ele>
        <time>2022-08-12T13:52:39.000Z</time>
      </trkpt>
      <trkpt lat="45.11191" lon="5.53257">
        <ele>974</ele>
        <time>2022-08-12T13:52:40.000Z</time>
      </trkpt>
      <trkpt lat="45.11205" lon="5.53262">
        <ele>971.2</ele>
        <time>2022-08-12T13:52:42.000Z</time>
      </trkpt>
      <trkpt lat="45.11212" lon="5.53265">
        <ele>969.8</ele>
        <time>2022-08-12T13:52:43.000Z</time>
      </trkpt>
      <trkpt lat="45.11219" lon="5.53268">
        <ele>968.5</ele>
        <time>2022-08-12T13:52:44.000Z</time>
      </trkpt>
      <trkpt lat="45.11225" lon="5.53269">
        <ele>967.5</ele>
        <time>2022-08-12T13:52:45.000Z</time>
      </trkpt>
      <trkpt lat="45.11231" lon="5.5327">
        <ele>966.6</ele>
        <time>2022-08-12T13:52:46.000Z</time>
      </trkpt>
      <trkpt lat="45.11236" lon="5.53271">
        <ele>965.8</ele>
        <time>2022-08-12T13:52:47.000Z</time>
      </trkpt>
      <trkpt lat="45.11239" lon="5.53271">
        <ele>965.3</ele>
        <time>2022-08-12T13:52:48.000Z</time>
      </trkpt>
      <trkpt lat="45.11241" lon="5.53271">
        <ele>965</ele>
        <time>2022-08-12T13:52:49.000Z</time>
      </trkpt>
      <trkpt lat="45.11242" lon="5.5327">
        <ele>964.8</ele>
        <time>2022-08-12T13:52:50.000Z</time>
      </trkpt>
      <trkpt lat="45.11242" lon="5.53268">
        <ele>964.7</ele>
        <time>2022-08-12T13:52:51.000Z</time>
      </trkpt>
      <trkpt lat="45.11241" lon="5.53267">
        <ele>964.8</ele>
        <time>2022-08-12T13:52:52.000Z</time>
      </trkpt>
      <trkpt lat="45.1124" lon="5.53265">
        <ele>964.9</ele>
        <time>2022-08-12T13:52:53.000Z</time>
      </trkpt>
      <trkpt lat="45.11237" lon="5.53263">
        <ele>965.2</ele>
        <time>2022-08-12T13:52:54.000Z</time>
      </trkpt>
      <trkpt lat="45.11235" lon="5.5326">
        <ele>965.5</ele>
        <time>2022-08-12T13:52:55.000Z</time>
      </trkpt>
      <trkpt lat="45.11233" lon="5.53257">
        <ele>965.9</ele>
        <time>2022-08-12T13:52:56.000Z</time>
      </trkpt>
      <trkpt lat="45.1123" lon="5.53252">
        <ele>966.3</ele>
        <time>2022-08-12T13:52:57.000Z</time>
      </trkpt>
      <trkpt lat="45.11228" lon="5.53247">
        <ele>966.6</ele>
        <time>2022-08-12T13:52:58.000Z</time>
      </trkpt>
      <trkpt lat="45.11222" lon="5.53232">
        <ele>966.6</ele>
        <time>2022-08-12T13:53:00.000Z</time>
      </trkpt>
      <trkpt lat="45.11218" lon="5.53212">
        <ele>965.8</ele>
        <time>2022-08-12T13:53:02.000Z</time>
      </trkpt>
      <trkpt lat="45.11215" lon="5.53201">
        <ele>965.1</ele>
        <time>2022-08-12T13:53:03.000Z</time>
      </trkpt>
      <trkpt lat="45.11212" lon="5.53189">
        <ele>964.4</ele>
        <time>2022-08-12T13:53:04.000Z</time>
      </trkpt>
      <trkpt lat="45.1121" lon="5.53175">
        <ele>963.7</ele>
        <time>2022-08-12T13:53:05.000Z</time>
      </trkpt>
      <trkpt lat="45.1121" lon="5.53161">
        <ele>962.7</ele>
        <time>2022-08-12T13:53:06.000Z</time>
      </trkpt>
      <trkpt lat="45.11209" lon="5.53148">
        <ele>961.9</ele>
        <time>2022-08-12T13:53:07.000Z</time>
      </trkpt>
      <trkpt lat="45.11208" lon="5.53136">
        <ele>961.4</ele>
        <time>2022-08-12T13:53:08.000Z</time>
      </trkpt>
      <trkpt lat="45.11207" lon="5.53126">
        <ele>961.2</ele>
        <time>2022-08-12T13:53:09.000Z</time>
      </trkpt>
      <trkpt lat="45.11205" lon="5.53118">
        <ele>961</ele>
        <time>2022-08-12T13:53:10.000Z</time>
      </trkpt>
      <trkpt lat="45.11206" lon="5.53112">
        <ele>960.6</ele>
        <time>2022-08-12T13:53:11.000Z</time>
      </trkpt>
      <trkpt lat="45.11207" lon="5.53108">
        <ele>960</ele>
        <time>2022-08-12T13:53:12.000Z</time>
      </trkpt>
      <trkpt lat="45.11209" lon="5.53105">
        <ele>959.5</ele>
        <time>2022-08-12T13:53:13.000Z</time>
      </trkpt>
      <trkpt lat="45.11211" lon="5.53104">
        <ele>958.9</ele>
        <time>2022-08-12T13:53:14.000Z</time>
      </trkpt>
      <trkpt lat="45.11214" lon="5.53104">
        <ele>958.5</ele>
        <time>2022-08-12T13:53:15.000Z</time>
      </trkpt>
      <trkpt lat="45.11217" lon="5.53106">
        <ele>958.1</ele>
        <time>2022-08-12T13:53:16.000Z</time>
      </trkpt>
      <trkpt lat="45.11219" lon="5.53108">
        <ele>957.6</ele>
        <time>2022-08-12T13:53:17.000Z</time>
      </trkpt>
      <trkpt lat="45.11222" lon="5.5311">
        <ele>957.1</ele>
        <time>2022-08-12T13:53:18.000Z</time>
      </trkpt>
      <trkpt lat="45.11225" lon="5.53112">
        <ele>957.1</ele>
        <time>2022-08-12T13:53:19.000Z</time>
      </trkpt>
      <trkpt lat="45.11235" lon="5.5312">
        <ele>957.6</ele>
        <time>2022-08-12T13:53:22.000Z</time>
      </trkpt>
      <trkpt lat="45.11242" lon="5.53124">
        <ele>957.9</ele>
        <time>2022-08-12T13:53:24.000Z</time>
      </trkpt>
      <trkpt lat="45.11246" lon="5.53126">
        <ele>957.9</ele>
        <time>2022-08-12T13:53:25.000Z</time>
      </trkpt>
      <trkpt lat="45.11261" lon="5.5313">
        <ele>958</ele>
        <time>2022-08-12T13:53:29.000Z</time>
      </trkpt>
      <trkpt lat="45.11293" lon="5.53133">
        <ele>958.3</ele>
        <time>2022-08-12T13:53:37.000Z</time>
      </trkpt>
      <trkpt lat="45.11331" lon="5.53133">
        <ele>958</ele>
        <time>2022-08-12T13:53:46.000Z</time>
      </trkpt>
      <trkpt lat="45.11335" lon="5.53133">
        <ele>958</ele>
        <time>2022-08-12T13:53:47.000Z</time>
      </trkpt>
      <trkpt lat="45.11351" lon="5.53133">
        <ele>958</ele>
        <time>2022-08-12T13:53:51.000Z</time>
      </trkpt>
      <trkpt lat="45.11356" lon="5.53133">
        <ele>958</ele>
        <time>2022-08-12T13:53:52.000Z</time>
      </trkpt>
      <trkpt lat="45.11364" lon="5.53133">
        <ele>958</ele>
        <time>2022-08-12T13:53:54.000Z</time>
      </trkpt>
      <trkpt lat="45.11368" lon="5.53133">
        <ele>958.1</ele>
        <time>2022-08-12T13:53:55.000Z</time>
      </trkpt>
      <trkpt lat="45.11393" lon="5.53132">
        <ele>958.5</ele>
        <time>2022-08-12T13:54:01.000Z</time>
      </trkpt>
      <trkpt lat="45.11397" lon="5.53132">
        <ele>958.6</ele>
        <time>2022-08-12T13:54:02.000Z</time>
      </trkpt>
      <trkpt lat="45.11417" lon="5.53132">
        <ele>958.7</ele>
        <time>2022-08-12T13:54:07.000Z</time>
      </trkpt>
      <trkpt lat="45.11429" lon="5.53133">
        <ele>958.6</ele>
        <time>2022-08-12T13:54:10.000Z</time>
      </trkpt>
      <trkpt lat="45.11433" lon="5.53134">
        <ele>958.5</ele>
        <time>2022-08-12T13:54:11.000Z</time>
      </trkpt>
      <trkpt lat="45.11437" lon="5.53135">
        <ele>958.4</ele>
        <time>2022-08-12T13:54:12.000Z</time>
      </trkpt>
      <trkpt lat="45.11441" lon="5.53136">
        <ele>958.3</ele>
        <time>2022-08-12T13:54:13.000Z</time>
      </trkpt>
      <trkpt lat="45.11445" lon="5.53136">
        <ele>958.3</ele>
        <time>2022-08-12T13:54:14.000Z</time>
      </trkpt>
      <trkpt lat="45.11467" lon="5.53142">
        <ele>958.8</ele>
        <time>2022-08-12T13:54:20.000Z</time>
      </trkpt>
      <trkpt lat="45.11475" lon="5.53143">
        <ele>959.1</ele>
        <time>2022-08-12T13:54:22.000Z</time>
      </trkpt>
      <trkpt lat="45.11479" lon="5.53143">
        <ele>959.2</ele>
        <time>2022-08-12T13:54:23.000Z</time>
      </trkpt>
      <trkpt lat="45.11483" lon="5.53142">
        <ele>959.4</ele>
        <time>2022-08-12T13:54:24.000Z</time>
      </trkpt>
      <trkpt lat="45.11486" lon="5.53141">
        <ele>959.5</ele>
        <time>2022-08-12T13:54:25.000Z</time>
      </trkpt>
      <trkpt lat="45.11489" lon="5.5314">
        <ele>959.6</ele>
        <time>2022-08-12T13:54:26.000Z</time>
      </trkpt>
      <trkpt lat="45.11492" lon="5.53139">
        <ele>959.8</ele>
        <time>2022-08-12T13:54:27.000Z</time>
      </trkpt>
      <trkpt lat="45.11495" lon="5.53138">
        <ele>960</ele>
        <time>2022-08-12T13:54:28.000Z</time>
      </trkpt>
      <trkpt lat="45.11498" lon="5.53137">
        <ele>960.2</ele>
        <time>2022-08-12T13:54:29.000Z</time>
      </trkpt>
      <trkpt lat="45.115" lon="5.53137">
        <ele>960.4</ele>
        <time>2022-08-12T13:54:30.000Z</time>
      </trkpt>
      <trkpt lat="45.11502" lon="5.53136">
        <ele>960.6</ele>
        <time>2022-08-12T13:54:31.000Z</time>
      </trkpt>
      <trkpt lat="45.11504" lon="5.53136">
        <ele>960.7</ele>
        <time>2022-08-12T13:54:32.000Z</time>
      </trkpt>
      <trkpt lat="45.11506" lon="5.53136">
        <ele>960.9</ele>
        <time>2022-08-12T13:54:33.000Z</time>
      </trkpt>
      <trkpt lat="45.11508" lon="5.53135">
        <ele>961.1</ele>
        <time>2022-08-12T13:54:34.000Z</time>
      </trkpt>
      <trkpt lat="45.1151" lon="5.53134">
        <ele>961.4</ele>
        <time>2022-08-12T13:54:35.000Z</time>
      </trkpt>
      <trkpt lat="45.11512" lon="5.53134">
        <ele>961.6</ele>
        <time>2022-08-12T13:54:36.000Z</time>
      </trkpt>
      <trkpt lat="45.11514" lon="5.53133">
        <ele>961.9</ele>
        <time>2022-08-12T13:54:37.000Z</time>
      </trkpt>
      <trkpt lat="45.11517" lon="5.53133">
        <ele>962</ele>
        <time>2022-08-12T13:54:38.000Z</time>
      </trkpt>
      <trkpt lat="45.11518" lon="5.53133">
        <ele>962.1</ele>
        <time>2022-08-12T13:54:39.000Z</time>
      </trkpt>
      <trkpt lat="45.1152" lon="5.53133">
        <ele>962.3</ele>
        <time>2022-08-12T13:54:40.000Z</time>
      </trkpt>
      <trkpt lat="45.11522" lon="5.53133">
        <ele>962.5</ele>
        <time>2022-08-12T13:54:41.000Z</time>
      </trkpt>
      <trkpt lat="45.11526" lon="5.53132">
        <ele>962.9</ele>
        <time>2022-08-12T13:54:43.000Z</time>
      </trkpt>
      <trkpt lat="45.11528" lon="5.53131">
        <ele>963.1</ele>
        <time>2022-08-12T13:54:44.000Z</time>
      </trkpt>
      <trkpt lat="45.1153" lon="5.53131">
        <ele>963.2</ele>
        <time>2022-08-12T13:54:45.000Z</time>
      </trkpt>
      <trkpt lat="45.11533" lon="5.53131">
        <ele>963.3</ele>
        <time>2022-08-12T13:54:46.000Z</time>
      </trkpt>
      <trkpt lat="45.11534" lon="5.53131">
        <ele>963.4</ele>
        <time>2022-08-12T13:54:47.000Z</time>
      </trkpt>
      <trkpt lat="45.11536" lon="5.53131">
        <ele>963.5</ele>
        <time>2022-08-12T13:54:48.000Z</time>
      </trkpt>
      <trkpt lat="45.11538" lon="5.53131">
        <ele>963.6</ele>
        <time>2022-08-12T13:54:49.000Z</time>
      </trkpt>
      <trkpt lat="45.1154" lon="5.5313">
        <ele>963.7</ele>
        <time>2022-08-12T13:54:50.000Z</time>
      </trkpt>
      <trkpt lat="45.11542" lon="5.53131">
        <ele>963.7</ele>
        <time>2022-08-12T13:54:51.000Z</time>
      </trkpt>
      <trkpt lat="45.11544" lon="5.53131">
        <ele>963.7</ele>
        <time>2022-08-12T13:54:52.000Z</time>
      </trkpt>
      <trkpt lat="45.11546" lon="5.53131">
        <ele>963.8</ele>
        <time>2022-08-12T13:54:53.000Z</time>
      </trkpt>
      <trkpt lat="45.11549" lon="5.53131">
        <ele>963.9</ele>
        <time>2022-08-12T13:54:54.000Z</time>
      </trkpt>
      <trkpt lat="45.11551" lon="5.53131">
        <ele>964</ele>
        <time>2022-08-12T13:54:55.000Z</time>
      </trkpt>
      <trkpt lat="45.11553" lon="5.53131">
        <ele>964.1</ele>
        <time>2022-08-12T13:54:56.000Z</time>
      </trkpt>
      <trkpt lat="45.11555" lon="5.53131">
        <ele>964.1</ele>
        <time>2022-08-12T13:54:57.000Z</time>
      </trkpt>
      <trkpt lat="45.11558" lon="5.53132">
        <ele>964.1</ele>
        <time>2022-08-12T13:54:58.000Z</time>
      </trkpt>
      <trkpt lat="45.1156" lon="5.53132">
        <ele>964.1</ele>
        <time>2022-08-12T13:54:59.000Z</time>
      </trkpt>
      <trkpt lat="45.11562" lon="5.53133">
        <ele>964.1</ele>
        <time>2022-08-12T13:55:00.000Z</time>
      </trkpt>
      <trkpt lat="45.11564" lon="5.53133">
        <ele>964.1</ele>
        <time>2022-08-12T13:55:01.000Z</time>
      </trkpt>
      <trkpt lat="45.11566" lon="5.53134">
        <ele>964.1</ele>
        <time>2022-08-12T13:55:02.000Z</time>
      </trkpt>
      <trkpt lat="45.11569" lon="5.53134">
        <ele>964.1</ele>
        <time>2022-08-12T13:55:03.000Z</time>
      </trkpt>
      <trkpt lat="45.11571" lon="5.53135">
        <ele>964.1</ele>
        <time>2022-08-12T13:55:04.000Z</time>
      </trkpt>
      <trkpt lat="45.11573" lon="5.53136">
        <ele>964</ele>
        <time>2022-08-12T13:55:05.000Z</time>
      </trkpt>
      <trkpt lat="45.11575" lon="5.53137">
        <ele>964</ele>
        <time>2022-08-12T13:55:06.000Z</time>
      </trkpt>
      <trkpt lat="45.11577" lon="5.53137">
        <ele>964</ele>
        <time>2022-08-12T13:55:07.000Z</time>
      </trkpt>
      <trkpt lat="45.11579" lon="5.53137">
        <ele>964.1</ele>
        <time>2022-08-12T13:55:08.000Z</time>
      </trkpt>
      <trkpt lat="45.11582" lon="5.53138">
        <ele>964.1</ele>
        <time>2022-08-12T13:55:09.000Z</time>
      </trkpt>
      <trkpt lat="45.11584" lon="5.53138">
        <ele>964.1</ele>
        <time>2022-08-12T13:55:10.000Z</time>
      </trkpt>
      <trkpt lat="45.11586" lon="5.53138">
        <ele>964.2</ele>
        <time>2022-08-12T13:55:11.000Z</time>
      </trkpt>
      <trkpt lat="45.11589" lon="5.53138">
        <ele>964.2</ele>
        <time>2022-08-12T13:55:12.000Z</time>
      </trkpt>
      <trkpt lat="45.11591" lon="5.53139">
        <ele>964.3</ele>
        <time>2022-08-12T13:55:13.000Z</time>
      </trkpt>
      <trkpt lat="45.11593" lon="5.53139">
        <ele>964.4</ele>
        <time>2022-08-12T13:55:14.000Z</time>
      </trkpt>
      <trkpt lat="45.11595" lon="5.53139">
        <ele>964.5</ele>
        <time>2022-08-12T13:55:15.000Z</time>
      </trkpt>
      <trkpt lat="45.11597" lon="5.53138">
        <ele>964.6</ele>
        <time>2022-08-12T13:55:16.000Z</time>
      </trkpt>
      <trkpt lat="45.11599" lon="5.53138">
        <ele>964.7</ele>
        <time>2022-08-12T13:55:17.000Z</time>
      </trkpt>
      <trkpt lat="45.11601" lon="5.53137">
        <ele>964.9</ele>
        <time>2022-08-12T13:55:18.000Z</time>
      </trkpt>
      <trkpt lat="45.11603" lon="5.53137">
        <ele>965</ele>
        <time>2022-08-12T13:55:19.000Z</time>
      </trkpt>
      <trkpt lat="45.11605" lon="5.53136">
        <ele>965.1</ele>
        <time>2022-08-12T13:55:20.000Z</time>
      </trkpt>
      <trkpt lat="45.11607" lon="5.53136">
        <ele>965.2</ele>
        <time>2022-08-12T13:55:21.000Z</time>
      </trkpt>
      <trkpt lat="45.1161" lon="5.53136">
        <ele>965.3</ele>
        <time>2022-08-12T13:55:22.000Z</time>
      </trkpt>
      <trkpt lat="45.11621" lon="5.53138">
        <ele>965.1</ele>
        <time>2022-08-12T13:55:26.000Z</time>
      </trkpt>
      <trkpt lat="45.11641" lon="5.53139">
        <ele>964.9</ele>
        <time>2022-08-12T13:55:33.000Z</time>
      </trkpt>
      <trkpt lat="45.11664" lon="5.53136">
        <ele>964.5</ele>
        <time>2022-08-12T13:55:40.000Z</time>
      </trkpt>
      <trkpt lat="45.11681" lon="5.53127">
        <ele>965.5</ele>
        <time>2022-08-12T13:55:44.000Z</time>
      </trkpt>
      <trkpt lat="45.11684" lon="5.53124">
        <ele>965.7</ele>
        <time>2022-08-12T13:55:45.000Z</time>
      </trkpt>
      <trkpt lat="45.11688" lon="5.53122">
        <ele>965.9</ele>
        <time>2022-08-12T13:55:46.000Z</time>
      </trkpt>
      <trkpt lat="45.11691" lon="5.5312">
        <ele>966.1</ele>
        <time>2022-08-12T13:55:47.000Z</time>
      </trkpt>
      <trkpt lat="45.11695" lon="5.53118">
        <ele>966.2</ele>
        <time>2022-08-12T13:55:48.000Z</time>
      </trkpt>
      <trkpt lat="45.11697" lon="5.53116">
        <ele>966.4</ele>
        <time>2022-08-12T13:55:49.000Z</time>
      </trkpt>
      <trkpt lat="45.11703" lon="5.53112">
        <ele>966.5</ele>
        <time>2022-08-12T13:55:51.000Z</time>
      </trkpt>
      <trkpt lat="45.11706" lon="5.53111">
        <ele>966.6</ele>
        <time>2022-08-12T13:55:52.000Z</time>
      </trkpt>
      <trkpt lat="45.11709" lon="5.53109">
        <ele>966.7</ele>
        <time>2022-08-12T13:55:53.000Z</time>
      </trkpt>
      <trkpt lat="45.11711" lon="5.53108">
        <ele>966.8</ele>
        <time>2022-08-12T13:55:54.000Z</time>
      </trkpt>
      <trkpt lat="45.11714" lon="5.53107">
        <ele>966.8</ele>
        <time>2022-08-12T13:55:55.000Z</time>
      </trkpt>
      <trkpt lat="45.11717" lon="5.53106">
        <ele>966.8</ele>
        <time>2022-08-12T13:55:56.000Z</time>
      </trkpt>
      <trkpt lat="45.1172" lon="5.53105">
        <ele>966.7</ele>
        <time>2022-08-12T13:55:57.000Z</time>
      </trkpt>
      <trkpt lat="45.11723" lon="5.53104">
        <ele>966.8</ele>
        <time>2022-08-12T13:55:58.000Z</time>
      </trkpt>
      <trkpt lat="45.11727" lon="5.53103">
        <ele>966.8</ele>
        <time>2022-08-12T13:55:59.000Z</time>
      </trkpt>
      <trkpt lat="45.11729" lon="5.53103">
        <ele>966.9</ele>
        <time>2022-08-12T13:56:00.000Z</time>
      </trkpt>
      <trkpt lat="45.11732" lon="5.53102">
        <ele>967</ele>
        <time>2022-08-12T13:56:01.000Z</time>
      </trkpt>
      <trkpt lat="45.11735" lon="5.53102">
        <ele>967</ele>
        <time>2022-08-12T13:56:02.000Z</time>
      </trkpt>
      <trkpt lat="45.11751" lon="5.531">
        <ele>967.2</ele>
        <time>2022-08-12T13:56:07.000Z</time>
      </trkpt>
      <trkpt lat="45.11754" lon="5.53101">
        <ele>967.1</ele>
        <time>2022-08-12T13:56:08.000Z</time>
      </trkpt>
      <trkpt lat="45.11757" lon="5.53101">
        <ele>967.1</ele>
        <time>2022-08-12T13:56:09.000Z</time>
      </trkpt>
      <trkpt lat="45.11761" lon="5.53101">
        <ele>967.1</ele>
        <time>2022-08-12T13:56:10.000Z</time>
      </trkpt>
      <trkpt lat="45.11764" lon="5.53102">
        <ele>967</ele>
        <time>2022-08-12T13:56:11.000Z</time>
      </trkpt>
      <trkpt lat="45.11768" lon="5.53103">
        <ele>966.9</ele>
        <time>2022-08-12T13:56:12.000Z</time>
      </trkpt>
      <trkpt lat="45.11772" lon="5.53103">
        <ele>966.9</ele>
        <time>2022-08-12T13:56:13.000Z</time>
      </trkpt>
      <trkpt lat="45.11776" lon="5.53103">
        <ele>966.9</ele>
        <time>2022-08-12T13:56:14.000Z</time>
      </trkpt>
      <trkpt lat="45.1178" lon="5.53103">
        <ele>966.8</ele>
        <time>2022-08-12T13:56:15.000Z</time>
      </trkpt>
      <trkpt lat="45.11785" lon="5.53104">
        <ele>966.7</ele>
        <time>2022-08-12T13:56:16.000Z</time>
      </trkpt>
      <trkpt lat="45.11789" lon="5.53103">
        <ele>966.6</ele>
        <time>2022-08-12T13:56:17.000Z</time>
      </trkpt>
      <trkpt lat="45.11793" lon="5.53103">
        <ele>966.7</ele>
        <time>2022-08-12T13:56:18.000Z</time>
      </trkpt>
      <trkpt lat="45.11797" lon="5.53102">
        <ele>966.7</ele>
        <time>2022-08-12T13:56:19.000Z</time>
      </trkpt>
      <trkpt lat="45.11815" lon="5.53101">
        <ele>966.6</ele>
        <time>2022-08-12T13:56:23.000Z</time>
      </trkpt>
      <trkpt lat="45.11836" lon="5.531">
        <ele>966.4</ele>
        <time>2022-08-12T13:56:28.000Z</time>
      </trkpt>
      <trkpt lat="45.11853" lon="5.53099">
        <ele>966.8</ele>
        <time>2022-08-12T13:56:32.000Z</time>
      </trkpt>
      <trkpt lat="45.11856" lon="5.53098">
        <ele>966.8</ele>
        <time>2022-08-12T13:56:33.000Z</time>
      </trkpt>
      <trkpt lat="45.11859" lon="5.53098">
        <ele>966.9</ele>
        <time>2022-08-12T13:56:34.000Z</time>
      </trkpt>
      <trkpt lat="45.11863" lon="5.53097">
        <ele>967</ele>
        <time>2022-08-12T13:56:35.000Z</time>
      </trkpt>
      <trkpt lat="45.11867" lon="5.53097">
        <ele>967.1</ele>
        <time>2022-08-12T13:56:36.000Z</time>
      </trkpt>
      <trkpt lat="45.1187" lon="5.53096">
        <ele>967.1</ele>
        <time>2022-08-12T13:56:37.000Z</time>
      </trkpt>
      <trkpt lat="45.11874" lon="5.53096">
        <ele>967.1</ele>
        <time>2022-08-12T13:56:38.000Z</time>
      </trkpt>
      <trkpt lat="45.11877" lon="5.53096">
        <ele>967.2</ele>
        <time>2022-08-12T13:56:39.000Z</time>
      </trkpt>
      <trkpt lat="45.11881" lon="5.53096">
        <ele>967.2</ele>
        <time>2022-08-12T13:56:40.000Z</time>
      </trkpt>
      <trkpt lat="45.11885" lon="5.53095">
        <ele>967.3</ele>
        <time>2022-08-12T13:56:41.000Z</time>
      </trkpt>
      <trkpt lat="45.11888" lon="5.53094">
        <ele>967.4</ele>
        <time>2022-08-12T13:56:42.000Z</time>
      </trkpt>
      <trkpt lat="45.11891" lon="5.53094">
        <ele>967.4</ele>
        <time>2022-08-12T13:56:43.000Z</time>
      </trkpt>
      <trkpt lat="45.11895" lon="5.53093">
        <ele>967.4</ele>
        <time>2022-08-12T13:56:44.000Z</time>
      </trkpt>
      <trkpt lat="45.11898" lon="5.53092">
        <ele>967.4</ele>
        <time>2022-08-12T13:56:45.000Z</time>
      </trkpt>
      <trkpt lat="45.11901" lon="5.53091">
        <ele>967.5</ele>
        <time>2022-08-12T13:56:46.000Z</time>
      </trkpt>
      <trkpt lat="45.11904" lon="5.5309">
        <ele>967.5</ele>
        <time>2022-08-12T13:56:47.000Z</time>
      </trkpt>
      <trkpt lat="45.11907" lon="5.53088">
        <ele>967.6</ele>
        <time>2022-08-12T13:56:48.000Z</time>
      </trkpt>
      <trkpt lat="45.1191" lon="5.53087">
        <ele>967.8</ele>
        <time>2022-08-12T13:56:49.000Z</time>
      </trkpt>
      <trkpt lat="45.11912" lon="5.53084">
        <ele>968.1</ele>
        <time>2022-08-12T13:56:50.000Z</time>
      </trkpt>
      <trkpt lat="45.11915" lon="5.53081">
        <ele>968.2</ele>
        <time>2022-08-12T13:56:51.000Z</time>
      </trkpt>
      <trkpt lat="45.11917" lon="5.53078">
        <ele>968.3</ele>
        <time>2022-08-12T13:56:52.000Z</time>
      </trkpt>
      <trkpt lat="45.11919" lon="5.53075">
        <ele>968.2</ele>
        <time>2022-08-12T13:56:53.000Z</time>
      </trkpt>
      <trkpt lat="45.11921" lon="5.53072">
        <ele>968.1</ele>
        <time>2022-08-12T13:56:54.000Z</time>
      </trkpt>
      <trkpt lat="45.11923" lon="5.53069">
        <ele>968</ele>
        <time>2022-08-12T13:56:55.000Z</time>
      </trkpt>
      <trkpt lat="45.11925" lon="5.53065">
        <ele>968</ele>
        <time>2022-08-12T13:56:56.000Z</time>
      </trkpt>
      <trkpt lat="45.11926" lon="5.53061">
        <ele>968</ele>
        <time>2022-08-12T13:56:57.000Z</time>
      </trkpt>
      <trkpt lat="45.1193" lon="5.53053">
        <ele>968</ele>
        <time>2022-08-12T13:56:59.000Z</time>
      </trkpt>
      <trkpt lat="45.11932" lon="5.5305">
        <ele>968.4</ele>
        <time>2022-08-12T13:57:00.000Z</time>
      </trkpt>
      <trkpt lat="45.11934" lon="5.53046">
        <ele>968.9</ele>
        <time>2022-08-12T13:57:01.000Z</time>
      </trkpt>
      <trkpt lat="45.11936" lon="5.53043">
        <ele>969.3</ele>
        <time>2022-08-12T13:57:02.000Z</time>
      </trkpt>
      <trkpt lat="45.11938" lon="5.53039">
        <ele>969.8</ele>
        <time>2022-08-12T13:57:03.000Z</time>
      </trkpt>
      <trkpt lat="45.11941" lon="5.53037">
        <ele>970.2</ele>
        <time>2022-08-12T13:57:04.000Z</time>
      </trkpt>
      <trkpt lat="45.11944" lon="5.53034">
        <ele>970.6</ele>
        <time>2022-08-12T13:57:05.000Z</time>
      </trkpt>
      <trkpt lat="45.11946" lon="5.53032">
        <ele>971</ele>
        <time>2022-08-12T13:57:06.000Z</time>
      </trkpt>
      <trkpt lat="45.11949" lon="5.53031">
        <ele>971.3</ele>
        <time>2022-08-12T13:57:07.000Z</time>
      </trkpt>
      <trkpt lat="45.11953" lon="5.53029">
        <ele>971.6</ele>
        <time>2022-08-12T13:57:08.000Z</time>
      </trkpt>
      <trkpt lat="45.11955" lon="5.53029">
        <ele>971.8</ele>
        <time>2022-08-12T13:57:09.000Z</time>
      </trkpt>
      <trkpt lat="45.11959" lon="5.53028">
        <ele>971.9</ele>
        <time>2022-08-12T13:57:10.000Z</time>
      </trkpt>
      <trkpt lat="45.11963" lon="5.53029">
        <ele>971.8</ele>
        <time>2022-08-12T13:57:11.000Z</time>
      </trkpt>
      <trkpt lat="45.11966" lon="5.53029">
        <ele>971.7</ele>
        <time>2022-08-12T13:57:12.000Z</time>
      </trkpt>
      <trkpt lat="45.11968" lon="5.53029">
        <ele>971.6</ele>
        <time>2022-08-12T13:57:13.000Z</time>
      </trkpt>
      <trkpt lat="45.11971" lon="5.5303">
        <ele>971.5</ele>
        <time>2022-08-12T13:57:14.000Z</time>
      </trkpt>
      <trkpt lat="45.11975" lon="5.53031">
        <ele>971.4</ele>
        <time>2022-08-12T13:57:15.000Z</time>
      </trkpt>
      <trkpt lat="45.11978" lon="5.53031">
        <ele>971.3</ele>
        <time>2022-08-12T13:57:16.000Z</time>
      </trkpt>
      <trkpt lat="45.11981" lon="5.53031">
        <ele>971.2</ele>
        <time>2022-08-12T13:57:17.000Z</time>
      </trkpt>
      <trkpt lat="45.11984" lon="5.53031">
        <ele>971.2</ele>
        <time>2022-08-12T13:57:18.000Z</time>
      </trkpt>
      <trkpt lat="45.11989" lon="5.53031">
        <ele>971.3</ele>
        <time>2022-08-12T13:57:19.000Z</time>
      </trkpt>
      <trkpt lat="45.11993" lon="5.53031">
        <ele>971.3</ele>
        <time>2022-08-12T13:57:20.000Z</time>
      </trkpt>
      <trkpt lat="45.11997" lon="5.53031">
        <ele>971.4</ele>
        <time>2022-08-12T13:57:21.000Z</time>
      </trkpt>
      <trkpt lat="45.12001" lon="5.53031">
        <ele>971.3</ele>
        <time>2022-08-12T13:57:22.000Z</time>
      </trkpt>
      <trkpt lat="45.12006" lon="5.5303">
        <ele>971.3</ele>
        <time>2022-08-12T13:57:23.000Z</time>
      </trkpt>
      <trkpt lat="45.1201" lon="5.5303">
        <ele>971.2</ele>
        <time>2022-08-12T13:57:24.000Z</time>
      </trkpt>
      <trkpt lat="45.12013" lon="5.5303">
        <ele>971.1</ele>
        <time>2022-08-12T13:57:25.000Z</time>
      </trkpt>
      <trkpt lat="45.12017" lon="5.5303">
        <ele>971</ele>
        <time>2022-08-12T13:57:26.000Z</time>
      </trkpt>
      <trkpt lat="45.12021" lon="5.5303">
        <ele>970.8</ele>
        <time>2022-08-12T13:57:27.000Z</time>
      </trkpt>
      <trkpt lat="45.12033" lon="5.53028">
        <ele>970.5</ele>
        <time>2022-08-12T13:57:30.000Z</time>
      </trkpt>
      <trkpt lat="45.12042" lon="5.53028">
        <ele>970</ele>
        <time>2022-08-12T13:57:32.000Z</time>
      </trkpt>
      <trkpt lat="45.12054" lon="5.53025">
        <ele>969.8</ele>
        <time>2022-08-12T13:57:34.000Z</time>
      </trkpt>
      <trkpt lat="45.1206" lon="5.53023">
        <ele>969.8</ele>
        <time>2022-08-12T13:57:35.000Z</time>
      </trkpt>
      <trkpt lat="45.12066" lon="5.53022">
        <ele>969.9</ele>
        <time>2022-08-12T13:57:36.000Z</time>
      </trkpt>
      <trkpt lat="45.12071" lon="5.53021">
        <ele>970</ele>
        <time>2022-08-12T13:57:37.000Z</time>
      </trkpt>
      <trkpt lat="45.12075" lon="5.53021">
        <ele>970</ele>
        <time>2022-08-12T13:57:38.000Z</time>
      </trkpt>
      <trkpt lat="45.1208" lon="5.5302">
        <ele>969.9</ele>
        <time>2022-08-12T13:57:39.000Z</time>
      </trkpt>
      <trkpt lat="45.12085" lon="5.53021">
        <ele>969.8</ele>
        <time>2022-08-12T13:57:40.000Z</time>
      </trkpt>
      <trkpt lat="45.12089" lon="5.53021">
        <ele>969.6</ele>
        <time>2022-08-12T13:57:41.000Z</time>
      </trkpt>
      <trkpt lat="45.12093" lon="5.53022">
        <ele>969.4</ele>
        <time>2022-08-12T13:57:42.000Z</time>
      </trkpt>
      <trkpt lat="45.12096" lon="5.53023">
        <ele>969.1</ele>
        <time>2022-08-12T13:57:43.000Z</time>
      </trkpt>
      <trkpt lat="45.121" lon="5.53023">
        <ele>968.9</ele>
        <time>2022-08-12T13:57:44.000Z</time>
      </trkpt>
      <trkpt lat="45.12103" lon="5.53024">
        <ele>968.8</ele>
        <time>2022-08-12T13:57:45.000Z</time>
      </trkpt>
      <trkpt lat="45.12111" lon="5.53025">
        <ele>968.5</ele>
        <time>2022-08-12T13:57:47.000Z</time>
      </trkpt>
      <trkpt lat="45.12138" lon="5.53026">
        <ele>969.1</ele>
        <time>2022-08-12T13:57:53.000Z</time>
      </trkpt>
      <trkpt lat="45.12143" lon="5.53026">
        <ele>969.4</ele>
        <time>2022-08-12T13:57:54.000Z</time>
      </trkpt>
      <trkpt lat="45.12156" lon="5.53026">
        <ele>969.8</ele>
        <time>2022-08-12T13:57:57.000Z</time>
      </trkpt>
      <trkpt lat="45.12168" lon="5.53028">
        <ele>970</ele>
        <time>2022-08-12T13:58:00.000Z</time>
      </trkpt>
      <trkpt lat="45.12171" lon="5.53029">
        <ele>970</ele>
        <time>2022-08-12T13:58:01.000Z</time>
      </trkpt>
      <trkpt lat="45.12175" lon="5.53029">
        <ele>970.1</ele>
        <time>2022-08-12T13:58:02.000Z</time>
      </trkpt>
      <trkpt lat="45.12178" lon="5.5303">
        <ele>970.2</ele>
        <time>2022-08-12T13:58:03.000Z</time>
      </trkpt>
      <trkpt lat="45.12181" lon="5.5303">
        <ele>970.2</ele>
        <time>2022-08-12T13:58:04.000Z</time>
      </trkpt>
      <trkpt lat="45.12184" lon="5.53031">
        <ele>970.3</ele>
        <time>2022-08-12T13:58:05.000Z</time>
      </trkpt>
      <trkpt lat="45.12186" lon="5.53032">
        <ele>970.3</ele>
        <time>2022-08-12T13:58:06.000Z</time>
      </trkpt>
      <trkpt lat="45.12189" lon="5.53032">
        <ele>970.3</ele>
        <time>2022-08-12T13:58:07.000Z</time>
      </trkpt>
      <trkpt lat="45.1219" lon="5.53032">
        <ele>970.4</ele>
        <time>2022-08-12T13:58:08.000Z</time>
      </trkpt>
      <trkpt lat="45.12192" lon="5.53032">
        <ele>970.5</ele>
        <time>2022-08-12T13:58:09.000Z</time>
      </trkpt>
      <trkpt lat="45.12194" lon="5.53032">
        <ele>970.5</ele>
        <time>2022-08-12T13:58:10.000Z</time>
      </trkpt>
      <trkpt lat="45.12197" lon="5.53033">
        <ele>970.5</ele>
        <time>2022-08-12T13:58:11.000Z</time>
      </trkpt>
      <trkpt lat="45.12199" lon="5.53034">
        <ele>970.5</ele>
        <time>2022-08-12T13:58:12.000Z</time>
      </trkpt>
      <trkpt lat="45.12202" lon="5.53035">
        <ele>970.5</ele>
        <time>2022-08-12T13:58:13.000Z</time>
      </trkpt>
      <trkpt lat="45.12204" lon="5.53036">
        <ele>970.5</ele>
        <time>2022-08-12T13:58:14.000Z</time>
      </trkpt>
      <trkpt lat="45.12207" lon="5.53037">
        <ele>970.5</ele>
        <time>2022-08-12T13:58:15.000Z</time>
      </trkpt>
      <trkpt lat="45.12209" lon="5.53037">
        <ele>970.5</ele>
        <time>2022-08-12T13:58:16.000Z</time>
      </trkpt>
      <trkpt lat="45.12212" lon="5.53037">
        <ele>970.6</ele>
        <time>2022-08-12T13:58:17.000Z</time>
      </trkpt>
      <trkpt lat="45.12215" lon="5.53037">
        <ele>970.8</ele>
        <time>2022-08-12T13:58:18.000Z</time>
      </trkpt>
      <trkpt lat="45.12218" lon="5.53037">
        <ele>970.9</ele>
        <time>2022-08-12T13:58:19.000Z</time>
      </trkpt>
      <trkpt lat="45.12221" lon="5.53037">
        <ele>970.9</ele>
        <time>2022-08-12T13:58:20.000Z</time>
      </trkpt>
      <trkpt lat="45.12223" lon="5.53038">
        <ele>970.9</ele>
        <time>2022-08-12T13:58:21.000Z</time>
      </trkpt>
      <trkpt lat="45.12226" lon="5.53038">
        <ele>970.9</ele>
        <time>2022-08-12T13:58:22.000Z</time>
      </trkpt>
      <trkpt lat="45.12246" lon="5.5304">
        <ele>970.7</ele>
        <time>2022-08-12T13:58:28.000Z</time>
      </trkpt>
      <trkpt lat="45.12249" lon="5.53041">
        <ele>970.5</ele>
        <time>2022-08-12T13:58:29.000Z</time>
      </trkpt>
      <trkpt lat="45.12257" lon="5.53048">
        <ele>969.7</ele>
        <time>2022-08-12T13:58:31.000Z</time>
      </trkpt>
      <trkpt lat="45.1226" lon="5.53053">
        <ele>969.3</ele>
        <time>2022-08-12T13:58:32.000Z</time>
      </trkpt>
      <trkpt lat="45.12263" lon="5.53055">
        <ele>969.1</ele>
        <time>2022-08-12T13:58:33.000Z</time>
      </trkpt>
      <trkpt lat="45.12267" lon="5.53057">
        <ele>968.9</ele>
        <time>2022-08-12T13:58:34.000Z</time>
      </trkpt>
      <trkpt lat="45.1227" lon="5.53057">
        <ele>968.9</ele>
        <time>2022-08-12T13:58:35.000Z</time>
      </trkpt>
      <trkpt lat="45.12273" lon="5.53057">
        <ele>968.9</ele>
        <time>2022-08-12T13:58:36.000Z</time>
      </trkpt>
      <trkpt lat="45.12276" lon="5.53056">
        <ele>969</ele>
        <time>2022-08-12T13:58:37.000Z</time>
      </trkpt>
      <trkpt lat="45.12279" lon="5.53055">
        <ele>969</ele>
        <time>2022-08-12T13:58:38.000Z</time>
      </trkpt>
      <trkpt lat="45.12285" lon="5.53053">
        <ele>969.1</ele>
        <time>2022-08-12T13:58:40.000Z</time>
      </trkpt>
      <trkpt lat="45.12288" lon="5.53053">
        <ele>969.2</ele>
        <time>2022-08-12T13:58:41.000Z</time>
      </trkpt>
      <trkpt lat="45.12291" lon="5.53052">
        <ele>969.2</ele>
        <time>2022-08-12T13:58:42.000Z</time>
      </trkpt>
      <trkpt lat="45.12294" lon="5.53051">
        <ele>969.3</ele>
        <time>2022-08-12T13:58:43.000Z</time>
      </trkpt>
      <trkpt lat="45.12297" lon="5.5305">
        <ele>969.4</ele>
        <time>2022-08-12T13:58:44.000Z</time>
      </trkpt>
      <trkpt lat="45.123" lon="5.53049">
        <ele>969.5</ele>
        <time>2022-08-12T13:58:45.000Z</time>
      </trkpt>
      <trkpt lat="45.12311" lon="5.53046">
        <ele>969.6</ele>
        <time>2022-08-12T13:58:49.000Z</time>
      </trkpt>
      <trkpt lat="45.1233" lon="5.53039">
        <ele>969.8</ele>
        <time>2022-08-12T13:58:55.000Z</time>
      </trkpt>
      <trkpt lat="45.12342" lon="5.53034">
        <ele>970.4</ele>
        <time>2022-08-12T13:58:59.000Z</time>
      </trkpt>
      <trkpt lat="45.12352" lon="5.53029">
        <ele>970.9</ele>
        <time>2022-08-12T13:59:02.000Z</time>
      </trkpt>
      <trkpt lat="45.12361" lon="5.53026">
        <ele>971.1</ele>
        <time>2022-08-12T13:59:05.000Z</time>
      </trkpt>
      <trkpt lat="45.1237" lon="5.53024">
        <ele>971.3</ele>
        <time>2022-08-12T13:59:08.000Z</time>
      </trkpt>
      <trkpt lat="45.12373" lon="5.53023">
        <ele>971.4</ele>
        <time>2022-08-12T13:59:09.000Z</time>
      </trkpt>
      <trkpt lat="45.12375" lon="5.53022">
        <ele>971.4</ele>
        <time>2022-08-12T13:59:10.000Z</time>
      </trkpt>
      <trkpt lat="45.12378" lon="5.53021">
        <ele>971.5</ele>
        <time>2022-08-12T13:59:11.000Z</time>
      </trkpt>
      <trkpt lat="45.12381" lon="5.5302">
        <ele>971.6</ele>
        <time>2022-08-12T13:59:12.000Z</time>
      </trkpt>
      <trkpt lat="45.12383" lon="5.53019">
        <ele>971.7</ele>
        <time>2022-08-12T13:59:13.000Z</time>
      </trkpt>
      <trkpt lat="45.12389" lon="5.53017">
        <ele>971.8</ele>
        <time>2022-08-12T13:59:15.000Z</time>
      </trkpt>
      <trkpt lat="45.12404" lon="5.53011">
        <ele>972.2</ele>
        <time>2022-08-12T13:59:20.000Z</time>
      </trkpt>
      <trkpt lat="45.12408" lon="5.53009">
        <ele>972.3</ele>
        <time>2022-08-12T13:59:21.000Z</time>
      </trkpt>
      <trkpt lat="45.12415" lon="5.53007">
        <ele>972.5</ele>
        <time>2022-08-12T13:59:23.000Z</time>
      </trkpt>
      <trkpt lat="45.12437" lon="5.53">
        <ele>973</ele>
        <time>2022-08-12T13:59:30.000Z</time>
      </trkpt>
      <trkpt lat="45.12445" lon="5.52997">
        <ele>973.3</ele>
        <time>2022-08-12T13:59:33.000Z</time>
      </trkpt>
      <trkpt lat="45.12451" lon="5.52996">
        <ele>973.4</ele>
        <time>2022-08-12T13:59:35.000Z</time>
      </trkpt>
      <trkpt lat="45.12454" lon="5.52995">
        <ele>973.5</ele>
        <time>2022-08-12T13:59:36.000Z</time>
      </trkpt>
      <trkpt lat="45.12467" lon="5.5299">
        <ele>974.1</ele>
        <time>2022-08-12T13:59:40.000Z</time>
      </trkpt>
      <trkpt lat="45.1248" lon="5.52984">
        <ele>974.7</ele>
        <time>2022-08-12T13:59:45.000Z</time>
      </trkpt>
      <trkpt lat="45.12485" lon="5.52981">
        <ele>975.1</ele>
        <time>2022-08-12T13:59:47.000Z</time>
      </trkpt>
      <trkpt lat="45.12487" lon="5.52979">
        <ele>975.3</ele>
        <time>2022-08-12T13:59:48.000Z</time>
      </trkpt>
      <trkpt lat="45.1249" lon="5.52976">
        <ele>975.5</ele>
        <time>2022-08-12T13:59:49.000Z</time>
      </trkpt>
      <trkpt lat="45.12492" lon="5.52975">
        <ele>975.7</ele>
        <time>2022-08-12T13:59:50.000Z</time>
      </trkpt>
      <trkpt lat="45.12494" lon="5.52973">
        <ele>975.9</ele>
        <time>2022-08-12T13:59:51.000Z</time>
      </trkpt>
      <trkpt lat="45.12496" lon="5.52971">
        <ele>976.1</ele>
        <time>2022-08-12T13:59:52.000Z</time>
      </trkpt>
      <trkpt lat="45.12498" lon="5.52969">
        <ele>976.3</ele>
        <time>2022-08-12T13:59:53.000Z</time>
      </trkpt>
      <trkpt lat="45.12501" lon="5.52967">
        <ele>976.5</ele>
        <time>2022-08-12T13:59:54.000Z</time>
      </trkpt>
      <trkpt lat="45.12503" lon="5.52966">
        <ele>976.7</ele>
        <time>2022-08-12T13:59:55.000Z</time>
      </trkpt>
      <trkpt lat="45.12505" lon="5.52963">
        <ele>976.9</ele>
        <time>2022-08-12T13:59:56.000Z</time>
      </trkpt>
      <trkpt lat="45.12508" lon="5.52961">
        <ele>977.1</ele>
        <time>2022-08-12T13:59:57.000Z</time>
      </trkpt>
      <trkpt lat="45.1251" lon="5.52959">
        <ele>977.3</ele>
        <time>2022-08-12T13:59:58.000Z</time>
      </trkpt>
      <trkpt lat="45.12512" lon="5.52956">
        <ele>977.5</ele>
        <time>2022-08-12T13:59:59.000Z</time>
      </trkpt>
      <trkpt lat="45.12514" lon="5.52954">
        <ele>977.7</ele>
        <time>2022-08-12T14:00:00.000Z</time>
      </trkpt>
      <trkpt lat="45.12516" lon="5.52951">
        <ele>977.8</ele>
        <time>2022-08-12T14:00:01.000Z</time>
      </trkpt>
      <trkpt lat="45.12518" lon="5.52949">
        <ele>978</ele>
        <time>2022-08-12T14:00:02.000Z</time>
      </trkpt>
      <trkpt lat="45.1252" lon="5.52947">
        <ele>978.1</ele>
        <time>2022-08-12T14:00:03.000Z</time>
      </trkpt>
      <trkpt lat="45.12522" lon="5.52944">
        <ele>978.2</ele>
        <time>2022-08-12T14:00:04.000Z</time>
      </trkpt>
      <trkpt lat="45.12524" lon="5.52942">
        <ele>978.4</ele>
        <time>2022-08-12T14:00:05.000Z</time>
      </trkpt>
      <trkpt lat="45.12526" lon="5.5294">
        <ele>978.6</ele>
        <time>2022-08-12T14:00:06.000Z</time>
      </trkpt>
      <trkpt lat="45.12528" lon="5.52937">
        <ele>978.8</ele>
        <time>2022-08-12T14:00:07.000Z</time>
      </trkpt>
      <trkpt lat="45.1253" lon="5.52935">
        <ele>979</ele>
        <time>2022-08-12T14:00:08.000Z</time>
      </trkpt>
      <trkpt lat="45.12531" lon="5.52932">
        <ele>979.2</ele>
        <time>2022-08-12T14:00:09.000Z</time>
      </trkpt>
      <trkpt lat="45.12534" lon="5.5293">
        <ele>979.4</ele>
        <time>2022-08-12T14:00:10.000Z</time>
      </trkpt>
      <trkpt lat="45.12536" lon="5.52928">
        <ele>979.6</ele>
        <time>2022-08-12T14:00:11.000Z</time>
      </trkpt>
      <trkpt lat="45.12538" lon="5.52925">
        <ele>979.8</ele>
        <time>2022-08-12T14:00:12.000Z</time>
      </trkpt>
      <trkpt lat="45.12539" lon="5.52923">
        <ele>980</ele>
        <time>2022-08-12T14:00:13.000Z</time>
      </trkpt>
      <trkpt lat="45.12541" lon="5.5292">
        <ele>980.2</ele>
        <time>2022-08-12T14:00:14.000Z</time>
      </trkpt>
      <trkpt lat="45.12543" lon="5.52918">
        <ele>980.4</ele>
        <time>2022-08-12T14:00:15.000Z</time>
      </trkpt>
      <trkpt lat="45.12545" lon="5.52915">
        <ele>980.5</ele>
        <time>2022-08-12T14:00:16.000Z</time>
      </trkpt>
      <trkpt lat="45.12547" lon="5.52913">
        <ele>980.6</ele>
        <time>2022-08-12T14:00:17.000Z</time>
      </trkpt>
      <trkpt lat="45.12549" lon="5.5291">
        <ele>980.7</ele>
        <time>2022-08-12T14:00:18.000Z</time>
      </trkpt>
      <trkpt lat="45.12551" lon="5.52908">
        <ele>980.8</ele>
        <time>2022-08-12T14:00:19.000Z</time>
      </trkpt>
      <trkpt lat="45.12553" lon="5.52905">
        <ele>980.9</ele>
        <time>2022-08-12T14:00:20.000Z</time>
      </trkpt>
      <trkpt lat="45.12555" lon="5.52902">
        <ele>981.1</ele>
        <time>2022-08-12T14:00:21.000Z</time>
      </trkpt>
      <trkpt lat="45.12557" lon="5.52899">
        <ele>981.3</ele>
        <time>2022-08-12T14:00:22.000Z</time>
      </trkpt>
      <trkpt lat="45.12559" lon="5.52896">
        <ele>981.5</ele>
        <time>2022-08-12T14:00:23.000Z</time>
      </trkpt>
      <trkpt lat="45.12561" lon="5.52894">
        <ele>981.7</ele>
        <time>2022-08-12T14:00:24.000Z</time>
      </trkpt>
      <trkpt lat="45.12563" lon="5.5289">
        <ele>981.9</ele>
        <time>2022-08-12T14:00:25.000Z</time>
      </trkpt>
      <trkpt lat="45.12564" lon="5.52888">
        <ele>982</ele>
        <time>2022-08-12T14:00:26.000Z</time>
      </trkpt>
      <trkpt lat="45.12567" lon="5.52886">
        <ele>982.2</ele>
        <time>2022-08-12T14:00:27.000Z</time>
      </trkpt>
      <trkpt lat="45.12568" lon="5.52883">
        <ele>982.4</ele>
        <time>2022-08-12T14:00:28.000Z</time>
      </trkpt>
      <trkpt lat="45.1257" lon="5.52881">
        <ele>982.6</ele>
        <time>2022-08-12T14:00:29.000Z</time>
      </trkpt>
      <trkpt lat="45.12572" lon="5.52878">
        <ele>982.8</ele>
        <time>2022-08-12T14:00:30.000Z</time>
      </trkpt>
      <trkpt lat="45.12573" lon="5.52875">
        <ele>983</ele>
        <time>2022-08-12T14:00:31.000Z</time>
      </trkpt>
      <trkpt lat="45.12575" lon="5.52872">
        <ele>983.2</ele>
        <time>2022-08-12T14:00:32.000Z</time>
      </trkpt>
      <trkpt lat="45.12577" lon="5.52869">
        <ele>983.4</ele>
        <time>2022-08-12T14:00:33.000Z</time>
      </trkpt>
      <trkpt lat="45.12579" lon="5.52866">
        <ele>983.6</ele>
        <time>2022-08-12T14:00:34.000Z</time>
      </trkpt>
      <trkpt lat="45.1258" lon="5.52863">
        <ele>983.8</ele>
        <time>2022-08-12T14:00:35.000Z</time>
      </trkpt>
      <trkpt lat="45.12582" lon="5.5286">
        <ele>984</ele>
        <time>2022-08-12T14:00:36.000Z</time>
      </trkpt>
      <trkpt lat="45.12584" lon="5.52858">
        <ele>984.1</ele>
        <time>2022-08-12T14:00:37.000Z</time>
      </trkpt>
      <trkpt lat="45.12586" lon="5.52855">
        <ele>984.2</ele>
        <time>2022-08-12T14:00:38.000Z</time>
      </trkpt>
      <trkpt lat="45.12588" lon="5.52852">
        <ele>984.3</ele>
        <time>2022-08-12T14:00:39.000Z</time>
      </trkpt>
      <trkpt lat="45.1259" lon="5.52849">
        <ele>984.4</ele>
        <time>2022-08-12T14:00:40.000Z</time>
      </trkpt>
      <trkpt lat="45.12591" lon="5.52847">
        <ele>984.5</ele>
        <time>2022-08-12T14:00:41.000Z</time>
      </trkpt>
      <trkpt lat="45.12593" lon="5.52845">
        <ele>984.6</ele>
        <time>2022-08-12T14:00:42.000Z</time>
      </trkpt>
      <trkpt lat="45.12595" lon="5.52842">
        <ele>984.7</ele>
        <time>2022-08-12T14:00:43.000Z</time>
      </trkpt>
      <trkpt lat="45.12596" lon="5.52838">
        <ele>984.8</ele>
        <time>2022-08-12T14:00:44.000Z</time>
      </trkpt>
      <trkpt lat="45.12598" lon="5.52836">
        <ele>984.9</ele>
        <time>2022-08-12T14:00:45.000Z</time>
      </trkpt>
      <trkpt lat="45.126" lon="5.52833">
        <ele>985.1</ele>
        <time>2022-08-12T14:00:46.000Z</time>
      </trkpt>
      <trkpt lat="45.12601" lon="5.5283">
        <ele>985.3</ele>
        <time>2022-08-12T14:00:47.000Z</time>
      </trkpt>
      <trkpt lat="45.12603" lon="5.52827">
        <ele>985.5</ele>
        <time>2022-08-12T14:00:48.000Z</time>
      </trkpt>
      <trkpt lat="45.12605" lon="5.52824">
        <ele>985.7</ele>
        <time>2022-08-12T14:00:49.000Z</time>
      </trkpt>
      <trkpt lat="45.12607" lon="5.52821">
        <ele>985.9</ele>
        <time>2022-08-12T14:00:50.000Z</time>
      </trkpt>
      <trkpt lat="45.12609" lon="5.52818">
        <ele>986.1</ele>
        <time>2022-08-12T14:00:51.000Z</time>
      </trkpt>
      <trkpt lat="45.12611" lon="5.52815">
        <ele>986.3</ele>
        <time>2022-08-12T14:00:52.000Z</time>
      </trkpt>
      <trkpt lat="45.12613" lon="5.52813">
        <ele>986.4</ele>
        <time>2022-08-12T14:00:53.000Z</time>
      </trkpt>
      <trkpt lat="45.12615" lon="5.52811">
        <ele>986.5</ele>
        <time>2022-08-12T14:00:54.000Z</time>
      </trkpt>
      <trkpt lat="45.12617" lon="5.52809">
        <ele>986.5</ele>
        <time>2022-08-12T14:00:55.000Z</time>
      </trkpt>
      <trkpt lat="45.12621" lon="5.52807">
        <ele>986.5</ele>
        <time>2022-08-12T14:00:56.000Z</time>
      </trkpt>
      <trkpt lat="45.12623" lon="5.52806">
        <ele>986.5</ele>
        <time>2022-08-12T14:00:57.000Z</time>
      </trkpt>
      <trkpt lat="45.12626" lon="5.52804">
        <ele>986.5</ele>
        <time>2022-08-12T14:00:58.000Z</time>
      </trkpt>
      <trkpt lat="45.12629" lon="5.52802">
        <ele>986.5</ele>
        <time>2022-08-12T14:00:59.000Z</time>
      </trkpt>
      <trkpt lat="45.12633" lon="5.52801">
        <ele>986.4</ele>
        <time>2022-08-12T14:01:00.000Z</time>
      </trkpt>
      <trkpt lat="45.12636" lon="5.52799">
        <ele>986.4</ele>
        <time>2022-08-12T14:01:01.000Z</time>
      </trkpt>
      <trkpt lat="45.12638" lon="5.52798">
        <ele>986.3</ele>
        <time>2022-08-12T14:01:02.000Z</time>
      </trkpt>
      <trkpt lat="45.12641" lon="5.52796">
        <ele>986.3</ele>
        <time>2022-08-12T14:01:03.000Z</time>
      </trkpt>
      <trkpt lat="45.12644" lon="5.52794">
        <ele>986.2</ele>
        <time>2022-08-12T14:01:04.000Z</time>
      </trkpt>
      <trkpt lat="45.12647" lon="5.52792">
        <ele>986.2</ele>
        <time>2022-08-12T14:01:05.000Z</time>
      </trkpt>
      <trkpt lat="45.1265" lon="5.5279">
        <ele>986.2</ele>
        <time>2022-08-12T14:01:06.000Z</time>
      </trkpt>
      <trkpt lat="45.12652" lon="5.52788">
        <ele>986.2</ele>
        <time>2022-08-12T14:01:07.000Z</time>
      </trkpt>
      <trkpt lat="45.12654" lon="5.52785">
        <ele>986.2</ele>
        <time>2022-08-12T14:01:08.000Z</time>
      </trkpt>
      <trkpt lat="45.12657" lon="5.52783">
        <ele>986.2</ele>
        <time>2022-08-12T14:01:09.000Z</time>
      </trkpt>
      <trkpt lat="45.1266" lon="5.52781">
        <ele>986.1</ele>
        <time>2022-08-12T14:01:10.000Z</time>
      </trkpt>
      <trkpt lat="45.12662" lon="5.52779">
        <ele>986.1</ele>
        <time>2022-08-12T14:01:11.000Z</time>
      </trkpt>
      <trkpt lat="45.12664" lon="5.52776">
        <ele>986.1</ele>
        <time>2022-08-12T14:01:12.000Z</time>
      </trkpt>
      <trkpt lat="45.12666" lon="5.52774">
        <ele>986.1</ele>
        <time>2022-08-12T14:01:13.000Z</time>
      </trkpt>
      <trkpt lat="45.12669" lon="5.52771">
        <ele>986.2</ele>
        <time>2022-08-12T14:01:14.000Z</time>
      </trkpt>
      <trkpt lat="45.12671" lon="5.52769">
        <ele>986.2</ele>
        <time>2022-08-12T14:01:15.000Z</time>
      </trkpt>
      <trkpt lat="45.12672" lon="5.52765">
        <ele>986.3</ele>
        <time>2022-08-12T14:01:16.000Z</time>
      </trkpt>
      <trkpt lat="45.12672" lon="5.52761">
        <ele>986.4</ele>
        <time>2022-08-12T14:01:17.000Z</time>
      </trkpt>
      <trkpt lat="45.12669" lon="5.5275">
        <ele>986.9</ele>
        <time>2022-08-12T14:01:20.000Z</time>
      </trkpt>
      <trkpt lat="45.12668" lon="5.52748">
        <ele>987</ele>
        <time>2022-08-12T14:01:21.000Z</time>
      </trkpt>
      <trkpt lat="45.12667" lon="5.52746">
        <ele>987.1</ele>
        <time>2022-08-12T14:01:22.000Z</time>
      </trkpt>
      <trkpt lat="45.12666" lon="5.52744">
        <ele>987.3</ele>
        <time>2022-08-12T14:01:23.000Z</time>
      </trkpt>
      <trkpt lat="45.12665" lon="5.52742">
        <ele>987.4</ele>
        <time>2022-08-12T14:01:24.000Z</time>
      </trkpt>
      <trkpt lat="45.12665" lon="5.5274">
        <ele>987.5</ele>
        <time>2022-08-12T14:01:25.000Z</time>
      </trkpt>
      <trkpt lat="45.12663" lon="5.52739">
        <ele>987.7</ele>
        <time>2022-08-12T14:01:26.000Z</time>
      </trkpt>
      <trkpt lat="45.12662" lon="5.52737">
        <ele>987.9</ele>
        <time>2022-08-12T14:01:27.000Z</time>
      </trkpt>
      <trkpt lat="45.12661" lon="5.52735">
        <ele>988</ele>
        <time>2022-08-12T14:01:28.000Z</time>
      </trkpt>
      <trkpt lat="45.12661" lon="5.52733">
        <ele>988.1</ele>
        <time>2022-08-12T14:01:29.000Z</time>
      </trkpt>
      <trkpt lat="45.1266" lon="5.52732">
        <ele>988.2</ele>
        <time>2022-08-12T14:01:30.000Z</time>
      </trkpt>
      <trkpt lat="45.1266" lon="5.5273">
        <ele>988.4</ele>
        <time>2022-08-12T14:01:31.000Z</time>
      </trkpt>
      <trkpt lat="45.1266" lon="5.52728">
        <ele>988.5</ele>
        <time>2022-08-12T14:01:32.000Z</time>
      </trkpt>
      <trkpt lat="45.1266" lon="5.52725">
        <ele>988.6</ele>
        <time>2022-08-12T14:01:33.000Z</time>
      </trkpt>
      <trkpt lat="45.1266" lon="5.52723">
        <ele>988.7</ele>
        <time>2022-08-12T14:01:34.000Z</time>
      </trkpt>
      <trkpt lat="45.1266" lon="5.52722">
        <ele>988.7</ele>
        <time>2022-08-12T14:01:35.000Z</time>
      </trkpt>
      <trkpt lat="45.12661" lon="5.52721">
        <ele>988.7</ele>
        <time>2022-08-12T14:01:36.000Z</time>
      </trkpt>
      <trkpt lat="45.12662" lon="5.52719">
        <ele>988.6</ele>
        <time>2022-08-12T14:01:37.000Z</time>
      </trkpt>
      <trkpt lat="45.12664" lon="5.52717">
        <ele>988.5</ele>
        <time>2022-08-12T14:01:38.000Z</time>
      </trkpt>
      <trkpt lat="45.12665" lon="5.52715">
        <ele>988.4</ele>
        <time>2022-08-12T14:01:39.000Z</time>
      </trkpt>
      <trkpt lat="45.12666" lon="5.52714">
        <ele>988.3</ele>
        <time>2022-08-12T14:01:40.000Z</time>
      </trkpt>
      <trkpt lat="45.12668" lon="5.52712">
        <ele>988.3</ele>
        <time>2022-08-12T14:01:41.000Z</time>
      </trkpt>
      <trkpt lat="45.12668" lon="5.52711">
        <ele>988.3</ele>
        <time>2022-08-12T14:01:42.000Z</time>
      </trkpt>
      <trkpt lat="45.12669" lon="5.52712">
        <ele>988.3</ele>
        <time>2022-08-12T14:01:46.000Z</time>
      </trkpt>
      <trkpt lat="45.1267" lon="5.52715">
        <ele>988.2</ele>
        <time>2022-08-12T14:01:48.000Z</time>
      </trkpt>
      <trkpt lat="45.1267" lon="5.52716">
        <ele>988.1</ele>
        <time>2022-08-12T14:01:49.000Z</time>
      </trkpt>
      <trkpt lat="45.12671" lon="5.5272">
        <ele>987.9</ele>
        <time>2022-08-12T14:28:42.000Z</time>
      </trkpt>
      <trkpt lat="45.12673" lon="5.52718">
        <ele>987.9</ele>
        <time>2022-08-12T14:28:43.000Z</time>
      </trkpt>
      <trkpt lat="45.12675" lon="5.52716">
        <ele>987.9</ele>
        <time>2022-08-12T14:28:44.000Z</time>
      </trkpt>
      <trkpt lat="45.12683" lon="5.52709">
        <ele>987.9</ele>
        <time>2022-08-12T14:28:47.000Z</time>
      </trkpt>
      <trkpt lat="45.12688" lon="5.52706">
        <ele>987.8</ele>
        <time>2022-08-12T14:28:48.000Z</time>
      </trkpt>
      <trkpt lat="45.12698" lon="5.52702">
        <ele>987.6</ele>
        <time>2022-08-12T14:28:50.000Z</time>
      </trkpt>
      <trkpt lat="45.1271" lon="5.52696">
        <ele>987.4</ele>
        <time>2022-08-12T14:28:52.000Z</time>
      </trkpt>
      <trkpt lat="45.12722" lon="5.52688">
        <ele>987.3</ele>
        <time>2022-08-12T14:28:54.000Z</time>
      </trkpt>
      <trkpt lat="45.12726" lon="5.52685">
        <ele>987.2</ele>
        <time>2022-08-12T14:28:55.000Z</time>
      </trkpt>
      <trkpt lat="45.12731" lon="5.5268">
        <ele>987.2</ele>
        <time>2022-08-12T14:28:56.000Z</time>
      </trkpt>
      <trkpt lat="45.12734" lon="5.52675">
        <ele>987.3</ele>
        <time>2022-08-12T14:28:57.000Z</time>
      </trkpt>
      <trkpt lat="45.12737" lon="5.5267">
        <ele>987.3</ele>
        <time>2022-08-12T14:28:58.000Z</time>
      </trkpt>
      <trkpt lat="45.12741" lon="5.52664">
        <ele>987.4</ele>
        <time>2022-08-12T14:28:59.000Z</time>
      </trkpt>
      <trkpt lat="45.12742" lon="5.52659">
        <ele>987.5</ele>
        <time>2022-08-12T14:29:00.000Z</time>
      </trkpt>
      <trkpt lat="45.12743" lon="5.52654">
        <ele>987.7</ele>
        <time>2022-08-12T14:29:01.000Z</time>
      </trkpt>
      <trkpt lat="45.12744" lon="5.52649">
        <ele>987.8</ele>
        <time>2022-08-12T14:29:02.000Z</time>
      </trkpt>
      <trkpt lat="45.12745" lon="5.52645">
        <ele>988</ele>
        <time>2022-08-12T14:29:03.000Z</time>
      </trkpt>
      <trkpt lat="45.12745" lon="5.52641">
        <ele>988.1</ele>
        <time>2022-08-12T14:29:04.000Z</time>
      </trkpt>
      <trkpt lat="45.12745" lon="5.52637">
        <ele>988.2</ele>
        <time>2022-08-12T14:29:05.000Z</time>
      </trkpt>
      <trkpt lat="45.12746" lon="5.52634">
        <ele>988.3</ele>
        <time>2022-08-12T14:29:06.000Z</time>
      </trkpt>
      <trkpt lat="45.12746" lon="5.5263">
        <ele>988.5</ele>
        <time>2022-08-12T14:29:07.000Z</time>
      </trkpt>
      <trkpt lat="45.12746" lon="5.52622">
        <ele>988.7</ele>
        <time>2022-08-12T14:29:09.000Z</time>
      </trkpt>
      <trkpt lat="45.12746" lon="5.52619">
        <ele>988.9</ele>
        <time>2022-08-12T14:29:10.000Z</time>
      </trkpt>
      <trkpt lat="45.12747" lon="5.52615">
        <ele>989</ele>
        <time>2022-08-12T14:29:11.000Z</time>
      </trkpt>
      <trkpt lat="45.12747" lon="5.52607">
        <ele>989.2</ele>
        <time>2022-08-12T14:29:13.000Z</time>
      </trkpt>
      <trkpt lat="45.12748" lon="5.52603">
        <ele>989.4</ele>
        <time>2022-08-12T14:29:14.000Z</time>
      </trkpt>
      <trkpt lat="45.12749" lon="5.52599">
        <ele>989.5</ele>
        <time>2022-08-12T14:29:15.000Z</time>
      </trkpt>
      <trkpt lat="45.12749" lon="5.52596">
        <ele>989.6</ele>
        <time>2022-08-12T14:29:16.000Z</time>
      </trkpt>
      <trkpt lat="45.12749" lon="5.52592">
        <ele>989.7</ele>
        <time>2022-08-12T14:29:17.000Z</time>
      </trkpt>
      <trkpt lat="45.1275" lon="5.52588">
        <ele>989.8</ele>
        <time>2022-08-12T14:29:18.000Z</time>
      </trkpt>
      <trkpt lat="45.12751" lon="5.52585">
        <ele>989.9</ele>
        <time>2022-08-12T14:29:19.000Z</time>
      </trkpt>
      <trkpt lat="45.12753" lon="5.52575">
        <ele>990.3</ele>
        <time>2022-08-12T14:29:22.000Z</time>
      </trkpt>
      <trkpt lat="45.12757" lon="5.52545">
        <ele>991.1</ele>
        <time>2022-08-12T14:29:30.000Z</time>
      </trkpt>
      <trkpt lat="45.12758" lon="5.52538">
        <ele>991.4</ele>
        <time>2022-08-12T14:29:32.000Z</time>
      </trkpt>
      <trkpt lat="45.12758" lon="5.52534">
        <ele>991.5</ele>
        <time>2022-08-12T14:29:33.000Z</time>
      </trkpt>
      <trkpt lat="45.1276" lon="5.52523">
        <ele>991.7</ele>
        <time>2022-08-12T14:29:36.000Z</time>
      </trkpt>
      <trkpt lat="45.12761" lon="5.52516">
        <ele>991.8</ele>
        <time>2022-08-12T14:29:38.000Z</time>
      </trkpt>
      <trkpt lat="45.12763" lon="5.52501">
        <ele>992</ele>
        <time>2022-08-12T14:29:42.000Z</time>
      </trkpt>
      <trkpt lat="45.12764" lon="5.5249">
        <ele>992.2</ele>
        <time>2022-08-12T14:29:45.000Z</time>
      </trkpt>
      <trkpt lat="45.12765" lon="5.52487">
        <ele>992.2</ele>
        <time>2022-08-12T14:29:46.000Z</time>
      </trkpt>
      <trkpt lat="45.12765" lon="5.52483">
        <ele>992.3</ele>
        <time>2022-08-12T14:29:47.000Z</time>
      </trkpt>
      <trkpt lat="45.12767" lon="5.52476">
        <ele>992.3</ele>
        <time>2022-08-12T14:29:49.000Z</time>
      </trkpt>
      <trkpt lat="45.12767" lon="5.52473">
        <ele>992.4</ele>
        <time>2022-08-12T14:29:50.000Z</time>
      </trkpt>
      <trkpt lat="45.12768" lon="5.52469">
        <ele>992.5</ele>
        <time>2022-08-12T14:29:51.000Z</time>
      </trkpt>
      <trkpt lat="45.12772" lon="5.52452">
        <ele>992.9</ele>
        <time>2022-08-12T14:29:56.000Z</time>
      </trkpt>
      <trkpt lat="45.12773" lon="5.52432">
        <ele>993.5</ele>
        <time>2022-08-12T14:30:02.000Z</time>
      </trkpt>
      <trkpt lat="45.12775" lon="5.52415">
        <ele>994</ele>
        <time>2022-08-12T14:30:06.000Z</time>
      </trkpt>
      <trkpt lat="45.12776" lon="5.52411">
        <ele>994</ele>
        <time>2022-08-12T14:30:07.000Z</time>
      </trkpt>
      <trkpt lat="45.12778" lon="5.52401">
        <ele>994</ele>
        <time>2022-08-12T14:30:10.000Z</time>
      </trkpt>
      <trkpt lat="45.12783" lon="5.52376">
        <ele>994.5</ele>
        <time>2022-08-12T14:30:17.000Z</time>
      </trkpt>
      <trkpt lat="45.12784" lon="5.52373">
        <ele>994.7</ele>
        <time>2022-08-12T14:30:18.000Z</time>
      </trkpt>
      <trkpt lat="45.12786" lon="5.52366">
        <ele>994.9</ele>
        <time>2022-08-12T14:30:20.000Z</time>
      </trkpt>
      <trkpt lat="45.12789" lon="5.52345">
        <ele>995.2</ele>
        <time>2022-08-12T14:30:26.000Z</time>
      </trkpt>
      <trkpt lat="45.12791" lon="5.52334">
        <ele>995.5</ele>
        <time>2022-08-12T14:30:29.000Z</time>
      </trkpt>
      <trkpt lat="45.12792" lon="5.52323">
        <ele>995.7</ele>
        <time>2022-08-12T14:30:32.000Z</time>
      </trkpt>
      <trkpt lat="45.12792" lon="5.52315">
        <ele>995.8</ele>
        <time>2022-08-12T14:30:34.000Z</time>
      </trkpt>
      <trkpt lat="45.12793" lon="5.52311">
        <ele>995.9</ele>
        <time>2022-08-12T14:30:35.000Z</time>
      </trkpt>
      <trkpt lat="45.12794" lon="5.52304">
        <ele>996</ele>
        <time>2022-08-12T14:30:37.000Z</time>
      </trkpt>
      <trkpt lat="45.12799" lon="5.5227">
        <ele>996.3</ele>
        <time>2022-08-12T14:30:46.000Z</time>
      </trkpt>
      <trkpt lat="45.12806" lon="5.52234">
        <ele>996.6</ele>
        <time>2022-08-12T14:30:56.000Z</time>
      </trkpt>
      <trkpt lat="45.12808" lon="5.52227">
        <ele>996.9</ele>
        <time>2022-08-12T14:30:58.000Z</time>
      </trkpt>
      <trkpt lat="45.12811" lon="5.52216">
        <ele>997.2</ele>
        <time>2022-08-12T14:31:01.000Z</time>
      </trkpt>
      <trkpt lat="45.12811" lon="5.52204">
        <ele>997.4</ele>
        <time>2022-08-12T14:31:04.000Z</time>
      </trkpt>
      <trkpt lat="45.12813" lon="5.52188">
        <ele>997.5</ele>
        <time>2022-08-12T14:31:08.000Z</time>
      </trkpt>
      <trkpt lat="45.12814" lon="5.52172">
        <ele>997.4</ele>
        <time>2022-08-12T14:31:12.000Z</time>
      </trkpt>
      <trkpt lat="45.12817" lon="5.52151">
        <ele>997.7</ele>
        <time>2022-08-12T14:31:17.000Z</time>
      </trkpt>
      <trkpt lat="45.12818" lon="5.52147">
        <ele>997.8</ele>
        <time>2022-08-12T14:31:18.000Z</time>
      </trkpt>
      <trkpt lat="45.12818" lon="5.52143">
        <ele>998</ele>
        <time>2022-08-12T14:31:19.000Z</time>
      </trkpt>
      <trkpt lat="45.12819" lon="5.52138">
        <ele>998.1</ele>
        <time>2022-08-12T14:31:20.000Z</time>
      </trkpt>
      <trkpt lat="45.12816" lon="5.52118">
        <ele>998.2</ele>
        <time>2022-08-12T14:31:25.000Z</time>
      </trkpt>
      <trkpt lat="45.12815" lon="5.52114">
        <ele>998.3</ele>
        <time>2022-08-12T14:31:26.000Z</time>
      </trkpt>
      <trkpt lat="45.12807" lon="5.521">
        <ele>998.9</ele>
        <time>2022-08-12T14:31:30.000Z</time>
      </trkpt>
      <trkpt lat="45.12805" lon="5.52097">
        <ele>999</ele>
        <time>2022-08-12T14:31:31.000Z</time>
      </trkpt>
      <trkpt lat="45.12803" lon="5.52094">
        <ele>999.2</ele>
        <time>2022-08-12T14:31:32.000Z</time>
      </trkpt>
      <trkpt lat="45.12801" lon="5.52091">
        <ele>999.3</ele>
        <time>2022-08-12T14:31:33.000Z</time>
      </trkpt>
      <trkpt lat="45.1279" lon="5.52078">
        <ele>1000.2</ele>
        <time>2022-08-12T14:31:38.000Z</time>
      </trkpt>
      <trkpt lat="45.12787" lon="5.52076">
        <ele>1000.4</ele>
        <time>2022-08-12T14:31:39.000Z</time>
      </trkpt>
      <trkpt lat="45.12785" lon="5.52074">
        <ele>1000.6</ele>
        <time>2022-08-12T14:31:40.000Z</time>
      </trkpt>
      <trkpt lat="45.12783" lon="5.52071">
        <ele>1000.7</ele>
        <time>2022-08-12T14:31:41.000Z</time>
      </trkpt>
      <trkpt lat="45.12781" lon="5.52069">
        <ele>1000.8</ele>
        <time>2022-08-12T14:31:42.000Z</time>
      </trkpt>
      <trkpt lat="45.12778" lon="5.52067">
        <ele>1001</ele>
        <time>2022-08-12T14:31:43.000Z</time>
      </trkpt>
      <trkpt lat="45.12776" lon="5.52066">
        <ele>1001.1</ele>
        <time>2022-08-12T14:31:44.000Z</time>
      </trkpt>
      <trkpt lat="45.12774" lon="5.52064">
        <ele>1001.2</ele>
        <time>2022-08-12T14:31:45.000Z</time>
      </trkpt>
      <trkpt lat="45.12772" lon="5.52062">
        <ele>1001.3</ele>
        <time>2022-08-12T14:31:46.000Z</time>
      </trkpt>
      <trkpt lat="45.12769" lon="5.52061">
        <ele>1001.4</ele>
        <time>2022-08-12T14:31:47.000Z</time>
      </trkpt>
      <trkpt lat="45.12762" lon="5.52056">
        <ele>1001.6</ele>
        <time>2022-08-12T14:31:50.000Z</time>
      </trkpt>
      <trkpt lat="45.1276" lon="5.52055">
        <ele>1001.7</ele>
        <time>2022-08-12T14:31:51.000Z</time>
      </trkpt>
      <trkpt lat="45.1274" lon="5.52043">
        <ele>1002.6</ele>
        <time>2022-08-12T14:31:59.000Z</time>
      </trkpt>
      <trkpt lat="45.1273" lon="5.52037">
        <ele>1003</ele>
        <time>2022-08-12T14:32:03.000Z</time>
      </trkpt>
      <trkpt lat="45.12728" lon="5.52035">
        <ele>1003</ele>
        <time>2022-08-12T14:32:04.000Z</time>
      </trkpt>
      <trkpt lat="45.12726" lon="5.52034">
        <ele>1003.1</ele>
        <time>2022-08-12T14:32:05.000Z</time>
      </trkpt>
      <trkpt lat="45.12723" lon="5.52032">
        <ele>1003.1</ele>
        <time>2022-08-12T14:32:06.000Z</time>
      </trkpt>
      <trkpt lat="45.12721" lon="5.52031">
        <ele>1003.2</ele>
        <time>2022-08-12T14:32:07.000Z</time>
      </trkpt>
      <trkpt lat="45.12719" lon="5.52029">
        <ele>1003.3</ele>
        <time>2022-08-12T14:32:08.000Z</time>
      </trkpt>
      <trkpt lat="45.12715" lon="5.52026">
        <ele>1003.6</ele>
        <time>2022-08-12T14:32:10.000Z</time>
      </trkpt>
      <trkpt lat="45.12709" lon="5.52022">
        <ele>1004.2</ele>
        <time>2022-08-12T14:32:13.000Z</time>
      </trkpt>
      <trkpt lat="45.12706" lon="5.5202">
        <ele>1004.4</ele>
        <time>2022-08-12T14:32:14.000Z</time>
      </trkpt>
      <trkpt lat="45.12704" lon="5.52019">
        <ele>1004.5</ele>
        <time>2022-08-12T14:32:15.000Z</time>
      </trkpt>
      <trkpt lat="45.12701" lon="5.52018">
        <ele>1004.7</ele>
        <time>2022-08-12T14:32:16.000Z</time>
      </trkpt>
      <trkpt lat="45.12699" lon="5.52016">
        <ele>1004.8</ele>
        <time>2022-08-12T14:32:17.000Z</time>
      </trkpt>
      <trkpt lat="45.12697" lon="5.52015">
        <ele>1004.9</ele>
        <time>2022-08-12T14:32:18.000Z</time>
      </trkpt>
      <trkpt lat="45.12694" lon="5.52014">
        <ele>1005</ele>
        <time>2022-08-12T14:32:19.000Z</time>
      </trkpt>
      <trkpt lat="45.12692" lon="5.52013">
        <ele>1005.2</ele>
        <time>2022-08-12T14:32:20.000Z</time>
      </trkpt>
      <trkpt lat="45.1268" lon="5.52011">
        <ele>1006.1</ele>
        <time>2022-08-12T14:32:25.000Z</time>
      </trkpt>
      <trkpt lat="45.12677" lon="5.5201">
        <ele>1006.2</ele>
        <time>2022-08-12T14:32:26.000Z</time>
      </trkpt>
      <trkpt lat="45.12675" lon="5.52008">
        <ele>1006.4</ele>
        <time>2022-08-12T14:32:27.000Z</time>
      </trkpt>
      <trkpt lat="45.12662" lon="5.51999">
        <ele>1007.2</ele>
        <time>2022-08-12T14:32:33.000Z</time>
      </trkpt>
      <trkpt lat="45.12661" lon="5.51998">
        <ele>1007.2</ele>
        <time>2022-08-12T14:32:34.000Z</time>
      </trkpt>
      <trkpt lat="45.12659" lon="5.51997">
        <ele>1007.3</ele>
        <time>2022-08-12T14:32:35.000Z</time>
      </trkpt>
      <trkpt lat="45.12656" lon="5.51996">
        <ele>1007.4</ele>
        <time>2022-08-12T14:32:36.000Z</time>
      </trkpt>
      <trkpt lat="45.12654" lon="5.51995">
        <ele>1007.4</ele>
        <time>2022-08-12T14:32:37.000Z</time>
      </trkpt>
      <trkpt lat="45.1265" lon="5.51993">
        <ele>1007.6</ele>
        <time>2022-08-12T14:32:39.000Z</time>
      </trkpt>
      <trkpt lat="45.12649" lon="5.51992">
        <ele>1007.7</ele>
        <time>2022-08-12T14:32:40.000Z</time>
      </trkpt>
      <trkpt lat="45.12647" lon="5.51991">
        <ele>1007.7</ele>
        <time>2022-08-12T14:32:41.000Z</time>
      </trkpt>
      <trkpt lat="45.12645" lon="5.51991">
        <ele>1007.8</ele>
        <time>2022-08-12T14:32:42.000Z</time>
      </trkpt>
      <trkpt lat="45.12637" lon="5.51988">
        <ele>1008.1</ele>
        <time>2022-08-12T14:32:46.000Z</time>
      </trkpt>
      <trkpt lat="45.12635" lon="5.51986">
        <ele>1008.2</ele>
        <time>2022-08-12T14:32:47.000Z</time>
      </trkpt>
      <trkpt lat="45.12633" lon="5.51986">
        <ele>1008.3</ele>
        <time>2022-08-12T14:32:48.000Z</time>
      </trkpt>
      <trkpt lat="45.1263" lon="5.51985">
        <ele>1008.4</ele>
        <time>2022-08-12T14:32:49.000Z</time>
      </trkpt>
      <trkpt lat="45.12628" lon="5.51984">
        <ele>1008.5</ele>
        <time>2022-08-12T14:32:50.000Z</time>
      </trkpt>
      <trkpt lat="45.12626" lon="5.51982">
        <ele>1008.6</ele>
        <time>2022-08-12T14:32:51.000Z</time>
      </trkpt>
      <trkpt lat="45.12624" lon="5.51982">
        <ele>1008.7</ele>
        <time>2022-08-12T14:32:52.000Z</time>
      </trkpt>
      <trkpt lat="45.12621" lon="5.51981">
        <ele>1008.8</ele>
        <time>2022-08-12T14:32:53.000Z</time>
      </trkpt>
      <trkpt lat="45.12619" lon="5.5198">
        <ele>1008.9</ele>
        <time>2022-08-12T14:32:54.000Z</time>
      </trkpt>
      <trkpt lat="45.12616" lon="5.51979">
        <ele>1009</ele>
        <time>2022-08-12T14:32:55.000Z</time>
      </trkpt>
      <trkpt lat="45.12614" lon="5.51979">
        <ele>1009.1</ele>
        <time>2022-08-12T14:32:56.000Z</time>
      </trkpt>
      <trkpt lat="45.12612" lon="5.51978">
        <ele>1009.2</ele>
        <time>2022-08-12T14:32:57.000Z</time>
      </trkpt>
      <trkpt lat="45.1261" lon="5.51977">
        <ele>1009.3</ele>
        <time>2022-08-12T14:32:58.000Z</time>
      </trkpt>
      <trkpt lat="45.12607" lon="5.51977">
        <ele>1009.6</ele>
        <time>2022-08-12T14:32:59.000Z</time>
      </trkpt>
      <trkpt lat="45.12605" lon="5.51976">
        <ele>1009.8</ele>
        <time>2022-08-12T14:33:00.000Z</time>
      </trkpt>
      <trkpt lat="45.12603" lon="5.51976">
        <ele>1010</ele>
        <time>2022-08-12T14:33:01.000Z</time>
      </trkpt>
      <trkpt lat="45.12601" lon="5.51975">
        <ele>1010.2</ele>
        <time>2022-08-12T14:33:02.000Z</time>
      </trkpt>
      <trkpt lat="45.12599" lon="5.51975">
        <ele>1010.5</ele>
        <time>2022-08-12T14:33:03.000Z</time>
      </trkpt>
      <trkpt lat="45.12597" lon="5.51974">
        <ele>1010.6</ele>
        <time>2022-08-12T14:33:04.000Z</time>
      </trkpt>
      <trkpt lat="45.12596" lon="5.51973">
        <ele>1010.7</ele>
        <time>2022-08-12T14:33:05.000Z</time>
      </trkpt>
      <trkpt lat="45.12594" lon="5.51972">
        <ele>1010.8</ele>
        <time>2022-08-12T14:33:06.000Z</time>
      </trkpt>
      <trkpt lat="45.12592" lon="5.51972">
        <ele>1011</ele>
        <time>2022-08-12T14:33:07.000Z</time>
      </trkpt>
      <trkpt lat="45.12591" lon="5.51971">
        <ele>1011.2</ele>
        <time>2022-08-12T14:33:08.000Z</time>
      </trkpt>
      <trkpt lat="45.12589" lon="5.5197">
        <ele>1011.4</ele>
        <time>2022-08-12T14:33:09.000Z</time>
      </trkpt>
      <trkpt lat="45.12587" lon="5.5197">
        <ele>1011.5</ele>
        <time>2022-08-12T14:33:10.000Z</time>
      </trkpt>
      <trkpt lat="45.12586" lon="5.51969">
        <ele>1011.6</ele>
        <time>2022-08-12T14:33:11.000Z</time>
      </trkpt>
      <trkpt lat="45.12585" lon="5.51968">
        <ele>1011.7</ele>
        <time>2022-08-12T14:33:12.000Z</time>
      </trkpt>
      <trkpt lat="45.12581" lon="5.51966">
        <ele>1012.1</ele>
        <time>2022-08-12T14:33:14.000Z</time>
      </trkpt>
      <trkpt lat="45.12578" lon="5.51965">
        <ele>1012.6</ele>
        <time>2022-08-12T14:33:16.000Z</time>
      </trkpt>
      <trkpt lat="45.12573" lon="5.51961">
        <ele>1013.2</ele>
        <time>2022-08-12T14:33:19.000Z</time>
      </trkpt>
      <trkpt lat="45.12566" lon="5.51956">
        <ele>1013.8</ele>
        <time>2022-08-12T14:33:23.000Z</time>
      </trkpt>
      <trkpt lat="45.12565" lon="5.51955">
        <ele>1013.9</ele>
        <time>2022-08-12T14:33:24.000Z</time>
      </trkpt>
      <trkpt lat="45.12552" lon="5.51944">
        <ele>1014.7</ele>
        <time>2022-08-12T14:33:31.000Z</time>
      </trkpt>
      <trkpt lat="45.12547" lon="5.51939">
        <ele>1015.1</ele>
        <time>2022-08-12T14:33:34.000Z</time>
      </trkpt>
      <trkpt lat="45.12541" lon="5.51934">
        <ele>1015.4</ele>
        <time>2022-08-12T14:33:37.000Z</time>
      </trkpt>
      <trkpt lat="45.1254" lon="5.51933">
        <ele>1015.5</ele>
        <time>2022-08-12T14:33:38.000Z</time>
      </trkpt>
      <trkpt lat="45.12536" lon="5.51931">
        <ele>1015.6</ele>
        <time>2022-08-12T14:33:40.000Z</time>
      </trkpt>
      <trkpt lat="45.12533" lon="5.51929">
        <ele>1015.6</ele>
        <time>2022-08-12T14:33:42.000Z</time>
      </trkpt>
      <trkpt lat="45.12526" lon="5.51922">
        <ele>1015.3</ele>
        <time>2022-08-12T14:33:46.000Z</time>
      </trkpt>
      <trkpt lat="45.12525" lon="5.51921">
        <ele>1015.3</ele>
        <time>2022-08-12T14:33:47.000Z</time>
      </trkpt>
      <trkpt lat="45.12523" lon="5.51919">
        <ele>1015.5</ele>
        <time>2022-08-12T14:33:48.000Z</time>
      </trkpt>
      <trkpt lat="45.12521" lon="5.51918">
        <ele>1015.8</ele>
        <time>2022-08-12T14:33:49.000Z</time>
      </trkpt>
      <trkpt lat="45.12509" lon="5.51909">
        <ele>1017.2</ele>
        <time>2022-08-12T14:33:56.000Z</time>
      </trkpt>
      <trkpt lat="45.12507" lon="5.51907">
        <ele>1017.3</ele>
        <time>2022-08-12T14:33:57.000Z</time>
      </trkpt>
      <trkpt lat="45.12505" lon="5.51906">
        <ele>1017.5</ele>
        <time>2022-08-12T14:33:58.000Z</time>
      </trkpt>
      <trkpt lat="45.12503" lon="5.51905">
        <ele>1017.6</ele>
        <time>2022-08-12T14:33:59.000Z</time>
      </trkpt>
      <trkpt lat="45.12501" lon="5.51904">
        <ele>1017.5</ele>
        <time>2022-08-12T14:34:00.000Z</time>
      </trkpt>
      <trkpt lat="45.125" lon="5.51902">
        <ele>1017.4</ele>
        <time>2022-08-12T14:34:01.000Z</time>
      </trkpt>
      <trkpt lat="45.12499" lon="5.519">
        <ele>1017.4</ele>
        <time>2022-08-12T14:34:02.000Z</time>
      </trkpt>
      <trkpt lat="45.12497" lon="5.51899">
        <ele>1017.5</ele>
        <time>2022-08-12T14:34:03.000Z</time>
      </trkpt>
      <trkpt lat="45.12496" lon="5.51897">
        <ele>1017.6</ele>
        <time>2022-08-12T14:34:04.000Z</time>
      </trkpt>
      <trkpt lat="45.12494" lon="5.51896">
        <ele>1017.8</ele>
        <time>2022-08-12T14:34:05.000Z</time>
      </trkpt>
      <trkpt lat="45.12492" lon="5.51895">
        <ele>1018</ele>
        <time>2022-08-12T14:34:06.000Z</time>
      </trkpt>
      <trkpt lat="45.1249" lon="5.51894">
        <ele>1018.1</ele>
        <time>2022-08-12T14:34:07.000Z</time>
      </trkpt>
      <trkpt lat="45.12489" lon="5.51893">
        <ele>1018.1</ele>
        <time>2022-08-12T14:34:08.000Z</time>
      </trkpt>
      <trkpt lat="45.12487" lon="5.51891">
        <ele>1018.1</ele>
        <time>2022-08-12T14:34:09.000Z</time>
      </trkpt>
      <trkpt lat="45.12485" lon="5.5189">
        <ele>1018.1</ele>
        <time>2022-08-12T14:34:10.000Z</time>
      </trkpt>
      <trkpt lat="45.12483" lon="5.51889">
        <ele>1018.2</ele>
        <time>2022-08-12T14:34:11.000Z</time>
      </trkpt>
      <trkpt lat="45.12481" lon="5.51888">
        <ele>1018.4</ele>
        <time>2022-08-12T14:34:12.000Z</time>
      </trkpt>
      <trkpt lat="45.12479" lon="5.51887">
        <ele>1018.7</ele>
        <time>2022-08-12T14:34:13.000Z</time>
      </trkpt>
      <trkpt lat="45.12477" lon="5.51885">
        <ele>1018.8</ele>
        <time>2022-08-12T14:34:14.000Z</time>
      </trkpt>
      <trkpt lat="45.12476" lon="5.51883">
        <ele>1018.8</ele>
        <time>2022-08-12T14:34:15.000Z</time>
      </trkpt>
      <trkpt lat="45.12474" lon="5.51882">
        <ele>1018.8</ele>
        <time>2022-08-12T14:34:16.000Z</time>
      </trkpt>
      <trkpt lat="45.12473" lon="5.51881">
        <ele>1018.8</ele>
        <time>2022-08-12T14:34:17.000Z</time>
      </trkpt>
      <trkpt lat="45.12471" lon="5.5188">
        <ele>1019.1</ele>
        <time>2022-08-12T14:34:18.000Z</time>
      </trkpt>
      <trkpt lat="45.1247" lon="5.51878">
        <ele>1019.3</ele>
        <time>2022-08-12T14:34:19.000Z</time>
      </trkpt>
      <trkpt lat="45.12469" lon="5.51876">
        <ele>1019.2</ele>
        <time>2022-08-12T14:34:20.000Z</time>
      </trkpt>
      <trkpt lat="45.12468" lon="5.51874">
        <ele>1019.5</ele>
        <time>2022-08-12T14:34:21.000Z</time>
      </trkpt>
      <trkpt lat="45.12467" lon="5.51873">
        <ele>1019.7</ele>
        <time>2022-08-12T14:34:22.000Z</time>
      </trkpt>
      <trkpt lat="45.12466" lon="5.51871">
        <ele>1019.8</ele>
        <time>2022-08-12T14:34:23.000Z</time>
      </trkpt>
      <trkpt lat="45.12464" lon="5.5187">
        <ele>1020</ele>
        <time>2022-08-12T14:34:24.000Z</time>
      </trkpt>
      <trkpt lat="45.12463" lon="5.51868">
        <ele>1020.1</ele>
        <time>2022-08-12T14:34:25.000Z</time>
      </trkpt>
      <trkpt lat="45.12462" lon="5.51866">
        <ele>1020.2</ele>
        <time>2022-08-12T14:34:26.000Z</time>
      </trkpt>
      <trkpt lat="45.1246" lon="5.51865">
        <ele>1020.3</ele>
        <time>2022-08-12T14:34:27.000Z</time>
      </trkpt>
      <trkpt lat="45.12459" lon="5.51863">
        <ele>1020.4</ele>
        <time>2022-08-12T14:34:28.000Z</time>
      </trkpt>
      <trkpt lat="45.12458" lon="5.51862">
        <ele>1020.4</ele>
        <time>2022-08-12T14:34:29.000Z</time>
      </trkpt>
      <trkpt lat="45.12456" lon="5.5186">
        <ele>1020.6</ele>
        <time>2022-08-12T14:34:30.000Z</time>
      </trkpt>
      <trkpt lat="45.12455" lon="5.51858">
        <ele>1021.1</ele>
        <time>2022-08-12T14:34:31.000Z</time>
      </trkpt>
      <trkpt lat="45.12454" lon="5.51857">
        <ele>1021.5</ele>
        <time>2022-08-12T14:34:32.000Z</time>
      </trkpt>
      <trkpt lat="45.12452" lon="5.51856">
        <ele>1021.9</ele>
        <time>2022-08-12T14:34:33.000Z</time>
      </trkpt>
      <trkpt lat="45.12451" lon="5.51855">
        <ele>1022.1</ele>
        <time>2022-08-12T14:34:34.000Z</time>
      </trkpt>
      <trkpt lat="45.1245" lon="5.51853">
        <ele>1022.4</ele>
        <time>2022-08-12T14:34:35.000Z</time>
      </trkpt>
      <trkpt lat="45.12449" lon="5.51852">
        <ele>1022.6</ele>
        <time>2022-08-12T14:34:36.000Z</time>
      </trkpt>
      <trkpt lat="45.12447" lon="5.51851">
        <ele>1022.9</ele>
        <time>2022-08-12T14:34:37.000Z</time>
      </trkpt>
      <trkpt lat="45.12445" lon="5.5185">
        <ele>1023.1</ele>
        <time>2022-08-12T14:34:38.000Z</time>
      </trkpt>
      <trkpt lat="45.12443" lon="5.51849">
        <ele>1023.5</ele>
        <time>2022-08-12T14:34:39.000Z</time>
      </trkpt>
      <trkpt lat="45.12442" lon="5.51847">
        <ele>1024.1</ele>
        <time>2022-08-12T14:34:40.000Z</time>
      </trkpt>
      <trkpt lat="45.12441" lon="5.51845">
        <ele>1024.4</ele>
        <time>2022-08-12T14:34:41.000Z</time>
      </trkpt>
      <trkpt lat="45.12439" lon="5.51844">
        <ele>1024.8</ele>
        <time>2022-08-12T14:34:42.000Z</time>
      </trkpt>
      <trkpt lat="45.12438" lon="5.51842">
        <ele>1025</ele>
        <time>2022-08-12T14:34:43.000Z</time>
      </trkpt>
      <trkpt lat="45.12437" lon="5.51841">
        <ele>1025.3</ele>
        <time>2022-08-12T14:34:44.000Z</time>
      </trkpt>
      <trkpt lat="45.12436" lon="5.51839">
        <ele>1025.6</ele>
        <time>2022-08-12T14:34:45.000Z</time>
      </trkpt>
      <trkpt lat="45.12435" lon="5.51837">
        <ele>1025.4</ele>
        <time>2022-08-12T14:34:46.000Z</time>
      </trkpt>
      <trkpt lat="45.12435" lon="5.51835">
        <ele>1025.2</ele>
        <time>2022-08-12T14:34:47.000Z</time>
      </trkpt>
      <trkpt lat="45.12434" lon="5.51832">
        <ele>1025.4</ele>
        <time>2022-08-12T14:34:48.000Z</time>
      </trkpt>
      <trkpt lat="45.12433" lon="5.51831">
        <ele>1026</ele>
        <time>2022-08-12T14:34:49.000Z</time>
      </trkpt>
      <trkpt lat="45.12431" lon="5.51829">
        <ele>1026.5</ele>
        <time>2022-08-12T14:34:50.000Z</time>
      </trkpt>
      <trkpt lat="45.12429" lon="5.51828">
        <ele>1027.1</ele>
        <time>2022-08-12T14:34:51.000Z</time>
      </trkpt>
      <trkpt lat="45.12428" lon="5.51827">
        <ele>1027.6</ele>
        <time>2022-08-12T14:34:52.000Z</time>
      </trkpt>
      <trkpt lat="45.12426" lon="5.51825">
        <ele>1028</ele>
        <time>2022-08-12T14:34:53.000Z</time>
      </trkpt>
      <trkpt lat="45.12424" lon="5.51824">
        <ele>1028.4</ele>
        <time>2022-08-12T14:34:54.000Z</time>
      </trkpt>
      <trkpt lat="45.12422" lon="5.51823">
        <ele>1028.8</ele>
        <time>2022-08-12T14:34:55.000Z</time>
      </trkpt>
      <trkpt lat="45.12421" lon="5.51822">
        <ele>1029</ele>
        <time>2022-08-12T14:34:56.000Z</time>
      </trkpt>
      <trkpt lat="45.12419" lon="5.5182">
        <ele>1029.1</ele>
        <time>2022-08-12T14:34:57.000Z</time>
      </trkpt>
      <trkpt lat="45.12418" lon="5.51818">
        <ele>1029.2</ele>
        <time>2022-08-12T14:34:58.000Z</time>
      </trkpt>
      <trkpt lat="45.12416" lon="5.51817">
        <ele>1029.6</ele>
        <time>2022-08-12T14:34:59.000Z</time>
      </trkpt>
      <trkpt lat="45.12414" lon="5.51816">
        <ele>1030.2</ele>
        <time>2022-08-12T14:35:00.000Z</time>
      </trkpt>
      <trkpt lat="45.12413" lon="5.51814">
        <ele>1030.8</ele>
        <time>2022-08-12T14:35:01.000Z</time>
      </trkpt>
      <trkpt lat="45.12411" lon="5.51813">
        <ele>1031.2</ele>
        <time>2022-08-12T14:35:02.000Z</time>
      </trkpt>
      <trkpt lat="45.1241" lon="5.51812">
        <ele>1031.4</ele>
        <time>2022-08-12T14:35:03.000Z</time>
      </trkpt>
      <trkpt lat="45.12409" lon="5.5181">
        <ele>1031.7</ele>
        <time>2022-08-12T14:35:04.000Z</time>
      </trkpt>
      <trkpt lat="45.12408" lon="5.51809">
        <ele>1032.2</ele>
        <time>2022-08-12T14:35:05.000Z</time>
      </trkpt>
      <trkpt lat="45.12406" lon="5.51808">
        <ele>1032.5</ele>
        <time>2022-08-12T14:35:06.000Z</time>
      </trkpt>
      <trkpt lat="45.12406" lon="5.51806">
        <ele>1032.3</ele>
        <time>2022-08-12T14:35:07.000Z</time>
      </trkpt>
      <trkpt lat="45.12408" lon="5.51803">
        <ele>1031.3</ele>
        <time>2022-08-12T14:35:08.000Z</time>
      </trkpt>
      <trkpt lat="45.12409" lon="5.518">
        <ele>1031</ele>
        <time>2022-08-12T14:35:09.000Z</time>
      </trkpt>
      <trkpt lat="45.12408" lon="5.51798">
        <ele>1031.2</ele>
        <time>2022-08-12T14:35:10.000Z</time>
      </trkpt>
      <trkpt lat="45.12407" lon="5.51797">
        <ele>1031.4</ele>
        <time>2022-08-12T14:35:11.000Z</time>
      </trkpt>
      <trkpt lat="45.12406" lon="5.51795">
        <ele>1031.5</ele>
        <time>2022-08-12T14:35:12.000Z</time>
      </trkpt>
      <trkpt lat="45.12406" lon="5.51793">
        <ele>1031.5</ele>
        <time>2022-08-12T14:35:13.000Z</time>
      </trkpt>
      <trkpt lat="45.12405" lon="5.51791">
        <ele>1031.5</ele>
        <time>2022-08-12T14:35:14.000Z</time>
      </trkpt>
      <trkpt lat="45.12406" lon="5.51788">
        <ele>1031.3</ele>
        <time>2022-08-12T14:35:15.000Z</time>
      </trkpt>
      <trkpt lat="45.12405" lon="5.51786">
        <ele>1031.2</ele>
        <time>2022-08-12T14:35:16.000Z</time>
      </trkpt>
      <trkpt lat="45.12405" lon="5.51784">
        <ele>1031</ele>
        <time>2022-08-12T14:35:17.000Z</time>
      </trkpt>
      <trkpt lat="45.12405" lon="5.51781">
        <ele>1030.9</ele>
        <time>2022-08-12T14:35:18.000Z</time>
      </trkpt>
      <trkpt lat="45.12404" lon="5.51779">
        <ele>1030.9</ele>
        <time>2022-08-12T14:35:19.000Z</time>
      </trkpt>
      <trkpt lat="45.12404" lon="5.51778">
        <ele>1030.8</ele>
        <time>2022-08-12T14:35:20.000Z</time>
      </trkpt>
      <trkpt lat="45.12403" lon="5.51776">
        <ele>1030.9</ele>
        <time>2022-08-12T14:35:21.000Z</time>
      </trkpt>
      <trkpt lat="45.12403" lon="5.51775">
        <ele>1031</ele>
        <time>2022-08-12T14:35:22.000Z</time>
      </trkpt>
      <trkpt lat="45.12402" lon="5.51773">
        <ele>1031.1</ele>
        <time>2022-08-12T14:35:23.000Z</time>
      </trkpt>
      <trkpt lat="45.124" lon="5.51772">
        <ele>1031.2</ele>
        <time>2022-08-12T14:35:24.000Z</time>
      </trkpt>
      <trkpt lat="45.124" lon="5.5177">
        <ele>1031.2</ele>
        <time>2022-08-12T14:35:25.000Z</time>
      </trkpt>
      <trkpt lat="45.12399" lon="5.51769">
        <ele>1031.2</ele>
        <time>2022-08-12T14:35:26.000Z</time>
      </trkpt>
      <trkpt lat="45.12397" lon="5.51767">
        <ele>1031.2</ele>
        <time>2022-08-12T14:35:27.000Z</time>
      </trkpt>
      <trkpt lat="45.12396" lon="5.51766">
        <ele>1031.1</ele>
        <time>2022-08-12T14:35:28.000Z</time>
      </trkpt>
      <trkpt lat="45.12395" lon="5.51765">
        <ele>1031.1</ele>
        <time>2022-08-12T14:35:29.000Z</time>
      </trkpt>
      <trkpt lat="45.12393" lon="5.51764">
        <ele>1031</ele>
        <time>2022-08-12T14:35:30.000Z</time>
      </trkpt>
      <trkpt lat="45.12392" lon="5.51762">
        <ele>1030.8</ele>
        <time>2022-08-12T14:35:31.000Z</time>
      </trkpt>
      <trkpt lat="45.1239" lon="5.51761">
        <ele>1030.6</ele>
        <time>2022-08-12T14:35:32.000Z</time>
      </trkpt>
      <trkpt lat="45.12388" lon="5.5176">
        <ele>1030.8</ele>
        <time>2022-08-12T14:35:33.000Z</time>
      </trkpt>
      <trkpt lat="45.12387" lon="5.51758">
        <ele>1031.3</ele>
        <time>2022-08-12T14:35:34.000Z</time>
      </trkpt>
      <trkpt lat="45.12386" lon="5.51758">
        <ele>1031.7</ele>
        <time>2022-08-12T14:35:35.000Z</time>
      </trkpt>
      <trkpt lat="45.12386" lon="5.51756">
        <ele>1031.7</ele>
        <time>2022-08-12T14:35:36.000Z</time>
      </trkpt>
      <trkpt lat="45.12385" lon="5.51754">
        <ele>1031.7</ele>
        <time>2022-08-12T14:35:37.000Z</time>
      </trkpt>
      <trkpt lat="45.12385" lon="5.51752">
        <ele>1031.8</ele>
        <time>2022-08-12T14:35:38.000Z</time>
      </trkpt>
      <trkpt lat="45.12384" lon="5.51748">
        <ele>1031.5</ele>
        <time>2022-08-12T14:35:39.000Z</time>
      </trkpt>
      <trkpt lat="45.12383" lon="5.51745">
        <ele>1031.7</ele>
        <time>2022-08-12T14:35:40.000Z</time>
      </trkpt>
      <trkpt lat="45.12383" lon="5.51743">
        <ele>1032</ele>
        <time>2022-08-12T14:35:41.000Z</time>
      </trkpt>
      <trkpt lat="45.12381" lon="5.51742">
        <ele>1032.4</ele>
        <time>2022-08-12T14:35:42.000Z</time>
      </trkpt>
      <trkpt lat="45.12381" lon="5.5174">
        <ele>1032.6</ele>
        <time>2022-08-12T14:35:43.000Z</time>
      </trkpt>
      <trkpt lat="45.12381" lon="5.51738">
        <ele>1032.3</ele>
        <time>2022-08-12T14:35:44.000Z</time>
      </trkpt>
      <trkpt lat="45.1238" lon="5.51736">
        <ele>1032.4</ele>
        <time>2022-08-12T14:35:45.000Z</time>
      </trkpt>
      <trkpt lat="45.12379" lon="5.51734">
        <ele>1032.6</ele>
        <time>2022-08-12T14:35:46.000Z</time>
      </trkpt>
      <trkpt lat="45.12378" lon="5.51732">
        <ele>1032.6</ele>
        <time>2022-08-12T14:35:47.000Z</time>
      </trkpt>
      <trkpt lat="45.12377" lon="5.5173">
        <ele>1032.7</ele>
        <time>2022-08-12T14:35:48.000Z</time>
      </trkpt>
      <trkpt lat="45.12376" lon="5.51727">
        <ele>1032.5</ele>
        <time>2022-08-12T14:35:49.000Z</time>
      </trkpt>
      <trkpt lat="45.12375" lon="5.51725">
        <ele>1032.4</ele>
        <time>2022-08-12T14:35:50.000Z</time>
      </trkpt>
      <trkpt lat="45.12374" lon="5.51724">
        <ele>1032.5</ele>
        <time>2022-08-12T14:35:51.000Z</time>
      </trkpt>
      <trkpt lat="45.12373" lon="5.51722">
        <ele>1032.5</ele>
        <time>2022-08-12T14:35:52.000Z</time>
      </trkpt>
      <trkpt lat="45.12373" lon="5.5172">
        <ele>1032.5</ele>
        <time>2022-08-12T14:35:53.000Z</time>
      </trkpt>
      <trkpt lat="45.12372" lon="5.5172">
        <ele>1032.7</ele>
        <time>2022-08-12T14:35:54.000Z</time>
      </trkpt>
      <trkpt lat="45.12371" lon="5.51718">
        <ele>1032.8</ele>
        <time>2022-08-12T14:35:55.000Z</time>
      </trkpt>
      <trkpt lat="45.1237" lon="5.51717">
        <ele>1032.8</ele>
        <time>2022-08-12T14:35:56.000Z</time>
      </trkpt>
      <trkpt lat="45.1237" lon="5.51715">
        <ele>1032.8</ele>
        <time>2022-08-12T14:35:57.000Z</time>
      </trkpt>
      <trkpt lat="45.12369" lon="5.51713">
        <ele>1032.6</ele>
        <time>2022-08-12T14:35:58.000Z</time>
      </trkpt>
      <trkpt lat="45.12368" lon="5.51712">
        <ele>1032.6</ele>
        <time>2022-08-12T14:35:59.000Z</time>
      </trkpt>
      <trkpt lat="45.12367" lon="5.51711">
        <ele>1032.7</ele>
        <time>2022-08-12T14:36:00.000Z</time>
      </trkpt>
      <trkpt lat="45.12366" lon="5.5171">
        <ele>1032.7</ele>
        <time>2022-08-12T14:36:01.000Z</time>
      </trkpt>
      <trkpt lat="45.12365" lon="5.51709">
        <ele>1032.7</ele>
        <time>2022-08-12T14:36:02.000Z</time>
      </trkpt>
      <trkpt lat="45.12364" lon="5.51708">
        <ele>1032.6</ele>
        <time>2022-08-12T14:36:03.000Z</time>
      </trkpt>
      <trkpt lat="45.12362" lon="5.51706">
        <ele>1032.5</ele>
        <time>2022-08-12T14:36:04.000Z</time>
      </trkpt>
      <trkpt lat="45.12361" lon="5.51705">
        <ele>1032.3</ele>
        <time>2022-08-12T14:36:05.000Z</time>
      </trkpt>
      <trkpt lat="45.12361" lon="5.51704">
        <ele>1032.3</ele>
        <time>2022-08-12T14:36:06.000Z</time>
      </trkpt>
      <trkpt lat="45.1236" lon="5.51703">
        <ele>1032.5</ele>
        <time>2022-08-12T14:36:07.000Z</time>
      </trkpt>
      <trkpt lat="45.12359" lon="5.51702">
        <ele>1033</ele>
        <time>2022-08-12T14:36:08.000Z</time>
      </trkpt>
      <trkpt lat="45.12357" lon="5.51701">
        <ele>1033.7</ele>
        <time>2022-08-12T14:36:09.000Z</time>
      </trkpt>
      <trkpt lat="45.12356" lon="5.51699">
        <ele>1034.2</ele>
        <time>2022-08-12T14:36:10.000Z</time>
      </trkpt>
      <trkpt lat="45.12355" lon="5.51698">
        <ele>1034.2</ele>
        <time>2022-08-12T14:36:11.000Z</time>
      </trkpt>
      <trkpt lat="45.12355" lon="5.51696">
        <ele>1033.8</ele>
        <time>2022-08-12T14:36:12.000Z</time>
      </trkpt>
      <trkpt lat="45.12355" lon="5.51694">
        <ele>1033.4</ele>
        <time>2022-08-12T14:36:13.000Z</time>
      </trkpt>
      <trkpt lat="45.12354" lon="5.51691">
        <ele>1033.4</ele>
        <time>2022-08-12T14:36:14.000Z</time>
      </trkpt>
      <trkpt lat="45.12354" lon="5.51689">
        <ele>1033.4</ele>
        <time>2022-08-12T14:36:15.000Z</time>
      </trkpt>
      <trkpt lat="45.12353" lon="5.51688">
        <ele>1033.6</ele>
        <time>2022-08-12T14:36:16.000Z</time>
      </trkpt>
      <trkpt lat="45.12352" lon="5.51686">
        <ele>1033.8</ele>
        <time>2022-08-12T14:36:17.000Z</time>
      </trkpt>
      <trkpt lat="45.12351" lon="5.51685">
        <ele>1033.9</ele>
        <time>2022-08-12T14:36:18.000Z</time>
      </trkpt>
      <trkpt lat="45.1235" lon="5.51683">
        <ele>1034</ele>
        <time>2022-08-12T14:36:19.000Z</time>
      </trkpt>
      <trkpt lat="45.12349" lon="5.51681">
        <ele>1034</ele>
        <time>2022-08-12T14:36:20.000Z</time>
      </trkpt>
      <trkpt lat="45.12348" lon="5.5168">
        <ele>1034.2</ele>
        <time>2022-08-12T14:36:21.000Z</time>
      </trkpt>
      <trkpt lat="45.12347" lon="5.51679">
        <ele>1034.3</ele>
        <time>2022-08-12T14:36:22.000Z</time>
      </trkpt>
      <trkpt lat="45.12346" lon="5.51678">
        <ele>1034.4</ele>
        <time>2022-08-12T14:36:23.000Z</time>
      </trkpt>
      <trkpt lat="45.12344" lon="5.51677">
        <ele>1034.5</ele>
        <time>2022-08-12T14:36:24.000Z</time>
      </trkpt>
      <trkpt lat="45.12342" lon="5.51676">
        <ele>1034.9</ele>
        <time>2022-08-12T14:36:25.000Z</time>
      </trkpt>
      <trkpt lat="45.12341" lon="5.51677">
        <ele>1035.4</ele>
        <time>2022-08-12T14:36:26.000Z</time>
      </trkpt>
      <trkpt lat="45.12339" lon="5.51676">
        <ele>1035.6</ele>
        <time>2022-08-12T14:36:27.000Z</time>
      </trkpt>
      <trkpt lat="45.12338" lon="5.51675">
        <ele>1035.6</ele>
        <time>2022-08-12T14:36:28.000Z</time>
      </trkpt>
      <trkpt lat="45.12337" lon="5.51674">
        <ele>1035.3</ele>
        <time>2022-08-12T14:36:29.000Z</time>
      </trkpt>
      <trkpt lat="45.12336" lon="5.51673">
        <ele>1035.1</ele>
        <time>2022-08-12T14:36:30.000Z</time>
      </trkpt>
      <trkpt lat="45.12334" lon="5.51672">
        <ele>1034.9</ele>
        <time>2022-08-12T14:36:31.000Z</time>
      </trkpt>
      <trkpt lat="45.12333" lon="5.51671">
        <ele>1034.9</ele>
        <time>2022-08-12T14:36:32.000Z</time>
      </trkpt>
      <trkpt lat="45.12332" lon="5.51669">
        <ele>1035.5</ele>
        <time>2022-08-12T14:36:33.000Z</time>
      </trkpt>
      <trkpt lat="45.1233" lon="5.51669">
        <ele>1035.9</ele>
        <time>2022-08-12T14:36:34.000Z</time>
      </trkpt>
      <trkpt lat="45.12329" lon="5.51668">
        <ele>1036.5</ele>
        <time>2022-08-12T14:36:35.000Z</time>
      </trkpt>
      <trkpt lat="45.12328" lon="5.51668">
        <ele>1037.2</ele>
        <time>2022-08-12T14:36:36.000Z</time>
      </trkpt>
      <trkpt lat="45.12327" lon="5.51667">
        <ele>1037.6</ele>
        <time>2022-08-12T14:36:37.000Z</time>
      </trkpt>
      <trkpt lat="45.12325" lon="5.51665">
        <ele>1038.2</ele>
        <time>2022-08-12T14:36:38.000Z</time>
      </trkpt>
      <trkpt lat="45.12324" lon="5.51664">
        <ele>1038.4</ele>
        <time>2022-08-12T14:36:39.000Z</time>
      </trkpt>
      <trkpt lat="45.12322" lon="5.51662">
        <ele>1039.3</ele>
        <time>2022-08-12T14:36:40.000Z</time>
      </trkpt>
      <trkpt lat="45.12321" lon="5.51661">
        <ele>1039.7</ele>
        <time>2022-08-12T14:36:41.000Z</time>
      </trkpt>
      <trkpt lat="45.1232" lon="5.51659">
        <ele>1039.6</ele>
        <time>2022-08-12T14:36:42.000Z</time>
      </trkpt>
      <trkpt lat="45.1232" lon="5.51657">
        <ele>1039.1</ele>
        <time>2022-08-12T14:36:43.000Z</time>
      </trkpt>
      <trkpt lat="45.12319" lon="5.51655">
        <ele>1038.9</ele>
        <time>2022-08-12T14:36:44.000Z</time>
      </trkpt>
      <trkpt lat="45.12318" lon="5.51654">
        <ele>1039.3</ele>
        <time>2022-08-12T14:36:45.000Z</time>
      </trkpt>
      <trkpt lat="45.12317" lon="5.51652">
        <ele>1039.5</ele>
        <time>2022-08-12T14:36:46.000Z</time>
      </trkpt>
      <trkpt lat="45.12316" lon="5.51651">
        <ele>1039.6</ele>
        <time>2022-08-12T14:36:47.000Z</time>
      </trkpt>
      <trkpt lat="45.12315" lon="5.5165">
        <ele>1039.6</ele>
        <time>2022-08-12T14:36:48.000Z</time>
      </trkpt>
      <trkpt lat="45.12314" lon="5.51648">
        <ele>1039.1</ele>
        <time>2022-08-12T14:36:49.000Z</time>
      </trkpt>
      <trkpt lat="45.12313" lon="5.51646">
        <ele>1038.7</ele>
        <time>2022-08-12T14:36:50.000Z</time>
      </trkpt>
      <trkpt lat="45.12313" lon="5.51644">
        <ele>1038.2</ele>
        <time>2022-08-12T14:36:51.000Z</time>
      </trkpt>
      <trkpt lat="45.12312" lon="5.51642">
        <ele>1037.8</ele>
        <time>2022-08-12T14:36:52.000Z</time>
      </trkpt>
      <trkpt lat="45.12311" lon="5.5164">
        <ele>1037.7</ele>
        <time>2022-08-12T14:36:53.000Z</time>
      </trkpt>
      <trkpt lat="45.1231" lon="5.51639">
        <ele>1037.6</ele>
        <time>2022-08-12T14:36:54.000Z</time>
      </trkpt>
      <trkpt lat="45.12309" lon="5.51637">
        <ele>1037.5</ele>
        <time>2022-08-12T14:36:55.000Z</time>
      </trkpt>
      <trkpt lat="45.12307" lon="5.51637">
        <ele>1037.9</ele>
        <time>2022-08-12T14:36:56.000Z</time>
      </trkpt>
      <trkpt lat="45.12305" lon="5.51636">
        <ele>1039.1</ele>
        <time>2022-08-12T14:36:57.000Z</time>
      </trkpt>
      <trkpt lat="45.12303" lon="5.51635">
        <ele>1039.7</ele>
        <time>2022-08-12T14:36:58.000Z</time>
      </trkpt>
      <trkpt lat="45.12303" lon="5.51632">
        <ele>1039.6</ele>
        <time>2022-08-12T14:36:59.000Z</time>
      </trkpt>
      <trkpt lat="45.12301" lon="5.51631">
        <ele>1040</ele>
        <time>2022-08-12T14:37:00.000Z</time>
      </trkpt>
      <trkpt lat="45.123" lon="5.51629">
        <ele>1040.7</ele>
        <time>2022-08-12T14:37:01.000Z</time>
      </trkpt>
      <trkpt lat="45.12299" lon="5.51628">
        <ele>1041.4</ele>
        <time>2022-08-12T14:37:02.000Z</time>
      </trkpt>
      <trkpt lat="45.12297" lon="5.51626">
        <ele>1042</ele>
        <time>2022-08-12T14:37:03.000Z</time>
      </trkpt>
      <trkpt lat="45.12296" lon="5.51625">
        <ele>1042.8</ele>
        <time>2022-08-12T14:37:04.000Z</time>
      </trkpt>
      <trkpt lat="45.12295" lon="5.51624">
        <ele>1043.2</ele>
        <time>2022-08-12T14:37:05.000Z</time>
      </trkpt>
      <trkpt lat="45.12293" lon="5.51623">
        <ele>1043.9</ele>
        <time>2022-08-12T14:37:06.000Z</time>
      </trkpt>
      <trkpt lat="45.12292" lon="5.51621">
        <ele>1044.5</ele>
        <time>2022-08-12T14:37:07.000Z</time>
      </trkpt>
      <trkpt lat="45.1229" lon="5.51621">
        <ele>1045.5</ele>
        <time>2022-08-12T14:37:08.000Z</time>
      </trkpt>
      <trkpt lat="45.12289" lon="5.51619">
        <ele>1046.1</ele>
        <time>2022-08-12T14:37:09.000Z</time>
      </trkpt>
      <trkpt lat="45.12287" lon="5.51618">
        <ele>1046.9</ele>
        <time>2022-08-12T14:37:10.000Z</time>
      </trkpt>
      <trkpt lat="45.12286" lon="5.51617">
        <ele>1047.5</ele>
        <time>2022-08-12T14:37:11.000Z</time>
      </trkpt>
      <trkpt lat="45.12284" lon="5.51616">
        <ele>1048.4</ele>
        <time>2022-08-12T14:37:12.000Z</time>
      </trkpt>
      <trkpt lat="45.12282" lon="5.51615">
        <ele>1049.1</ele>
        <time>2022-08-12T14:37:13.000Z</time>
      </trkpt>
      <trkpt lat="45.12281" lon="5.51613">
        <ele>1049.6</ele>
        <time>2022-08-12T14:37:14.000Z</time>
      </trkpt>
      <trkpt lat="45.1228" lon="5.51612">
        <ele>1049.6</ele>
        <time>2022-08-12T14:37:15.000Z</time>
      </trkpt>
      <trkpt lat="45.12279" lon="5.5161">
        <ele>1049.6</ele>
        <time>2022-08-12T14:37:16.000Z</time>
      </trkpt>
      <trkpt lat="45.12278" lon="5.51608">
        <ele>1049.6</ele>
        <time>2022-08-12T14:37:17.000Z</time>
      </trkpt>
      <trkpt lat="45.12277" lon="5.51606">
        <ele>1049.9</ele>
        <time>2022-08-12T14:37:18.000Z</time>
      </trkpt>
      <trkpt lat="45.12276" lon="5.51604">
        <ele>1050.4</ele>
        <time>2022-08-12T14:37:19.000Z</time>
      </trkpt>
      <trkpt lat="45.12275" lon="5.51603">
        <ele>1051.1</ele>
        <time>2022-08-12T14:37:20.000Z</time>
      </trkpt>
      <trkpt lat="45.12273" lon="5.51601">
        <ele>1051.9</ele>
        <time>2022-08-12T14:37:21.000Z</time>
      </trkpt>
      <trkpt lat="45.12274" lon="5.51598">
        <ele>1049.8</ele>
        <time>2022-08-12T14:37:22.000Z</time>
      </trkpt>
      <trkpt lat="45.12274" lon="5.51595">
        <ele>1048.7</ele>
        <time>2022-08-12T14:37:23.000Z</time>
      </trkpt>
      <trkpt lat="45.12273" lon="5.51593">
        <ele>1048.8</ele>
        <time>2022-08-12T14:37:24.000Z</time>
      </trkpt>
      <trkpt lat="45.12272" lon="5.51592">
        <ele>1049.1</ele>
        <time>2022-08-12T14:37:25.000Z</time>
      </trkpt>
      <trkpt lat="45.12272" lon="5.5159">
        <ele>1049.3</ele>
        <time>2022-08-12T14:37:26.000Z</time>
      </trkpt>
      <trkpt lat="45.12271" lon="5.51589">
        <ele>1049.5</ele>
        <time>2022-08-12T14:37:27.000Z</time>
      </trkpt>
      <trkpt lat="45.1227" lon="5.51588">
        <ele>1050</ele>
        <time>2022-08-12T14:37:28.000Z</time>
      </trkpt>
      <trkpt lat="45.12269" lon="5.51586">
        <ele>1050.4</ele>
        <time>2022-08-12T14:37:29.000Z</time>
      </trkpt>
      <trkpt lat="45.12268" lon="5.51585">
        <ele>1050.6</ele>
        <time>2022-08-12T14:37:30.000Z</time>
      </trkpt>
      <trkpt lat="45.12267" lon="5.51583">
        <ele>1050.5</ele>
        <time>2022-08-12T14:37:31.000Z</time>
      </trkpt>
      <trkpt lat="45.12267" lon="5.5158">
        <ele>1050</ele>
        <time>2022-08-12T14:37:32.000Z</time>
      </trkpt>
      <trkpt lat="45.12267" lon="5.51578">
        <ele>1049.3</ele>
        <time>2022-08-12T14:37:33.000Z</time>
      </trkpt>
      <trkpt lat="45.12267" lon="5.51576">
        <ele>1049.3</ele>
        <time>2022-08-12T14:37:34.000Z</time>
      </trkpt>
      <trkpt lat="45.12267" lon="5.51575">
        <ele>1049.5</ele>
        <time>2022-08-12T14:37:35.000Z</time>
      </trkpt>
      <trkpt lat="45.12266" lon="5.51574">
        <ele>1050.2</ele>
        <time>2022-08-12T14:37:36.000Z</time>
      </trkpt>
      <trkpt lat="45.12265" lon="5.51572">
        <ele>1050.4</ele>
        <time>2022-08-12T14:37:37.000Z</time>
      </trkpt>
      <trkpt lat="45.12265" lon="5.5157">
        <ele>1049.6</ele>
        <time>2022-08-12T14:37:38.000Z</time>
      </trkpt>
      <trkpt lat="45.12265" lon="5.51567">
        <ele>1049</ele>
        <time>2022-08-12T14:37:39.000Z</time>
      </trkpt>
      <trkpt lat="45.12266" lon="5.51565">
        <ele>1048.5</ele>
        <time>2022-08-12T14:37:40.000Z</time>
      </trkpt>
      <trkpt lat="45.12266" lon="5.51562">
        <ele>1047.8</ele>
        <time>2022-08-12T14:37:41.000Z</time>
      </trkpt>
      <trkpt lat="45.12266" lon="5.5156">
        <ele>1047</ele>
        <time>2022-08-12T14:37:42.000Z</time>
      </trkpt>
      <trkpt lat="45.12266" lon="5.51559">
        <ele>1047.1</ele>
        <time>2022-08-12T14:37:43.000Z</time>
      </trkpt>
      <trkpt lat="45.12266" lon="5.51557">
        <ele>1046.8</ele>
        <time>2022-08-12T14:37:44.000Z</time>
      </trkpt>
      <trkpt lat="45.12266" lon="5.51555">
        <ele>1046.2</ele>
        <time>2022-08-12T14:37:45.000Z</time>
      </trkpt>
      <trkpt lat="45.12267" lon="5.51553">
        <ele>1045.9</ele>
        <time>2022-08-12T14:37:46.000Z</time>
      </trkpt>
      <trkpt lat="45.12267" lon="5.51551">
        <ele>1046.1</ele>
        <time>2022-08-12T14:37:47.000Z</time>
      </trkpt>
      <trkpt lat="45.12267" lon="5.51549">
        <ele>1046.1</ele>
        <time>2022-08-12T14:37:48.000Z</time>
      </trkpt>
      <trkpt lat="45.12268" lon="5.51547">
        <ele>1045.7</ele>
        <time>2022-08-12T14:37:49.000Z</time>
      </trkpt>
      <trkpt lat="45.12269" lon="5.51545">
        <ele>1045.7</ele>
        <time>2022-08-12T14:37:50.000Z</time>
      </trkpt>
      <trkpt lat="45.12268" lon="5.51544">
        <ele>1046.1</ele>
        <time>2022-08-12T14:37:51.000Z</time>
      </trkpt>
      <trkpt lat="45.12268" lon="5.51541">
        <ele>1046.4</ele>
        <time>2022-08-12T14:37:52.000Z</time>
      </trkpt>
      <trkpt lat="45.12268" lon="5.51539">
        <ele>1046.7</ele>
        <time>2022-08-12T14:37:53.000Z</time>
      </trkpt>
      <trkpt lat="45.12267" lon="5.51537">
        <ele>1047.6</ele>
        <time>2022-08-12T14:37:54.000Z</time>
      </trkpt>
      <trkpt lat="45.12267" lon="5.51535">
        <ele>1048</ele>
        <time>2022-08-12T14:37:55.000Z</time>
      </trkpt>
      <trkpt lat="45.12267" lon="5.51534">
        <ele>1048.2</ele>
        <time>2022-08-12T14:37:56.000Z</time>
      </trkpt>
      <trkpt lat="45.12266" lon="5.51532">
        <ele>1048.7</ele>
        <time>2022-08-12T14:37:57.000Z</time>
      </trkpt>
      <trkpt lat="45.12265" lon="5.51531">
        <ele>1049.6</ele>
        <time>2022-08-12T14:37:58.000Z</time>
      </trkpt>
      <trkpt lat="45.12263" lon="5.5153">
        <ele>1050.7</ele>
        <time>2022-08-12T14:37:59.000Z</time>
      </trkpt>
      <trkpt lat="45.12262" lon="5.5153">
        <ele>1051.3</ele>
        <time>2022-08-12T14:38:00.000Z</time>
      </trkpt>
      <trkpt lat="45.12261" lon="5.51529">
        <ele>1052.3</ele>
        <time>2022-08-12T14:38:01.000Z</time>
      </trkpt>
      <trkpt lat="45.12259" lon="5.51527">
        <ele>1053.1</ele>
        <time>2022-08-12T14:38:02.000Z</time>
      </trkpt>
      <trkpt lat="45.12259" lon="5.51525">
        <ele>1053.7</ele>
        <time>2022-08-12T14:38:03.000Z</time>
      </trkpt>
      <trkpt lat="45.12259" lon="5.51523">
        <ele>1054.3</ele>
        <time>2022-08-12T14:38:04.000Z</time>
      </trkpt>
      <trkpt lat="45.12258" lon="5.51521">
        <ele>1055.1</ele>
        <time>2022-08-12T14:38:05.000Z</time>
      </trkpt>
      <trkpt lat="45.12257" lon="5.5152">
        <ele>1055.8</ele>
        <time>2022-08-12T14:38:06.000Z</time>
      </trkpt>
      <trkpt lat="45.12256" lon="5.51518">
        <ele>1056.7</ele>
        <time>2022-08-12T14:38:07.000Z</time>
      </trkpt>
      <trkpt lat="45.12255" lon="5.51517">
        <ele>1057.5</ele>
        <time>2022-08-12T14:38:08.000Z</time>
      </trkpt>
      <trkpt lat="45.12254" lon="5.51517">
        <ele>1058.1</ele>
        <time>2022-08-12T14:38:09.000Z</time>
      </trkpt>
      <trkpt lat="45.12253" lon="5.51516">
        <ele>1058.9</ele>
        <time>2022-08-12T14:38:10.000Z</time>
      </trkpt>
      <trkpt lat="45.12252" lon="5.51516">
        <ele>1059.3</ele>
        <time>2022-08-12T14:38:11.000Z</time>
      </trkpt>
      <trkpt lat="45.12251" lon="5.51515">
        <ele>1059.7</ele>
        <time>2022-08-12T14:38:12.000Z</time>
      </trkpt>
      <trkpt lat="45.1225" lon="5.51515">
        <ele>1060.4</ele>
        <time>2022-08-12T14:38:13.000Z</time>
      </trkpt>
      <trkpt lat="45.12248" lon="5.51514">
        <ele>1061.1</ele>
        <time>2022-08-12T14:38:14.000Z</time>
      </trkpt>
      <trkpt lat="45.12247" lon="5.51513">
        <ele>1061.8</ele>
        <time>2022-08-12T14:38:15.000Z</time>
      </trkpt>
      <trkpt lat="45.12245" lon="5.51512">
        <ele>1062.6</ele>
        <time>2022-08-12T14:38:16.000Z</time>
      </trkpt>
      <trkpt lat="45.12243" lon="5.51512">
        <ele>1063.3</ele>
        <time>2022-08-12T14:38:17.000Z</time>
      </trkpt>
      <trkpt lat="45.12242" lon="5.51511">
        <ele>1063.9</ele>
        <time>2022-08-12T14:38:18.000Z</time>
      </trkpt>
      <trkpt lat="45.12241" lon="5.51511">
        <ele>1064.3</ele>
        <time>2022-08-12T14:38:20.000Z</time>
      </trkpt>
      <trkpt lat="45.12241" lon="5.5151">
        <ele>1064.4</ele>
        <time>2022-08-12T14:38:21.000Z</time>
      </trkpt>
      <trkpt lat="45.1224" lon="5.5151">
        <ele>1064.6</ele>
        <time>2022-08-12T14:38:22.000Z</time>
      </trkpt>
      <trkpt lat="45.12239" lon="5.5151">
        <ele>1065</ele>
        <time>2022-08-12T14:38:23.000Z</time>
      </trkpt>
      <trkpt lat="45.12238" lon="5.51509">
        <ele>1065.5</ele>
        <time>2022-08-12T14:38:24.000Z</time>
      </trkpt>
      <trkpt lat="45.12236" lon="5.51509">
        <ele>1066.1</ele>
        <time>2022-08-12T14:38:25.000Z</time>
      </trkpt>
      <trkpt lat="45.12234" lon="5.51508">
        <ele>1066.8</ele>
        <time>2022-08-12T14:38:26.000Z</time>
      </trkpt>
      <trkpt lat="45.12233" lon="5.51507">
        <ele>1067.4</ele>
        <time>2022-08-12T14:38:27.000Z</time>
      </trkpt>
      <trkpt lat="45.12232" lon="5.51507">
        <ele>1067.6</ele>
        <time>2022-08-12T14:38:28.000Z</time>
      </trkpt>
      <trkpt lat="45.12231" lon="5.51507">
        <ele>1067.8</ele>
        <time>2022-08-12T14:38:29.000Z</time>
      </trkpt>
      <trkpt lat="45.1223" lon="5.51507">
        <ele>1068.3</ele>
        <time>2022-08-12T14:38:30.000Z</time>
      </trkpt>
      <trkpt lat="45.12229" lon="5.51506">
        <ele>1068.5</ele>
        <time>2022-08-12T14:38:31.000Z</time>
      </trkpt>
      <trkpt lat="45.12228" lon="5.51505">
        <ele>1068.8</ele>
        <time>2022-08-12T14:38:32.000Z</time>
      </trkpt>
      <trkpt lat="45.12227" lon="5.51503">
        <ele>1069.1</ele>
        <time>2022-08-12T14:38:33.000Z</time>
      </trkpt>
      <trkpt lat="45.12226" lon="5.51503">
        <ele>1069.3</ele>
        <time>2022-08-12T14:38:34.000Z</time>
      </trkpt>
      <trkpt lat="45.12225" lon="5.51502">
        <ele>1069.4</ele>
        <time>2022-08-12T14:38:35.000Z</time>
      </trkpt>
      <trkpt lat="45.12224" lon="5.51503">
        <ele>1069.7</ele>
        <time>2022-08-12T14:38:36.000Z</time>
      </trkpt>
      <trkpt lat="45.12222" lon="5.51502">
        <ele>1070.3</ele>
        <time>2022-08-12T14:38:37.000Z</time>
      </trkpt>
      <trkpt lat="45.12221" lon="5.515">
        <ele>1070.4</ele>
        <time>2022-08-12T14:38:38.000Z</time>
      </trkpt>
      <trkpt lat="45.12222" lon="5.51497">
        <ele>1070.4</ele>
        <time>2022-08-12T14:38:39.000Z</time>
      </trkpt>
      <trkpt lat="45.12221" lon="5.51497">
        <ele>1070.5</ele>
        <time>2022-08-12T14:38:40.000Z</time>
      </trkpt>
      <trkpt lat="45.12222" lon="5.51496">
        <ele>1070.6</ele>
        <time>2022-08-12T14:38:41.000Z</time>
      </trkpt>
      <trkpt lat="45.12221" lon="5.51494">
        <ele>1070.9</ele>
        <time>2022-08-12T14:38:42.000Z</time>
      </trkpt>
      <trkpt lat="45.1222" lon="5.51493">
        <ele>1071.2</ele>
        <time>2022-08-12T14:38:43.000Z</time>
      </trkpt>
      <trkpt lat="45.12219" lon="5.51492">
        <ele>1071.5</ele>
        <time>2022-08-12T14:38:44.000Z</time>
      </trkpt>
      <trkpt lat="45.12218" lon="5.51492">
        <ele>1071.8</ele>
        <time>2022-08-12T14:38:45.000Z</time>
      </trkpt>
      <trkpt lat="45.12218" lon="5.5149">
        <ele>1072.1</ele>
        <time>2022-08-12T14:38:46.000Z</time>
      </trkpt>
      <trkpt lat="45.12217" lon="5.51488">
        <ele>1072.5</ele>
        <time>2022-08-12T14:38:47.000Z</time>
      </trkpt>
      <trkpt lat="45.12216" lon="5.51486">
        <ele>1072.8</ele>
        <time>2022-08-12T14:38:48.000Z</time>
      </trkpt>
      <trkpt lat="45.12213" lon="5.51485">
        <ele>1073.3</ele>
        <time>2022-08-12T14:38:49.000Z</time>
      </trkpt>
      <trkpt lat="45.12212" lon="5.51485">
        <ele>1073.6</ele>
        <time>2022-08-12T14:38:50.000Z</time>
      </trkpt>
      <trkpt lat="45.1221" lon="5.51485">
        <ele>1073.9</ele>
        <time>2022-08-12T14:38:51.000Z</time>
      </trkpt>
      <trkpt lat="45.12209" lon="5.51485">
        <ele>1074.2</ele>
        <time>2022-08-12T14:38:52.000Z</time>
      </trkpt>
      <trkpt lat="45.12206" lon="5.51484">
        <ele>1074.6</ele>
        <time>2022-08-12T14:38:53.000Z</time>
      </trkpt>
      <trkpt lat="45.12205" lon="5.51484">
        <ele>1075</ele>
        <time>2022-08-12T14:38:55.000Z</time>
      </trkpt>
      <trkpt lat="45.12203" lon="5.51484">
        <ele>1075.3</ele>
        <time>2022-08-12T14:38:56.000Z</time>
      </trkpt>
      <trkpt lat="45.12201" lon="5.51483">
        <ele>1075.6</ele>
        <time>2022-08-12T14:38:57.000Z</time>
      </trkpt>
      <trkpt lat="45.122" lon="5.51481">
        <ele>1075.8</ele>
        <time>2022-08-12T14:38:58.000Z</time>
      </trkpt>
      <trkpt lat="45.12199" lon="5.5148">
        <ele>1075.9</ele>
        <time>2022-08-12T14:38:59.000Z</time>
      </trkpt>
      <trkpt lat="45.12197" lon="5.51479">
        <ele>1076.1</ele>
        <time>2022-08-12T14:39:00.000Z</time>
      </trkpt>
      <trkpt lat="45.12195" lon="5.51478">
        <ele>1076.3</ele>
        <time>2022-08-12T14:39:01.000Z</time>
      </trkpt>
      <trkpt lat="45.12194" lon="5.51478">
        <ele>1076.7</ele>
        <time>2022-08-12T14:39:02.000Z</time>
      </trkpt>
      <trkpt lat="45.12191" lon="5.51478">
        <ele>1077.3</ele>
        <time>2022-08-12T14:39:03.000Z</time>
      </trkpt>
      <trkpt lat="45.12188" lon="5.51477">
        <ele>1078.2</ele>
        <time>2022-08-12T14:39:04.000Z</time>
      </trkpt>
      <trkpt lat="45.12186" lon="5.51475">
        <ele>1078.4</ele>
        <time>2022-08-12T14:39:05.000Z</time>
      </trkpt>
      <trkpt lat="45.12184" lon="5.51476">
        <ele>1079</ele>
        <time>2022-08-12T14:39:06.000Z</time>
      </trkpt>
      <trkpt lat="45.12183" lon="5.51475">
        <ele>1079.4</ele>
        <time>2022-08-12T14:39:07.000Z</time>
      </trkpt>
      <trkpt lat="45.12181" lon="5.51474">
        <ele>1079.5</ele>
        <time>2022-08-12T14:39:08.000Z</time>
      </trkpt>
      <trkpt lat="45.12181" lon="5.51472">
        <ele>1079.5</ele>
        <time>2022-08-12T14:39:09.000Z</time>
      </trkpt>
      <trkpt lat="45.1218" lon="5.51471">
        <ele>1079.6</ele>
        <time>2022-08-12T14:39:10.000Z</time>
      </trkpt>
      <trkpt lat="45.12179" lon="5.51471">
        <ele>1079.8</ele>
        <time>2022-08-12T14:39:11.000Z</time>
      </trkpt>
      <trkpt lat="45.12179" lon="5.51469">
        <ele>1079.9</ele>
        <time>2022-08-12T14:39:12.000Z</time>
      </trkpt>
      <trkpt lat="45.12178" lon="5.51468">
        <ele>1079.9</ele>
        <time>2022-08-12T14:39:13.000Z</time>
      </trkpt>
      <trkpt lat="45.12177" lon="5.51467">
        <ele>1080.1</ele>
        <time>2022-08-12T14:39:14.000Z</time>
      </trkpt>
      <trkpt lat="45.12175" lon="5.51466">
        <ele>1080.5</ele>
        <time>2022-08-12T14:39:15.000Z</time>
      </trkpt>
      <trkpt lat="45.12174" lon="5.51466">
        <ele>1080.8</ele>
        <time>2022-08-12T14:39:16.000Z</time>
      </trkpt>
      <trkpt lat="45.12172" lon="5.51466">
        <ele>1081.1</ele>
        <time>2022-08-12T14:39:17.000Z</time>
      </trkpt>
      <trkpt lat="45.12172" lon="5.51465">
        <ele>1081.2</ele>
        <time>2022-08-12T14:39:18.000Z</time>
      </trkpt>
      <trkpt lat="45.12171" lon="5.51464">
        <ele>1081.2</ele>
        <time>2022-08-12T14:39:19.000Z</time>
      </trkpt>
      <trkpt lat="45.12171" lon="5.51462">
        <ele>1081.1</ele>
        <time>2022-08-12T14:39:20.000Z</time>
      </trkpt>
      <trkpt lat="45.12171" lon="5.5146">
        <ele>1080.9</ele>
        <time>2022-08-12T14:39:21.000Z</time>
      </trkpt>
      <trkpt lat="45.12171" lon="5.51457">
        <ele>1080.8</ele>
        <time>2022-08-12T14:39:22.000Z</time>
      </trkpt>
      <trkpt lat="45.1217" lon="5.51456">
        <ele>1080.8</ele>
        <time>2022-08-12T14:39:23.000Z</time>
      </trkpt>
      <trkpt lat="45.12168" lon="5.51456">
        <ele>1081</ele>
        <time>2022-08-12T14:39:24.000Z</time>
      </trkpt>
      <trkpt lat="45.12167" lon="5.51455">
        <ele>1081.1</ele>
        <time>2022-08-12T14:39:25.000Z</time>
      </trkpt>
      <trkpt lat="45.12165" lon="5.51455">
        <ele>1081.6</ele>
        <time>2022-08-12T14:39:26.000Z</time>
      </trkpt>
      <trkpt lat="45.12164" lon="5.51454">
        <ele>1082</ele>
        <time>2022-08-12T14:39:27.000Z</time>
      </trkpt>
      <trkpt lat="45.12164" lon="5.51453">
        <ele>1082.1</ele>
        <time>2022-08-12T14:39:28.000Z</time>
      </trkpt>
      <trkpt lat="45.12162" lon="5.51452">
        <ele>1082.6</ele>
        <time>2022-08-12T14:39:29.000Z</time>
      </trkpt>
      <trkpt lat="45.12161" lon="5.51452">
        <ele>1083</ele>
        <time>2022-08-12T14:39:30.000Z</time>
      </trkpt>
      <trkpt lat="45.1216" lon="5.51451">
        <ele>1083.3</ele>
        <time>2022-08-12T14:39:31.000Z</time>
      </trkpt>
      <trkpt lat="45.12159" lon="5.5145">
        <ele>1083.4</ele>
        <time>2022-08-12T14:39:32.000Z</time>
      </trkpt>
      <trkpt lat="45.12158" lon="5.51449">
        <ele>1083.6</ele>
        <time>2022-08-12T14:39:33.000Z</time>
      </trkpt>
      <trkpt lat="45.12156" lon="5.51448">
        <ele>1084</ele>
        <time>2022-08-12T14:39:34.000Z</time>
      </trkpt>
      <trkpt lat="45.12155" lon="5.51446">
        <ele>1083.9</ele>
        <time>2022-08-12T14:39:35.000Z</time>
      </trkpt>
      <trkpt lat="45.12155" lon="5.51444">
        <ele>1083.9</ele>
        <time>2022-08-12T14:39:36.000Z</time>
      </trkpt>
      <trkpt lat="45.12154" lon="5.51442">
        <ele>1083.9</ele>
        <time>2022-08-12T14:39:37.000Z</time>
      </trkpt>
      <trkpt lat="45.12154" lon="5.5144">
        <ele>1083.9</ele>
        <time>2022-08-12T14:39:38.000Z</time>
      </trkpt>
      <trkpt lat="45.12153" lon="5.5144">
        <ele>1084.2</ele>
        <time>2022-08-12T14:39:39.000Z</time>
      </trkpt>
      <trkpt lat="45.12152" lon="5.51439">
        <ele>1084.5</ele>
        <time>2022-08-12T14:39:40.000Z</time>
      </trkpt>
      <trkpt lat="45.1215" lon="5.51439">
        <ele>1084.8</ele>
        <time>2022-08-12T14:39:41.000Z</time>
      </trkpt>
      <trkpt lat="45.1215" lon="5.51438">
        <ele>1085</ele>
        <time>2022-08-12T14:39:42.000Z</time>
      </trkpt>
      <trkpt lat="45.12149" lon="5.51438">
        <ele>1085</ele>
        <time>2022-08-12T14:39:43.000Z</time>
      </trkpt>
      <trkpt lat="45.12149" lon="5.51437">
        <ele>1085.1</ele>
        <time>2022-08-12T14:39:46.000Z</time>
      </trkpt>
      <trkpt lat="45.12148" lon="5.51436">
        <ele>1085.1</ele>
        <time>2022-08-12T14:39:47.000Z</time>
      </trkpt>
      <trkpt lat="45.12147" lon="5.51434">
        <ele>1085.2</ele>
        <time>2022-08-12T14:39:48.000Z</time>
      </trkpt>
      <trkpt lat="45.12146" lon="5.51431">
        <ele>1085.2</ele>
        <time>2022-08-12T14:39:49.000Z</time>
      </trkpt>
      <trkpt lat="45.12145" lon="5.51429">
        <ele>1085.1</ele>
        <time>2022-08-12T14:39:50.000Z</time>
      </trkpt>
      <trkpt lat="45.12145" lon="5.51426">
        <ele>1084.8</ele>
        <time>2022-08-12T14:39:51.000Z</time>
      </trkpt>
      <trkpt lat="45.12145" lon="5.51423">
        <ele>1084.4</ele>
        <time>2022-08-12T14:39:52.000Z</time>
      </trkpt>
      <trkpt lat="45.12145" lon="5.51421">
        <ele>1084.1</ele>
        <time>2022-08-12T14:39:53.000Z</time>
      </trkpt>
      <trkpt lat="45.12144" lon="5.51419">
        <ele>1084</ele>
        <time>2022-08-12T14:39:54.000Z</time>
      </trkpt>
      <trkpt lat="45.12143" lon="5.51418">
        <ele>1083.9</ele>
        <time>2022-08-12T14:39:55.000Z</time>
      </trkpt>
      <trkpt lat="45.12142" lon="5.51418">
        <ele>1083.9</ele>
        <time>2022-08-12T14:39:56.000Z</time>
      </trkpt>
      <trkpt lat="45.12141" lon="5.51417">
        <ele>1083.9</ele>
        <time>2022-08-12T14:39:57.000Z</time>
      </trkpt>
      <trkpt lat="45.1214" lon="5.51416">
        <ele>1084</ele>
        <time>2022-08-12T14:39:58.000Z</time>
      </trkpt>
      <trkpt lat="45.1214" lon="5.51415">
        <ele>1084</ele>
        <time>2022-08-12T14:40:00.000Z</time>
      </trkpt>
      <trkpt lat="45.1214" lon="5.51413">
        <ele>1084.2</ele>
        <time>2022-08-12T14:40:01.000Z</time>
      </trkpt>
      <trkpt lat="45.12139" lon="5.51411">
        <ele>1084.4</ele>
        <time>2022-08-12T14:40:02.000Z</time>
      </trkpt>
      <trkpt lat="45.12138" lon="5.5141">
        <ele>1084.9</ele>
        <time>2022-08-12T14:40:03.000Z</time>
      </trkpt>
      <trkpt lat="45.12137" lon="5.5141">
        <ele>1085.4</ele>
        <time>2022-08-12T14:40:04.000Z</time>
      </trkpt>
      <trkpt lat="45.12135" lon="5.51409">
        <ele>1086</ele>
        <time>2022-08-12T14:40:05.000Z</time>
      </trkpt>
      <trkpt lat="45.12134" lon="5.51409">
        <ele>1086.6</ele>
        <time>2022-08-12T14:40:06.000Z</time>
      </trkpt>
      <trkpt lat="45.12133" lon="5.51408">
        <ele>1086.8</ele>
        <time>2022-08-12T14:40:07.000Z</time>
      </trkpt>
      <trkpt lat="45.12132" lon="5.51408">
        <ele>1087</ele>
        <time>2022-08-12T14:40:08.000Z</time>
      </trkpt>
      <trkpt lat="45.12132" lon="5.51407">
        <ele>1087.3</ele>
        <time>2022-08-12T14:40:10.000Z</time>
      </trkpt>
      <trkpt lat="45.1213" lon="5.51406">
        <ele>1087.8</ele>
        <time>2022-08-12T14:40:11.000Z</time>
      </trkpt>
      <trkpt lat="45.12128" lon="5.51406">
        <ele>1088.4</ele>
        <time>2022-08-12T14:40:12.000Z</time>
      </trkpt>
      <trkpt lat="45.12127" lon="5.51405">
        <ele>1088.9</ele>
        <time>2022-08-12T14:40:13.000Z</time>
      </trkpt>
      <trkpt lat="45.12126" lon="5.51404">
        <ele>1089.4</ele>
        <time>2022-08-12T14:40:14.000Z</time>
      </trkpt>
      <trkpt lat="45.12124" lon="5.51403">
        <ele>1089.7</ele>
        <time>2022-08-12T14:40:15.000Z</time>
      </trkpt>
      <trkpt lat="45.12123" lon="5.51402">
        <ele>1090</ele>
        <time>2022-08-12T14:40:16.000Z</time>
      </trkpt>
      <trkpt lat="45.12122" lon="5.51402">
        <ele>1090.5</ele>
        <time>2022-08-12T14:40:17.000Z</time>
      </trkpt>
      <trkpt lat="45.1212" lon="5.51402">
        <ele>1091.2</ele>
        <time>2022-08-12T14:40:18.000Z</time>
      </trkpt>
      <trkpt lat="45.12118" lon="5.51401">
        <ele>1091.6</ele>
        <time>2022-08-12T14:40:19.000Z</time>
      </trkpt>
      <trkpt lat="45.12117" lon="5.514">
        <ele>1091.9</ele>
        <time>2022-08-12T14:40:20.000Z</time>
      </trkpt>
      <trkpt lat="45.12115" lon="5.514">
        <ele>1092.4</ele>
        <time>2022-08-12T14:40:21.000Z</time>
      </trkpt>
      <trkpt lat="45.12112" lon="5.51402">
        <ele>1093.5</ele>
        <time>2022-08-12T14:40:22.000Z</time>
      </trkpt>
      <trkpt lat="45.1211" lon="5.51402">
        <ele>1094.6</ele>
        <time>2022-08-12T14:40:23.000Z</time>
      </trkpt>
      <trkpt lat="45.12108" lon="5.51401">
        <ele>1095.7</ele>
        <time>2022-08-12T14:40:24.000Z</time>
      </trkpt>
      <trkpt lat="45.12106" lon="5.51399">
        <ele>1096.2</ele>
        <time>2022-08-12T14:40:25.000Z</time>
      </trkpt>
      <trkpt lat="45.12105" lon="5.51398">
        <ele>1096.8</ele>
        <time>2022-08-12T14:40:26.000Z</time>
      </trkpt>
      <trkpt lat="45.12104" lon="5.51397">
        <ele>1097.2</ele>
        <time>2022-08-12T14:40:28.000Z</time>
      </trkpt>
      <trkpt lat="45.12103" lon="5.51396">
        <ele>1097.5</ele>
        <time>2022-08-12T14:40:29.000Z</time>
      </trkpt>
      <trkpt lat="45.12102" lon="5.51395">
        <ele>1097.9</ele>
        <time>2022-08-12T14:40:30.000Z</time>
      </trkpt>
      <trkpt lat="45.12102" lon="5.51393">
        <ele>1097.7</ele>
        <time>2022-08-12T14:40:31.000Z</time>
      </trkpt>
      <trkpt lat="45.12102" lon="5.51391">
        <ele>1097.2</ele>
        <time>2022-08-12T14:40:32.000Z</time>
      </trkpt>
      <trkpt lat="45.12103" lon="5.51387">
        <ele>1096.2</ele>
        <time>2022-08-12T14:40:33.000Z</time>
      </trkpt>
      <trkpt lat="45.12102" lon="5.51387">
        <ele>1096.8</ele>
        <time>2022-08-12T14:40:35.000Z</time>
      </trkpt>
      <trkpt lat="45.12102" lon="5.51386">
        <ele>1097.2</ele>
        <time>2022-08-12T14:40:36.000Z</time>
      </trkpt>
      <trkpt lat="45.12101" lon="5.51385">
        <ele>1097.6</ele>
        <time>2022-08-12T14:40:37.000Z</time>
      </trkpt>
      <trkpt lat="45.121" lon="5.51384">
        <ele>1098.1</ele>
        <time>2022-08-12T14:40:38.000Z</time>
      </trkpt>
      <trkpt lat="45.12099" lon="5.51384">
        <ele>1098.4</ele>
        <time>2022-08-12T14:40:39.000Z</time>
      </trkpt>
      <trkpt lat="45.12099" lon="5.51382">
        <ele>1098.9</ele>
        <time>2022-08-12T14:40:40.000Z</time>
      </trkpt>
      <trkpt lat="45.12098" lon="5.5138">
        <ele>1099</ele>
        <time>2022-08-12T14:40:41.000Z</time>
      </trkpt>
      <trkpt lat="45.12098" lon="5.51379">
        <ele>1099.2</ele>
        <time>2022-08-12T14:40:42.000Z</time>
      </trkpt>
      <trkpt lat="45.12099" lon="5.51376">
        <ele>1098.5</ele>
        <time>2022-08-12T14:40:43.000Z</time>
      </trkpt>
      <trkpt lat="45.12099" lon="5.51374">
        <ele>1098.6</ele>
        <time>2022-08-12T14:40:44.000Z</time>
      </trkpt>
      <trkpt lat="45.12099" lon="5.51373">
        <ele>1098.9</ele>
        <time>2022-08-12T14:40:45.000Z</time>
      </trkpt>
      <trkpt lat="45.12097" lon="5.51373">
        <ele>1099.6</ele>
        <time>2022-08-12T14:40:46.000Z</time>
      </trkpt>
      <trkpt lat="45.12096" lon="5.51373">
        <ele>1100.1</ele>
        <time>2022-08-12T14:40:47.000Z</time>
      </trkpt>
      <trkpt lat="45.12095" lon="5.51372">
        <ele>1100.3</ele>
        <time>2022-08-12T14:40:48.000Z</time>
      </trkpt>
      <trkpt lat="45.12094" lon="5.51371">
        <ele>1100.6</ele>
        <time>2022-08-12T14:40:49.000Z</time>
      </trkpt>
      <trkpt lat="45.12093" lon="5.5137">
        <ele>1101</ele>
        <time>2022-08-12T14:40:50.000Z</time>
      </trkpt>
      <trkpt lat="45.12093" lon="5.51369">
        <ele>1101.3</ele>
        <time>2022-08-12T14:40:51.000Z</time>
      </trkpt>
      <trkpt lat="45.12092" lon="5.51369">
        <ele>1101.4</ele>
        <time>2022-08-12T14:40:52.000Z</time>
      </trkpt>
      <trkpt lat="45.1209" lon="5.51368">
        <ele>1102.3</ele>
        <time>2022-08-12T14:40:54.000Z</time>
      </trkpt>
      <trkpt lat="45.12088" lon="5.51367">
        <ele>1102.8</ele>
        <time>2022-08-12T14:40:55.000Z</time>
      </trkpt>
      <trkpt lat="45.12087" lon="5.51366">
        <ele>1103</ele>
        <time>2022-08-12T14:40:56.000Z</time>
      </trkpt>
      <trkpt lat="45.12086" lon="5.51364">
        <ele>1103.4</ele>
        <time>2022-08-12T14:40:57.000Z</time>
      </trkpt>
      <trkpt lat="45.12085" lon="5.51363">
        <ele>1103.7</ele>
        <time>2022-08-12T14:40:58.000Z</time>
      </trkpt>
      <trkpt lat="45.12084" lon="5.51362">
        <ele>1104</ele>
        <time>2022-08-12T14:40:59.000Z</time>
      </trkpt>
      <trkpt lat="45.12083" lon="5.51362">
        <ele>1104.4</ele>
        <time>2022-08-12T14:41:00.000Z</time>
      </trkpt>
      <trkpt lat="45.12081" lon="5.51361">
        <ele>1104.8</ele>
        <time>2022-08-12T14:41:01.000Z</time>
      </trkpt>
      <trkpt lat="45.1208" lon="5.51359">
        <ele>1105.3</ele>
        <time>2022-08-12T14:41:02.000Z</time>
      </trkpt>
      <trkpt lat="45.12079" lon="5.51358">
        <ele>1105.9</ele>
        <time>2022-08-12T14:41:03.000Z</time>
      </trkpt>
      <trkpt lat="45.12077" lon="5.51358">
        <ele>1106.5</ele>
        <time>2022-08-12T14:41:04.000Z</time>
      </trkpt>
      <trkpt lat="45.12078" lon="5.51355">
        <ele>1106.2</ele>
        <time>2022-08-12T14:41:06.000Z</time>
      </trkpt>
      <trkpt lat="45.12077" lon="5.51352">
        <ele>1106.4</ele>
        <time>2022-08-12T14:41:07.000Z</time>
      </trkpt>
      <trkpt lat="45.12077" lon="5.51348">
        <ele>1106.4</ele>
        <time>2022-08-12T14:41:08.000Z</time>
      </trkpt>
      <trkpt lat="45.12076" lon="5.51346">
        <ele>1106.5</ele>
        <time>2022-08-12T14:41:09.000Z</time>
      </trkpt>
      <trkpt lat="45.12075" lon="5.51346">
        <ele>1106.8</ele>
        <time>2022-08-12T14:41:10.000Z</time>
      </trkpt>
      <trkpt lat="45.12073" lon="5.51345">
        <ele>1107.3</ele>
        <time>2022-08-12T14:41:11.000Z</time>
      </trkpt>
      <trkpt lat="45.12071" lon="5.51344">
        <ele>1107.9</ele>
        <time>2022-08-12T14:41:12.000Z</time>
      </trkpt>
      <trkpt lat="45.12069" lon="5.51343">
        <ele>1108.5</ele>
        <time>2022-08-12T14:41:13.000Z</time>
      </trkpt>
      <trkpt lat="45.12067" lon="5.51343">
        <ele>1109</ele>
        <time>2022-08-12T14:41:14.000Z</time>
      </trkpt>
      <trkpt lat="45.12065" lon="5.51343">
        <ele>1109.7</ele>
        <time>2022-08-12T14:41:15.000Z</time>
      </trkpt>
      <trkpt lat="45.12064" lon="5.51343">
        <ele>1110.2</ele>
        <time>2022-08-12T14:41:16.000Z</time>
      </trkpt>
      <trkpt lat="45.12062" lon="5.51343">
        <ele>1110.6</ele>
        <time>2022-08-12T14:41:17.000Z</time>
      </trkpt>
      <trkpt lat="45.12063" lon="5.51341">
        <ele>1110.2</ele>
        <time>2022-08-12T14:41:18.000Z</time>
      </trkpt>
      <trkpt lat="45.12063" lon="5.5134">
        <ele>1110.1</ele>
        <time>2022-08-12T14:41:19.000Z</time>
      </trkpt>
      <trkpt lat="45.12061" lon="5.5134">
        <ele>1110.5</ele>
        <time>2022-08-12T14:41:20.000Z</time>
      </trkpt>
      <trkpt lat="45.1206" lon="5.51339">
        <ele>1110.6</ele>
        <time>2022-08-12T14:41:21.000Z</time>
      </trkpt>
      <trkpt lat="45.1206" lon="5.51337">
        <ele>1110.5</ele>
        <time>2022-08-12T14:41:22.000Z</time>
      </trkpt>
      <trkpt lat="45.12059" lon="5.51335">
        <ele>1110.4</ele>
        <time>2022-08-12T14:41:23.000Z</time>
      </trkpt>
      <trkpt lat="45.12058" lon="5.51334">
        <ele>1110.5</ele>
        <time>2022-08-12T14:41:24.000Z</time>
      </trkpt>
      <trkpt lat="45.12057" lon="5.51333">
        <ele>1110.7</ele>
        <time>2022-08-12T14:41:25.000Z</time>
      </trkpt>
      <trkpt lat="45.12056" lon="5.51331">
        <ele>1110.8</ele>
        <time>2022-08-12T14:41:26.000Z</time>
      </trkpt>
      <trkpt lat="45.12055" lon="5.51331">
        <ele>1111.1</ele>
        <time>2022-08-12T14:41:27.000Z</time>
      </trkpt>
      <trkpt lat="45.12054" lon="5.51331">
        <ele>1111.4</ele>
        <time>2022-08-12T14:41:28.000Z</time>
      </trkpt>
      <trkpt lat="45.12053" lon="5.51329">
        <ele>1111.5</ele>
        <time>2022-08-12T14:41:29.000Z</time>
      </trkpt>
      <trkpt lat="45.12053" lon="5.51328">
        <ele>1111.5</ele>
        <time>2022-08-12T14:41:30.000Z</time>
      </trkpt>
      <trkpt lat="45.12053" lon="5.51326">
        <ele>1111.5</ele>
        <time>2022-08-12T14:41:31.000Z</time>
      </trkpt>
      <trkpt lat="45.12052" lon="5.51325">
        <ele>1111.4</ele>
        <time>2022-08-12T14:41:32.000Z</time>
      </trkpt>
      <trkpt lat="45.12051" lon="5.51324">
        <ele>1111.7</ele>
        <time>2022-08-12T14:41:33.000Z</time>
      </trkpt>
      <trkpt lat="45.1205" lon="5.51322">
        <ele>1112.1</ele>
        <time>2022-08-12T14:41:34.000Z</time>
      </trkpt>
      <trkpt lat="45.12049" lon="5.51321">
        <ele>1112.1</ele>
        <time>2022-08-12T14:41:35.000Z</time>
      </trkpt>
      <trkpt lat="45.12048" lon="5.5132">
        <ele>1112.3</ele>
        <time>2022-08-12T14:41:36.000Z</time>
      </trkpt>
      <trkpt lat="45.12046" lon="5.51319">
        <ele>1112.8</ele>
        <time>2022-08-12T14:41:37.000Z</time>
      </trkpt>
      <trkpt lat="45.12045" lon="5.51319">
        <ele>1113.1</ele>
        <time>2022-08-12T14:41:38.000Z</time>
      </trkpt>
      <trkpt lat="45.12043" lon="5.51318">
        <ele>1113.3</ele>
        <time>2022-08-12T14:41:39.000Z</time>
      </trkpt>
      <trkpt lat="45.12042" lon="5.51318">
        <ele>1113.6</ele>
        <time>2022-08-12T14:41:40.000Z</time>
      </trkpt>
      <trkpt lat="45.12041" lon="5.51318">
        <ele>1114</ele>
        <time>2022-08-12T14:41:41.000Z</time>
      </trkpt>
      <trkpt lat="45.1204" lon="5.51316">
        <ele>1114.1</ele>
        <time>2022-08-12T14:41:42.000Z</time>
      </trkpt>
      <trkpt lat="45.12039" lon="5.51315">
        <ele>1114.2</ele>
        <time>2022-08-12T14:41:43.000Z</time>
      </trkpt>
      <trkpt lat="45.12038" lon="5.51315">
        <ele>1114.4</ele>
        <time>2022-08-12T14:41:44.000Z</time>
      </trkpt>
      <trkpt lat="45.12035" lon="5.51315">
        <ele>1115.1</ele>
        <time>2022-08-12T14:41:45.000Z</time>
      </trkpt>
      <trkpt lat="45.12032" lon="5.51314">
        <ele>1115.7</ele>
        <time>2022-08-12T14:41:46.000Z</time>
      </trkpt>
      <trkpt lat="45.12031" lon="5.51314">
        <ele>1115.9</ele>
        <time>2022-08-12T14:41:47.000Z</time>
      </trkpt>
      <trkpt lat="45.1203" lon="5.51312">
        <ele>1115.9</ele>
        <time>2022-08-12T14:41:48.000Z</time>
      </trkpt>
      <trkpt lat="45.12029" lon="5.51311">
        <ele>1115.9</ele>
        <time>2022-08-12T14:41:49.000Z</time>
      </trkpt>
      <trkpt lat="45.12027" lon="5.51311">
        <ele>1116.4</ele>
        <time>2022-08-12T14:41:50.000Z</time>
      </trkpt>
      <trkpt lat="45.12026" lon="5.51311">
        <ele>1116.7</ele>
        <time>2022-08-12T14:41:51.000Z</time>
      </trkpt>
      <trkpt lat="45.12024" lon="5.5131">
        <ele>1117.3</ele>
        <time>2022-08-12T14:41:53.000Z</time>
      </trkpt>
      <trkpt lat="45.12023" lon="5.5131">
        <ele>1117.7</ele>
        <time>2022-08-12T14:41:54.000Z</time>
      </trkpt>
      <trkpt lat="45.12022" lon="5.51309">
        <ele>1117.7</ele>
        <time>2022-08-12T14:41:55.000Z</time>
      </trkpt>
      <trkpt lat="45.12022" lon="5.51307">
        <ele>1117.3</ele>
        <time>2022-08-12T14:41:56.000Z</time>
      </trkpt>
      <trkpt lat="45.12022" lon="5.51306">
        <ele>1117.2</ele>
        <time>2022-08-12T14:41:57.000Z</time>
      </trkpt>
      <trkpt lat="45.12021" lon="5.51306">
        <ele>1117.4</ele>
        <time>2022-08-12T14:41:58.000Z</time>
      </trkpt>
      <trkpt lat="45.12021" lon="5.51307">
        <ele>1117.6</ele>
        <time>2022-08-12T14:41:59.000Z</time>
      </trkpt>
      <trkpt lat="45.12018" lon="5.51305">
        <ele>1118</ele>
        <time>2022-08-12T14:42:00.000Z</time>
      </trkpt>
      <trkpt lat="45.12017" lon="5.51304">
        <ele>1118.1</ele>
        <time>2022-08-12T14:42:02.000Z</time>
      </trkpt>
      <trkpt lat="45.12016" lon="5.51301">
        <ele>1117.9</ele>
        <time>2022-08-12T14:42:03.000Z</time>
      </trkpt>
      <trkpt lat="45.12016" lon="5.51299">
        <ele>1117.5</ele>
        <time>2022-08-12T14:42:04.000Z</time>
      </trkpt>
      <trkpt lat="45.12017" lon="5.51296">
        <ele>1116.9</ele>
        <time>2022-08-12T14:42:05.000Z</time>
      </trkpt>
      <trkpt lat="45.12016" lon="5.51294">
        <ele>1116.7</ele>
        <time>2022-08-12T14:42:06.000Z</time>
      </trkpt>
      <trkpt lat="45.12015" lon="5.51294">
        <ele>1117</ele>
        <time>2022-08-12T14:42:07.000Z</time>
      </trkpt>
      <trkpt lat="45.12013" lon="5.51294">
        <ele>1117.4</ele>
        <time>2022-08-12T14:42:08.000Z</time>
      </trkpt>
      <trkpt lat="45.12012" lon="5.51293">
        <ele>1117.5</ele>
        <time>2022-08-12T14:42:09.000Z</time>
      </trkpt>
      <trkpt lat="45.12012" lon="5.51291">
        <ele>1117.1</ele>
        <time>2022-08-12T14:42:10.000Z</time>
      </trkpt>
      <trkpt lat="45.12012" lon="5.51289">
        <ele>1116.5</ele>
        <time>2022-08-12T14:42:13.000Z</time>
      </trkpt>
      <trkpt lat="45.12012" lon="5.51286">
        <ele>1116.1</ele>
        <time>2022-08-12T14:42:14.000Z</time>
      </trkpt>
      <trkpt lat="45.12012" lon="5.51285">
        <ele>1116</ele>
        <time>2022-08-12T14:42:16.000Z</time>
      </trkpt>
      <trkpt lat="45.12012" lon="5.51284">
        <ele>1115.8</ele>
        <time>2022-08-12T14:42:17.000Z</time>
      </trkpt>
      <trkpt lat="45.12011" lon="5.51284">
        <ele>1115.9</ele>
        <time>2022-08-12T14:42:18.000Z</time>
      </trkpt>
      <trkpt lat="45.1201" lon="5.51283">
        <ele>1116</ele>
        <time>2022-08-12T14:42:19.000Z</time>
      </trkpt>
      <trkpt lat="45.12008" lon="5.51282">
        <ele>1116.3</ele>
        <time>2022-08-12T14:42:20.000Z</time>
      </trkpt>
      <trkpt lat="45.12006" lon="5.51282">
        <ele>1116.5</ele>
        <time>2022-08-12T14:42:21.000Z</time>
      </trkpt>
      <trkpt lat="45.12005" lon="5.51281">
        <ele>1116.7</ele>
        <time>2022-08-12T14:42:22.000Z</time>
      </trkpt>
      <trkpt lat="45.12003" lon="5.5128">
        <ele>1117</ele>
        <time>2022-08-12T14:42:23.000Z</time>
      </trkpt>
      <trkpt lat="45.12002" lon="5.5128">
        <ele>1117.2</ele>
        <time>2022-08-12T14:42:24.000Z</time>
      </trkpt>
      <trkpt lat="45.12" lon="5.5128">
        <ele>1117.6</ele>
        <time>2022-08-12T14:42:25.000Z</time>
      </trkpt>
      <trkpt lat="45.11999" lon="5.51279">
        <ele>1117.6</ele>
        <time>2022-08-12T14:42:26.000Z</time>
      </trkpt>
      <trkpt lat="45.11999" lon="5.5128">
        <ele>1117.9</ele>
        <time>2022-08-12T14:42:27.000Z</time>
      </trkpt>
      <trkpt lat="45.11997" lon="5.51279">
        <ele>1118.2</ele>
        <time>2022-08-12T14:42:28.000Z</time>
      </trkpt>
      <trkpt lat="45.11996" lon="5.51279">
        <ele>1118.4</ele>
        <time>2022-08-12T14:42:29.000Z</time>
      </trkpt>
      <trkpt lat="45.11996" lon="5.51275">
        <ele>1117.6</ele>
        <time>2022-08-12T14:42:30.000Z</time>
      </trkpt>
      <trkpt lat="45.11996" lon="5.5127">
        <ele>1117</ele>
        <time>2022-08-12T14:42:31.000Z</time>
      </trkpt>
      <trkpt lat="45.11995" lon="5.51267">
        <ele>1116.8</ele>
        <time>2022-08-12T14:42:32.000Z</time>
      </trkpt>
      <trkpt lat="45.11995" lon="5.51264">
        <ele>1116.2</ele>
        <time>2022-08-12T14:42:33.000Z</time>
      </trkpt>
      <trkpt lat="45.11994" lon="5.51263">
        <ele>1116.2</ele>
        <time>2022-08-12T14:42:34.000Z</time>
      </trkpt>
      <trkpt lat="45.11993" lon="5.51263">
        <ele>1116.4</ele>
        <time>2022-08-12T14:42:36.000Z</time>
      </trkpt>
      <trkpt lat="45.11992" lon="5.51264">
        <ele>1116.9</ele>
        <time>2022-08-12T14:42:37.000Z</time>
      </trkpt>
      <trkpt lat="45.1199" lon="5.51264">
        <ele>1117.3</ele>
        <time>2022-08-12T14:42:38.000Z</time>
      </trkpt>
      <trkpt lat="45.11989" lon="5.51262">
        <ele>1117.3</ele>
        <time>2022-08-12T14:42:39.000Z</time>
      </trkpt>
      <trkpt lat="45.11988" lon="5.51261">
        <ele>1117.3</ele>
        <time>2022-08-12T14:42:40.000Z</time>
      </trkpt>
      <trkpt lat="45.11986" lon="5.5126">
        <ele>1117.5</ele>
        <time>2022-08-12T14:42:41.000Z</time>
      </trkpt>
      <trkpt lat="45.11984" lon="5.51261">
        <ele>1118</ele>
        <time>2022-08-12T14:42:42.000Z</time>
      </trkpt>
      <trkpt lat="45.11983" lon="5.51261">
        <ele>1118.4</ele>
        <time>2022-08-12T14:42:43.000Z</time>
      </trkpt>
      <trkpt lat="45.11982" lon="5.51261">
        <ele>1118.5</ele>
        <time>2022-08-12T14:42:44.000Z</time>
      </trkpt>
      <trkpt lat="45.1198" lon="5.51261">
        <ele>1118.8</ele>
        <time>2022-08-12T14:42:46.000Z</time>
      </trkpt>
      <trkpt lat="45.11978" lon="5.5126">
        <ele>1119.1</ele>
        <time>2022-08-12T14:42:47.000Z</time>
      </trkpt>
      <trkpt lat="45.11977" lon="5.51259">
        <ele>1119.4</ele>
        <time>2022-08-12T14:42:48.000Z</time>
      </trkpt>
      <trkpt lat="45.11975" lon="5.51257">
        <ele>1119.3</ele>
        <time>2022-08-12T14:42:49.000Z</time>
      </trkpt>
      <trkpt lat="45.11973" lon="5.51257">
        <ele>1119.5</ele>
        <time>2022-08-12T14:42:50.000Z</time>
      </trkpt>
      <trkpt lat="45.11972" lon="5.51256">
        <ele>1119.7</ele>
        <time>2022-08-12T14:42:51.000Z</time>
      </trkpt>
      <trkpt lat="45.1197" lon="5.51256">
        <ele>1120.2</ele>
        <time>2022-08-12T14:42:52.000Z</time>
      </trkpt>
      <trkpt lat="45.11969" lon="5.51256">
        <ele>1120.8</ele>
        <time>2022-08-12T14:42:53.000Z</time>
      </trkpt>
      <trkpt lat="45.11967" lon="5.51256">
        <ele>1121.2</ele>
        <time>2022-08-12T14:42:54.000Z</time>
      </trkpt>
      <trkpt lat="45.11966" lon="5.51255">
        <ele>1121.3</ele>
        <time>2022-08-12T14:42:56.000Z</time>
      </trkpt>
      <trkpt lat="45.11966" lon="5.51254">
        <ele>1121.2</ele>
        <time>2022-08-12T14:42:57.000Z</time>
      </trkpt>
      <trkpt lat="45.11965" lon="5.51253">
        <ele>1121.1</ele>
        <time>2022-08-12T14:42:58.000Z</time>
      </trkpt>
      <trkpt lat="45.11963" lon="5.5125">
        <ele>1120.9</ele>
        <time>2022-08-12T14:42:59.000Z</time>
      </trkpt>
      <trkpt lat="45.11964" lon="5.51249">
        <ele>1120.6</ele>
        <time>2022-08-12T14:43:02.000Z</time>
      </trkpt>
      <trkpt lat="45.11963" lon="5.51248">
        <ele>1120.7</ele>
        <time>2022-08-12T14:43:03.000Z</time>
      </trkpt>
      <trkpt lat="45.11962" lon="5.51248">
        <ele>1121</ele>
        <time>2022-08-12T14:43:04.000Z</time>
      </trkpt>
      <trkpt lat="45.11962" lon="5.51249">
        <ele>1121.2</ele>
        <time>2022-08-12T14:43:05.000Z</time>
      </trkpt>
      <trkpt lat="45.11961" lon="5.51249">
        <ele>1121.4</ele>
        <time>2022-08-12T14:43:06.000Z</time>
      </trkpt>
      <trkpt lat="45.1196" lon="5.51248">
        <ele>1121.6</ele>
        <time>2022-08-12T14:43:07.000Z</time>
      </trkpt>
      <trkpt lat="45.11959" lon="5.51247">
        <ele>1121.8</ele>
        <time>2022-08-12T14:43:08.000Z</time>
      </trkpt>
      <trkpt lat="45.11957" lon="5.51247">
        <ele>1122.4</ele>
        <time>2022-08-12T14:43:09.000Z</time>
      </trkpt>
      <trkpt lat="45.11955" lon="5.51246">
        <ele>1122.7</ele>
        <time>2022-08-12T14:43:10.000Z</time>
      </trkpt>
      <trkpt lat="45.11953" lon="5.51245">
        <ele>1123</ele>
        <time>2022-08-12T14:43:11.000Z</time>
      </trkpt>
      <trkpt lat="45.11952" lon="5.51244">
        <ele>1123.4</ele>
        <time>2022-08-12T14:43:12.000Z</time>
      </trkpt>
      <trkpt lat="45.1195" lon="5.51244">
        <ele>1124.1</ele>
        <time>2022-08-12T14:43:13.000Z</time>
      </trkpt>
      <trkpt lat="45.11948" lon="5.51245">
        <ele>1124.7</ele>
        <time>2022-08-12T14:43:14.000Z</time>
      </trkpt>
      <trkpt lat="45.11947" lon="5.51245">
        <ele>1125.1</ele>
        <time>2022-08-12T14:43:15.000Z</time>
      </trkpt>
      <trkpt lat="45.11947" lon="5.51244">
        <ele>1124.8</ele>
        <time>2022-08-12T14:43:16.000Z</time>
      </trkpt>
      <trkpt lat="45.11946" lon="5.51243">
        <ele>1124.6</ele>
        <time>2022-08-12T14:43:17.000Z</time>
      </trkpt>
      <trkpt lat="45.11945" lon="5.51241">
        <ele>1124.5</ele>
        <time>2022-08-12T14:43:18.000Z</time>
      </trkpt>
      <trkpt lat="45.11944" lon="5.5124">
        <ele>1124.8</ele>
        <time>2022-08-12T14:43:19.000Z</time>
      </trkpt>
      <trkpt lat="45.11942" lon="5.51239">
        <ele>1125.5</ele>
        <time>2022-08-12T14:43:20.000Z</time>
      </trkpt>
      <trkpt lat="45.1194" lon="5.51238">
        <ele>1125.9</ele>
        <time>2022-08-12T14:43:21.000Z</time>
      </trkpt>
      <trkpt lat="45.11938" lon="5.51238">
        <ele>1126.5</ele>
        <time>2022-08-12T14:43:22.000Z</time>
      </trkpt>
      <trkpt lat="45.11936" lon="5.51238">
        <ele>1127.7</ele>
        <time>2022-08-12T14:43:23.000Z</time>
      </trkpt>
      <trkpt lat="45.11934" lon="5.51237">
        <ele>1128.4</ele>
        <time>2022-08-12T14:43:24.000Z</time>
      </trkpt>
      <trkpt lat="45.11933" lon="5.51236">
        <ele>1128.3</ele>
        <time>2022-08-12T14:43:25.000Z</time>
      </trkpt>
      <trkpt lat="45.11932" lon="5.51234">
        <ele>1128.5</ele>
        <time>2022-08-12T14:43:26.000Z</time>
      </trkpt>
      <trkpt lat="45.11931" lon="5.51234">
        <ele>1128.9</ele>
        <time>2022-08-12T14:43:27.000Z</time>
      </trkpt>
      <trkpt lat="45.11929" lon="5.51234">
        <ele>1129.4</ele>
        <time>2022-08-12T14:43:28.000Z</time>
      </trkpt>
      <trkpt lat="45.11929" lon="5.51233">
        <ele>1129.5</ele>
        <time>2022-08-12T14:43:29.000Z</time>
      </trkpt>
      <trkpt lat="45.11928" lon="5.51232">
        <ele>1129.5</ele>
        <time>2022-08-12T14:43:30.000Z</time>
      </trkpt>
      <trkpt lat="45.11927" lon="5.5123">
        <ele>1129.3</ele>
        <time>2022-08-12T14:43:31.000Z</time>
      </trkpt>
      <trkpt lat="45.11927" lon="5.51226">
        <ele>1128.3</ele>
        <time>2022-08-12T14:43:32.000Z</time>
      </trkpt>
      <trkpt lat="45.11926" lon="5.51223">
        <ele>1127.4</ele>
        <time>2022-08-12T14:43:33.000Z</time>
      </trkpt>
      <trkpt lat="45.11925" lon="5.51222">
        <ele>1127.6</ele>
        <time>2022-08-12T14:43:34.000Z</time>
      </trkpt>
      <trkpt lat="45.11924" lon="5.51222">
        <ele>1128.1</ele>
        <time>2022-08-12T14:43:35.000Z</time>
      </trkpt>
      <trkpt lat="45.11923" lon="5.51222">
        <ele>1128.2</ele>
        <time>2022-08-12T14:43:36.000Z</time>
      </trkpt>
      <trkpt lat="45.11922" lon="5.51222">
        <ele>1128.7</ele>
        <time>2022-08-12T14:43:38.000Z</time>
      </trkpt>
      <trkpt lat="45.11921" lon="5.51221">
        <ele>1128.8</ele>
        <time>2022-08-12T14:43:39.000Z</time>
      </trkpt>
      <trkpt lat="45.1192" lon="5.51219">
        <ele>1129</ele>
        <time>2022-08-12T14:43:40.000Z</time>
      </trkpt>
      <trkpt lat="45.11919" lon="5.51218">
        <ele>1129.1</ele>
        <time>2022-08-12T14:43:41.000Z</time>
      </trkpt>
      <trkpt lat="45.11917" lon="5.51217">
        <ele>1129.5</ele>
        <time>2022-08-12T14:43:42.000Z</time>
      </trkpt>
      <trkpt lat="45.11915" lon="5.51218">
        <ele>1130.4</ele>
        <time>2022-08-12T14:43:43.000Z</time>
      </trkpt>
      <trkpt lat="45.11914" lon="5.51217">
        <ele>1130.9</ele>
        <time>2022-08-12T14:43:44.000Z</time>
      </trkpt>
      <trkpt lat="45.11914" lon="5.51214">
        <ele>1129.9</ele>
        <time>2022-08-12T14:43:45.000Z</time>
      </trkpt>
      <trkpt lat="45.11914" lon="5.51213">
        <ele>1129.4</ele>
        <time>2022-08-12T14:43:48.000Z</time>
      </trkpt>
      <trkpt lat="45.11913" lon="5.51212">
        <ele>1129.5</ele>
        <time>2022-08-12T14:43:49.000Z</time>
      </trkpt>
      <trkpt lat="45.11912" lon="5.51212">
        <ele>1130.1</ele>
        <time>2022-08-12T14:43:50.000Z</time>
      </trkpt>
      <trkpt lat="45.11911" lon="5.51212">
        <ele>1130.4</ele>
        <time>2022-08-12T14:43:51.000Z</time>
      </trkpt>
      <trkpt lat="45.11907" lon="5.51212">
        <ele>1131.9</ele>
        <time>2022-08-12T14:43:52.000Z</time>
      </trkpt>
      <trkpt lat="45.11905" lon="5.51212">
        <ele>1132.8</ele>
        <time>2022-08-12T14:43:53.000Z</time>
      </trkpt>
      <trkpt lat="45.11903" lon="5.51212">
        <ele>1133.5</ele>
        <time>2022-08-12T14:43:54.000Z</time>
      </trkpt>
      <trkpt lat="45.11901" lon="5.51211">
        <ele>1134.4</ele>
        <time>2022-08-12T14:43:55.000Z</time>
      </trkpt>
      <trkpt lat="45.11899" lon="5.51211">
        <ele>1134.7</ele>
        <time>2022-08-12T14:43:56.000Z</time>
      </trkpt>
      <trkpt lat="45.11898" lon="5.5121">
        <ele>1135.1</ele>
        <time>2022-08-12T14:43:57.000Z</time>
      </trkpt>
      <trkpt lat="45.11896" lon="5.51209">
        <ele>1135.2</ele>
        <time>2022-08-12T14:43:58.000Z</time>
      </trkpt>
      <trkpt lat="45.11896" lon="5.51207">
        <ele>1134.6</ele>
        <time>2022-08-12T14:43:59.000Z</time>
      </trkpt>
      <trkpt lat="45.11895" lon="5.51207">
        <ele>1135.2</ele>
        <time>2022-08-12T14:44:00.000Z</time>
      </trkpt>
      <trkpt lat="45.11894" lon="5.51206">
        <ele>1135.3</ele>
        <time>2022-08-12T14:44:01.000Z</time>
      </trkpt>
      <trkpt lat="45.11893" lon="5.51204">
        <ele>1134.8</ele>
        <time>2022-08-12T14:44:02.000Z</time>
      </trkpt>
      <trkpt lat="45.11893" lon="5.51201">
        <ele>1134</ele>
        <time>2022-08-12T14:44:03.000Z</time>
      </trkpt>
      <trkpt lat="45.11892" lon="5.51199">
        <ele>1133.7</ele>
        <time>2022-08-12T14:44:04.000Z</time>
      </trkpt>
      <trkpt lat="45.11891" lon="5.51199">
        <ele>1133.7</ele>
        <time>2022-08-12T14:44:05.000Z</time>
      </trkpt>
      <trkpt lat="45.1189" lon="5.51198">
        <ele>1134</ele>
        <time>2022-08-12T14:44:07.000Z</time>
      </trkpt>
      <trkpt lat="45.11889" lon="5.51197">
        <ele>1133.6</ele>
        <time>2022-08-12T14:44:09.000Z</time>
      </trkpt>
      <trkpt lat="45.11886" lon="5.51196">
        <ele>1134.8</ele>
        <time>2022-08-12T14:44:10.000Z</time>
      </trkpt>
      <trkpt lat="45.11885" lon="5.51195">
        <ele>1135.2</ele>
        <time>2022-08-12T14:44:11.000Z</time>
      </trkpt>
      <trkpt lat="45.11884" lon="5.51194">
        <ele>1135.4</ele>
        <time>2022-08-12T14:44:12.000Z</time>
      </trkpt>
      <trkpt lat="45.11883" lon="5.51192">
        <ele>1135.4</ele>
        <time>2022-08-12T14:44:13.000Z</time>
      </trkpt>
      <trkpt lat="45.11883" lon="5.5119">
        <ele>1134.6</ele>
        <time>2022-08-12T14:44:14.000Z</time>
      </trkpt>
      <trkpt lat="45.11883" lon="5.51186">
        <ele>1133.7</ele>
        <time>2022-08-12T14:44:15.000Z</time>
      </trkpt>
      <trkpt lat="45.11881" lon="5.51183">
        <ele>1133.5</ele>
        <time>2022-08-12T14:44:16.000Z</time>
      </trkpt>
      <trkpt lat="45.1188" lon="5.51181">
        <ele>1133.3</ele>
        <time>2022-08-12T14:44:17.000Z</time>
      </trkpt>
      <trkpt lat="45.1188" lon="5.5118">
        <ele>1133.3</ele>
        <time>2022-08-12T14:44:18.000Z</time>
      </trkpt>
      <trkpt lat="45.11878" lon="5.51179">
        <ele>1133.5</ele>
        <time>2022-08-12T14:44:20.000Z</time>
      </trkpt>
      <trkpt lat="45.11878" lon="5.51177">
        <ele>1132.7</ele>
        <time>2022-08-12T14:44:21.000Z</time>
      </trkpt>
      <trkpt lat="45.11878" lon="5.51174">
        <ele>1132</ele>
        <time>2022-08-12T14:44:22.000Z</time>
      </trkpt>
      <trkpt lat="45.11881" lon="5.51169">
        <ele>1129.3</ele>
        <time>2022-08-12T14:44:23.000Z</time>
      </trkpt>
      <trkpt lat="45.11884" lon="5.51162">
        <ele>1127</ele>
        <time>2022-08-12T14:44:24.000Z</time>
      </trkpt>
      <trkpt lat="45.11887" lon="5.51158">
        <ele>1125.8</ele>
        <time>2022-08-12T14:44:25.000Z</time>
      </trkpt>
      <trkpt lat="45.11887" lon="5.51156">
        <ele>1125.5</ele>
        <time>2022-08-12T14:44:26.000Z</time>
      </trkpt>
      <trkpt lat="45.11887" lon="5.51154">
        <ele>1125.3</ele>
        <time>2022-08-12T14:44:27.000Z</time>
      </trkpt>
      <trkpt lat="45.11885" lon="5.51154">
        <ele>1125.7</ele>
        <time>2022-08-12T14:44:28.000Z</time>
      </trkpt>
      <trkpt lat="45.11883" lon="5.51154">
        <ele>1126.3</ele>
        <time>2022-08-12T14:44:29.000Z</time>
      </trkpt>
      <trkpt lat="45.11882" lon="5.51154">
        <ele>1126.4</ele>
        <time>2022-08-12T14:44:32.000Z</time>
      </trkpt>
      <trkpt lat="45.11882" lon="5.51153">
        <ele>1126.5</ele>
        <time>2022-08-12T14:44:33.000Z</time>
      </trkpt>
      <trkpt lat="45.1188" lon="5.51151">
        <ele>1126.6</ele>
        <time>2022-08-12T14:44:34.000Z</time>
      </trkpt>
      <trkpt lat="45.11879" lon="5.51151">
        <ele>1126.8</ele>
        <time>2022-08-12T14:44:35.000Z</time>
      </trkpt>
      <trkpt lat="45.11878" lon="5.51149">
        <ele>1126.8</ele>
        <time>2022-08-12T14:44:36.000Z</time>
      </trkpt>
      <trkpt lat="45.11877" lon="5.51149">
        <ele>1127</ele>
        <time>2022-08-12T14:44:37.000Z</time>
      </trkpt>
      <trkpt lat="45.11875" lon="5.51148">
        <ele>1127.2</ele>
        <time>2022-08-12T14:44:38.000Z</time>
      </trkpt>
      <trkpt lat="45.11874" lon="5.51147">
        <ele>1127.5</ele>
        <time>2022-08-12T14:44:39.000Z</time>
      </trkpt>
      <trkpt lat="45.11871" lon="5.51147">
        <ele>1128</ele>
        <time>2022-08-12T14:44:40.000Z</time>
      </trkpt>
      <trkpt lat="45.1187" lon="5.51147">
        <ele>1128.4</ele>
        <time>2022-08-12T14:44:41.000Z</time>
      </trkpt>
      <trkpt lat="45.11868" lon="5.51147">
        <ele>1128.7</ele>
        <time>2022-08-12T14:44:42.000Z</time>
      </trkpt>
      <trkpt lat="45.11867" lon="5.51146">
        <ele>1128.7</ele>
        <time>2022-08-12T14:44:43.000Z</time>
      </trkpt>
      <trkpt lat="45.11865" lon="5.51145">
        <ele>1128.9</ele>
        <time>2022-08-12T14:44:44.000Z</time>
      </trkpt>
      <trkpt lat="45.11863" lon="5.51145">
        <ele>1129.3</ele>
        <time>2022-08-12T14:44:45.000Z</time>
      </trkpt>
      <trkpt lat="45.11861" lon="5.51144">
        <ele>1129.5</ele>
        <time>2022-08-12T14:44:46.000Z</time>
      </trkpt>
      <trkpt lat="45.1186" lon="5.51143">
        <ele>1129.7</ele>
        <time>2022-08-12T14:44:47.000Z</time>
      </trkpt>
      <trkpt lat="45.1186" lon="5.51141">
        <ele>1129.3</ele>
        <time>2022-08-12T14:44:48.000Z</time>
      </trkpt>
      <trkpt lat="45.11859" lon="5.51138">
        <ele>1128.7</ele>
        <time>2022-08-12T14:44:49.000Z</time>
      </trkpt>
      <trkpt lat="45.11858" lon="5.51138">
        <ele>1129.1</ele>
        <time>2022-08-12T14:44:50.000Z</time>
      </trkpt>
      <trkpt lat="45.11857" lon="5.51137">
        <ele>1129.6</ele>
        <time>2022-08-12T14:44:51.000Z</time>
      </trkpt>
      <trkpt lat="45.11855" lon="5.51137">
        <ele>1130.3</ele>
        <time>2022-08-12T14:44:52.000Z</time>
      </trkpt>
      <trkpt lat="45.11854" lon="5.51137">
        <ele>1130.7</ele>
        <time>2022-08-12T14:44:53.000Z</time>
      </trkpt>
      <trkpt lat="45.11854" lon="5.51135">
        <ele>1130.6</ele>
        <time>2022-08-12T14:44:55.000Z</time>
      </trkpt>
      <trkpt lat="45.11852" lon="5.51133">
        <ele>1130.9</ele>
        <time>2022-08-12T14:44:56.000Z</time>
      </trkpt>
      <trkpt lat="45.11851" lon="5.51132">
        <ele>1131.2</ele>
        <time>2022-08-12T14:44:57.000Z</time>
      </trkpt>
      <trkpt lat="45.1185" lon="5.51131">
        <ele>1131.4</ele>
        <time>2022-08-12T14:44:58.000Z</time>
      </trkpt>
      <trkpt lat="45.1185" lon="5.51128">
        <ele>1131.1</ele>
        <time>2022-08-12T14:44:59.000Z</time>
      </trkpt>
      <trkpt lat="45.1185" lon="5.51126">
        <ele>1130.8</ele>
        <time>2022-08-12T14:45:00.000Z</time>
      </trkpt>
      <trkpt lat="45.11848" lon="5.51126">
        <ele>1131.2</ele>
        <time>2022-08-12T14:45:01.000Z</time>
      </trkpt>
      <trkpt lat="45.11847" lon="5.51126">
        <ele>1131.6</ele>
        <time>2022-08-12T14:45:02.000Z</time>
      </trkpt>
      <trkpt lat="45.11847" lon="5.51125">
        <ele>1131.5</ele>
        <time>2022-08-12T14:45:04.000Z</time>
      </trkpt>
      <trkpt lat="45.11845" lon="5.51125">
        <ele>1132.3</ele>
        <time>2022-08-12T14:45:06.000Z</time>
      </trkpt>
      <trkpt lat="45.11844" lon="5.51124">
        <ele>1132.4</ele>
        <time>2022-08-12T14:45:07.000Z</time>
      </trkpt>
      <trkpt lat="45.11843" lon="5.51124">
        <ele>1132.6</ele>
        <time>2022-08-12T14:45:08.000Z</time>
      </trkpt>
      <trkpt lat="45.11842" lon="5.51124">
        <ele>1133</ele>
        <time>2022-08-12T14:45:09.000Z</time>
      </trkpt>
      <trkpt lat="45.11841" lon="5.51123">
        <ele>1133.3</ele>
        <time>2022-08-12T14:45:10.000Z</time>
      </trkpt>
      <trkpt lat="45.11841" lon="5.51121">
        <ele>1133.1</ele>
        <time>2022-08-12T14:45:11.000Z</time>
      </trkpt>
      <trkpt lat="45.11839" lon="5.5112">
        <ele>1133.3</ele>
        <time>2022-08-12T14:45:12.000Z</time>
      </trkpt>
      <trkpt lat="45.11837" lon="5.5112">
        <ele>1133.9</ele>
        <time>2022-08-12T14:45:13.000Z</time>
      </trkpt>
      <trkpt lat="45.11835" lon="5.51119">
        <ele>1134.5</ele>
        <time>2022-08-12T14:45:14.000Z</time>
      </trkpt>
      <trkpt lat="45.11835" lon="5.51118">
        <ele>1134.3</ele>
        <time>2022-08-12T14:45:16.000Z</time>
      </trkpt>
      <trkpt lat="45.11834" lon="5.51118">
        <ele>1134.6</ele>
        <time>2022-08-12T14:45:17.000Z</time>
      </trkpt>
      <trkpt lat="45.1183" lon="5.5112">
        <ele>1136.4</ele>
        <time>2022-08-12T14:45:18.000Z</time>
      </trkpt>
      <trkpt lat="45.11828" lon="5.51121">
        <ele>1137.8</ele>
        <time>2022-08-12T14:45:19.000Z</time>
      </trkpt>
      <trkpt lat="45.11827" lon="5.51121">
        <ele>1138.1</ele>
        <time>2022-08-12T14:45:20.000Z</time>
      </trkpt>
      <trkpt lat="45.11826" lon="5.51121">
        <ele>1138.7</ele>
        <time>2022-08-12T14:45:21.000Z</time>
      </trkpt>
      <trkpt lat="45.11825" lon="5.51121">
        <ele>1138.9</ele>
        <time>2022-08-12T14:45:22.000Z</time>
      </trkpt>
      <trkpt lat="45.11827" lon="5.51116">
        <ele>1136.8</ele>
        <time>2022-08-12T14:45:24.000Z</time>
      </trkpt>
      <trkpt lat="45.11827" lon="5.51114">
        <ele>1136.1</ele>
        <time>2022-08-12T14:45:25.000Z</time>
      </trkpt>
      <trkpt lat="45.11826" lon="5.51114">
        <ele>1136.6</ele>
        <time>2022-08-12T14:45:26.000Z</time>
      </trkpt>
      <trkpt lat="45.11825" lon="5.51114">
        <ele>1137.1</ele>
        <time>2022-08-12T14:45:28.000Z</time>
      </trkpt>
      <trkpt lat="45.11823" lon="5.51114">
        <ele>1137.9</ele>
        <time>2022-08-12T14:45:29.000Z</time>
      </trkpt>
      <trkpt lat="45.11822" lon="5.51114">
        <ele>1138.2</ele>
        <time>2022-08-12T14:45:30.000Z</time>
      </trkpt>
      <trkpt lat="45.11822" lon="5.51113">
        <ele>1138.1</ele>
        <time>2022-08-12T14:45:31.000Z</time>
      </trkpt>
      <trkpt lat="45.11821" lon="5.51113">
        <ele>1138.4</ele>
        <time>2022-08-12T14:45:33.000Z</time>
      </trkpt>
      <trkpt lat="45.1182" lon="5.51113">
        <ele>1138.9</ele>
        <time>2022-08-12T14:45:34.000Z</time>
      </trkpt>
      <trkpt lat="45.11819" lon="5.51113">
        <ele>1139.2</ele>
        <time>2022-08-12T14:45:35.000Z</time>
      </trkpt>
      <trkpt lat="45.11818" lon="5.51112">
        <ele>1139.2</ele>
        <time>2022-08-12T14:45:36.000Z</time>
      </trkpt>
      <trkpt lat="45.11817" lon="5.51111">
        <ele>1139.6</ele>
        <time>2022-08-12T14:45:37.000Z</time>
      </trkpt>
      <trkpt lat="45.11816" lon="5.51109">
        <ele>1139.8</ele>
        <time>2022-08-12T14:45:38.000Z</time>
      </trkpt>
      <trkpt lat="45.11814" lon="5.51108">
        <ele>1140.3</ele>
        <time>2022-08-12T14:45:39.000Z</time>
      </trkpt>
      <trkpt lat="45.11812" lon="5.51107">
        <ele>1141</ele>
        <time>2022-08-12T14:45:40.000Z</time>
      </trkpt>
      <trkpt lat="45.11811" lon="5.51106">
        <ele>1141.4</ele>
        <time>2022-08-12T14:45:41.000Z</time>
      </trkpt>
      <trkpt lat="45.11808" lon="5.51106">
        <ele>1142.3</ele>
        <time>2022-08-12T14:45:42.000Z</time>
      </trkpt>
      <trkpt lat="45.11806" lon="5.51106">
        <ele>1142.9</ele>
        <time>2022-08-12T14:45:43.000Z</time>
      </trkpt>
      <trkpt lat="45.11805" lon="5.51106">
        <ele>1143.6</ele>
        <time>2022-08-12T14:45:44.000Z</time>
      </trkpt>
      <trkpt lat="45.11803" lon="5.51106">
        <ele>1144.4</ele>
        <time>2022-08-12T14:45:45.000Z</time>
      </trkpt>
      <trkpt lat="45.11801" lon="5.51106">
        <ele>1145</ele>
        <time>2022-08-12T14:45:46.000Z</time>
      </trkpt>
      <trkpt lat="45.11799" lon="5.51106">
        <ele>1145.6</ele>
        <time>2022-08-12T14:45:47.000Z</time>
      </trkpt>
      <trkpt lat="45.11799" lon="5.51105">
        <ele>1145.8</ele>
        <time>2022-08-12T14:45:49.000Z</time>
      </trkpt>
      <trkpt lat="45.11796" lon="5.51104">
        <ele>1146.5</ele>
        <time>2022-08-12T14:45:50.000Z</time>
      </trkpt>
      <trkpt lat="45.11794" lon="5.51102">
        <ele>1146.7</ele>
        <time>2022-08-12T14:45:51.000Z</time>
      </trkpt>
      <trkpt lat="45.11795" lon="5.511">
        <ele>1146.3</ele>
        <time>2022-08-12T14:45:53.000Z</time>
      </trkpt>
      <trkpt lat="45.11796" lon="5.51096">
        <ele>1145.1</ele>
        <time>2022-08-12T14:45:54.000Z</time>
      </trkpt>
      <trkpt lat="45.11796" lon="5.51094">
        <ele>1144.8</ele>
        <time>2022-08-12T14:45:55.000Z</time>
      </trkpt>
      <trkpt lat="45.11796" lon="5.51092">
        <ele>1144.5</ele>
        <time>2022-08-12T14:45:56.000Z</time>
      </trkpt>
      <trkpt lat="45.11796" lon="5.5109">
        <ele>1144.1</ele>
        <time>2022-08-12T14:45:57.000Z</time>
      </trkpt>
      <trkpt lat="45.11795" lon="5.51088">
        <ele>1143.8</ele>
        <time>2022-08-12T14:45:58.000Z</time>
      </trkpt>
      <trkpt lat="45.11796" lon="5.51086">
        <ele>1143.3</ele>
        <time>2022-08-12T14:45:59.000Z</time>
      </trkpt>
      <trkpt lat="45.11794" lon="5.51082">
        <ele>1143.3</ele>
        <time>2022-08-12T14:46:00.000Z</time>
      </trkpt>
      <trkpt lat="45.11793" lon="5.51081">
        <ele>1143.5</ele>
        <time>2022-08-12T14:46:02.000Z</time>
      </trkpt>
      <trkpt lat="45.11793" lon="5.51079">
        <ele>1143.5</ele>
        <time>2022-08-12T14:46:03.000Z</time>
      </trkpt>
      <trkpt lat="45.11793" lon="5.51077">
        <ele>1143.6</ele>
        <time>2022-08-12T14:46:04.000Z</time>
      </trkpt>
      <trkpt lat="45.11793" lon="5.51073">
        <ele>1143.4</ele>
        <time>2022-08-12T14:46:05.000Z</time>
      </trkpt>
      <trkpt lat="45.11793" lon="5.51071">
        <ele>1143.4</ele>
        <time>2022-08-12T14:46:06.000Z</time>
      </trkpt>
      <trkpt lat="45.11791" lon="5.51071">
        <ele>1143.9</ele>
        <time>2022-08-12T14:46:07.000Z</time>
      </trkpt>
      <trkpt lat="45.11789" lon="5.5107">
        <ele>1144.3</ele>
        <time>2022-08-12T14:46:08.000Z</time>
      </trkpt>
      <trkpt lat="45.11788" lon="5.5107">
        <ele>1144.6</ele>
        <time>2022-08-12T14:46:12.000Z</time>
      </trkpt>
      <trkpt lat="45.11787" lon="5.5107">
        <ele>1144.8</ele>
        <time>2022-08-12T14:46:13.000Z</time>
      </trkpt>
      <trkpt lat="45.11786" lon="5.51069">
        <ele>1145.2</ele>
        <time>2022-08-12T14:46:14.000Z</time>
      </trkpt>
      <trkpt lat="45.11784" lon="5.51069">
        <ele>1145.5</ele>
        <time>2022-08-12T14:46:15.000Z</time>
      </trkpt>
      <trkpt lat="45.11783" lon="5.51068">
        <ele>1145.7</ele>
        <time>2022-08-12T14:46:16.000Z</time>
      </trkpt>
      <trkpt lat="45.11782" lon="5.51067">
        <ele>1145.9</ele>
        <time>2022-08-12T14:46:17.000Z</time>
      </trkpt>
      <trkpt lat="45.11781" lon="5.51066">
        <ele>1146.1</ele>
        <time>2022-08-12T14:46:18.000Z</time>
      </trkpt>
      <trkpt lat="45.1178" lon="5.51065">
        <ele>1146.2</ele>
        <time>2022-08-12T14:46:19.000Z</time>
      </trkpt>
      <trkpt lat="45.11779" lon="5.51065">
        <ele>1146.4</ele>
        <time>2022-08-12T14:46:20.000Z</time>
      </trkpt>
      <trkpt lat="45.11779" lon="5.51064">
        <ele>1146.5</ele>
        <time>2022-08-12T14:46:21.000Z</time>
      </trkpt>
      <trkpt lat="45.11778" lon="5.51064">
        <ele>1146.5</ele>
        <time>2022-08-12T14:46:22.000Z</time>
      </trkpt>
      <trkpt lat="45.11777" lon="5.51063">
        <ele>1146.8</ele>
        <time>2022-08-12T14:46:24.000Z</time>
      </trkpt>
      <trkpt lat="45.11775" lon="5.51064">
        <ele>1147.3</ele>
        <time>2022-08-12T14:46:25.000Z</time>
      </trkpt>
      <trkpt lat="45.11773" lon="5.51064">
        <ele>1147.8</ele>
        <time>2022-08-12T14:46:26.000Z</time>
      </trkpt>
      <trkpt lat="45.11771" lon="5.51064">
        <ele>1148.2</ele>
        <time>2022-08-12T14:46:27.000Z</time>
      </trkpt>
      <trkpt lat="45.11769" lon="5.51063">
        <ele>1148.5</ele>
        <time>2022-08-12T14:46:28.000Z</time>
      </trkpt>
      <trkpt lat="45.11767" lon="5.51063">
        <ele>1148.9</ele>
        <time>2022-08-12T14:46:29.000Z</time>
      </trkpt>
      <trkpt lat="45.11766" lon="5.51063">
        <ele>1149.2</ele>
        <time>2022-08-12T14:46:32.000Z</time>
      </trkpt>
      <trkpt lat="45.11766" lon="5.51061">
        <ele>1149.1</ele>
        <time>2022-08-12T14:46:33.000Z</time>
      </trkpt>
      <trkpt lat="45.11765" lon="5.51059">
        <ele>1148.7</ele>
        <time>2022-08-12T14:46:34.000Z</time>
      </trkpt>
      <trkpt lat="45.11764" lon="5.51057">
        <ele>1148.6</ele>
        <time>2022-08-12T14:46:35.000Z</time>
      </trkpt>
      <trkpt lat="45.11762" lon="5.51057">
        <ele>1149</ele>
        <time>2022-08-12T14:46:36.000Z</time>
      </trkpt>
      <trkpt lat="45.11761" lon="5.51056">
        <ele>1149.1</ele>
        <time>2022-08-12T14:46:37.000Z</time>
      </trkpt>
      <trkpt lat="45.11761" lon="5.51053">
        <ele>1148.9</ele>
        <time>2022-08-12T14:46:38.000Z</time>
      </trkpt>
      <trkpt lat="45.11762" lon="5.51052">
        <ele>1148.8</ele>
        <time>2022-08-12T14:46:39.000Z</time>
      </trkpt>
      <trkpt lat="45.11761" lon="5.51052">
        <ele>1148.9</ele>
        <time>2022-08-12T14:46:41.000Z</time>
      </trkpt>
      <trkpt lat="45.1176" lon="5.51052">
        <ele>1149.1</ele>
        <time>2022-08-12T14:46:42.000Z</time>
      </trkpt>
      <trkpt lat="45.11759" lon="5.51051">
        <ele>1149.2</ele>
        <time>2022-08-12T14:46:44.000Z</time>
      </trkpt>
      <trkpt lat="45.11759" lon="5.5105">
        <ele>1149.2</ele>
        <time>2022-08-12T14:46:45.000Z</time>
      </trkpt>
      <trkpt lat="45.11758" lon="5.51049">
        <ele>1149.3</ele>
        <time>2022-08-12T14:46:46.000Z</time>
      </trkpt>
      <trkpt lat="45.11757" lon="5.51049">
        <ele>1149.4</ele>
        <time>2022-08-12T14:46:47.000Z</time>
      </trkpt>
      <trkpt lat="45.11756" lon="5.51049">
        <ele>1149.5</ele>
        <time>2022-08-12T14:46:48.000Z</time>
      </trkpt>
      <trkpt lat="45.11755" lon="5.51048">
        <ele>1149.7</ele>
        <time>2022-08-12T14:46:49.000Z</time>
      </trkpt>
      <trkpt lat="45.11756" lon="5.51044">
        <ele>1149.4</ele>
        <time>2022-08-12T14:46:50.000Z</time>
      </trkpt>
      <trkpt lat="45.11754" lon="5.51042">
        <ele>1149.6</ele>
        <time>2022-08-12T14:46:51.000Z</time>
      </trkpt>
      <trkpt lat="45.11751" lon="5.51042">
        <ele>1149.9</ele>
        <time>2022-08-12T14:46:52.000Z</time>
      </trkpt>
      <trkpt lat="45.11749" lon="5.51042">
        <ele>1150.2</ele>
        <time>2022-08-12T14:46:55.000Z</time>
      </trkpt>
      <trkpt lat="45.11747" lon="5.51042">
        <ele>1150.7</ele>
        <time>2022-08-12T14:46:56.000Z</time>
      </trkpt>
      <trkpt lat="45.11745" lon="5.51042">
        <ele>1151</ele>
        <time>2022-08-12T14:46:57.000Z</time>
      </trkpt>
      <trkpt lat="45.11744" lon="5.51041">
        <ele>1151.3</ele>
        <time>2022-08-12T14:46:58.000Z</time>
      </trkpt>
      <trkpt lat="45.11743" lon="5.51041">
        <ele>1151.5</ele>
        <time>2022-08-12T14:47:00.000Z</time>
      </trkpt>
      <trkpt lat="45.11742" lon="5.51041">
        <ele>1151.7</ele>
        <time>2022-08-12T14:47:02.000Z</time>
      </trkpt>
      <trkpt lat="45.1174" lon="5.5104">
        <ele>1151.8</ele>
        <time>2022-08-12T14:47:03.000Z</time>
      </trkpt>
      <trkpt lat="45.11738" lon="5.51038">
        <ele>1152.2</ele>
        <time>2022-08-12T14:47:04.000Z</time>
      </trkpt>
      <trkpt lat="45.11735" lon="5.51036">
        <ele>1152.4</ele>
        <time>2022-08-12T14:47:05.000Z</time>
      </trkpt>
      <trkpt lat="45.11733" lon="5.51035">
        <ele>1152.6</ele>
        <time>2022-08-12T14:47:06.000Z</time>
      </trkpt>
      <trkpt lat="45.11732" lon="5.51035">
        <ele>1152.7</ele>
        <time>2022-08-12T14:47:07.000Z</time>
      </trkpt>
      <trkpt lat="45.11732" lon="5.51034">
        <ele>1152.7</ele>
        <time>2022-08-12T14:47:08.000Z</time>
      </trkpt>
      <trkpt lat="45.11731" lon="5.51032">
        <ele>1152.5</ele>
        <time>2022-08-12T14:47:09.000Z</time>
      </trkpt>
      <trkpt lat="45.11729" lon="5.51031">
        <ele>1152.6</ele>
        <time>2022-08-12T14:47:10.000Z</time>
      </trkpt>
      <trkpt lat="45.11728" lon="5.51031">
        <ele>1152.7</ele>
        <time>2022-08-12T14:47:11.000Z</time>
      </trkpt>
      <trkpt lat="45.11728" lon="5.5103">
        <ele>1152.6</ele>
        <time>2022-08-12T14:47:12.000Z</time>
      </trkpt>
      <trkpt lat="45.11728" lon="5.51029">
        <ele>1152.4</ele>
        <time>2022-08-12T14:47:13.000Z</time>
      </trkpt>
      <trkpt lat="45.11726" lon="5.51026">
        <ele>1152.3</ele>
        <time>2022-08-12T14:47:14.000Z</time>
      </trkpt>
      <trkpt lat="45.11725" lon="5.51024">
        <ele>1152.3</ele>
        <time>2022-08-12T14:47:15.000Z</time>
      </trkpt>
      <trkpt lat="45.11725" lon="5.51023">
        <ele>1152.3</ele>
        <time>2022-08-12T14:47:16.000Z</time>
      </trkpt>
      <trkpt lat="45.11724" lon="5.5102">
        <ele>1152.2</ele>
        <time>2022-08-12T14:47:17.000Z</time>
      </trkpt>
      <trkpt lat="45.11724" lon="5.51018">
        <ele>1152.2</ele>
        <time>2022-08-12T14:47:18.000Z</time>
      </trkpt>
      <trkpt lat="45.11722" lon="5.51017">
        <ele>1152.2</ele>
        <time>2022-08-12T14:47:19.000Z</time>
      </trkpt>
      <trkpt lat="45.11721" lon="5.51015">
        <ele>1152.3</ele>
        <time>2022-08-12T14:47:20.000Z</time>
      </trkpt>
      <trkpt lat="45.11721" lon="5.51013">
        <ele>1152.3</ele>
        <time>2022-08-12T14:47:21.000Z</time>
      </trkpt>
      <trkpt lat="45.11719" lon="5.51011">
        <ele>1152.4</ele>
        <time>2022-08-12T14:47:22.000Z</time>
      </trkpt>
      <trkpt lat="45.11719" lon="5.51008">
        <ele>1152.2</ele>
        <time>2022-08-12T14:47:23.000Z</time>
      </trkpt>
      <trkpt lat="45.11719" lon="5.51007">
        <ele>1152.1</ele>
        <time>2022-08-12T14:47:24.000Z</time>
      </trkpt>
      <trkpt lat="45.11718" lon="5.51007">
        <ele>1152.2</ele>
        <time>2022-08-12T14:47:25.000Z</time>
      </trkpt>
      <trkpt lat="45.11717" lon="5.51005">
        <ele>1152.2</ele>
        <time>2022-08-12T14:47:26.000Z</time>
      </trkpt>
      <trkpt lat="45.11717" lon="5.51003">
        <ele>1152.1</ele>
        <time>2022-08-12T14:47:27.000Z</time>
      </trkpt>
      <trkpt lat="45.11715" lon="5.51002">
        <ele>1152.2</ele>
        <time>2022-08-12T14:47:28.000Z</time>
      </trkpt>
      <trkpt lat="45.11713" lon="5.51">
        <ele>1152.3</ele>
        <time>2022-08-12T14:47:29.000Z</time>
      </trkpt>
      <trkpt lat="45.11712" lon="5.50996">
        <ele>1152.5</ele>
        <time>2022-08-12T14:47:30.000Z</time>
      </trkpt>
      <trkpt lat="45.11712" lon="5.50992">
        <ele>1152.5</ele>
        <time>2022-08-12T14:47:31.000Z</time>
      </trkpt>
      <trkpt lat="45.11712" lon="5.50989">
        <ele>1152.4</ele>
        <time>2022-08-12T14:47:32.000Z</time>
      </trkpt>
      <trkpt lat="45.11712" lon="5.50986">
        <ele>1152.4</ele>
        <time>2022-08-12T14:47:33.000Z</time>
      </trkpt>
      <trkpt lat="45.11712" lon="5.50985">
        <ele>1152.4</ele>
        <time>2022-08-12T14:47:34.000Z</time>
      </trkpt>
      <trkpt lat="45.11711" lon="5.50983">
        <ele>1152.5</ele>
        <time>2022-08-12T14:47:35.000Z</time>
      </trkpt>
      <trkpt lat="45.1171" lon="5.50982">
        <ele>1152.6</ele>
        <time>2022-08-12T14:47:36.000Z</time>
      </trkpt>
      <trkpt lat="45.11708" lon="5.50981">
        <ele>1152.7</ele>
        <time>2022-08-12T14:47:37.000Z</time>
      </trkpt>
      <trkpt lat="45.11706" lon="5.50981">
        <ele>1152.8</ele>
        <time>2022-08-12T14:47:38.000Z</time>
      </trkpt>
      <trkpt lat="45.11704" lon="5.50981">
        <ele>1153</ele>
        <time>2022-08-12T14:47:39.000Z</time>
      </trkpt>
      <trkpt lat="45.11702" lon="5.5098">
        <ele>1153.1</ele>
        <time>2022-08-12T14:47:40.000Z</time>
      </trkpt>
      <trkpt lat="45.11701" lon="5.50979">
        <ele>1153.1</ele>
        <time>2022-08-12T14:47:41.000Z</time>
      </trkpt>
      <trkpt lat="45.11698" lon="5.50978">
        <ele>1153.2</ele>
        <time>2022-08-12T14:47:42.000Z</time>
      </trkpt>
      <trkpt lat="45.11697" lon="5.50976">
        <ele>1153.2</ele>
        <time>2022-08-12T14:47:43.000Z</time>
      </trkpt>
      <trkpt lat="45.11695" lon="5.50975">
        <ele>1153.2</ele>
        <time>2022-08-12T14:47:44.000Z</time>
      </trkpt>
      <trkpt lat="45.11693" lon="5.50974">
        <ele>1153.6</ele>
        <time>2022-08-12T14:47:45.000Z</time>
      </trkpt>
      <trkpt lat="45.1169" lon="5.50972">
        <ele>1154.1</ele>
        <time>2022-08-12T14:47:46.000Z</time>
      </trkpt>
      <trkpt lat="45.11687" lon="5.50969">
        <ele>1154.7</ele>
        <time>2022-08-12T14:47:47.000Z</time>
      </trkpt>
      <trkpt lat="45.11689" lon="5.50964">
        <ele>1154.1</ele>
        <time>2022-08-12T14:47:48.000Z</time>
      </trkpt>
      <trkpt lat="45.11692" lon="5.50961">
        <ele>1153.6</ele>
        <time>2022-08-12T14:47:49.000Z</time>
      </trkpt>
      <trkpt lat="45.11691" lon="5.5096">
        <ele>1153.7</ele>
        <time>2022-08-12T14:47:50.000Z</time>
      </trkpt>
      <trkpt lat="45.11689" lon="5.50959">
        <ele>1153.9</ele>
        <time>2022-08-12T14:47:51.000Z</time>
      </trkpt>
      <trkpt lat="45.11687" lon="5.50957">
        <ele>1154.3</ele>
        <time>2022-08-12T14:47:52.000Z</time>
      </trkpt>
      <trkpt lat="45.11686" lon="5.50956">
        <ele>1154.4</ele>
        <time>2022-08-12T14:47:53.000Z</time>
      </trkpt>
      <trkpt lat="45.11685" lon="5.50954">
        <ele>1154.6</ele>
        <time>2022-08-12T14:47:54.000Z</time>
      </trkpt>
      <trkpt lat="45.11683" lon="5.50952">
        <ele>1154.7</ele>
        <time>2022-08-12T14:47:55.000Z</time>
      </trkpt>
      <trkpt lat="45.11682" lon="5.50951">
        <ele>1154.8</ele>
        <time>2022-08-12T14:47:56.000Z</time>
      </trkpt>
      <trkpt lat="45.11681" lon="5.50949">
        <ele>1154.9</ele>
        <time>2022-08-12T14:47:57.000Z</time>
      </trkpt>
      <trkpt lat="45.11679" lon="5.50949">
        <ele>1154.9</ele>
        <time>2022-08-12T14:47:58.000Z</time>
      </trkpt>
      <trkpt lat="45.11678" lon="5.50948">
        <ele>1155</ele>
        <time>2022-08-12T14:47:59.000Z</time>
      </trkpt>
      <trkpt lat="45.11677" lon="5.50946">
        <ele>1155.1</ele>
        <time>2022-08-12T14:48:00.000Z</time>
      </trkpt>
      <trkpt lat="45.11675" lon="5.50945">
        <ele>1155.2</ele>
        <time>2022-08-12T14:48:01.000Z</time>
      </trkpt>
      <trkpt lat="45.11673" lon="5.50944">
        <ele>1155.3</ele>
        <time>2022-08-12T14:48:02.000Z</time>
      </trkpt>
      <trkpt lat="45.11672" lon="5.50942">
        <ele>1155.4</ele>
        <time>2022-08-12T14:48:03.000Z</time>
      </trkpt>
      <trkpt lat="45.11672" lon="5.50939">
        <ele>1155.2</ele>
        <time>2022-08-12T14:48:04.000Z</time>
      </trkpt>
      <trkpt lat="45.11674" lon="5.50934">
        <ele>1154.9</ele>
        <time>2022-08-12T14:48:05.000Z</time>
      </trkpt>
      <trkpt lat="45.11675" lon="5.5093">
        <ele>1154.8</ele>
        <time>2022-08-12T14:48:06.000Z</time>
      </trkpt>
      <trkpt lat="45.11675" lon="5.50927">
        <ele>1154.8</ele>
        <time>2022-08-12T14:48:07.000Z</time>
      </trkpt>
      <trkpt lat="45.11675" lon="5.50924">
        <ele>1154.7</ele>
        <time>2022-08-12T14:48:08.000Z</time>
      </trkpt>
      <trkpt lat="45.11674" lon="5.50923">
        <ele>1154.7</ele>
        <time>2022-08-12T14:48:09.000Z</time>
      </trkpt>
      <trkpt lat="45.11673" lon="5.50921">
        <ele>1154.6</ele>
        <time>2022-08-12T14:48:10.000Z</time>
      </trkpt>
      <trkpt lat="45.11672" lon="5.50919">
        <ele>1154.5</ele>
        <time>2022-08-12T14:48:11.000Z</time>
      </trkpt>
      <trkpt lat="45.11672" lon="5.50918">
        <ele>1154.4</ele>
        <time>2022-08-12T14:48:12.000Z</time>
      </trkpt>
      <trkpt lat="45.11671" lon="5.50916">
        <ele>1154.4</ele>
        <time>2022-08-12T14:48:13.000Z</time>
      </trkpt>
      <trkpt lat="45.1167" lon="5.50914">
        <ele>1154.4</ele>
        <time>2022-08-12T14:48:14.000Z</time>
      </trkpt>
      <trkpt lat="45.11668" lon="5.50912">
        <ele>1154.3</ele>
        <time>2022-08-12T14:48:15.000Z</time>
      </trkpt>
      <trkpt lat="45.11667" lon="5.50911">
        <ele>1154.3</ele>
        <time>2022-08-12T14:48:16.000Z</time>
      </trkpt>
      <trkpt lat="45.11667" lon="5.5091">
        <ele>1154.3</ele>
        <time>2022-08-12T14:48:17.000Z</time>
      </trkpt>
      <trkpt lat="45.11665" lon="5.50908">
        <ele>1154.5</ele>
        <time>2022-08-12T14:48:18.000Z</time>
      </trkpt>
      <trkpt lat="45.11664" lon="5.50907">
        <ele>1154.7</ele>
        <time>2022-08-12T14:48:19.000Z</time>
      </trkpt>
      <trkpt lat="45.11662" lon="5.50905">
        <ele>1155</ele>
        <time>2022-08-12T14:48:20.000Z</time>
      </trkpt>
      <trkpt lat="45.1166" lon="5.50904">
        <ele>1155.2</ele>
        <time>2022-08-12T14:48:21.000Z</time>
      </trkpt>
      <trkpt lat="45.11659" lon="5.50902">
        <ele>1155.3</ele>
        <time>2022-08-12T14:48:22.000Z</time>
      </trkpt>
      <trkpt lat="45.11658" lon="5.50901">
        <ele>1155.4</ele>
        <time>2022-08-12T14:48:23.000Z</time>
      </trkpt>
      <trkpt lat="45.11657" lon="5.50899">
        <ele>1155.5</ele>
        <time>2022-08-12T14:48:24.000Z</time>
      </trkpt>
      <trkpt lat="45.11656" lon="5.50898">
        <ele>1155.6</ele>
        <time>2022-08-12T14:48:25.000Z</time>
      </trkpt>
      <trkpt lat="45.11654" lon="5.50897">
        <ele>1155.7</ele>
        <time>2022-08-12T14:48:26.000Z</time>
      </trkpt>
      <trkpt lat="45.11652" lon="5.50896">
        <ele>1155.8</ele>
        <time>2022-08-12T14:48:27.000Z</time>
      </trkpt>
      <trkpt lat="45.1165" lon="5.50896">
        <ele>1155.9</ele>
        <time>2022-08-12T14:48:28.000Z</time>
      </trkpt>
      <trkpt lat="45.11648" lon="5.50895">
        <ele>1156.1</ele>
        <time>2022-08-12T14:48:29.000Z</time>
      </trkpt>
      <trkpt lat="45.11645" lon="5.50895">
        <ele>1156.2</ele>
        <time>2022-08-12T14:48:30.000Z</time>
      </trkpt>
      <trkpt lat="45.11643" lon="5.50895">
        <ele>1156.4</ele>
        <time>2022-08-12T14:48:31.000Z</time>
      </trkpt>
      <trkpt lat="45.11641" lon="5.50894">
        <ele>1156.4</ele>
        <time>2022-08-12T14:48:32.000Z</time>
      </trkpt>
      <trkpt lat="45.1164" lon="5.50894">
        <ele>1156.5</ele>
        <time>2022-08-12T14:48:33.000Z</time>
      </trkpt>
      <trkpt lat="45.11637" lon="5.50894">
        <ele>1156.9</ele>
        <time>2022-08-12T14:48:34.000Z</time>
      </trkpt>
      <trkpt lat="45.11636" lon="5.50892">
        <ele>1156.9</ele>
        <time>2022-08-12T14:48:35.000Z</time>
      </trkpt>
      <trkpt lat="45.11635" lon="5.50891">
        <ele>1156.9</ele>
        <time>2022-08-12T14:48:36.000Z</time>
      </trkpt>
      <trkpt lat="45.11633" lon="5.50891">
        <ele>1157.3</ele>
        <time>2022-08-12T14:48:37.000Z</time>
      </trkpt>
      <trkpt lat="45.11631" lon="5.50891">
        <ele>1157.8</ele>
        <time>2022-08-12T14:48:38.000Z</time>
      </trkpt>
      <trkpt lat="45.11629" lon="5.5089">
        <ele>1158</ele>
        <time>2022-08-12T14:48:39.000Z</time>
      </trkpt>
      <trkpt lat="45.11628" lon="5.50889">
        <ele>1158</ele>
        <time>2022-08-12T14:48:42.000Z</time>
      </trkpt>
      <trkpt lat="45.11626" lon="5.50889">
        <ele>1158.2</ele>
        <time>2022-08-12T14:48:43.000Z</time>
      </trkpt>
      <trkpt lat="45.11625" lon="5.50888">
        <ele>1158.4</ele>
        <time>2022-08-12T14:48:44.000Z</time>
      </trkpt>
      <trkpt lat="45.11623" lon="5.50887">
        <ele>1158.9</ele>
        <time>2022-08-12T14:48:45.000Z</time>
      </trkpt>
      <trkpt lat="45.11621" lon="5.50887">
        <ele>1159.1</ele>
        <time>2022-08-12T14:48:46.000Z</time>
      </trkpt>
      <trkpt lat="45.1162" lon="5.50887">
        <ele>1159.3</ele>
        <time>2022-08-12T14:48:47.000Z</time>
      </trkpt>
      <trkpt lat="45.11619" lon="5.50886">
        <ele>1159.4</ele>
        <time>2022-08-12T14:48:48.000Z</time>
      </trkpt>
      <trkpt lat="45.11618" lon="5.50886">
        <ele>1159.6</ele>
        <time>2022-08-12T14:48:49.000Z</time>
      </trkpt>
      <trkpt lat="45.11616" lon="5.50885">
        <ele>1159.8</ele>
        <time>2022-08-12T14:48:50.000Z</time>
      </trkpt>
      <trkpt lat="45.11614" lon="5.50884">
        <ele>1160</ele>
        <time>2022-08-12T14:48:51.000Z</time>
      </trkpt>
      <trkpt lat="45.11612" lon="5.50884">
        <ele>1160.3</ele>
        <time>2022-08-12T14:48:52.000Z</time>
      </trkpt>
      <trkpt lat="45.11611" lon="5.50883">
        <ele>1160.3</ele>
        <time>2022-08-12T14:48:53.000Z</time>
      </trkpt>
      <trkpt lat="45.1161" lon="5.50883">
        <ele>1160.5</ele>
        <time>2022-08-12T14:48:54.000Z</time>
      </trkpt>
      <trkpt lat="45.11609" lon="5.50882">
        <ele>1160.8</ele>
        <time>2022-08-12T14:48:55.000Z</time>
      </trkpt>
      <trkpt lat="45.11608" lon="5.50881">
        <ele>1160.9</ele>
        <time>2022-08-12T14:48:56.000Z</time>
      </trkpt>
      <trkpt lat="45.11608" lon="5.5088">
        <ele>1160.9</ele>
        <time>2022-08-12T14:48:57.000Z</time>
      </trkpt>
      <trkpt lat="45.11607" lon="5.5088">
        <ele>1161</ele>
        <time>2022-08-12T14:48:58.000Z</time>
      </trkpt>
      <trkpt lat="45.11606" lon="5.50879">
        <ele>1161</ele>
        <time>2022-08-12T14:48:59.000Z</time>
      </trkpt>
      <trkpt lat="45.11605" lon="5.50878">
        <ele>1161.2</ele>
        <time>2022-08-12T14:49:00.000Z</time>
      </trkpt>
      <trkpt lat="45.11604" lon="5.50877">
        <ele>1161.3</ele>
        <time>2022-08-12T14:49:01.000Z</time>
      </trkpt>
      <trkpt lat="45.11603" lon="5.50874">
        <ele>1161</ele>
        <time>2022-08-12T14:49:02.000Z</time>
      </trkpt>
      <trkpt lat="45.11602" lon="5.50873">
        <ele>1161</ele>
        <time>2022-08-12T14:49:03.000Z</time>
      </trkpt>
      <trkpt lat="45.11601" lon="5.50873">
        <ele>1161.1</ele>
        <time>2022-08-12T14:49:04.000Z</time>
      </trkpt>
      <trkpt lat="45.116" lon="5.50872">
        <ele>1161.2</ele>
        <time>2022-08-12T14:49:05.000Z</time>
      </trkpt>
      <trkpt lat="45.11598" lon="5.50872">
        <ele>1161.6</ele>
        <time>2022-08-12T14:49:06.000Z</time>
      </trkpt>
      <trkpt lat="45.11596" lon="5.50872">
        <ele>1161.9</ele>
        <time>2022-08-12T14:49:07.000Z</time>
      </trkpt>
      <trkpt lat="45.11595" lon="5.50872">
        <ele>1162.2</ele>
        <time>2022-08-12T14:49:08.000Z</time>
      </trkpt>
      <trkpt lat="45.11593" lon="5.50873">
        <ele>1162.5</ele>
        <time>2022-08-12T14:49:09.000Z</time>
      </trkpt>
      <trkpt lat="45.11592" lon="5.50873">
        <ele>1162.7</ele>
        <time>2022-08-12T14:49:11.000Z</time>
      </trkpt>
      <trkpt lat="45.11591" lon="5.50872">
        <ele>1162.8</ele>
        <time>2022-08-12T14:49:12.000Z</time>
      </trkpt>
      <trkpt lat="45.11592" lon="5.50869">
        <ele>1162</ele>
        <time>2022-08-12T14:49:13.000Z</time>
      </trkpt>
      <trkpt lat="45.11593" lon="5.50867">
        <ele>1161.1</ele>
        <time>2022-08-12T14:49:14.000Z</time>
      </trkpt>
      <trkpt lat="45.11594" lon="5.50862">
        <ele>1160.1</ele>
        <time>2022-08-12T14:49:15.000Z</time>
      </trkpt>
      <trkpt lat="45.11594" lon="5.50859">
        <ele>1159.9</ele>
        <time>2022-08-12T14:49:16.000Z</time>
      </trkpt>
      <trkpt lat="45.11593" lon="5.5086">
        <ele>1160</ele>
        <time>2022-08-12T14:49:17.000Z</time>
      </trkpt>
      <trkpt lat="45.11594" lon="5.50859">
        <ele>1159.9</ele>
        <time>2022-08-12T14:49:18.000Z</time>
      </trkpt>
      <trkpt lat="45.11593" lon="5.50858">
        <ele>1160</ele>
        <time>2022-08-12T14:49:19.000Z</time>
      </trkpt>
      <trkpt lat="45.11593" lon="5.50857">
        <ele>1160.1</ele>
        <time>2022-08-12T14:49:21.000Z</time>
      </trkpt>
      <trkpt lat="45.11593" lon="5.50854">
        <ele>1160.2</ele>
        <time>2022-08-12T14:49:22.000Z</time>
      </trkpt>
      <trkpt lat="45.11592" lon="5.50852">
        <ele>1160.2</ele>
        <time>2022-08-12T14:49:23.000Z</time>
      </trkpt>
      <trkpt lat="45.1159" lon="5.50852">
        <ele>1160.3</ele>
        <time>2022-08-12T14:49:24.000Z</time>
      </trkpt>
      <trkpt lat="45.11589" lon="5.50851">
        <ele>1160.4</ele>
        <time>2022-08-12T14:49:25.000Z</time>
      </trkpt>
      <trkpt lat="45.11589" lon="5.50849">
        <ele>1160.4</ele>
        <time>2022-08-12T14:49:26.000Z</time>
      </trkpt>
      <trkpt lat="45.1159" lon="5.50847">
        <ele>1160.4</ele>
        <time>2022-08-12T14:49:27.000Z</time>
      </trkpt>
      <trkpt lat="45.11593" lon="5.50844">
        <ele>1160.4</ele>
        <time>2022-08-12T14:49:28.000Z</time>
      </trkpt>
      <trkpt lat="45.11591" lon="5.50843">
        <ele>1160.4</ele>
        <time>2022-08-12T14:49:29.000Z</time>
      </trkpt>
      <trkpt lat="45.1159" lon="5.50843">
        <ele>1160.4</ele>
        <time>2022-08-12T14:49:32.000Z</time>
      </trkpt>
      <trkpt lat="45.11589" lon="5.50843">
        <ele>1160.4</ele>
        <time>2022-08-12T14:49:34.000Z</time>
      </trkpt>
      <trkpt lat="45.11589" lon="5.50842">
        <ele>1160.4</ele>
        <time>2022-08-12T14:49:35.000Z</time>
      </trkpt>
      <trkpt lat="45.11589" lon="5.5084">
        <ele>1160.4</ele>
        <time>2022-08-12T14:49:36.000Z</time>
      </trkpt>
      <trkpt lat="45.11588" lon="5.50839">
        <ele>1160.4</ele>
        <time>2022-08-12T14:49:37.000Z</time>
      </trkpt>
      <trkpt lat="45.11587" lon="5.50838">
        <ele>1160.3</ele>
        <time>2022-08-12T14:49:38.000Z</time>
      </trkpt>
      <trkpt lat="45.11582" lon="5.50838">
        <ele>1160.2</ele>
        <time>2022-08-12T14:49:39.000Z</time>
      </trkpt>
      <trkpt lat="45.11579" lon="5.50837">
        <ele>1160.3</ele>
        <time>2022-08-12T14:49:40.000Z</time>
      </trkpt>
      <trkpt lat="45.11578" lon="5.50835">
        <ele>1160.1</ele>
        <time>2022-08-12T14:49:41.000Z</time>
      </trkpt>
      <trkpt lat="45.11576" lon="5.50833">
        <ele>1160</ele>
        <time>2022-08-12T14:49:42.000Z</time>
      </trkpt>
      <trkpt lat="45.11575" lon="5.50832">
        <ele>1160.3</ele>
        <time>2022-08-12T14:49:43.000Z</time>
      </trkpt>
      <trkpt lat="45.11574" lon="5.5083">
        <ele>1160.5</ele>
        <time>2022-08-12T14:49:44.000Z</time>
      </trkpt>
      <trkpt lat="45.11572" lon="5.5083">
        <ele>1160.5</ele>
        <time>2022-08-12T14:49:45.000Z</time>
      </trkpt>
      <trkpt lat="45.11571" lon="5.5083">
        <ele>1160.4</ele>
        <time>2022-08-12T14:49:46.000Z</time>
      </trkpt>
      <trkpt lat="45.11569" lon="5.50831">
        <ele>1160.3</ele>
        <time>2022-08-12T14:49:47.000Z</time>
      </trkpt>
      <trkpt lat="45.11567" lon="5.50832">
        <ele>1160.2</ele>
        <time>2022-08-12T14:49:48.000Z</time>
      </trkpt>
      <trkpt lat="45.11565" lon="5.5083">
        <ele>1160.4</ele>
        <time>2022-08-12T14:49:49.000Z</time>
      </trkpt>
      <trkpt lat="45.11564" lon="5.50829">
        <ele>1160.5</ele>
        <time>2022-08-12T14:49:50.000Z</time>
      </trkpt>
      <trkpt lat="45.11561" lon="5.50828">
        <ele>1160.5</ele>
        <time>2022-08-12T14:49:51.000Z</time>
      </trkpt>
      <trkpt lat="45.11558" lon="5.50828">
        <ele>1160.5</ele>
        <time>2022-08-12T14:49:52.000Z</time>
      </trkpt>
      <trkpt lat="45.11557" lon="5.50827">
        <ele>1160.5</ele>
        <time>2022-08-12T14:49:53.000Z</time>
      </trkpt>
      <trkpt lat="45.11556" lon="5.50827">
        <ele>1160.5</ele>
        <time>2022-08-12T14:49:54.000Z</time>
      </trkpt>
      <trkpt lat="45.11556" lon="5.50826">
        <ele>1160.5</ele>
        <time>2022-08-12T14:49:56.000Z</time>
      </trkpt>
      <trkpt lat="45.11555" lon="5.50826">
        <ele>1160.7</ele>
        <time>2022-08-12T14:49:57.000Z</time>
      </trkpt>
      <trkpt lat="45.11554" lon="5.50825">
        <ele>1160.8</ele>
        <time>2022-08-12T14:49:58.000Z</time>
      </trkpt>
      <trkpt lat="45.11553" lon="5.50824">
        <ele>1161</ele>
        <time>2022-08-12T14:50:01.000Z</time>
      </trkpt>
      <trkpt lat="45.1155" lon="5.50823">
        <ele>1161.3</ele>
        <time>2022-08-12T14:50:02.000Z</time>
      </trkpt>
      <trkpt lat="45.11549" lon="5.50822">
        <ele>1161.5</ele>
        <time>2022-08-12T14:50:03.000Z</time>
      </trkpt>
      <trkpt lat="45.11548" lon="5.5082">
        <ele>1161.6</ele>
        <time>2022-08-12T14:50:04.000Z</time>
      </trkpt>
      <trkpt lat="45.11548" lon="5.50819">
        <ele>1161.7</ele>
        <time>2022-08-12T14:50:05.000Z</time>
      </trkpt>
      <trkpt lat="45.11548" lon="5.5082">
        <ele>1161.7</ele>
        <time>2022-08-12T14:50:06.000Z</time>
      </trkpt>
      <trkpt lat="45.11546" lon="5.5082">
        <ele>1161.9</ele>
        <time>2022-08-12T14:50:07.000Z</time>
      </trkpt>
      <trkpt lat="45.11544" lon="5.50819">
        <ele>1162</ele>
        <time>2022-08-12T14:50:08.000Z</time>
      </trkpt>
      <trkpt lat="45.11543" lon="5.50818">
        <ele>1162.1</ele>
        <time>2022-08-12T14:50:09.000Z</time>
      </trkpt>
      <trkpt lat="45.11541" lon="5.50817">
        <ele>1162.2</ele>
        <time>2022-08-12T14:50:10.000Z</time>
      </trkpt>
      <trkpt lat="45.11541" lon="5.50814">
        <ele>1162.2</ele>
        <time>2022-08-12T14:50:11.000Z</time>
      </trkpt>
      <trkpt lat="45.11539" lon="5.50812">
        <ele>1162.2</ele>
        <time>2022-08-12T14:50:12.000Z</time>
      </trkpt>
      <trkpt lat="45.11538" lon="5.50812">
        <ele>1162.3</ele>
        <time>2022-08-12T14:50:13.000Z</time>
      </trkpt>
      <trkpt lat="45.11535" lon="5.50812">
        <ele>1162.4</ele>
        <time>2022-08-12T14:50:14.000Z</time>
      </trkpt>
      <trkpt lat="45.11534" lon="5.50812">
        <ele>1162.4</ele>
        <time>2022-08-12T14:50:15.000Z</time>
      </trkpt>
      <trkpt lat="45.11534" lon="5.50811">
        <ele>1162.4</ele>
        <time>2022-08-12T14:50:16.000Z</time>
      </trkpt>
      <trkpt lat="45.11534" lon="5.50809">
        <ele>1162.3</ele>
        <time>2022-08-12T14:50:17.000Z</time>
      </trkpt>
      <trkpt lat="45.11533" lon="5.50808">
        <ele>1162.2</ele>
        <time>2022-08-12T14:50:18.000Z</time>
      </trkpt>
      <trkpt lat="45.11531" lon="5.50808">
        <ele>1162.2</ele>
        <time>2022-08-12T14:50:19.000Z</time>
      </trkpt>
      <trkpt lat="45.1153" lon="5.50807">
        <ele>1162.1</ele>
        <time>2022-08-12T14:50:20.000Z</time>
      </trkpt>
      <trkpt lat="45.11528" lon="5.50807">
        <ele>1162.1</ele>
        <time>2022-08-12T14:50:21.000Z</time>
      </trkpt>
      <trkpt lat="45.11527" lon="5.50806">
        <ele>1162.3</ele>
        <time>2022-08-12T14:50:22.000Z</time>
      </trkpt>
      <trkpt lat="45.11525" lon="5.50805">
        <ele>1162.6</ele>
        <time>2022-08-12T14:50:23.000Z</time>
      </trkpt>
      <trkpt lat="45.11523" lon="5.50804">
        <ele>1163</ele>
        <time>2022-08-12T14:50:24.000Z</time>
      </trkpt>
      <trkpt lat="45.11521" lon="5.50803">
        <ele>1163.6</ele>
        <time>2022-08-12T14:50:25.000Z</time>
      </trkpt>
      <trkpt lat="45.11519" lon="5.50802">
        <ele>1164.1</ele>
        <time>2022-08-12T14:50:26.000Z</time>
      </trkpt>
      <trkpt lat="45.11517" lon="5.50802">
        <ele>1164.5</ele>
        <time>2022-08-12T14:50:27.000Z</time>
      </trkpt>
      <trkpt lat="45.11515" lon="5.50801">
        <ele>1164.8</ele>
        <time>2022-08-12T14:50:28.000Z</time>
      </trkpt>
      <trkpt lat="45.11513" lon="5.50802">
        <ele>1165</ele>
        <time>2022-08-12T14:50:29.000Z</time>
      </trkpt>
      <trkpt lat="45.11511" lon="5.50802">
        <ele>1165.3</ele>
        <time>2022-08-12T14:50:30.000Z</time>
      </trkpt>
      <trkpt lat="45.1151" lon="5.50802">
        <ele>1165.6</ele>
        <time>2022-08-12T14:50:31.000Z</time>
      </trkpt>
      <trkpt lat="45.11509" lon="5.50801">
        <ele>1165.8</ele>
        <time>2022-08-12T14:50:32.000Z</time>
      </trkpt>
      <trkpt lat="45.11507" lon="5.50801">
        <ele>1166.1</ele>
        <time>2022-08-12T14:50:33.000Z</time>
      </trkpt>
      <trkpt lat="45.11506" lon="5.50799">
        <ele>1166.4</ele>
        <time>2022-08-12T14:50:34.000Z</time>
      </trkpt>
      <trkpt lat="45.11504" lon="5.50798">
        <ele>1166.6</ele>
        <time>2022-08-12T14:50:35.000Z</time>
      </trkpt>
      <trkpt lat="45.11503" lon="5.50797">
        <ele>1166.9</ele>
        <time>2022-08-12T14:50:36.000Z</time>
      </trkpt>
      <trkpt lat="45.11501" lon="5.50796">
        <ele>1167.2</ele>
        <time>2022-08-12T14:50:37.000Z</time>
      </trkpt>
      <trkpt lat="45.11499" lon="5.50795">
        <ele>1167.6</ele>
        <time>2022-08-12T14:50:38.000Z</time>
      </trkpt>
      <trkpt lat="45.11498" lon="5.50794">
        <ele>1168.1</ele>
        <time>2022-08-12T14:50:39.000Z</time>
      </trkpt>
      <trkpt lat="45.11497" lon="5.50794">
        <ele>1168.3</ele>
        <time>2022-08-12T14:50:40.000Z</time>
      </trkpt>
      <trkpt lat="45.11494" lon="5.50794">
        <ele>1169</ele>
        <time>2022-08-12T14:50:41.000Z</time>
      </trkpt>
      <trkpt lat="45.11493" lon="5.50794">
        <ele>1169.3</ele>
        <time>2022-08-12T14:50:42.000Z</time>
      </trkpt>
      <trkpt lat="45.11491" lon="5.50794">
        <ele>1169.7</ele>
        <time>2022-08-12T14:50:43.000Z</time>
      </trkpt>
      <trkpt lat="45.1149" lon="5.50793">
        <ele>1170</ele>
        <time>2022-08-12T14:50:44.000Z</time>
      </trkpt>
      <trkpt lat="45.11489" lon="5.50792">
        <ele>1170.2</ele>
        <time>2022-08-12T14:50:46.000Z</time>
      </trkpt>
      <trkpt lat="45.11488" lon="5.5079">
        <ele>1170.5</ele>
        <time>2022-08-12T14:50:47.000Z</time>
      </trkpt>
      <trkpt lat="45.11487" lon="5.50789">
        <ele>1170.6</ele>
        <time>2022-08-12T14:50:48.000Z</time>
      </trkpt>
      <trkpt lat="45.11486" lon="5.50788">
        <ele>1170.9</ele>
        <time>2022-08-12T14:50:50.000Z</time>
      </trkpt>
      <trkpt lat="45.11485" lon="5.50788">
        <ele>1171</ele>
        <time>2022-08-12T14:50:52.000Z</time>
      </trkpt>
      <trkpt lat="45.11484" lon="5.50787">
        <ele>1171.3</ele>
        <time>2022-08-12T14:50:56.000Z</time>
      </trkpt>
      <trkpt lat="45.11482" lon="5.50787">
        <ele>1171.7</ele>
        <time>2022-08-12T14:50:57.000Z</time>
      </trkpt>
      <trkpt lat="45.1148" lon="5.50786">
        <ele>1172.2</ele>
        <time>2022-08-12T14:50:58.000Z</time>
      </trkpt>
      <trkpt lat="45.11478" lon="5.50786">
        <ele>1172.7</ele>
        <time>2022-08-12T14:50:59.000Z</time>
      </trkpt>
      <trkpt lat="45.11476" lon="5.50785">
        <ele>1173</ele>
        <time>2022-08-12T14:51:00.000Z</time>
      </trkpt>
      <trkpt lat="45.11475" lon="5.50785">
        <ele>1173.2</ele>
        <time>2022-08-12T14:51:01.000Z</time>
      </trkpt>
      <trkpt lat="45.11474" lon="5.50785">
        <ele>1173.3</ele>
        <time>2022-08-12T14:51:02.000Z</time>
      </trkpt>
      <trkpt lat="45.11473" lon="5.50784">
        <ele>1173.5</ele>
        <time>2022-08-12T14:51:03.000Z</time>
      </trkpt>
      <trkpt lat="45.11472" lon="5.50784">
        <ele>1173.6</ele>
        <time>2022-08-12T14:51:04.000Z</time>
      </trkpt>
      <trkpt lat="45.11471" lon="5.50783">
        <ele>1174</ele>
        <time>2022-08-12T14:51:05.000Z</time>
      </trkpt>
      <trkpt lat="45.1147" lon="5.50781">
        <ele>1174.1</ele>
        <time>2022-08-12T14:51:06.000Z</time>
      </trkpt>
      <trkpt lat="45.11468" lon="5.50779">
        <ele>1174.4</ele>
        <time>2022-08-12T14:51:07.000Z</time>
      </trkpt>
      <trkpt lat="45.11467" lon="5.50779">
        <ele>1174.5</ele>
        <time>2022-08-12T14:51:08.000Z</time>
      </trkpt>
      <trkpt lat="45.11466" lon="5.50778">
        <ele>1174.8</ele>
        <time>2022-08-12T14:51:10.000Z</time>
      </trkpt>
      <trkpt lat="45.11465" lon="5.50778">
        <ele>1175.2</ele>
        <time>2022-08-12T14:51:11.000Z</time>
      </trkpt>
      <trkpt lat="45.11463" lon="5.50778">
        <ele>1175.7</ele>
        <time>2022-08-12T14:51:12.000Z</time>
      </trkpt>
      <trkpt lat="45.11461" lon="5.50777">
        <ele>1176.3</ele>
        <time>2022-08-12T14:51:13.000Z</time>
      </trkpt>
      <trkpt lat="45.11459" lon="5.50776">
        <ele>1177</ele>
        <time>2022-08-12T14:51:14.000Z</time>
      </trkpt>
      <trkpt lat="45.11458" lon="5.50773">
        <ele>1177.2</ele>
        <time>2022-08-12T14:51:15.000Z</time>
      </trkpt>
      <trkpt lat="45.11457" lon="5.50771">
        <ele>1177.5</ele>
        <time>2022-08-12T14:51:16.000Z</time>
      </trkpt>
      <trkpt lat="45.11455" lon="5.50769">
        <ele>1178.2</ele>
        <time>2022-08-12T14:51:17.000Z</time>
      </trkpt>
      <trkpt lat="45.11453" lon="5.50768">
        <ele>1178.6</ele>
        <time>2022-08-12T14:51:18.000Z</time>
      </trkpt>
      <trkpt lat="45.11451" lon="5.50767">
        <ele>1179.1</ele>
        <time>2022-08-12T14:51:19.000Z</time>
      </trkpt>
      <trkpt lat="45.11449" lon="5.50766">
        <ele>1179.6</ele>
        <time>2022-08-12T14:51:20.000Z</time>
      </trkpt>
      <trkpt lat="45.11447" lon="5.50764">
        <ele>1180.1</ele>
        <time>2022-08-12T14:51:21.000Z</time>
      </trkpt>
      <trkpt lat="45.11445" lon="5.50763">
        <ele>1180.4</ele>
        <time>2022-08-12T14:51:22.000Z</time>
      </trkpt>
      <trkpt lat="45.11443" lon="5.50761">
        <ele>1180.7</ele>
        <time>2022-08-12T14:51:23.000Z</time>
      </trkpt>
      <trkpt lat="45.11442" lon="5.50759">
        <ele>1180.9</ele>
        <time>2022-08-12T14:51:24.000Z</time>
      </trkpt>
      <trkpt lat="45.1144" lon="5.50756">
        <ele>1181.1</ele>
        <time>2022-08-12T14:51:25.000Z</time>
      </trkpt>
      <trkpt lat="45.11439" lon="5.50755">
        <ele>1181.3</ele>
        <time>2022-08-12T14:51:26.000Z</time>
      </trkpt>
      <trkpt lat="45.11437" lon="5.50754">
        <ele>1181.6</ele>
        <time>2022-08-12T14:51:27.000Z</time>
      </trkpt>
      <trkpt lat="45.11435" lon="5.50753">
        <ele>1182</ele>
        <time>2022-08-12T14:51:28.000Z</time>
      </trkpt>
      <trkpt lat="45.11433" lon="5.50752">
        <ele>1182.2</ele>
        <time>2022-08-12T14:51:29.000Z</time>
      </trkpt>
      <trkpt lat="45.11431" lon="5.50752">
        <ele>1182.5</ele>
        <time>2022-08-12T14:51:30.000Z</time>
      </trkpt>
      <trkpt lat="45.11429" lon="5.50751">
        <ele>1182.8</ele>
        <time>2022-08-12T14:51:31.000Z</time>
      </trkpt>
      <trkpt lat="45.11427" lon="5.5075">
        <ele>1183.1</ele>
        <time>2022-08-12T14:51:32.000Z</time>
      </trkpt>
      <trkpt lat="45.11426" lon="5.50749">
        <ele>1183.4</ele>
        <time>2022-08-12T14:51:33.000Z</time>
      </trkpt>
      <trkpt lat="45.11425" lon="5.50747">
        <ele>1183.6</ele>
        <time>2022-08-12T14:51:34.000Z</time>
      </trkpt>
      <trkpt lat="45.11424" lon="5.50744">
        <ele>1183.8</ele>
        <time>2022-08-12T14:51:35.000Z</time>
      </trkpt>
      <trkpt lat="45.11423" lon="5.50743">
        <ele>1184</ele>
        <time>2022-08-12T14:51:36.000Z</time>
      </trkpt>
      <trkpt lat="45.11422" lon="5.50742">
        <ele>1184.1</ele>
        <time>2022-08-12T14:51:37.000Z</time>
      </trkpt>
      <trkpt lat="45.1142" lon="5.50742">
        <ele>1184.5</ele>
        <time>2022-08-12T14:51:38.000Z</time>
      </trkpt>
      <trkpt lat="45.11417" lon="5.50741">
        <ele>1184.9</ele>
        <time>2022-08-12T14:51:39.000Z</time>
      </trkpt>
      <trkpt lat="45.11416" lon="5.50741">
        <ele>1185.1</ele>
        <time>2022-08-12T14:51:40.000Z</time>
      </trkpt>
      <trkpt lat="45.11415" lon="5.5074">
        <ele>1185.2</ele>
        <time>2022-08-12T14:51:41.000Z</time>
      </trkpt>
      <trkpt lat="45.11415" lon="5.50738">
        <ele>1185.2</ele>
        <time>2022-08-12T14:51:42.000Z</time>
      </trkpt>
      <trkpt lat="45.11414" lon="5.50736">
        <ele>1185.4</ele>
        <time>2022-08-12T14:51:43.000Z</time>
      </trkpt>
      <trkpt lat="45.11413" lon="5.50736">
        <ele>1185.5</ele>
        <time>2022-08-12T14:51:44.000Z</time>
      </trkpt>
      <trkpt lat="45.11411" lon="5.50735">
        <ele>1185.7</ele>
        <time>2022-08-12T14:51:45.000Z</time>
      </trkpt>
      <trkpt lat="45.1141" lon="5.50733">
        <ele>1185.7</ele>
        <time>2022-08-12T14:51:46.000Z</time>
      </trkpt>
      <trkpt lat="45.1141" lon="5.50731">
        <ele>1185.7</ele>
        <time>2022-08-12T14:51:47.000Z</time>
      </trkpt>
      <trkpt lat="45.1141" lon="5.5073">
        <ele>1185.7</ele>
        <time>2022-08-12T14:51:48.000Z</time>
      </trkpt>
      <trkpt lat="45.11408" lon="5.50729">
        <ele>1185.8</ele>
        <time>2022-08-12T14:51:49.000Z</time>
      </trkpt>
      <trkpt lat="45.11407" lon="5.50729">
        <ele>1186</ele>
        <time>2022-08-12T14:51:50.000Z</time>
      </trkpt>
      <trkpt lat="45.11406" lon="5.50729">
        <ele>1186</ele>
        <time>2022-08-12T14:51:51.000Z</time>
      </trkpt>
      <trkpt lat="45.11404" lon="5.50729">
        <ele>1186.2</ele>
        <time>2022-08-12T14:51:53.000Z</time>
      </trkpt>
      <trkpt lat="45.11403" lon="5.50729">
        <ele>1186.4</ele>
        <time>2022-08-12T14:51:54.000Z</time>
      </trkpt>
      <trkpt lat="45.114" lon="5.5073">
        <ele>1186.7</ele>
        <time>2022-08-12T14:51:55.000Z</time>
      </trkpt>
      <trkpt lat="45.11398" lon="5.50731">
        <ele>1187</ele>
        <time>2022-08-12T14:51:56.000Z</time>
      </trkpt>
      <trkpt lat="45.11396" lon="5.50731">
        <ele>1187.1</ele>
        <time>2022-08-12T14:51:57.000Z</time>
      </trkpt>
      <trkpt lat="45.11394" lon="5.50732">
        <ele>1187.5</ele>
        <time>2022-08-12T14:51:58.000Z</time>
      </trkpt>
      <trkpt lat="45.11391" lon="5.50733">
        <ele>1187.9</ele>
        <time>2022-08-12T14:51:59.000Z</time>
      </trkpt>
      <trkpt lat="45.11389" lon="5.50733">
        <ele>1188.1</ele>
        <time>2022-08-12T14:52:00.000Z</time>
      </trkpt>
      <trkpt lat="45.11388" lon="5.50732">
        <ele>1188.2</ele>
        <time>2022-08-12T14:52:01.000Z</time>
      </trkpt>
      <trkpt lat="45.11385" lon="5.50732">
        <ele>1188.5</ele>
        <time>2022-08-12T14:52:02.000Z</time>
      </trkpt>
      <trkpt lat="45.11383" lon="5.50732">
        <ele>1188.8</ele>
        <time>2022-08-12T14:52:03.000Z</time>
      </trkpt>
      <trkpt lat="45.1138" lon="5.50733">
        <ele>1189.3</ele>
        <time>2022-08-12T14:52:04.000Z</time>
      </trkpt>
      <trkpt lat="45.11378" lon="5.50734">
        <ele>1189.8</ele>
        <time>2022-08-12T14:52:05.000Z</time>
      </trkpt>
      <trkpt lat="45.11375" lon="5.50734">
        <ele>1190.2</ele>
        <time>2022-08-12T14:52:06.000Z</time>
      </trkpt>
      <trkpt lat="45.11372" lon="5.50733">
        <ele>1190.5</ele>
        <time>2022-08-12T14:52:07.000Z</time>
      </trkpt>
      <trkpt lat="45.1137" lon="5.50732">
        <ele>1190.5</ele>
        <time>2022-08-12T14:52:08.000Z</time>
      </trkpt>
      <trkpt lat="45.1137" lon="5.50729">
        <ele>1190</ele>
        <time>2022-08-12T14:52:09.000Z</time>
      </trkpt>
      <trkpt lat="45.11369" lon="5.50727">
        <ele>1189.9</ele>
        <time>2022-08-12T14:52:10.000Z</time>
      </trkpt>
      <trkpt lat="45.11367" lon="5.50725">
        <ele>1189.9</ele>
        <time>2022-08-12T14:52:11.000Z</time>
      </trkpt>
      <trkpt lat="45.11366" lon="5.50725">
        <ele>1189.9</ele>
        <time>2022-08-12T14:52:12.000Z</time>
      </trkpt>
      <trkpt lat="45.11365" lon="5.50724">
        <ele>1189.9</ele>
        <time>2022-08-12T14:52:13.000Z</time>
      </trkpt>
      <trkpt lat="45.11363" lon="5.50723">
        <ele>1190</ele>
        <time>2022-08-12T14:52:14.000Z</time>
      </trkpt>
      <trkpt lat="45.11363" lon="5.50721">
        <ele>1189.6</ele>
        <time>2022-08-12T14:52:15.000Z</time>
      </trkpt>
      <trkpt lat="45.11364" lon="5.50716">
        <ele>1189.1</ele>
        <time>2022-08-12T14:52:16.000Z</time>
      </trkpt>
      <trkpt lat="45.11365" lon="5.50713">
        <ele>1188.8</ele>
        <time>2022-08-12T14:52:17.000Z</time>
      </trkpt>
      <trkpt lat="45.11363" lon="5.50712">
        <ele>1188.7</ele>
        <time>2022-08-12T14:52:18.000Z</time>
      </trkpt>
      <trkpt lat="45.11362" lon="5.50711">
        <ele>1188.7</ele>
        <time>2022-08-12T14:52:19.000Z</time>
      </trkpt>
      <trkpt lat="45.11361" lon="5.5071">
        <ele>1188.7</ele>
        <time>2022-08-12T14:52:20.000Z</time>
      </trkpt>
      <trkpt lat="45.1136" lon="5.50709">
        <ele>1188.8</ele>
        <time>2022-08-12T14:52:21.000Z</time>
      </trkpt>
      <trkpt lat="45.11359" lon="5.50708">
        <ele>1188.7</ele>
        <time>2022-08-12T14:52:22.000Z</time>
      </trkpt>
      <trkpt lat="45.11359" lon="5.50706">
        <ele>1188.5</ele>
        <time>2022-08-12T14:52:26.000Z</time>
      </trkpt>
      <trkpt lat="45.11358" lon="5.50705">
        <ele>1188.5</ele>
        <time>2022-08-12T14:52:28.000Z</time>
      </trkpt>
      <trkpt lat="45.11358" lon="5.50703">
        <ele>1188.4</ele>
        <time>2022-08-12T14:52:29.000Z</time>
      </trkpt>
      <trkpt lat="45.11356" lon="5.50702">
        <ele>1188.5</ele>
        <time>2022-08-12T14:52:30.000Z</time>
      </trkpt>
      <trkpt lat="45.11354" lon="5.50702">
        <ele>1188.6</ele>
        <time>2022-08-12T14:52:31.000Z</time>
      </trkpt>
      <trkpt lat="45.11353" lon="5.50701">
        <ele>1188.6</ele>
        <time>2022-08-12T14:52:32.000Z</time>
      </trkpt>
      <trkpt lat="45.11353" lon="5.50699">
        <ele>1188.5</ele>
        <time>2022-08-12T14:52:33.000Z</time>
      </trkpt>
      <trkpt lat="45.11352" lon="5.50698">
        <ele>1188.5</ele>
        <time>2022-08-12T14:52:34.000Z</time>
      </trkpt>
      <trkpt lat="45.11351" lon="5.50697">
        <ele>1188.5</ele>
        <time>2022-08-12T14:52:35.000Z</time>
      </trkpt>
      <trkpt lat="45.11349" lon="5.50697">
        <ele>1188.7</ele>
        <time>2022-08-12T14:52:36.000Z</time>
      </trkpt>
      <trkpt lat="45.11347" lon="5.50696">
        <ele>1188.8</ele>
        <time>2022-08-12T14:52:37.000Z</time>
      </trkpt>
      <trkpt lat="45.11345" lon="5.50696">
        <ele>1189</ele>
        <time>2022-08-12T14:52:38.000Z</time>
      </trkpt>
      <trkpt lat="45.11344" lon="5.50696">
        <ele>1189</ele>
        <time>2022-08-12T14:52:39.000Z</time>
      </trkpt>
      <trkpt lat="45.11342" lon="5.50693">
        <ele>1189</ele>
        <time>2022-08-12T14:52:40.000Z</time>
      </trkpt>
      <trkpt lat="45.11342" lon="5.50692">
        <ele>1189</ele>
        <time>2022-08-12T14:52:41.000Z</time>
      </trkpt>
      <trkpt lat="45.11341" lon="5.50692">
        <ele>1189.1</ele>
        <time>2022-08-12T14:52:42.000Z</time>
      </trkpt>
      <trkpt lat="45.11341" lon="5.50691">
        <ele>1189.1</ele>
        <time>2022-08-12T14:52:45.000Z</time>
      </trkpt>
      <trkpt lat="45.11339" lon="5.5069">
        <ele>1189.2</ele>
        <time>2022-08-12T14:52:46.000Z</time>
      </trkpt>
      <trkpt lat="45.11338" lon="5.50689">
        <ele>1189.2</ele>
        <time>2022-08-12T14:52:47.000Z</time>
      </trkpt>
      <trkpt lat="45.11336" lon="5.50689">
        <ele>1189.4</ele>
        <time>2022-08-12T14:52:48.000Z</time>
      </trkpt>
      <trkpt lat="45.11334" lon="5.50689">
        <ele>1189.6</ele>
        <time>2022-08-12T14:52:49.000Z</time>
      </trkpt>
      <trkpt lat="45.11332" lon="5.50688">
        <ele>1189.8</ele>
        <time>2022-08-12T14:52:50.000Z</time>
      </trkpt>
      <trkpt lat="45.1133" lon="5.50687">
        <ele>1189.9</ele>
        <time>2022-08-12T14:52:51.000Z</time>
      </trkpt>
      <trkpt lat="45.11328" lon="5.50686">
        <ele>1190.1</ele>
        <time>2022-08-12T14:52:53.000Z</time>
      </trkpt>
      <trkpt lat="45.11328" lon="5.50685">
        <ele>1190.1</ele>
        <time>2022-08-12T14:52:54.000Z</time>
      </trkpt>
      <trkpt lat="45.11327" lon="5.50684">
        <ele>1190.1</ele>
        <time>2022-08-12T14:52:55.000Z</time>
      </trkpt>
      <trkpt lat="45.11327" lon="5.50683">
        <ele>1190</ele>
        <time>2022-08-12T14:52:56.000Z</time>
      </trkpt>
      <trkpt lat="45.11327" lon="5.50682">
        <ele>1189.9</ele>
        <time>2022-08-12T14:52:57.000Z</time>
      </trkpt>
      <trkpt lat="45.11326" lon="5.50681">
        <ele>1190</ele>
        <time>2022-08-12T14:52:58.000Z</time>
      </trkpt>
      <trkpt lat="45.11324" lon="5.50679">
        <ele>1190.1</ele>
        <time>2022-08-12T14:52:59.000Z</time>
      </trkpt>
      <trkpt lat="45.11324" lon="5.50677">
        <ele>1189.7</ele>
        <time>2022-08-12T14:53:01.000Z</time>
      </trkpt>
      <trkpt lat="45.11323" lon="5.50674">
        <ele>1189.5</ele>
        <time>2022-08-12T14:53:02.000Z</time>
      </trkpt>
      <trkpt lat="45.11323" lon="5.50673">
        <ele>1189.5</ele>
        <time>2022-08-12T14:53:03.000Z</time>
      </trkpt>
      <trkpt lat="45.11322" lon="5.50673">
        <ele>1189.5</ele>
        <time>2022-08-12T14:53:04.000Z</time>
      </trkpt>
      <trkpt lat="45.11321" lon="5.50672">
        <ele>1189.5</ele>
        <time>2022-08-12T14:53:05.000Z</time>
      </trkpt>
      <trkpt lat="45.1132" lon="5.5067">
        <ele>1189.4</ele>
        <time>2022-08-12T14:53:06.000Z</time>
      </trkpt>
      <trkpt lat="45.11319" lon="5.50669">
        <ele>1189.4</ele>
        <time>2022-08-12T14:53:07.000Z</time>
      </trkpt>
      <trkpt lat="45.11317" lon="5.50669">
        <ele>1189.5</ele>
        <time>2022-08-12T14:53:08.000Z</time>
      </trkpt>
      <trkpt lat="45.11316" lon="5.50668">
        <ele>1189.5</ele>
        <time>2022-08-12T14:53:09.000Z</time>
      </trkpt>
      <trkpt lat="45.11314" lon="5.50667">
        <ele>1189.4</ele>
        <time>2022-08-12T14:53:10.000Z</time>
      </trkpt>
      <trkpt lat="45.11313" lon="5.50664">
        <ele>1189.7</ele>
        <time>2022-08-12T14:53:11.000Z</time>
      </trkpt>
      <trkpt lat="45.11312" lon="5.50664">
        <ele>1189.7</ele>
        <time>2022-08-12T14:53:12.000Z</time>
      </trkpt>
      <trkpt lat="45.11313" lon="5.5066">
        <ele>1190</ele>
        <time>2022-08-12T14:53:13.000Z</time>
      </trkpt>
      <trkpt lat="45.11313" lon="5.50659">
        <ele>1190.1</ele>
        <time>2022-08-12T14:53:14.000Z</time>
      </trkpt>
      <trkpt lat="45.11312" lon="5.50658">
        <ele>1190.2</ele>
        <time>2022-08-12T14:53:15.000Z</time>
      </trkpt>
      <trkpt lat="45.11311" lon="5.50656">
        <ele>1190.4</ele>
        <time>2022-08-12T14:53:16.000Z</time>
      </trkpt>
      <trkpt lat="45.1131" lon="5.50654">
        <ele>1190.5</ele>
        <time>2022-08-12T14:53:17.000Z</time>
      </trkpt>
      <trkpt lat="45.11309" lon="5.50652">
        <ele>1190.6</ele>
        <time>2022-08-12T14:53:18.000Z</time>
      </trkpt>
      <trkpt lat="45.11308" lon="5.50651">
        <ele>1190.7</ele>
        <time>2022-08-12T14:53:19.000Z</time>
      </trkpt>
      <trkpt lat="45.11307" lon="5.5065">
        <ele>1190.6</ele>
        <time>2022-08-12T14:53:20.000Z</time>
      </trkpt>
      <trkpt lat="45.11306" lon="5.5065">
        <ele>1190.6</ele>
        <time>2022-08-12T14:53:21.000Z</time>
      </trkpt>
      <trkpt lat="45.11306" lon="5.50649">
        <ele>1190.6</ele>
        <time>2022-08-12T14:53:22.000Z</time>
      </trkpt>
      <trkpt lat="45.11305" lon="5.50647">
        <ele>1190.8</ele>
        <time>2022-08-12T14:53:23.000Z</time>
      </trkpt>
      <trkpt lat="45.11304" lon="5.50645">
        <ele>1190.9</ele>
        <time>2022-08-12T14:53:24.000Z</time>
      </trkpt>
      <trkpt lat="45.11303" lon="5.50644">
        <ele>1191</ele>
        <time>2022-08-12T14:53:25.000Z</time>
      </trkpt>
      <trkpt lat="45.11303" lon="5.50643">
        <ele>1191</ele>
        <time>2022-08-12T14:53:26.000Z</time>
      </trkpt>
      <trkpt lat="45.11302" lon="5.50642">
        <ele>1191.1</ele>
        <time>2022-08-12T14:53:27.000Z</time>
      </trkpt>
      <trkpt lat="45.11301" lon="5.50641">
        <ele>1191.2</ele>
        <time>2022-08-12T14:53:28.000Z</time>
      </trkpt>
      <trkpt lat="45.113" lon="5.50639">
        <ele>1191.2</ele>
        <time>2022-08-12T14:53:29.000Z</time>
      </trkpt>
      <trkpt lat="45.11299" lon="5.50638">
        <ele>1191.4</ele>
        <time>2022-08-12T14:53:30.000Z</time>
      </trkpt>
      <trkpt lat="45.11299" lon="5.50637">
        <ele>1191.7</ele>
        <time>2022-08-12T14:53:31.000Z</time>
      </trkpt>
      <trkpt lat="45.11298" lon="5.50636">
        <ele>1191.8</ele>
        <time>2022-08-12T14:53:32.000Z</time>
      </trkpt>
      <trkpt lat="45.11296" lon="5.50635">
        <ele>1192.1</ele>
        <time>2022-08-12T14:53:33.000Z</time>
      </trkpt>
      <trkpt lat="45.11296" lon="5.50633">
        <ele>1192.4</ele>
        <time>2022-08-12T14:53:34.000Z</time>
      </trkpt>
      <trkpt lat="45.11294" lon="5.50632">
        <ele>1192.6</ele>
        <time>2022-08-12T14:53:35.000Z</time>
      </trkpt>
      <trkpt lat="45.11292" lon="5.5063">
        <ele>1192.7</ele>
        <time>2022-08-12T14:53:37.000Z</time>
      </trkpt>
      <trkpt lat="45.11292" lon="5.50628">
        <ele>1193</ele>
        <time>2022-08-12T14:53:38.000Z</time>
      </trkpt>
      <trkpt lat="45.1129" lon="5.50628">
        <ele>1193</ele>
        <time>2022-08-12T14:53:39.000Z</time>
      </trkpt>
      <trkpt lat="45.11289" lon="5.50627">
        <ele>1193.1</ele>
        <time>2022-08-12T14:53:40.000Z</time>
      </trkpt>
      <trkpt lat="45.11288" lon="5.50626">
        <ele>1193.1</ele>
        <time>2022-08-12T14:53:41.000Z</time>
      </trkpt>
      <trkpt lat="45.11288" lon="5.50625">
        <ele>1193.3</ele>
        <time>2022-08-12T14:53:43.000Z</time>
      </trkpt>
      <trkpt lat="45.11288" lon="5.50624">
        <ele>1193.4</ele>
        <time>2022-08-12T14:53:44.000Z</time>
      </trkpt>
      <trkpt lat="45.11288" lon="5.50622">
        <ele>1193.6</ele>
        <time>2022-08-12T14:53:46.000Z</time>
      </trkpt>
      <trkpt lat="45.11287" lon="5.50622">
        <ele>1193.6</ele>
        <time>2022-08-12T14:53:47.000Z</time>
      </trkpt>
      <trkpt lat="45.11287" lon="5.50621">
        <ele>1193.6</ele>
        <time>2022-08-12T14:53:48.000Z</time>
      </trkpt>
      <trkpt lat="45.11287" lon="5.5062">
        <ele>1193.6</ele>
        <time>2022-08-12T14:53:49.000Z</time>
      </trkpt>
      <trkpt lat="45.11285" lon="5.50619">
        <ele>1193.6</ele>
        <time>2022-08-12T14:53:50.000Z</time>
      </trkpt>
      <trkpt lat="45.11284" lon="5.50618">
        <ele>1193.5</ele>
        <time>2022-08-12T14:53:51.000Z</time>
      </trkpt>
      <trkpt lat="45.11283" lon="5.50618">
        <ele>1193.4</ele>
        <time>2022-08-12T14:53:52.000Z</time>
      </trkpt>
      <trkpt lat="45.11281" lon="5.50617">
        <ele>1193.2</ele>
        <time>2022-08-12T14:53:53.000Z</time>
      </trkpt>
      <trkpt lat="45.11279" lon="5.50616">
        <ele>1193</ele>
        <time>2022-08-12T14:53:54.000Z</time>
      </trkpt>
      <trkpt lat="45.11279" lon="5.50615">
        <ele>1193</ele>
        <time>2022-08-12T14:53:55.000Z</time>
      </trkpt>
      <trkpt lat="45.11278" lon="5.50615">
        <ele>1192.9</ele>
        <time>2022-08-12T14:53:56.000Z</time>
      </trkpt>
      <trkpt lat="45.11278" lon="5.50613">
        <ele>1192.9</ele>
        <time>2022-08-12T14:53:57.000Z</time>
      </trkpt>
      <trkpt lat="45.11277" lon="5.50612">
        <ele>1193</ele>
        <time>2022-08-12T14:53:58.000Z</time>
      </trkpt>
      <trkpt lat="45.11276" lon="5.5061">
        <ele>1193.3</ele>
        <time>2022-08-12T14:53:59.000Z</time>
      </trkpt>
      <trkpt lat="45.11276" lon="5.50609">
        <ele>1193.5</ele>
        <time>2022-08-12T14:54:00.000Z</time>
      </trkpt>
      <trkpt lat="45.11276" lon="5.50608">
        <ele>1193.6</ele>
        <time>2022-08-12T14:54:01.000Z</time>
      </trkpt>
      <trkpt lat="45.11276" lon="5.50607">
        <ele>1193.9</ele>
        <time>2022-08-12T14:54:02.000Z</time>
      </trkpt>
      <trkpt lat="45.11275" lon="5.50606">
        <ele>1194.2</ele>
        <time>2022-08-12T14:54:03.000Z</time>
      </trkpt>
      <trkpt lat="45.11273" lon="5.50605">
        <ele>1194.4</ele>
        <time>2022-08-12T14:54:04.000Z</time>
      </trkpt>
      <trkpt lat="45.11271" lon="5.50604">
        <ele>1194.5</ele>
        <time>2022-08-12T14:54:05.000Z</time>
      </trkpt>
      <trkpt lat="45.1127" lon="5.50604">
        <ele>1194.6</ele>
        <time>2022-08-12T14:54:06.000Z</time>
      </trkpt>
      <trkpt lat="45.11269" lon="5.50603">
        <ele>1194.7</ele>
        <time>2022-08-12T14:54:07.000Z</time>
      </trkpt>
      <trkpt lat="45.11267" lon="5.50603">
        <ele>1194.7</ele>
        <time>2022-08-12T14:54:08.000Z</time>
      </trkpt>
      <trkpt lat="45.11265" lon="5.50602">
        <ele>1194.7</ele>
        <time>2022-08-12T14:54:09.000Z</time>
      </trkpt>
      <trkpt lat="45.11263" lon="5.506">
        <ele>1194.9</ele>
        <time>2022-08-12T14:54:10.000Z</time>
      </trkpt>
      <trkpt lat="45.11264" lon="5.50597">
        <ele>1195.5</ele>
        <time>2022-08-12T14:54:11.000Z</time>
      </trkpt>
      <trkpt lat="45.11264" lon="5.50594">
        <ele>1196</ele>
        <time>2022-08-12T14:54:12.000Z</time>
      </trkpt>
      <trkpt lat="45.11262" lon="5.50592">
        <ele>1196.3</ele>
        <time>2022-08-12T14:54:13.000Z</time>
      </trkpt>
      <trkpt lat="45.11261" lon="5.5059">
        <ele>1196.5</ele>
        <time>2022-08-12T14:54:14.000Z</time>
      </trkpt>
      <trkpt lat="45.1126" lon="5.50589">
        <ele>1196.6</ele>
        <time>2022-08-12T14:54:15.000Z</time>
      </trkpt>
      <trkpt lat="45.11259" lon="5.50588">
        <ele>1196.5</ele>
        <time>2022-08-12T14:54:16.000Z</time>
      </trkpt>
      <trkpt lat="45.11257" lon="5.50588">
        <ele>1196.3</ele>
        <time>2022-08-12T14:54:17.000Z</time>
      </trkpt>
      <trkpt lat="45.11256" lon="5.50588">
        <ele>1196.2</ele>
        <time>2022-08-12T14:54:18.000Z</time>
      </trkpt>
      <trkpt lat="45.11255" lon="5.50586">
        <ele>1196.3</ele>
        <time>2022-08-12T14:54:19.000Z</time>
      </trkpt>
      <trkpt lat="45.11253" lon="5.50584">
        <ele>1196.4</ele>
        <time>2022-08-12T14:54:20.000Z</time>
      </trkpt>
      <trkpt lat="45.11251" lon="5.50583">
        <ele>1196.3</ele>
        <time>2022-08-12T14:54:21.000Z</time>
      </trkpt>
      <trkpt lat="45.11251" lon="5.50582">
        <ele>1196.7</ele>
        <time>2022-08-12T14:54:22.000Z</time>
      </trkpt>
      <trkpt lat="45.1125" lon="5.50581">
        <ele>1196.9</ele>
        <time>2022-08-12T14:54:23.000Z</time>
      </trkpt>
      <trkpt lat="45.11248" lon="5.5058">
        <ele>1197.3</ele>
        <time>2022-08-12T14:54:24.000Z</time>
      </trkpt>
      <trkpt lat="45.11246" lon="5.50579">
        <ele>1197.6</ele>
        <time>2022-08-12T14:54:25.000Z</time>
      </trkpt>
      <trkpt lat="45.11244" lon="5.50579">
        <ele>1197.7</ele>
        <time>2022-08-12T14:54:27.000Z</time>
      </trkpt>
      <trkpt lat="45.11243" lon="5.50578">
        <ele>1198</ele>
        <time>2022-08-12T14:54:28.000Z</time>
      </trkpt>
      <trkpt lat="45.11242" lon="5.50578">
        <ele>1198.1</ele>
        <time>2022-08-12T14:54:30.000Z</time>
      </trkpt>
      <trkpt lat="45.11242" lon="5.50577">
        <ele>1198.3</ele>
        <time>2022-08-12T14:54:31.000Z</time>
      </trkpt>
      <trkpt lat="45.11241" lon="5.50576">
        <ele>1198.5</ele>
        <time>2022-08-12T14:54:34.000Z</time>
      </trkpt>
      <trkpt lat="45.1124" lon="5.50577">
        <ele>1198.5</ele>
        <time>2022-08-12T14:54:35.000Z</time>
      </trkpt>
      <trkpt lat="45.11238" lon="5.50577">
        <ele>1198.5</ele>
        <time>2022-08-12T14:54:36.000Z</time>
      </trkpt>
      <trkpt lat="45.11236" lon="5.50577">
        <ele>1198.4</ele>
        <time>2022-08-12T14:54:37.000Z</time>
      </trkpt>
      <trkpt lat="45.11234" lon="5.50578">
        <ele>1198.3</ele>
        <time>2022-08-12T14:54:38.000Z</time>
      </trkpt>
      <trkpt lat="45.11233" lon="5.50578">
        <ele>1198.4</ele>
        <time>2022-08-12T14:54:40.000Z</time>
      </trkpt>
      <trkpt lat="45.11233" lon="5.50577">
        <ele>1198.5</ele>
        <time>2022-08-12T14:54:41.000Z</time>
      </trkpt>
      <trkpt lat="45.11232" lon="5.50577">
        <ele>1198.6</ele>
        <time>2022-08-12T14:54:42.000Z</time>
      </trkpt>
      <trkpt lat="45.11231" lon="5.50577">
        <ele>1198.6</ele>
        <time>2022-08-12T14:54:44.000Z</time>
      </trkpt>
      <trkpt lat="45.11229" lon="5.50577">
        <ele>1198.7</ele>
        <time>2022-08-12T14:54:45.000Z</time>
      </trkpt>
      <trkpt lat="45.11227" lon="5.50578">
        <ele>1198.6</ele>
        <time>2022-08-12T14:54:46.000Z</time>
      </trkpt>
      <trkpt lat="45.11226" lon="5.50577">
        <ele>1198.8</ele>
        <time>2022-08-12T14:54:47.000Z</time>
      </trkpt>
      <trkpt lat="45.11225" lon="5.50577">
        <ele>1198.9</ele>
        <time>2022-08-12T14:54:48.000Z</time>
      </trkpt>
      <trkpt lat="45.11223" lon="5.50577">
        <ele>1199</ele>
        <time>2022-08-12T14:54:49.000Z</time>
      </trkpt>
      <trkpt lat="45.11221" lon="5.50577">
        <ele>1199.2</ele>
        <time>2022-08-12T14:54:50.000Z</time>
      </trkpt>
      <trkpt lat="45.11218" lon="5.50577">
        <ele>1199.7</ele>
        <time>2022-08-12T14:54:51.000Z</time>
      </trkpt>
      <trkpt lat="45.11215" lon="5.50578">
        <ele>1200.2</ele>
        <time>2022-08-12T14:54:52.000Z</time>
      </trkpt>
      <trkpt lat="45.11212" lon="5.50579">
        <ele>1200.5</ele>
        <time>2022-08-12T14:54:53.000Z</time>
      </trkpt>
      <trkpt lat="45.1121" lon="5.50581">
        <ele>1200.8</ele>
        <time>2022-08-12T14:54:54.000Z</time>
      </trkpt>
      <trkpt lat="45.11209" lon="5.50582">
        <ele>1201</ele>
        <time>2022-08-12T14:54:55.000Z</time>
      </trkpt>
      <trkpt lat="45.11208" lon="5.50582">
        <ele>1201.3</ele>
        <time>2022-08-12T14:54:56.000Z</time>
      </trkpt>
      <trkpt lat="45.11207" lon="5.50581">
        <ele>1201.5</ele>
        <time>2022-08-12T14:54:57.000Z</time>
      </trkpt>
      <trkpt lat="45.11206" lon="5.50579">
        <ele>1201.7</ele>
        <time>2022-08-12T14:54:58.000Z</time>
      </trkpt>
      <trkpt lat="45.11209" lon="5.50578">
        <ele>1201.3</ele>
        <time>2022-08-12T14:55:04.000Z</time>
      </trkpt>
      <trkpt lat="45.11209" lon="5.50577">
        <ele>1201.4</ele>
        <time>2022-08-12T14:55:05.000Z</time>
      </trkpt>
      <trkpt lat="45.11208" lon="5.50577">
        <ele>1201.5</ele>
        <time>2022-08-12T14:55:06.000Z</time>
      </trkpt>
      <trkpt lat="45.11207" lon="5.50577">
        <ele>1201.6</ele>
        <time>2022-08-12T14:55:07.000Z</time>
      </trkpt>
      <trkpt lat="45.11206" lon="5.50577">
        <ele>1202</ele>
        <time>2022-08-12T14:55:09.000Z</time>
      </trkpt>
      <trkpt lat="45.11205" lon="5.50577">
        <ele>1202</ele>
        <time>2022-08-12T14:55:10.000Z</time>
      </trkpt>
      <trkpt lat="45.11205" lon="5.50576">
        <ele>1202.2</ele>
        <time>2022-08-12T14:55:12.000Z</time>
      </trkpt>
      <trkpt lat="45.11204" lon="5.50576">
        <ele>1202.3</ele>
        <time>2022-08-12T14:55:14.000Z</time>
      </trkpt>
      <trkpt lat="45.11203" lon="5.50576">
        <ele>1202.4</ele>
        <time>2022-08-12T14:55:15.000Z</time>
      </trkpt>
      <trkpt lat="45.11204" lon="5.50576">
        <ele>1202.4</ele>
        <time>2022-08-12T14:55:22.000Z</time>
      </trkpt>
      <trkpt lat="45.11203" lon="5.50575">
        <ele>1202.4</ele>
        <time>2022-08-12T14:55:23.000Z</time>
      </trkpt>
      <trkpt lat="45.11202" lon="5.50575">
        <ele>1202.7</ele>
        <time>2022-08-12T14:55:24.000Z</time>
      </trkpt>
      <trkpt lat="45.112" lon="5.50575">
        <ele>1203</ele>
        <time>2022-08-12T14:55:25.000Z</time>
      </trkpt>
      <trkpt lat="45.11199" lon="5.50575">
        <ele>1203.3</ele>
        <time>2022-08-12T14:55:28.000Z</time>
      </trkpt>
      <trkpt lat="45.11197" lon="5.50576">
        <ele>1203.5</ele>
        <time>2022-08-12T14:55:29.000Z</time>
      </trkpt>
      <trkpt lat="45.11196" lon="5.50577">
        <ele>1203.7</ele>
        <time>2022-08-12T14:55:31.000Z</time>
      </trkpt>
      <trkpt lat="45.11194" lon="5.50577">
        <ele>1204.2</ele>
        <time>2022-08-12T14:55:32.000Z</time>
      </trkpt>
      <trkpt lat="45.11193" lon="5.50577">
        <ele>1204.4</ele>
        <time>2022-08-12T14:55:33.000Z</time>
      </trkpt>
      <trkpt lat="45.11192" lon="5.50578">
        <ele>1204.6</ele>
        <time>2022-08-12T14:55:37.000Z</time>
      </trkpt>
      <trkpt lat="45.11192" lon="5.50577">
        <ele>1204.8</ele>
        <time>2022-08-12T14:55:38.000Z</time>
      </trkpt>
      <trkpt lat="45.11191" lon="5.50576">
        <ele>1205.1</ele>
        <time>2022-08-12T14:55:39.000Z</time>
      </trkpt>
      <trkpt lat="45.11189" lon="5.50575">
        <ele>1205.5</ele>
        <time>2022-08-12T14:55:40.000Z</time>
      </trkpt>
      <trkpt lat="45.11187" lon="5.50573">
        <ele>1206.2</ele>
        <time>2022-08-12T14:55:41.000Z</time>
      </trkpt>
      <trkpt lat="45.11186" lon="5.50571">
        <ele>1206.4</ele>
        <time>2022-08-12T14:55:42.000Z</time>
      </trkpt>
      <trkpt lat="45.11185" lon="5.50569">
        <ele>1206.6</ele>
        <time>2022-08-12T14:55:43.000Z</time>
      </trkpt>
      <trkpt lat="45.1118" lon="5.5057">
        <ele>1208.1</ele>
        <time>2022-08-12T14:55:44.000Z</time>
      </trkpt>
      <trkpt lat="45.11177" lon="5.50571">
        <ele>1209</ele>
        <time>2022-08-12T14:55:45.000Z</time>
      </trkpt>
      <trkpt lat="45.11175" lon="5.50572">
        <ele>1209.7</ele>
        <time>2022-08-12T14:55:46.000Z</time>
      </trkpt>
      <trkpt lat="45.11175" lon="5.5057">
        <ele>1209.7</ele>
        <time>2022-08-12T14:55:47.000Z</time>
      </trkpt>
      <trkpt lat="45.11177" lon="5.50562">
        <ele>1208.7</ele>
        <time>2022-08-12T14:55:48.000Z</time>
      </trkpt>
      <trkpt lat="45.1118" lon="5.50554">
        <ele>1208</ele>
        <time>2022-08-12T14:55:49.000Z</time>
      </trkpt>
      <trkpt lat="45.1118" lon="5.50552">
        <ele>1208.6</ele>
        <time>2022-08-12T14:55:50.000Z</time>
      </trkpt>
      <trkpt lat="45.11178" lon="5.50551">
        <ele>1209.2</ele>
        <time>2022-08-12T14:55:51.000Z</time>
      </trkpt>
      <trkpt lat="45.11177" lon="5.5055">
        <ele>1209.7</ele>
        <time>2022-08-12T14:55:52.000Z</time>
      </trkpt>
      <trkpt lat="45.11176" lon="5.50549">
        <ele>1210.2</ele>
        <time>2022-08-12T14:55:53.000Z</time>
      </trkpt>
      <trkpt lat="45.11174" lon="5.50548">
        <ele>1210.8</ele>
        <time>2022-08-12T14:55:54.000Z</time>
      </trkpt>
      <trkpt lat="45.11173" lon="5.50547">
        <ele>1211.3</ele>
        <time>2022-08-12T14:55:55.000Z</time>
      </trkpt>
      <trkpt lat="45.11172" lon="5.50546">
        <ele>1211.5</ele>
        <time>2022-08-12T14:55:56.000Z</time>
      </trkpt>
      <trkpt lat="45.11171" lon="5.50546">
        <ele>1211.8</ele>
        <time>2022-08-12T14:55:58.000Z</time>
      </trkpt>
      <trkpt lat="45.11171" lon="5.50545">
        <ele>1212</ele>
        <time>2022-08-12T14:55:59.000Z</time>
      </trkpt>
      <trkpt lat="45.1117" lon="5.50545">
        <ele>1212.2</ele>
        <time>2022-08-12T14:56:00.000Z</time>
      </trkpt>
      <trkpt lat="45.11169" lon="5.50544">
        <ele>1212.7</ele>
        <time>2022-08-12T14:56:02.000Z</time>
      </trkpt>
      <trkpt lat="45.11168" lon="5.50543">
        <ele>1213.1</ele>
        <time>2022-08-12T14:56:03.000Z</time>
      </trkpt>
      <trkpt lat="45.11168" lon="5.50542">
        <ele>1213.3</ele>
        <time>2022-08-12T14:56:04.000Z</time>
      </trkpt>
      <trkpt lat="45.11167" lon="5.50542">
        <ele>1213.4</ele>
        <time>2022-08-12T14:56:05.000Z</time>
      </trkpt>
      <trkpt lat="45.11166" lon="5.50541">
        <ele>1213.8</ele>
        <time>2022-08-12T14:56:06.000Z</time>
      </trkpt>
      <trkpt lat="45.11166" lon="5.5054">
        <ele>1213.9</ele>
        <time>2022-08-12T14:56:07.000Z</time>
      </trkpt>
      <trkpt lat="45.11165" lon="5.50537">
        <ele>1214.8</ele>
        <time>2022-08-12T14:56:09.000Z</time>
      </trkpt>
      <trkpt lat="45.11164" lon="5.50535">
        <ele>1215.4</ele>
        <time>2022-08-12T14:56:10.000Z</time>
      </trkpt>
      <trkpt lat="45.11162" lon="5.50533">
        <ele>1215.9</ele>
        <time>2022-08-12T14:56:11.000Z</time>
      </trkpt>
      <trkpt lat="45.11161" lon="5.50533">
        <ele>1216.3</ele>
        <time>2022-08-12T14:56:12.000Z</time>
      </trkpt>
      <trkpt lat="45.1116" lon="5.50532">
        <ele>1216.5</ele>
        <time>2022-08-12T14:56:13.000Z</time>
      </trkpt>
      <trkpt lat="45.11158" lon="5.50531">
        <ele>1217</ele>
        <time>2022-08-12T14:56:14.000Z</time>
      </trkpt>
      <trkpt lat="45.11157" lon="5.5053">
        <ele>1217.4</ele>
        <time>2022-08-12T14:56:15.000Z</time>
      </trkpt>
      <trkpt lat="45.11157" lon="5.50527">
        <ele>1218</ele>
        <time>2022-08-12T14:56:16.000Z</time>
      </trkpt>
      <trkpt lat="45.11156" lon="5.50527">
        <ele>1218.3</ele>
        <time>2022-08-12T14:56:17.000Z</time>
      </trkpt>
      <trkpt lat="45.11156" lon="5.50526">
        <ele>1218.4</ele>
        <time>2022-08-12T14:56:18.000Z</time>
      </trkpt>
      <trkpt lat="45.11155" lon="5.50525">
        <ele>1218.9</ele>
        <time>2022-08-12T14:56:19.000Z</time>
      </trkpt>
      <trkpt lat="45.11153" lon="5.50524">
        <ele>1219.4</ele>
        <time>2022-08-12T14:56:20.000Z</time>
      </trkpt>
      <trkpt lat="45.11153" lon="5.50523">
        <ele>1219.8</ele>
        <time>2022-08-12T14:56:21.000Z</time>
      </trkpt>
      <trkpt lat="45.11152" lon="5.50523">
        <ele>1220</ele>
        <time>2022-08-12T14:56:22.000Z</time>
      </trkpt>
      <trkpt lat="45.11151" lon="5.50522">
        <ele>1220.4</ele>
        <time>2022-08-12T14:56:23.000Z</time>
      </trkpt>
      <trkpt lat="45.11149" lon="5.50521">
        <ele>1220.9</ele>
        <time>2022-08-12T14:56:24.000Z</time>
      </trkpt>
      <trkpt lat="45.11147" lon="5.5052">
        <ele>1221.5</ele>
        <time>2022-08-12T14:56:25.000Z</time>
      </trkpt>
      <trkpt lat="45.11144" lon="5.50519">
        <ele>1222.3</ele>
        <time>2022-08-12T14:56:26.000Z</time>
      </trkpt>
      <trkpt lat="45.11142" lon="5.50518">
        <ele>1222.6</ele>
        <time>2022-08-12T14:56:27.000Z</time>
      </trkpt>
      <trkpt lat="45.11141" lon="5.50517">
        <ele>1223</ele>
        <time>2022-08-12T14:56:28.000Z</time>
      </trkpt>
      <trkpt lat="45.11138" lon="5.50517">
        <ele>1223.5</ele>
        <time>2022-08-12T14:56:29.000Z</time>
      </trkpt>
      <trkpt lat="45.11138" lon="5.50516">
        <ele>1223.6</ele>
        <time>2022-08-12T14:56:30.000Z</time>
      </trkpt>
      <trkpt lat="45.11137" lon="5.50515">
        <ele>1223.9</ele>
        <time>2022-08-12T14:56:32.000Z</time>
      </trkpt>
      <trkpt lat="45.11135" lon="5.50515">
        <ele>1224.1</ele>
        <time>2022-08-12T14:56:33.000Z</time>
      </trkpt>
      <trkpt lat="45.11133" lon="5.50515">
        <ele>1224.3</ele>
        <time>2022-08-12T14:56:34.000Z</time>
      </trkpt>
      <trkpt lat="45.11132" lon="5.50514">
        <ele>1224.4</ele>
        <time>2022-08-12T14:56:35.000Z</time>
      </trkpt>
      <trkpt lat="45.1113" lon="5.50513">
        <ele>1224.9</ele>
        <time>2022-08-12T14:56:38.000Z</time>
      </trkpt>
      <trkpt lat="45.11129" lon="5.50511">
        <ele>1225.2</ele>
        <time>2022-08-12T14:56:39.000Z</time>
      </trkpt>
      <trkpt lat="45.11128" lon="5.5051">
        <ele>1225.4</ele>
        <time>2022-08-12T14:56:40.000Z</time>
      </trkpt>
      <trkpt lat="45.11126" lon="5.50509">
        <ele>1225.6</ele>
        <time>2022-08-12T14:56:41.000Z</time>
      </trkpt>
      <trkpt lat="45.11124" lon="5.50508">
        <ele>1225.8</ele>
        <time>2022-08-12T14:56:42.000Z</time>
      </trkpt>
      <trkpt lat="45.11122" lon="5.50508">
        <ele>1226</ele>
        <time>2022-08-12T14:56:43.000Z</time>
      </trkpt>
      <trkpt lat="45.1112" lon="5.50508">
        <ele>1226.1</ele>
        <time>2022-08-12T14:56:44.000Z</time>
      </trkpt>
      <trkpt lat="45.11117" lon="5.50507">
        <ele>1226.3</ele>
        <time>2022-08-12T14:56:45.000Z</time>
      </trkpt>
      <trkpt lat="45.11115" lon="5.50507">
        <ele>1226.4</ele>
        <time>2022-08-12T14:56:46.000Z</time>
      </trkpt>
      <trkpt lat="45.11113" lon="5.50505">
        <ele>1226.6</ele>
        <time>2022-08-12T14:56:47.000Z</time>
      </trkpt>
      <trkpt lat="45.11112" lon="5.50503">
        <ele>1226.8</ele>
        <time>2022-08-12T14:56:48.000Z</time>
      </trkpt>
      <trkpt lat="45.1111" lon="5.50503">
        <ele>1226.9</ele>
        <time>2022-08-12T14:56:49.000Z</time>
      </trkpt>
      <trkpt lat="45.1111" lon="5.50502">
        <ele>1226.9</ele>
        <time>2022-08-12T14:56:50.000Z</time>
      </trkpt>
      <trkpt lat="45.11109" lon="5.50503">
        <ele>1226.9</ele>
        <time>2022-08-12T14:56:51.000Z</time>
      </trkpt>
      <trkpt lat="45.11108" lon="5.50503">
        <ele>1227</ele>
        <time>2022-08-12T14:56:52.000Z</time>
      </trkpt>
      <trkpt lat="45.11107" lon="5.50503">
        <ele>1227</ele>
        <time>2022-08-12T14:56:54.000Z</time>
      </trkpt>
      <trkpt lat="45.11106" lon="5.50502">
        <ele>1227.1</ele>
        <time>2022-08-12T14:56:56.000Z</time>
      </trkpt>
      <trkpt lat="45.11105" lon="5.505">
        <ele>1227.2</ele>
        <time>2022-08-12T14:56:57.000Z</time>
      </trkpt>
      <trkpt lat="45.11106" lon="5.50496">
        <ele>1227.7</ele>
        <time>2022-08-12T14:56:59.000Z</time>
      </trkpt>
      <trkpt lat="45.11106" lon="5.50495">
        <ele>1227.8</ele>
        <time>2022-08-12T14:57:01.000Z</time>
      </trkpt>
      <trkpt lat="45.11105" lon="5.50494">
        <ele>1228</ele>
        <time>2022-08-12T14:57:02.000Z</time>
      </trkpt>
      <trkpt lat="45.11101" lon="5.50493">
        <ele>1228.1</ele>
        <time>2022-08-12T14:57:04.000Z</time>
      </trkpt>
      <trkpt lat="45.11101" lon="5.5049">
        <ele>1228.4</ele>
        <time>2022-08-12T14:57:05.000Z</time>
      </trkpt>
      <trkpt lat="45.11101" lon="5.50485">
        <ele>1228.9</ele>
        <time>2022-08-12T14:57:06.000Z</time>
      </trkpt>
      <trkpt lat="45.111" lon="5.50484">
        <ele>1229</ele>
        <time>2022-08-12T14:57:07.000Z</time>
      </trkpt>
      <trkpt lat="45.11099" lon="5.50483">
        <ele>1229.1</ele>
        <time>2022-08-12T14:57:08.000Z</time>
      </trkpt>
      <trkpt lat="45.111" lon="5.5048">
        <ele>1229.4</ele>
        <time>2022-08-12T14:57:09.000Z</time>
      </trkpt>
      <trkpt lat="45.11099" lon="5.50478">
        <ele>1229.6</ele>
        <time>2022-08-12T14:57:10.000Z</time>
      </trkpt>
      <trkpt lat="45.11098" lon="5.50478">
        <ele>1229.5</ele>
        <time>2022-08-12T14:57:11.000Z</time>
      </trkpt>
      <trkpt lat="45.11096" lon="5.50477">
        <ele>1229.5</ele>
        <time>2022-08-12T14:57:12.000Z</time>
      </trkpt>
      <trkpt lat="45.11093" lon="5.50475">
        <ele>1229.5</ele>
        <time>2022-08-12T14:57:14.000Z</time>
      </trkpt>
      <trkpt lat="45.11092" lon="5.50474">
        <ele>1229.5</ele>
        <time>2022-08-12T14:57:15.000Z</time>
      </trkpt>
      <trkpt lat="45.11087" lon="5.50473">
        <ele>1229.2</ele>
        <time>2022-08-12T14:57:18.000Z</time>
      </trkpt>
      <trkpt lat="45.11086" lon="5.50471">
        <ele>1229.2</ele>
        <time>2022-08-12T14:57:19.000Z</time>
      </trkpt>
      <trkpt lat="45.11084" lon="5.50471">
        <ele>1229.1</ele>
        <time>2022-08-12T14:57:20.000Z</time>
      </trkpt>
      <trkpt lat="45.1108" lon="5.5047">
        <ele>1229.3</ele>
        <time>2022-08-12T14:57:22.000Z</time>
      </trkpt>
      <trkpt lat="45.11079" lon="5.50469">
        <ele>1229.4</ele>
        <time>2022-08-12T14:57:23.000Z</time>
      </trkpt>
      <trkpt lat="45.11079" lon="5.50468">
        <ele>1229.4</ele>
        <time>2022-08-12T14:57:24.000Z</time>
      </trkpt>
      <trkpt lat="45.11078" lon="5.50468">
        <ele>1229.4</ele>
        <time>2022-08-12T14:57:25.000Z</time>
      </trkpt>
      <trkpt lat="45.11076" lon="5.50468">
        <ele>1229.5</ele>
        <time>2022-08-12T14:57:26.000Z</time>
      </trkpt>
      <trkpt lat="45.11075" lon="5.50467">
        <ele>1229.6</ele>
        <time>2022-08-12T14:57:27.000Z</time>
      </trkpt>
      <trkpt lat="45.11076" lon="5.50464">
        <ele>1229.7</ele>
        <time>2022-08-12T14:57:28.000Z</time>
      </trkpt>
      <trkpt lat="45.11077" lon="5.50461">
        <ele>1229.8</ele>
        <time>2022-08-12T14:57:29.000Z</time>
      </trkpt>
      <trkpt lat="45.11077" lon="5.50459">
        <ele>1230</ele>
        <time>2022-08-12T14:57:30.000Z</time>
      </trkpt>
      <trkpt lat="45.11078" lon="5.50456">
        <ele>1230.1</ele>
        <time>2022-08-12T14:57:31.000Z</time>
      </trkpt>
      <trkpt lat="45.11077" lon="5.50455">
        <ele>1230.2</ele>
        <time>2022-08-12T14:57:32.000Z</time>
      </trkpt>
      <trkpt lat="45.11077" lon="5.50454">
        <ele>1230.3</ele>
        <time>2022-08-12T14:57:33.000Z</time>
      </trkpt>
      <trkpt lat="45.11076" lon="5.50453">
        <ele>1230.3</ele>
        <time>2022-08-12T14:57:34.000Z</time>
      </trkpt>
      <trkpt lat="45.11076" lon="5.50452">
        <ele>1230.3</ele>
        <time>2022-08-12T14:57:36.000Z</time>
      </trkpt>
      <trkpt lat="45.11075" lon="5.50451">
        <ele>1230.4</ele>
        <time>2022-08-12T14:57:37.000Z</time>
      </trkpt>
      <trkpt lat="45.11075" lon="5.5045">
        <ele>1230.4</ele>
        <time>2022-08-12T14:57:38.000Z</time>
      </trkpt>
      <trkpt lat="45.11076" lon="5.50449">
        <ele>1230.5</ele>
        <time>2022-08-12T14:57:39.000Z</time>
      </trkpt>
      <trkpt lat="45.11076" lon="5.50447">
        <ele>1230.6</ele>
        <time>2022-08-12T14:57:40.000Z</time>
      </trkpt>
      <trkpt lat="45.11075" lon="5.50447">
        <ele>1230.6</ele>
        <time>2022-08-12T14:57:41.000Z</time>
      </trkpt>
      <trkpt lat="45.11075" lon="5.50446">
        <ele>1230.6</ele>
        <time>2022-08-12T14:57:43.000Z</time>
      </trkpt>
      <trkpt lat="45.11074" lon="5.50446">
        <ele>1230.6</ele>
        <time>2022-08-12T14:57:44.000Z</time>
      </trkpt>
      <trkpt lat="45.11073" lon="5.50445">
        <ele>1230.6</ele>
        <time>2022-08-12T14:57:45.000Z</time>
      </trkpt>
      <trkpt lat="45.11073" lon="5.50443">
        <ele>1230.7</ele>
        <time>2022-08-12T14:57:46.000Z</time>
      </trkpt>
      <trkpt lat="45.11072" lon="5.50442">
        <ele>1230.8</ele>
        <time>2022-08-12T14:57:47.000Z</time>
      </trkpt>
      <trkpt lat="45.11071" lon="5.50442">
        <ele>1230.8</ele>
        <time>2022-08-12T14:57:48.000Z</time>
      </trkpt>
      <trkpt lat="45.1107" lon="5.50441">
        <ele>1230.8</ele>
        <time>2022-08-12T14:57:49.000Z</time>
      </trkpt>
      <trkpt lat="45.11068" lon="5.5044">
        <ele>1230.8</ele>
        <time>2022-08-12T14:57:50.000Z</time>
      </trkpt>
      <trkpt lat="45.11067" lon="5.50439">
        <ele>1230.8</ele>
        <time>2022-08-12T14:57:51.000Z</time>
      </trkpt>
      <trkpt lat="45.11066" lon="5.50437">
        <ele>1230.8</ele>
        <time>2022-08-12T14:57:52.000Z</time>
      </trkpt>
      <trkpt lat="45.11065" lon="5.50436">
        <ele>1230.8</ele>
        <time>2022-08-12T14:57:53.000Z</time>
      </trkpt>
      <trkpt lat="45.11063" lon="5.50436">
        <ele>1230.7</ele>
        <time>2022-08-12T14:57:54.000Z</time>
      </trkpt>
      <trkpt lat="45.1106" lon="5.50436">
        <ele>1230.6</ele>
        <time>2022-08-12T14:57:55.000Z</time>
      </trkpt>
      <trkpt lat="45.11058" lon="5.50436">
        <ele>1230.5</ele>
        <time>2022-08-12T14:57:56.000Z</time>
      </trkpt>
      <trkpt lat="45.11059" lon="5.50435">
        <ele>1230.5</ele>
        <time>2022-08-12T14:57:59.000Z</time>
      </trkpt>
      <trkpt lat="45.11059" lon="5.50434">
        <ele>1230.6</ele>
        <time>2022-08-12T14:58:00.000Z</time>
      </trkpt>
      <trkpt lat="45.11058" lon="5.50433">
        <ele>1230.6</ele>
        <time>2022-08-12T14:58:01.000Z</time>
      </trkpt>
      <trkpt lat="45.11056" lon="5.50432">
        <ele>1230.5</ele>
        <time>2022-08-12T14:58:02.000Z</time>
      </trkpt>
      <trkpt lat="45.11054" lon="5.5043">
        <ele>1230.5</ele>
        <time>2022-08-12T14:58:03.000Z</time>
      </trkpt>
      <trkpt lat="45.11053" lon="5.50429">
        <ele>1230.6</ele>
        <time>2022-08-12T14:58:04.000Z</time>
      </trkpt>
      <trkpt lat="45.11051" lon="5.50429">
        <ele>1230.7</ele>
        <time>2022-08-12T14:58:05.000Z</time>
      </trkpt>
      <trkpt lat="45.1105" lon="5.50428">
        <ele>1230.7</ele>
        <time>2022-08-12T14:58:06.000Z</time>
      </trkpt>
      <trkpt lat="45.1105" lon="5.50427">
        <ele>1230.8</ele>
        <time>2022-08-12T14:58:07.000Z</time>
      </trkpt>
      <trkpt lat="45.11049" lon="5.50425">
        <ele>1230.8</ele>
        <time>2022-08-12T14:58:08.000Z</time>
      </trkpt>
      <trkpt lat="45.11047" lon="5.50425">
        <ele>1230.9</ele>
        <time>2022-08-12T14:58:09.000Z</time>
      </trkpt>
      <trkpt lat="45.11046" lon="5.50424">
        <ele>1230.9</ele>
        <time>2022-08-12T14:58:10.000Z</time>
      </trkpt>
      <trkpt lat="45.11045" lon="5.50423">
        <ele>1230.9</ele>
        <time>2022-08-12T14:58:11.000Z</time>
      </trkpt>
      <trkpt lat="45.11043" lon="5.50422">
        <ele>1231</ele>
        <time>2022-08-12T14:58:13.000Z</time>
      </trkpt>
      <trkpt lat="45.11041" lon="5.5042">
        <ele>1231</ele>
        <time>2022-08-12T14:58:14.000Z</time>
      </trkpt>
      <trkpt lat="45.1104" lon="5.50418">
        <ele>1231</ele>
        <time>2022-08-12T14:58:15.000Z</time>
      </trkpt>
      <trkpt lat="45.11039" lon="5.50415">
        <ele>1231.2</ele>
        <time>2022-08-12T14:58:16.000Z</time>
      </trkpt>
      <trkpt lat="45.11039" lon="5.50413">
        <ele>1231.5</ele>
        <time>2022-08-12T14:58:17.000Z</time>
      </trkpt>
      <trkpt lat="45.11036" lon="5.50413">
        <ele>1231.4</ele>
        <time>2022-08-12T14:58:18.000Z</time>
      </trkpt>
      <trkpt lat="45.11033" lon="5.50415">
        <ele>1231.2</ele>
        <time>2022-08-12T14:58:19.000Z</time>
      </trkpt>
      <trkpt lat="45.11032" lon="5.50415">
        <ele>1231.2</ele>
        <time>2022-08-12T14:58:21.000Z</time>
      </trkpt>
      <trkpt lat="45.11031" lon="5.50414">
        <ele>1231.3</ele>
        <time>2022-08-12T14:58:22.000Z</time>
      </trkpt>
      <trkpt lat="45.1103" lon="5.50413">
        <ele>1231.4</ele>
        <time>2022-08-12T14:58:23.000Z</time>
      </trkpt>
      <trkpt lat="45.11029" lon="5.50413">
        <ele>1231.4</ele>
        <time>2022-08-12T14:58:24.000Z</time>
      </trkpt>
      <trkpt lat="45.11028" lon="5.50412">
        <ele>1231.5</ele>
        <time>2022-08-12T14:58:25.000Z</time>
      </trkpt>
      <trkpt lat="45.11026" lon="5.50411">
        <ele>1231.7</ele>
        <time>2022-08-12T14:58:26.000Z</time>
      </trkpt>
      <trkpt lat="45.11024" lon="5.50411">
        <ele>1232</ele>
        <time>2022-08-12T14:58:27.000Z</time>
      </trkpt>
      <trkpt lat="45.11022" lon="5.5041">
        <ele>1232.3</ele>
        <time>2022-08-12T14:58:28.000Z</time>
      </trkpt>
      <trkpt lat="45.11021" lon="5.50406">
        <ele>1232.6</ele>
        <time>2022-08-12T14:58:29.000Z</time>
      </trkpt>
      <trkpt lat="45.11021" lon="5.50405">
        <ele>1232.7</ele>
        <time>2022-08-12T14:58:30.000Z</time>
      </trkpt>
      <trkpt lat="45.11021" lon="5.50404">
        <ele>1232.8</ele>
        <time>2022-08-12T14:58:32.000Z</time>
      </trkpt>
      <trkpt lat="45.11021" lon="5.50403">
        <ele>1232.9</ele>
        <time>2022-08-12T14:58:34.000Z</time>
      </trkpt>
      <trkpt lat="45.11021" lon="5.50399">
        <ele>1233.1</ele>
        <time>2022-08-12T14:58:35.000Z</time>
      </trkpt>
      <trkpt lat="45.11019" lon="5.50398">
        <ele>1233.2</ele>
        <time>2022-08-12T14:58:36.000Z</time>
      </trkpt>
      <trkpt lat="45.11017" lon="5.50398">
        <ele>1233.3</ele>
        <time>2022-08-12T14:58:37.000Z</time>
      </trkpt>
      <trkpt lat="45.11016" lon="5.50398">
        <ele>1233.3</ele>
        <time>2022-08-12T14:58:38.000Z</time>
      </trkpt>
      <trkpt lat="45.11014" lon="5.50397">
        <ele>1233.4</ele>
        <time>2022-08-12T14:58:39.000Z</time>
      </trkpt>
      <trkpt lat="45.11012" lon="5.50397">
        <ele>1233.4</ele>
        <time>2022-08-12T14:58:40.000Z</time>
      </trkpt>
      <trkpt lat="45.1101" lon="5.50397">
        <ele>1233.4</ele>
        <time>2022-08-12T14:58:41.000Z</time>
      </trkpt>
      <trkpt lat="45.1101" lon="5.50396">
        <ele>1233.4</ele>
        <time>2022-08-12T14:58:42.000Z</time>
      </trkpt>
      <trkpt lat="45.1101" lon="5.50394">
        <ele>1233.4</ele>
        <time>2022-08-12T14:58:43.000Z</time>
      </trkpt>
      <trkpt lat="45.1101" lon="5.50393">
        <ele>1233.4</ele>
        <time>2022-08-12T14:58:44.000Z</time>
      </trkpt>
      <trkpt lat="45.1101" lon="5.5039">
        <ele>1233.4</ele>
        <time>2022-08-12T14:58:46.000Z</time>
      </trkpt>
      <trkpt lat="45.11011" lon="5.50386">
        <ele>1233.8</ele>
        <time>2022-08-12T14:58:47.000Z</time>
      </trkpt>
      <trkpt lat="45.11011" lon="5.50385">
        <ele>1233.9</ele>
        <time>2022-08-12T14:58:48.000Z</time>
      </trkpt>
      <trkpt lat="45.1101" lon="5.50385">
        <ele>1234</ele>
        <time>2022-08-12T14:58:50.000Z</time>
      </trkpt>
      <trkpt lat="45.11009" lon="5.50383">
        <ele>1234.2</ele>
        <time>2022-08-12T14:58:51.000Z</time>
      </trkpt>
      <trkpt lat="45.11008" lon="5.50382">
        <ele>1234.3</ele>
        <time>2022-08-12T14:58:52.000Z</time>
      </trkpt>
      <trkpt lat="45.11007" lon="5.50379">
        <ele>1234.6</ele>
        <time>2022-08-12T14:58:53.000Z</time>
      </trkpt>
      <trkpt lat="45.11007" lon="5.50377">
        <ele>1234.8</ele>
        <time>2022-08-12T14:58:54.000Z</time>
      </trkpt>
      <trkpt lat="45.11006" lon="5.50375">
        <ele>1235</ele>
        <time>2022-08-12T14:58:55.000Z</time>
      </trkpt>
      <trkpt lat="45.11006" lon="5.50373">
        <ele>1235.3</ele>
        <time>2022-08-12T14:58:56.000Z</time>
      </trkpt>
      <trkpt lat="45.11006" lon="5.50371">
        <ele>1235.5</ele>
        <time>2022-08-12T14:58:57.000Z</time>
      </trkpt>
      <trkpt lat="45.11006" lon="5.5037">
        <ele>1235.7</ele>
        <time>2022-08-12T14:58:58.000Z</time>
      </trkpt>
      <trkpt lat="45.11005" lon="5.50368">
        <ele>1235.9</ele>
        <time>2022-08-12T14:58:59.000Z</time>
      </trkpt>
      <trkpt lat="45.11006" lon="5.50366">
        <ele>1236.2</ele>
        <time>2022-08-12T14:59:00.000Z</time>
      </trkpt>
      <trkpt lat="45.11007" lon="5.50364">
        <ele>1236.6</ele>
        <time>2022-08-12T14:59:01.000Z</time>
      </trkpt>
      <trkpt lat="45.11008" lon="5.50363">
        <ele>1236.9</ele>
        <time>2022-08-12T14:59:02.000Z</time>
      </trkpt>
      <trkpt lat="45.11008" lon="5.50361">
        <ele>1237.1</ele>
        <time>2022-08-12T14:59:03.000Z</time>
      </trkpt>
      <trkpt lat="45.11009" lon="5.50361">
        <ele>1237.4</ele>
        <time>2022-08-12T14:59:06.000Z</time>
      </trkpt>
      <trkpt lat="45.11008" lon="5.50362">
        <ele>1237</ele>
        <time>2022-08-12T14:59:08.000Z</time>
      </trkpt>
      <trkpt lat="45.11008" lon="5.50364">
        <ele>1236.8</ele>
        <time>2022-08-12T14:59:11.000Z</time>
      </trkpt>
      <trkpt lat="45.11009" lon="5.50365">
        <ele>1236.7</ele>
        <time>2022-08-12T14:59:12.000Z</time>
      </trkpt>
      <trkpt lat="45.11008" lon="5.50367">
        <ele>1236.4</ele>
        <time>2022-08-12T14:59:13.000Z</time>
      </trkpt>
      <trkpt lat="45.11008" lon="5.50368">
        <ele>1236.2</ele>
        <time>2022-08-12T14:59:14.000Z</time>
      </trkpt>
      <trkpt lat="45.11009" lon="5.50369">
        <ele>1236.1</ele>
        <time>2022-08-12T14:59:15.000Z</time>
      </trkpt>
      <trkpt lat="45.1101" lon="5.5037">
        <ele>1236.1</ele>
        <time>2022-08-12T14:59:16.000Z</time>
      </trkpt>
      <trkpt lat="45.1101" lon="5.50371">
        <ele>1236</ele>
        <time>2022-08-12T14:59:17.000Z</time>
      </trkpt>
      <trkpt lat="45.1101" lon="5.50373">
        <ele>1235.7</ele>
        <time>2022-08-12T14:59:18.000Z</time>
      </trkpt>
      <trkpt lat="45.11009" lon="5.50375">
        <ele>1235.4</ele>
        <time>2022-08-12T14:59:19.000Z</time>
      </trkpt>
      <trkpt lat="45.1101" lon="5.50376">
        <ele>1235.2</ele>
        <time>2022-08-12T14:59:20.000Z</time>
      </trkpt>
      <trkpt lat="45.11009" lon="5.50378">
        <ele>1234.9</ele>
        <time>2022-08-12T14:59:21.000Z</time>
      </trkpt>
      <trkpt lat="45.11011" lon="5.50379">
        <ele>1234.9</ele>
        <time>2022-08-12T14:59:24.000Z</time>
      </trkpt>
      <trkpt lat="45.11012" lon="5.5038">
        <ele>1234.8</ele>
        <time>2022-08-12T14:59:25.000Z</time>
      </trkpt>
      <trkpt lat="45.11013" lon="5.50382">
        <ele>1234.6</ele>
        <time>2022-08-12T14:59:26.000Z</time>
      </trkpt>
      <trkpt lat="45.11013" lon="5.50384">
        <ele>1234.2</ele>
        <time>2022-08-12T14:59:27.000Z</time>
      </trkpt>
      <trkpt lat="45.11013" lon="5.50386">
        <ele>1234</ele>
        <time>2022-08-12T14:59:28.000Z</time>
      </trkpt>
      <trkpt lat="45.11013" lon="5.50387">
        <ele>1233.7</ele>
        <time>2022-08-12T14:59:29.000Z</time>
      </trkpt>
      <trkpt lat="45.11014" lon="5.50388">
        <ele>1233.7</ele>
        <time>2022-08-12T14:59:30.000Z</time>
      </trkpt>
      <trkpt lat="45.11015" lon="5.50389">
        <ele>1233.5</ele>
        <time>2022-08-12T14:59:31.000Z</time>
      </trkpt>
      <trkpt lat="45.11016" lon="5.5039">
        <ele>1233.5</ele>
        <time>2022-08-12T14:59:33.000Z</time>
      </trkpt>
      <trkpt lat="45.11016" lon="5.50391">
        <ele>1233.5</ele>
        <time>2022-08-12T14:59:34.000Z</time>
      </trkpt>
      <trkpt lat="45.11017" lon="5.50392">
        <ele>1233.5</ele>
        <time>2022-08-12T14:59:35.000Z</time>
      </trkpt>
      <trkpt lat="45.11018" lon="5.50393">
        <ele>1233.5</ele>
        <time>2022-08-12T14:59:36.000Z</time>
      </trkpt>
      <trkpt lat="45.1102" lon="5.50394">
        <ele>1233.4</ele>
        <time>2022-08-12T14:59:37.000Z</time>
      </trkpt>
      <trkpt lat="45.11021" lon="5.50395">
        <ele>1233.4</ele>
        <time>2022-08-12T14:59:38.000Z</time>
      </trkpt>
      <trkpt lat="45.11023" lon="5.50395">
        <ele>1233.4</ele>
        <time>2022-08-12T14:59:39.000Z</time>
      </trkpt>
      <trkpt lat="45.11024" lon="5.50395">
        <ele>1233.3</ele>
        <time>2022-08-12T14:59:40.000Z</time>
      </trkpt>
      <trkpt lat="45.11026" lon="5.50395">
        <ele>1233.3</ele>
        <time>2022-08-12T14:59:41.000Z</time>
      </trkpt>
      <trkpt lat="45.11027" lon="5.50395">
        <ele>1233.3</ele>
        <time>2022-08-12T14:59:42.000Z</time>
      </trkpt>
      <trkpt lat="45.11029" lon="5.50395">
        <ele>1233.4</ele>
        <time>2022-08-12T14:59:43.000Z</time>
      </trkpt>
      <trkpt lat="45.1103" lon="5.50395">
        <ele>1233.5</ele>
        <time>2022-08-12T14:59:46.000Z</time>
      </trkpt>
      <trkpt lat="45.11031" lon="5.50395">
        <ele>1233.5</ele>
        <time>2022-08-12T14:59:47.000Z</time>
      </trkpt>
      <trkpt lat="45.11033" lon="5.50395">
        <ele>1233.6</ele>
        <time>2022-08-12T14:59:48.000Z</time>
      </trkpt>
      <trkpt lat="45.11034" lon="5.50395">
        <ele>1233.7</ele>
        <time>2022-08-12T14:59:49.000Z</time>
      </trkpt>
      <trkpt lat="45.11035" lon="5.50395">
        <ele>1233.8</ele>
        <time>2022-08-12T14:59:50.000Z</time>
      </trkpt>
      <trkpt lat="45.11037" lon="5.50395">
        <ele>1233.8</ele>
        <time>2022-08-12T14:59:51.000Z</time>
      </trkpt>
      <trkpt lat="45.11039" lon="5.50396">
        <ele>1233.8</ele>
        <time>2022-08-12T14:59:52.000Z</time>
      </trkpt>
      <trkpt lat="45.11041" lon="5.50397">
        <ele>1233.8</ele>
        <time>2022-08-12T14:59:53.000Z</time>
      </trkpt>
      <trkpt lat="45.11042" lon="5.50397">
        <ele>1233.8</ele>
        <time>2022-08-12T14:59:54.000Z</time>
      </trkpt>
      <trkpt lat="45.11044" lon="5.50397">
        <ele>1234</ele>
        <time>2022-08-12T14:59:55.000Z</time>
      </trkpt>
      <trkpt lat="45.11046" lon="5.50397">
        <ele>1234.1</ele>
        <time>2022-08-12T14:59:56.000Z</time>
      </trkpt>
      <trkpt lat="45.11049" lon="5.50397">
        <ele>1234.3</ele>
        <time>2022-08-12T14:59:57.000Z</time>
      </trkpt>
      <trkpt lat="45.11053" lon="5.50397">
        <ele>1234.4</ele>
        <time>2022-08-12T14:59:58.000Z</time>
      </trkpt>
      <trkpt lat="45.11055" lon="5.50398">
        <ele>1234.3</ele>
        <time>2022-08-12T14:59:59.000Z</time>
      </trkpt>
      <trkpt lat="45.11058" lon="5.504">
        <ele>1234.3</ele>
        <time>2022-08-12T15:00:00.000Z</time>
      </trkpt>
      <trkpt lat="45.11066" lon="5.50403">
        <ele>1234.7</ele>
        <time>2022-08-12T15:00:03.000Z</time>
      </trkpt>
      <trkpt lat="45.11074" lon="5.50405">
        <ele>1235.1</ele>
        <time>2022-08-12T15:00:06.000Z</time>
      </trkpt>
      <trkpt lat="45.11081" lon="5.50408">
        <ele>1235.2</ele>
        <time>2022-08-12T15:00:10.000Z</time>
      </trkpt>
      <trkpt lat="45.11087" lon="5.50414">
        <ele>1235.4</ele>
        <time>2022-08-12T15:00:13.000Z</time>
      </trkpt>
      <trkpt lat="45.11088" lon="5.50415">
        <ele>1235.4</ele>
        <time>2022-08-12T15:00:14.000Z</time>
      </trkpt>
      <trkpt lat="45.1109" lon="5.50417">
        <ele>1235.6</ele>
        <time>2022-08-12T15:00:15.000Z</time>
      </trkpt>
      <trkpt lat="45.11092" lon="5.50418">
        <ele>1235.9</ele>
        <time>2022-08-12T15:00:16.000Z</time>
      </trkpt>
      <trkpt lat="45.11093" lon="5.5042">
        <ele>1236</ele>
        <time>2022-08-12T15:00:17.000Z</time>
      </trkpt>
      <trkpt lat="45.11095" lon="5.50422">
        <ele>1236.2</ele>
        <time>2022-08-12T15:00:18.000Z</time>
      </trkpt>
      <trkpt lat="45.11096" lon="5.50425">
        <ele>1235.9</ele>
        <time>2022-08-12T15:00:19.000Z</time>
      </trkpt>
      <trkpt lat="45.11096" lon="5.50429">
        <ele>1235.6</ele>
        <time>2022-08-12T15:00:20.000Z</time>
      </trkpt>
      <trkpt lat="45.11098" lon="5.50431">
        <ele>1235.7</ele>
        <time>2022-08-12T15:00:21.000Z</time>
      </trkpt>
      <trkpt lat="45.111" lon="5.50433">
        <ele>1235.7</ele>
        <time>2022-08-12T15:00:22.000Z</time>
      </trkpt>
      <trkpt lat="45.11103" lon="5.50439">
        <ele>1235.4</ele>
        <time>2022-08-12T15:00:25.000Z</time>
      </trkpt>
      <trkpt lat="45.11104" lon="5.50443">
        <ele>1234.9</ele>
        <time>2022-08-12T15:00:26.000Z</time>
      </trkpt>
      <trkpt lat="45.11106" lon="5.50445">
        <ele>1234.9</ele>
        <time>2022-08-12T15:00:27.000Z</time>
      </trkpt>
      <trkpt lat="45.11112" lon="5.50457">
        <ele>1233.8</ele>
        <time>2022-08-12T15:00:33.000Z</time>
      </trkpt>
      <trkpt lat="45.11113" lon="5.50459">
        <ele>1233.8</ele>
        <time>2022-08-12T15:00:34.000Z</time>
      </trkpt>
      <trkpt lat="45.11115" lon="5.5046">
        <ele>1233.8</ele>
        <time>2022-08-12T15:00:35.000Z</time>
      </trkpt>
      <trkpt lat="45.11117" lon="5.50461">
        <ele>1233.9</ele>
        <time>2022-08-12T15:00:36.000Z</time>
      </trkpt>
      <trkpt lat="45.11119" lon="5.50463">
        <ele>1233.7</ele>
        <time>2022-08-12T15:00:37.000Z</time>
      </trkpt>
      <trkpt lat="45.1112" lon="5.50465">
        <ele>1233.6</ele>
        <time>2022-08-12T15:00:38.000Z</time>
      </trkpt>
      <trkpt lat="45.11121" lon="5.50466">
        <ele>1233.4</ele>
        <time>2022-08-12T15:00:39.000Z</time>
      </trkpt>
      <trkpt lat="45.11122" lon="5.50467">
        <ele>1233.4</ele>
        <time>2022-08-12T15:00:40.000Z</time>
      </trkpt>
      <trkpt lat="45.11123" lon="5.50468">
        <ele>1233.3</ele>
        <time>2022-08-12T15:00:41.000Z</time>
      </trkpt>
      <trkpt lat="45.11125" lon="5.50468">
        <ele>1233.5</ele>
        <time>2022-08-12T15:00:42.000Z</time>
      </trkpt>
      <trkpt lat="45.11127" lon="5.50468">
        <ele>1233.8</ele>
        <time>2022-08-12T15:00:43.000Z</time>
      </trkpt>
      <trkpt lat="45.1113" lon="5.50468">
        <ele>1234</ele>
        <time>2022-08-12T15:00:44.000Z</time>
      </trkpt>
      <trkpt lat="45.11134" lon="5.5047">
        <ele>1233.9</ele>
        <time>2022-08-12T15:00:46.000Z</time>
      </trkpt>
      <trkpt lat="45.11134" lon="5.50472">
        <ele>1233.5</ele>
        <time>2022-08-12T15:00:47.000Z</time>
      </trkpt>
      <trkpt lat="45.11135" lon="5.50473">
        <ele>1233.3</ele>
        <time>2022-08-12T15:00:48.000Z</time>
      </trkpt>
      <trkpt lat="45.11136" lon="5.50475">
        <ele>1233</ele>
        <time>2022-08-12T15:00:49.000Z</time>
      </trkpt>
      <trkpt lat="45.11143" lon="5.50477">
        <ele>1233.1</ele>
        <time>2022-08-12T15:00:52.000Z</time>
      </trkpt>
      <trkpt lat="45.11145" lon="5.50478">
        <ele>1233</ele>
        <time>2022-08-12T15:00:53.000Z</time>
      </trkpt>
      <trkpt lat="45.11147" lon="5.50479">
        <ele>1232.9</ele>
        <time>2022-08-12T15:00:54.000Z</time>
      </trkpt>
      <trkpt lat="45.11148" lon="5.50479">
        <ele>1232.9</ele>
        <time>2022-08-12T15:00:55.000Z</time>
      </trkpt>
      <trkpt lat="45.11153" lon="5.5048">
        <ele>1232.9</ele>
        <time>2022-08-12T15:00:58.000Z</time>
      </trkpt>
      <trkpt lat="45.11159" lon="5.50482">
        <ele>1232.8</ele>
        <time>2022-08-12T15:01:00.000Z</time>
      </trkpt>
      <trkpt lat="45.11174" lon="5.50484">
        <ele>1232.8</ele>
        <time>2022-08-12T15:01:06.000Z</time>
      </trkpt>
      <trkpt lat="45.11184" lon="5.50484">
        <ele>1233</ele>
        <time>2022-08-12T15:01:10.000Z</time>
      </trkpt>
      <trkpt lat="45.11187" lon="5.50485">
        <ele>1232.8</ele>
        <time>2022-08-12T15:01:11.000Z</time>
      </trkpt>
      <trkpt lat="45.11188" lon="5.50485">
        <ele>1232.8</ele>
        <time>2022-08-12T15:01:12.000Z</time>
      </trkpt>
      <trkpt lat="45.11192" lon="5.50485">
        <ele>1233</ele>
        <time>2022-08-12T15:01:14.000Z</time>
      </trkpt>
      <trkpt lat="45.11192" lon="5.50484">
        <ele>1233.4</ele>
        <time>2022-08-12T15:01:15.000Z</time>
      </trkpt>
      <trkpt lat="45.11193" lon="5.50484">
        <ele>1233.6</ele>
        <time>2022-08-12T15:01:16.000Z</time>
      </trkpt>
      <trkpt lat="45.11195" lon="5.50483">
        <ele>1233.8</ele>
        <time>2022-08-12T15:01:17.000Z</time>
      </trkpt>
      <trkpt lat="45.11196" lon="5.50483">
        <ele>1233.9</ele>
        <time>2022-08-12T15:01:18.000Z</time>
      </trkpt>
      <trkpt lat="45.11197" lon="5.50483">
        <ele>1233.9</ele>
        <time>2022-08-12T15:01:20.000Z</time>
      </trkpt>
      <trkpt lat="45.11198" lon="5.50484">
        <ele>1233.6</ele>
        <time>2022-08-12T15:01:21.000Z</time>
      </trkpt>
      <trkpt lat="45.112" lon="5.50485">
        <ele>1233.3</ele>
        <time>2022-08-12T15:01:22.000Z</time>
      </trkpt>
      <trkpt lat="45.11203" lon="5.50485">
        <ele>1233.4</ele>
        <time>2022-08-12T15:01:23.000Z</time>
      </trkpt>
      <trkpt lat="45.11205" lon="5.50484">
        <ele>1233.7</ele>
        <time>2022-08-12T15:01:24.000Z</time>
      </trkpt>
      <trkpt lat="45.11208" lon="5.50484">
        <ele>1233.9</ele>
        <time>2022-08-12T15:01:25.000Z</time>
      </trkpt>
      <trkpt lat="45.1121" lon="5.50484">
        <ele>1233.9</ele>
        <time>2022-08-12T15:01:26.000Z</time>
      </trkpt>
      <trkpt lat="45.11222" lon="5.50483">
        <ele>1235</ele>
        <time>2022-08-12T15:01:31.000Z</time>
      </trkpt>
      <trkpt lat="45.11227" lon="5.50482">
        <ele>1235.9</ele>
        <time>2022-08-12T15:01:32.000Z</time>
      </trkpt>
      <trkpt lat="45.11237" lon="5.50483">
        <ele>1236.1</ele>
        <time>2022-08-12T15:01:35.000Z</time>
      </trkpt>
      <trkpt lat="45.11241" lon="5.50483">
        <ele>1236.2</ele>
        <time>2022-08-12T15:01:36.000Z</time>
      </trkpt>
      <trkpt lat="45.11245" lon="5.50484">
        <ele>1236.3</ele>
        <time>2022-08-12T15:01:37.000Z</time>
      </trkpt>
      <trkpt lat="45.11249" lon="5.50484">
        <ele>1236.3</ele>
        <time>2022-08-12T15:01:38.000Z</time>
      </trkpt>
      <trkpt lat="45.11253" lon="5.50486">
        <ele>1235.9</ele>
        <time>2022-08-12T15:01:39.000Z</time>
      </trkpt>
      <trkpt lat="45.11262" lon="5.5049">
        <ele>1235.5</ele>
        <time>2022-08-12T15:01:42.000Z</time>
      </trkpt>
      <trkpt lat="45.11267" lon="5.50492">
        <ele>1235.3</ele>
        <time>2022-08-12T15:01:43.000Z</time>
      </trkpt>
      <trkpt lat="45.11276" lon="5.50496">
        <ele>1235.3</ele>
        <time>2022-08-12T15:01:45.000Z</time>
      </trkpt>
      <trkpt lat="45.1128" lon="5.50498">
        <ele>1235.2</ele>
        <time>2022-08-12T15:01:46.000Z</time>
      </trkpt>
      <trkpt lat="45.11283" lon="5.50499">
        <ele>1235</ele>
        <time>2022-08-12T15:01:47.000Z</time>
      </trkpt>
      <trkpt lat="45.11289" lon="5.50504">
        <ele>1234.3</ele>
        <time>2022-08-12T15:01:49.000Z</time>
      </trkpt>
      <trkpt lat="45.11296" lon="5.50508">
        <ele>1233.4</ele>
        <time>2022-08-12T15:01:51.000Z</time>
      </trkpt>
      <trkpt lat="45.11299" lon="5.5051">
        <ele>1233.2</ele>
        <time>2022-08-12T15:01:52.000Z</time>
      </trkpt>
      <trkpt lat="45.11302" lon="5.50512">
        <ele>1233.1</ele>
        <time>2022-08-12T15:01:53.000Z</time>
      </trkpt>
      <trkpt lat="45.11304" lon="5.50514">
        <ele>1232.7</ele>
        <time>2022-08-12T15:01:54.000Z</time>
      </trkpt>
      <trkpt lat="45.11306" lon="5.50517">
        <ele>1232.1</ele>
        <time>2022-08-12T15:01:55.000Z</time>
      </trkpt>
      <trkpt lat="45.11307" lon="5.50518">
        <ele>1231.7</ele>
        <time>2022-08-12T15:01:56.000Z</time>
      </trkpt>
      <trkpt lat="45.1131" lon="5.50519">
        <ele>1231.8</ele>
        <time>2022-08-12T15:01:57.000Z</time>
      </trkpt>
      <trkpt lat="45.11313" lon="5.5052">
        <ele>1231.8</ele>
        <time>2022-08-12T15:01:58.000Z</time>
      </trkpt>
      <trkpt lat="45.11316" lon="5.50521">
        <ele>1231.7</ele>
        <time>2022-08-12T15:01:59.000Z</time>
      </trkpt>
      <trkpt lat="45.11318" lon="5.50522">
        <ele>1231.8</ele>
        <time>2022-08-12T15:02:00.000Z</time>
      </trkpt>
      <trkpt lat="45.1132" lon="5.50524">
        <ele>1231.4</ele>
        <time>2022-08-12T15:02:01.000Z</time>
      </trkpt>
      <trkpt lat="45.11323" lon="5.50526">
        <ele>1231.3</ele>
        <time>2022-08-12T15:02:02.000Z</time>
      </trkpt>
      <trkpt lat="45.11326" lon="5.50527">
        <ele>1231.2</ele>
        <time>2022-08-12T15:02:03.000Z</time>
      </trkpt>
      <trkpt lat="45.11328" lon="5.50529">
        <ele>1230.8</ele>
        <time>2022-08-12T15:02:04.000Z</time>
      </trkpt>
      <trkpt lat="45.1133" lon="5.50531">
        <ele>1230.5</ele>
        <time>2022-08-12T15:02:05.000Z</time>
      </trkpt>
      <trkpt lat="45.11334" lon="5.50532">
        <ele>1230.4</ele>
        <time>2022-08-12T15:02:06.000Z</time>
      </trkpt>
      <trkpt lat="45.11343" lon="5.50533">
        <ele>1229.7</ele>
        <time>2022-08-12T15:02:09.000Z</time>
      </trkpt>
      <trkpt lat="45.11347" lon="5.50532">
        <ele>1230.1</ele>
        <time>2022-08-12T15:02:10.000Z</time>
      </trkpt>
      <trkpt lat="45.11351" lon="5.50531">
        <ele>1230.4</ele>
        <time>2022-08-12T15:02:11.000Z</time>
      </trkpt>
      <trkpt lat="45.11354" lon="5.5053">
        <ele>1230.5</ele>
        <time>2022-08-12T15:02:12.000Z</time>
      </trkpt>
      <trkpt lat="45.11358" lon="5.50531">
        <ele>1230.2</ele>
        <time>2022-08-12T15:02:13.000Z</time>
      </trkpt>
      <trkpt lat="45.11365" lon="5.5053">
        <ele>1230.2</ele>
        <time>2022-08-12T15:02:15.000Z</time>
      </trkpt>
      <trkpt lat="45.11374" lon="5.50521">
        <ele>1231.7</ele>
        <time>2022-08-12T15:02:18.000Z</time>
      </trkpt>
      <trkpt lat="45.11377" lon="5.50518">
        <ele>1232.4</ele>
        <time>2022-08-12T15:02:19.000Z</time>
      </trkpt>
      <trkpt lat="45.11379" lon="5.50514">
        <ele>1233</ele>
        <time>2022-08-12T15:02:20.000Z</time>
      </trkpt>
      <trkpt lat="45.11381" lon="5.5051">
        <ele>1233.7</ele>
        <time>2022-08-12T15:02:21.000Z</time>
      </trkpt>
      <trkpt lat="45.11382" lon="5.50507">
        <ele>1234.4</ele>
        <time>2022-08-12T15:02:22.000Z</time>
      </trkpt>
      <trkpt lat="45.11382" lon="5.50503">
        <ele>1235.2</ele>
        <time>2022-08-12T15:02:23.000Z</time>
      </trkpt>
      <trkpt lat="45.11382" lon="5.50499">
        <ele>1236.1</ele>
        <time>2022-08-12T15:02:24.000Z</time>
      </trkpt>
      <trkpt lat="45.11384" lon="5.50495">
        <ele>1236.8</ele>
        <time>2022-08-12T15:02:25.000Z</time>
      </trkpt>
      <trkpt lat="45.11384" lon="5.50491">
        <ele>1237.7</ele>
        <time>2022-08-12T15:02:26.000Z</time>
      </trkpt>
      <trkpt lat="45.11384" lon="5.50487">
        <ele>1238.6</ele>
        <time>2022-08-12T15:02:27.000Z</time>
      </trkpt>
      <trkpt lat="45.11391" lon="5.5047">
        <ele>1241.7</ele>
        <time>2022-08-12T15:02:31.000Z</time>
      </trkpt>
      <trkpt lat="45.11394" lon="5.50468">
        <ele>1242.5</ele>
        <time>2022-08-12T15:02:32.000Z</time>
      </trkpt>
      <trkpt lat="45.11396" lon="5.50466">
        <ele>1242.9</ele>
        <time>2022-08-12T15:02:33.000Z</time>
      </trkpt>
      <trkpt lat="45.11399" lon="5.50465">
        <ele>1243.3</ele>
        <time>2022-08-12T15:02:34.000Z</time>
      </trkpt>
      <trkpt lat="45.11402" lon="5.50465">
        <ele>1243.6</ele>
        <time>2022-08-12T15:02:35.000Z</time>
      </trkpt>
      <trkpt lat="45.11405" lon="5.50465">
        <ele>1243.7</ele>
        <time>2022-08-12T15:02:36.000Z</time>
      </trkpt>
      <trkpt lat="45.11408" lon="5.50466">
        <ele>1243.8</ele>
        <time>2022-08-12T15:02:37.000Z</time>
      </trkpt>
      <trkpt lat="45.11412" lon="5.50467">
        <ele>1243.8</ele>
        <time>2022-08-12T15:02:38.000Z</time>
      </trkpt>
      <trkpt lat="45.11417" lon="5.50471">
        <ele>1243.3</ele>
        <time>2022-08-12T15:02:40.000Z</time>
      </trkpt>
      <trkpt lat="45.11419" lon="5.50473">
        <ele>1243.3</ele>
        <time>2022-08-12T15:02:41.000Z</time>
      </trkpt>
      <trkpt lat="45.1142" lon="5.50476">
        <ele>1243.3</ele>
        <time>2022-08-12T15:02:42.000Z</time>
      </trkpt>
      <trkpt lat="45.11421" lon="5.50479">
        <ele>1242.9</ele>
        <time>2022-08-12T15:02:43.000Z</time>
      </trkpt>
      <trkpt lat="45.11422" lon="5.50483">
        <ele>1242.4</ele>
        <time>2022-08-12T15:02:44.000Z</time>
      </trkpt>
      <trkpt lat="45.11423" lon="5.50486">
        <ele>1242</ele>
        <time>2022-08-12T15:02:45.000Z</time>
      </trkpt>
      <trkpt lat="45.11423" lon="5.50491">
        <ele>1241.4</ele>
        <time>2022-08-12T15:02:46.000Z</time>
      </trkpt>
      <trkpt lat="45.11424" lon="5.50494">
        <ele>1240.7</ele>
        <time>2022-08-12T15:02:47.000Z</time>
      </trkpt>
      <trkpt lat="45.11424" lon="5.50503">
        <ele>1239.4</ele>
        <time>2022-08-12T15:02:49.000Z</time>
      </trkpt>
      <trkpt lat="45.11429" lon="5.5051">
        <ele>1239.6</ele>
        <time>2022-08-12T15:02:51.000Z</time>
      </trkpt>
      <trkpt lat="45.11431" lon="5.50513">
        <ele>1239.7</ele>
        <time>2022-08-12T15:02:52.000Z</time>
      </trkpt>
      <trkpt lat="45.11431" lon="5.50516">
        <ele>1239.4</ele>
        <time>2022-08-12T15:02:53.000Z</time>
      </trkpt>
      <trkpt lat="45.11432" lon="5.50522">
        <ele>1238.7</ele>
        <time>2022-08-12T15:02:55.000Z</time>
      </trkpt>
      <trkpt lat="45.11437" lon="5.50528">
        <ele>1239</ele>
        <time>2022-08-12T15:02:58.000Z</time>
      </trkpt>
      <trkpt lat="45.11438" lon="5.5053">
        <ele>1238.9</ele>
        <time>2022-08-12T15:02:59.000Z</time>
      </trkpt>
      <trkpt lat="45.11439" lon="5.50531">
        <ele>1239.1</ele>
        <time>2022-08-12T15:03:00.000Z</time>
      </trkpt>
      <trkpt lat="45.1144" lon="5.50533">
        <ele>1239</ele>
        <time>2022-08-12T15:03:01.000Z</time>
      </trkpt>
      <trkpt lat="45.11442" lon="5.50534">
        <ele>1239.1</ele>
        <time>2022-08-12T15:03:02.000Z</time>
      </trkpt>
      <trkpt lat="45.11443" lon="5.50536">
        <ele>1239.1</ele>
        <time>2022-08-12T15:03:03.000Z</time>
      </trkpt>
      <trkpt lat="45.11444" lon="5.50538">
        <ele>1239</ele>
        <time>2022-08-12T15:03:04.000Z</time>
      </trkpt>
      <trkpt lat="45.11445" lon="5.50539">
        <ele>1239</ele>
        <time>2022-08-12T15:03:05.000Z</time>
      </trkpt>
      <trkpt lat="45.11447" lon="5.50541">
        <ele>1238.9</ele>
        <time>2022-08-12T15:03:06.000Z</time>
      </trkpt>
      <trkpt lat="45.11449" lon="5.50543">
        <ele>1238.8</ele>
        <time>2022-08-12T15:03:07.000Z</time>
      </trkpt>
      <trkpt lat="45.11455" lon="5.50552">
        <ele>1238.2</ele>
        <time>2022-08-12T15:03:11.000Z</time>
      </trkpt>
      <trkpt lat="45.11456" lon="5.50553">
        <ele>1238.2</ele>
        <time>2022-08-12T15:03:12.000Z</time>
      </trkpt>
      <trkpt lat="45.11462" lon="5.5056">
        <ele>1237.6</ele>
        <time>2022-08-12T15:03:16.000Z</time>
      </trkpt>
      <trkpt lat="45.11466" lon="5.50563">
        <ele>1237.4</ele>
        <time>2022-08-12T15:03:18.000Z</time>
      </trkpt>
      <trkpt lat="45.11468" lon="5.50565">
        <ele>1237.4</ele>
        <time>2022-08-12T15:03:19.000Z</time>
      </trkpt>
      <trkpt lat="45.11475" lon="5.50568">
        <ele>1237.1</ele>
        <time>2022-08-12T15:03:22.000Z</time>
      </trkpt>
      <trkpt lat="45.11481" lon="5.50568">
        <ele>1236.7</ele>
        <time>2022-08-12T15:03:24.000Z</time>
      </trkpt>
      <trkpt lat="45.11483" lon="5.50568">
        <ele>1236.5</ele>
        <time>2022-08-12T15:03:25.000Z</time>
      </trkpt>
      <trkpt lat="45.11488" lon="5.50566">
        <ele>1236.5</ele>
        <time>2022-08-12T15:03:27.000Z</time>
      </trkpt>
      <trkpt lat="45.11507" lon="5.50556">
        <ele>1236.1</ele>
        <time>2022-08-12T15:03:33.000Z</time>
      </trkpt>
      <trkpt lat="45.11511" lon="5.50554">
        <ele>1235.7</ele>
        <time>2022-08-12T15:03:34.000Z</time>
      </trkpt>
      <trkpt lat="45.11518" lon="5.50545">
        <ele>1236</ele>
        <time>2022-08-12T15:03:37.000Z</time>
      </trkpt>
      <trkpt lat="45.1152" lon="5.50542">
        <ele>1236.2</ele>
        <time>2022-08-12T15:03:38.000Z</time>
      </trkpt>
      <trkpt lat="45.11523" lon="5.50538">
        <ele>1236.4</ele>
        <time>2022-08-12T15:03:39.000Z</time>
      </trkpt>
      <trkpt lat="45.11527" lon="5.50534">
        <ele>1236.6</ele>
        <time>2022-08-12T15:03:40.000Z</time>
      </trkpt>
      <trkpt lat="45.11534" lon="5.50521">
        <ele>1238.3</ele>
        <time>2022-08-12T15:03:43.000Z</time>
      </trkpt>
      <trkpt lat="45.11542" lon="5.5051">
        <ele>1238.9</ele>
        <time>2022-08-12T15:03:45.000Z</time>
      </trkpt>
      <trkpt lat="45.1155" lon="5.505">
        <ele>1239.2</ele>
        <time>2022-08-12T15:03:47.000Z</time>
      </trkpt>
      <trkpt lat="45.11553" lon="5.50496">
        <ele>1239.5</ele>
        <time>2022-08-12T15:03:48.000Z</time>
      </trkpt>
      <trkpt lat="45.11556" lon="5.50491">
        <ele>1240</ele>
        <time>2022-08-12T15:03:49.000Z</time>
      </trkpt>
      <trkpt lat="45.11561" lon="5.50488">
        <ele>1241.3</ele>
        <time>2022-08-12T15:03:50.000Z</time>
      </trkpt>
      <trkpt lat="45.1157" lon="5.50487">
        <ele>1242.8</ele>
        <time>2022-08-12T15:03:52.000Z</time>
      </trkpt>
      <trkpt lat="45.11572" lon="5.5049">
        <ele>1242.7</ele>
        <time>2022-08-12T15:03:53.000Z</time>
      </trkpt>
      <trkpt lat="45.11575" lon="5.50494">
        <ele>1242.6</ele>
        <time>2022-08-12T15:03:54.000Z</time>
      </trkpt>
      <trkpt lat="45.11577" lon="5.50498">
        <ele>1242.2</ele>
        <time>2022-08-12T15:03:55.000Z</time>
      </trkpt>
      <trkpt lat="45.11578" lon="5.50502">
        <ele>1241.8</ele>
        <time>2022-08-12T15:03:56.000Z</time>
      </trkpt>
      <trkpt lat="45.11579" lon="5.50508">
        <ele>1241.3</ele>
        <time>2022-08-12T15:03:57.000Z</time>
      </trkpt>
      <trkpt lat="45.1158" lon="5.50513">
        <ele>1240.8</ele>
        <time>2022-08-12T15:03:58.000Z</time>
      </trkpt>
      <trkpt lat="45.11581" lon="5.50518">
        <ele>1240.5</ele>
        <time>2022-08-12T15:03:59.000Z</time>
      </trkpt>
      <trkpt lat="45.11582" lon="5.50524">
        <ele>1240.2</ele>
        <time>2022-08-12T15:04:00.000Z</time>
      </trkpt>
      <trkpt lat="45.11585" lon="5.50541">
        <ele>1239.2</ele>
        <time>2022-08-12T15:04:03.000Z</time>
      </trkpt>
      <trkpt lat="45.11589" lon="5.50556">
        <ele>1239</ele>
        <time>2022-08-12T15:04:06.000Z</time>
      </trkpt>
      <trkpt lat="45.1159" lon="5.50562">
        <ele>1238.5</ele>
        <time>2022-08-12T15:04:07.000Z</time>
      </trkpt>
      <trkpt lat="45.1159" lon="5.50568">
        <ele>1237.4</ele>
        <time>2022-08-12T15:04:08.000Z</time>
      </trkpt>
      <trkpt lat="45.11592" lon="5.50579">
        <ele>1236.6</ele>
        <time>2022-08-12T15:04:10.000Z</time>
      </trkpt>
      <trkpt lat="45.11595" lon="5.50585">
        <ele>1236.6</ele>
        <time>2022-08-12T15:04:11.000Z</time>
      </trkpt>
      <trkpt lat="45.11597" lon="5.50589">
        <ele>1236.3</ele>
        <time>2022-08-12T15:04:12.000Z</time>
      </trkpt>
      <trkpt lat="45.11599" lon="5.50593">
        <ele>1236.1</ele>
        <time>2022-08-12T15:04:13.000Z</time>
      </trkpt>
      <trkpt lat="45.11602" lon="5.506">
        <ele>1235.7</ele>
        <time>2022-08-12T15:04:14.000Z</time>
      </trkpt>
      <trkpt lat="45.11605" lon="5.50604">
        <ele>1235.8</ele>
        <time>2022-08-12T15:04:15.000Z</time>
      </trkpt>
      <trkpt lat="45.11607" lon="5.50608">
        <ele>1235.3</ele>
        <time>2022-08-12T15:04:16.000Z</time>
      </trkpt>
      <trkpt lat="45.11608" lon="5.50614">
        <ele>1234.3</ele>
        <time>2022-08-12T15:04:17.000Z</time>
      </trkpt>
      <trkpt lat="45.11613" lon="5.50631">
        <ele>1231.6</ele>
        <time>2022-08-12T15:04:20.000Z</time>
      </trkpt>
      <trkpt lat="45.11616" lon="5.50637">
        <ele>1230.8</ele>
        <time>2022-08-12T15:04:21.000Z</time>
      </trkpt>
      <trkpt lat="45.11623" lon="5.50649">
        <ele>1229.8</ele>
        <time>2022-08-12T15:04:23.000Z</time>
      </trkpt>
      <trkpt lat="45.11632" lon="5.50657">
        <ele>1230.2</ele>
        <time>2022-08-12T15:04:25.000Z</time>
      </trkpt>
      <trkpt lat="45.11637" lon="5.50661">
        <ele>1230.1</ele>
        <time>2022-08-12T15:04:26.000Z</time>
      </trkpt>
      <trkpt lat="45.1164" lon="5.50665">
        <ele>1229.7</ele>
        <time>2022-08-12T15:04:27.000Z</time>
      </trkpt>
      <trkpt lat="45.11644" lon="5.50671">
        <ele>1229</ele>
        <time>2022-08-12T15:04:28.000Z</time>
      </trkpt>
      <trkpt lat="45.11648" lon="5.50673">
        <ele>1229.1</ele>
        <time>2022-08-12T15:04:29.000Z</time>
      </trkpt>
      <trkpt lat="45.11658" lon="5.50679">
        <ele>1229.2</ele>
        <time>2022-08-12T15:04:31.000Z</time>
      </trkpt>
      <trkpt lat="45.11672" lon="5.50687">
        <ele>1229.3</ele>
        <time>2022-08-12T15:04:34.000Z</time>
      </trkpt>
      <trkpt lat="45.11676" lon="5.5069">
        <ele>1229.3</ele>
        <time>2022-08-12T15:04:35.000Z</time>
      </trkpt>
      <trkpt lat="45.1168" lon="5.50692">
        <ele>1229.2</ele>
        <time>2022-08-12T15:04:36.000Z</time>
      </trkpt>
      <trkpt lat="45.11695" lon="5.50698">
        <ele>1229.9</ele>
        <time>2022-08-12T15:04:39.000Z</time>
      </trkpt>
      <trkpt lat="45.117" lon="5.507">
        <ele>1230.2</ele>
        <time>2022-08-12T15:04:40.000Z</time>
      </trkpt>
      <trkpt lat="45.11708" lon="5.50702">
        <ele>1230.8</ele>
        <time>2022-08-12T15:04:42.000Z</time>
      </trkpt>
      <trkpt lat="45.11711" lon="5.50704">
        <ele>1231.1</ele>
        <time>2022-08-12T15:04:43.000Z</time>
      </trkpt>
      <trkpt lat="45.11714" lon="5.50705">
        <ele>1231.3</ele>
        <time>2022-08-12T15:04:44.000Z</time>
      </trkpt>
      <trkpt lat="45.11717" lon="5.50706">
        <ele>1231.4</ele>
        <time>2022-08-12T15:04:45.000Z</time>
      </trkpt>
      <trkpt lat="45.1172" lon="5.50707">
        <ele>1231.6</ele>
        <time>2022-08-12T15:04:46.000Z</time>
      </trkpt>
      <trkpt lat="45.11723" lon="5.50708">
        <ele>1231.8</ele>
        <time>2022-08-12T15:04:47.000Z</time>
      </trkpt>
      <trkpt lat="45.11725" lon="5.50708">
        <ele>1232</ele>
        <time>2022-08-12T15:04:48.000Z</time>
      </trkpt>
      <trkpt lat="45.11728" lon="5.50708">
        <ele>1232.5</ele>
        <time>2022-08-12T15:04:49.000Z</time>
      </trkpt>
      <trkpt lat="45.11735" lon="5.50706">
        <ele>1233.9</ele>
        <time>2022-08-12T15:04:51.000Z</time>
      </trkpt>
      <trkpt lat="45.11738" lon="5.50706">
        <ele>1234.4</ele>
        <time>2022-08-12T15:04:52.000Z</time>
      </trkpt>
      <trkpt lat="45.11742" lon="5.50706">
        <ele>1235</ele>
        <time>2022-08-12T15:04:53.000Z</time>
      </trkpt>
      <trkpt lat="45.11753" lon="5.50706">
        <ele>1236.7</ele>
        <time>2022-08-12T15:04:56.000Z</time>
      </trkpt>
      <trkpt lat="45.11766" lon="5.50702">
        <ele>1240.7</ele>
        <time>2022-08-12T15:04:59.000Z</time>
      </trkpt>
      <trkpt lat="45.1177" lon="5.50704">
        <ele>1241.3</ele>
        <time>2022-08-12T15:05:00.000Z</time>
      </trkpt>
      <trkpt lat="45.11773" lon="5.50707">
        <ele>1241.1</ele>
        <time>2022-08-12T15:05:01.000Z</time>
      </trkpt>
      <trkpt lat="45.11777" lon="5.50712">
        <ele>1241.1</ele>
        <time>2022-08-12T15:05:02.000Z</time>
      </trkpt>
      <trkpt lat="45.11779" lon="5.50724">
        <ele>1239.3</ele>
        <time>2022-08-12T15:05:04.000Z</time>
      </trkpt>
      <trkpt lat="45.11781" lon="5.50729">
        <ele>1238.8</ele>
        <time>2022-08-12T15:05:05.000Z</time>
      </trkpt>
      <trkpt lat="45.11783" lon="5.50734">
        <ele>1239</ele>
        <time>2022-08-12T15:05:06.000Z</time>
      </trkpt>
      <trkpt lat="45.11785" lon="5.50738">
        <ele>1238.9</ele>
        <time>2022-08-12T15:05:07.000Z</time>
      </trkpt>
      <trkpt lat="45.11787" lon="5.5074">
        <ele>1239.2</ele>
        <time>2022-08-12T15:05:08.000Z</time>
      </trkpt>
      <trkpt lat="45.11794" lon="5.50746">
        <ele>1240.1</ele>
        <time>2022-08-12T15:05:10.000Z</time>
      </trkpt>
      <trkpt lat="45.11796" lon="5.50748">
        <ele>1240.6</ele>
        <time>2022-08-12T15:05:11.000Z</time>
      </trkpt>
      <trkpt lat="45.118" lon="5.50751">
        <ele>1241.3</ele>
        <time>2022-08-12T15:05:12.000Z</time>
      </trkpt>
      <trkpt lat="45.11803" lon="5.50752">
        <ele>1242</ele>
        <time>2022-08-12T15:05:13.000Z</time>
      </trkpt>
      <trkpt lat="45.11805" lon="5.50752">
        <ele>1242.5</ele>
        <time>2022-08-12T15:05:14.000Z</time>
      </trkpt>
      <trkpt lat="45.11808" lon="5.50755">
        <ele>1242.7</ele>
        <time>2022-08-12T15:05:15.000Z</time>
      </trkpt>
      <trkpt lat="45.11811" lon="5.50757">
        <ele>1242.9</ele>
        <time>2022-08-12T15:05:16.000Z</time>
      </trkpt>
      <trkpt lat="45.11814" lon="5.50759">
        <ele>1243.4</ele>
        <time>2022-08-12T15:05:17.000Z</time>
      </trkpt>
      <trkpt lat="45.11817" lon="5.5076">
        <ele>1243.6</ele>
        <time>2022-08-12T15:05:18.000Z</time>
      </trkpt>
      <trkpt lat="45.11819" lon="5.50762">
        <ele>1243.7</ele>
        <time>2022-08-12T15:05:19.000Z</time>
      </trkpt>
      <trkpt lat="45.11823" lon="5.50765">
        <ele>1244.2</ele>
        <time>2022-08-12T15:05:20.000Z</time>
      </trkpt>
      <trkpt lat="45.11831" lon="5.50769">
        <ele>1245</ele>
        <time>2022-08-12T15:05:22.000Z</time>
      </trkpt>
      <trkpt lat="45.11833" lon="5.5077">
        <ele>1245.2</ele>
        <time>2022-08-12T15:05:23.000Z</time>
      </trkpt>
      <trkpt lat="45.11836" lon="5.50771">
        <ele>1245.5</ele>
        <time>2022-08-12T15:05:24.000Z</time>
      </trkpt>
      <trkpt lat="45.11837" lon="5.5077">
        <ele>1245.9</ele>
        <time>2022-08-12T15:05:25.000Z</time>
      </trkpt>
      <trkpt lat="45.11841" lon="5.50771">
        <ele>1246.1</ele>
        <time>2022-08-12T15:05:26.000Z</time>
      </trkpt>
      <trkpt lat="45.11844" lon="5.50773">
        <ele>1246.2</ele>
        <time>2022-08-12T15:05:27.000Z</time>
      </trkpt>
      <trkpt lat="45.11848" lon="5.50774">
        <ele>1246.3</ele>
        <time>2022-08-12T15:05:28.000Z</time>
      </trkpt>
      <trkpt lat="45.11852" lon="5.50774">
        <ele>1246.8</ele>
        <time>2022-08-12T15:05:30.000Z</time>
      </trkpt>
      <trkpt lat="45.11854" lon="5.50774">
        <ele>1247.1</ele>
        <time>2022-08-12T15:05:31.000Z</time>
      </trkpt>
      <trkpt lat="45.11856" lon="5.50774">
        <ele>1247.2</ele>
        <time>2022-08-12T15:05:32.000Z</time>
      </trkpt>
      <trkpt lat="45.11861" lon="5.50777">
        <ele>1247.1</ele>
        <time>2022-08-12T15:05:33.000Z</time>
      </trkpt>
      <trkpt lat="45.11863" lon="5.50779">
        <ele>1246.6</ele>
        <time>2022-08-12T15:05:34.000Z</time>
      </trkpt>
      <trkpt lat="45.11867" lon="5.50782">
        <ele>1245.8</ele>
        <time>2022-08-12T15:05:35.000Z</time>
      </trkpt>
      <trkpt lat="45.11869" lon="5.50782">
        <ele>1246</ele>
        <time>2022-08-12T15:05:36.000Z</time>
      </trkpt>
      <trkpt lat="45.11873" lon="5.50781">
        <ele>1246.3</ele>
        <time>2022-08-12T15:05:37.000Z</time>
      </trkpt>
      <trkpt lat="45.11876" lon="5.50779">
        <ele>1246.8</ele>
        <time>2022-08-12T15:05:38.000Z</time>
      </trkpt>
      <trkpt lat="45.11878" lon="5.50777">
        <ele>1247.2</ele>
        <time>2022-08-12T15:05:39.000Z</time>
      </trkpt>
      <trkpt lat="45.1188" lon="5.50777">
        <ele>1247.1</ele>
        <time>2022-08-12T15:05:40.000Z</time>
      </trkpt>
      <trkpt lat="45.11882" lon="5.50778">
        <ele>1246.9</ele>
        <time>2022-08-12T15:05:41.000Z</time>
      </trkpt>
      <trkpt lat="45.11885" lon="5.50779">
        <ele>1246.7</ele>
        <time>2022-08-12T15:05:42.000Z</time>
      </trkpt>
      <trkpt lat="45.11888" lon="5.50779">
        <ele>1246.7</ele>
        <time>2022-08-12T15:05:43.000Z</time>
      </trkpt>
      <trkpt lat="45.1189" lon="5.5078">
        <ele>1246.3</ele>
        <time>2022-08-12T15:05:44.000Z</time>
      </trkpt>
      <trkpt lat="45.11894" lon="5.50781">
        <ele>1245.6</ele>
        <time>2022-08-12T15:05:45.000Z</time>
      </trkpt>
      <trkpt lat="45.11895" lon="5.50782">
        <ele>1245.2</ele>
        <time>2022-08-12T15:05:46.000Z</time>
      </trkpt>
      <trkpt lat="45.11898" lon="5.50782">
        <ele>1244.7</ele>
        <time>2022-08-12T15:05:47.000Z</time>
      </trkpt>
      <trkpt lat="45.11898" lon="5.50783">
        <ele>1244.5</ele>
        <time>2022-08-12T15:05:48.000Z</time>
      </trkpt>
      <trkpt lat="45.11901" lon="5.50785">
        <ele>1243.5</ele>
        <time>2022-08-12T15:05:49.000Z</time>
      </trkpt>
      <trkpt lat="45.11905" lon="5.50786">
        <ele>1242.5</ele>
        <time>2022-08-12T15:05:50.000Z</time>
      </trkpt>
      <trkpt lat="45.11908" lon="5.50786">
        <ele>1242.1</ele>
        <time>2022-08-12T15:05:51.000Z</time>
      </trkpt>
      <trkpt lat="45.11913" lon="5.50786">
        <ele>1241.5</ele>
        <time>2022-08-12T15:05:53.000Z</time>
      </trkpt>
      <trkpt lat="45.11915" lon="5.50785">
        <ele>1241.3</ele>
        <time>2022-08-12T15:05:54.000Z</time>
      </trkpt>
      <trkpt lat="45.11919" lon="5.50785">
        <ele>1241</ele>
        <time>2022-08-12T15:05:55.000Z</time>
      </trkpt>
      <trkpt lat="45.11921" lon="5.50784">
        <ele>1240.7</ele>
        <time>2022-08-12T15:05:56.000Z</time>
      </trkpt>
      <trkpt lat="45.11928" lon="5.50781">
        <ele>1240.6</ele>
        <time>2022-08-12T15:05:59.000Z</time>
      </trkpt>
      <trkpt lat="45.11931" lon="5.50776">
        <ele>1241.4</ele>
        <time>2022-08-12T15:06:00.000Z</time>
      </trkpt>
      <trkpt lat="45.11932" lon="5.50774">
        <ele>1241.8</ele>
        <time>2022-08-12T15:06:02.000Z</time>
      </trkpt>
      <trkpt lat="45.11934" lon="5.50771">
        <ele>1242.4</ele>
        <time>2022-08-12T15:06:03.000Z</time>
      </trkpt>
      <trkpt lat="45.11935" lon="5.50768">
        <ele>1243.2</ele>
        <time>2022-08-12T15:06:04.000Z</time>
      </trkpt>
      <trkpt lat="45.11937" lon="5.50764">
        <ele>1244</ele>
        <time>2022-08-12T15:06:05.000Z</time>
      </trkpt>
      <trkpt lat="45.11938" lon="5.50762">
        <ele>1244.5</ele>
        <time>2022-08-12T15:06:06.000Z</time>
      </trkpt>
      <trkpt lat="45.11939" lon="5.50759">
        <ele>1245.2</ele>
        <time>2022-08-12T15:06:07.000Z</time>
      </trkpt>
      <trkpt lat="45.11947" lon="5.50733">
        <ele>1250.9</ele>
        <time>2022-08-12T15:06:13.000Z</time>
      </trkpt>
      <trkpt lat="45.1196" lon="5.50716">
        <ele>1253.7</ele>
        <time>2022-08-12T15:06:18.000Z</time>
      </trkpt>
      <trkpt lat="45.11964" lon="5.50714">
        <ele>1253.7</ele>
        <time>2022-08-12T15:06:19.000Z</time>
      </trkpt>
      <trkpt lat="45.11968" lon="5.50714">
        <ele>1253.1</ele>
        <time>2022-08-12T15:06:20.000Z</time>
      </trkpt>
      <trkpt lat="45.11973" lon="5.50715">
        <ele>1252.6</ele>
        <time>2022-08-12T15:06:21.000Z</time>
      </trkpt>
      <trkpt lat="45.11977" lon="5.50718">
        <ele>1252.2</ele>
        <time>2022-08-12T15:06:22.000Z</time>
      </trkpt>
      <trkpt lat="45.11977" lon="5.50721">
        <ele>1251.5</ele>
        <time>2022-08-12T15:06:23.000Z</time>
      </trkpt>
      <trkpt lat="45.11976" lon="5.50725">
        <ele>1250.6</ele>
        <time>2022-08-12T15:06:24.000Z</time>
      </trkpt>
      <trkpt lat="45.11982" lon="5.50723">
        <ele>1251.1</ele>
        <time>2022-08-12T15:06:26.000Z</time>
      </trkpt>
      <trkpt lat="45.11983" lon="5.50725">
        <ele>1250.8</ele>
        <time>2022-08-12T15:06:27.000Z</time>
      </trkpt>
      <trkpt lat="45.11989" lon="5.50729">
        <ele>1250.3</ele>
        <time>2022-08-12T15:06:29.000Z</time>
      </trkpt>
      <trkpt lat="45.11992" lon="5.50732">
        <ele>1249.9</ele>
        <time>2022-08-12T15:06:30.000Z</time>
      </trkpt>
      <trkpt lat="45.11996" lon="5.50735">
        <ele>1249.6</ele>
        <time>2022-08-12T15:06:31.000Z</time>
      </trkpt>
      <trkpt lat="45.11998" lon="5.50737">
        <ele>1249.1</ele>
        <time>2022-08-12T15:06:32.000Z</time>
      </trkpt>
      <trkpt lat="45.11999" lon="5.5074">
        <ele>1248.7</ele>
        <time>2022-08-12T15:06:33.000Z</time>
      </trkpt>
      <trkpt lat="45.12001" lon="5.50743">
        <ele>1248.3</ele>
        <time>2022-08-12T15:06:34.000Z</time>
      </trkpt>
      <trkpt lat="45.12004" lon="5.50745">
        <ele>1248.3</ele>
        <time>2022-08-12T15:06:35.000Z</time>
      </trkpt>
      <trkpt lat="45.12009" lon="5.50749">
        <ele>1248.1</ele>
        <time>2022-08-12T15:06:37.000Z</time>
      </trkpt>
      <trkpt lat="45.12011" lon="5.50752">
        <ele>1247.8</ele>
        <time>2022-08-12T15:06:38.000Z</time>
      </trkpt>
      <trkpt lat="45.12015" lon="5.50756">
        <ele>1247.4</ele>
        <time>2022-08-12T15:06:40.000Z</time>
      </trkpt>
      <trkpt lat="45.12015" lon="5.50761">
        <ele>1246.4</ele>
        <time>2022-08-12T15:06:42.000Z</time>
      </trkpt>
      <trkpt lat="45.12016" lon="5.50763">
        <ele>1246.3</ele>
        <time>2022-08-12T15:06:43.000Z</time>
      </trkpt>
      <trkpt lat="45.12018" lon="5.50765">
        <ele>1246.1</ele>
        <time>2022-08-12T15:06:44.000Z</time>
      </trkpt>
      <trkpt lat="45.12025" lon="5.50769">
        <ele>1246.2</ele>
        <time>2022-08-12T15:06:46.000Z</time>
      </trkpt>
      <trkpt lat="45.12028" lon="5.5077">
        <ele>1246.4</ele>
        <time>2022-08-12T15:06:47.000Z</time>
      </trkpt>
      <trkpt lat="45.12031" lon="5.5077">
        <ele>1246.8</ele>
        <time>2022-08-12T15:06:48.000Z</time>
      </trkpt>
      <trkpt lat="45.12034" lon="5.50769">
        <ele>1247.5</ele>
        <time>2022-08-12T15:06:49.000Z</time>
      </trkpt>
      <trkpt lat="45.12037" lon="5.5077">
        <ele>1247.8</ele>
        <time>2022-08-12T15:06:50.000Z</time>
      </trkpt>
      <trkpt lat="45.1204" lon="5.5077">
        <ele>1248.1</ele>
        <time>2022-08-12T15:06:51.000Z</time>
      </trkpt>
      <trkpt lat="45.12042" lon="5.5077">
        <ele>1248.5</ele>
        <time>2022-08-12T15:06:52.000Z</time>
      </trkpt>
      <trkpt lat="45.12048" lon="5.50766">
        <ele>1250</ele>
        <time>2022-08-12T15:06:54.000Z</time>
      </trkpt>
      <trkpt lat="45.12052" lon="5.50766">
        <ele>1250.5</ele>
        <time>2022-08-12T15:06:55.000Z</time>
      </trkpt>
      <trkpt lat="45.12054" lon="5.50765">
        <ele>1251</ele>
        <time>2022-08-12T15:06:56.000Z</time>
      </trkpt>
      <trkpt lat="45.12057" lon="5.50762">
        <ele>1251.9</ele>
        <time>2022-08-12T15:06:57.000Z</time>
      </trkpt>
      <trkpt lat="45.1206" lon="5.50761">
        <ele>1252.6</ele>
        <time>2022-08-12T15:06:58.000Z</time>
      </trkpt>
      <trkpt lat="45.12063" lon="5.5076">
        <ele>1253.1</ele>
        <time>2022-08-12T15:06:59.000Z</time>
      </trkpt>
      <trkpt lat="45.12071" lon="5.50759">
        <ele>1254</ele>
        <time>2022-08-12T15:07:01.000Z</time>
      </trkpt>
      <trkpt lat="45.12075" lon="5.5076">
        <ele>1254.3</ele>
        <time>2022-08-12T15:07:02.000Z</time>
      </trkpt>
      <trkpt lat="45.12086" lon="5.50763">
        <ele>1254.7</ele>
        <time>2022-08-12T15:07:06.000Z</time>
      </trkpt>
      <trkpt lat="45.12088" lon="5.50767">
        <ele>1254.1</ele>
        <time>2022-08-12T15:07:07.000Z</time>
      </trkpt>
      <trkpt lat="45.12089" lon="5.5077">
        <ele>1253.7</ele>
        <time>2022-08-12T15:07:08.000Z</time>
      </trkpt>
      <trkpt lat="45.12091" lon="5.50771">
        <ele>1253.5</ele>
        <time>2022-08-12T15:07:09.000Z</time>
      </trkpt>
      <trkpt lat="45.12099" lon="5.50779">
        <ele>1252.2</ele>
        <time>2022-08-12T15:07:12.000Z</time>
      </trkpt>
      <trkpt lat="45.12103" lon="5.50782">
        <ele>1251.9</ele>
        <time>2022-08-12T15:07:13.000Z</time>
      </trkpt>
      <trkpt lat="45.12107" lon="5.50784">
        <ele>1251.4</ele>
        <time>2022-08-12T15:07:14.000Z</time>
      </trkpt>
      <trkpt lat="45.12111" lon="5.50787">
        <ele>1251</ele>
        <time>2022-08-12T15:07:15.000Z</time>
      </trkpt>
      <trkpt lat="45.12123" lon="5.50788">
        <ele>1250.9</ele>
        <time>2022-08-12T15:07:19.000Z</time>
      </trkpt>
      <trkpt lat="45.12126" lon="5.50785">
        <ele>1251.5</ele>
        <time>2022-08-12T15:07:20.000Z</time>
      </trkpt>
      <trkpt lat="45.12135" lon="5.50785">
        <ele>1251.7</ele>
        <time>2022-08-12T15:07:23.000Z</time>
      </trkpt>
      <trkpt lat="45.12138" lon="5.50784">
        <ele>1251.8</ele>
        <time>2022-08-12T15:07:24.000Z</time>
      </trkpt>
      <trkpt lat="45.12141" lon="5.50784">
        <ele>1251.8</ele>
        <time>2022-08-12T15:07:25.000Z</time>
      </trkpt>
      <trkpt lat="45.12143" lon="5.50783">
        <ele>1251.8</ele>
        <time>2022-08-12T15:07:26.000Z</time>
      </trkpt>
      <trkpt lat="45.12146" lon="5.50782">
        <ele>1251.9</ele>
        <time>2022-08-12T15:07:27.000Z</time>
      </trkpt>
      <trkpt lat="45.12149" lon="5.50781">
        <ele>1252</ele>
        <time>2022-08-12T15:07:28.000Z</time>
      </trkpt>
      <trkpt lat="45.12152" lon="5.50779">
        <ele>1252.3</ele>
        <time>2022-08-12T15:07:29.000Z</time>
      </trkpt>
      <trkpt lat="45.12155" lon="5.50777">
        <ele>1252.5</ele>
        <time>2022-08-12T15:07:30.000Z</time>
      </trkpt>
      <trkpt lat="45.12158" lon="5.50776">
        <ele>1252.6</ele>
        <time>2022-08-12T15:07:31.000Z</time>
      </trkpt>
      <trkpt lat="45.12162" lon="5.50775">
        <ele>1252.7</ele>
        <time>2022-08-12T15:07:32.000Z</time>
      </trkpt>
      <trkpt lat="45.12165" lon="5.50774">
        <ele>1252.7</ele>
        <time>2022-08-12T15:07:33.000Z</time>
      </trkpt>
      <trkpt lat="45.12179" lon="5.50768">
        <ele>1252.7</ele>
        <time>2022-08-12T15:07:38.000Z</time>
      </trkpt>
      <trkpt lat="45.12186" lon="5.50764">
        <ele>1252.8</ele>
        <time>2022-08-12T15:07:41.000Z</time>
      </trkpt>
      <trkpt lat="45.12188" lon="5.50763">
        <ele>1252.7</ele>
        <time>2022-08-12T15:07:42.000Z</time>
      </trkpt>
      <trkpt lat="45.12192" lon="5.50759">
        <ele>1252.9</ele>
        <time>2022-08-12T15:07:44.000Z</time>
      </trkpt>
      <trkpt lat="45.12194" lon="5.50756">
        <ele>1253.1</ele>
        <time>2022-08-12T15:07:45.000Z</time>
      </trkpt>
      <trkpt lat="45.12198" lon="5.50751">
        <ele>1253.5</ele>
        <time>2022-08-12T15:07:47.000Z</time>
      </trkpt>
      <trkpt lat="45.12199" lon="5.50747">
        <ele>1253.9</ele>
        <time>2022-08-12T15:07:48.000Z</time>
      </trkpt>
      <trkpt lat="45.12201" lon="5.50741">
        <ele>1254.5</ele>
        <time>2022-08-12T15:07:50.000Z</time>
      </trkpt>
      <trkpt lat="45.12203" lon="5.50738">
        <ele>1254.6</ele>
        <time>2022-08-12T15:07:51.000Z</time>
      </trkpt>
      <trkpt lat="45.12212" lon="5.50721">
        <ele>1255.6</ele>
        <time>2022-08-12T15:07:56.000Z</time>
      </trkpt>
      <trkpt lat="45.12224" lon="5.50696">
        <ele>1256.5</ele>
        <time>2022-08-12T15:08:02.000Z</time>
      </trkpt>
      <trkpt lat="45.12226" lon="5.50692">
        <ele>1256.7</ele>
        <time>2022-08-12T15:08:03.000Z</time>
      </trkpt>
      <trkpt lat="45.12228" lon="5.5069">
        <ele>1256.5</ele>
        <time>2022-08-12T15:08:04.000Z</time>
      </trkpt>
      <trkpt lat="45.12237" lon="5.50679">
        <ele>1256.5</ele>
        <time>2022-08-12T15:08:07.000Z</time>
      </trkpt>
      <trkpt lat="45.12239" lon="5.50676">
        <ele>1256.7</ele>
        <time>2022-08-12T15:08:08.000Z</time>
      </trkpt>
      <trkpt lat="45.1224" lon="5.50674">
        <ele>1256.7</ele>
        <time>2022-08-12T15:08:09.000Z</time>
      </trkpt>
      <trkpt lat="45.12244" lon="5.50669">
        <ele>1256.7</ele>
        <time>2022-08-12T15:08:11.000Z</time>
      </trkpt>
      <trkpt lat="45.12247" lon="5.50667">
        <ele>1256.6</ele>
        <time>2022-08-12T15:08:12.000Z</time>
      </trkpt>
      <trkpt lat="45.1225" lon="5.50664">
        <ele>1256.6</ele>
        <time>2022-08-12T15:08:13.000Z</time>
      </trkpt>
      <trkpt lat="45.12263" lon="5.50651">
        <ele>1256.3</ele>
        <time>2022-08-12T15:08:18.000Z</time>
      </trkpt>
      <trkpt lat="45.1227" lon="5.50642">
        <ele>1256.2</ele>
        <time>2022-08-12T15:08:21.000Z</time>
      </trkpt>
      <trkpt lat="45.12273" lon="5.50638">
        <ele>1256.3</ele>
        <time>2022-08-12T15:08:22.000Z</time>
      </trkpt>
      <trkpt lat="45.12277" lon="5.50635">
        <ele>1256</ele>
        <time>2022-08-12T15:08:23.000Z</time>
      </trkpt>
      <trkpt lat="45.1228" lon="5.50631">
        <ele>1256.1</ele>
        <time>2022-08-12T15:08:24.000Z</time>
      </trkpt>
      <trkpt lat="45.12283" lon="5.50627">
        <ele>1256.5</ele>
        <time>2022-08-12T15:08:25.000Z</time>
      </trkpt>
      <trkpt lat="45.12285" lon="5.50623">
        <ele>1257</ele>
        <time>2022-08-12T15:08:26.000Z</time>
      </trkpt>
      <trkpt lat="45.12287" lon="5.50619">
        <ele>1257.5</ele>
        <time>2022-08-12T15:08:27.000Z</time>
      </trkpt>
      <trkpt lat="45.12289" lon="5.50614">
        <ele>1258.2</ele>
        <time>2022-08-12T15:08:28.000Z</time>
      </trkpt>
      <trkpt lat="45.1229" lon="5.5061">
        <ele>1258.9</ele>
        <time>2022-08-12T15:08:29.000Z</time>
      </trkpt>
      <trkpt lat="45.12292" lon="5.50606">
        <ele>1259.4</ele>
        <time>2022-08-12T15:08:30.000Z</time>
      </trkpt>
      <trkpt lat="45.12293" lon="5.50602">
        <ele>1260</ele>
        <time>2022-08-12T15:08:31.000Z</time>
      </trkpt>
      <trkpt lat="45.12294" lon="5.50598">
        <ele>1260.7</ele>
        <time>2022-08-12T15:08:32.000Z</time>
      </trkpt>
      <trkpt lat="45.12297" lon="5.50593">
        <ele>1261.2</ele>
        <time>2022-08-12T15:08:33.000Z</time>
      </trkpt>
      <trkpt lat="45.12298" lon="5.50589">
        <ele>1261.8</ele>
        <time>2022-08-12T15:08:34.000Z</time>
      </trkpt>
      <trkpt lat="45.123" lon="5.50585">
        <ele>1262.4</ele>
        <time>2022-08-12T15:08:35.000Z</time>
      </trkpt>
      <trkpt lat="45.123" lon="5.5058">
        <ele>1262.9</ele>
        <time>2022-08-12T15:08:36.000Z</time>
      </trkpt>
      <trkpt lat="45.12302" lon="5.50576">
        <ele>1263.2</ele>
        <time>2022-08-12T15:08:37.000Z</time>
      </trkpt>
      <trkpt lat="45.12303" lon="5.50573">
        <ele>1263.4</ele>
        <time>2022-08-12T15:08:38.000Z</time>
      </trkpt>
      <trkpt lat="45.12305" lon="5.50569">
        <ele>1263.6</ele>
        <time>2022-08-12T15:08:39.000Z</time>
      </trkpt>
      <trkpt lat="45.12308" lon="5.50566">
        <ele>1263.9</ele>
        <time>2022-08-12T15:08:40.000Z</time>
      </trkpt>
      <trkpt lat="45.12311" lon="5.50563">
        <ele>1264.1</ele>
        <time>2022-08-12T15:08:41.000Z</time>
      </trkpt>
      <trkpt lat="45.12314" lon="5.50562">
        <ele>1264.2</ele>
        <time>2022-08-12T15:08:42.000Z</time>
      </trkpt>
      <trkpt lat="45.12316" lon="5.50562">
        <ele>1264.2</ele>
        <time>2022-08-12T15:08:43.000Z</time>
      </trkpt>
      <trkpt lat="45.12319" lon="5.50563">
        <ele>1264.1</ele>
        <time>2022-08-12T15:08:44.000Z</time>
      </trkpt>
      <trkpt lat="45.12321" lon="5.50563">
        <ele>1264</ele>
        <time>2022-08-12T15:08:45.000Z</time>
      </trkpt>
      <trkpt lat="45.12323" lon="5.50564">
        <ele>1263.9</ele>
        <time>2022-08-12T15:08:46.000Z</time>
      </trkpt>
      <trkpt lat="45.12325" lon="5.50565">
        <ele>1263.8</ele>
        <time>2022-08-12T15:08:47.000Z</time>
      </trkpt>
      <trkpt lat="45.12328" lon="5.50566">
        <ele>1263.6</ele>
        <time>2022-08-12T15:08:48.000Z</time>
      </trkpt>
      <trkpt lat="45.12332" lon="5.50566">
        <ele>1263.5</ele>
        <time>2022-08-12T15:08:49.000Z</time>
      </trkpt>
      <trkpt lat="45.12335" lon="5.50567">
        <ele>1263.4</ele>
        <time>2022-08-12T15:08:50.000Z</time>
      </trkpt>
      <trkpt lat="45.12339" lon="5.50571">
        <ele>1263.1</ele>
        <time>2022-08-12T15:08:52.000Z</time>
      </trkpt>
      <trkpt lat="45.1234" lon="5.50573">
        <ele>1262.9</ele>
        <time>2022-08-12T15:08:53.000Z</time>
      </trkpt>
      <trkpt lat="45.12343" lon="5.50575">
        <ele>1262.6</ele>
        <time>2022-08-12T15:08:54.000Z</time>
      </trkpt>
      <trkpt lat="45.12346" lon="5.50577">
        <ele>1262.5</ele>
        <time>2022-08-12T15:08:55.000Z</time>
      </trkpt>
      <trkpt lat="45.1235" lon="5.5058">
        <ele>1262.2</ele>
        <time>2022-08-12T15:08:56.000Z</time>
      </trkpt>
      <trkpt lat="45.12354" lon="5.50582">
        <ele>1262</ele>
        <time>2022-08-12T15:08:57.000Z</time>
      </trkpt>
      <trkpt lat="45.12356" lon="5.50585">
        <ele>1261.5</ele>
        <time>2022-08-12T15:08:58.000Z</time>
      </trkpt>
      <trkpt lat="45.12358" lon="5.50589">
        <ele>1260.9</ele>
        <time>2022-08-12T15:08:59.000Z</time>
      </trkpt>
      <trkpt lat="45.1236" lon="5.50592">
        <ele>1260.4</ele>
        <time>2022-08-12T15:09:00.000Z</time>
      </trkpt>
      <trkpt lat="45.12363" lon="5.50593">
        <ele>1260.4</ele>
        <time>2022-08-12T15:09:01.000Z</time>
      </trkpt>
      <trkpt lat="45.12365" lon="5.50595">
        <ele>1260.3</ele>
        <time>2022-08-12T15:09:02.000Z</time>
      </trkpt>
      <trkpt lat="45.12368" lon="5.50596">
        <ele>1260.2</ele>
        <time>2022-08-12T15:09:03.000Z</time>
      </trkpt>
      <trkpt lat="45.1237" lon="5.50599">
        <ele>1259.8</ele>
        <time>2022-08-12T15:09:04.000Z</time>
      </trkpt>
      <trkpt lat="45.1237" lon="5.50604">
        <ele>1259</ele>
        <time>2022-08-12T15:09:05.000Z</time>
      </trkpt>
      <trkpt lat="45.12369" lon="5.50607">
        <ele>1258.3</ele>
        <time>2022-08-12T15:09:06.000Z</time>
      </trkpt>
      <trkpt lat="45.12372" lon="5.50611">
        <ele>1257.8</ele>
        <time>2022-08-12T15:09:08.000Z</time>
      </trkpt>
      <trkpt lat="45.12372" lon="5.50615">
        <ele>1257.1</ele>
        <time>2022-08-12T15:09:09.000Z</time>
      </trkpt>
      <trkpt lat="45.12374" lon="5.50617">
        <ele>1256.8</ele>
        <time>2022-08-12T15:09:10.000Z</time>
      </trkpt>
      <trkpt lat="45.12376" lon="5.50619">
        <ele>1256.6</ele>
        <time>2022-08-12T15:09:11.000Z</time>
      </trkpt>
      <trkpt lat="45.12378" lon="5.5062">
        <ele>1256.6</ele>
        <time>2022-08-12T15:09:12.000Z</time>
      </trkpt>
      <trkpt lat="45.1238" lon="5.50621">
        <ele>1256.5</ele>
        <time>2022-08-12T15:09:13.000Z</time>
      </trkpt>
      <trkpt lat="45.12382" lon="5.50622">
        <ele>1256.4</ele>
        <time>2022-08-12T15:09:14.000Z</time>
      </trkpt>
      <trkpt lat="45.12384" lon="5.50624">
        <ele>1256.3</ele>
        <time>2022-08-12T15:09:15.000Z</time>
      </trkpt>
      <trkpt lat="45.12386" lon="5.50625">
        <ele>1256.2</ele>
        <time>2022-08-12T15:09:16.000Z</time>
      </trkpt>
      <trkpt lat="45.12388" lon="5.50626">
        <ele>1256.2</ele>
        <time>2022-08-12T15:09:17.000Z</time>
      </trkpt>
      <trkpt lat="45.1239" lon="5.50626">
        <ele>1256.3</ele>
        <time>2022-08-12T15:09:18.000Z</time>
      </trkpt>
      <trkpt lat="45.12392" lon="5.50627">
        <ele>1256.4</ele>
        <time>2022-08-12T15:09:19.000Z</time>
      </trkpt>
      <trkpt lat="45.12394" lon="5.50627">
        <ele>1256.5</ele>
        <time>2022-08-12T15:09:20.000Z</time>
      </trkpt>
      <trkpt lat="45.12395" lon="5.50627">
        <ele>1256.5</ele>
        <time>2022-08-12T15:09:21.000Z</time>
      </trkpt>
      <trkpt lat="45.12397" lon="5.50628">
        <ele>1256.6</ele>
        <time>2022-08-12T15:09:22.000Z</time>
      </trkpt>
      <trkpt lat="45.12399" lon="5.50627">
        <ele>1256.8</ele>
        <time>2022-08-12T15:09:23.000Z</time>
      </trkpt>
      <trkpt lat="45.12401" lon="5.50627">
        <ele>1257</ele>
        <time>2022-08-12T15:09:24.000Z</time>
      </trkpt>
      <trkpt lat="45.12403" lon="5.50626">
        <ele>1257.4</ele>
        <time>2022-08-12T15:09:25.000Z</time>
      </trkpt>
      <trkpt lat="45.12405" lon="5.50625">
        <ele>1257.6</ele>
        <time>2022-08-12T15:09:26.000Z</time>
      </trkpt>
      <trkpt lat="45.12407" lon="5.50625">
        <ele>1257.8</ele>
        <time>2022-08-12T15:09:27.000Z</time>
      </trkpt>
      <trkpt lat="45.12408" lon="5.50625">
        <ele>1257.9</ele>
        <time>2022-08-12T15:09:28.000Z</time>
      </trkpt>
      <trkpt lat="45.1241" lon="5.50626">
        <ele>1257.8</ele>
        <time>2022-08-12T15:09:29.000Z</time>
      </trkpt>
      <trkpt lat="45.12412" lon="5.50628">
        <ele>1257.7</ele>
        <time>2022-08-12T15:09:30.000Z</time>
      </trkpt>
      <trkpt lat="45.12414" lon="5.5063">
        <ele>1257.5</ele>
        <time>2022-08-12T15:09:31.000Z</time>
      </trkpt>
      <trkpt lat="45.12417" lon="5.50632">
        <ele>1257.3</ele>
        <time>2022-08-12T15:09:32.000Z</time>
      </trkpt>
      <trkpt lat="45.12421" lon="5.50632">
        <ele>1257.4</ele>
        <time>2022-08-12T15:09:33.000Z</time>
      </trkpt>
      <trkpt lat="45.12424" lon="5.50633">
        <ele>1257.6</ele>
        <time>2022-08-12T15:09:34.000Z</time>
      </trkpt>
      <trkpt lat="45.12433" lon="5.50633">
        <ele>1258.1</ele>
        <time>2022-08-12T15:09:36.000Z</time>
      </trkpt>
      <trkpt lat="45.12438" lon="5.50632">
        <ele>1258.5</ele>
        <time>2022-08-12T15:09:37.000Z</time>
      </trkpt>
      <trkpt lat="45.12442" lon="5.5063">
        <ele>1259.1</ele>
        <time>2022-08-12T15:09:38.000Z</time>
      </trkpt>
      <trkpt lat="45.12446" lon="5.50627">
        <ele>1259.7</ele>
        <time>2022-08-12T15:09:39.000Z</time>
      </trkpt>
      <trkpt lat="45.1245" lon="5.50622">
        <ele>1260.4</ele>
        <time>2022-08-12T15:09:40.000Z</time>
      </trkpt>
      <trkpt lat="45.12454" lon="5.50617">
        <ele>1261.1</ele>
        <time>2022-08-12T15:09:41.000Z</time>
      </trkpt>
      <trkpt lat="45.12457" lon="5.50612">
        <ele>1261.8</ele>
        <time>2022-08-12T15:09:42.000Z</time>
      </trkpt>
      <trkpt lat="45.12461" lon="5.50604">
        <ele>1262.5</ele>
        <time>2022-08-12T15:09:43.000Z</time>
      </trkpt>
      <trkpt lat="45.12465" lon="5.50596">
        <ele>1262.8</ele>
        <time>2022-08-12T15:09:44.000Z</time>
      </trkpt>
      <trkpt lat="45.12472" lon="5.50579">
        <ele>1263.4</ele>
        <time>2022-08-12T15:09:46.000Z</time>
      </trkpt>
      <trkpt lat="45.12483" lon="5.50567">
        <ele>1264.2</ele>
        <time>2022-08-12T15:09:48.000Z</time>
      </trkpt>
      <trkpt lat="45.12488" lon="5.50566">
        <ele>1264.4</ele>
        <time>2022-08-12T15:09:49.000Z</time>
      </trkpt>
      <trkpt lat="45.12496" lon="5.50568">
        <ele>1264.2</ele>
        <time>2022-08-12T15:09:50.000Z</time>
      </trkpt>
      <trkpt lat="45.12506" lon="5.50581">
        <ele>1262.9</ele>
        <time>2022-08-12T15:09:52.000Z</time>
      </trkpt>
      <trkpt lat="45.12511" lon="5.50588">
        <ele>1262.3</ele>
        <time>2022-08-12T15:09:53.000Z</time>
      </trkpt>
      <trkpt lat="45.12517" lon="5.50595">
        <ele>1261.7</ele>
        <time>2022-08-12T15:09:54.000Z</time>
      </trkpt>
      <trkpt lat="45.12524" lon="5.50603">
        <ele>1260.4</ele>
        <time>2022-08-12T15:09:55.000Z</time>
      </trkpt>
      <trkpt lat="45.12532" lon="5.50623">
        <ele>1256.7</ele>
        <time>2022-08-12T15:09:57.000Z</time>
      </trkpt>
      <trkpt lat="45.12536" lon="5.50632">
        <ele>1254.9</ele>
        <time>2022-08-12T15:09:58.000Z</time>
      </trkpt>
      <trkpt lat="45.1254" lon="5.50642">
        <ele>1252.9</ele>
        <time>2022-08-12T15:09:59.000Z</time>
      </trkpt>
      <trkpt lat="45.12546" lon="5.50661">
        <ele>1248.8</ele>
        <time>2022-08-12T15:10:01.000Z</time>
      </trkpt>
      <trkpt lat="45.12549" lon="5.50671">
        <ele>1247.2</ele>
        <time>2022-08-12T15:10:02.000Z</time>
      </trkpt>
      <trkpt lat="45.12553" lon="5.50678">
        <ele>1246.2</ele>
        <time>2022-08-12T15:10:03.000Z</time>
      </trkpt>
      <trkpt lat="45.12559" lon="5.50687">
        <ele>1245.4</ele>
        <time>2022-08-12T15:10:04.000Z</time>
      </trkpt>
      <trkpt lat="45.12566" lon="5.50694">
        <ele>1245.2</ele>
        <time>2022-08-12T15:10:05.000Z</time>
      </trkpt>
      <trkpt lat="45.12572" lon="5.50699">
        <ele>1245.2</ele>
        <time>2022-08-12T15:10:06.000Z</time>
      </trkpt>
      <trkpt lat="45.12579" lon="5.50703">
        <ele>1245.7</ele>
        <time>2022-08-12T15:10:07.000Z</time>
      </trkpt>
      <trkpt lat="45.12587" lon="5.50705">
        <ele>1246.3</ele>
        <time>2022-08-12T15:10:08.000Z</time>
      </trkpt>
      <trkpt lat="45.12594" lon="5.50705">
        <ele>1247.2</ele>
        <time>2022-08-12T15:10:09.000Z</time>
      </trkpt>
      <trkpt lat="45.12602" lon="5.50705">
        <ele>1248.1</ele>
        <time>2022-08-12T15:10:10.000Z</time>
      </trkpt>
      <trkpt lat="45.12609" lon="5.50707">
        <ele>1248.9</ele>
        <time>2022-08-12T15:10:11.000Z</time>
      </trkpt>
      <trkpt lat="45.12616" lon="5.50711">
        <ele>1249.6</ele>
        <time>2022-08-12T15:10:12.000Z</time>
      </trkpt>
      <trkpt lat="45.12623" lon="5.50717">
        <ele>1250.1</ele>
        <time>2022-08-12T15:10:13.000Z</time>
      </trkpt>
      <trkpt lat="45.12626" lon="5.50726">
        <ele>1249.8</ele>
        <time>2022-08-12T15:10:14.000Z</time>
      </trkpt>
      <trkpt lat="45.12629" lon="5.50735">
        <ele>1249.3</ele>
        <time>2022-08-12T15:10:15.000Z</time>
      </trkpt>
      <trkpt lat="45.12631" lon="5.50743">
        <ele>1248.9</ele>
        <time>2022-08-12T15:10:16.000Z</time>
      </trkpt>
      <trkpt lat="45.12635" lon="5.50749">
        <ele>1248.7</ele>
        <time>2022-08-12T15:10:17.000Z</time>
      </trkpt>
      <trkpt lat="45.1264" lon="5.50752">
        <ele>1248.9</ele>
        <time>2022-08-12T15:10:18.000Z</time>
      </trkpt>
      <trkpt lat="45.12644" lon="5.50753">
        <ele>1249.5</ele>
        <time>2022-08-12T15:10:19.000Z</time>
      </trkpt>
      <trkpt lat="45.12646" lon="5.50753">
        <ele>1249.8</ele>
        <time>2022-08-12T15:10:20.000Z</time>
      </trkpt>
      <trkpt lat="45.12649" lon="5.50754">
        <ele>1250.1</ele>
        <time>2022-08-12T15:10:21.000Z</time>
      </trkpt>
      <trkpt lat="45.12653" lon="5.50755">
        <ele>1250.4</ele>
        <time>2022-08-12T15:10:22.000Z</time>
      </trkpt>
      <trkpt lat="45.12655" lon="5.50756">
        <ele>1250.6</ele>
        <time>2022-08-12T15:10:23.000Z</time>
      </trkpt>
      <trkpt lat="45.12657" lon="5.50757">
        <ele>1250.5</ele>
        <time>2022-08-12T15:10:24.000Z</time>
      </trkpt>
      <trkpt lat="45.12657" lon="5.50758">
        <ele>1250.5</ele>
        <time>2022-08-12T15:10:25.000Z</time>
      </trkpt>
      <trkpt lat="45.12659" lon="5.50759">
        <ele>1250.5</ele>
        <time>2022-08-12T15:10:26.000Z</time>
      </trkpt>
      <trkpt lat="45.1266" lon="5.5076">
        <ele>1250.5</ele>
        <time>2022-08-12T15:10:27.000Z</time>
      </trkpt>
      <trkpt lat="45.12661" lon="5.50761">
        <ele>1250.5</ele>
        <time>2022-08-12T15:10:28.000Z</time>
      </trkpt>
      <trkpt lat="45.12663" lon="5.50762">
        <ele>1250.6</ele>
        <time>2022-08-12T15:10:30.000Z</time>
      </trkpt>
      <trkpt lat="45.12665" lon="5.50762">
        <ele>1250.7</ele>
        <time>2022-08-12T15:10:31.000Z</time>
      </trkpt>
      <trkpt lat="45.12666" lon="5.50762">
        <ele>1250.8</ele>
        <time>2022-08-12T15:10:32.000Z</time>
      </trkpt>
      <trkpt lat="45.12668" lon="5.50763">
        <ele>1250.8</ele>
        <time>2022-08-12T15:10:33.000Z</time>
      </trkpt>
      <trkpt lat="45.12669" lon="5.50763">
        <ele>1250.7</ele>
        <time>2022-08-12T15:10:34.000Z</time>
      </trkpt>
      <trkpt lat="45.1267" lon="5.50763">
        <ele>1250.8</ele>
        <time>2022-08-12T15:10:35.000Z</time>
      </trkpt>
      <trkpt lat="45.12671" lon="5.50763">
        <ele>1251</ele>
        <time>2022-08-12T15:10:36.000Z</time>
      </trkpt>
      <trkpt lat="45.12672" lon="5.50763">
        <ele>1251</ele>
        <time>2022-08-12T15:10:37.000Z</time>
      </trkpt>
      <trkpt lat="45.12673" lon="5.50763">
        <ele>1251</ele>
        <time>2022-08-12T15:10:38.000Z</time>
      </trkpt>
      <trkpt lat="45.12674" lon="5.50763">
        <ele>1251</ele>
        <time>2022-08-12T15:10:39.000Z</time>
      </trkpt>
      <trkpt lat="45.12674" lon="5.50764">
        <ele>1251</ele>
        <time>2022-08-12T15:10:40.000Z</time>
      </trkpt>
      <trkpt lat="45.12675" lon="5.50764">
        <ele>1250.9</ele>
        <time>2022-08-12T15:10:41.000Z</time>
      </trkpt>
      <trkpt lat="45.12677" lon="5.50764">
        <ele>1251.1</ele>
        <time>2022-08-12T15:10:42.000Z</time>
      </trkpt>
      <trkpt lat="45.12679" lon="5.50764">
        <ele>1251.1</ele>
        <time>2022-08-12T15:10:43.000Z</time>
      </trkpt>
      <trkpt lat="45.1268" lon="5.50764">
        <ele>1251.2</ele>
        <time>2022-08-12T15:10:44.000Z</time>
      </trkpt>
      <trkpt lat="45.12681" lon="5.50764">
        <ele>1251.3</ele>
        <time>2022-08-12T15:10:45.000Z</time>
      </trkpt>
      <trkpt lat="45.12682" lon="5.50763">
        <ele>1251.6</ele>
        <time>2022-08-12T15:10:46.000Z</time>
      </trkpt>
      <trkpt lat="45.12684" lon="5.50762">
        <ele>1251.8</ele>
        <time>2022-08-12T15:10:47.000Z</time>
      </trkpt>
      <trkpt lat="45.12685" lon="5.50761">
        <ele>1252</ele>
        <time>2022-08-12T15:10:48.000Z</time>
      </trkpt>
      <trkpt lat="45.12686" lon="5.50761">
        <ele>1252.1</ele>
        <time>2022-08-12T15:10:49.000Z</time>
      </trkpt>
      <trkpt lat="45.12687" lon="5.50761">
        <ele>1252.3</ele>
        <time>2022-08-12T15:10:50.000Z</time>
      </trkpt>
      <trkpt lat="45.12689" lon="5.5076">
        <ele>1252.5</ele>
        <time>2022-08-12T15:10:51.000Z</time>
      </trkpt>
      <trkpt lat="45.1269" lon="5.50759">
        <ele>1252.7</ele>
        <time>2022-08-12T15:10:52.000Z</time>
      </trkpt>
      <trkpt lat="45.12691" lon="5.50757">
        <ele>1253.2</ele>
        <time>2022-08-12T15:10:54.000Z</time>
      </trkpt>
      <trkpt lat="45.12691" lon="5.50756">
        <ele>1253.5</ele>
        <time>2022-08-12T15:10:55.000Z</time>
      </trkpt>
      <trkpt lat="45.12692" lon="5.50755">
        <ele>1253.8</ele>
        <time>2022-08-12T15:10:56.000Z</time>
      </trkpt>
      <trkpt lat="45.12693" lon="5.50753">
        <ele>1254.1</ele>
        <time>2022-08-12T15:10:57.000Z</time>
      </trkpt>
      <trkpt lat="45.12694" lon="5.50753">
        <ele>1254.3</ele>
        <time>2022-08-12T15:10:58.000Z</time>
      </trkpt>
      <trkpt lat="45.12695" lon="5.50753">
        <ele>1254.3</ele>
        <time>2022-08-12T15:10:59.000Z</time>
      </trkpt>
      <trkpt lat="45.12695" lon="5.50754">
        <ele>1254.3</ele>
        <time>2022-08-12T15:11:00.000Z</time>
      </trkpt>
      <trkpt lat="45.12696" lon="5.50754">
        <ele>1254.2</ele>
        <time>2022-08-12T15:11:01.000Z</time>
      </trkpt>
      <trkpt lat="45.12697" lon="5.50755">
        <ele>1254.2</ele>
        <time>2022-08-12T15:11:02.000Z</time>
      </trkpt>
      <trkpt lat="45.12698" lon="5.50754">
        <ele>1254.3</ele>
        <time>2022-08-12T15:11:03.000Z</time>
      </trkpt>
      <trkpt lat="45.12699" lon="5.50753">
        <ele>1254.7</ele>
        <time>2022-08-12T15:11:04.000Z</time>
      </trkpt>
      <trkpt lat="45.127" lon="5.50752">
        <ele>1254.9</ele>
        <time>2022-08-12T15:11:05.000Z</time>
      </trkpt>
      <trkpt lat="45.12701" lon="5.50752">
        <ele>1255</ele>
        <time>2022-08-12T15:11:06.000Z</time>
      </trkpt>
      <trkpt lat="45.12702" lon="5.50751">
        <ele>1255.3</ele>
        <time>2022-08-12T15:11:08.000Z</time>
      </trkpt>
      <trkpt lat="45.12703" lon="5.5075">
        <ele>1255.6</ele>
        <time>2022-08-12T15:11:09.000Z</time>
      </trkpt>
      <trkpt lat="45.12704" lon="5.5075">
        <ele>1255.8</ele>
        <time>2022-08-12T15:11:10.000Z</time>
      </trkpt>
      <trkpt lat="45.12705" lon="5.50749">
        <ele>1256</ele>
        <time>2022-08-12T15:11:11.000Z</time>
      </trkpt>
      <trkpt lat="45.12706" lon="5.50748">
        <ele>1256.3</ele>
        <time>2022-08-12T15:11:12.000Z</time>
      </trkpt>
      <trkpt lat="45.12707" lon="5.50746">
        <ele>1256.7</ele>
        <time>2022-08-12T15:11:13.000Z</time>
      </trkpt>
      <trkpt lat="45.12709" lon="5.50746">
        <ele>1256.9</ele>
        <time>2022-08-12T15:11:14.000Z</time>
      </trkpt>
      <trkpt lat="45.1271" lon="5.50745">
        <ele>1257.2</ele>
        <time>2022-08-12T15:11:15.000Z</time>
      </trkpt>
      <trkpt lat="45.12711" lon="5.50744">
        <ele>1257.4</ele>
        <time>2022-08-12T15:11:16.000Z</time>
      </trkpt>
      <trkpt lat="45.12712" lon="5.50744">
        <ele>1257.4</ele>
        <time>2022-08-12T15:11:17.000Z</time>
      </trkpt>
      <trkpt lat="45.12713" lon="5.50743">
        <ele>1257.7</ele>
        <time>2022-08-12T15:11:18.000Z</time>
      </trkpt>
      <trkpt lat="45.12714" lon="5.50742">
        <ele>1258.1</ele>
        <time>2022-08-12T15:11:19.000Z</time>
      </trkpt>
      <trkpt lat="45.12716" lon="5.50742">
        <ele>1258.2</ele>
        <time>2022-08-12T15:11:20.000Z</time>
      </trkpt>
      <trkpt lat="45.12716" lon="5.50741">
        <ele>1258.4</ele>
        <time>2022-08-12T15:11:21.000Z</time>
      </trkpt>
      <trkpt lat="45.12717" lon="5.5074">
        <ele>1258.7</ele>
        <time>2022-08-12T15:11:22.000Z</time>
      </trkpt>
      <trkpt lat="45.12718" lon="5.50739">
        <ele>1259</ele>
        <time>2022-08-12T15:11:23.000Z</time>
      </trkpt>
      <trkpt lat="45.1272" lon="5.50738">
        <ele>1259.3</ele>
        <time>2022-08-12T15:11:24.000Z</time>
      </trkpt>
      <trkpt lat="45.12721" lon="5.50737">
        <ele>1259.7</ele>
        <time>2022-08-12T15:11:25.000Z</time>
      </trkpt>
      <trkpt lat="45.12722" lon="5.50737">
        <ele>1259.9</ele>
        <time>2022-08-12T15:11:26.000Z</time>
      </trkpt>
      <trkpt lat="45.12722" lon="5.50736">
        <ele>1260</ele>
        <time>2022-08-12T15:11:27.000Z</time>
      </trkpt>
      <trkpt lat="45.12724" lon="5.50736">
        <ele>1260.1</ele>
        <time>2022-08-12T15:11:28.000Z</time>
      </trkpt>
      <trkpt lat="45.12725" lon="5.50735">
        <ele>1260.3</ele>
        <time>2022-08-12T15:11:29.000Z</time>
      </trkpt>
      <trkpt lat="45.12726" lon="5.50734">
        <ele>1260.4</ele>
        <time>2022-08-12T15:11:30.000Z</time>
      </trkpt>
      <trkpt lat="45.12727" lon="5.50733">
        <ele>1260.6</ele>
        <time>2022-08-12T15:11:31.000Z</time>
      </trkpt>
      <trkpt lat="45.12728" lon="5.50733">
        <ele>1260.8</ele>
        <time>2022-08-12T15:11:32.000Z</time>
      </trkpt>
      <trkpt lat="45.12729" lon="5.50732">
        <ele>1260.9</ele>
        <time>2022-08-12T15:11:33.000Z</time>
      </trkpt>
      <trkpt lat="45.1273" lon="5.50732">
        <ele>1261</ele>
        <time>2022-08-12T15:11:34.000Z</time>
      </trkpt>
      <trkpt lat="45.12731" lon="5.50731">
        <ele>1261.3</ele>
        <time>2022-08-12T15:11:35.000Z</time>
      </trkpt>
      <trkpt lat="45.12732" lon="5.50729">
        <ele>1261.6</ele>
        <time>2022-08-12T15:11:36.000Z</time>
      </trkpt>
      <trkpt lat="45.12732" lon="5.50728">
        <ele>1261.8</ele>
        <time>2022-08-12T15:11:37.000Z</time>
      </trkpt>
      <trkpt lat="45.12734" lon="5.50728">
        <ele>1261.9</ele>
        <time>2022-08-12T15:11:38.000Z</time>
      </trkpt>
      <trkpt lat="45.12735" lon="5.50728">
        <ele>1261.9</ele>
        <time>2022-08-12T15:11:39.000Z</time>
      </trkpt>
      <trkpt lat="45.12736" lon="5.50727">
        <ele>1262</ele>
        <time>2022-08-12T15:11:40.000Z</time>
      </trkpt>
      <trkpt lat="45.12737" lon="5.50726">
        <ele>1262.3</ele>
        <time>2022-08-12T15:11:41.000Z</time>
      </trkpt>
      <trkpt lat="45.12738" lon="5.50725">
        <ele>1262.5</ele>
        <time>2022-08-12T15:11:42.000Z</time>
      </trkpt>
      <trkpt lat="45.12739" lon="5.50724">
        <ele>1262.7</ele>
        <time>2022-08-12T15:11:43.000Z</time>
      </trkpt>
      <trkpt lat="45.1274" lon="5.50723">
        <ele>1262.9</ele>
        <time>2022-08-12T15:11:44.000Z</time>
      </trkpt>
      <trkpt lat="45.1274" lon="5.50722">
        <ele>1263</ele>
        <time>2022-08-12T15:11:45.000Z</time>
      </trkpt>
      <trkpt lat="45.12741" lon="5.50721">
        <ele>1263.3</ele>
        <time>2022-08-12T15:11:47.000Z</time>
      </trkpt>
      <trkpt lat="45.12742" lon="5.5072">
        <ele>1263.6</ele>
        <time>2022-08-12T15:11:48.000Z</time>
      </trkpt>
      <trkpt lat="45.12743" lon="5.50719">
        <ele>1263.9</ele>
        <time>2022-08-12T15:11:49.000Z</time>
      </trkpt>
      <trkpt lat="45.12744" lon="5.50718">
        <ele>1264.1</ele>
        <time>2022-08-12T15:11:50.000Z</time>
      </trkpt>
      <trkpt lat="45.12745" lon="5.50716">
        <ele>1264.4</ele>
        <time>2022-08-12T15:11:51.000Z</time>
      </trkpt>
      <trkpt lat="45.12746" lon="5.50716">
        <ele>1264.6</ele>
        <time>2022-08-12T15:11:52.000Z</time>
      </trkpt>
      <trkpt lat="45.12747" lon="5.50715">
        <ele>1264.7</ele>
        <time>2022-08-12T15:11:53.000Z</time>
      </trkpt>
      <trkpt lat="45.12748" lon="5.50715">
        <ele>1264.8</ele>
        <time>2022-08-12T15:11:54.000Z</time>
      </trkpt>
      <trkpt lat="45.12749" lon="5.50714">
        <ele>1265.1</ele>
        <time>2022-08-12T15:11:55.000Z</time>
      </trkpt>
      <trkpt lat="45.1275" lon="5.50713">
        <ele>1265.3</ele>
        <time>2022-08-12T15:11:56.000Z</time>
      </trkpt>
      <trkpt lat="45.12751" lon="5.50712">
        <ele>1265.5</ele>
        <time>2022-08-12T15:11:57.000Z</time>
      </trkpt>
      <trkpt lat="45.12752" lon="5.50711">
        <ele>1265.7</ele>
        <time>2022-08-12T15:11:58.000Z</time>
      </trkpt>
      <trkpt lat="45.12753" lon="5.50711">
        <ele>1265.7</ele>
        <time>2022-08-12T15:11:59.000Z</time>
      </trkpt>
      <trkpt lat="45.12755" lon="5.50709">
        <ele>1266</ele>
        <time>2022-08-12T15:12:00.000Z</time>
      </trkpt>
      <trkpt lat="45.12756" lon="5.50709">
        <ele>1265.9</ele>
        <time>2022-08-12T15:12:02.000Z</time>
      </trkpt>
      <trkpt lat="45.12758" lon="5.50708">
        <ele>1266.2</ele>
        <time>2022-08-12T15:12:03.000Z</time>
      </trkpt>
      <trkpt lat="45.12759" lon="5.50706">
        <ele>1266.6</ele>
        <time>2022-08-12T15:12:04.000Z</time>
      </trkpt>
      <trkpt lat="45.1276" lon="5.50705">
        <ele>1266.8</ele>
        <time>2022-08-12T15:12:05.000Z</time>
      </trkpt>
      <trkpt lat="45.12761" lon="5.50703">
        <ele>1267.1</ele>
        <time>2022-08-12T15:12:06.000Z</time>
      </trkpt>
      <trkpt lat="45.12762" lon="5.50702">
        <ele>1267.3</ele>
        <time>2022-08-12T15:12:07.000Z</time>
      </trkpt>
      <trkpt lat="45.12763" lon="5.50701">
        <ele>1267.5</ele>
        <time>2022-08-12T15:12:08.000Z</time>
      </trkpt>
      <trkpt lat="45.12764" lon="5.50701">
        <ele>1267.5</ele>
        <time>2022-08-12T15:12:09.000Z</time>
      </trkpt>
      <trkpt lat="45.12764" lon="5.507">
        <ele>1267.8</ele>
        <time>2022-08-12T15:12:10.000Z</time>
      </trkpt>
      <trkpt lat="45.12765" lon="5.50698">
        <ele>1268.1</ele>
        <time>2022-08-12T15:12:11.000Z</time>
      </trkpt>
      <trkpt lat="45.12766" lon="5.50697">
        <ele>1268.2</ele>
        <time>2022-08-12T15:12:12.000Z</time>
      </trkpt>
      <trkpt lat="45.12767" lon="5.50696">
        <ele>1268.4</ele>
        <time>2022-08-12T15:12:13.000Z</time>
      </trkpt>
      <trkpt lat="45.12768" lon="5.50695">
        <ele>1268.5</ele>
        <time>2022-08-12T15:12:14.000Z</time>
      </trkpt>
      <trkpt lat="45.12769" lon="5.50695">
        <ele>1268.5</ele>
        <time>2022-08-12T15:12:15.000Z</time>
      </trkpt>
      <trkpt lat="45.1277" lon="5.50694">
        <ele>1268.6</ele>
        <time>2022-08-12T15:12:16.000Z</time>
      </trkpt>
      <trkpt lat="45.12772" lon="5.50694">
        <ele>1268.7</ele>
        <time>2022-08-12T15:12:17.000Z</time>
      </trkpt>
      <trkpt lat="45.12773" lon="5.50692">
        <ele>1268.9</ele>
        <time>2022-08-12T15:12:18.000Z</time>
      </trkpt>
      <trkpt lat="45.12774" lon="5.50691">
        <ele>1269</ele>
        <time>2022-08-12T15:12:19.000Z</time>
      </trkpt>
      <trkpt lat="45.12775" lon="5.5069">
        <ele>1269.1</ele>
        <time>2022-08-12T15:12:20.000Z</time>
      </trkpt>
      <trkpt lat="45.12776" lon="5.50689">
        <ele>1269.3</ele>
        <time>2022-08-12T15:12:21.000Z</time>
      </trkpt>
      <trkpt lat="45.12777" lon="5.50688">
        <ele>1269.4</ele>
        <time>2022-08-12T15:12:22.000Z</time>
      </trkpt>
      <trkpt lat="45.12778" lon="5.50687">
        <ele>1269.4</ele>
        <time>2022-08-12T15:12:23.000Z</time>
      </trkpt>
      <trkpt lat="45.12779" lon="5.50687">
        <ele>1269.3</ele>
        <time>2022-08-12T15:12:24.000Z</time>
      </trkpt>
      <trkpt lat="45.12781" lon="5.50685">
        <ele>1269.4</ele>
        <time>2022-08-12T15:12:25.000Z</time>
      </trkpt>
      <trkpt lat="45.12781" lon="5.50684">
        <ele>1269.6</ele>
        <time>2022-08-12T15:12:26.000Z</time>
      </trkpt>
      <trkpt lat="45.12782" lon="5.50682">
        <ele>1269.8</ele>
        <time>2022-08-12T15:12:27.000Z</time>
      </trkpt>
      <trkpt lat="45.12783" lon="5.50681">
        <ele>1270</ele>
        <time>2022-08-12T15:12:28.000Z</time>
      </trkpt>
      <trkpt lat="45.12784" lon="5.50679">
        <ele>1270.1</ele>
        <time>2022-08-12T15:12:29.000Z</time>
      </trkpt>
      <trkpt lat="45.12784" lon="5.50678">
        <ele>1270.2</ele>
        <time>2022-08-12T15:12:30.000Z</time>
      </trkpt>
      <trkpt lat="45.12785" lon="5.50677">
        <ele>1270.3</ele>
        <time>2022-08-12T15:12:31.000Z</time>
      </trkpt>
      <trkpt lat="45.12786" lon="5.50675">
        <ele>1270.5</ele>
        <time>2022-08-12T15:12:32.000Z</time>
      </trkpt>
      <trkpt lat="45.12787" lon="5.50674">
        <ele>1270.5</ele>
        <time>2022-08-12T15:12:33.000Z</time>
      </trkpt>
      <trkpt lat="45.12788" lon="5.50673">
        <ele>1270.6</ele>
        <time>2022-08-12T15:12:34.000Z</time>
      </trkpt>
      <trkpt lat="45.12789" lon="5.50672">
        <ele>1270.8</ele>
        <time>2022-08-12T15:12:35.000Z</time>
      </trkpt>
      <trkpt lat="45.12791" lon="5.50667">
        <ele>1271.6</ele>
        <time>2022-08-12T15:12:38.000Z</time>
      </trkpt>
      <trkpt lat="45.12791" lon="5.50666">
        <ele>1271.7</ele>
        <time>2022-08-12T15:12:39.000Z</time>
      </trkpt>
      <trkpt lat="45.12793" lon="5.50663">
        <ele>1271.9</ele>
        <time>2022-08-12T15:12:42.000Z</time>
      </trkpt>
      <trkpt lat="45.12794" lon="5.50662">
        <ele>1271.9</ele>
        <time>2022-08-12T15:12:43.000Z</time>
      </trkpt>
      <trkpt lat="45.12795" lon="5.5066">
        <ele>1272.1</ele>
        <time>2022-08-12T15:12:44.000Z</time>
      </trkpt>
      <trkpt lat="45.12795" lon="5.50659">
        <ele>1272.1</ele>
        <time>2022-08-12T15:12:45.000Z</time>
      </trkpt>
      <trkpt lat="45.12796" lon="5.50658">
        <ele>1272.1</ele>
        <time>2022-08-12T15:12:46.000Z</time>
      </trkpt>
      <trkpt lat="45.12797" lon="5.50656">
        <ele>1272.3</ele>
        <time>2022-08-12T15:12:47.000Z</time>
      </trkpt>
      <trkpt lat="45.12797" lon="5.50655">
        <ele>1272.5</ele>
        <time>2022-08-12T15:12:48.000Z</time>
      </trkpt>
      <trkpt lat="45.12798" lon="5.50651">
        <ele>1273</ele>
        <time>2022-08-12T15:12:50.000Z</time>
      </trkpt>
      <trkpt lat="45.12799" lon="5.5065">
        <ele>1273</ele>
        <time>2022-08-12T15:12:51.000Z</time>
      </trkpt>
      <trkpt lat="45.128" lon="5.50649">
        <ele>1273.1</ele>
        <time>2022-08-12T15:12:52.000Z</time>
      </trkpt>
      <trkpt lat="45.128" lon="5.50647">
        <ele>1273.3</ele>
        <time>2022-08-12T15:12:53.000Z</time>
      </trkpt>
      <trkpt lat="45.12801" lon="5.50643">
        <ele>1273.9</ele>
        <time>2022-08-12T15:12:55.000Z</time>
      </trkpt>
      <trkpt lat="45.12801" lon="5.50642">
        <ele>1274</ele>
        <time>2022-08-12T15:12:56.000Z</time>
      </trkpt>
      <trkpt lat="45.12802" lon="5.50641">
        <ele>1274.2</ele>
        <time>2022-08-12T15:12:57.000Z</time>
      </trkpt>
      <trkpt lat="45.12802" lon="5.5064">
        <ele>1274.4</ele>
        <time>2022-08-12T15:12:58.000Z</time>
      </trkpt>
      <trkpt lat="45.12803" lon="5.50639">
        <ele>1274.5</ele>
        <time>2022-08-12T15:12:59.000Z</time>
      </trkpt>
      <trkpt lat="45.12803" lon="5.50637">
        <ele>1274.6</ele>
        <time>2022-08-12T15:13:00.000Z</time>
      </trkpt>
      <trkpt lat="45.12803" lon="5.50635">
        <ele>1274.7</ele>
        <time>2022-08-12T15:13:01.000Z</time>
      </trkpt>
      <trkpt lat="45.12804" lon="5.50634">
        <ele>1274.8</ele>
        <time>2022-08-12T15:13:02.000Z</time>
      </trkpt>
      <trkpt lat="45.12804" lon="5.50632">
        <ele>1274.9</ele>
        <time>2022-08-12T15:13:03.000Z</time>
      </trkpt>
      <trkpt lat="45.12805" lon="5.50629">
        <ele>1275.1</ele>
        <time>2022-08-12T15:13:05.000Z</time>
      </trkpt>
      <trkpt lat="45.12805" lon="5.50628">
        <ele>1275.2</ele>
        <time>2022-08-12T15:13:06.000Z</time>
      </trkpt>
      <trkpt lat="45.12806" lon="5.50627">
        <ele>1275.2</ele>
        <time>2022-08-12T15:13:07.000Z</time>
      </trkpt>
      <trkpt lat="45.12806" lon="5.50626">
        <ele>1275.3</ele>
        <time>2022-08-12T15:13:08.000Z</time>
      </trkpt>
      <trkpt lat="45.12807" lon="5.50625">
        <ele>1275.3</ele>
        <time>2022-08-12T15:13:09.000Z</time>
      </trkpt>
      <trkpt lat="45.12808" lon="5.50624">
        <ele>1275.4</ele>
        <time>2022-08-12T15:13:10.000Z</time>
      </trkpt>
      <trkpt lat="45.12808" lon="5.50622">
        <ele>1275.5</ele>
        <time>2022-08-12T15:13:11.000Z</time>
      </trkpt>
      <trkpt lat="45.12808" lon="5.50619">
        <ele>1275.9</ele>
        <time>2022-08-12T15:13:13.000Z</time>
      </trkpt>
      <trkpt lat="45.12811" lon="5.50616">
        <ele>1275.9</ele>
        <time>2022-08-12T15:13:15.000Z</time>
      </trkpt>
      <trkpt lat="45.12812" lon="5.50615">
        <ele>1275.9</ele>
        <time>2022-08-12T15:13:16.000Z</time>
      </trkpt>
      <trkpt lat="45.12812" lon="5.50613">
        <ele>1276.1</ele>
        <time>2022-08-12T15:13:17.000Z</time>
      </trkpt>
      <trkpt lat="45.12817" lon="5.50608">
        <ele>1276.1</ele>
        <time>2022-08-12T15:13:21.000Z</time>
      </trkpt>
      <trkpt lat="45.12819" lon="5.50605">
        <ele>1276</ele>
        <time>2022-08-12T15:13:24.000Z</time>
      </trkpt>
      <trkpt lat="45.1282" lon="5.50604">
        <ele>1276.1</ele>
        <time>2022-08-12T15:13:25.000Z</time>
      </trkpt>
      <trkpt lat="45.12821" lon="5.50604">
        <ele>1276</ele>
        <time>2022-08-12T15:13:26.000Z</time>
      </trkpt>
      <trkpt lat="45.12825" lon="5.50603">
        <ele>1275.7</ele>
        <time>2022-08-12T15:13:28.000Z</time>
      </trkpt>
      <trkpt lat="45.12827" lon="5.50603">
        <ele>1275.5</ele>
        <time>2022-08-12T15:13:29.000Z</time>
      </trkpt>
      <trkpt lat="45.12828" lon="5.50603">
        <ele>1275.3</ele>
        <time>2022-08-12T15:13:30.000Z</time>
      </trkpt>
      <trkpt lat="45.1283" lon="5.50604">
        <ele>1275.1</ele>
        <time>2022-08-12T15:13:31.000Z</time>
      </trkpt>
      <trkpt lat="45.12831" lon="5.50605">
        <ele>1274.9</ele>
        <time>2022-08-12T15:13:32.000Z</time>
      </trkpt>
      <trkpt lat="45.12832" lon="5.50606">
        <ele>1274.7</ele>
        <time>2022-08-12T15:13:33.000Z</time>
      </trkpt>
      <trkpt lat="45.12834" lon="5.50607">
        <ele>1274.4</ele>
        <time>2022-08-12T15:13:34.000Z</time>
      </trkpt>
      <trkpt lat="45.12836" lon="5.50608">
        <ele>1274.2</ele>
        <time>2022-08-12T15:13:35.000Z</time>
      </trkpt>
      <trkpt lat="45.12837" lon="5.5061">
        <ele>1274</ele>
        <time>2022-08-12T15:13:36.000Z</time>
      </trkpt>
      <trkpt lat="45.12838" lon="5.50612">
        <ele>1273.7</ele>
        <time>2022-08-12T15:13:37.000Z</time>
      </trkpt>
      <trkpt lat="45.12839" lon="5.50614">
        <ele>1273.3</ele>
        <time>2022-08-12T15:13:38.000Z</time>
      </trkpt>
      <trkpt lat="45.1284" lon="5.50615">
        <ele>1273.2</ele>
        <time>2022-08-12T15:13:39.000Z</time>
      </trkpt>
      <trkpt lat="45.12852" lon="5.5062">
        <ele>1271.9</ele>
        <time>2022-08-12T15:13:45.000Z</time>
      </trkpt>
      <trkpt lat="45.12853" lon="5.50621">
        <ele>1271.6</ele>
        <time>2022-08-12T15:13:46.000Z</time>
      </trkpt>
      <trkpt lat="45.12855" lon="5.50622">
        <ele>1271.3</ele>
        <time>2022-08-12T15:13:47.000Z</time>
      </trkpt>
      <trkpt lat="45.12857" lon="5.50622">
        <ele>1271.2</ele>
        <time>2022-08-12T15:13:48.000Z</time>
      </trkpt>
      <trkpt lat="45.1286" lon="5.50619">
        <ele>1271.6</ele>
        <time>2022-08-12T15:13:50.000Z</time>
      </trkpt>
      <trkpt lat="45.12863" lon="5.5062">
        <ele>1271.4</ele>
        <time>2022-08-12T15:13:51.000Z</time>
      </trkpt>
      <trkpt lat="45.12865" lon="5.50619">
        <ele>1271.5</ele>
        <time>2022-08-12T15:13:52.000Z</time>
      </trkpt>
      <trkpt lat="45.12867" lon="5.50619">
        <ele>1271.4</ele>
        <time>2022-08-12T15:13:53.000Z</time>
      </trkpt>
      <trkpt lat="45.12869" lon="5.50619">
        <ele>1271.4</ele>
        <time>2022-08-12T15:13:54.000Z</time>
      </trkpt>
      <trkpt lat="45.1287" lon="5.50619">
        <ele>1271.3</ele>
        <time>2022-08-12T15:13:55.000Z</time>
      </trkpt>
      <trkpt lat="45.12872" lon="5.50619">
        <ele>1271.4</ele>
        <time>2022-08-12T15:13:56.000Z</time>
      </trkpt>
      <trkpt lat="45.12874" lon="5.50619">
        <ele>1271.3</ele>
        <time>2022-08-12T15:13:57.000Z</time>
      </trkpt>
      <trkpt lat="45.12878" lon="5.50621">
        <ele>1270.8</ele>
        <time>2022-08-12T15:13:59.000Z</time>
      </trkpt>
      <trkpt lat="45.12886" lon="5.50619">
        <ele>1271.1</ele>
        <time>2022-08-12T15:14:03.000Z</time>
      </trkpt>
      <trkpt lat="45.12888" lon="5.50618">
        <ele>1271.3</ele>
        <time>2022-08-12T15:14:04.000Z</time>
      </trkpt>
      <trkpt lat="45.12892" lon="5.50617">
        <ele>1271.3</ele>
        <time>2022-08-12T15:14:06.000Z</time>
      </trkpt>
      <trkpt lat="45.12899" lon="5.50613">
        <ele>1271.7</ele>
        <time>2022-08-12T15:14:10.000Z</time>
      </trkpt>
      <trkpt lat="45.12902" lon="5.50611">
        <ele>1272.1</ele>
        <time>2022-08-12T15:14:12.000Z</time>
      </trkpt>
      <trkpt lat="45.12903" lon="5.50609">
        <ele>1272.4</ele>
        <time>2022-08-12T15:14:13.000Z</time>
      </trkpt>
      <trkpt lat="45.12905" lon="5.50607">
        <ele>1272.8</ele>
        <time>2022-08-12T15:14:14.000Z</time>
      </trkpt>
      <trkpt lat="45.12906" lon="5.50603">
        <ele>1273.5</ele>
        <time>2022-08-12T15:14:16.000Z</time>
      </trkpt>
      <trkpt lat="45.12906" lon="5.50601">
        <ele>1274.1</ele>
        <time>2022-08-12T15:14:17.000Z</time>
      </trkpt>
      <trkpt lat="45.12907" lon="5.50598">
        <ele>1274.8</ele>
        <time>2022-08-12T15:14:18.000Z</time>
      </trkpt>
      <trkpt lat="45.12907" lon="5.50595">
        <ele>1275.3</ele>
        <time>2022-08-12T15:14:19.000Z</time>
      </trkpt>
      <trkpt lat="45.12907" lon="5.50592">
        <ele>1275.9</ele>
        <time>2022-08-12T15:14:20.000Z</time>
      </trkpt>
      <trkpt lat="45.12908" lon="5.5059">
        <ele>1276.5</ele>
        <time>2022-08-12T15:14:21.000Z</time>
      </trkpt>
      <trkpt lat="45.12909" lon="5.50588">
        <ele>1276.9</ele>
        <time>2022-08-12T15:14:22.000Z</time>
      </trkpt>
      <trkpt lat="45.1291" lon="5.50585">
        <ele>1277.6</ele>
        <time>2022-08-12T15:14:23.000Z</time>
      </trkpt>
      <trkpt lat="45.1291" lon="5.50581">
        <ele>1278.3</ele>
        <time>2022-08-12T15:14:24.000Z</time>
      </trkpt>
      <trkpt lat="45.12911" lon="5.50578">
        <ele>1278.8</ele>
        <time>2022-08-12T15:14:25.000Z</time>
      </trkpt>
      <trkpt lat="45.12911" lon="5.50574">
        <ele>1279.3</ele>
        <time>2022-08-12T15:14:26.000Z</time>
      </trkpt>
      <trkpt lat="45.12912" lon="5.50571">
        <ele>1279.8</ele>
        <time>2022-08-12T15:14:27.000Z</time>
      </trkpt>
      <trkpt lat="45.12913" lon="5.50568">
        <ele>1280.2</ele>
        <time>2022-08-12T15:14:28.000Z</time>
      </trkpt>
      <trkpt lat="45.12914" lon="5.50566">
        <ele>1280.5</ele>
        <time>2022-08-12T15:14:29.000Z</time>
      </trkpt>
      <trkpt lat="45.12915" lon="5.50564">
        <ele>1280.7</ele>
        <time>2022-08-12T15:14:30.000Z</time>
      </trkpt>
      <trkpt lat="45.12917" lon="5.50563">
        <ele>1280.9</ele>
        <time>2022-08-12T15:14:31.000Z</time>
      </trkpt>
      <trkpt lat="45.12919" lon="5.50562">
        <ele>1280.8</ele>
        <time>2022-08-12T15:14:32.000Z</time>
      </trkpt>
      <trkpt lat="45.12922" lon="5.5056">
        <ele>1280.8</ele>
        <time>2022-08-12T15:14:33.000Z</time>
      </trkpt>
      <trkpt lat="45.12924" lon="5.5056">
        <ele>1280.6</ele>
        <time>2022-08-12T15:14:34.000Z</time>
      </trkpt>
      <trkpt lat="45.12925" lon="5.50559">
        <ele>1280.5</ele>
        <time>2022-08-12T15:14:35.000Z</time>
      </trkpt>
      <trkpt lat="45.12927" lon="5.50558">
        <ele>1280.5</ele>
        <time>2022-08-12T15:14:36.000Z</time>
      </trkpt>
      <trkpt lat="45.12929" lon="5.50558">
        <ele>1280.3</ele>
        <time>2022-08-12T15:14:37.000Z</time>
      </trkpt>
      <trkpt lat="45.12931" lon="5.50557">
        <ele>1280.3</ele>
        <time>2022-08-12T15:14:38.000Z</time>
      </trkpt>
      <trkpt lat="45.12933" lon="5.50557">
        <ele>1280</ele>
        <time>2022-08-12T15:14:39.000Z</time>
      </trkpt>
      <trkpt lat="45.12939" lon="5.50555">
        <ele>1279.8</ele>
        <time>2022-08-12T15:14:41.000Z</time>
      </trkpt>
      <trkpt lat="45.1294" lon="5.50555">
        <ele>1279.6</ele>
        <time>2022-08-12T15:14:42.000Z</time>
      </trkpt>
      <trkpt lat="45.12942" lon="5.50554">
        <ele>1279.4</ele>
        <time>2022-08-12T15:14:43.000Z</time>
      </trkpt>
      <trkpt lat="45.12943" lon="5.50553">
        <ele>1279.5</ele>
        <time>2022-08-12T15:14:44.000Z</time>
      </trkpt>
      <trkpt lat="45.12944" lon="5.50553">
        <ele>1279.5</ele>
        <time>2022-08-12T15:14:45.000Z</time>
      </trkpt>
      <trkpt lat="45.12946" lon="5.50551">
        <ele>1279.4</ele>
        <time>2022-08-12T15:14:46.000Z</time>
      </trkpt>
      <trkpt lat="45.12948" lon="5.5055">
        <ele>1279.4</ele>
        <time>2022-08-12T15:14:47.000Z</time>
      </trkpt>
      <trkpt lat="45.12949" lon="5.50549">
        <ele>1279.3</ele>
        <time>2022-08-12T15:14:48.000Z</time>
      </trkpt>
      <trkpt lat="45.1295" lon="5.50548">
        <ele>1279.2</ele>
        <time>2022-08-12T15:14:49.000Z</time>
      </trkpt>
      <trkpt lat="45.12954" lon="5.50546">
        <ele>1278.9</ele>
        <time>2022-08-12T15:14:51.000Z</time>
      </trkpt>
      <trkpt lat="45.12956" lon="5.50545">
        <ele>1278.8</ele>
        <time>2022-08-12T15:14:52.000Z</time>
      </trkpt>
      <trkpt lat="45.12957" lon="5.50544">
        <ele>1278.8</ele>
        <time>2022-08-12T15:14:53.000Z</time>
      </trkpt>
      <trkpt lat="45.12959" lon="5.50542">
        <ele>1278.8</ele>
        <time>2022-08-12T15:14:54.000Z</time>
      </trkpt>
      <trkpt lat="45.12961" lon="5.5054">
        <ele>1278.8</ele>
        <time>2022-08-12T15:14:55.000Z</time>
      </trkpt>
      <trkpt lat="45.12963" lon="5.5054">
        <ele>1278.6</ele>
        <time>2022-08-12T15:14:56.000Z</time>
      </trkpt>
      <trkpt lat="45.12964" lon="5.50539">
        <ele>1278.5</ele>
        <time>2022-08-12T15:14:57.000Z</time>
      </trkpt>
      <trkpt lat="45.12966" lon="5.50537">
        <ele>1278.6</ele>
        <time>2022-08-12T15:14:58.000Z</time>
      </trkpt>
      <trkpt lat="45.12967" lon="5.50535">
        <ele>1278.7</ele>
        <time>2022-08-12T15:14:59.000Z</time>
      </trkpt>
      <trkpt lat="45.12968" lon="5.50534">
        <ele>1278.7</ele>
        <time>2022-08-12T15:15:00.000Z</time>
      </trkpt>
      <trkpt lat="45.12969" lon="5.50532">
        <ele>1278.8</ele>
        <time>2022-08-12T15:15:01.000Z</time>
      </trkpt>
      <trkpt lat="45.12971" lon="5.5053">
        <ele>1278.8</ele>
        <time>2022-08-12T15:15:02.000Z</time>
      </trkpt>
      <trkpt lat="45.12972" lon="5.50528">
        <ele>1278.9</ele>
        <time>2022-08-12T15:15:03.000Z</time>
      </trkpt>
      <trkpt lat="45.12974" lon="5.50525">
        <ele>1279.2</ele>
        <time>2022-08-12T15:15:04.000Z</time>
      </trkpt>
      <trkpt lat="45.12975" lon="5.50522">
        <ele>1279.5</ele>
        <time>2022-08-12T15:15:05.000Z</time>
      </trkpt>
      <trkpt lat="45.12976" lon="5.5052">
        <ele>1279.7</ele>
        <time>2022-08-12T15:15:06.000Z</time>
      </trkpt>
      <trkpt lat="45.12977" lon="5.50518">
        <ele>1279.9</ele>
        <time>2022-08-12T15:15:07.000Z</time>
      </trkpt>
      <trkpt lat="45.12978" lon="5.50516">
        <ele>1280.1</ele>
        <time>2022-08-12T15:15:08.000Z</time>
      </trkpt>
      <trkpt lat="45.12979" lon="5.50512">
        <ele>1280.5</ele>
        <time>2022-08-12T15:15:09.000Z</time>
      </trkpt>
      <trkpt lat="45.1298" lon="5.5051">
        <ele>1280.7</ele>
        <time>2022-08-12T15:15:10.000Z</time>
      </trkpt>
      <trkpt lat="45.12982" lon="5.50507">
        <ele>1281</ele>
        <time>2022-08-12T15:15:11.000Z</time>
      </trkpt>
      <trkpt lat="45.12983" lon="5.50503">
        <ele>1281.4</ele>
        <time>2022-08-12T15:15:12.000Z</time>
      </trkpt>
      <trkpt lat="45.12984" lon="5.50499">
        <ele>1281.9</ele>
        <time>2022-08-12T15:15:13.000Z</time>
      </trkpt>
      <trkpt lat="45.12985" lon="5.50496">
        <ele>1282.2</ele>
        <time>2022-08-12T15:15:14.000Z</time>
      </trkpt>
      <trkpt lat="45.12987" lon="5.50494">
        <ele>1282.4</ele>
        <time>2022-08-12T15:15:15.000Z</time>
      </trkpt>
      <trkpt lat="45.12989" lon="5.5049">
        <ele>1282.8</ele>
        <time>2022-08-12T15:15:16.000Z</time>
      </trkpt>
      <trkpt lat="45.1299" lon="5.50487">
        <ele>1283.2</ele>
        <time>2022-08-12T15:15:17.000Z</time>
      </trkpt>
      <trkpt lat="45.12992" lon="5.50484">
        <ele>1283.6</ele>
        <time>2022-08-12T15:15:18.000Z</time>
      </trkpt>
      <trkpt lat="45.12993" lon="5.50481">
        <ele>1284</ele>
        <time>2022-08-12T15:15:19.000Z</time>
      </trkpt>
      <trkpt lat="45.12995" lon="5.50478">
        <ele>1284.3</ele>
        <time>2022-08-12T15:15:20.000Z</time>
      </trkpt>
      <trkpt lat="45.12997" lon="5.50477">
        <ele>1284.4</ele>
        <time>2022-08-12T15:15:21.000Z</time>
      </trkpt>
      <trkpt lat="45.12999" lon="5.50475">
        <ele>1284.6</ele>
        <time>2022-08-12T15:15:22.000Z</time>
      </trkpt>
      <trkpt lat="45.13001" lon="5.50472">
        <ele>1285</ele>
        <time>2022-08-12T15:15:23.000Z</time>
      </trkpt>
      <trkpt lat="45.13002" lon="5.50469">
        <ele>1285.7</ele>
        <time>2022-08-12T15:15:24.000Z</time>
      </trkpt>
      <trkpt lat="45.13003" lon="5.50466">
        <ele>1286.3</ele>
        <time>2022-08-12T15:15:25.000Z</time>
      </trkpt>
      <trkpt lat="45.13006" lon="5.50464">
        <ele>1286.7</ele>
        <time>2022-08-12T15:15:26.000Z</time>
      </trkpt>
      <trkpt lat="45.13007" lon="5.50462">
        <ele>1287.3</ele>
        <time>2022-08-12T15:15:27.000Z</time>
      </trkpt>
      <trkpt lat="45.1301" lon="5.5046">
        <ele>1287.7</ele>
        <time>2022-08-12T15:15:28.000Z</time>
      </trkpt>
      <trkpt lat="45.13011" lon="5.50458">
        <ele>1288.2</ele>
        <time>2022-08-12T15:15:29.000Z</time>
      </trkpt>
      <trkpt lat="45.13013" lon="5.50454">
        <ele>1288.9</ele>
        <time>2022-08-12T15:15:30.000Z</time>
      </trkpt>
      <trkpt lat="45.13014" lon="5.50452">
        <ele>1289.5</ele>
        <time>2022-08-12T15:15:31.000Z</time>
      </trkpt>
      <trkpt lat="45.13015" lon="5.50449">
        <ele>1290</ele>
        <time>2022-08-12T15:15:32.000Z</time>
      </trkpt>
      <trkpt lat="45.13016" lon="5.5045">
        <ele>1289.9</ele>
        <time>2022-08-12T15:15:33.000Z</time>
      </trkpt>
      <trkpt lat="45.13017" lon="5.50451">
        <ele>1289.7</ele>
        <time>2022-08-12T15:15:34.000Z</time>
      </trkpt>
      <trkpt lat="45.13018" lon="5.5045">
        <ele>1289.9</ele>
        <time>2022-08-12T15:15:35.000Z</time>
      </trkpt>
      <trkpt lat="45.13021" lon="5.50447">
        <ele>1290.5</ele>
        <time>2022-08-12T15:15:36.000Z</time>
      </trkpt>
      <trkpt lat="45.13021" lon="5.50445">
        <ele>1290.8</ele>
        <time>2022-08-12T15:15:37.000Z</time>
      </trkpt>
      <trkpt lat="45.13023" lon="5.50444">
        <ele>1291.2</ele>
        <time>2022-08-12T15:15:38.000Z</time>
      </trkpt>
      <trkpt lat="45.13024" lon="5.50442">
        <ele>1291.5</ele>
        <time>2022-08-12T15:15:39.000Z</time>
      </trkpt>
      <trkpt lat="45.13026" lon="5.50441">
        <ele>1291.8</ele>
        <time>2022-08-12T15:15:40.000Z</time>
      </trkpt>
      <trkpt lat="45.13027" lon="5.5044">
        <ele>1292</ele>
        <time>2022-08-12T15:15:41.000Z</time>
      </trkpt>
      <trkpt lat="45.13029" lon="5.50439">
        <ele>1292.3</ele>
        <time>2022-08-12T15:15:42.000Z</time>
      </trkpt>
      <trkpt lat="45.13031" lon="5.50438">
        <ele>1292.6</ele>
        <time>2022-08-12T15:15:43.000Z</time>
      </trkpt>
      <trkpt lat="45.13032" lon="5.50437">
        <ele>1292.8</ele>
        <time>2022-08-12T15:15:44.000Z</time>
      </trkpt>
      <trkpt lat="45.13034" lon="5.50437">
        <ele>1293.1</ele>
        <time>2022-08-12T15:15:45.000Z</time>
      </trkpt>
      <trkpt lat="45.13035" lon="5.50437">
        <ele>1293.2</ele>
        <time>2022-08-12T15:15:46.000Z</time>
      </trkpt>
      <trkpt lat="45.13036" lon="5.50437">
        <ele>1293.3</ele>
        <time>2022-08-12T15:15:47.000Z</time>
      </trkpt>
      <trkpt lat="45.13037" lon="5.50437">
        <ele>1293.3</ele>
        <time>2022-08-12T15:15:48.000Z</time>
      </trkpt>
      <trkpt lat="45.13039" lon="5.50438">
        <ele>1293.3</ele>
        <time>2022-08-12T15:15:49.000Z</time>
      </trkpt>
      <trkpt lat="45.1304" lon="5.50438">
        <ele>1293.2</ele>
        <time>2022-08-12T15:15:50.000Z</time>
      </trkpt>
      <trkpt lat="45.13041" lon="5.50439">
        <ele>1293.1</ele>
        <time>2022-08-12T15:15:51.000Z</time>
      </trkpt>
      <trkpt lat="45.13043" lon="5.50441">
        <ele>1292.8</ele>
        <time>2022-08-12T15:15:52.000Z</time>
      </trkpt>
      <trkpt lat="45.13044" lon="5.50443">
        <ele>1292.5</ele>
        <time>2022-08-12T15:15:53.000Z</time>
      </trkpt>
      <trkpt lat="45.13046" lon="5.50444">
        <ele>1292.3</ele>
        <time>2022-08-12T15:15:54.000Z</time>
      </trkpt>
      <trkpt lat="45.13047" lon="5.50445">
        <ele>1292.2</ele>
        <time>2022-08-12T15:15:55.000Z</time>
      </trkpt>
      <trkpt lat="45.13048" lon="5.50446">
        <ele>1292.2</ele>
        <time>2022-08-12T15:15:56.000Z</time>
      </trkpt>
      <trkpt lat="45.13049" lon="5.50447">
        <ele>1292.1</ele>
        <time>2022-08-12T15:15:57.000Z</time>
      </trkpt>
      <trkpt lat="45.13051" lon="5.50448">
        <ele>1291.9</ele>
        <time>2022-08-12T15:15:58.000Z</time>
      </trkpt>
      <trkpt lat="45.13052" lon="5.5045">
        <ele>1291.7</ele>
        <time>2022-08-12T15:15:59.000Z</time>
      </trkpt>
      <trkpt lat="45.13052" lon="5.50452">
        <ele>1291.4</ele>
        <time>2022-08-12T15:16:00.000Z</time>
      </trkpt>
      <trkpt lat="45.13053" lon="5.50454">
        <ele>1291.2</ele>
        <time>2022-08-12T15:16:01.000Z</time>
      </trkpt>
      <trkpt lat="45.13055" lon="5.50455">
        <ele>1291</ele>
        <time>2022-08-12T15:16:02.000Z</time>
      </trkpt>
      <trkpt lat="45.13056" lon="5.50456">
        <ele>1290.9</ele>
        <time>2022-08-12T15:16:03.000Z</time>
      </trkpt>
      <trkpt lat="45.13057" lon="5.50458">
        <ele>1290.7</ele>
        <time>2022-08-12T15:16:04.000Z</time>
      </trkpt>
      <trkpt lat="45.13057" lon="5.50459">
        <ele>1290.7</ele>
        <time>2022-08-12T15:16:05.000Z</time>
      </trkpt>
      <trkpt lat="45.13058" lon="5.5046">
        <ele>1290.7</ele>
        <time>2022-08-12T15:16:06.000Z</time>
      </trkpt>
      <trkpt lat="45.13059" lon="5.5046">
        <ele>1290.8</ele>
        <time>2022-08-12T15:16:07.000Z</time>
      </trkpt>
      <trkpt lat="45.1306" lon="5.50461">
        <ele>1290.7</ele>
        <time>2022-08-12T15:16:08.000Z</time>
      </trkpt>
      <trkpt lat="45.13061" lon="5.50463">
        <ele>1290.5</ele>
        <time>2022-08-12T15:16:09.000Z</time>
      </trkpt>
      <trkpt lat="45.13062" lon="5.50465">
        <ele>1290.3</ele>
        <time>2022-08-12T15:16:10.000Z</time>
      </trkpt>
      <trkpt lat="45.13062" lon="5.50467">
        <ele>1290.1</ele>
        <time>2022-08-12T15:16:11.000Z</time>
      </trkpt>
      <trkpt lat="45.13063" lon="5.50469">
        <ele>1290</ele>
        <time>2022-08-12T15:16:12.000Z</time>
      </trkpt>
      <trkpt lat="45.13066" lon="5.50471">
        <ele>1290.1</ele>
        <time>2022-08-12T15:16:13.000Z</time>
      </trkpt>
      <trkpt lat="45.13067" lon="5.50473">
        <ele>1289.9</ele>
        <time>2022-08-12T15:16:14.000Z</time>
      </trkpt>
      <trkpt lat="45.13068" lon="5.50476">
        <ele>1289.6</ele>
        <time>2022-08-12T15:16:15.000Z</time>
      </trkpt>
      <trkpt lat="45.13068" lon="5.50479">
        <ele>1289.3</ele>
        <time>2022-08-12T15:16:16.000Z</time>
      </trkpt>
      <trkpt lat="45.13069" lon="5.50481">
        <ele>1289.2</ele>
        <time>2022-08-12T15:16:17.000Z</time>
      </trkpt>
      <trkpt lat="45.1307" lon="5.50482">
        <ele>1289.1</ele>
        <time>2022-08-12T15:16:18.000Z</time>
      </trkpt>
      <trkpt lat="45.13071" lon="5.50484">
        <ele>1289</ele>
        <time>2022-08-12T15:16:19.000Z</time>
      </trkpt>
      <trkpt lat="45.13072" lon="5.50486">
        <ele>1288.9</ele>
        <time>2022-08-12T15:16:20.000Z</time>
      </trkpt>
      <trkpt lat="45.13073" lon="5.50487">
        <ele>1288.9</ele>
        <time>2022-08-12T15:16:21.000Z</time>
      </trkpt>
      <trkpt lat="45.13074" lon="5.50488">
        <ele>1289</ele>
        <time>2022-08-12T15:16:22.000Z</time>
      </trkpt>
      <trkpt lat="45.13075" lon="5.50488">
        <ele>1289.1</ele>
        <time>2022-08-12T15:16:23.000Z</time>
      </trkpt>
      <trkpt lat="45.13076" lon="5.5049">
        <ele>1289.2</ele>
        <time>2022-08-12T15:16:24.000Z</time>
      </trkpt>
      <trkpt lat="45.13077" lon="5.50491">
        <ele>1289.2</ele>
        <time>2022-08-12T15:16:25.000Z</time>
      </trkpt>
      <trkpt lat="45.13078" lon="5.50493">
        <ele>1289.2</ele>
        <time>2022-08-12T15:16:26.000Z</time>
      </trkpt>
      <trkpt lat="45.1308" lon="5.50494">
        <ele>1289.1</ele>
        <time>2022-08-12T15:16:27.000Z</time>
      </trkpt>
      <trkpt lat="45.13081" lon="5.50496">
        <ele>1289.1</ele>
        <time>2022-08-12T15:16:28.000Z</time>
      </trkpt>
      <trkpt lat="45.13083" lon="5.50498">
        <ele>1289.2</ele>
        <time>2022-08-12T15:16:29.000Z</time>
      </trkpt>
      <trkpt lat="45.13084" lon="5.50498">
        <ele>1289.4</ele>
        <time>2022-08-12T15:16:30.000Z</time>
      </trkpt>
      <trkpt lat="45.13086" lon="5.50498">
        <ele>1289.6</ele>
        <time>2022-08-12T15:16:31.000Z</time>
      </trkpt>
      <trkpt lat="45.13087" lon="5.50499">
        <ele>1289.7</ele>
        <time>2022-08-12T15:16:32.000Z</time>
      </trkpt>
      <trkpt lat="45.13089" lon="5.505">
        <ele>1289.8</ele>
        <time>2022-08-12T15:16:33.000Z</time>
      </trkpt>
      <trkpt lat="45.1309" lon="5.50499">
        <ele>1290.2</ele>
        <time>2022-08-12T15:16:34.000Z</time>
      </trkpt>
      <trkpt lat="45.13091" lon="5.50498">
        <ele>1290.3</ele>
        <time>2022-08-12T15:16:35.000Z</time>
      </trkpt>
      <trkpt lat="45.13092" lon="5.50498">
        <ele>1290.4</ele>
        <time>2022-08-12T15:16:36.000Z</time>
      </trkpt>
      <trkpt lat="45.13093" lon="5.50498">
        <ele>1290.7</ele>
        <time>2022-08-12T15:16:37.000Z</time>
      </trkpt>
      <trkpt lat="45.13095" lon="5.50497">
        <ele>1291.1</ele>
        <time>2022-08-12T15:16:38.000Z</time>
      </trkpt>
      <trkpt lat="45.13097" lon="5.50496">
        <ele>1291.5</ele>
        <time>2022-08-12T15:16:39.000Z</time>
      </trkpt>
      <trkpt lat="45.131" lon="5.50496">
        <ele>1291.9</ele>
        <time>2022-08-12T15:16:40.000Z</time>
      </trkpt>
      <trkpt lat="45.13102" lon="5.50496">
        <ele>1292.2</ele>
        <time>2022-08-12T15:16:41.000Z</time>
      </trkpt>
      <trkpt lat="45.13105" lon="5.50496">
        <ele>1292.6</ele>
        <time>2022-08-12T15:16:42.000Z</time>
      </trkpt>
      <trkpt lat="45.13107" lon="5.50495">
        <ele>1293</ele>
        <time>2022-08-12T15:16:43.000Z</time>
      </trkpt>
      <trkpt lat="45.13109" lon="5.50494">
        <ele>1293.4</ele>
        <time>2022-08-12T15:16:44.000Z</time>
      </trkpt>
      <trkpt lat="45.13111" lon="5.50492">
        <ele>1293.8</ele>
        <time>2022-08-12T15:16:45.000Z</time>
      </trkpt>
      <trkpt lat="45.13113" lon="5.50491">
        <ele>1294.2</ele>
        <time>2022-08-12T15:16:46.000Z</time>
      </trkpt>
      <trkpt lat="45.13115" lon="5.50489">
        <ele>1294.6</ele>
        <time>2022-08-12T15:16:47.000Z</time>
      </trkpt>
      <trkpt lat="45.13117" lon="5.50488">
        <ele>1294.9</ele>
        <time>2022-08-12T15:16:48.000Z</time>
      </trkpt>
      <trkpt lat="45.13119" lon="5.50489">
        <ele>1295.1</ele>
        <time>2022-08-12T15:16:49.000Z</time>
      </trkpt>
      <trkpt lat="45.13122" lon="5.50488">
        <ele>1295.4</ele>
        <time>2022-08-12T15:16:50.000Z</time>
      </trkpt>
      <trkpt lat="45.13124" lon="5.50488">
        <ele>1295.6</ele>
        <time>2022-08-12T15:16:51.000Z</time>
      </trkpt>
      <trkpt lat="45.13127" lon="5.50488">
        <ele>1295.8</ele>
        <time>2022-08-12T15:16:52.000Z</time>
      </trkpt>
      <trkpt lat="45.13132" lon="5.5049">
        <ele>1296.1</ele>
        <time>2022-08-12T15:16:54.000Z</time>
      </trkpt>
      <trkpt lat="45.13133" lon="5.50491">
        <ele>1296.1</ele>
        <time>2022-08-12T15:16:55.000Z</time>
      </trkpt>
      <trkpt lat="45.13143" lon="5.50495">
        <ele>1296.3</ele>
        <time>2022-08-12T15:16:59.000Z</time>
      </trkpt>
      <trkpt lat="45.13146" lon="5.50496">
        <ele>1296.3</ele>
        <time>2022-08-12T15:17:00.000Z</time>
      </trkpt>
      <trkpt lat="45.13153" lon="5.50498">
        <ele>1296.5</ele>
        <time>2022-08-12T15:17:03.000Z</time>
      </trkpt>
      <trkpt lat="45.13155" lon="5.50498">
        <ele>1296.6</ele>
        <time>2022-08-12T15:17:04.000Z</time>
      </trkpt>
      <trkpt lat="45.13164" lon="5.50498">
        <ele>1297.2</ele>
        <time>2022-08-12T15:17:07.000Z</time>
      </trkpt>
      <trkpt lat="45.13166" lon="5.50497">
        <ele>1297.4</ele>
        <time>2022-08-12T15:17:08.000Z</time>
      </trkpt>
      <trkpt lat="45.13171" lon="5.50494">
        <ele>1298</ele>
        <time>2022-08-12T15:17:10.000Z</time>
      </trkpt>
      <trkpt lat="45.13173" lon="5.50493">
        <ele>1298.2</ele>
        <time>2022-08-12T15:17:11.000Z</time>
      </trkpt>
      <trkpt lat="45.13176" lon="5.50494">
        <ele>1298.2</ele>
        <time>2022-08-12T15:17:12.000Z</time>
      </trkpt>
      <trkpt lat="45.13178" lon="5.50494">
        <ele>1298</ele>
        <time>2022-08-12T15:17:13.000Z</time>
      </trkpt>
      <trkpt lat="45.13181" lon="5.50493">
        <ele>1298.2</ele>
        <time>2022-08-12T15:17:14.000Z</time>
      </trkpt>
      <trkpt lat="45.13195" lon="5.50489">
        <ele>1299</ele>
        <time>2022-08-12T15:17:19.000Z</time>
      </trkpt>
      <trkpt lat="45.13199" lon="5.50487">
        <ele>1299.1</ele>
        <time>2022-08-12T15:17:21.000Z</time>
      </trkpt>
      <trkpt lat="45.13202" lon="5.50484">
        <ele>1299.5</ele>
        <time>2022-08-12T15:17:22.000Z</time>
      </trkpt>
      <trkpt lat="45.13204" lon="5.50482">
        <ele>1299.7</ele>
        <time>2022-08-12T15:17:23.000Z</time>
      </trkpt>
      <trkpt lat="45.13209" lon="5.50479">
        <ele>1300.2</ele>
        <time>2022-08-12T15:17:25.000Z</time>
      </trkpt>
      <trkpt lat="45.13212" lon="5.50477">
        <ele>1300.4</ele>
        <time>2022-08-12T15:17:26.000Z</time>
      </trkpt>
      <trkpt lat="45.13214" lon="5.50475">
        <ele>1300.7</ele>
        <time>2022-08-12T15:17:27.000Z</time>
      </trkpt>
      <trkpt lat="45.13216" lon="5.50474">
        <ele>1300.9</ele>
        <time>2022-08-12T15:17:28.000Z</time>
      </trkpt>
      <trkpt lat="45.13218" lon="5.50473">
        <ele>1301</ele>
        <time>2022-08-12T15:17:29.000Z</time>
      </trkpt>
      <trkpt lat="45.1322" lon="5.50473">
        <ele>1300.9</ele>
        <time>2022-08-12T15:17:30.000Z</time>
      </trkpt>
      <trkpt lat="45.13223" lon="5.50473">
        <ele>1300.9</ele>
        <time>2022-08-12T15:17:31.000Z</time>
      </trkpt>
      <trkpt lat="45.13224" lon="5.50472">
        <ele>1300.7</ele>
        <time>2022-08-12T15:17:32.000Z</time>
      </trkpt>
      <trkpt lat="45.13225" lon="5.50471">
        <ele>1300.6</ele>
        <time>2022-08-12T15:17:33.000Z</time>
      </trkpt>
      <trkpt lat="45.13226" lon="5.50471">
        <ele>1300.6</ele>
        <time>2022-08-12T15:17:34.000Z</time>
      </trkpt>
      <trkpt lat="45.13226" lon="5.50472">
        <ele>1300.4</ele>
        <time>2022-08-12T15:17:39.000Z</time>
      </trkpt>
      <trkpt lat="45.13226" lon="5.50471">
        <ele>1300.7</ele>
        <time>2022-08-12T15:17:42.000Z</time>
      </trkpt>
      <trkpt lat="45.13226" lon="5.5047">
        <ele>1300.9</ele>
        <time>2022-08-12T15:17:43.000Z</time>
      </trkpt>
      <trkpt lat="45.1322" lon="5.50467">
        <ele>1302.2</ele>
        <time>2022-08-12T15:24:45.000Z</time>
      </trkpt>
      <trkpt lat="45.13224" lon="5.50471">
        <ele>1300.9</ele>
        <time>2022-08-12T15:24:50.000Z</time>
      </trkpt>
      <trkpt lat="45.13228" lon="5.50476">
        <ele>1299.3</ele>
        <time>2022-08-12T15:24:52.000Z</time>
      </trkpt>
      <trkpt lat="45.13239" lon="5.50494">
        <ele>1293.8</ele>
        <time>2022-08-12T15:24:57.000Z</time>
      </trkpt>
      <trkpt lat="45.13239" lon="5.50497">
        <ele>1293.1</ele>
        <time>2022-08-12T15:24:58.000Z</time>
      </trkpt>
      <trkpt lat="45.13241" lon="5.505">
        <ele>1292.3</ele>
        <time>2022-08-12T15:24:59.000Z</time>
      </trkpt>
      <trkpt lat="45.13244" lon="5.50502">
        <ele>1291.6</ele>
        <time>2022-08-12T15:25:00.000Z</time>
      </trkpt>
      <trkpt lat="45.13246" lon="5.50504">
        <ele>1291.1</ele>
        <time>2022-08-12T15:25:01.000Z</time>
      </trkpt>
      <trkpt lat="45.13248" lon="5.50504">
        <ele>1290.8</ele>
        <time>2022-08-12T15:25:02.000Z</time>
      </trkpt>
      <trkpt lat="45.13249" lon="5.50502">
        <ele>1290.8</ele>
        <time>2022-08-12T15:25:03.000Z</time>
      </trkpt>
      <trkpt lat="45.13251" lon="5.505">
        <ele>1290.8</ele>
        <time>2022-08-12T15:25:04.000Z</time>
      </trkpt>
      <trkpt lat="45.13252" lon="5.50498">
        <ele>1290.9</ele>
        <time>2022-08-12T15:25:05.000Z</time>
      </trkpt>
      <trkpt lat="45.13254" lon="5.50495">
        <ele>1291</ele>
        <time>2022-08-12T15:25:06.000Z</time>
      </trkpt>
      <trkpt lat="45.13255" lon="5.50493">
        <ele>1291.1</ele>
        <time>2022-08-12T15:25:07.000Z</time>
      </trkpt>
      <trkpt lat="45.13257" lon="5.50491">
        <ele>1291.2</ele>
        <time>2022-08-12T15:25:08.000Z</time>
      </trkpt>
      <trkpt lat="45.13257" lon="5.5049">
        <ele>1291.1</ele>
        <time>2022-08-12T15:25:09.000Z</time>
      </trkpt>
      <trkpt lat="45.13259" lon="5.50489">
        <ele>1290.9</ele>
        <time>2022-08-12T15:25:10.000Z</time>
      </trkpt>
      <trkpt lat="45.1326" lon="5.50487">
        <ele>1291</ele>
        <time>2022-08-12T15:25:11.000Z</time>
      </trkpt>
      <trkpt lat="45.13261" lon="5.50483">
        <ele>1291.5</ele>
        <time>2022-08-12T15:25:12.000Z</time>
      </trkpt>
      <trkpt lat="45.13262" lon="5.50478">
        <ele>1292.1</ele>
        <time>2022-08-12T15:25:13.000Z</time>
      </trkpt>
      <trkpt lat="45.13265" lon="5.50473">
        <ele>1292</ele>
        <time>2022-08-12T15:25:14.000Z</time>
      </trkpt>
      <trkpt lat="45.1327" lon="5.50468">
        <ele>1292</ele>
        <time>2022-08-12T15:25:15.000Z</time>
      </trkpt>
      <trkpt lat="45.13276" lon="5.50463">
        <ele>1291.8</ele>
        <time>2022-08-12T15:25:16.000Z</time>
      </trkpt>
      <trkpt lat="45.13282" lon="5.50459">
        <ele>1290.8</ele>
        <time>2022-08-12T15:25:17.000Z</time>
      </trkpt>
      <trkpt lat="45.13288" lon="5.50457">
        <ele>1289.7</ele>
        <time>2022-08-12T15:25:18.000Z</time>
      </trkpt>
      <trkpt lat="45.13293" lon="5.50455">
        <ele>1288.6</ele>
        <time>2022-08-12T15:25:19.000Z</time>
      </trkpt>
      <trkpt lat="45.13297" lon="5.50454">
        <ele>1287.5</ele>
        <time>2022-08-12T15:25:20.000Z</time>
      </trkpt>
      <trkpt lat="45.133" lon="5.50451">
        <ele>1287.1</ele>
        <time>2022-08-12T15:25:21.000Z</time>
      </trkpt>
      <trkpt lat="45.13305" lon="5.50449">
        <ele>1286.2</ele>
        <time>2022-08-12T15:25:22.000Z</time>
      </trkpt>
      <trkpt lat="45.13308" lon="5.50446">
        <ele>1286</ele>
        <time>2022-08-12T15:25:23.000Z</time>
      </trkpt>
      <trkpt lat="45.13311" lon="5.50443">
        <ele>1286.1</ele>
        <time>2022-08-12T15:25:24.000Z</time>
      </trkpt>
      <trkpt lat="45.13311" lon="5.50442">
        <ele>1286.3</ele>
        <time>2022-08-12T15:25:25.000Z</time>
      </trkpt>
      <trkpt lat="45.13311" lon="5.50443">
        <ele>1286.1</ele>
        <time>2022-08-12T15:25:26.000Z</time>
      </trkpt>
      <trkpt lat="45.13312" lon="5.50445">
        <ele>1285.3</ele>
        <time>2022-08-12T15:25:27.000Z</time>
      </trkpt>
      <trkpt lat="45.1331" lon="5.50454">
        <ele>1283.8</ele>
        <time>2022-08-12T15:25:29.000Z</time>
      </trkpt>
      <trkpt lat="45.13309" lon="5.50461">
        <ele>1282.6</ele>
        <time>2022-08-12T15:25:30.000Z</time>
      </trkpt>
      <trkpt lat="45.13307" lon="5.50466">
        <ele>1282</ele>
        <time>2022-08-12T15:25:31.000Z</time>
      </trkpt>
      <trkpt lat="45.13306" lon="5.50472">
        <ele>1280.9</ele>
        <time>2022-08-12T15:25:32.000Z</time>
      </trkpt>
      <trkpt lat="45.13306" lon="5.50478">
        <ele>1279.8</ele>
        <time>2022-08-12T15:25:33.000Z</time>
      </trkpt>
      <trkpt lat="45.13306" lon="5.50485">
        <ele>1278.6</ele>
        <time>2022-08-12T15:25:34.000Z</time>
      </trkpt>
      <trkpt lat="45.13306" lon="5.5049">
        <ele>1277.8</ele>
        <time>2022-08-12T15:25:35.000Z</time>
      </trkpt>
      <trkpt lat="45.13304" lon="5.50494">
        <ele>1277.4</ele>
        <time>2022-08-12T15:25:36.000Z</time>
      </trkpt>
      <trkpt lat="45.13304" lon="5.50499">
        <ele>1276.8</ele>
        <time>2022-08-12T15:25:37.000Z</time>
      </trkpt>
      <trkpt lat="45.13305" lon="5.50502">
        <ele>1276</ele>
        <time>2022-08-12T15:25:38.000Z</time>
      </trkpt>
      <trkpt lat="45.13307" lon="5.50504">
        <ele>1275.1</ele>
        <time>2022-08-12T15:25:39.000Z</time>
      </trkpt>
      <trkpt lat="45.13308" lon="5.50503">
        <ele>1274.7</ele>
        <time>2022-08-12T15:25:40.000Z</time>
      </trkpt>
      <trkpt lat="45.1331" lon="5.505">
        <ele>1274.8</ele>
        <time>2022-08-12T15:25:41.000Z</time>
      </trkpt>
      <trkpt lat="45.13311" lon="5.50496">
        <ele>1275.1</ele>
        <time>2022-08-12T15:25:42.000Z</time>
      </trkpt>
      <trkpt lat="45.13313" lon="5.50493">
        <ele>1275.1</ele>
        <time>2022-08-12T15:25:43.000Z</time>
      </trkpt>
      <trkpt lat="45.13318" lon="5.50484">
        <ele>1275.4</ele>
        <time>2022-08-12T15:25:45.000Z</time>
      </trkpt>
      <trkpt lat="45.13322" lon="5.50479">
        <ele>1275.2</ele>
        <time>2022-08-12T15:25:46.000Z</time>
      </trkpt>
      <trkpt lat="45.13327" lon="5.50477">
        <ele>1274</ele>
        <time>2022-08-12T15:25:47.000Z</time>
      </trkpt>
      <trkpt lat="45.1333" lon="5.5048">
        <ele>1272.6</ele>
        <time>2022-08-12T15:25:48.000Z</time>
      </trkpt>
      <trkpt lat="45.13331" lon="5.50484">
        <ele>1271.6</ele>
        <time>2022-08-12T15:25:49.000Z</time>
      </trkpt>
      <trkpt lat="45.1333" lon="5.50489">
        <ele>1270.9</ele>
        <time>2022-08-12T15:25:50.000Z</time>
      </trkpt>
      <trkpt lat="45.13329" lon="5.50494">
        <ele>1270.4</ele>
        <time>2022-08-12T15:25:51.000Z</time>
      </trkpt>
      <trkpt lat="45.13327" lon="5.50507">
        <ele>1268.7</ele>
        <time>2022-08-12T15:25:53.000Z</time>
      </trkpt>
      <trkpt lat="45.13329" lon="5.50523">
        <ele>1265.3</ele>
        <time>2022-08-12T15:25:55.000Z</time>
      </trkpt>
      <trkpt lat="45.13328" lon="5.50531">
        <ele>1264.1</ele>
        <time>2022-08-12T15:25:56.000Z</time>
      </trkpt>
      <trkpt lat="45.13327" lon="5.5054">
        <ele>1262.7</ele>
        <time>2022-08-12T15:25:57.000Z</time>
      </trkpt>
      <trkpt lat="45.13327" lon="5.50546">
        <ele>1261.5</ele>
        <time>2022-08-12T15:25:58.000Z</time>
      </trkpt>
      <trkpt lat="45.13326" lon="5.5055">
        <ele>1261</ele>
        <time>2022-08-12T15:25:59.000Z</time>
      </trkpt>
      <trkpt lat="45.13326" lon="5.50553">
        <ele>1260.7</ele>
        <time>2022-08-12T15:26:00.000Z</time>
      </trkpt>
      <trkpt lat="45.13325" lon="5.50554">
        <ele>1260.6</ele>
        <time>2022-08-12T15:26:01.000Z</time>
      </trkpt>
      <trkpt lat="45.13327" lon="5.50552">
        <ele>1260.6</ele>
        <time>2022-08-12T15:26:02.000Z</time>
      </trkpt>
      <trkpt lat="45.1333" lon="5.50548">
        <ele>1260.3</ele>
        <time>2022-08-12T15:26:03.000Z</time>
      </trkpt>
      <trkpt lat="45.13333" lon="5.50544">
        <ele>1260.2</ele>
        <time>2022-08-12T15:26:04.000Z</time>
      </trkpt>
      <trkpt lat="45.13341" lon="5.50534">
        <ele>1260.6</ele>
        <time>2022-08-12T15:26:06.000Z</time>
      </trkpt>
      <trkpt lat="45.13345" lon="5.5053">
        <ele>1260.6</ele>
        <time>2022-08-12T15:26:07.000Z</time>
      </trkpt>
      <trkpt lat="45.1335" lon="5.50527">
        <ele>1260.3</ele>
        <time>2022-08-12T15:26:08.000Z</time>
      </trkpt>
      <trkpt lat="45.13355" lon="5.50525">
        <ele>1259.8</ele>
        <time>2022-08-12T15:26:09.000Z</time>
      </trkpt>
      <trkpt lat="45.1336" lon="5.50525">
        <ele>1258.9</ele>
        <time>2022-08-12T15:26:10.000Z</time>
      </trkpt>
      <trkpt lat="45.13362" lon="5.50526">
        <ele>1258.5</ele>
        <time>2022-08-12T15:26:11.000Z</time>
      </trkpt>
      <trkpt lat="45.13364" lon="5.50528">
        <ele>1258.5</ele>
        <time>2022-08-12T15:26:12.000Z</time>
      </trkpt>
      <trkpt lat="45.13367" lon="5.50529">
        <ele>1258.6</ele>
        <time>2022-08-12T15:26:13.000Z</time>
      </trkpt>
      <trkpt lat="45.13369" lon="5.5053">
        <ele>1258.9</ele>
        <time>2022-08-12T15:26:14.000Z</time>
      </trkpt>
      <trkpt lat="45.13372" lon="5.50532">
        <ele>1258.9</ele>
        <time>2022-08-12T15:26:15.000Z</time>
      </trkpt>
      <trkpt lat="45.13377" lon="5.50538">
        <ele>1258.5</ele>
        <time>2022-08-12T15:26:17.000Z</time>
      </trkpt>
      <trkpt lat="45.13378" lon="5.50542">
        <ele>1258</ele>
        <time>2022-08-12T15:26:18.000Z</time>
      </trkpt>
      <trkpt lat="45.13379" lon="5.50545">
        <ele>1257.6</ele>
        <time>2022-08-12T15:26:19.000Z</time>
      </trkpt>
      <trkpt lat="45.1338" lon="5.50548">
        <ele>1257.3</ele>
        <time>2022-08-12T15:26:20.000Z</time>
      </trkpt>
      <trkpt lat="45.13381" lon="5.5055">
        <ele>1257.1</ele>
        <time>2022-08-12T15:26:21.000Z</time>
      </trkpt>
      <trkpt lat="45.13381" lon="5.50552">
        <ele>1256.7</ele>
        <time>2022-08-12T15:26:22.000Z</time>
      </trkpt>
      <trkpt lat="45.13381" lon="5.50556">
        <ele>1256.1</ele>
        <time>2022-08-12T15:26:23.000Z</time>
      </trkpt>
      <trkpt lat="45.13381" lon="5.50559">
        <ele>1255.6</ele>
        <time>2022-08-12T15:26:24.000Z</time>
      </trkpt>
      <trkpt lat="45.13381" lon="5.50562">
        <ele>1255.2</ele>
        <time>2022-08-12T15:26:25.000Z</time>
      </trkpt>
      <trkpt lat="45.13386" lon="5.50579">
        <ele>1253.3</ele>
        <time>2022-08-12T15:26:28.000Z</time>
      </trkpt>
      <trkpt lat="45.13388" lon="5.50583">
        <ele>1252.9</ele>
        <time>2022-08-12T15:26:29.000Z</time>
      </trkpt>
      <trkpt lat="45.13389" lon="5.50588">
        <ele>1252.4</ele>
        <time>2022-08-12T15:26:30.000Z</time>
      </trkpt>
      <trkpt lat="45.1339" lon="5.50589">
        <ele>1252.2</ele>
        <time>2022-08-12T15:26:31.000Z</time>
      </trkpt>
      <trkpt lat="45.1339" lon="5.50591">
        <ele>1252</ele>
        <time>2022-08-12T15:26:32.000Z</time>
      </trkpt>
      <trkpt lat="45.13391" lon="5.50593">
        <ele>1252</ele>
        <time>2022-08-12T15:26:33.000Z</time>
      </trkpt>
      <trkpt lat="45.13392" lon="5.50593">
        <ele>1252.1</ele>
        <time>2022-08-12T15:26:34.000Z</time>
      </trkpt>
      <trkpt lat="45.13392" lon="5.50595">
        <ele>1251.8</ele>
        <time>2022-08-12T15:26:35.000Z</time>
      </trkpt>
      <trkpt lat="45.13392" lon="5.50598">
        <ele>1251.4</ele>
        <time>2022-08-12T15:26:36.000Z</time>
      </trkpt>
      <trkpt lat="45.13392" lon="5.506">
        <ele>1251</ele>
        <time>2022-08-12T15:26:37.000Z</time>
      </trkpt>
      <trkpt lat="45.13392" lon="5.50602">
        <ele>1250.5</ele>
        <time>2022-08-12T15:26:38.000Z</time>
      </trkpt>
      <trkpt lat="45.13392" lon="5.50618">
        <ele>1247.8</ele>
        <time>2022-08-12T15:26:41.000Z</time>
      </trkpt>
      <trkpt lat="45.13393" lon="5.50625">
        <ele>1247.2</ele>
        <time>2022-08-12T15:26:42.000Z</time>
      </trkpt>
      <trkpt lat="45.13395" lon="5.50632">
        <ele>1246.5</ele>
        <time>2022-08-12T15:26:43.000Z</time>
      </trkpt>
      <trkpt lat="45.13396" lon="5.50639">
        <ele>1245.5</ele>
        <time>2022-08-12T15:26:44.000Z</time>
      </trkpt>
      <trkpt lat="45.13398" lon="5.50644">
        <ele>1245.3</ele>
        <time>2022-08-12T15:26:45.000Z</time>
      </trkpt>
      <trkpt lat="45.13399" lon="5.50647">
        <ele>1245.1</ele>
        <time>2022-08-12T15:26:46.000Z</time>
      </trkpt>
      <trkpt lat="45.134" lon="5.50649">
        <ele>1245</ele>
        <time>2022-08-12T15:26:47.000Z</time>
      </trkpt>
      <trkpt lat="45.13402" lon="5.50652">
        <ele>1244.9</ele>
        <time>2022-08-12T15:26:48.000Z</time>
      </trkpt>
      <trkpt lat="45.13404" lon="5.50653">
        <ele>1245.2</ele>
        <time>2022-08-12T15:26:49.000Z</time>
      </trkpt>
      <trkpt lat="45.13406" lon="5.50654">
        <ele>1245.6</ele>
        <time>2022-08-12T15:26:50.000Z</time>
      </trkpt>
      <trkpt lat="45.13408" lon="5.50654">
        <ele>1245.8</ele>
        <time>2022-08-12T15:26:51.000Z</time>
      </trkpt>
      <trkpt lat="45.13409" lon="5.50656">
        <ele>1245.9</ele>
        <time>2022-08-12T15:26:52.000Z</time>
      </trkpt>
      <trkpt lat="45.1341" lon="5.50657">
        <ele>1245.9</ele>
        <time>2022-08-12T15:26:53.000Z</time>
      </trkpt>
      <trkpt lat="45.1341" lon="5.50658">
        <ele>1245.9</ele>
        <time>2022-08-12T15:26:54.000Z</time>
      </trkpt>
      <trkpt lat="45.13412" lon="5.50659">
        <ele>1246.1</ele>
        <time>2022-08-12T15:27:19.000Z</time>
      </trkpt>
      <trkpt lat="45.13413" lon="5.5066">
        <ele>1246.3</ele>
        <time>2022-08-12T15:27:20.000Z</time>
      </trkpt>
      <trkpt lat="45.13415" lon="5.50662">
        <ele>1246.4</ele>
        <time>2022-08-12T15:27:21.000Z</time>
      </trkpt>
      <trkpt lat="45.13417" lon="5.50664">
        <ele>1246.3</ele>
        <time>2022-08-12T15:27:22.000Z</time>
      </trkpt>
      <trkpt lat="45.13419" lon="5.50668">
        <ele>1246</ele>
        <time>2022-08-12T15:27:23.000Z</time>
      </trkpt>
      <trkpt lat="45.1342" lon="5.50672">
        <ele>1245.4</ele>
        <time>2022-08-12T15:27:24.000Z</time>
      </trkpt>
      <trkpt lat="45.13422" lon="5.50676">
        <ele>1244.9</ele>
        <time>2022-08-12T15:27:25.000Z</time>
      </trkpt>
      <trkpt lat="45.13423" lon="5.50677">
        <ele>1244.8</ele>
        <time>2022-08-12T15:27:26.000Z</time>
      </trkpt>
      <trkpt lat="45.13421" lon="5.50681">
        <ele>1232.93</ele>
      </trkpt>
      <trkpt lat="45.13424" lon="5.50693">
        <ele>1231.66</ele>
      </trkpt>
      <trkpt lat="45.13428" lon="5.50706">
        <ele>1229.25</ele>
      </trkpt>
      <trkpt lat="45.13413" lon="5.5072">
        <ele>1226.32</ele>
      </trkpt>
      <trkpt lat="45.13408" lon="5.50731">
        <ele>1223.3</ele>
      </trkpt>
      <trkpt lat="45.13409" lon="5.50737">
        <ele>1222.13</ele>
      </trkpt>
      <trkpt lat="45.13413" lon="5.50767">
        <ele>1218.43</ele>
      </trkpt>
      <trkpt lat="45.13427" lon="5.50772">
        <ele>1217.31</ele>
      </trkpt>
      <trkpt lat="45.13441" lon="5.50776">
        <ele>1217.07</ele>
      </trkpt>
      <trkpt lat="45.13451" lon="5.50791">
        <ele>1216.5</ele>
      </trkpt>
      <trkpt lat="45.13457" lon="5.50819">
        <ele>1213.03</ele>
      </trkpt>
      <trkpt lat="45.13458" lon="5.50833">
        <ele>1209.97</ele>
      </trkpt>
      <trkpt lat="45.13458" lon="5.50837">
        <ele>1209.3</ele>
      </trkpt>
      <trkpt lat="45.13443" lon="5.50872">
        <ele>1205</ele>
      </trkpt>
      <trkpt lat="45.1344" lon="5.50881">
        <ele>1203.27</ele>
      </trkpt>
      <trkpt lat="45.13424" lon="5.50888">
        <ele>1198.25</ele>
      </trkpt>
      <trkpt lat="45.1339" lon="5.50895">
        <ele>1196.25</ele>
      </trkpt>
      <trkpt lat="45.13378" lon="5.50891">
        <ele>1196.17</ele>
      </trkpt>
      <trkpt lat="45.13377" lon="5.50879">
        <ele>1197.56</ele>
      </trkpt>
      <trkpt lat="45.13366" lon="5.50855">
        <ele>1196.75</ele>
      </trkpt>
      <trkpt lat="45.13355" lon="5.50868">
        <ele>1194.92</ele>
      </trkpt>
      <trkpt lat="45.13351" lon="5.50871">
        <ele>1194.27</ele>
      </trkpt>
      <trkpt lat="45.13348" lon="5.50873">
        <ele>1193.66</ele>
      </trkpt>
      <trkpt lat="45.13345" lon="5.50873">
        <ele>1193.14</ele>
      </trkpt>
      <trkpt lat="45.13345" lon="5.50875">
        <ele>1192.71</ele>
      </trkpt>
      <trkpt lat="45.13345" lon="5.50877">
        <ele>1192.36</ele>
      </trkpt>
      <trkpt lat="45.13345" lon="5.50878">
        <ele>1192.08</ele>
      </trkpt>
      <trkpt lat="45.13346" lon="5.5088">
        <ele>1191.86</ele>
      </trkpt>
      <trkpt lat="45.13349" lon="5.50887">
        <ele>1191.24</ele>
      </trkpt>
      <trkpt lat="45.13348" lon="5.5089">
        <ele>1191.07</ele>
      </trkpt>
      <trkpt lat="45.13348" lon="5.5091">
        <ele>1190.42</ele>
      </trkpt>
      <trkpt lat="45.1335" lon="5.50911">
        <ele>1190.58</ele>
      </trkpt>
      <trkpt lat="45.1335" lon="5.50917">
        <ele>1190.69</ele>
      </trkpt>
      <trkpt lat="45.13347" lon="5.50925">
        <ele>1190.59</ele>
      </trkpt>
      <trkpt lat="45.13346" lon="5.50931">
        <ele>1190.52</ele>
      </trkpt>
      <trkpt lat="45.13345" lon="5.50937">
        <ele>1190.36</ele>
      </trkpt>
      <trkpt lat="45.13308" lon="5.5086">
        <ele>1203.2</ele>
        <time>2022-08-12T15:31:57.000Z</time>
      </trkpt>
      <trkpt lat="45.13306" lon="5.50861">
        <ele>1203</ele>
        <time>2022-08-12T15:31:58.000Z</time>
      </trkpt>
      <trkpt lat="45.13302" lon="5.50861">
        <ele>1203.2</ele>
        <time>2022-08-12T15:32:00.000Z</time>
      </trkpt>
      <trkpt lat="45.13301" lon="5.50861">
        <ele>1203.4</ele>
        <time>2022-08-12T15:32:01.000Z</time>
      </trkpt>
      <trkpt lat="45.13296" lon="5.50862">
        <ele>1203.5</ele>
        <time>2022-08-12T15:32:04.000Z</time>
      </trkpt>
      <trkpt lat="45.13295" lon="5.50864">
        <ele>1203.2</ele>
        <time>2022-08-12T15:32:05.000Z</time>
      </trkpt>
      <trkpt lat="45.13294" lon="5.50867">
        <ele>1202.9</ele>
        <time>2022-08-12T15:32:06.000Z</time>
      </trkpt>
      <trkpt lat="45.13293" lon="5.5087">
        <ele>1202.5</ele>
        <time>2022-08-12T15:32:07.000Z</time>
      </trkpt>
      <trkpt lat="45.13292" lon="5.50872">
        <ele>1202.2</ele>
        <time>2022-08-12T15:32:08.000Z</time>
      </trkpt>
      <trkpt lat="45.13291" lon="5.50873">
        <ele>1202.1</ele>
        <time>2022-08-12T15:32:09.000Z</time>
      </trkpt>
      <trkpt lat="45.1329" lon="5.50874">
        <ele>1202</ele>
        <time>2022-08-12T15:32:10.000Z</time>
      </trkpt>
      <trkpt lat="45.13289" lon="5.50875">
        <ele>1202.1</ele>
        <time>2022-08-12T15:32:11.000Z</time>
      </trkpt>
      <trkpt lat="45.13286" lon="5.50876">
        <ele>1202.1</ele>
        <time>2022-08-12T15:32:12.000Z</time>
      </trkpt>
      <trkpt lat="45.13277" lon="5.50887">
        <ele>1201.3</ele>
        <time>2022-08-12T15:32:17.000Z</time>
      </trkpt>
      <trkpt lat="45.13273" lon="5.50893">
        <ele>1200.3</ele>
        <time>2022-08-12T15:32:19.000Z</time>
      </trkpt>
      <trkpt lat="45.13271" lon="5.50896">
        <ele>1199.7</ele>
        <time>2022-08-12T15:32:20.000Z</time>
      </trkpt>
      <trkpt lat="45.13269" lon="5.509">
        <ele>1199.1</ele>
        <time>2022-08-12T15:32:21.000Z</time>
      </trkpt>
      <trkpt lat="45.13266" lon="5.50904">
        <ele>1198.3</ele>
        <time>2022-08-12T15:32:22.000Z</time>
      </trkpt>
      <trkpt lat="45.13262" lon="5.50909">
        <ele>1197.4</ele>
        <time>2022-08-12T15:32:24.000Z</time>
      </trkpt>
      <trkpt lat="45.1326" lon="5.5091">
        <ele>1197.2</ele>
        <time>2022-08-12T15:32:25.000Z</time>
      </trkpt>
      <trkpt lat="45.13258" lon="5.50911">
        <ele>1197</ele>
        <time>2022-08-12T15:32:26.000Z</time>
      </trkpt>
      <trkpt lat="45.13257" lon="5.50912">
        <ele>1196.8</ele>
        <time>2022-08-12T15:32:27.000Z</time>
      </trkpt>
      <trkpt lat="45.13256" lon="5.50914">
        <ele>1196.5</ele>
        <time>2022-08-12T15:32:28.000Z</time>
      </trkpt>
      <trkpt lat="45.13256" lon="5.50916">
        <ele>1196.1</ele>
        <time>2022-08-12T15:32:29.000Z</time>
      </trkpt>
      <trkpt lat="45.13255" lon="5.50924">
        <ele>1194.8</ele>
        <time>2022-08-12T15:32:31.000Z</time>
      </trkpt>
      <trkpt lat="45.13254" lon="5.50929">
        <ele>1194.1</ele>
        <time>2022-08-12T15:32:32.000Z</time>
      </trkpt>
      <trkpt lat="45.13253" lon="5.50933">
        <ele>1193.5</ele>
        <time>2022-08-12T15:32:33.000Z</time>
      </trkpt>
      <trkpt lat="45.1325" lon="5.50938">
        <ele>1192.9</ele>
        <time>2022-08-12T15:32:34.000Z</time>
      </trkpt>
      <trkpt lat="45.13248" lon="5.50945">
        <ele>1192</ele>
        <time>2022-08-12T15:32:35.000Z</time>
      </trkpt>
      <trkpt lat="45.13246" lon="5.50952">
        <ele>1190.8</ele>
        <time>2022-08-12T15:32:36.000Z</time>
      </trkpt>
      <trkpt lat="45.13246" lon="5.5096">
        <ele>1189.3</ele>
        <time>2022-08-12T15:32:37.000Z</time>
      </trkpt>
      <trkpt lat="45.13246" lon="5.50969">
        <ele>1187.9</ele>
        <time>2022-08-12T15:32:38.000Z</time>
      </trkpt>
      <trkpt lat="45.13246" lon="5.50976">
        <ele>1186.6</ele>
        <time>2022-08-12T15:32:39.000Z</time>
      </trkpt>
      <trkpt lat="45.13247" lon="5.50981">
        <ele>1185.7</ele>
        <time>2022-08-12T15:32:40.000Z</time>
      </trkpt>
      <trkpt lat="45.13248" lon="5.50984">
        <ele>1185</ele>
        <time>2022-08-12T15:32:41.000Z</time>
      </trkpt>
      <trkpt lat="45.13249" lon="5.50987">
        <ele>1184.5</ele>
        <time>2022-08-12T15:32:42.000Z</time>
      </trkpt>
      <trkpt lat="45.1325" lon="5.50989">
        <ele>1184</ele>
        <time>2022-08-12T15:32:43.000Z</time>
      </trkpt>
      <trkpt lat="45.13252" lon="5.50991">
        <ele>1183.6</ele>
        <time>2022-08-12T15:32:44.000Z</time>
      </trkpt>
      <trkpt lat="45.13255" lon="5.50992">
        <ele>1183.1</ele>
        <time>2022-08-12T15:32:45.000Z</time>
      </trkpt>
      <trkpt lat="45.13257" lon="5.50993">
        <ele>1182.8</ele>
        <time>2022-08-12T15:32:46.000Z</time>
      </trkpt>
      <trkpt lat="45.1326" lon="5.50993">
        <ele>1182.6</ele>
        <time>2022-08-12T15:32:47.000Z</time>
      </trkpt>
      <trkpt lat="45.13267" lon="5.50987">
        <ele>1183.2</ele>
        <time>2022-08-12T15:32:49.000Z</time>
      </trkpt>
      <trkpt lat="45.13271" lon="5.5098">
        <ele>1184.1</ele>
        <time>2022-08-12T15:32:51.000Z</time>
      </trkpt>
      <trkpt lat="45.13273" lon="5.50977">
        <ele>1184.6</ele>
        <time>2022-08-12T15:32:52.000Z</time>
      </trkpt>
      <trkpt lat="45.13274" lon="5.50974">
        <ele>1184.9</ele>
        <time>2022-08-12T15:32:53.000Z</time>
      </trkpt>
      <trkpt lat="45.13275" lon="5.50972">
        <ele>1185.2</ele>
        <time>2022-08-12T15:32:54.000Z</time>
      </trkpt>
      <trkpt lat="45.13276" lon="5.50971">
        <ele>1185.4</ele>
        <time>2022-08-12T15:32:55.000Z</time>
      </trkpt>
      <trkpt lat="45.13277" lon="5.50968">
        <ele>1185.9</ele>
        <time>2022-08-12T15:32:56.000Z</time>
      </trkpt>
      <trkpt lat="45.13278" lon="5.50966">
        <ele>1186.2</ele>
        <time>2022-08-12T15:32:57.000Z</time>
      </trkpt>
      <trkpt lat="45.1328" lon="5.50961">
        <ele>1186.9</ele>
        <time>2022-08-12T15:32:59.000Z</time>
      </trkpt>
      <trkpt lat="45.1328" lon="5.5096">
        <ele>1187.2</ele>
        <time>2022-08-12T15:33:00.000Z</time>
      </trkpt>
      <trkpt lat="45.13281" lon="5.50958">
        <ele>1187.4</ele>
        <time>2022-08-12T15:33:01.000Z</time>
      </trkpt>
      <trkpt lat="45.13282" lon="5.50955">
        <ele>1187.9</ele>
        <time>2022-08-12T15:33:02.000Z</time>
      </trkpt>
      <trkpt lat="45.13285" lon="5.50952">
        <ele>1188.4</ele>
        <time>2022-08-12T15:33:04.000Z</time>
      </trkpt>
      <trkpt lat="45.13285" lon="5.50951">
        <ele>1188.5</ele>
        <time>2022-08-12T15:33:05.000Z</time>
      </trkpt>
      <trkpt lat="45.13287" lon="5.5095">
        <ele>1188.7</ele>
        <time>2022-08-12T15:33:06.000Z</time>
      </trkpt>
      <trkpt lat="45.13288" lon="5.50948">
        <ele>1189</ele>
        <time>2022-08-12T15:33:07.000Z</time>
      </trkpt>
      <trkpt lat="45.13291" lon="5.50944">
        <ele>1189.6</ele>
        <time>2022-08-12T15:33:09.000Z</time>
      </trkpt>
      <trkpt lat="45.13293" lon="5.50941">
        <ele>1190.2</ele>
        <time>2022-08-12T15:33:11.000Z</time>
      </trkpt>
      <trkpt lat="45.13293" lon="5.50939">
        <ele>1190.4</ele>
        <time>2022-08-12T15:33:12.000Z</time>
      </trkpt>
      <trkpt lat="45.13294" lon="5.50937">
        <ele>1190.9</ele>
        <time>2022-08-12T15:33:13.000Z</time>
      </trkpt>
      <trkpt lat="45.13295" lon="5.50934">
        <ele>1191.4</ele>
        <time>2022-08-12T15:33:14.000Z</time>
      </trkpt>
      <trkpt lat="45.13298" lon="5.50929">
        <ele>1192.3</ele>
        <time>2022-08-12T15:33:17.000Z</time>
      </trkpt>
      <trkpt lat="45.13299" lon="5.50927">
        <ele>1192.5</ele>
        <time>2022-08-12T15:33:18.000Z</time>
      </trkpt>
      <trkpt lat="45.133" lon="5.50925">
        <ele>1192.8</ele>
        <time>2022-08-12T15:33:19.000Z</time>
      </trkpt>
      <trkpt lat="45.13301" lon="5.50924">
        <ele>1193</ele>
        <time>2022-08-12T15:33:21.000Z</time>
      </trkpt>
      <trkpt lat="45.13304" lon="5.50923">
        <ele>1192.9</ele>
        <time>2022-08-12T15:33:22.000Z</time>
      </trkpt>
      <trkpt lat="45.13307" lon="5.50923">
        <ele>1192.9</ele>
        <time>2022-08-12T15:33:23.000Z</time>
      </trkpt>
      <trkpt lat="45.1331" lon="5.50926">
        <ele>1192.7</ele>
        <time>2022-08-12T15:33:25.000Z</time>
      </trkpt>
      <trkpt lat="45.1331" lon="5.50929">
        <ele>1192.3</ele>
        <time>2022-08-12T15:33:26.000Z</time>
      </trkpt>
      <trkpt lat="45.13313" lon="5.50945">
        <ele>1189.7</ele>
        <time>2022-08-12T15:33:31.000Z</time>
      </trkpt>
      <trkpt lat="45.13316" lon="5.50953">
        <ele>1188.5</ele>
        <time>2022-08-12T15:33:33.000Z</time>
      </trkpt>
      <trkpt lat="45.13322" lon="5.50966">
        <ele>1186.5</ele>
        <time>2022-08-12T15:33:37.000Z</time>
      </trkpt>
      <trkpt lat="45.13326" lon="5.50973">
        <ele>1185.4</ele>
        <time>2022-08-12T15:33:39.000Z</time>
      </trkpt>
      <trkpt lat="45.13328" lon="5.50976">
        <ele>1184.9</ele>
        <time>2022-08-12T15:33:40.000Z</time>
      </trkpt>
      <trkpt lat="45.1333" lon="5.50991">
        <ele>1182.5</ele>
        <time>2022-08-12T15:33:42.000Z</time>
      </trkpt>
      <trkpt lat="45.1333" lon="5.50999">
        <ele>1181</ele>
        <time>2022-08-12T15:33:43.000Z</time>
      </trkpt>
      <trkpt lat="45.1333" lon="5.51006">
        <ele>1179.4</ele>
        <time>2022-08-12T15:33:44.000Z</time>
      </trkpt>
      <trkpt lat="45.1333" lon="5.51014">
        <ele>1177.8</ele>
        <time>2022-08-12T15:33:45.000Z</time>
      </trkpt>
      <trkpt lat="45.13331" lon="5.51021">
        <ele>1176.4</ele>
        <time>2022-08-12T15:33:46.000Z</time>
      </trkpt>
      <trkpt lat="45.13332" lon="5.51026">
        <ele>1175.3</ele>
        <time>2022-08-12T15:33:47.000Z</time>
      </trkpt>
      <trkpt lat="45.13334" lon="5.5103">
        <ele>1174.6</ele>
        <time>2022-08-12T15:33:48.000Z</time>
      </trkpt>
      <trkpt lat="45.13335" lon="5.51033">
        <ele>1174.2</ele>
        <time>2022-08-12T15:33:49.000Z</time>
      </trkpt>
      <trkpt lat="45.13336" lon="5.51034">
        <ele>1174.2</ele>
        <time>2022-08-12T15:33:50.000Z</time>
      </trkpt>
      <trkpt lat="45.13337" lon="5.51036">
        <ele>1174</ele>
        <time>2022-08-12T15:33:51.000Z</time>
      </trkpt>
      <trkpt lat="45.13339" lon="5.51038">
        <ele>1173.8</ele>
        <time>2022-08-12T15:33:52.000Z</time>
      </trkpt>
      <trkpt lat="45.13341" lon="5.51041">
        <ele>1173.2</ele>
        <time>2022-08-12T15:33:53.000Z</time>
      </trkpt>
      <trkpt lat="45.13343" lon="5.51044">
        <ele>1173</ele>
        <time>2022-08-12T15:33:54.000Z</time>
      </trkpt>
      <trkpt lat="45.1335" lon="5.51048">
        <ele>1172.8</ele>
        <time>2022-08-12T15:33:57.000Z</time>
      </trkpt>
      <trkpt lat="45.13352" lon="5.5105">
        <ele>1172.6</ele>
        <time>2022-08-12T15:33:58.000Z</time>
      </trkpt>
      <trkpt lat="45.13354" lon="5.51051">
        <ele>1172.4</ele>
        <time>2022-08-12T15:33:59.000Z</time>
      </trkpt>
      <trkpt lat="45.13359" lon="5.51052">
        <ele>1172.5</ele>
        <time>2022-08-12T15:34:01.000Z</time>
      </trkpt>
      <trkpt lat="45.13361" lon="5.51053">
        <ele>1172.5</ele>
        <time>2022-08-12T15:34:02.000Z</time>
      </trkpt>
      <trkpt lat="45.13363" lon="5.51053">
        <ele>1172.6</ele>
        <time>2022-08-12T15:34:03.000Z</time>
      </trkpt>
      <trkpt lat="45.13363" lon="5.51054">
        <ele>1172.6</ele>
        <time>2022-08-12T15:34:04.000Z</time>
      </trkpt>
      <trkpt lat="45.13363" lon="5.51053">
        <ele>1172.7</ele>
        <time>2022-08-12T15:34:07.000Z</time>
      </trkpt>
      <trkpt lat="45.1336" lon="5.51054">
        <ele>1172.2</ele>
        <time>2022-08-12T15:34:51.000Z</time>
      </trkpt>
      <trkpt lat="45.1336" lon="5.51053">
        <ele>1172.4</ele>
        <time>2022-08-12T15:34:58.000Z</time>
      </trkpt>
      <trkpt lat="45.13363" lon="5.51057">
        <ele>1172</ele>
        <time>2022-08-12T15:35:01.000Z</time>
      </trkpt>
      <trkpt lat="45.13367" lon="5.5106">
        <ele>1171.8</ele>
        <time>2022-08-12T15:35:03.000Z</time>
      </trkpt>
      <trkpt lat="45.13371" lon="5.51062">
        <ele>1171.9</ele>
        <time>2022-08-12T15:35:05.000Z</time>
      </trkpt>
      <trkpt lat="45.13374" lon="5.51063">
        <ele>1172</ele>
        <time>2022-08-12T15:35:06.000Z</time>
      </trkpt>
      <trkpt lat="45.13378" lon="5.51063">
        <ele>1172.3</ele>
        <time>2022-08-12T15:35:07.000Z</time>
      </trkpt>
      <trkpt lat="45.13392" lon="5.51063">
        <ele>1173.5</ele>
        <time>2022-08-12T15:35:10.000Z</time>
      </trkpt>
      <trkpt lat="45.13401" lon="5.51063">
        <ele>1173.8</ele>
        <time>2022-08-12T15:35:12.000Z</time>
      </trkpt>
      <trkpt lat="45.13406" lon="5.51064">
        <ele>1173.8</ele>
        <time>2022-08-12T15:35:13.000Z</time>
      </trkpt>
      <trkpt lat="45.13414" lon="5.51065">
        <ele>1173.9</ele>
        <time>2022-08-12T15:35:15.000Z</time>
      </trkpt>
      <trkpt lat="45.13418" lon="5.51065">
        <ele>1173.9</ele>
        <time>2022-08-12T15:35:16.000Z</time>
      </trkpt>
      <trkpt lat="45.13426" lon="5.51065">
        <ele>1173.7</ele>
        <time>2022-08-12T15:35:18.000Z</time>
      </trkpt>
      <trkpt lat="45.13428" lon="5.51065">
        <ele>1173.7</ele>
        <time>2022-08-12T15:35:19.000Z</time>
      </trkpt>
      <trkpt lat="45.13431" lon="5.51064">
        <ele>1173.8</ele>
        <time>2022-08-12T15:35:20.000Z</time>
      </trkpt>
      <trkpt lat="45.1344" lon="5.51061">
        <ele>1174.1</ele>
        <time>2022-08-12T15:35:22.000Z</time>
      </trkpt>
      <trkpt lat="45.13443" lon="5.51061">
        <ele>1174</ele>
        <time>2022-08-12T15:35:23.000Z</time>
      </trkpt>
      <trkpt lat="45.13448" lon="5.51061">
        <ele>1174</ele>
        <time>2022-08-12T15:35:24.000Z</time>
      </trkpt>
      <trkpt lat="45.1345" lon="5.51061">
        <ele>1173.8</ele>
        <time>2022-08-12T15:35:25.000Z</time>
      </trkpt>
      <trkpt lat="45.13452" lon="5.5106">
        <ele>1173.9</ele>
        <time>2022-08-12T15:35:26.000Z</time>
      </trkpt>
      <trkpt lat="45.13455" lon="5.51061">
        <ele>1173.7</ele>
        <time>2022-08-12T15:35:27.000Z</time>
      </trkpt>
      <trkpt lat="45.13458" lon="5.51061">
        <ele>1173.5</ele>
        <time>2022-08-12T15:35:28.000Z</time>
      </trkpt>
      <trkpt lat="45.13461" lon="5.5106">
        <ele>1173.5</ele>
        <time>2022-08-12T15:35:29.000Z</time>
      </trkpt>
      <trkpt lat="45.13472" lon="5.51058">
        <ele>1173.5</ele>
        <time>2022-08-12T15:35:32.000Z</time>
      </trkpt>
      <trkpt lat="45.13481" lon="5.51059">
        <ele>1173.1</ele>
        <time>2022-08-12T15:35:34.000Z</time>
      </trkpt>
      <trkpt lat="45.13486" lon="5.5106">
        <ele>1172.7</ele>
        <time>2022-08-12T15:35:35.000Z</time>
      </trkpt>
      <trkpt lat="45.13491" lon="5.5106">
        <ele>1172.5</ele>
        <time>2022-08-12T15:35:36.000Z</time>
      </trkpt>
      <trkpt lat="45.13498" lon="5.51061">
        <ele>1172</ele>
        <time>2022-08-12T15:35:37.000Z</time>
      </trkpt>
      <trkpt lat="45.13506" lon="5.51063">
        <ele>1171.5</ele>
        <time>2022-08-12T15:35:38.000Z</time>
      </trkpt>
      <trkpt lat="45.13513" lon="5.51063">
        <ele>1171.2</ele>
        <time>2022-08-12T15:35:39.000Z</time>
      </trkpt>
      <trkpt lat="45.1352" lon="5.51064">
        <ele>1170.7</ele>
        <time>2022-08-12T15:35:40.000Z</time>
      </trkpt>
      <trkpt lat="45.13527" lon="5.51067">
        <ele>1169.9</ele>
        <time>2022-08-12T15:35:41.000Z</time>
      </trkpt>
      <trkpt lat="45.13535" lon="5.5107">
        <ele>1169.1</ele>
        <time>2022-08-12T15:35:42.000Z</time>
      </trkpt>
      <trkpt lat="45.13549" lon="5.51077">
        <ele>1167.4</ele>
        <time>2022-08-12T15:35:44.000Z</time>
      </trkpt>
      <trkpt lat="45.13556" lon="5.5108">
        <ele>1166.5</ele>
        <time>2022-08-12T15:35:45.000Z</time>
      </trkpt>
      <trkpt lat="45.1357" lon="5.51091">
        <ele>1164.2</ele>
        <time>2022-08-12T15:35:47.000Z</time>
      </trkpt>
      <trkpt lat="45.13584" lon="5.51101">
        <ele>1161.8</ele>
        <time>2022-08-12T15:35:49.000Z</time>
      </trkpt>
      <trkpt lat="45.13589" lon="5.51105">
        <ele>1160.8</ele>
        <time>2022-08-12T15:35:50.000Z</time>
      </trkpt>
      <trkpt lat="45.13595" lon="5.51109">
        <ele>1160</ele>
        <time>2022-08-12T15:35:51.000Z</time>
      </trkpt>
      <trkpt lat="45.136" lon="5.51111">
        <ele>1159.4</ele>
        <time>2022-08-12T15:35:52.000Z</time>
      </trkpt>
      <trkpt lat="45.13604" lon="5.51113">
        <ele>1158.9</ele>
        <time>2022-08-12T15:35:53.000Z</time>
      </trkpt>
      <trkpt lat="45.13608" lon="5.51113">
        <ele>1158.8</ele>
        <time>2022-08-12T15:35:54.000Z</time>
      </trkpt>
      <trkpt lat="45.13611" lon="5.51111">
        <ele>1159.1</ele>
        <time>2022-08-12T15:35:55.000Z</time>
      </trkpt>
      <trkpt lat="45.13613" lon="5.51109">
        <ele>1159.3</ele>
        <time>2022-08-12T15:35:56.000Z</time>
      </trkpt>
      <trkpt lat="45.13614" lon="5.51107">
        <ele>1159.6</ele>
        <time>2022-08-12T15:35:57.000Z</time>
      </trkpt>
      <trkpt lat="45.13616" lon="5.51105">
        <ele>1159.9</ele>
        <time>2022-08-12T15:35:58.000Z</time>
      </trkpt>
      <trkpt lat="45.13617" lon="5.51104">
        <ele>1160</ele>
        <time>2022-08-12T15:35:59.000Z</time>
      </trkpt>
      <trkpt lat="45.13619" lon="5.51104">
        <ele>1160</ele>
        <time>2022-08-12T15:36:00.000Z</time>
      </trkpt>
      <trkpt lat="45.13623" lon="5.51102">
        <ele>1160.2</ele>
        <time>2022-08-12T15:36:01.000Z</time>
      </trkpt>
      <trkpt lat="45.13626" lon="5.51101">
        <ele>1160.2</ele>
        <time>2022-08-12T15:36:02.000Z</time>
      </trkpt>
      <trkpt lat="45.13629" lon="5.51101">
        <ele>1160.2</ele>
        <time>2022-08-12T15:36:03.000Z</time>
      </trkpt>
      <trkpt lat="45.13632" lon="5.51102">
        <ele>1159.9</ele>
        <time>2022-08-12T15:36:05.000Z</time>
      </trkpt>
      <trkpt lat="45.13634" lon="5.51105">
        <ele>1159.3</ele>
        <time>2022-08-12T15:36:06.000Z</time>
      </trkpt>
      <trkpt lat="45.13637" lon="5.51105">
        <ele>1159.2</ele>
        <time>2022-08-12T15:36:07.000Z</time>
      </trkpt>
      <trkpt lat="45.13643" lon="5.51105">
        <ele>1158.7</ele>
        <time>2022-08-12T15:36:09.000Z</time>
      </trkpt>
      <trkpt lat="45.13649" lon="5.51104">
        <ele>1158.6</ele>
        <time>2022-08-12T15:36:10.000Z</time>
      </trkpt>
      <trkpt lat="45.13651" lon="5.51101">
        <ele>1158.8</ele>
        <time>2022-08-12T15:36:11.000Z</time>
      </trkpt>
      <trkpt lat="45.13653" lon="5.511">
        <ele>1159</ele>
        <time>2022-08-12T15:36:12.000Z</time>
      </trkpt>
      <trkpt lat="45.13655" lon="5.51098">
        <ele>1159.2</ele>
        <time>2022-08-12T15:36:13.000Z</time>
      </trkpt>
      <trkpt lat="45.13656" lon="5.51098">
        <ele>1159.1</ele>
        <time>2022-08-12T15:36:14.000Z</time>
      </trkpt>
      <trkpt lat="45.13658" lon="5.51099">
        <ele>1158.8</ele>
        <time>2022-08-12T15:36:15.000Z</time>
      </trkpt>
      <trkpt lat="45.13659" lon="5.51099">
        <ele>1158.8</ele>
        <time>2022-08-12T15:36:16.000Z</time>
      </trkpt>
      <trkpt lat="45.13661" lon="5.51099">
        <ele>1158.7</ele>
        <time>2022-08-12T15:36:17.000Z</time>
      </trkpt>
      <trkpt lat="45.13663" lon="5.51099">
        <ele>1158.5</ele>
        <time>2022-08-12T15:36:18.000Z</time>
      </trkpt>
      <trkpt lat="45.13665" lon="5.51098">
        <ele>1158.5</ele>
        <time>2022-08-12T15:36:19.000Z</time>
      </trkpt>
      <trkpt lat="45.13669" lon="5.51095">
        <ele>1158.5</ele>
        <time>2022-08-12T15:36:20.000Z</time>
      </trkpt>
      <trkpt lat="45.13678" lon="5.51081">
        <ele>1159.5</ele>
        <time>2022-08-12T15:36:24.000Z</time>
      </trkpt>
      <trkpt lat="45.13687" lon="5.51075">
        <ele>1159</ele>
        <time>2022-08-12T15:36:27.000Z</time>
      </trkpt>
      <trkpt lat="45.13694" lon="5.5107">
        <ele>1158.5</ele>
        <time>2022-08-12T15:36:29.000Z</time>
      </trkpt>
      <trkpt lat="45.13698" lon="5.51064">
        <ele>1158.5</ele>
        <time>2022-08-12T15:36:31.000Z</time>
      </trkpt>
      <trkpt lat="45.13699" lon="5.5106">
        <ele>1158.6</ele>
        <time>2022-08-12T15:36:32.000Z</time>
      </trkpt>
      <trkpt lat="45.13703" lon="5.51057">
        <ele>1158.4</ele>
        <time>2022-08-12T15:36:33.000Z</time>
      </trkpt>
      <trkpt lat="45.13706" lon="5.51055">
        <ele>1158</ele>
        <time>2022-08-12T15:36:34.000Z</time>
      </trkpt>
      <trkpt lat="45.13709" lon="5.51053">
        <ele>1157.5</ele>
        <time>2022-08-12T15:36:35.000Z</time>
      </trkpt>
      <trkpt lat="45.13712" lon="5.5105">
        <ele>1157.2</ele>
        <time>2022-08-12T15:36:36.000Z</time>
      </trkpt>
      <trkpt lat="45.13718" lon="5.5104">
        <ele>1156.9</ele>
        <time>2022-08-12T15:36:38.000Z</time>
      </trkpt>
      <trkpt lat="45.13721" lon="5.51036">
        <ele>1156.6</ele>
        <time>2022-08-12T15:36:39.000Z</time>
      </trkpt>
      <trkpt lat="45.13724" lon="5.51031">
        <ele>1156.3</ele>
        <time>2022-08-12T15:36:40.000Z</time>
      </trkpt>
      <trkpt lat="45.13728" lon="5.51026">
        <ele>1155.3</ele>
        <time>2022-08-12T15:36:41.000Z</time>
      </trkpt>
      <trkpt lat="45.13731" lon="5.51024">
        <ele>1154.3</ele>
        <time>2022-08-12T15:36:42.000Z</time>
      </trkpt>
      <trkpt lat="45.13734" lon="5.5102">
        <ele>1153.4</ele>
        <time>2022-08-12T15:36:43.000Z</time>
      </trkpt>
      <trkpt lat="45.13736" lon="5.51017">
        <ele>1153</ele>
        <time>2022-08-12T15:36:44.000Z</time>
      </trkpt>
      <trkpt lat="45.13738" lon="5.51012">
        <ele>1152.3</ele>
        <time>2022-08-12T15:36:45.000Z</time>
      </trkpt>
      <trkpt lat="45.13745" lon="5.50987">
        <ele>1150.6</ele>
        <time>2022-08-12T15:36:49.000Z</time>
      </trkpt>
      <trkpt lat="45.13748" lon="5.50975">
        <ele>1149.7</ele>
        <time>2022-08-12T15:36:51.000Z</time>
      </trkpt>
      <trkpt lat="45.13749" lon="5.50966">
        <ele>1149.6</ele>
        <time>2022-08-12T15:36:52.000Z</time>
      </trkpt>
      <trkpt lat="45.1375" lon="5.50958">
        <ele>1149.6</ele>
        <time>2022-08-12T15:36:53.000Z</time>
      </trkpt>
      <trkpt lat="45.13748" lon="5.50948">
        <ele>1150.5</ele>
        <time>2022-08-12T15:36:54.000Z</time>
      </trkpt>
      <trkpt lat="45.13747" lon="5.50939">
        <ele>1151.4</ele>
        <time>2022-08-12T15:36:55.000Z</time>
      </trkpt>
      <trkpt lat="45.13747" lon="5.50929">
        <ele>1152</ele>
        <time>2022-08-12T15:36:56.000Z</time>
      </trkpt>
      <trkpt lat="45.13747" lon="5.5092">
        <ele>1152.6</ele>
        <time>2022-08-12T15:36:57.000Z</time>
      </trkpt>
      <trkpt lat="45.13746" lon="5.50908">
        <ele>1153.5</ele>
        <time>2022-08-12T15:36:58.000Z</time>
      </trkpt>
      <trkpt lat="45.13746" lon="5.50895">
        <ele>1154.2</ele>
        <time>2022-08-12T15:36:59.000Z</time>
      </trkpt>
      <trkpt lat="45.13748" lon="5.50886">
        <ele>1153.9</ele>
        <time>2022-08-12T15:37:00.000Z</time>
      </trkpt>
      <trkpt lat="45.13749" lon="5.50881">
        <ele>1153.9</ele>
        <time>2022-08-12T15:37:01.000Z</time>
      </trkpt>
      <trkpt lat="45.1375" lon="5.50874">
        <ele>1154.2</ele>
        <time>2022-08-12T15:37:02.000Z</time>
      </trkpt>
      <trkpt lat="45.1375" lon="5.50868">
        <ele>1154.6</ele>
        <time>2022-08-12T15:37:03.000Z</time>
      </trkpt>
      <trkpt lat="45.13751" lon="5.50864">
        <ele>1154.7</ele>
        <time>2022-08-12T15:37:04.000Z</time>
      </trkpt>
      <trkpt lat="45.13754" lon="5.50858">
        <ele>1154.9</ele>
        <time>2022-08-12T15:37:05.000Z</time>
      </trkpt>
      <trkpt lat="45.13757" lon="5.50853">
        <ele>1155.2</ele>
        <time>2022-08-12T15:37:06.000Z</time>
      </trkpt>
      <trkpt lat="45.13762" lon="5.50852">
        <ele>1155</ele>
        <time>2022-08-12T15:37:07.000Z</time>
      </trkpt>
      <trkpt lat="45.13766" lon="5.50853">
        <ele>1154.4</ele>
        <time>2022-08-12T15:37:08.000Z</time>
      </trkpt>
      <trkpt lat="45.1378" lon="5.50863">
        <ele>1151.9</ele>
        <time>2022-08-12T15:37:11.000Z</time>
      </trkpt>
      <trkpt lat="45.13783" lon="5.50865">
        <ele>1151.5</ele>
        <time>2022-08-12T15:37:12.000Z</time>
      </trkpt>
      <trkpt lat="45.13786" lon="5.5087">
        <ele>1150.6</ele>
        <time>2022-08-12T15:37:13.000Z</time>
      </trkpt>
      <trkpt lat="45.13789" lon="5.50877">
        <ele>1149.3</ele>
        <time>2022-08-12T15:37:14.000Z</time>
      </trkpt>
      <trkpt lat="45.13792" lon="5.50881">
        <ele>1148.3</ele>
        <time>2022-08-12T15:37:15.000Z</time>
      </trkpt>
      <trkpt lat="45.13794" lon="5.50885">
        <ele>1147.4</ele>
        <time>2022-08-12T15:37:16.000Z</time>
      </trkpt>
      <trkpt lat="45.13796" lon="5.50888">
        <ele>1146.5</ele>
        <time>2022-08-12T15:37:17.000Z</time>
      </trkpt>
      <trkpt lat="45.13798" lon="5.50892">
        <ele>1145.6</ele>
        <time>2022-08-12T15:37:18.000Z</time>
      </trkpt>
      <trkpt lat="45.13799" lon="5.50895">
        <ele>1144.6</ele>
        <time>2022-08-12T15:37:19.000Z</time>
      </trkpt>
      <trkpt lat="45.13805" lon="5.50905">
        <ele>1141.5</ele>
        <time>2022-08-12T15:37:22.000Z</time>
      </trkpt>
      <trkpt lat="45.13806" lon="5.50907">
        <ele>1140.8</ele>
        <time>2022-08-12T15:37:23.000Z</time>
      </trkpt>
      <trkpt lat="45.13808" lon="5.50909">
        <ele>1140.3</ele>
        <time>2022-08-12T15:37:24.000Z</time>
      </trkpt>
      <trkpt lat="45.13809" lon="5.5091">
        <ele>1140</ele>
        <time>2022-08-12T15:37:25.000Z</time>
      </trkpt>
      <trkpt lat="45.1381" lon="5.50911">
        <ele>1139.7</ele>
        <time>2022-08-12T15:37:26.000Z</time>
      </trkpt>
      <trkpt lat="45.13811" lon="5.50912">
        <ele>1139.5</ele>
        <time>2022-08-12T15:37:27.000Z</time>
      </trkpt>
      <trkpt lat="45.13813" lon="5.50912">
        <ele>1139.4</ele>
        <time>2022-08-12T15:37:28.000Z</time>
      </trkpt>
      <trkpt lat="45.13814" lon="5.50911">
        <ele>1139.7</ele>
        <time>2022-08-12T15:37:29.000Z</time>
      </trkpt>
      <trkpt lat="45.13819" lon="5.50907">
        <ele>1140.8</ele>
        <time>2022-08-12T15:37:32.000Z</time>
      </trkpt>
      <trkpt lat="45.1382" lon="5.50908">
        <ele>1140.8</ele>
        <time>2022-08-12T15:37:33.000Z</time>
      </trkpt>
      <trkpt lat="45.13821" lon="5.50907">
        <ele>1141.1</ele>
        <time>2022-08-12T15:37:34.000Z</time>
      </trkpt>
      <trkpt lat="45.13822" lon="5.50906">
        <ele>1141.4</ele>
        <time>2022-08-12T15:37:35.000Z</time>
      </trkpt>
      <trkpt lat="45.13824" lon="5.50905">
        <ele>1141.7</ele>
        <time>2022-08-12T15:37:36.000Z</time>
      </trkpt>
      <trkpt lat="45.13824" lon="5.50904">
        <ele>1141.8</ele>
        <time>2022-08-12T15:37:37.000Z</time>
      </trkpt>
      <trkpt lat="45.13825" lon="5.50904">
        <ele>1141.8</ele>
        <time>2022-08-12T15:37:38.000Z</time>
      </trkpt>
      <trkpt lat="45.13827" lon="5.50904">
        <ele>1141.9</ele>
        <time>2022-08-12T15:37:43.000Z</time>
      </trkpt>
      <trkpt lat="45.13834" lon="5.50904">
        <ele>1142.2</ele>
        <time>2022-08-12T15:37:46.000Z</time>
      </trkpt>
      <trkpt lat="45.13837" lon="5.50905">
        <ele>1141.3</ele>
        <time>2022-08-12T15:37:47.000Z</time>
      </trkpt>
      <trkpt lat="45.13842" lon="5.50908">
        <ele>1140.1</ele>
        <time>2022-08-12T15:37:48.000Z</time>
      </trkpt>
      <trkpt lat="45.13845" lon="5.5091">
        <ele>1139.1</ele>
        <time>2022-08-12T15:37:49.000Z</time>
      </trkpt>
      <trkpt lat="45.13849" lon="5.50912">
        <ele>1138.4</ele>
        <time>2022-08-12T15:37:50.000Z</time>
      </trkpt>
      <trkpt lat="45.13852" lon="5.50913">
        <ele>1137.6</ele>
        <time>2022-08-12T15:37:51.000Z</time>
      </trkpt>
      <trkpt lat="45.13856" lon="5.50915">
        <ele>1136.9</ele>
        <time>2022-08-12T15:37:52.000Z</time>
      </trkpt>
      <trkpt lat="45.13866" lon="5.50914">
        <ele>1135.8</ele>
        <time>2022-08-12T15:37:54.000Z</time>
      </trkpt>
      <trkpt lat="45.13869" lon="5.50911">
        <ele>1135.7</ele>
        <time>2022-08-12T15:37:55.000Z</time>
      </trkpt>
      <trkpt lat="45.1387" lon="5.50909">
        <ele>1136</ele>
        <time>2022-08-12T15:37:56.000Z</time>
      </trkpt>
      <trkpt lat="45.13871" lon="5.50907">
        <ele>1136.2</ele>
        <time>2022-08-12T15:37:57.000Z</time>
      </trkpt>
      <trkpt lat="45.13873" lon="5.50904">
        <ele>1136.5</ele>
        <time>2022-08-12T15:37:58.000Z</time>
      </trkpt>
      <trkpt lat="45.13875" lon="5.50901">
        <ele>1136.8</ele>
        <time>2022-08-12T15:37:59.000Z</time>
      </trkpt>
      <trkpt lat="45.13878" lon="5.50896">
        <ele>1136.9</ele>
        <time>2022-08-12T15:38:00.000Z</time>
      </trkpt>
      <trkpt lat="45.13881" lon="5.50892">
        <ele>1136.6</ele>
        <time>2022-08-12T15:38:01.000Z</time>
      </trkpt>
      <trkpt lat="45.13886" lon="5.50888">
        <ele>1136.1</ele>
        <time>2022-08-12T15:38:02.000Z</time>
      </trkpt>
      <trkpt lat="45.13892" lon="5.50883">
        <ele>1135.8</ele>
        <time>2022-08-12T15:38:03.000Z</time>
      </trkpt>
      <trkpt lat="45.13896" lon="5.50878">
        <ele>1135.7</ele>
        <time>2022-08-12T15:38:04.000Z</time>
      </trkpt>
      <trkpt lat="45.13899" lon="5.50874">
        <ele>1135.7</ele>
        <time>2022-08-12T15:38:05.000Z</time>
      </trkpt>
      <trkpt lat="45.13902" lon="5.50872">
        <ele>1135.2</ele>
        <time>2022-08-12T15:38:06.000Z</time>
      </trkpt>
      <trkpt lat="45.13905" lon="5.50872">
        <ele>1134.3</ele>
        <time>2022-08-12T15:38:07.000Z</time>
      </trkpt>
      <trkpt lat="45.13906" lon="5.50873">
        <ele>1133.6</ele>
        <time>2022-08-12T15:38:08.000Z</time>
      </trkpt>
      <trkpt lat="45.13908" lon="5.50877">
        <ele>1132.2</ele>
        <time>2022-08-12T15:38:09.000Z</time>
      </trkpt>
      <trkpt lat="45.13909" lon="5.50881">
        <ele>1130.8</ele>
        <time>2022-08-12T15:38:10.000Z</time>
      </trkpt>
      <trkpt lat="45.1391" lon="5.50886">
        <ele>1129.6</ele>
        <time>2022-08-12T15:38:11.000Z</time>
      </trkpt>
      <trkpt lat="45.13905" lon="5.50902">
        <ele>1128.1</ele>
        <time>2022-08-12T15:38:14.000Z</time>
      </trkpt>
      <trkpt lat="45.13903" lon="5.50905">
        <ele>1127.9</ele>
        <time>2022-08-12T15:38:15.000Z</time>
      </trkpt>
      <trkpt lat="45.13904" lon="5.5091">
        <ele>1126.9</ele>
        <time>2022-08-12T15:38:16.000Z</time>
      </trkpt>
      <trkpt lat="45.13904" lon="5.50912">
        <ele>1126.3</ele>
        <time>2022-08-12T15:38:17.000Z</time>
      </trkpt>
      <trkpt lat="45.13905" lon="5.50913">
        <ele>1126.1</ele>
        <time>2022-08-12T15:38:18.000Z</time>
      </trkpt>
      <trkpt lat="45.13906" lon="5.50911">
        <ele>1126.1</ele>
        <time>2022-08-12T15:38:21.000Z</time>
      </trkpt>
      <trkpt lat="45.13907" lon="5.50909">
        <ele>1126.3</ele>
        <time>2022-08-12T15:38:22.000Z</time>
      </trkpt>
      <trkpt lat="45.13905" lon="5.50914">
        <ele>1130.74</ele>
      </trkpt>
      <trkpt lat="45.13915" lon="5.50903">
        <ele>1126.83</ele>
      </trkpt>
      <trkpt lat="45.13918" lon="5.50909">
        <ele>1125.71</ele>
      </trkpt>
      <trkpt lat="45.13917" lon="5.50918">
        <ele>1124.87</ele>
      </trkpt>
      <trkpt lat="45.13919" lon="5.50948">
        <ele>1122.53</ele>
      </trkpt>
      <trkpt lat="45.13932" lon="5.5098">
        <ele>1119.33</ele>
      </trkpt>
      <trkpt lat="45.13931" lon="5.50989">
        <ele>1117.34</ele>
      </trkpt>
      <trkpt lat="45.13928" lon="5.50988">
        <ele>1116.37</ele>
      </trkpt>
      <trkpt lat="45.13921" lon="5.50988">
        <ele>1114.47</ele>
      </trkpt>
      <trkpt lat="45.1392" lon="5.5099">
        <ele>1113.79</ele>
      </trkpt>
      <trkpt lat="45.13921" lon="5.50995">
        <ele>1111.83</ele>
      </trkpt>
      <trkpt lat="45.13926" lon="5.51006">
        <ele>1109.41</ele>
      </trkpt>
      <trkpt lat="45.13928" lon="5.51014">
        <ele>1107.77</ele>
      </trkpt>
      <trkpt lat="45.13933" lon="5.51025">
        <ele>1107.4</ele>
      </trkpt>
      <trkpt lat="45.13951" lon="5.51034">
        <ele>1106.34</ele>
      </trkpt>
      <trkpt lat="45.13955" lon="5.51036">
        <ele>1106.04</ele>
      </trkpt>
      <trkpt lat="45.1397" lon="5.51043">
        <ele>1104.23</ele>
      </trkpt>
      <trkpt lat="45.13971" lon="5.51045">
        <ele>1103.25</ele>
      </trkpt>
      <trkpt lat="45.13968" lon="5.51048">
        <ele>1102.46</ele>
      </trkpt>
      <trkpt lat="45.1396" lon="5.5105">
        <ele>1101.39</ele>
      </trkpt>
      <trkpt lat="45.13958" lon="5.51049">
        <ele>1100.94</ele>
      </trkpt>
      <trkpt lat="45.13955" lon="5.51047">
        <ele>1100.46</ele>
      </trkpt>
      <trkpt lat="45.13951" lon="5.51047">
        <ele>1099.98</ele>
      </trkpt>
      <trkpt lat="45.13948" lon="5.51049">
        <ele>1099.5</ele>
      </trkpt>
      <trkpt lat="45.13935" lon="5.51047">
        <ele>1097.36</ele>
      </trkpt>
      <trkpt lat="45.13923" lon="5.51042">
        <ele>1097.06</ele>
      </trkpt>
      <trkpt lat="45.13921" lon="5.51042">
        <ele>1097.16</ele>
      </trkpt>
      <trkpt lat="45.13919" lon="5.51043">
        <ele>1097.25</ele>
      </trkpt>
      <trkpt lat="45.13917" lon="5.51045">
        <ele>1097.31</ele>
      </trkpt>
      <trkpt lat="45.13917" lon="5.51055">
        <ele>1097.38</ele>
      </trkpt>
      <trkpt lat="45.13918" lon="5.51058">
        <ele>1097.39</ele>
      </trkpt>
      <trkpt lat="45.13928" lon="5.5108">
        <ele>1098.19</ele>
      </trkpt>
      <trkpt lat="45.13933" lon="5.51094">
        <ele>1099.08</ele>
      </trkpt>
      <trkpt lat="45.13933" lon="5.51102">
        <ele>1099.69</ele>
      </trkpt>
      <trkpt lat="45.13933" lon="5.51108">
        <ele>1100.61</ele>
      </trkpt>
      <trkpt lat="45.13934" lon="5.51119">
        <ele>1101.98</ele>
      </trkpt>
      <trkpt lat="45.13937" lon="5.51145">
        <ele>1103.55</ele>
      </trkpt>
      <trkpt lat="45.13938" lon="5.51169">
        <ele>1105.91</ele>
      </trkpt>
      <trkpt lat="45.13936" lon="5.51189">
        <ele>1106.9</ele>
      </trkpt>
      <trkpt lat="45.1393" lon="5.51206">
        <ele>1106.48</ele>
      </trkpt>
      <trkpt lat="45.13939" lon="5.51221">
        <ele>1104.11</ele>
      </trkpt>
      <trkpt lat="45.13938" lon="5.51237">
        <ele>1101.21</ele>
      </trkpt>
      <trkpt lat="45.13923" lon="5.51247">
        <ele>1098.1</ele>
      </trkpt>
      <trkpt lat="45.13931" lon="5.51256">
        <ele>1096.19</ele>
      </trkpt>
      <trkpt lat="45.13921" lon="5.51266">
        <ele>1094.27</ele>
      </trkpt>
      <trkpt lat="45.13917" lon="5.51269">
        <ele>1093.87</ele>
      </trkpt>
      <trkpt lat="45.13906" lon="5.51277">
        <ele>1091.26</ele>
      </trkpt>
      <trkpt lat="45.13914" lon="5.51294">
        <ele>1089.07</ele>
      </trkpt>
      <trkpt lat="45.1394" lon="5.51317">
        <ele>1083.95</ele>
      </trkpt>
      <trkpt lat="45.13935" lon="5.51331">
        <ele>1082.3</ele>
      </trkpt>
      <trkpt lat="45.1392" lon="5.51351">
        <ele>1077.82</ele>
      </trkpt>
      <trkpt lat="45.13931" lon="5.5137">
        <ele>1073.38</ele>
      </trkpt>
      <trkpt lat="45.13953" lon="5.51389">
        <ele>1069.87</ele>
      </trkpt>
      <trkpt lat="45.1396" lon="5.51394">
        <ele>1068.95</ele>
      </trkpt>
      <trkpt lat="45.13973" lon="5.51406">
        <ele>1066.08</ele>
      </trkpt>
      <trkpt lat="45.13994" lon="5.51419">
        <ele>1060.99</ele>
      </trkpt>
      <trkpt lat="45.1401" lon="5.51421">
        <ele>1058.03</ele>
      </trkpt>
      <trkpt lat="45.14031" lon="5.51431">
        <ele>1053.92</ele>
      </trkpt>
      <trkpt lat="45.14043" lon="5.51435">
        <ele>1050.77</ele>
      </trkpt>
      <trkpt lat="45.14052" lon="5.51435">
        <ele>1048.61</ele>
      </trkpt>
      <trkpt lat="45.14059" lon="5.51437">
        <ele>1047.52</ele>
      </trkpt>
      <trkpt lat="45.14065" lon="5.5144">
        <ele>1046.49</ele>
      </trkpt>
      <trkpt lat="45.1407" lon="5.51445">
        <ele>1045.42</ele>
      </trkpt>
      <trkpt lat="45.14074" lon="5.51449">
        <ele>1044.36</ele>
      </trkpt>
      <trkpt lat="45.14086" lon="5.51461">
        <ele>1041.19</ele>
      </trkpt>
      <trkpt lat="45.14089" lon="5.5146">
        <ele>1040.67</ele>
      </trkpt>
      <trkpt lat="45.14093" lon="5.51462">
        <ele>1040.55</ele>
      </trkpt>
      <trkpt lat="45.14099" lon="5.51457">
        <ele>1040.84</ele>
      </trkpt>
      <trkpt lat="45.14099" lon="5.5146">
        <ele>1040.71</ele>
      </trkpt>
      <trkpt lat="45.14095" lon="5.51486">
        <ele>1039.73</ele>
      </trkpt>
      <trkpt lat="45.14098" lon="5.51508">
        <ele>1036.82</ele>
      </trkpt>
      <trkpt lat="45.14086" lon="5.51516">
        <ele>1033.61</ele>
      </trkpt>
      <trkpt lat="45.14077" lon="5.51514">
        <ele>1030.92</ele>
      </trkpt>
      <trkpt lat="45.14073" lon="5.51517">
        <ele>1027.79</ele>
      </trkpt>
      <trkpt lat="45.14077" lon="5.51529">
        <ele>1025.14</ele>
      </trkpt>
      <trkpt lat="45.14077" lon="5.51533">
        <ele>1024.79</ele>
      </trkpt>
      <trkpt lat="45.14077" lon="5.51537">
        <ele>1024.38</ele>
      </trkpt>
      <trkpt lat="45.14077" lon="5.51543">
        <ele>1023.96</ele>
      </trkpt>
      <trkpt lat="45.14077" lon="5.5155">
        <ele>1023.59</ele>
      </trkpt>
      <trkpt lat="45.14076" lon="5.51559">
        <ele>1023.22</ele>
      </trkpt>
      <trkpt lat="45.14073" lon="5.51589">
        <ele>1021.52</ele>
      </trkpt>
      <trkpt lat="45.14073" lon="5.51596">
        <ele>1020.61</ele>
      </trkpt>
      <trkpt lat="45.14073" lon="5.51602">
        <ele>1019.82</ele>
      </trkpt>
      <trkpt lat="45.14073" lon="5.51608">
        <ele>1019.15</ele>
      </trkpt>
      <trkpt lat="45.14074" lon="5.51612">
        <ele>1018.14</ele>
      </trkpt>
      <trkpt lat="45.14076" lon="5.51616">
        <ele>1017.75</ele>
        <extensions>
          <visugpx:TrkExtension xmlns:visugpx="https://www.visugpx.com/editgpx/">
            <visugpx:node>4</visugpx:node>
            </visugpx:TrkExtension>
        </extensions>
      </trkpt>
      <trkpt lat="45.14059" lon="5.51617">
        <ele>1013.9</ele>
      </trkpt>
      <trkpt lat="45.14007" lon="5.51627">
        <ele>1012.4</ele>
      </trkpt>
      <trkpt lat="45.1389" lon="5.51655">
        <ele>1007.7</ele>
      </trkpt>
      <trkpt lat="45.13871" lon="5.51661">
        <ele>1006.9</ele>
      </trkpt>
      <trkpt lat="45.13868" lon="5.51663">
        <ele>1006.6</ele>
        <extensions>
          <visugpx:TrkExtension xmlns:visugpx="https://www.visugpx.com/editgpx/">
            <visugpx:node>5</visugpx:node>
            </visugpx:TrkExtension>
        </extensions>
      </trkpt>
      <trkpt lat="45.13858" lon="5.51668">
        <ele>1006.1</ele>
        <time>2022-08-12T15:50:17.000Z</time>
      </trkpt>
      <trkpt lat="45.13852" lon="5.51672">
        <ele>1006</ele>
        <time>2022-08-12T15:50:18.000Z</time>
      </trkpt>
      <trkpt lat="45.1384" lon="5.5168">
        <ele>1005.7</ele>
        <time>2022-08-12T15:50:20.000Z</time>
      </trkpt>
      <trkpt lat="45.13834" lon="5.51685">
        <ele>1005.3</ele>
        <time>2022-08-12T15:50:21.000Z</time>
      </trkpt>
      <trkpt lat="45.13828" lon="5.5169">
        <ele>1004.8</ele>
        <time>2022-08-12T15:50:22.000Z</time>
      </trkpt>
      <trkpt lat="45.13822" lon="5.51695">
        <ele>1004.3</ele>
        <time>2022-08-12T15:50:23.000Z</time>
      </trkpt>
      <trkpt lat="45.13816" lon="5.51701">
        <ele>1004.2</ele>
        <time>2022-08-12T15:50:24.000Z</time>
      </trkpt>
      <trkpt lat="45.1381" lon="5.51706">
        <ele>1004</ele>
        <time>2022-08-12T15:50:25.000Z</time>
      </trkpt>
      <trkpt lat="45.13798" lon="5.51718">
        <ele>1003.6</ele>
        <time>2022-08-12T15:50:27.000Z</time>
      </trkpt>
      <trkpt lat="45.13786" lon="5.51729">
        <ele>1003.2</ele>
        <time>2022-08-12T15:50:29.000Z</time>
      </trkpt>
      <trkpt lat="45.13774" lon="5.51741">
        <ele>1002.8</ele>
        <time>2022-08-12T15:50:31.000Z</time>
      </trkpt>
      <trkpt lat="45.13748" lon="5.51763">
        <ele>1002</ele>
        <time>2022-08-12T15:50:35.000Z</time>
      </trkpt>
      <trkpt lat="45.13735" lon="5.51771">
        <ele>1001.5</ele>
        <time>2022-08-12T15:50:37.000Z</time>
      </trkpt>
      <trkpt lat="45.13692" lon="5.51786">
        <ele>1000.3</ele>
        <time>2022-08-12T15:50:43.000Z</time>
      </trkpt>
      <trkpt lat="45.13677" lon="5.5179">
        <ele>999.8</ele>
        <time>2022-08-12T15:50:45.000Z</time>
      </trkpt>
      <trkpt lat="45.13655" lon="5.51797">
        <ele>999.3</ele>
        <time>2022-08-12T15:50:48.000Z</time>
      </trkpt>
      <trkpt lat="45.13628" lon="5.51809">
        <ele>999.2</ele>
        <time>2022-08-12T15:50:52.000Z</time>
      </trkpt>
      <trkpt lat="45.13615" lon="5.51812">
        <ele>999.4</ele>
        <time>2022-08-12T15:50:54.000Z</time>
      </trkpt>
      <trkpt lat="45.13608" lon="5.51815">
        <ele>999.4</ele>
        <time>2022-08-12T15:50:55.000Z</time>
      </trkpt>
      <trkpt lat="45.13602" lon="5.51817">
        <ele>999.3</ele>
        <time>2022-08-12T15:50:56.000Z</time>
      </trkpt>
      <trkpt lat="45.13596" lon="5.51819">
        <ele>999.3</ele>
        <time>2022-08-12T15:50:57.000Z</time>
      </trkpt>
      <trkpt lat="45.13584" lon="5.51823">
        <ele>999.4</ele>
        <time>2022-08-12T15:50:59.000Z</time>
      </trkpt>
      <trkpt lat="45.13579" lon="5.51825">
        <ele>999.5</ele>
        <time>2022-08-12T15:51:00.000Z</time>
      </trkpt>
      <trkpt lat="45.13568" lon="5.51829">
        <ele>999.8</ele>
        <time>2022-08-12T15:51:02.000Z</time>
      </trkpt>
      <trkpt lat="45.13562" lon="5.51831">
        <ele>999.9</ele>
        <time>2022-08-12T15:51:03.000Z</time>
      </trkpt>
      <trkpt lat="45.13557" lon="5.51833">
        <ele>999.9</ele>
        <time>2022-08-12T15:51:04.000Z</time>
      </trkpt>
      <trkpt lat="45.13551" lon="5.51836">
        <ele>1000.3</ele>
        <time>2022-08-12T15:51:05.000Z</time>
      </trkpt>
      <trkpt lat="45.13546" lon="5.51838">
        <ele>1000.6</ele>
        <time>2022-08-12T15:51:06.000Z</time>
      </trkpt>
      <trkpt lat="45.1354" lon="5.5184">
        <ele>1001</ele>
        <time>2022-08-12T15:51:07.000Z</time>
      </trkpt>
      <trkpt lat="45.13535" lon="5.51842">
        <ele>1001.2</ele>
        <time>2022-08-12T15:51:08.000Z</time>
      </trkpt>
      <trkpt lat="45.1353" lon="5.51844">
        <ele>1001.5</ele>
        <time>2022-08-12T15:51:09.000Z</time>
      </trkpt>
      <trkpt lat="45.13525" lon="5.51846">
        <ele>1001.7</ele>
        <time>2022-08-12T15:51:10.000Z</time>
      </trkpt>
      <trkpt lat="45.1352" lon="5.51847">
        <ele>1001.8</ele>
        <time>2022-08-12T15:51:11.000Z</time>
      </trkpt>
      <trkpt lat="45.13493" lon="5.5186">
        <ele>1002.1</ele>
        <time>2022-08-12T15:51:16.000Z</time>
      </trkpt>
      <trkpt lat="45.13475" lon="5.51866">
        <ele>1001.8</ele>
        <time>2022-08-12T15:51:19.000Z</time>
      </trkpt>
      <trkpt lat="45.13447" lon="5.51875">
        <ele>1001.9</ele>
        <time>2022-08-12T15:51:24.000Z</time>
      </trkpt>
      <trkpt lat="45.13432" lon="5.51881">
        <ele>1001.6</ele>
        <time>2022-08-12T15:51:27.000Z</time>
      </trkpt>
      <trkpt lat="45.13425" lon="5.51884">
        <ele>1001.4</ele>
        <time>2022-08-12T15:51:28.000Z</time>
      </trkpt>
      <trkpt lat="45.1342" lon="5.51886">
        <ele>1001.2</ele>
        <time>2022-08-12T15:51:29.000Z</time>
      </trkpt>
      <trkpt lat="45.13415" lon="5.51889">
        <ele>1001.1</ele>
        <time>2022-08-12T15:51:30.000Z</time>
      </trkpt>
      <trkpt lat="45.1341" lon="5.51891">
        <ele>1001.1</ele>
        <time>2022-08-12T15:51:31.000Z</time>
      </trkpt>
      <trkpt lat="45.13399" lon="5.51893">
        <ele>1001.3</ele>
        <time>2022-08-12T15:51:33.000Z</time>
      </trkpt>
      <trkpt lat="45.13393" lon="5.51895">
        <ele>1001.4</ele>
        <time>2022-08-12T15:51:34.000Z</time>
      </trkpt>
      <trkpt lat="45.13388" lon="5.51896">
        <ele>1001.5</ele>
        <time>2022-08-12T15:51:35.000Z</time>
      </trkpt>
      <trkpt lat="45.13382" lon="5.51897">
        <ele>1001.4</ele>
        <time>2022-08-12T15:51:36.000Z</time>
      </trkpt>
      <trkpt lat="45.13372" lon="5.51899">
        <ele>1001.3</ele>
        <time>2022-08-12T15:51:38.000Z</time>
      </trkpt>
      <trkpt lat="45.13367" lon="5.519">
        <ele>1001.2</ele>
        <time>2022-08-12T15:51:39.000Z</time>
      </trkpt>
      <trkpt lat="45.13362" lon="5.51901">
        <ele>1001.2</ele>
        <time>2022-08-12T15:51:40.000Z</time>
      </trkpt>
      <trkpt lat="45.13355" lon="5.51901">
        <ele>1001.1</ele>
        <time>2022-08-12T15:51:41.000Z</time>
      </trkpt>
      <trkpt lat="45.13322" lon="5.51904">
        <ele>1000.5</ele>
        <time>2022-08-12T15:51:47.000Z</time>
      </trkpt>
      <trkpt lat="45.13308" lon="5.51904">
        <ele>1000</ele>
        <time>2022-08-12T15:51:49.000Z</time>
      </trkpt>
      <trkpt lat="45.13293" lon="5.51899">
        <ele>1000.1</ele>
        <time>2022-08-12T15:51:52.000Z</time>
      </trkpt>
      <trkpt lat="45.13252" lon="5.51893">
        <ele>1000.7</ele>
        <time>2022-08-12T15:51:59.000Z</time>
      </trkpt>
      <trkpt lat="45.13216" lon="5.51898">
        <ele>1002.3</ele>
        <time>2022-08-12T15:52:05.000Z</time>
      </trkpt>
      <trkpt lat="45.13207" lon="5.519">
        <ele>1002.3</ele>
        <time>2022-08-12T15:52:07.000Z</time>
      </trkpt>
      <trkpt lat="45.13201" lon="5.51903">
        <ele>1002.3</ele>
        <time>2022-08-12T15:52:08.000Z</time>
      </trkpt>
      <trkpt lat="45.13196" lon="5.51905">
        <ele>1002.2</ele>
        <time>2022-08-12T15:52:09.000Z</time>
      </trkpt>
      <trkpt lat="45.13191" lon="5.51907">
        <ele>1002.3</ele>
        <time>2022-08-12T15:52:10.000Z</time>
      </trkpt>
      <trkpt lat="45.13184" lon="5.5191">
        <ele>1002.5</ele>
        <time>2022-08-12T15:52:11.000Z</time>
      </trkpt>
      <trkpt lat="45.13179" lon="5.51912">
        <ele>1002.6</ele>
        <time>2022-08-12T15:52:12.000Z</time>
      </trkpt>
      <trkpt lat="45.13174" lon="5.51914">
        <ele>1002.7</ele>
        <time>2022-08-12T15:52:13.000Z</time>
      </trkpt>
      <trkpt lat="45.13169" lon="5.51916">
        <ele>1002.9</ele>
        <time>2022-08-12T15:52:14.000Z</time>
      </trkpt>
      <trkpt lat="45.13164" lon="5.51918">
        <ele>1003</ele>
        <time>2022-08-12T15:52:15.000Z</time>
      </trkpt>
      <trkpt lat="45.1316" lon="5.51919">
        <ele>1003.1</ele>
        <time>2022-08-12T15:52:16.000Z</time>
      </trkpt>
      <trkpt lat="45.13155" lon="5.51921">
        <ele>1003.1</ele>
        <time>2022-08-12T15:52:17.000Z</time>
      </trkpt>
      <trkpt lat="45.1315" lon="5.51923">
        <ele>1003.1</ele>
        <time>2022-08-12T15:52:18.000Z</time>
      </trkpt>
      <trkpt lat="45.13146" lon="5.51926">
        <ele>1003.1</ele>
        <time>2022-08-12T15:52:19.000Z</time>
      </trkpt>
      <trkpt lat="45.13141" lon="5.51928">
        <ele>1003.1</ele>
        <time>2022-08-12T15:52:20.000Z</time>
      </trkpt>
      <trkpt lat="45.13136" lon="5.5193">
        <ele>1003.2</ele>
        <time>2022-08-12T15:52:21.000Z</time>
      </trkpt>
      <trkpt lat="45.13105" lon="5.51943">
        <ele>1003.6</ele>
        <time>2022-08-12T15:52:27.000Z</time>
      </trkpt>
      <trkpt lat="45.13092" lon="5.51948">
        <ele>1004.2</ele>
        <time>2022-08-12T15:52:29.000Z</time>
      </trkpt>
      <trkpt lat="45.13081" lon="5.51952">
        <ele>1004.5</ele>
        <time>2022-08-12T15:52:31.000Z</time>
      </trkpt>
      <trkpt lat="45.13054" lon="5.51961">
        <ele>1004.2</ele>
        <time>2022-08-12T15:52:36.000Z</time>
      </trkpt>
      <trkpt lat="45.13037" lon="5.51967">
        <ele>1004.1</ele>
        <time>2022-08-12T15:52:39.000Z</time>
      </trkpt>
      <trkpt lat="45.13021" lon="5.51972">
        <ele>1004</ele>
        <time>2022-08-12T15:52:42.000Z</time>
      </trkpt>
      <trkpt lat="45.13017" lon="5.51972">
        <ele>1004</ele>
        <time>2022-08-12T15:52:43.000Z</time>
      </trkpt>
      <trkpt lat="45.13011" lon="5.51974">
        <ele>1003.9</ele>
        <time>2022-08-12T15:52:44.000Z</time>
      </trkpt>
      <trkpt lat="45.13008" lon="5.51975">
        <ele>1003.8</ele>
        <time>2022-08-12T15:52:45.000Z</time>
      </trkpt>
      <trkpt lat="45.13002" lon="5.51976">
        <ele>1003.7</ele>
        <time>2022-08-12T15:52:46.000Z</time>
      </trkpt>
      <trkpt lat="45.12992" lon="5.51979">
        <ele>1003.2</ele>
        <time>2022-08-12T15:52:48.000Z</time>
      </trkpt>
      <trkpt lat="45.12982" lon="5.51983">
        <ele>1002.5</ele>
        <time>2022-08-12T15:52:50.000Z</time>
      </trkpt>
      <trkpt lat="45.12973" lon="5.5199">
        <ele>1001.7</ele>
        <time>2022-08-12T15:52:52.000Z</time>
      </trkpt>
      <trkpt lat="45.12968" lon="5.51996">
        <ele>1001.1</ele>
        <time>2022-08-12T15:52:53.000Z</time>
      </trkpt>
      <trkpt lat="45.12959" lon="5.52008">
        <ele>1000.1</ele>
        <time>2022-08-12T15:52:55.000Z</time>
      </trkpt>
      <trkpt lat="45.12943" lon="5.52022">
        <ele>998.4</ele>
        <time>2022-08-12T15:52:58.000Z</time>
      </trkpt>
      <trkpt lat="45.12936" lon="5.52027">
        <ele>998.1</ele>
        <time>2022-08-12T15:52:59.000Z</time>
      </trkpt>
      <trkpt lat="45.12931" lon="5.52029">
        <ele>997.9</ele>
        <time>2022-08-12T15:53:00.000Z</time>
      </trkpt>
      <trkpt lat="45.12923" lon="5.52032">
        <ele>997.9</ele>
        <time>2022-08-12T15:53:01.000Z</time>
      </trkpt>
      <trkpt lat="45.12918" lon="5.52033">
        <ele>997.8</ele>
        <time>2022-08-12T15:53:02.000Z</time>
      </trkpt>
      <trkpt lat="45.1291" lon="5.52035">
        <ele>997.8</ele>
        <time>2022-08-12T15:53:03.000Z</time>
      </trkpt>
      <trkpt lat="45.12892" lon="5.52039">
        <ele>997.6</ele>
        <time>2022-08-12T15:53:06.000Z</time>
      </trkpt>
      <trkpt lat="45.12881" lon="5.52044">
        <ele>997.7</ele>
        <time>2022-08-12T15:53:08.000Z</time>
      </trkpt>
      <trkpt lat="45.12874" lon="5.52048">
        <ele>997.8</ele>
        <time>2022-08-12T15:53:09.000Z</time>
      </trkpt>
      <trkpt lat="45.12868" lon="5.52052">
        <ele>997.9</ele>
        <time>2022-08-12T15:53:10.000Z</time>
      </trkpt>
      <trkpt lat="45.12864" lon="5.52055">
        <ele>997.9</ele>
        <time>2022-08-12T15:53:11.000Z</time>
      </trkpt>
      <trkpt lat="45.1286" lon="5.5206">
        <ele>997.9</ele>
        <time>2022-08-12T15:53:12.000Z</time>
      </trkpt>
      <trkpt lat="45.12856" lon="5.52065">
        <ele>997.8</ele>
        <time>2022-08-12T15:53:13.000Z</time>
      </trkpt>
      <trkpt lat="45.12852" lon="5.52071">
        <ele>997.8</ele>
        <time>2022-08-12T15:53:14.000Z</time>
      </trkpt>
      <trkpt lat="45.12848" lon="5.52078">
        <ele>997.7</ele>
        <time>2022-08-12T15:53:15.000Z</time>
      </trkpt>
      <trkpt lat="45.12837" lon="5.52096">
        <ele>997.4</ele>
        <time>2022-08-12T15:53:18.000Z</time>
      </trkpt>
      <trkpt lat="45.1283" lon="5.52109">
        <ele>997.3</ele>
        <time>2022-08-12T15:53:20.000Z</time>
      </trkpt>
      <trkpt lat="45.12817" lon="5.52141">
        <ele>998.1</ele>
        <time>2022-08-12T15:53:25.000Z</time>
      </trkpt>
      <trkpt lat="45.12816" lon="5.52147">
        <ele>998</ele>
        <time>2022-08-12T15:53:26.000Z</time>
      </trkpt>
      <trkpt lat="45.12813" lon="5.52154">
        <ele>997.9</ele>
        <time>2022-08-12T15:53:27.000Z</time>
      </trkpt>
      <trkpt lat="45.12812" lon="5.5216">
        <ele>997.8</ele>
        <time>2022-08-12T15:53:28.000Z</time>
      </trkpt>
      <trkpt lat="45.12811" lon="5.52165">
        <ele>997.6</ele>
        <time>2022-08-12T15:53:29.000Z</time>
      </trkpt>
      <trkpt lat="45.1281" lon="5.52173">
        <ele>997.7</ele>
        <time>2022-08-12T15:53:30.000Z</time>
      </trkpt>
      <trkpt lat="45.12809" lon="5.5218">
        <ele>997.7</ele>
        <time>2022-08-12T15:53:31.000Z</time>
      </trkpt>
      <trkpt lat="45.12809" lon="5.52185">
        <ele>997.8</ele>
        <time>2022-08-12T15:53:32.000Z</time>
      </trkpt>
      <trkpt lat="45.12808" lon="5.52193">
        <ele>997.8</ele>
        <time>2022-08-12T15:53:33.000Z</time>
      </trkpt>
      <trkpt lat="45.12807" lon="5.52199">
        <ele>997.7</ele>
        <time>2022-08-12T15:53:34.000Z</time>
      </trkpt>
      <trkpt lat="45.12807" lon="5.52206">
        <ele>997.5</ele>
        <time>2022-08-12T15:53:35.000Z</time>
      </trkpt>
      <trkpt lat="45.128" lon="5.52248">
        <ele>996.5</ele>
        <time>2022-08-12T15:53:41.000Z</time>
      </trkpt>
      <trkpt lat="45.12791" lon="5.52307">
        <ele>996</ele>
        <time>2022-08-12T15:53:49.000Z</time>
      </trkpt>
      <trkpt lat="45.12788" lon="5.52323">
        <ele>995.6</ele>
        <time>2022-08-12T15:53:51.000Z</time>
      </trkpt>
      <trkpt lat="45.12783" lon="5.52355">
        <ele>995</ele>
        <time>2022-08-12T15:53:55.000Z</time>
      </trkpt>
      <trkpt lat="45.1278" lon="5.52372">
        <ele>994.6</ele>
        <time>2022-08-12T15:53:57.000Z</time>
      </trkpt>
      <trkpt lat="45.12775" lon="5.52411">
        <ele>994</ele>
        <time>2022-08-12T15:54:01.000Z</time>
      </trkpt>
      <trkpt lat="45.12771" lon="5.52435">
        <ele>993.5</ele>
        <time>2022-08-12T15:54:03.000Z</time>
      </trkpt>
      <trkpt lat="45.1277" lon="5.52443">
        <ele>993.3</ele>
        <time>2022-08-12T15:54:04.000Z</time>
      </trkpt>
      <trkpt lat="45.12769" lon="5.52454">
        <ele>993</ele>
        <time>2022-08-12T15:54:05.000Z</time>
      </trkpt>
      <trkpt lat="45.12766" lon="5.52464">
        <ele>992.7</ele>
        <time>2022-08-12T15:54:06.000Z</time>
      </trkpt>
      <trkpt lat="45.12762" lon="5.52475">
        <ele>992.5</ele>
        <time>2022-08-12T15:54:07.000Z</time>
      </trkpt>
      <trkpt lat="45.12759" lon="5.52482">
        <ele>992.4</ele>
        <time>2022-08-12T15:54:08.000Z</time>
      </trkpt>
      <trkpt lat="45.12756" lon="5.52502">
        <ele>992</ele>
        <time>2022-08-12T15:54:10.000Z</time>
      </trkpt>
      <trkpt lat="45.12756" lon="5.52513">
        <ele>991.9</ele>
        <time>2022-08-12T15:54:11.000Z</time>
      </trkpt>
      <trkpt lat="45.12756" lon="5.52523">
        <ele>991.8</ele>
        <time>2022-08-12T15:54:12.000Z</time>
      </trkpt>
      <trkpt lat="45.12756" lon="5.52534">
        <ele>991.6</ele>
        <time>2022-08-12T15:54:13.000Z</time>
      </trkpt>
      <trkpt lat="45.12753" lon="5.52557">
        <ele>990.8</ele>
        <time>2022-08-12T15:54:15.000Z</time>
      </trkpt>
      <trkpt lat="45.12752" lon="5.52567">
        <ele>990.5</ele>
        <time>2022-08-12T15:54:16.000Z</time>
      </trkpt>
      <trkpt lat="45.12748" lon="5.52616">
        <ele>988.9</ele>
        <time>2022-08-12T15:54:21.000Z</time>
      </trkpt>
      <trkpt lat="45.12743" lon="5.52647">
        <ele>988</ele>
        <time>2022-08-12T15:54:24.000Z</time>
      </trkpt>
      <trkpt lat="45.1274" lon="5.52668">
        <ele>987.3</ele>
        <time>2022-08-12T15:54:26.000Z</time>
      </trkpt>
      <trkpt lat="45.12737" lon="5.52689">
        <ele>986.7</ele>
        <time>2022-08-12T15:54:28.000Z</time>
      </trkpt>
      <trkpt lat="45.12735" lon="5.52695">
        <ele>986.5</ele>
        <time>2022-08-12T15:54:29.000Z</time>
      </trkpt>
      <trkpt lat="45.12734" lon="5.52702">
        <ele>986.3</ele>
        <time>2022-08-12T15:54:30.000Z</time>
      </trkpt>
      <trkpt lat="45.12733" lon="5.52709">
        <ele>986.1</ele>
        <time>2022-08-12T15:54:31.000Z</time>
      </trkpt>
      <trkpt lat="45.12733" lon="5.52714">
        <ele>985.9</ele>
        <time>2022-08-12T15:54:32.000Z</time>
      </trkpt>
      <trkpt lat="45.12733" lon="5.52719">
        <ele>985.7</ele>
        <time>2022-08-12T15:54:33.000Z</time>
      </trkpt>
      <trkpt lat="45.12735" lon="5.52724">
        <ele>985.5</ele>
        <time>2022-08-12T15:54:34.000Z</time>
      </trkpt>
      <trkpt lat="45.12738" lon="5.52728">
        <ele>985.2</ele>
        <time>2022-08-12T15:54:35.000Z</time>
      </trkpt>
      <trkpt lat="45.12745" lon="5.52734">
        <ele>984.8</ele>
        <time>2022-08-12T15:54:37.000Z</time>
      </trkpt>
      <trkpt lat="45.12749" lon="5.52736">
        <ele>984.5</ele>
        <time>2022-08-12T15:54:38.000Z</time>
      </trkpt>
      <trkpt lat="45.12753" lon="5.52739">
        <ele>984.5</ele>
        <time>2022-08-12T15:54:39.000Z</time>
      </trkpt>
      <trkpt lat="45.12756" lon="5.52743">
        <ele>984.5</ele>
        <time>2022-08-12T15:54:40.000Z</time>
      </trkpt>
      <trkpt lat="45.12758" lon="5.52747">
        <ele>984.4</ele>
        <time>2022-08-12T15:54:41.000Z</time>
      </trkpt>
      <trkpt lat="45.12759" lon="5.52752">
        <ele>984.2</ele>
        <time>2022-08-12T15:54:42.000Z</time>
      </trkpt>
      <trkpt lat="45.12758" lon="5.52757">
        <ele>984</ele>
        <time>2022-08-12T15:54:43.000Z</time>
      </trkpt>
      <trkpt lat="45.12756" lon="5.52761">
        <ele>983.8</ele>
        <time>2022-08-12T15:54:44.000Z</time>
      </trkpt>
      <trkpt lat="45.12749" lon="5.52771">
        <ele>983.3</ele>
        <time>2022-08-12T15:54:46.000Z</time>
      </trkpt>
      <trkpt lat="45.12745" lon="5.52774">
        <ele>983.3</ele>
        <time>2022-08-12T15:54:47.000Z</time>
      </trkpt>
      <trkpt lat="45.12741" lon="5.52775">
        <ele>983.4</ele>
        <time>2022-08-12T15:54:48.000Z</time>
      </trkpt>
      <trkpt lat="45.12734" lon="5.52776">
        <ele>983.6</ele>
        <time>2022-08-12T15:54:49.000Z</time>
      </trkpt>
      <trkpt lat="45.12729" lon="5.52776">
        <ele>983.8</ele>
        <time>2022-08-12T15:54:50.000Z</time>
      </trkpt>
      <trkpt lat="45.12725" lon="5.52778">
        <ele>983.9</ele>
        <time>2022-08-12T15:54:51.000Z</time>
      </trkpt>
      <trkpt lat="45.1272" lon="5.52782">
        <ele>983.7</ele>
        <time>2022-08-12T15:54:52.000Z</time>
      </trkpt>
      <trkpt lat="45.12716" lon="5.5279">
        <ele>983.4</ele>
        <time>2022-08-12T15:54:53.000Z</time>
      </trkpt>
      <trkpt lat="45.12714" lon="5.52795">
        <ele>983</ele>
        <time>2022-08-12T15:54:54.000Z</time>
      </trkpt>
      <trkpt lat="45.12712" lon="5.52802">
        <ele>982.7</ele>
        <time>2022-08-12T15:54:55.000Z</time>
      </trkpt>
      <trkpt lat="45.12709" lon="5.52808">
        <ele>982.3</ele>
        <time>2022-08-12T15:54:56.000Z</time>
      </trkpt>
      <trkpt lat="45.12707" lon="5.52815">
        <ele>982.1</ele>
        <time>2022-08-12T15:54:57.000Z</time>
      </trkpt>
      <trkpt lat="45.12703" lon="5.52827">
        <ele>981.7</ele>
        <time>2022-08-12T15:54:59.000Z</time>
      </trkpt>
      <trkpt lat="45.12702" lon="5.52834">
        <ele>981.4</ele>
        <time>2022-08-12T15:55:00.000Z</time>
      </trkpt>
      <trkpt lat="45.12702" lon="5.52841">
        <ele>981.1</ele>
        <time>2022-08-12T15:55:01.000Z</time>
      </trkpt>
      <trkpt lat="45.12703" lon="5.52848">
        <ele>980.7</ele>
        <time>2022-08-12T15:55:02.000Z</time>
      </trkpt>
      <trkpt lat="45.12704" lon="5.52856">
        <ele>980.3</ele>
        <time>2022-08-12T15:55:03.000Z</time>
      </trkpt>
      <trkpt lat="45.12706" lon="5.52872">
        <ele>979.8</ele>
        <time>2022-08-12T15:55:05.000Z</time>
      </trkpt>
      <trkpt lat="45.12706" lon="5.52881">
        <ele>979.8</ele>
        <time>2022-08-12T15:55:06.000Z</time>
      </trkpt>
      <trkpt lat="45.12706" lon="5.52889">
        <ele>979.8</ele>
        <time>2022-08-12T15:55:07.000Z</time>
      </trkpt>
      <trkpt lat="45.12706" lon="5.52907">
        <ele>979.8</ele>
        <time>2022-08-12T15:55:09.000Z</time>
      </trkpt>
      <trkpt lat="45.12705" lon="5.52938">
        <ele>978.3</ele>
        <time>2022-08-12T15:55:12.000Z</time>
      </trkpt>
      <trkpt lat="45.12703" lon="5.52963">
        <ele>975.2</ele>
        <time>2022-08-12T15:55:14.000Z</time>
      </trkpt>
      <trkpt lat="45.12701" lon="5.52977">
        <ele>973.8</ele>
        <time>2022-08-12T15:55:15.000Z</time>
      </trkpt>
      <trkpt lat="45.12698" lon="5.52991">
        <ele>973.3</ele>
        <time>2022-08-12T15:55:16.000Z</time>
      </trkpt>
      <trkpt lat="45.12693" lon="5.53008">
        <ele>972.2</ele>
        <time>2022-08-12T15:55:17.000Z</time>
      </trkpt>
      <trkpt lat="45.12684" lon="5.53035">
        <ele>969.8</ele>
        <time>2022-08-12T15:55:19.000Z</time>
      </trkpt>
      <trkpt lat="45.12676" lon="5.53066">
        <ele>968</ele>
        <time>2022-08-12T15:55:21.000Z</time>
      </trkpt>
      <trkpt lat="45.12673" lon="5.53085">
        <ele>967.9</ele>
        <time>2022-08-12T15:55:22.000Z</time>
      </trkpt>
      <trkpt lat="45.12672" lon="5.53102">
        <ele>967.5</ele>
        <time>2022-08-12T15:55:23.000Z</time>
      </trkpt>
      <trkpt lat="45.12673" lon="5.53114">
        <ele>967.2</ele>
        <time>2022-08-12T15:55:24.000Z</time>
      </trkpt>
      <trkpt lat="45.12675" lon="5.53129">
        <ele>967.3</ele>
        <time>2022-08-12T15:55:25.000Z</time>
      </trkpt>
      <trkpt lat="45.12677" lon="5.53144">
        <ele>967.3</ele>
        <time>2022-08-12T15:55:26.000Z</time>
      </trkpt>
      <trkpt lat="45.12679" lon="5.53158">
        <ele>967.1</ele>
        <time>2022-08-12T15:55:27.000Z</time>
      </trkpt>
      <trkpt lat="45.12679" lon="5.53174">
        <ele>966.9</ele>
        <time>2022-08-12T15:55:28.000Z</time>
      </trkpt>
      <trkpt lat="45.12678" lon="5.53184">
        <ele>966.7</ele>
        <time>2022-08-12T15:55:29.000Z</time>
      </trkpt>
      <trkpt lat="45.12673" lon="5.53197">
        <ele>966.7</ele>
        <time>2022-08-12T15:55:30.000Z</time>
      </trkpt>
      <trkpt lat="45.12666" lon="5.53205">
        <ele>966.6</ele>
        <time>2022-08-12T15:55:31.000Z</time>
      </trkpt>
      <trkpt lat="45.1266" lon="5.53211">
        <ele>966.5</ele>
        <time>2022-08-12T15:55:32.000Z</time>
      </trkpt>
      <trkpt lat="45.12654" lon="5.53218">
        <ele>966.6</ele>
        <time>2022-08-12T15:55:33.000Z</time>
      </trkpt>
      <trkpt lat="45.12647" lon="5.53227">
        <ele>966.7</ele>
        <time>2022-08-12T15:55:34.000Z</time>
      </trkpt>
      <trkpt lat="45.12643" lon="5.53234">
        <ele>966.6</ele>
        <time>2022-08-12T15:55:35.000Z</time>
      </trkpt>
      <trkpt lat="45.12641" lon="5.53242">
        <ele>966.4</ele>
        <time>2022-08-12T15:55:36.000Z</time>
      </trkpt>
      <trkpt lat="45.12642" lon="5.53253">
        <ele>966.3</ele>
        <time>2022-08-12T15:55:37.000Z</time>
      </trkpt>
      <trkpt lat="45.12642" lon="5.53262">
        <ele>966.6</ele>
        <time>2022-08-12T15:55:38.000Z</time>
      </trkpt>
      <trkpt lat="45.12642" lon="5.5327">
        <ele>966.9</ele>
        <time>2022-08-12T15:55:39.000Z</time>
      </trkpt>
      <trkpt lat="45.12641" lon="5.53279">
        <ele>967.1</ele>
        <time>2022-08-12T15:55:40.000Z</time>
      </trkpt>
      <trkpt lat="45.1264" lon="5.53286">
        <ele>967.3</ele>
        <time>2022-08-12T15:55:41.000Z</time>
      </trkpt>
      <trkpt lat="45.12639" lon="5.53294">
        <ele>967.6</ele>
        <time>2022-08-12T15:55:42.000Z</time>
      </trkpt>
      <trkpt lat="45.12636" lon="5.5331">
        <ele>968</ele>
        <time>2022-08-12T15:55:44.000Z</time>
      </trkpt>
      <trkpt lat="45.12634" lon="5.53317">
        <ele>968.2</ele>
        <time>2022-08-12T15:55:45.000Z</time>
      </trkpt>
      <trkpt lat="45.12631" lon="5.53325">
        <ele>968.4</ele>
        <time>2022-08-12T15:55:46.000Z</time>
      </trkpt>
      <trkpt lat="45.12629" lon="5.5333">
        <ele>968.5</ele>
        <time>2022-08-12T15:55:47.000Z</time>
      </trkpt>
      <trkpt lat="45.12627" lon="5.53335">
        <ele>968.6</ele>
        <time>2022-08-12T15:55:48.000Z</time>
      </trkpt>
      <trkpt lat="45.12624" lon="5.5334">
        <ele>968.6</ele>
        <time>2022-08-12T15:55:49.000Z</time>
      </trkpt>
      <trkpt lat="45.12622" lon="5.53345">
        <ele>968.7</ele>
        <time>2022-08-12T15:55:50.000Z</time>
      </trkpt>
      <trkpt lat="45.1262" lon="5.53351">
        <ele>968.7</ele>
        <time>2022-08-12T15:55:51.000Z</time>
      </trkpt>
      <trkpt lat="45.12618" lon="5.53354">
        <ele>968.8</ele>
        <time>2022-08-12T15:55:52.000Z</time>
      </trkpt>
      <trkpt lat="45.12616" lon="5.53359">
        <ele>968.9</ele>
        <time>2022-08-12T15:55:53.000Z</time>
      </trkpt>
      <trkpt lat="45.12616" lon="5.53363">
        <ele>969</ele>
        <time>2022-08-12T15:55:54.000Z</time>
      </trkpt>
      <trkpt lat="45.12617" lon="5.53367">
        <ele>969</ele>
        <time>2022-08-12T15:55:55.000Z</time>
      </trkpt>
      <trkpt lat="45.12619" lon="5.53369">
        <ele>969</ele>
        <time>2022-08-12T15:55:56.000Z</time>
      </trkpt>
      <trkpt lat="45.12622" lon="5.5337">
        <ele>969</ele>
        <time>2022-08-12T15:55:57.000Z</time>
      </trkpt>
      <trkpt lat="45.12629" lon="5.5337">
        <ele>969</ele>
        <time>2022-08-12T15:55:59.000Z</time>
      </trkpt>
      <trkpt lat="45.12632" lon="5.53369">
        <ele>969</ele>
        <time>2022-08-12T15:56:00.000Z</time>
      </trkpt>
      <trkpt lat="45.12637" lon="5.53369">
        <ele>969</ele>
        <time>2022-08-12T15:56:01.000Z</time>
      </trkpt>
      <trkpt lat="45.12659" lon="5.53367">
        <ele>969.1</ele>
        <time>2022-08-12T15:56:07.000Z</time>
      </trkpt>
      <trkpt lat="45.12679" lon="5.53366">
        <ele>969.5</ele>
        <time>2022-08-12T15:56:12.000Z</time>
      </trkpt>
      <trkpt lat="45.12686" lon="5.53366">
        <ele>969.7</ele>
        <time>2022-08-12T15:56:14.000Z</time>
      </trkpt>
      <trkpt lat="45.12697" lon="5.53365">
        <ele>970.1</ele>
        <time>2022-08-12T15:56:17.000Z</time>
      </trkpt>
      <trkpt lat="45.12706" lon="5.53364">
        <ele>970.4</ele>
        <time>2022-08-12T15:56:19.000Z</time>
      </trkpt>
      <trkpt lat="45.12708" lon="5.53363">
        <ele>970.5</ele>
        <time>2022-08-12T15:56:20.000Z</time>
      </trkpt>
      <trkpt lat="45.12715" lon="5.53362">
        <ele>970.7</ele>
        <time>2022-08-12T15:56:22.000Z</time>
      </trkpt>
      <trkpt lat="45.12719" lon="5.53361">
        <ele>970.9</ele>
        <time>2022-08-12T15:56:23.000Z</time>
      </trkpt>
      <trkpt lat="45.12722" lon="5.5336">
        <ele>971</ele>
        <time>2022-08-12T15:56:24.000Z</time>
      </trkpt>
      <trkpt lat="45.12725" lon="5.5336">
        <ele>971.1</ele>
        <time>2022-08-12T15:56:25.000Z</time>
      </trkpt>
      <trkpt lat="45.12729" lon="5.53359">
        <ele>971.2</ele>
        <time>2022-08-12T15:56:26.000Z</time>
      </trkpt>
      <trkpt lat="45.12732" lon="5.53359">
        <ele>971.2</ele>
        <time>2022-08-12T15:56:27.000Z</time>
      </trkpt>
      <trkpt lat="45.12735" lon="5.53358">
        <ele>971.3</ele>
        <time>2022-08-12T15:56:28.000Z</time>
      </trkpt>
      <trkpt lat="45.12745" lon="5.53355">
        <ele>971.6</ele>
        <time>2022-08-12T15:56:31.000Z</time>
      </trkpt>
      <trkpt lat="45.12748" lon="5.53354">
        <ele>971.7</ele>
        <time>2022-08-12T15:56:32.000Z</time>
      </trkpt>
      <trkpt lat="45.12752" lon="5.53353">
        <ele>971.8</ele>
        <time>2022-08-12T15:56:33.000Z</time>
      </trkpt>
      <trkpt lat="45.12777" lon="5.53348">
        <ele>972.5</ele>
        <time>2022-08-12T15:56:40.000Z</time>
      </trkpt>
      <trkpt lat="45.12779" lon="5.53347">
        <ele>972.5</ele>
        <time>2022-08-12T15:56:41.000Z</time>
      </trkpt>
      <trkpt lat="45.12783" lon="5.53346">
        <ele>972.6</ele>
        <time>2022-08-12T15:56:42.000Z</time>
      </trkpt>
      <trkpt lat="45.12786" lon="5.53345">
        <ele>972.6</ele>
        <time>2022-08-12T15:56:43.000Z</time>
      </trkpt>
      <trkpt lat="45.1279" lon="5.53344">
        <ele>972.7</ele>
        <time>2022-08-12T15:56:44.000Z</time>
      </trkpt>
      <trkpt lat="45.12794" lon="5.53343">
        <ele>972.7</ele>
        <time>2022-08-12T15:56:45.000Z</time>
      </trkpt>
      <trkpt lat="45.12797" lon="5.53341">
        <ele>972.8</ele>
        <time>2022-08-12T15:56:46.000Z</time>
      </trkpt>
      <trkpt lat="45.128" lon="5.5334">
        <ele>972.8</ele>
        <time>2022-08-12T15:56:47.000Z</time>
      </trkpt>
      <trkpt lat="45.12804" lon="5.53339">
        <ele>972.9</ele>
        <time>2022-08-12T15:56:48.000Z</time>
      </trkpt>
      <trkpt lat="45.12807" lon="5.53336">
        <ele>973.1</ele>
        <time>2022-08-12T15:56:49.000Z</time>
      </trkpt>
      <trkpt lat="45.1281" lon="5.53334">
        <ele>973.2</ele>
        <time>2022-08-12T15:56:50.000Z</time>
      </trkpt>
      <trkpt lat="45.12813" lon="5.53332">
        <ele>973.2</ele>
        <time>2022-08-12T15:56:51.000Z</time>
      </trkpt>
      <trkpt lat="45.12816" lon="5.5333">
        <ele>973.3</ele>
        <time>2022-08-12T15:56:52.000Z</time>
      </trkpt>
      <trkpt lat="45.12819" lon="5.53329">
        <ele>973.3</ele>
        <time>2022-08-12T15:56:53.000Z</time>
      </trkpt>
      <trkpt lat="45.12822" lon="5.53327">
        <ele>973.4</ele>
        <time>2022-08-12T15:56:54.000Z</time>
      </trkpt>
      <trkpt lat="45.12824" lon="5.53325">
        <ele>973.4</ele>
        <time>2022-08-12T15:56:55.000Z</time>
      </trkpt>
      <trkpt lat="45.12827" lon="5.53323">
        <ele>973.4</ele>
        <time>2022-08-12T15:56:56.000Z</time>
      </trkpt>
      <trkpt lat="45.12829" lon="5.5332">
        <ele>973.4</ele>
        <time>2022-08-12T15:56:57.000Z</time>
      </trkpt>
      <trkpt lat="45.12831" lon="5.53317">
        <ele>973.3</ele>
        <time>2022-08-12T15:56:58.000Z</time>
      </trkpt>
      <trkpt lat="45.12833" lon="5.53315">
        <ele>973.3</ele>
        <time>2022-08-12T15:56:59.000Z</time>
      </trkpt>
      <trkpt lat="45.12836" lon="5.53312">
        <ele>973.3</ele>
        <time>2022-08-12T15:57:00.000Z</time>
      </trkpt>
      <trkpt lat="45.12839" lon="5.5331">
        <ele>973.4</ele>
        <time>2022-08-12T15:57:01.000Z</time>
      </trkpt>
      <trkpt lat="45.1285" lon="5.53299">
        <ele>973.4</ele>
        <time>2022-08-12T15:57:05.000Z</time>
      </trkpt>
      <trkpt lat="45.12859" lon="5.53293">
        <ele>973.5</ele>
        <time>2022-08-12T15:57:08.000Z</time>
      </trkpt>
      <trkpt lat="45.1288" lon="5.53274">
        <ele>973.6</ele>
        <time>2022-08-12T15:57:15.000Z</time>
      </trkpt>
      <trkpt lat="45.129" lon="5.53255">
        <ele>973.7</ele>
        <time>2022-08-12T15:57:22.000Z</time>
      </trkpt>
      <trkpt lat="45.12902" lon="5.53253">
        <ele>973.6</ele>
        <time>2022-08-12T15:57:23.000Z</time>
      </trkpt>
      <trkpt lat="45.12905" lon="5.5325">
        <ele>973.6</ele>
        <time>2022-08-12T15:57:24.000Z</time>
      </trkpt>
      <trkpt lat="45.12922" lon="5.53236">
        <ele>973.7</ele>
        <time>2022-08-12T15:57:30.000Z</time>
      </trkpt>
      <trkpt lat="45.12928" lon="5.53232">
        <ele>973.7</ele>
        <time>2022-08-12T15:57:32.000Z</time>
      </trkpt>
      <trkpt lat="45.1295" lon="5.53217">
        <ele>973.8</ele>
        <time>2022-08-12T15:57:39.000Z</time>
      </trkpt>
      <trkpt lat="45.12953" lon="5.53218">
        <ele>974</ele>
        <time>2022-08-12T15:57:40.000Z</time>
      </trkpt>
      <trkpt lat="45.12955" lon="5.5322">
        <ele>974.2</ele>
        <time>2022-08-12T15:57:41.000Z</time>
      </trkpt>
      <trkpt lat="45.12956" lon="5.53224">
        <ele>974.5</ele>
        <time>2022-08-12T15:57:42.000Z</time>
      </trkpt>
      <trkpt lat="45.12957" lon="5.53227">
        <ele>974.6</ele>
        <time>2022-08-12T15:57:43.000Z</time>
      </trkpt>
      <trkpt lat="45.12958" lon="5.5323">
        <ele>974.8</ele>
        <time>2022-08-12T15:57:44.000Z</time>
      </trkpt>
      <trkpt lat="45.12958" lon="5.53234">
        <ele>974.9</ele>
        <time>2022-08-12T15:57:45.000Z</time>
      </trkpt>
      <trkpt lat="45.12959" lon="5.53237">
        <ele>975.1</ele>
        <time>2022-08-12T15:57:46.000Z</time>
      </trkpt>
      <trkpt lat="45.1296" lon="5.53242">
        <ele>975.3</ele>
        <time>2022-08-12T15:57:48.000Z</time>
      </trkpt>
      <trkpt lat="45.1296" lon="5.53245">
        <ele>975.4</ele>
        <time>2022-08-12T15:57:49.000Z</time>
      </trkpt>
      <trkpt lat="45.1296" lon="5.53248">
        <ele>975.5</ele>
        <time>2022-08-12T15:57:50.000Z</time>
      </trkpt>
      <trkpt lat="45.1296" lon="5.53251">
        <ele>975.6</ele>
        <time>2022-08-12T15:57:51.000Z</time>
      </trkpt>
      <trkpt lat="45.1296" lon="5.53255">
        <ele>975.8</ele>
        <time>2022-08-12T15:57:52.000Z</time>
      </trkpt>
      <trkpt lat="45.12961" lon="5.53258">
        <ele>976</ele>
        <time>2022-08-12T15:57:53.000Z</time>
      </trkpt>
      <trkpt lat="45.12961" lon="5.53265">
        <ele>976.3</ele>
        <time>2022-08-12T15:57:55.000Z</time>
      </trkpt>
      <trkpt lat="45.12962" lon="5.53278">
        <ele>977</ele>
        <time>2022-08-12T15:57:59.000Z</time>
      </trkpt>
      <trkpt lat="45.12962" lon="5.53282">
        <ele>977.1</ele>
        <time>2022-08-12T15:58:00.000Z</time>
      </trkpt>
      <trkpt lat="45.12963" lon="5.53285">
        <ele>977.2</ele>
        <time>2022-08-12T15:58:01.000Z</time>
      </trkpt>
      <trkpt lat="45.12963" lon="5.53288">
        <ele>977.4</ele>
        <time>2022-08-12T15:58:02.000Z</time>
      </trkpt>
      <trkpt lat="45.12963" lon="5.53291">
        <ele>977.5</ele>
        <time>2022-08-12T15:58:03.000Z</time>
      </trkpt>
      <trkpt lat="45.12963" lon="5.53294">
        <ele>977.6</ele>
        <time>2022-08-12T15:58:04.000Z</time>
      </trkpt>
      <trkpt lat="45.12964" lon="5.53298">
        <ele>977.7</ele>
        <time>2022-08-12T15:58:05.000Z</time>
      </trkpt>
      <trkpt lat="45.12964" lon="5.53301">
        <ele>977.8</ele>
        <time>2022-08-12T15:58:06.000Z</time>
      </trkpt>
      <trkpt lat="45.12965" lon="5.53303">
        <ele>977.9</ele>
        <time>2022-08-12T15:58:07.000Z</time>
      </trkpt>
      <trkpt lat="45.12965" lon="5.53307">
        <ele>978</ele>
        <time>2022-08-12T15:58:08.000Z</time>
      </trkpt>
      <trkpt lat="45.12966" lon="5.5331">
        <ele>978.2</ele>
        <time>2022-08-12T15:58:09.000Z</time>
      </trkpt>
      <trkpt lat="45.12966" lon="5.53313">
        <ele>978.3</ele>
        <time>2022-08-12T15:58:10.000Z</time>
      </trkpt>
      <trkpt lat="45.12967" lon="5.53316">
        <ele>978.4</ele>
        <time>2022-08-12T15:58:11.000Z</time>
      </trkpt>
      <trkpt lat="45.12968" lon="5.53319">
        <ele>978.5</ele>
        <time>2022-08-12T15:58:12.000Z</time>
      </trkpt>
      <trkpt lat="45.12968" lon="5.53322">
        <ele>978.6</ele>
        <time>2022-08-12T15:58:13.000Z</time>
      </trkpt>
      <trkpt lat="45.12969" lon="5.53325">
        <ele>978.7</ele>
        <time>2022-08-12T15:58:14.000Z</time>
      </trkpt>
      <trkpt lat="45.12969" lon="5.53328">
        <ele>978.8</ele>
        <time>2022-08-12T15:58:15.000Z</time>
      </trkpt>
      <trkpt lat="45.12969" lon="5.53331">
        <ele>978.9</ele>
        <time>2022-08-12T15:58:16.000Z</time>
      </trkpt>
      <trkpt lat="45.1297" lon="5.53335">
        <ele>979</ele>
        <time>2022-08-12T15:58:17.000Z</time>
      </trkpt>
      <trkpt lat="45.1297" lon="5.53337">
        <ele>979.1</ele>
        <time>2022-08-12T15:58:18.000Z</time>
      </trkpt>
      <trkpt lat="45.1297" lon="5.5334">
        <ele>979.2</ele>
        <time>2022-08-12T15:58:19.000Z</time>
      </trkpt>
      <trkpt lat="45.1297" lon="5.53343">
        <ele>979.3</ele>
        <time>2022-08-12T15:58:20.000Z</time>
      </trkpt>
      <trkpt lat="45.1297" lon="5.53346">
        <ele>979.4</ele>
        <time>2022-08-12T15:58:21.000Z</time>
      </trkpt>
      <trkpt lat="45.12971" lon="5.53349">
        <ele>979.6</ele>
        <time>2022-08-12T15:58:22.000Z</time>
      </trkpt>
      <trkpt lat="45.12971" lon="5.53352">
        <ele>979.7</ele>
        <time>2022-08-12T15:58:23.000Z</time>
      </trkpt>
      <trkpt lat="45.12972" lon="5.53355">
        <ele>979.8</ele>
        <time>2022-08-12T15:58:24.000Z</time>
      </trkpt>
      <trkpt lat="45.12973" lon="5.53358">
        <ele>979.9</ele>
        <time>2022-08-12T15:58:25.000Z</time>
      </trkpt>
      <trkpt lat="45.12973" lon="5.53361">
        <ele>980</ele>
        <time>2022-08-12T15:58:26.000Z</time>
      </trkpt>
      <trkpt lat="45.12973" lon="5.53364">
        <ele>980.2</ele>
        <time>2022-08-12T15:58:27.000Z</time>
      </trkpt>
      <trkpt lat="45.12974" lon="5.53367">
        <ele>980.5</ele>
        <time>2022-08-12T15:58:28.000Z</time>
      </trkpt>
      <trkpt lat="45.12975" lon="5.53376">
        <ele>981.1</ele>
        <time>2022-08-12T15:58:31.000Z</time>
      </trkpt>
      <trkpt lat="45.12976" lon="5.53385">
        <ele>981.8</ele>
        <time>2022-08-12T15:58:34.000Z</time>
      </trkpt>
      <trkpt lat="45.12975" lon="5.53393">
        <ele>982.2</ele>
        <time>2022-08-12T15:58:37.000Z</time>
      </trkpt>
      <trkpt lat="45.12974" lon="5.53396">
        <ele>982.3</ele>
        <time>2022-08-12T15:58:38.000Z</time>
        <extensions>
          <visugpx:TrkExtension xmlns:visugpx="https://www.visugpx.com/editgpx/">
            <visugpx:node>3</visugpx:node>
            </visugpx:TrkExtension>
        </extensions>
      </trkpt>
    </trkseg>
  </trk>
</gpx>